<?xml version="1.0" encoding="UTF-8" standalone="no" ?>
<gpx xmlns="http://www.topografix.com/GPX/1/1" xmlns:xsi="http://www.w3.org/2001/XMLSchema-instance" xsi:schemaLocation="http://www.topografix.com/GPX/1/1 http://www.topografix.com/GPX/1/1/gpx.xsd" version="1.1" creator="VisuGPX - https://www.visugpx.com">
  <metadata>
    <name>NE-O-Indre Sautron Treillières Sucé St Mars Le Cellier Oudon Thouaré Nantes</name>
    <desc><![CDATA[NE-O-Indre Sautron Treillières Sucé St Mars Le Cellier Oudon Thouaré Nantes]]></desc>
  </metadata>
  <trk>
    <name><![CDATA[2021-06-12 09:06 +02:00]]></name>
    <trkseg>
      <trkpt lat="47.16775" lon="-1.62653">
        <ele>72</ele>
        <time>2021-06-12T07:06:23.000Z</time>
      </trkpt>
      <trkpt lat="47.16778" lon="-1.62666">
        <ele>74</ele>
        <time>2021-06-12T07:08:16.000Z</time>
      </trkpt>
      <trkpt lat="47.16769" lon="-1.62677">
        <ele>73</ele>
        <time>2021-06-12T07:08:19.000Z</time>
      </trkpt>
      <trkpt lat="47.16757" lon="-1.62673">
        <ele>73</ele>
        <time>2021-06-12T07:08:22.000Z</time>
      </trkpt>
      <trkpt lat="47.16747" lon="-1.62674">
        <ele>71</ele>
        <time>2021-06-12T07:08:24.000Z</time>
      </trkpt>
      <trkpt lat="47.16737" lon="-1.62681">
        <ele>71</ele>
        <time>2021-06-12T07:08:26.000Z</time>
      </trkpt>
      <trkpt lat="47.16728" lon="-1.62687">
        <ele>71</ele>
        <time>2021-06-12T07:08:28.000Z</time>
      </trkpt>
      <trkpt lat="47.16719" lon="-1.62694">
        <ele>70</ele>
        <time>2021-06-12T07:08:30.000Z</time>
      </trkpt>
      <trkpt lat="47.16718" lon="-1.62707">
        <ele>69</ele>
        <time>2021-06-12T07:08:32.000Z</time>
      </trkpt>
      <trkpt lat="47.16724" lon="-1.62719">
        <ele>69</ele>
        <time>2021-06-12T07:08:34.000Z</time>
      </trkpt>
      <trkpt lat="47.16731" lon="-1.62732">
        <ele>69</ele>
        <time>2021-06-12T07:08:36.000Z</time>
      </trkpt>
      <trkpt lat="47.16738" lon="-1.62744">
        <ele>68</ele>
        <time>2021-06-12T07:08:38.000Z</time>
      </trkpt>
      <trkpt lat="47.16747" lon="-1.62755">
        <ele>68</ele>
        <time>2021-06-12T07:08:40.000Z</time>
      </trkpt>
      <trkpt lat="47.16757" lon="-1.62766">
        <ele>68</ele>
        <time>2021-06-12T07:08:42.000Z</time>
      </trkpt>
      <trkpt lat="47.16767" lon="-1.62776">
        <ele>68</ele>
        <time>2021-06-12T07:08:44.000Z</time>
      </trkpt>
      <trkpt lat="47.16777" lon="-1.62785">
        <ele>68</ele>
        <time>2021-06-12T07:08:46.000Z</time>
      </trkpt>
      <trkpt lat="47.16787" lon="-1.62794">
        <ele>68</ele>
        <time>2021-06-12T07:08:48.000Z</time>
      </trkpt>
      <trkpt lat="47.16797" lon="-1.62803">
        <ele>68</ele>
        <time>2021-06-12T07:08:50.000Z</time>
      </trkpt>
      <trkpt lat="47.16807" lon="-1.62812">
        <ele>69</ele>
        <time>2021-06-12T07:08:52.000Z</time>
      </trkpt>
      <trkpt lat="47.16816" lon="-1.62821">
        <ele>69</ele>
        <time>2021-06-12T07:08:54.000Z</time>
      </trkpt>
      <trkpt lat="47.16825" lon="-1.6283">
        <ele>70</ele>
        <time>2021-06-12T07:08:56.000Z</time>
      </trkpt>
      <trkpt lat="47.16834" lon="-1.62839">
        <ele>70</ele>
        <time>2021-06-12T07:08:58.000Z</time>
      </trkpt>
      <trkpt lat="47.16843" lon="-1.62847">
        <ele>70</ele>
        <time>2021-06-12T07:09:00.000Z</time>
      </trkpt>
      <trkpt lat="47.16853" lon="-1.62856">
        <ele>71</ele>
        <time>2021-06-12T07:09:02.000Z</time>
      </trkpt>
      <trkpt lat="47.16861" lon="-1.62865">
        <ele>71</ele>
        <time>2021-06-12T07:09:04.000Z</time>
      </trkpt>
      <trkpt lat="47.1687" lon="-1.62876">
        <ele>72</ele>
        <time>2021-06-12T07:09:06.000Z</time>
      </trkpt>
      <trkpt lat="47.16877" lon="-1.62888">
        <ele>72</ele>
        <time>2021-06-12T07:09:08.000Z</time>
      </trkpt>
      <trkpt lat="47.16883" lon="-1.62901">
        <ele>72</ele>
        <time>2021-06-12T07:09:10.000Z</time>
      </trkpt>
      <trkpt lat="47.16887" lon="-1.62916">
        <ele>72</ele>
        <time>2021-06-12T07:09:12.000Z</time>
      </trkpt>
      <trkpt lat="47.1689" lon="-1.62931">
        <ele>73</ele>
        <time>2021-06-12T07:09:14.000Z</time>
      </trkpt>
      <trkpt lat="47.16891" lon="-1.62947">
        <ele>73</ele>
        <time>2021-06-12T07:09:16.000Z</time>
      </trkpt>
      <trkpt lat="47.16891" lon="-1.62963">
        <ele>73</ele>
        <time>2021-06-12T07:09:18.000Z</time>
      </trkpt>
      <trkpt lat="47.16891" lon="-1.6298">
        <ele>73</ele>
        <time>2021-06-12T07:09:20.000Z</time>
      </trkpt>
      <trkpt lat="47.16889" lon="-1.62996">
        <ele>73</ele>
        <time>2021-06-12T07:09:22.000Z</time>
      </trkpt>
      <trkpt lat="47.16887" lon="-1.63011">
        <ele>74</ele>
        <time>2021-06-12T07:09:24.000Z</time>
      </trkpt>
      <trkpt lat="47.16886" lon="-1.63027">
        <ele>74</ele>
        <time>2021-06-12T07:09:26.000Z</time>
      </trkpt>
      <trkpt lat="47.16886" lon="-1.63044">
        <ele>73</ele>
        <time>2021-06-12T07:09:28.000Z</time>
      </trkpt>
      <trkpt lat="47.16887" lon="-1.6306">
        <ele>73</ele>
        <time>2021-06-12T07:09:30.000Z</time>
      </trkpt>
      <trkpt lat="47.16889" lon="-1.63076">
        <ele>74</ele>
        <time>2021-06-12T07:09:32.000Z</time>
      </trkpt>
      <trkpt lat="47.16891" lon="-1.63092">
        <ele>74</ele>
        <time>2021-06-12T07:09:34.000Z</time>
      </trkpt>
      <trkpt lat="47.16895" lon="-1.63107">
        <ele>75</ele>
        <time>2021-06-12T07:09:36.000Z</time>
      </trkpt>
      <trkpt lat="47.16899" lon="-1.63123">
        <ele>75</ele>
        <time>2021-06-12T07:09:38.000Z</time>
      </trkpt>
      <trkpt lat="47.16903" lon="-1.63138">
        <ele>75</ele>
        <time>2021-06-12T07:09:40.000Z</time>
      </trkpt>
      <trkpt lat="47.16909" lon="-1.63153">
        <ele>75</ele>
        <time>2021-06-12T07:09:42.000Z</time>
      </trkpt>
      <trkpt lat="47.16914" lon="-1.63167">
        <ele>76</ele>
        <time>2021-06-12T07:09:44.000Z</time>
      </trkpt>
      <trkpt lat="47.1692" lon="-1.6318">
        <ele>76</ele>
        <time>2021-06-12T07:09:46.000Z</time>
      </trkpt>
      <trkpt lat="47.16927" lon="-1.63192">
        <ele>76</ele>
        <time>2021-06-12T07:09:48.000Z</time>
      </trkpt>
      <trkpt lat="47.16934" lon="-1.63204">
        <ele>76</ele>
        <time>2021-06-12T07:09:50.000Z</time>
      </trkpt>
      <trkpt lat="47.16941" lon="-1.63215">
        <ele>76</ele>
        <time>2021-06-12T07:09:52.000Z</time>
      </trkpt>
      <trkpt lat="47.16949" lon="-1.63226">
        <ele>76</ele>
        <time>2021-06-12T07:09:54.000Z</time>
      </trkpt>
      <trkpt lat="47.16956" lon="-1.63235">
        <ele>76</ele>
        <time>2021-06-12T07:09:56.000Z</time>
      </trkpt>
      <trkpt lat="47.16965" lon="-1.63246">
        <ele>76</ele>
        <time>2021-06-12T07:09:59.000Z</time>
      </trkpt>
      <trkpt lat="47.16965" lon="-1.63263">
        <ele>77</ele>
        <time>2021-06-12T07:10:06.000Z</time>
      </trkpt>
      <trkpt lat="47.16958" lon="-1.63273">
        <ele>77</ele>
        <time>2021-06-12T07:10:08.000Z</time>
      </trkpt>
      <trkpt lat="47.1695" lon="-1.63284">
        <ele>77</ele>
        <time>2021-06-12T07:10:10.000Z</time>
      </trkpt>
      <trkpt lat="47.16943" lon="-1.63299">
        <ele>77</ele>
        <time>2021-06-12T07:10:12.000Z</time>
      </trkpt>
      <trkpt lat="47.16934" lon="-1.63312">
        <ele>77</ele>
        <time>2021-06-12T07:10:14.000Z</time>
      </trkpt>
      <trkpt lat="47.16926" lon="-1.63325">
        <ele>78</ele>
        <time>2021-06-12T07:10:16.000Z</time>
      </trkpt>
      <trkpt lat="47.16917" lon="-1.63338">
        <ele>78</ele>
        <time>2021-06-12T07:10:18.000Z</time>
      </trkpt>
      <trkpt lat="47.16908" lon="-1.6335">
        <ele>78</ele>
        <time>2021-06-12T07:10:20.000Z</time>
      </trkpt>
      <trkpt lat="47.169" lon="-1.63363">
        <ele>78</ele>
        <time>2021-06-12T07:10:22.000Z</time>
      </trkpt>
      <trkpt lat="47.16892" lon="-1.63376">
        <ele>78</ele>
        <time>2021-06-12T07:10:24.000Z</time>
      </trkpt>
      <trkpt lat="47.16884" lon="-1.6339">
        <ele>78</ele>
        <time>2021-06-12T07:10:26.000Z</time>
      </trkpt>
      <trkpt lat="47.16876" lon="-1.63403">
        <ele>78</ele>
        <time>2021-06-12T07:10:28.000Z</time>
      </trkpt>
      <trkpt lat="47.16868" lon="-1.63417">
        <ele>78</ele>
        <time>2021-06-12T07:10:30.000Z</time>
      </trkpt>
      <trkpt lat="47.1686" lon="-1.63431">
        <ele>78</ele>
        <time>2021-06-12T07:10:32.000Z</time>
      </trkpt>
      <trkpt lat="47.16852" lon="-1.63444">
        <ele>78</ele>
        <time>2021-06-12T07:10:34.000Z</time>
      </trkpt>
      <trkpt lat="47.16845" lon="-1.63457">
        <ele>78</ele>
        <time>2021-06-12T07:10:36.000Z</time>
      </trkpt>
      <trkpt lat="47.16838" lon="-1.6347">
        <ele>79</ele>
        <time>2021-06-12T07:10:38.000Z</time>
      </trkpt>
      <trkpt lat="47.16829" lon="-1.63483">
        <ele>79</ele>
        <time>2021-06-12T07:10:40.000Z</time>
      </trkpt>
      <trkpt lat="47.16822" lon="-1.63496">
        <ele>78</ele>
        <time>2021-06-12T07:10:42.000Z</time>
      </trkpt>
      <trkpt lat="47.16814" lon="-1.63509">
        <ele>78</ele>
        <time>2021-06-12T07:10:44.000Z</time>
      </trkpt>
      <trkpt lat="47.16806" lon="-1.63522">
        <ele>78</ele>
        <time>2021-06-12T07:10:46.000Z</time>
      </trkpt>
      <trkpt lat="47.16798" lon="-1.63535">
        <ele>77</ele>
        <time>2021-06-12T07:10:48.000Z</time>
      </trkpt>
      <trkpt lat="47.1679" lon="-1.63549">
        <ele>77</ele>
        <time>2021-06-12T07:10:50.000Z</time>
      </trkpt>
      <trkpt lat="47.16782" lon="-1.63562">
        <ele>78</ele>
        <time>2021-06-12T07:10:52.000Z</time>
      </trkpt>
      <trkpt lat="47.16774" lon="-1.63576">
        <ele>78</ele>
        <time>2021-06-12T07:10:54.000Z</time>
      </trkpt>
      <trkpt lat="47.16766" lon="-1.63589">
        <ele>78</ele>
        <time>2021-06-12T07:10:56.000Z</time>
      </trkpt>
      <trkpt lat="47.16759" lon="-1.63603">
        <ele>77</ele>
        <time>2021-06-12T07:10:58.000Z</time>
      </trkpt>
      <trkpt lat="47.16751" lon="-1.63615">
        <ele>77</ele>
        <time>2021-06-12T07:11:00.000Z</time>
      </trkpt>
      <trkpt lat="47.16744" lon="-1.63628">
        <ele>77</ele>
        <time>2021-06-12T07:11:02.000Z</time>
      </trkpt>
      <trkpt lat="47.16747" lon="-1.63643">
        <ele>77</ele>
        <time>2021-06-12T07:11:04.000Z</time>
      </trkpt>
      <trkpt lat="47.16758" lon="-1.63649">
        <ele>76</ele>
        <time>2021-06-12T07:11:06.000Z</time>
      </trkpt>
      <trkpt lat="47.16769" lon="-1.63652">
        <ele>77</ele>
        <time>2021-06-12T07:11:08.000Z</time>
      </trkpt>
      <trkpt lat="47.1678" lon="-1.63655">
        <ele>77</ele>
        <time>2021-06-12T07:11:10.000Z</time>
      </trkpt>
      <trkpt lat="47.16791" lon="-1.63659">
        <ele>78</ele>
        <time>2021-06-12T07:11:12.000Z</time>
      </trkpt>
      <trkpt lat="47.16802" lon="-1.63663">
        <ele>78</ele>
        <time>2021-06-12T07:11:14.000Z</time>
      </trkpt>
      <trkpt lat="47.16813" lon="-1.63667">
        <ele>78</ele>
        <time>2021-06-12T07:11:16.000Z</time>
      </trkpt>
      <trkpt lat="47.16825" lon="-1.63671">
        <ele>78</ele>
        <time>2021-06-12T07:11:18.000Z</time>
      </trkpt>
      <trkpt lat="47.16836" lon="-1.63676">
        <ele>79</ele>
        <time>2021-06-12T07:11:20.000Z</time>
      </trkpt>
      <trkpt lat="47.16847" lon="-1.6368">
        <ele>79</ele>
        <time>2021-06-12T07:11:22.000Z</time>
      </trkpt>
      <trkpt lat="47.16858" lon="-1.63684">
        <ele>79</ele>
        <time>2021-06-12T07:11:24.000Z</time>
      </trkpt>
      <trkpt lat="47.1687" lon="-1.63688">
        <ele>79</ele>
        <time>2021-06-12T07:11:26.000Z</time>
      </trkpt>
      <trkpt lat="47.16882" lon="-1.63693">
        <ele>79</ele>
        <time>2021-06-12T07:11:28.000Z</time>
      </trkpt>
      <trkpt lat="47.16894" lon="-1.63697">
        <ele>79</ele>
        <time>2021-06-12T07:11:30.000Z</time>
      </trkpt>
      <trkpt lat="47.16905" lon="-1.63702">
        <ele>79</ele>
        <time>2021-06-12T07:11:32.000Z</time>
      </trkpt>
      <trkpt lat="47.16917" lon="-1.63706">
        <ele>79</ele>
        <time>2021-06-12T07:11:34.000Z</time>
      </trkpt>
      <trkpt lat="47.16929" lon="-1.6371">
        <ele>79</ele>
        <time>2021-06-12T07:11:36.000Z</time>
      </trkpt>
      <trkpt lat="47.16941" lon="-1.63715">
        <ele>78</ele>
        <time>2021-06-12T07:11:38.000Z</time>
      </trkpt>
      <trkpt lat="47.16952" lon="-1.63719">
        <ele>78</ele>
        <time>2021-06-12T07:11:40.000Z</time>
      </trkpt>
      <trkpt lat="47.16964" lon="-1.63723">
        <ele>79</ele>
        <time>2021-06-12T07:11:42.000Z</time>
      </trkpt>
      <trkpt lat="47.16976" lon="-1.63728">
        <ele>79</ele>
        <time>2021-06-12T07:11:44.000Z</time>
      </trkpt>
      <trkpt lat="47.16988" lon="-1.63732">
        <ele>79</ele>
        <time>2021-06-12T07:11:46.000Z</time>
      </trkpt>
      <trkpt lat="47.16999" lon="-1.63736">
        <ele>80</ele>
        <time>2021-06-12T07:11:48.000Z</time>
      </trkpt>
      <trkpt lat="47.17011" lon="-1.63741">
        <ele>80</ele>
        <time>2021-06-12T07:11:50.000Z</time>
      </trkpt>
      <trkpt lat="47.17023" lon="-1.63745">
        <ele>81</ele>
        <time>2021-06-12T07:11:52.000Z</time>
      </trkpt>
      <trkpt lat="47.17036" lon="-1.63749">
        <ele>80</ele>
        <time>2021-06-12T07:11:54.000Z</time>
      </trkpt>
      <trkpt lat="47.17048" lon="-1.63755">
        <ele>81</ele>
        <time>2021-06-12T07:11:56.000Z</time>
      </trkpt>
      <trkpt lat="47.17058" lon="-1.63767">
        <ele>80</ele>
        <time>2021-06-12T07:11:58.000Z</time>
      </trkpt>
      <trkpt lat="47.17066" lon="-1.63782">
        <ele>80</ele>
        <time>2021-06-12T07:12:00.000Z</time>
      </trkpt>
      <trkpt lat="47.17072" lon="-1.63798">
        <ele>81</ele>
        <time>2021-06-12T07:12:02.000Z</time>
      </trkpt>
      <trkpt lat="47.17077" lon="-1.63816">
        <ele>81</ele>
        <time>2021-06-12T07:12:04.000Z</time>
      </trkpt>
      <trkpt lat="47.17082" lon="-1.63832">
        <ele>81</ele>
        <time>2021-06-12T07:12:06.000Z</time>
      </trkpt>
      <trkpt lat="47.17088" lon="-1.63849">
        <ele>81</ele>
        <time>2021-06-12T07:12:08.000Z</time>
      </trkpt>
      <trkpt lat="47.17094" lon="-1.63865">
        <ele>80</ele>
        <time>2021-06-12T07:12:10.000Z</time>
      </trkpt>
      <trkpt lat="47.17099" lon="-1.63881">
        <ele>79</ele>
        <time>2021-06-12T07:12:12.000Z</time>
      </trkpt>
      <trkpt lat="47.17105" lon="-1.63897">
        <ele>79</ele>
        <time>2021-06-12T07:12:14.000Z</time>
      </trkpt>
      <trkpt lat="47.17111" lon="-1.63913">
        <ele>79</ele>
        <time>2021-06-12T07:12:16.000Z</time>
      </trkpt>
      <trkpt lat="47.17117" lon="-1.63928">
        <ele>79</ele>
        <time>2021-06-12T07:12:18.000Z</time>
      </trkpt>
      <trkpt lat="47.17125" lon="-1.63939">
        <ele>79</ele>
        <time>2021-06-12T07:12:20.000Z</time>
      </trkpt>
      <trkpt lat="47.17134" lon="-1.63945">
        <ele>78</ele>
        <time>2021-06-12T07:12:23.000Z</time>
      </trkpt>
      <trkpt lat="47.17139" lon="-1.63965">
        <ele>78</ele>
        <time>2021-06-12T07:12:26.000Z</time>
      </trkpt>
      <trkpt lat="47.17138" lon="-1.63982">
        <ele>78</ele>
        <time>2021-06-12T07:12:28.000Z</time>
      </trkpt>
      <trkpt lat="47.17138" lon="-1.64">
        <ele>78</ele>
        <time>2021-06-12T07:12:30.000Z</time>
      </trkpt>
      <trkpt lat="47.17136" lon="-1.64019">
        <ele>78</ele>
        <time>2021-06-12T07:12:32.000Z</time>
      </trkpt>
      <trkpt lat="47.17133" lon="-1.64037">
        <ele>78</ele>
        <time>2021-06-12T07:12:34.000Z</time>
      </trkpt>
      <trkpt lat="47.17131" lon="-1.64055">
        <ele>78</ele>
        <time>2021-06-12T07:12:36.000Z</time>
      </trkpt>
      <trkpt lat="47.1713" lon="-1.64074">
        <ele>78</ele>
        <time>2021-06-12T07:12:38.000Z</time>
      </trkpt>
      <trkpt lat="47.17128" lon="-1.64093">
        <ele>79</ele>
        <time>2021-06-12T07:12:40.000Z</time>
      </trkpt>
      <trkpt lat="47.17126" lon="-1.64112">
        <ele>79</ele>
        <time>2021-06-12T07:12:42.000Z</time>
      </trkpt>
      <trkpt lat="47.17124" lon="-1.64131">
        <ele>79</ele>
        <time>2021-06-12T07:12:44.000Z</time>
      </trkpt>
      <trkpt lat="47.17122" lon="-1.6415">
        <ele>78</ele>
        <time>2021-06-12T07:12:46.000Z</time>
      </trkpt>
      <trkpt lat="47.1712" lon="-1.64168">
        <ele>78</ele>
        <time>2021-06-12T07:12:48.000Z</time>
      </trkpt>
      <trkpt lat="47.17118" lon="-1.64187">
        <ele>78</ele>
        <time>2021-06-12T07:12:50.000Z</time>
      </trkpt>
      <trkpt lat="47.17115" lon="-1.64206">
        <ele>78</ele>
        <time>2021-06-12T07:12:52.000Z</time>
      </trkpt>
      <trkpt lat="47.17113" lon="-1.64225">
        <ele>78</ele>
        <time>2021-06-12T07:12:54.000Z</time>
      </trkpt>
      <trkpt lat="47.17112" lon="-1.64245">
        <ele>78</ele>
        <time>2021-06-12T07:12:56.000Z</time>
      </trkpt>
      <trkpt lat="47.1711" lon="-1.64264">
        <ele>78</ele>
        <time>2021-06-12T07:12:58.000Z</time>
      </trkpt>
      <trkpt lat="47.17107" lon="-1.64283">
        <ele>79</ele>
        <time>2021-06-12T07:13:00.000Z</time>
      </trkpt>
      <trkpt lat="47.17105" lon="-1.64302">
        <ele>79</ele>
        <time>2021-06-12T07:13:02.000Z</time>
      </trkpt>
      <trkpt lat="47.17102" lon="-1.64321">
        <ele>79</ele>
        <time>2021-06-12T07:13:04.000Z</time>
      </trkpt>
      <trkpt lat="47.17101" lon="-1.64341">
        <ele>78</ele>
        <time>2021-06-12T07:13:06.000Z</time>
      </trkpt>
      <trkpt lat="47.17099" lon="-1.64361">
        <ele>78</ele>
        <time>2021-06-12T07:13:08.000Z</time>
      </trkpt>
      <trkpt lat="47.17097" lon="-1.64381">
        <ele>79</ele>
        <time>2021-06-12T07:13:10.000Z</time>
      </trkpt>
      <trkpt lat="47.17096" lon="-1.644">
        <ele>79</ele>
        <time>2021-06-12T07:13:12.000Z</time>
      </trkpt>
      <trkpt lat="47.17095" lon="-1.6442">
        <ele>79</ele>
        <time>2021-06-12T07:13:14.000Z</time>
      </trkpt>
      <trkpt lat="47.17093" lon="-1.6444">
        <ele>79</ele>
        <time>2021-06-12T07:13:16.000Z</time>
      </trkpt>
      <trkpt lat="47.17092" lon="-1.6446">
        <ele>79</ele>
        <time>2021-06-12T07:13:18.000Z</time>
      </trkpt>
      <trkpt lat="47.17091" lon="-1.64479">
        <ele>79</ele>
        <time>2021-06-12T07:13:20.000Z</time>
      </trkpt>
      <trkpt lat="47.1709" lon="-1.645">
        <ele>78</ele>
        <time>2021-06-12T07:13:22.000Z</time>
      </trkpt>
      <trkpt lat="47.17089" lon="-1.64521">
        <ele>78</ele>
        <time>2021-06-12T07:13:24.000Z</time>
      </trkpt>
      <trkpt lat="47.17088" lon="-1.6454">
        <ele>78</ele>
        <time>2021-06-12T07:13:26.000Z</time>
      </trkpt>
      <trkpt lat="47.17088" lon="-1.6456">
        <ele>77</ele>
        <time>2021-06-12T07:13:28.000Z</time>
      </trkpt>
      <trkpt lat="47.17087" lon="-1.64581">
        <ele>76</ele>
        <time>2021-06-12T07:13:30.000Z</time>
      </trkpt>
      <trkpt lat="47.17087" lon="-1.64601">
        <ele>76</ele>
        <time>2021-06-12T07:13:32.000Z</time>
      </trkpt>
      <trkpt lat="47.17087" lon="-1.6462">
        <ele>76</ele>
        <time>2021-06-12T07:13:34.000Z</time>
      </trkpt>
      <trkpt lat="47.17087" lon="-1.6464">
        <ele>76</ele>
        <time>2021-06-12T07:13:36.000Z</time>
      </trkpt>
      <trkpt lat="47.17087" lon="-1.6466">
        <ele>76</ele>
        <time>2021-06-12T07:13:38.000Z</time>
      </trkpt>
      <trkpt lat="47.17088" lon="-1.6468">
        <ele>77</ele>
        <time>2021-06-12T07:13:40.000Z</time>
      </trkpt>
      <trkpt lat="47.17088" lon="-1.64699">
        <ele>77</ele>
        <time>2021-06-12T07:13:42.000Z</time>
      </trkpt>
      <trkpt lat="47.17089" lon="-1.6472">
        <ele>77</ele>
        <time>2021-06-12T07:13:44.000Z</time>
      </trkpt>
      <trkpt lat="47.1709" lon="-1.64739">
        <ele>77</ele>
        <time>2021-06-12T07:13:46.000Z</time>
      </trkpt>
      <trkpt lat="47.1709" lon="-1.64758">
        <ele>77</ele>
        <time>2021-06-12T07:13:48.000Z</time>
      </trkpt>
      <trkpt lat="47.17092" lon="-1.64778">
        <ele>76</ele>
        <time>2021-06-12T07:13:50.000Z</time>
      </trkpt>
      <trkpt lat="47.17093" lon="-1.64797">
        <ele>76</ele>
        <time>2021-06-12T07:13:52.000Z</time>
      </trkpt>
      <trkpt lat="47.17094" lon="-1.64817">
        <ele>76</ele>
        <time>2021-06-12T07:13:54.000Z</time>
      </trkpt>
      <trkpt lat="47.17096" lon="-1.64837">
        <ele>76</ele>
        <time>2021-06-12T07:13:56.000Z</time>
      </trkpt>
      <trkpt lat="47.17097" lon="-1.64858">
        <ele>76</ele>
        <time>2021-06-12T07:13:58.000Z</time>
      </trkpt>
      <trkpt lat="47.17099" lon="-1.64878">
        <ele>76</ele>
        <time>2021-06-12T07:14:00.000Z</time>
      </trkpt>
      <trkpt lat="47.171" lon="-1.64897">
        <ele>76</ele>
        <time>2021-06-12T07:14:02.000Z</time>
      </trkpt>
      <trkpt lat="47.17102" lon="-1.64917">
        <ele>76</ele>
        <time>2021-06-12T07:14:04.000Z</time>
      </trkpt>
      <trkpt lat="47.17103" lon="-1.64936">
        <ele>76</ele>
        <time>2021-06-12T07:14:06.000Z</time>
      </trkpt>
      <trkpt lat="47.17105" lon="-1.64956">
        <ele>76</ele>
        <time>2021-06-12T07:14:08.000Z</time>
      </trkpt>
      <trkpt lat="47.17106" lon="-1.64976">
        <ele>76</ele>
        <time>2021-06-12T07:14:10.000Z</time>
      </trkpt>
      <trkpt lat="47.17108" lon="-1.64995">
        <ele>76</ele>
        <time>2021-06-12T07:14:12.000Z</time>
      </trkpt>
      <trkpt lat="47.17109" lon="-1.65014">
        <ele>76</ele>
        <time>2021-06-12T07:14:14.000Z</time>
      </trkpt>
      <trkpt lat="47.1711" lon="-1.65034">
        <ele>76</ele>
        <time>2021-06-12T07:14:16.000Z</time>
      </trkpt>
      <trkpt lat="47.17111" lon="-1.65053">
        <ele>76</ele>
        <time>2021-06-12T07:14:18.000Z</time>
      </trkpt>
      <trkpt lat="47.17112" lon="-1.65072">
        <ele>75</ele>
        <time>2021-06-12T07:14:20.000Z</time>
      </trkpt>
      <trkpt lat="47.17114" lon="-1.65092">
        <ele>75</ele>
        <time>2021-06-12T07:14:22.000Z</time>
      </trkpt>
      <trkpt lat="47.17115" lon="-1.65112">
        <ele>75</ele>
        <time>2021-06-12T07:14:24.000Z</time>
      </trkpt>
      <trkpt lat="47.17116" lon="-1.65131">
        <ele>75</ele>
        <time>2021-06-12T07:14:26.000Z</time>
      </trkpt>
      <trkpt lat="47.17118" lon="-1.65151">
        <ele>74</ele>
        <time>2021-06-12T07:14:28.000Z</time>
      </trkpt>
      <trkpt lat="47.1712" lon="-1.65171">
        <ele>75</ele>
        <time>2021-06-12T07:14:30.000Z</time>
      </trkpt>
      <trkpt lat="47.17121" lon="-1.65189">
        <ele>75</ele>
        <time>2021-06-12T07:14:32.000Z</time>
      </trkpt>
      <trkpt lat="47.17123" lon="-1.65208">
        <ele>76</ele>
        <time>2021-06-12T07:14:34.000Z</time>
      </trkpt>
      <trkpt lat="47.17125" lon="-1.65226">
        <ele>77</ele>
        <time>2021-06-12T07:14:36.000Z</time>
      </trkpt>
      <trkpt lat="47.17127" lon="-1.65244">
        <ele>77</ele>
        <time>2021-06-12T07:14:38.000Z</time>
      </trkpt>
      <trkpt lat="47.1713" lon="-1.65259">
        <ele>78</ele>
        <time>2021-06-12T07:14:40.000Z</time>
      </trkpt>
      <trkpt lat="47.17138" lon="-1.65273">
        <ele>78</ele>
        <time>2021-06-12T07:14:42.000Z</time>
      </trkpt>
      <trkpt lat="47.17147" lon="-1.65285">
        <ele>78</ele>
        <time>2021-06-12T07:14:44.000Z</time>
      </trkpt>
      <trkpt lat="47.17157" lon="-1.65295">
        <ele>78</ele>
        <time>2021-06-12T07:14:46.000Z</time>
      </trkpt>
      <trkpt lat="47.17167" lon="-1.65305">
        <ele>79</ele>
        <time>2021-06-12T07:14:48.000Z</time>
      </trkpt>
      <trkpt lat="47.17174" lon="-1.6532">
        <ele>78</ele>
        <time>2021-06-12T07:14:50.000Z</time>
      </trkpt>
      <trkpt lat="47.17178" lon="-1.65339">
        <ele>78</ele>
        <time>2021-06-12T07:14:52.000Z</time>
      </trkpt>
      <trkpt lat="47.17179" lon="-1.65359">
        <ele>78</ele>
        <time>2021-06-12T07:14:54.000Z</time>
      </trkpt>
      <trkpt lat="47.17176" lon="-1.65377">
        <ele>78</ele>
        <time>2021-06-12T07:14:56.000Z</time>
      </trkpt>
      <trkpt lat="47.17174" lon="-1.65396">
        <ele>77</ele>
        <time>2021-06-12T07:14:58.000Z</time>
      </trkpt>
      <trkpt lat="47.17172" lon="-1.65416">
        <ele>77</ele>
        <time>2021-06-12T07:15:00.000Z</time>
      </trkpt>
      <trkpt lat="47.17169" lon="-1.65436">
        <ele>77</ele>
        <time>2021-06-12T07:15:02.000Z</time>
      </trkpt>
      <trkpt lat="47.17167" lon="-1.65455">
        <ele>78</ele>
        <time>2021-06-12T07:15:04.000Z</time>
      </trkpt>
      <trkpt lat="47.17164" lon="-1.65475">
        <ele>78</ele>
        <time>2021-06-12T07:15:06.000Z</time>
      </trkpt>
      <trkpt lat="47.17162" lon="-1.65494">
        <ele>78</ele>
        <time>2021-06-12T07:15:08.000Z</time>
      </trkpt>
      <trkpt lat="47.17161" lon="-1.65512">
        <ele>78</ele>
        <time>2021-06-12T07:15:10.000Z</time>
      </trkpt>
      <trkpt lat="47.17159" lon="-1.6553">
        <ele>78</ele>
        <time>2021-06-12T07:15:12.000Z</time>
      </trkpt>
      <trkpt lat="47.17158" lon="-1.65548">
        <ele>78</ele>
        <time>2021-06-12T07:15:14.000Z</time>
      </trkpt>
      <trkpt lat="47.17157" lon="-1.65567">
        <ele>78</ele>
        <time>2021-06-12T07:15:16.000Z</time>
      </trkpt>
      <trkpt lat="47.17155" lon="-1.65587">
        <ele>78</ele>
        <time>2021-06-12T07:15:18.000Z</time>
      </trkpt>
      <trkpt lat="47.17154" lon="-1.65606">
        <ele>78</ele>
        <time>2021-06-12T07:15:20.000Z</time>
      </trkpt>
      <trkpt lat="47.17154" lon="-1.65625">
        <ele>78</ele>
        <time>2021-06-12T07:15:22.000Z</time>
      </trkpt>
      <trkpt lat="47.17154" lon="-1.65644">
        <ele>78</ele>
        <time>2021-06-12T07:15:24.000Z</time>
      </trkpt>
      <trkpt lat="47.17154" lon="-1.65663">
        <ele>78</ele>
        <time>2021-06-12T07:15:26.000Z</time>
      </trkpt>
      <trkpt lat="47.17155" lon="-1.65682">
        <ele>78</ele>
        <time>2021-06-12T07:15:28.000Z</time>
      </trkpt>
      <trkpt lat="47.17156" lon="-1.65702">
        <ele>78</ele>
        <time>2021-06-12T07:15:30.000Z</time>
      </trkpt>
      <trkpt lat="47.17157" lon="-1.65721">
        <ele>78</ele>
        <time>2021-06-12T07:15:32.000Z</time>
      </trkpt>
      <trkpt lat="47.17159" lon="-1.6574">
        <ele>78</ele>
        <time>2021-06-12T07:15:34.000Z</time>
      </trkpt>
      <trkpt lat="47.17161" lon="-1.65758">
        <ele>78</ele>
        <time>2021-06-12T07:15:36.000Z</time>
      </trkpt>
      <trkpt lat="47.17163" lon="-1.65777">
        <ele>78</ele>
        <time>2021-06-12T07:15:38.000Z</time>
      </trkpt>
      <trkpt lat="47.17165" lon="-1.65796">
        <ele>78</ele>
        <time>2021-06-12T07:15:40.000Z</time>
      </trkpt>
      <trkpt lat="47.17168" lon="-1.65816">
        <ele>77</ele>
        <time>2021-06-12T07:15:42.000Z</time>
      </trkpt>
      <trkpt lat="47.1717" lon="-1.65834">
        <ele>77</ele>
        <time>2021-06-12T07:15:44.000Z</time>
      </trkpt>
      <trkpt lat="47.17173" lon="-1.65853">
        <ele>77</ele>
        <time>2021-06-12T07:15:46.000Z</time>
      </trkpt>
      <trkpt lat="47.17176" lon="-1.65871">
        <ele>77</ele>
        <time>2021-06-12T07:15:48.000Z</time>
      </trkpt>
      <trkpt lat="47.1718" lon="-1.65889">
        <ele>77</ele>
        <time>2021-06-12T07:15:50.000Z</time>
      </trkpt>
      <trkpt lat="47.17183" lon="-1.65908">
        <ele>77</ele>
        <time>2021-06-12T07:15:52.000Z</time>
      </trkpt>
      <trkpt lat="47.17186" lon="-1.65926">
        <ele>77</ele>
        <time>2021-06-12T07:15:54.000Z</time>
      </trkpt>
      <trkpt lat="47.1719" lon="-1.65945">
        <ele>78</ele>
        <time>2021-06-12T07:15:56.000Z</time>
      </trkpt>
      <trkpt lat="47.17194" lon="-1.65963">
        <ele>78</ele>
        <time>2021-06-12T07:15:58.000Z</time>
      </trkpt>
      <trkpt lat="47.17197" lon="-1.65981">
        <ele>78</ele>
        <time>2021-06-12T07:16:00.000Z</time>
      </trkpt>
      <trkpt lat="47.172" lon="-1.65999">
        <ele>78</ele>
        <time>2021-06-12T07:16:02.000Z</time>
      </trkpt>
      <trkpt lat="47.17204" lon="-1.66018">
        <ele>78</ele>
        <time>2021-06-12T07:16:04.000Z</time>
      </trkpt>
      <trkpt lat="47.17208" lon="-1.66037">
        <ele>79</ele>
        <time>2021-06-12T07:16:06.000Z</time>
      </trkpt>
      <trkpt lat="47.17211" lon="-1.66055">
        <ele>79</ele>
        <time>2021-06-12T07:16:08.000Z</time>
      </trkpt>
      <trkpt lat="47.17215" lon="-1.66074">
        <ele>79</ele>
        <time>2021-06-12T07:16:10.000Z</time>
      </trkpt>
      <trkpt lat="47.17219" lon="-1.66091">
        <ele>79</ele>
        <time>2021-06-12T07:16:12.000Z</time>
      </trkpt>
      <trkpt lat="47.17222" lon="-1.66109">
        <ele>78</ele>
        <time>2021-06-12T07:16:14.000Z</time>
      </trkpt>
      <trkpt lat="47.17227" lon="-1.66125">
        <ele>78</ele>
        <time>2021-06-12T07:16:16.000Z</time>
      </trkpt>
      <trkpt lat="47.17231" lon="-1.66141">
        <ele>78</ele>
        <time>2021-06-12T07:16:18.000Z</time>
      </trkpt>
      <trkpt lat="47.17233" lon="-1.66157">
        <ele>79</ele>
        <time>2021-06-12T07:16:20.000Z</time>
      </trkpt>
      <trkpt lat="47.17238" lon="-1.66171">
        <ele>79</ele>
        <time>2021-06-12T07:16:22.000Z</time>
      </trkpt>
      <trkpt lat="47.17245" lon="-1.66184">
        <ele>79</ele>
        <time>2021-06-12T07:16:24.000Z</time>
      </trkpt>
      <trkpt lat="47.17252" lon="-1.66197">
        <ele>80</ele>
        <time>2021-06-12T07:16:26.000Z</time>
      </trkpt>
      <trkpt lat="47.17259" lon="-1.66211">
        <ele>80</ele>
        <time>2021-06-12T07:16:28.000Z</time>
      </trkpt>
      <trkpt lat="47.17266" lon="-1.66225">
        <ele>80</ele>
        <time>2021-06-12T07:16:30.000Z</time>
      </trkpt>
      <trkpt lat="47.17272" lon="-1.66239">
        <ele>81</ele>
        <time>2021-06-12T07:16:32.000Z</time>
      </trkpt>
      <trkpt lat="47.1728" lon="-1.66251">
        <ele>81</ele>
        <time>2021-06-12T07:16:34.000Z</time>
      </trkpt>
      <trkpt lat="47.17289" lon="-1.66264">
        <ele>81</ele>
        <time>2021-06-12T07:16:36.000Z</time>
      </trkpt>
      <trkpt lat="47.17297" lon="-1.66278">
        <ele>81</ele>
        <time>2021-06-12T07:16:38.000Z</time>
      </trkpt>
      <trkpt lat="47.17305" lon="-1.66292">
        <ele>81</ele>
        <time>2021-06-12T07:16:40.000Z</time>
      </trkpt>
      <trkpt lat="47.17314" lon="-1.66307">
        <ele>82</ele>
        <time>2021-06-12T07:16:42.000Z</time>
      </trkpt>
      <trkpt lat="47.17322" lon="-1.66322">
        <ele>83</ele>
        <time>2021-06-12T07:16:44.000Z</time>
      </trkpt>
      <trkpt lat="47.17329" lon="-1.66337">
        <ele>83</ele>
        <time>2021-06-12T07:16:46.000Z</time>
      </trkpt>
      <trkpt lat="47.17337" lon="-1.6635">
        <ele>83</ele>
        <time>2021-06-12T07:16:48.000Z</time>
      </trkpt>
      <trkpt lat="47.17344" lon="-1.66365">
        <ele>83</ele>
        <time>2021-06-12T07:16:50.000Z</time>
      </trkpt>
      <trkpt lat="47.17352" lon="-1.6638">
        <ele>83</ele>
        <time>2021-06-12T07:16:52.000Z</time>
      </trkpt>
      <trkpt lat="47.17358" lon="-1.66394">
        <ele>84</ele>
        <time>2021-06-12T07:16:54.000Z</time>
      </trkpt>
      <trkpt lat="47.17365" lon="-1.66407">
        <ele>84</ele>
        <time>2021-06-12T07:16:56.000Z</time>
      </trkpt>
      <trkpt lat="47.17373" lon="-1.66421">
        <ele>84</ele>
        <time>2021-06-12T07:16:58.000Z</time>
      </trkpt>
      <trkpt lat="47.17381" lon="-1.66435">
        <ele>84</ele>
        <time>2021-06-12T07:17:00.000Z</time>
      </trkpt>
      <trkpt lat="47.17389" lon="-1.66449">
        <ele>83</ele>
        <time>2021-06-12T07:17:02.000Z</time>
      </trkpt>
      <trkpt lat="47.17397" lon="-1.66465">
        <ele>82</ele>
        <time>2021-06-12T07:17:04.000Z</time>
      </trkpt>
      <trkpt lat="47.17405" lon="-1.6648">
        <ele>82</ele>
        <time>2021-06-12T07:17:06.000Z</time>
      </trkpt>
      <trkpt lat="47.17413" lon="-1.66494">
        <ele>82</ele>
        <time>2021-06-12T07:17:08.000Z</time>
      </trkpt>
      <trkpt lat="47.17421" lon="-1.66509">
        <ele>82</ele>
        <time>2021-06-12T07:17:10.000Z</time>
      </trkpt>
      <trkpt lat="47.17429" lon="-1.66523">
        <ele>82</ele>
        <time>2021-06-12T07:17:12.000Z</time>
      </trkpt>
      <trkpt lat="47.17436" lon="-1.66538">
        <ele>82</ele>
        <time>2021-06-12T07:17:14.000Z</time>
      </trkpt>
      <trkpt lat="47.17444" lon="-1.66552">
        <ele>82</ele>
        <time>2021-06-12T07:17:16.000Z</time>
      </trkpt>
      <trkpt lat="47.17452" lon="-1.66566">
        <ele>81</ele>
        <time>2021-06-12T07:17:18.000Z</time>
      </trkpt>
      <trkpt lat="47.1746" lon="-1.66581">
        <ele>82</ele>
        <time>2021-06-12T07:17:20.000Z</time>
      </trkpt>
      <trkpt lat="47.17467" lon="-1.66595">
        <ele>82</ele>
        <time>2021-06-12T07:17:22.000Z</time>
      </trkpt>
      <trkpt lat="47.17475" lon="-1.66609">
        <ele>82</ele>
        <time>2021-06-12T07:17:24.000Z</time>
      </trkpt>
      <trkpt lat="47.17483" lon="-1.66625">
        <ele>81</ele>
        <time>2021-06-12T07:17:26.000Z</time>
      </trkpt>
      <trkpt lat="47.17492" lon="-1.66641">
        <ele>81</ele>
        <time>2021-06-12T07:17:28.000Z</time>
      </trkpt>
      <trkpt lat="47.17499" lon="-1.66656">
        <ele>81</ele>
        <time>2021-06-12T07:17:30.000Z</time>
      </trkpt>
      <trkpt lat="47.17507" lon="-1.66671">
        <ele>82</ele>
        <time>2021-06-12T07:17:32.000Z</time>
      </trkpt>
      <trkpt lat="47.1752" lon="-1.66692">
        <ele>82</ele>
        <time>2021-06-12T07:17:35.000Z</time>
      </trkpt>
      <trkpt lat="47.17528" lon="-1.66706">
        <ele>82</ele>
        <time>2021-06-12T07:17:37.000Z</time>
      </trkpt>
      <trkpt lat="47.17537" lon="-1.66721">
        <ele>82</ele>
        <time>2021-06-12T07:17:39.000Z</time>
      </trkpt>
      <trkpt lat="47.17544" lon="-1.66734">
        <ele>83</ele>
        <time>2021-06-12T07:17:41.000Z</time>
      </trkpt>
      <trkpt lat="47.17552" lon="-1.66749">
        <ele>83</ele>
        <time>2021-06-12T07:17:43.000Z</time>
      </trkpt>
      <trkpt lat="47.17563" lon="-1.66772">
        <ele>83</ele>
        <time>2021-06-12T07:17:46.000Z</time>
      </trkpt>
      <trkpt lat="47.17571" lon="-1.66787">
        <ele>82</ele>
        <time>2021-06-12T07:17:48.000Z</time>
      </trkpt>
      <trkpt lat="47.17583" lon="-1.66808">
        <ele>82</ele>
        <time>2021-06-12T07:17:51.000Z</time>
      </trkpt>
      <trkpt lat="47.1759" lon="-1.66823">
        <ele>82</ele>
        <time>2021-06-12T07:17:53.000Z</time>
      </trkpt>
      <trkpt lat="47.17598" lon="-1.66838">
        <ele>82</ele>
        <time>2021-06-12T07:17:55.000Z</time>
      </trkpt>
      <trkpt lat="47.17606" lon="-1.66853">
        <ele>82</ele>
        <time>2021-06-12T07:17:57.000Z</time>
      </trkpt>
      <trkpt lat="47.17614" lon="-1.66869">
        <ele>81</ele>
        <time>2021-06-12T07:17:59.000Z</time>
      </trkpt>
      <trkpt lat="47.17622" lon="-1.66883">
        <ele>81</ele>
        <time>2021-06-12T07:18:01.000Z</time>
      </trkpt>
      <trkpt lat="47.1763" lon="-1.66897">
        <ele>81</ele>
        <time>2021-06-12T07:18:03.000Z</time>
      </trkpt>
      <trkpt lat="47.17637" lon="-1.66911">
        <ele>80</ele>
        <time>2021-06-12T07:18:05.000Z</time>
      </trkpt>
      <trkpt lat="47.17645" lon="-1.66926">
        <ele>80</ele>
        <time>2021-06-12T07:18:07.000Z</time>
      </trkpt>
      <trkpt lat="47.17656" lon="-1.66949">
        <ele>80</ele>
        <time>2021-06-12T07:18:10.000Z</time>
      </trkpt>
      <trkpt lat="47.17669" lon="-1.66972">
        <ele>81</ele>
        <time>2021-06-12T07:18:13.000Z</time>
      </trkpt>
      <trkpt lat="47.17677" lon="-1.66987">
        <ele>81</ele>
        <time>2021-06-12T07:18:15.000Z</time>
      </trkpt>
      <trkpt lat="47.17685" lon="-1.67002">
        <ele>81</ele>
        <time>2021-06-12T07:18:17.000Z</time>
      </trkpt>
      <trkpt lat="47.17693" lon="-1.67017">
        <ele>82</ele>
        <time>2021-06-12T07:18:19.000Z</time>
      </trkpt>
      <trkpt lat="47.17701" lon="-1.67031">
        <ele>82</ele>
        <time>2021-06-12T07:18:21.000Z</time>
      </trkpt>
      <trkpt lat="47.17709" lon="-1.67045">
        <ele>82</ele>
        <time>2021-06-12T07:18:23.000Z</time>
      </trkpt>
      <trkpt lat="47.17716" lon="-1.6706">
        <ele>82</ele>
        <time>2021-06-12T07:18:25.000Z</time>
      </trkpt>
      <trkpt lat="47.17723" lon="-1.67074">
        <ele>83</ele>
        <time>2021-06-12T07:18:27.000Z</time>
      </trkpt>
      <trkpt lat="47.17731" lon="-1.67088">
        <ele>83</ele>
        <time>2021-06-12T07:18:29.000Z</time>
      </trkpt>
      <trkpt lat="47.17743" lon="-1.67108">
        <ele>83</ele>
        <time>2021-06-12T07:18:32.000Z</time>
      </trkpt>
      <trkpt lat="47.17751" lon="-1.67123">
        <ele>82</ele>
        <time>2021-06-12T07:18:34.000Z</time>
      </trkpt>
      <trkpt lat="47.17759" lon="-1.67139">
        <ele>82</ele>
        <time>2021-06-12T07:18:36.000Z</time>
      </trkpt>
      <trkpt lat="47.17771" lon="-1.6716">
        <ele>82</ele>
        <time>2021-06-12T07:18:39.000Z</time>
      </trkpt>
      <trkpt lat="47.17779" lon="-1.67175">
        <ele>82</ele>
        <time>2021-06-12T07:18:41.000Z</time>
      </trkpt>
      <trkpt lat="47.17787" lon="-1.6719">
        <ele>82</ele>
        <time>2021-06-12T07:18:43.000Z</time>
      </trkpt>
      <trkpt lat="47.17795" lon="-1.67205">
        <ele>82</ele>
        <time>2021-06-12T07:18:45.000Z</time>
      </trkpt>
      <trkpt lat="47.17802" lon="-1.67219">
        <ele>82</ele>
        <time>2021-06-12T07:18:47.000Z</time>
      </trkpt>
      <trkpt lat="47.17812" lon="-1.6724">
        <ele>83</ele>
        <time>2021-06-12T07:18:50.000Z</time>
      </trkpt>
      <trkpt lat="47.1782" lon="-1.67253">
        <ele>83</ele>
        <time>2021-06-12T07:18:52.000Z</time>
      </trkpt>
      <trkpt lat="47.17827" lon="-1.67268">
        <ele>83</ele>
        <time>2021-06-12T07:18:54.000Z</time>
      </trkpt>
      <trkpt lat="47.17835" lon="-1.67282">
        <ele>83</ele>
        <time>2021-06-12T07:18:56.000Z</time>
      </trkpt>
      <trkpt lat="47.17842" lon="-1.67295">
        <ele>83</ele>
        <time>2021-06-12T07:18:58.000Z</time>
      </trkpt>
      <trkpt lat="47.1785" lon="-1.67308">
        <ele>83</ele>
        <time>2021-06-12T07:19:00.000Z</time>
      </trkpt>
      <trkpt lat="47.17857" lon="-1.67321">
        <ele>82</ele>
        <time>2021-06-12T07:19:02.000Z</time>
      </trkpt>
      <trkpt lat="47.17864" lon="-1.67334">
        <ele>82</ele>
        <time>2021-06-12T07:19:04.000Z</time>
      </trkpt>
      <trkpt lat="47.17874" lon="-1.67352">
        <ele>82</ele>
        <time>2021-06-12T07:19:07.000Z</time>
      </trkpt>
      <trkpt lat="47.1788" lon="-1.67364">
        <ele>82</ele>
        <time>2021-06-12T07:19:09.000Z</time>
      </trkpt>
      <trkpt lat="47.17886" lon="-1.67376">
        <ele>82</ele>
        <time>2021-06-12T07:19:11.000Z</time>
      </trkpt>
      <trkpt lat="47.17894" lon="-1.67389">
        <ele>82</ele>
        <time>2021-06-12T07:19:14.000Z</time>
      </trkpt>
      <trkpt lat="47.17903" lon="-1.674">
        <ele>82</ele>
        <time>2021-06-12T07:19:17.000Z</time>
      </trkpt>
      <trkpt lat="47.17908" lon="-1.67413">
        <ele>82</ele>
        <time>2021-06-12T07:19:19.000Z</time>
      </trkpt>
      <trkpt lat="47.17913" lon="-1.67429">
        <ele>82</ele>
        <time>2021-06-12T07:19:21.000Z</time>
      </trkpt>
      <trkpt lat="47.17918" lon="-1.67446">
        <ele>83</ele>
        <time>2021-06-12T07:19:23.000Z</time>
      </trkpt>
      <trkpt lat="47.17922" lon="-1.67463">
        <ele>83</ele>
        <time>2021-06-12T07:19:25.000Z</time>
      </trkpt>
      <trkpt lat="47.17927" lon="-1.6748">
        <ele>83</ele>
        <time>2021-06-12T07:19:27.000Z</time>
      </trkpt>
      <trkpt lat="47.17932" lon="-1.67497">
        <ele>83</ele>
        <time>2021-06-12T07:19:29.000Z</time>
      </trkpt>
      <trkpt lat="47.17937" lon="-1.67514">
        <ele>83</ele>
        <time>2021-06-12T07:19:31.000Z</time>
      </trkpt>
      <trkpt lat="47.17941" lon="-1.67531">
        <ele>83</ele>
        <time>2021-06-12T07:19:33.000Z</time>
      </trkpt>
      <trkpt lat="47.17949" lon="-1.67556">
        <ele>83</ele>
        <time>2021-06-12T07:19:36.000Z</time>
      </trkpt>
      <trkpt lat="47.17954" lon="-1.67574">
        <ele>83</ele>
        <time>2021-06-12T07:19:38.000Z</time>
      </trkpt>
      <trkpt lat="47.17958" lon="-1.6759">
        <ele>83</ele>
        <time>2021-06-12T07:19:40.000Z</time>
      </trkpt>
      <trkpt lat="47.17963" lon="-1.67608">
        <ele>83</ele>
        <time>2021-06-12T07:19:42.000Z</time>
      </trkpt>
      <trkpt lat="47.17968" lon="-1.67625">
        <ele>83</ele>
        <time>2021-06-12T07:19:44.000Z</time>
      </trkpt>
      <trkpt lat="47.17972" lon="-1.67642">
        <ele>84</ele>
        <time>2021-06-12T07:19:46.000Z</time>
      </trkpt>
      <trkpt lat="47.17976" lon="-1.67657">
        <ele>84</ele>
        <time>2021-06-12T07:19:48.000Z</time>
      </trkpt>
      <trkpt lat="47.1798" lon="-1.67673">
        <ele>85</ele>
        <time>2021-06-12T07:19:50.000Z</time>
      </trkpt>
      <trkpt lat="47.17984" lon="-1.6769">
        <ele>84</ele>
        <time>2021-06-12T07:19:52.000Z</time>
      </trkpt>
      <trkpt lat="47.17988" lon="-1.67706">
        <ele>84</ele>
        <time>2021-06-12T07:19:54.000Z</time>
      </trkpt>
      <trkpt lat="47.17994" lon="-1.67722">
        <ele>83</ele>
        <time>2021-06-12T07:19:56.000Z</time>
      </trkpt>
      <trkpt lat="47.18004" lon="-1.67728">
        <ele>83</ele>
        <time>2021-06-12T07:19:58.000Z</time>
      </trkpt>
      <trkpt lat="47.18016" lon="-1.67724">
        <ele>83</ele>
        <time>2021-06-12T07:20:00.000Z</time>
      </trkpt>
      <trkpt lat="47.18028" lon="-1.67716">
        <ele>83</ele>
        <time>2021-06-12T07:20:02.000Z</time>
      </trkpt>
      <trkpt lat="47.1804" lon="-1.67709">
        <ele>83</ele>
        <time>2021-06-12T07:20:04.000Z</time>
      </trkpt>
      <trkpt lat="47.18051" lon="-1.67702">
        <ele>83</ele>
        <time>2021-06-12T07:20:06.000Z</time>
      </trkpt>
      <trkpt lat="47.18063" lon="-1.67695">
        <ele>83</ele>
        <time>2021-06-12T07:20:08.000Z</time>
      </trkpt>
      <trkpt lat="47.18074" lon="-1.67688">
        <ele>83</ele>
        <time>2021-06-12T07:20:10.000Z</time>
      </trkpt>
      <trkpt lat="47.18086" lon="-1.67681">
        <ele>82</ele>
        <time>2021-06-12T07:20:12.000Z</time>
      </trkpt>
      <trkpt lat="47.18098" lon="-1.67674">
        <ele>82</ele>
        <time>2021-06-12T07:20:14.000Z</time>
      </trkpt>
      <trkpt lat="47.18115" lon="-1.67664">
        <ele>82</ele>
        <time>2021-06-12T07:20:17.000Z</time>
      </trkpt>
      <trkpt lat="47.18127" lon="-1.67656">
        <ele>82</ele>
        <time>2021-06-12T07:20:19.000Z</time>
      </trkpt>
      <trkpt lat="47.18139" lon="-1.67649">
        <ele>82</ele>
        <time>2021-06-12T07:20:21.000Z</time>
      </trkpt>
      <trkpt lat="47.18151" lon="-1.67641">
        <ele>81</ele>
        <time>2021-06-12T07:20:23.000Z</time>
      </trkpt>
      <trkpt lat="47.18163" lon="-1.67634">
        <ele>81</ele>
        <time>2021-06-12T07:20:25.000Z</time>
      </trkpt>
      <trkpt lat="47.18175" lon="-1.67627">
        <ele>81</ele>
        <time>2021-06-12T07:20:27.000Z</time>
      </trkpt>
      <trkpt lat="47.18186" lon="-1.67618">
        <ele>81</ele>
        <time>2021-06-12T07:20:29.000Z</time>
      </trkpt>
      <trkpt lat="47.18197" lon="-1.67609">
        <ele>81</ele>
        <time>2021-06-12T07:20:31.000Z</time>
      </trkpt>
      <trkpt lat="47.18208" lon="-1.67601">
        <ele>81</ele>
        <time>2021-06-12T07:20:33.000Z</time>
      </trkpt>
      <trkpt lat="47.18221" lon="-1.67596">
        <ele>81</ele>
        <time>2021-06-12T07:20:35.000Z</time>
      </trkpt>
      <trkpt lat="47.18233" lon="-1.6759">
        <ele>82</ele>
        <time>2021-06-12T07:20:37.000Z</time>
      </trkpt>
      <trkpt lat="47.18245" lon="-1.67582">
        <ele>82</ele>
        <time>2021-06-12T07:20:39.000Z</time>
      </trkpt>
      <trkpt lat="47.18257" lon="-1.67575">
        <ele>81</ele>
        <time>2021-06-12T07:20:41.000Z</time>
      </trkpt>
      <trkpt lat="47.18268" lon="-1.67568">
        <ele>81</ele>
        <time>2021-06-12T07:20:43.000Z</time>
      </trkpt>
      <trkpt lat="47.1828" lon="-1.67562">
        <ele>82</ele>
        <time>2021-06-12T07:20:45.000Z</time>
      </trkpt>
      <trkpt lat="47.18292" lon="-1.67555">
        <ele>82</ele>
        <time>2021-06-12T07:20:47.000Z</time>
      </trkpt>
      <trkpt lat="47.18303" lon="-1.67547">
        <ele>82</ele>
        <time>2021-06-12T07:20:49.000Z</time>
      </trkpt>
      <trkpt lat="47.18315" lon="-1.6754">
        <ele>82</ele>
        <time>2021-06-12T07:20:51.000Z</time>
      </trkpt>
      <trkpt lat="47.18326" lon="-1.67533">
        <ele>83</ele>
        <time>2021-06-12T07:20:53.000Z</time>
      </trkpt>
      <trkpt lat="47.18338" lon="-1.67526">
        <ele>83</ele>
        <time>2021-06-12T07:20:55.000Z</time>
      </trkpt>
      <trkpt lat="47.1835" lon="-1.67519">
        <ele>84</ele>
        <time>2021-06-12T07:20:57.000Z</time>
      </trkpt>
      <trkpt lat="47.18361" lon="-1.67512">
        <ele>84</ele>
        <time>2021-06-12T07:20:59.000Z</time>
      </trkpt>
      <trkpt lat="47.18372" lon="-1.67506">
        <ele>84</ele>
        <time>2021-06-12T07:21:01.000Z</time>
      </trkpt>
      <trkpt lat="47.18383" lon="-1.675">
        <ele>84</ele>
        <time>2021-06-12T07:21:03.000Z</time>
      </trkpt>
      <trkpt lat="47.18395" lon="-1.67493">
        <ele>84</ele>
        <time>2021-06-12T07:21:05.000Z</time>
      </trkpt>
      <trkpt lat="47.18406" lon="-1.67486">
        <ele>84</ele>
        <time>2021-06-12T07:21:07.000Z</time>
      </trkpt>
      <trkpt lat="47.18418" lon="-1.67479">
        <ele>84</ele>
        <time>2021-06-12T07:21:09.000Z</time>
      </trkpt>
      <trkpt lat="47.18429" lon="-1.67472">
        <ele>84</ele>
        <time>2021-06-12T07:21:11.000Z</time>
      </trkpt>
      <trkpt lat="47.1844" lon="-1.67465">
        <ele>84</ele>
        <time>2021-06-12T07:21:13.000Z</time>
      </trkpt>
      <trkpt lat="47.18451" lon="-1.67459">
        <ele>85</ele>
        <time>2021-06-12T07:21:15.000Z</time>
      </trkpt>
      <trkpt lat="47.18462" lon="-1.67452">
        <ele>85</ele>
        <time>2021-06-12T07:21:17.000Z</time>
      </trkpt>
      <trkpt lat="47.18472" lon="-1.67445">
        <ele>85</ele>
        <time>2021-06-12T07:21:19.000Z</time>
      </trkpt>
      <trkpt lat="47.18483" lon="-1.6744">
        <ele>86</ele>
        <time>2021-06-12T07:21:21.000Z</time>
      </trkpt>
      <trkpt lat="47.18494" lon="-1.67434">
        <ele>86</ele>
        <time>2021-06-12T07:21:23.000Z</time>
      </trkpt>
      <trkpt lat="47.18504" lon="-1.67427">
        <ele>87</ele>
        <time>2021-06-12T07:21:25.000Z</time>
      </trkpt>
      <trkpt lat="47.18512" lon="-1.67421">
        <ele>87</ele>
        <time>2021-06-12T07:21:27.000Z</time>
      </trkpt>
      <trkpt lat="47.1852" lon="-1.67413">
        <ele>87</ele>
        <time>2021-06-12T07:21:29.000Z</time>
      </trkpt>
      <trkpt lat="47.1853" lon="-1.67412">
        <ele>87</ele>
        <time>2021-06-12T07:21:31.000Z</time>
      </trkpt>
      <trkpt lat="47.18535" lon="-1.67426">
        <ele>87</ele>
        <time>2021-06-12T07:21:33.000Z</time>
      </trkpt>
      <trkpt lat="47.18538" lon="-1.6744">
        <ele>86</ele>
        <time>2021-06-12T07:21:35.000Z</time>
      </trkpt>
      <trkpt lat="47.18548" lon="-1.67447">
        <ele>86</ele>
        <time>2021-06-12T07:21:37.000Z</time>
      </trkpt>
      <trkpt lat="47.18557" lon="-1.67441">
        <ele>87</ele>
        <time>2021-06-12T07:21:39.000Z</time>
      </trkpt>
      <trkpt lat="47.18567" lon="-1.67434">
        <ele>87</ele>
        <time>2021-06-12T07:21:41.000Z</time>
      </trkpt>
      <trkpt lat="47.18578" lon="-1.67429">
        <ele>88</ele>
        <time>2021-06-12T07:21:43.000Z</time>
      </trkpt>
      <trkpt lat="47.18589" lon="-1.67435">
        <ele>89</ele>
        <time>2021-06-12T07:21:45.000Z</time>
      </trkpt>
      <trkpt lat="47.18598" lon="-1.67447">
        <ele>89</ele>
        <time>2021-06-12T07:21:47.000Z</time>
      </trkpt>
      <trkpt lat="47.18604" lon="-1.67463">
        <ele>90</ele>
        <time>2021-06-12T07:21:49.000Z</time>
      </trkpt>
      <trkpt lat="47.18609" lon="-1.67481">
        <ele>89</ele>
        <time>2021-06-12T07:21:51.000Z</time>
      </trkpt>
      <trkpt lat="47.18615" lon="-1.67498">
        <ele>88</ele>
        <time>2021-06-12T07:21:53.000Z</time>
      </trkpt>
      <trkpt lat="47.18621" lon="-1.67515">
        <ele>88</ele>
        <time>2021-06-12T07:21:55.000Z</time>
      </trkpt>
      <trkpt lat="47.18629" lon="-1.6753">
        <ele>89</ele>
        <time>2021-06-12T07:21:57.000Z</time>
      </trkpt>
      <trkpt lat="47.18638" lon="-1.67543">
        <ele>89</ele>
        <time>2021-06-12T07:21:59.000Z</time>
      </trkpt>
      <trkpt lat="47.18648" lon="-1.67555">
        <ele>89</ele>
        <time>2021-06-12T07:22:01.000Z</time>
      </trkpt>
      <trkpt lat="47.18657" lon="-1.67568">
        <ele>89</ele>
        <time>2021-06-12T07:22:03.000Z</time>
      </trkpt>
      <trkpt lat="47.18666" lon="-1.6758">
        <ele>90</ele>
        <time>2021-06-12T07:22:05.000Z</time>
      </trkpt>
      <trkpt lat="47.18675" lon="-1.67592">
        <ele>90</ele>
        <time>2021-06-12T07:22:07.000Z</time>
      </trkpt>
      <trkpt lat="47.18683" lon="-1.67604">
        <ele>89</ele>
        <time>2021-06-12T07:22:09.000Z</time>
      </trkpt>
      <trkpt lat="47.18694" lon="-1.67613">
        <ele>89</ele>
        <time>2021-06-12T07:22:11.000Z</time>
      </trkpt>
      <trkpt lat="47.18706" lon="-1.67617">
        <ele>88</ele>
        <time>2021-06-12T07:22:13.000Z</time>
      </trkpt>
      <trkpt lat="47.18717" lon="-1.67616">
        <ele>88</ele>
        <time>2021-06-12T07:22:15.000Z</time>
      </trkpt>
      <trkpt lat="47.18728" lon="-1.67611">
        <ele>88</ele>
        <time>2021-06-12T07:22:17.000Z</time>
      </trkpt>
      <trkpt lat="47.18737" lon="-1.67607">
        <ele>88</ele>
        <time>2021-06-12T07:22:19.000Z</time>
      </trkpt>
      <trkpt lat="47.18749" lon="-1.6761">
        <ele>89</ele>
        <time>2021-06-12T07:22:22.000Z</time>
      </trkpt>
      <trkpt lat="47.18754" lon="-1.67622">
        <ele>89</ele>
        <time>2021-06-12T07:22:24.000Z</time>
      </trkpt>
      <trkpt lat="47.1876" lon="-1.67638">
        <ele>89</ele>
        <time>2021-06-12T07:22:26.000Z</time>
      </trkpt>
      <trkpt lat="47.18767" lon="-1.67652">
        <ele>89</ele>
        <time>2021-06-12T07:22:28.000Z</time>
      </trkpt>
      <trkpt lat="47.18776" lon="-1.67666">
        <ele>89</ele>
        <time>2021-06-12T07:22:30.000Z</time>
      </trkpt>
      <trkpt lat="47.18783" lon="-1.67678">
        <ele>89</ele>
        <time>2021-06-12T07:22:32.000Z</time>
      </trkpt>
      <trkpt lat="47.18791" lon="-1.67692">
        <ele>88</ele>
        <time>2021-06-12T07:22:34.000Z</time>
      </trkpt>
      <trkpt lat="47.18798" lon="-1.67706">
        <ele>89</ele>
        <time>2021-06-12T07:22:36.000Z</time>
      </trkpt>
      <trkpt lat="47.18803" lon="-1.67722">
        <ele>88</ele>
        <time>2021-06-12T07:22:38.000Z</time>
      </trkpt>
      <trkpt lat="47.18809" lon="-1.67737">
        <ele>88</ele>
        <time>2021-06-12T07:22:40.000Z</time>
      </trkpt>
      <trkpt lat="47.18815" lon="-1.67752">
        <ele>88</ele>
        <time>2021-06-12T07:22:42.000Z</time>
      </trkpt>
      <trkpt lat="47.18821" lon="-1.67769">
        <ele>88</ele>
        <time>2021-06-12T07:22:44.000Z</time>
      </trkpt>
      <trkpt lat="47.18828" lon="-1.67786">
        <ele>87</ele>
        <time>2021-06-12T07:22:46.000Z</time>
      </trkpt>
      <trkpt lat="47.18835" lon="-1.67804">
        <ele>87</ele>
        <time>2021-06-12T07:22:48.000Z</time>
      </trkpt>
      <trkpt lat="47.18842" lon="-1.67822">
        <ele>86</ele>
        <time>2021-06-12T07:22:50.000Z</time>
      </trkpt>
      <trkpt lat="47.18848" lon="-1.67842">
        <ele>85</ele>
        <time>2021-06-12T07:22:52.000Z</time>
      </trkpt>
      <trkpt lat="47.18856" lon="-1.67862">
        <ele>84</ele>
        <time>2021-06-12T07:22:54.000Z</time>
      </trkpt>
      <trkpt lat="47.18867" lon="-1.6788">
        <ele>83</ele>
        <time>2021-06-12T07:22:56.000Z</time>
      </trkpt>
      <trkpt lat="47.18881" lon="-1.67893">
        <ele>82</ele>
        <time>2021-06-12T07:22:58.000Z</time>
      </trkpt>
      <trkpt lat="47.18896" lon="-1.679">
        <ele>81</ele>
        <time>2021-06-12T07:23:00.000Z</time>
      </trkpt>
      <trkpt lat="47.18911" lon="-1.67904">
        <ele>81</ele>
        <time>2021-06-12T07:23:02.000Z</time>
      </trkpt>
      <trkpt lat="47.18922" lon="-1.67914">
        <ele>80</ele>
        <time>2021-06-12T07:23:04.000Z</time>
      </trkpt>
      <trkpt lat="47.18928" lon="-1.6793">
        <ele>80</ele>
        <time>2021-06-12T07:23:06.000Z</time>
      </trkpt>
      <trkpt lat="47.18935" lon="-1.67945">
        <ele>81</ele>
        <time>2021-06-12T07:23:08.000Z</time>
      </trkpt>
      <trkpt lat="47.18942" lon="-1.6796">
        <ele>82</ele>
        <time>2021-06-12T07:23:10.000Z</time>
      </trkpt>
      <trkpt lat="47.18949" lon="-1.67975">
        <ele>82</ele>
        <time>2021-06-12T07:23:12.000Z</time>
      </trkpt>
      <trkpt lat="47.18956" lon="-1.67989">
        <ele>83</ele>
        <time>2021-06-12T07:23:14.000Z</time>
      </trkpt>
      <trkpt lat="47.18965" lon="-1.68002">
        <ele>83</ele>
        <time>2021-06-12T07:23:16.000Z</time>
      </trkpt>
      <trkpt lat="47.18973" lon="-1.68015">
        <ele>84</ele>
        <time>2021-06-12T07:23:18.000Z</time>
      </trkpt>
      <trkpt lat="47.1898" lon="-1.68028">
        <ele>84</ele>
        <time>2021-06-12T07:23:20.000Z</time>
      </trkpt>
      <trkpt lat="47.18988" lon="-1.68038">
        <ele>84</ele>
        <time>2021-06-12T07:23:22.000Z</time>
      </trkpt>
      <trkpt lat="47.18999" lon="-1.68032">
        <ele>84</ele>
        <time>2021-06-12T07:23:24.000Z</time>
      </trkpt>
      <trkpt lat="47.19015" lon="-1.68021">
        <ele>82</ele>
        <time>2021-06-12T07:23:26.000Z</time>
      </trkpt>
      <trkpt lat="47.19032" lon="-1.68021">
        <ele>80</ele>
        <time>2021-06-12T07:23:28.000Z</time>
      </trkpt>
      <trkpt lat="47.19041" lon="-1.68024">
        <ele>80</ele>
        <time>2021-06-12T07:23:29.000Z</time>
      </trkpt>
      <trkpt lat="47.1905" lon="-1.68026">
        <ele>79</ele>
        <time>2021-06-12T07:23:30.000Z</time>
      </trkpt>
      <trkpt lat="47.19067" lon="-1.68033">
        <ele>78</ele>
        <time>2021-06-12T07:23:32.000Z</time>
      </trkpt>
      <trkpt lat="47.1908" lon="-1.68045">
        <ele>78</ele>
        <time>2021-06-12T07:23:34.000Z</time>
      </trkpt>
      <trkpt lat="47.19088" lon="-1.68064">
        <ele>78</ele>
        <time>2021-06-12T07:23:36.000Z</time>
      </trkpt>
      <trkpt lat="47.19095" lon="-1.68081">
        <ele>78</ele>
        <time>2021-06-12T07:23:38.000Z</time>
      </trkpt>
      <trkpt lat="47.191" lon="-1.68099">
        <ele>79</ele>
        <time>2021-06-12T07:23:40.000Z</time>
      </trkpt>
      <trkpt lat="47.19106" lon="-1.68115">
        <ele>78</ele>
        <time>2021-06-12T07:23:42.000Z</time>
      </trkpt>
      <trkpt lat="47.1911" lon="-1.6813">
        <ele>80</ele>
        <time>2021-06-12T07:23:44.000Z</time>
      </trkpt>
      <trkpt lat="47.19114" lon="-1.68144">
        <ele>79</ele>
        <time>2021-06-12T07:23:46.000Z</time>
      </trkpt>
      <trkpt lat="47.19117" lon="-1.68156">
        <ele>79</ele>
        <time>2021-06-12T07:23:48.000Z</time>
      </trkpt>
      <trkpt lat="47.19121" lon="-1.6817">
        <ele>78</ele>
        <time>2021-06-12T07:23:52.000Z</time>
      </trkpt>
      <trkpt lat="47.19128" lon="-1.6818">
        <ele>78</ele>
        <time>2021-06-12T07:23:57.000Z</time>
      </trkpt>
      <trkpt lat="47.19136" lon="-1.68174">
        <ele>77</ele>
        <time>2021-06-12T07:24:12.000Z</time>
      </trkpt>
      <trkpt lat="47.19143" lon="-1.68183">
        <ele>73</ele>
        <time>2021-06-12T07:24:16.000Z</time>
      </trkpt>
      <trkpt lat="47.19145" lon="-1.68196">
        <ele>71</ele>
        <time>2021-06-12T07:24:19.000Z</time>
      </trkpt>
      <trkpt lat="47.1915" lon="-1.68208">
        <ele>70</ele>
        <time>2021-06-12T07:24:23.000Z</time>
      </trkpt>
      <trkpt lat="47.19163" lon="-1.68212">
        <ele>69</ele>
        <time>2021-06-12T07:24:26.000Z</time>
      </trkpt>
      <trkpt lat="47.19174" lon="-1.68218">
        <ele>66</ele>
        <time>2021-06-12T07:24:28.000Z</time>
      </trkpt>
      <trkpt lat="47.19185" lon="-1.6822">
        <ele>65</ele>
        <time>2021-06-12T07:24:30.000Z</time>
      </trkpt>
      <trkpt lat="47.19194" lon="-1.68213">
        <ele>64</ele>
        <time>2021-06-12T07:24:32.000Z</time>
      </trkpt>
      <trkpt lat="47.19206" lon="-1.68208">
        <ele>62</ele>
        <time>2021-06-12T07:24:35.000Z</time>
      </trkpt>
      <trkpt lat="47.19217" lon="-1.68201">
        <ele>59</ele>
        <time>2021-06-12T07:24:38.000Z</time>
      </trkpt>
      <trkpt lat="47.19226" lon="-1.68195">
        <ele>58</ele>
        <time>2021-06-12T07:24:40.000Z</time>
      </trkpt>
      <trkpt lat="47.19237" lon="-1.68188">
        <ele>58</ele>
        <time>2021-06-12T07:24:42.000Z</time>
      </trkpt>
      <trkpt lat="47.19249" lon="-1.68181">
        <ele>58</ele>
        <time>2021-06-12T07:24:44.000Z</time>
      </trkpt>
      <trkpt lat="47.19261" lon="-1.68173">
        <ele>58</ele>
        <time>2021-06-12T07:24:46.000Z</time>
      </trkpt>
      <trkpt lat="47.19272" lon="-1.68164">
        <ele>58</ele>
        <time>2021-06-12T07:24:48.000Z</time>
      </trkpt>
      <trkpt lat="47.19284" lon="-1.68156">
        <ele>58</ele>
        <time>2021-06-12T07:24:50.000Z</time>
      </trkpt>
      <trkpt lat="47.19296" lon="-1.68148">
        <ele>58</ele>
        <time>2021-06-12T07:24:52.000Z</time>
      </trkpt>
      <trkpt lat="47.19307" lon="-1.68141">
        <ele>58</ele>
        <time>2021-06-12T07:24:54.000Z</time>
      </trkpt>
      <trkpt lat="47.19317" lon="-1.68133">
        <ele>58</ele>
        <time>2021-06-12T07:24:56.000Z</time>
      </trkpt>
      <trkpt lat="47.19328" lon="-1.68126">
        <ele>58</ele>
        <time>2021-06-12T07:24:58.000Z</time>
      </trkpt>
      <trkpt lat="47.1934" lon="-1.68118">
        <ele>59</ele>
        <time>2021-06-12T07:25:00.000Z</time>
      </trkpt>
      <trkpt lat="47.19351" lon="-1.68111">
        <ele>58</ele>
        <time>2021-06-12T07:25:02.000Z</time>
      </trkpt>
      <trkpt lat="47.19362" lon="-1.68103">
        <ele>57</ele>
        <time>2021-06-12T07:25:04.000Z</time>
      </trkpt>
      <trkpt lat="47.19372" lon="-1.68095">
        <ele>57</ele>
        <time>2021-06-12T07:25:06.000Z</time>
      </trkpt>
      <trkpt lat="47.19383" lon="-1.68088">
        <ele>57</ele>
        <time>2021-06-12T07:25:08.000Z</time>
      </trkpt>
      <trkpt lat="47.19394" lon="-1.6808">
        <ele>57</ele>
        <time>2021-06-12T07:25:10.000Z</time>
      </trkpt>
      <trkpt lat="47.19403" lon="-1.68073">
        <ele>57</ele>
        <time>2021-06-12T07:25:12.000Z</time>
      </trkpt>
      <trkpt lat="47.19412" lon="-1.68065">
        <ele>57</ele>
        <time>2021-06-12T07:25:14.000Z</time>
      </trkpt>
      <trkpt lat="47.19414" lon="-1.68046">
        <ele>57</ele>
        <time>2021-06-12T07:25:17.000Z</time>
      </trkpt>
      <trkpt lat="47.19411" lon="-1.68028">
        <ele>58</ele>
        <time>2021-06-12T07:25:19.000Z</time>
      </trkpt>
      <trkpt lat="47.19407" lon="-1.68009">
        <ele>58</ele>
        <time>2021-06-12T07:25:21.000Z</time>
      </trkpt>
      <trkpt lat="47.19403" lon="-1.67991">
        <ele>58</ele>
        <time>2021-06-12T07:25:23.000Z</time>
      </trkpt>
      <trkpt lat="47.19398" lon="-1.67974">
        <ele>57</ele>
        <time>2021-06-12T07:25:25.000Z</time>
      </trkpt>
      <trkpt lat="47.19393" lon="-1.67956">
        <ele>57</ele>
        <time>2021-06-12T07:25:27.000Z</time>
      </trkpt>
      <trkpt lat="47.19388" lon="-1.67939">
        <ele>56</ele>
        <time>2021-06-12T07:25:29.000Z</time>
      </trkpt>
      <trkpt lat="47.19384" lon="-1.67921">
        <ele>57</ele>
        <time>2021-06-12T07:25:31.000Z</time>
      </trkpt>
      <trkpt lat="47.19381" lon="-1.67904">
        <ele>57</ele>
        <time>2021-06-12T07:25:33.000Z</time>
      </trkpt>
      <trkpt lat="47.19377" lon="-1.67887">
        <ele>57</ele>
        <time>2021-06-12T07:25:35.000Z</time>
      </trkpt>
      <trkpt lat="47.19373" lon="-1.67869">
        <ele>57</ele>
        <time>2021-06-12T07:25:37.000Z</time>
      </trkpt>
      <trkpt lat="47.1937" lon="-1.67851">
        <ele>57</ele>
        <time>2021-06-12T07:25:39.000Z</time>
      </trkpt>
      <trkpt lat="47.19367" lon="-1.67832">
        <ele>57</ele>
        <time>2021-06-12T07:25:41.000Z</time>
      </trkpt>
      <trkpt lat="47.19366" lon="-1.67814">
        <ele>57</ele>
        <time>2021-06-12T07:25:43.000Z</time>
      </trkpt>
      <trkpt lat="47.19366" lon="-1.67796">
        <ele>57</ele>
        <time>2021-06-12T07:25:45.000Z</time>
      </trkpt>
      <trkpt lat="47.19367" lon="-1.67778">
        <ele>57</ele>
        <time>2021-06-12T07:25:47.000Z</time>
      </trkpt>
      <trkpt lat="47.19369" lon="-1.67759">
        <ele>57</ele>
        <time>2021-06-12T07:25:49.000Z</time>
      </trkpt>
      <trkpt lat="47.19371" lon="-1.67741">
        <ele>57</ele>
        <time>2021-06-12T07:25:51.000Z</time>
      </trkpt>
      <trkpt lat="47.19374" lon="-1.67723">
        <ele>56</ele>
        <time>2021-06-12T07:25:53.000Z</time>
      </trkpt>
      <trkpt lat="47.19378" lon="-1.67706">
        <ele>57</ele>
        <time>2021-06-12T07:25:55.000Z</time>
      </trkpt>
      <trkpt lat="47.19382" lon="-1.6769">
        <ele>56</ele>
        <time>2021-06-12T07:25:57.000Z</time>
      </trkpt>
      <trkpt lat="47.19388" lon="-1.67673">
        <ele>56</ele>
        <time>2021-06-12T07:25:59.000Z</time>
      </trkpt>
      <trkpt lat="47.19394" lon="-1.67657">
        <ele>55</ele>
        <time>2021-06-12T07:26:01.000Z</time>
      </trkpt>
      <trkpt lat="47.19401" lon="-1.67641">
        <ele>54</ele>
        <time>2021-06-12T07:26:03.000Z</time>
      </trkpt>
      <trkpt lat="47.19409" lon="-1.67626">
        <ele>54</ele>
        <time>2021-06-12T07:26:05.000Z</time>
      </trkpt>
      <trkpt lat="47.19417" lon="-1.67611">
        <ele>54</ele>
        <time>2021-06-12T07:26:07.000Z</time>
      </trkpt>
      <trkpt lat="47.19424" lon="-1.67599">
        <ele>54</ele>
        <time>2021-06-12T07:26:09.000Z</time>
      </trkpt>
      <trkpt lat="47.19432" lon="-1.67586">
        <ele>54</ele>
        <time>2021-06-12T07:26:11.000Z</time>
      </trkpt>
      <trkpt lat="47.19442" lon="-1.67576">
        <ele>54</ele>
        <time>2021-06-12T07:26:13.000Z</time>
      </trkpt>
      <trkpt lat="47.19452" lon="-1.67566">
        <ele>54</ele>
        <time>2021-06-12T07:26:15.000Z</time>
      </trkpt>
      <trkpt lat="47.19463" lon="-1.67556">
        <ele>53</ele>
        <time>2021-06-12T07:26:17.000Z</time>
      </trkpt>
      <trkpt lat="47.19473" lon="-1.67547">
        <ele>53</ele>
        <time>2021-06-12T07:26:19.000Z</time>
      </trkpt>
      <trkpt lat="47.19483" lon="-1.67538">
        <ele>53</ele>
        <time>2021-06-12T07:26:21.000Z</time>
      </trkpt>
      <trkpt lat="47.19491" lon="-1.67528">
        <ele>52</ele>
        <time>2021-06-12T07:26:23.000Z</time>
      </trkpt>
      <trkpt lat="47.19496" lon="-1.67517">
        <ele>52</ele>
        <time>2021-06-12T07:26:25.000Z</time>
      </trkpt>
      <trkpt lat="47.19505" lon="-1.67504">
        <ele>53</ele>
        <time>2021-06-12T07:26:28.000Z</time>
      </trkpt>
      <trkpt lat="47.19516" lon="-1.67504">
        <ele>54</ele>
        <time>2021-06-12T07:26:31.000Z</time>
      </trkpt>
      <trkpt lat="47.19526" lon="-1.67505">
        <ele>55</ele>
        <time>2021-06-12T07:26:34.000Z</time>
      </trkpt>
      <trkpt lat="47.19536" lon="-1.67505">
        <ele>54</ele>
        <time>2021-06-12T07:26:38.000Z</time>
      </trkpt>
      <trkpt lat="47.1954" lon="-1.67518">
        <ele>54</ele>
        <time>2021-06-12T07:33:35.000Z</time>
      </trkpt>
      <trkpt lat="47.19546" lon="-1.67529">
        <ele>54</ele>
        <time>2021-06-12T07:33:39.000Z</time>
      </trkpt>
      <trkpt lat="47.19552" lon="-1.67542">
        <ele>53</ele>
        <time>2021-06-12T07:33:42.000Z</time>
      </trkpt>
      <trkpt lat="47.1956" lon="-1.67552">
        <ele>52</ele>
        <time>2021-06-12T07:33:45.000Z</time>
      </trkpt>
      <trkpt lat="47.1957" lon="-1.67561">
        <ele>55</ele>
        <time>2021-06-12T07:33:48.000Z</time>
      </trkpt>
      <trkpt lat="47.1958" lon="-1.6757">
        <ele>56</ele>
        <time>2021-06-12T07:33:51.000Z</time>
      </trkpt>
      <trkpt lat="47.19588" lon="-1.67579">
        <ele>59</ele>
        <time>2021-06-12T07:33:55.000Z</time>
      </trkpt>
      <trkpt lat="47.19596" lon="-1.67584">
        <ele>60</ele>
        <time>2021-06-12T07:34:01.000Z</time>
      </trkpt>
      <trkpt lat="47.19605" lon="-1.67577">
        <ele>57</ele>
        <time>2021-06-12T07:35:40.000Z</time>
      </trkpt>
      <trkpt lat="47.19615" lon="-1.67575">
        <ele>57</ele>
        <time>2021-06-12T07:35:47.000Z</time>
      </trkpt>
      <trkpt lat="47.19625" lon="-1.67574">
        <ele>56</ele>
        <time>2021-06-12T07:35:53.000Z</time>
      </trkpt>
      <trkpt lat="47.19635" lon="-1.67572">
        <ele>55</ele>
        <time>2021-06-12T07:35:59.000Z</time>
      </trkpt>
      <trkpt lat="47.19644" lon="-1.67568">
        <ele>55</ele>
        <time>2021-06-12T07:36:05.000Z</time>
      </trkpt>
      <trkpt lat="47.19653" lon="-1.67564">
        <ele>55</ele>
        <time>2021-06-12T07:36:11.000Z</time>
      </trkpt>
      <trkpt lat="47.19662" lon="-1.67558">
        <ele>55</ele>
        <time>2021-06-12T07:36:16.000Z</time>
      </trkpt>
      <trkpt lat="47.19671" lon="-1.67552">
        <ele>55</ele>
        <time>2021-06-12T07:36:21.000Z</time>
      </trkpt>
      <trkpt lat="47.1968" lon="-1.67544">
        <ele>56</ele>
        <time>2021-06-12T07:36:26.000Z</time>
      </trkpt>
      <trkpt lat="47.19688" lon="-1.67535">
        <ele>57</ele>
        <time>2021-06-12T07:36:31.000Z</time>
      </trkpt>
      <trkpt lat="47.19694" lon="-1.67523">
        <ele>56</ele>
        <time>2021-06-12T07:36:36.000Z</time>
      </trkpt>
      <trkpt lat="47.19701" lon="-1.67511">
        <ele>56</ele>
        <time>2021-06-12T07:36:41.000Z</time>
      </trkpt>
      <trkpt lat="47.19707" lon="-1.67499">
        <ele>56</ele>
        <time>2021-06-12T07:36:46.000Z</time>
      </trkpt>
      <trkpt lat="47.19711" lon="-1.67487">
        <ele>56</ele>
        <time>2021-06-12T07:36:50.000Z</time>
      </trkpt>
      <trkpt lat="47.19716" lon="-1.67474">
        <ele>56</ele>
        <time>2021-06-12T07:36:55.000Z</time>
      </trkpt>
      <trkpt lat="47.19722" lon="-1.67463">
        <ele>53</ele>
        <time>2021-06-12T07:37:01.000Z</time>
      </trkpt>
      <trkpt lat="47.19727" lon="-1.67451">
        <ele>52</ele>
        <time>2021-06-12T07:37:09.000Z</time>
      </trkpt>
      <trkpt lat="47.1973" lon="-1.67437">
        <ele>53</ele>
        <time>2021-06-12T07:37:19.000Z</time>
      </trkpt>
      <trkpt lat="47.19735" lon="-1.67424">
        <ele>50</ele>
        <time>2021-06-12T07:37:31.000Z</time>
      </trkpt>
      <trkpt lat="47.1974" lon="-1.67407">
        <ele>52</ele>
        <time>2021-06-12T07:37:49.000Z</time>
      </trkpt>
      <trkpt lat="47.19742" lon="-1.67393">
        <ele>53</ele>
        <time>2021-06-12T07:37:51.000Z</time>
      </trkpt>
      <trkpt lat="47.19742" lon="-1.67378">
        <ele>54</ele>
        <time>2021-06-12T07:37:53.000Z</time>
      </trkpt>
      <trkpt lat="47.19741" lon="-1.67364">
        <ele>54</ele>
        <time>2021-06-12T07:37:55.000Z</time>
      </trkpt>
      <trkpt lat="47.19743" lon="-1.67348">
        <ele>54</ele>
        <time>2021-06-12T07:37:57.000Z</time>
      </trkpt>
      <trkpt lat="47.1975" lon="-1.67333">
        <ele>54</ele>
        <time>2021-06-12T07:37:59.000Z</time>
      </trkpt>
      <trkpt lat="47.19761" lon="-1.67323">
        <ele>54</ele>
        <time>2021-06-12T07:38:01.000Z</time>
      </trkpt>
      <trkpt lat="47.19772" lon="-1.67315">
        <ele>54</ele>
        <time>2021-06-12T07:38:03.000Z</time>
      </trkpt>
      <trkpt lat="47.19782" lon="-1.67307">
        <ele>54</ele>
        <time>2021-06-12T07:38:05.000Z</time>
      </trkpt>
      <trkpt lat="47.1979" lon="-1.67298">
        <ele>54</ele>
        <time>2021-06-12T07:38:07.000Z</time>
      </trkpt>
      <trkpt lat="47.19799" lon="-1.67295">
        <ele>54</ele>
        <time>2021-06-12T07:38:09.000Z</time>
      </trkpt>
      <trkpt lat="47.19808" lon="-1.67305">
        <ele>55</ele>
        <time>2021-06-12T07:38:11.000Z</time>
      </trkpt>
      <trkpt lat="47.19816" lon="-1.6732">
        <ele>56</ele>
        <time>2021-06-12T07:38:13.000Z</time>
      </trkpt>
      <trkpt lat="47.19823" lon="-1.67335">
        <ele>56</ele>
        <time>2021-06-12T07:38:15.000Z</time>
      </trkpt>
      <trkpt lat="47.19831" lon="-1.6735">
        <ele>56</ele>
        <time>2021-06-12T07:38:17.000Z</time>
      </trkpt>
      <trkpt lat="47.19839" lon="-1.67365">
        <ele>57</ele>
        <time>2021-06-12T07:38:19.000Z</time>
      </trkpt>
      <trkpt lat="47.19846" lon="-1.6738">
        <ele>57</ele>
        <time>2021-06-12T07:38:21.000Z</time>
      </trkpt>
      <trkpt lat="47.19854" lon="-1.67396">
        <ele>57</ele>
        <time>2021-06-12T07:38:23.000Z</time>
      </trkpt>
      <trkpt lat="47.19862" lon="-1.67411">
        <ele>57</ele>
        <time>2021-06-12T07:38:25.000Z</time>
      </trkpt>
      <trkpt lat="47.19869" lon="-1.67426">
        <ele>57</ele>
        <time>2021-06-12T07:38:27.000Z</time>
      </trkpt>
      <trkpt lat="47.19876" lon="-1.67442">
        <ele>57</ele>
        <time>2021-06-12T07:38:29.000Z</time>
      </trkpt>
      <trkpt lat="47.19883" lon="-1.67457">
        <ele>57</ele>
        <time>2021-06-12T07:38:31.000Z</time>
      </trkpt>
      <trkpt lat="47.1989" lon="-1.67473">
        <ele>57</ele>
        <time>2021-06-12T07:38:33.000Z</time>
      </trkpt>
      <trkpt lat="47.19898" lon="-1.67488">
        <ele>57</ele>
        <time>2021-06-12T07:38:35.000Z</time>
      </trkpt>
      <trkpt lat="47.19905" lon="-1.67503">
        <ele>57</ele>
        <time>2021-06-12T07:38:37.000Z</time>
      </trkpt>
      <trkpt lat="47.19913" lon="-1.67518">
        <ele>57</ele>
        <time>2021-06-12T07:38:39.000Z</time>
      </trkpt>
      <trkpt lat="47.1992" lon="-1.67533">
        <ele>57</ele>
        <time>2021-06-12T07:38:41.000Z</time>
      </trkpt>
      <trkpt lat="47.19927" lon="-1.67547">
        <ele>57</ele>
        <time>2021-06-12T07:38:43.000Z</time>
      </trkpt>
      <trkpt lat="47.19933" lon="-1.67563">
        <ele>57</ele>
        <time>2021-06-12T07:38:45.000Z</time>
      </trkpt>
      <trkpt lat="47.19939" lon="-1.6758">
        <ele>57</ele>
        <time>2021-06-12T07:38:47.000Z</time>
      </trkpt>
      <trkpt lat="47.19946" lon="-1.67595">
        <ele>57</ele>
        <time>2021-06-12T07:38:49.000Z</time>
      </trkpt>
      <trkpt lat="47.19954" lon="-1.6761">
        <ele>58</ele>
        <time>2021-06-12T07:38:51.000Z</time>
      </trkpt>
      <trkpt lat="47.19961" lon="-1.67626">
        <ele>58</ele>
        <time>2021-06-12T07:38:53.000Z</time>
      </trkpt>
      <trkpt lat="47.19969" lon="-1.67641">
        <ele>57</ele>
        <time>2021-06-12T07:38:55.000Z</time>
      </trkpt>
      <trkpt lat="47.19978" lon="-1.67655">
        <ele>57</ele>
        <time>2021-06-12T07:38:57.000Z</time>
      </trkpt>
      <trkpt lat="47.19986" lon="-1.67668">
        <ele>57</ele>
        <time>2021-06-12T07:38:59.000Z</time>
      </trkpt>
      <trkpt lat="47.19994" lon="-1.67682">
        <ele>58</ele>
        <time>2021-06-12T07:39:01.000Z</time>
      </trkpt>
      <trkpt lat="47.20003" lon="-1.67696">
        <ele>57</ele>
        <time>2021-06-12T07:39:03.000Z</time>
      </trkpt>
      <trkpt lat="47.20011" lon="-1.6771">
        <ele>57</ele>
        <time>2021-06-12T07:39:05.000Z</time>
      </trkpt>
      <trkpt lat="47.2002" lon="-1.67724">
        <ele>57</ele>
        <time>2021-06-12T07:39:07.000Z</time>
      </trkpt>
      <trkpt lat="47.20028" lon="-1.67737">
        <ele>57</ele>
        <time>2021-06-12T07:39:09.000Z</time>
      </trkpt>
      <trkpt lat="47.20036" lon="-1.67752">
        <ele>58</ele>
        <time>2021-06-12T07:39:11.000Z</time>
      </trkpt>
      <trkpt lat="47.20044" lon="-1.67766">
        <ele>58</ele>
        <time>2021-06-12T07:39:13.000Z</time>
      </trkpt>
      <trkpt lat="47.20053" lon="-1.67781">
        <ele>58</ele>
        <time>2021-06-12T07:39:15.000Z</time>
      </trkpt>
      <trkpt lat="47.20061" lon="-1.67794">
        <ele>58</ele>
        <time>2021-06-12T07:39:17.000Z</time>
      </trkpt>
      <trkpt lat="47.20069" lon="-1.67807">
        <ele>58</ele>
        <time>2021-06-12T07:39:19.000Z</time>
      </trkpt>
      <trkpt lat="47.20078" lon="-1.67821">
        <ele>58</ele>
        <time>2021-06-12T07:39:21.000Z</time>
      </trkpt>
      <trkpt lat="47.20086" lon="-1.67835">
        <ele>58</ele>
        <time>2021-06-12T07:39:23.000Z</time>
      </trkpt>
      <trkpt lat="47.20093" lon="-1.67849">
        <ele>57</ele>
        <time>2021-06-12T07:39:25.000Z</time>
      </trkpt>
      <trkpt lat="47.20101" lon="-1.67864">
        <ele>58</ele>
        <time>2021-06-12T07:39:27.000Z</time>
      </trkpt>
      <trkpt lat="47.20109" lon="-1.67878">
        <ele>58</ele>
        <time>2021-06-12T07:39:29.000Z</time>
      </trkpt>
      <trkpt lat="47.20116" lon="-1.67892">
        <ele>58</ele>
        <time>2021-06-12T07:39:31.000Z</time>
      </trkpt>
      <trkpt lat="47.20125" lon="-1.67904">
        <ele>58</ele>
        <time>2021-06-12T07:39:33.000Z</time>
      </trkpt>
      <trkpt lat="47.20135" lon="-1.67912">
        <ele>59</ele>
        <time>2021-06-12T07:39:35.000Z</time>
      </trkpt>
      <trkpt lat="47.20145" lon="-1.67907">
        <ele>60</ele>
        <time>2021-06-12T07:39:37.000Z</time>
      </trkpt>
      <trkpt lat="47.20153" lon="-1.67898">
        <ele>59</ele>
        <time>2021-06-12T07:39:39.000Z</time>
      </trkpt>
      <trkpt lat="47.20164" lon="-1.67888">
        <ele>59</ele>
        <time>2021-06-12T07:39:42.000Z</time>
      </trkpt>
      <trkpt lat="47.20176" lon="-1.67877">
        <ele>60</ele>
        <time>2021-06-12T07:39:45.000Z</time>
      </trkpt>
      <trkpt lat="47.20187" lon="-1.67867">
        <ele>61</ele>
        <time>2021-06-12T07:39:48.000Z</time>
      </trkpt>
      <trkpt lat="47.20197" lon="-1.67858">
        <ele>62</ele>
        <time>2021-06-12T07:39:51.000Z</time>
      </trkpt>
      <trkpt lat="47.20205" lon="-1.67853">
        <ele>62</ele>
        <time>2021-06-12T07:39:53.000Z</time>
      </trkpt>
      <trkpt lat="47.20215" lon="-1.67846">
        <ele>63</ele>
        <time>2021-06-12T07:39:55.000Z</time>
      </trkpt>
      <trkpt lat="47.20226" lon="-1.67836">
        <ele>62</ele>
        <time>2021-06-12T07:39:57.000Z</time>
      </trkpt>
      <trkpt lat="47.20231" lon="-1.67821">
        <ele>61</ele>
        <time>2021-06-12T07:39:59.000Z</time>
      </trkpt>
      <trkpt lat="47.20225" lon="-1.67802">
        <ele>60</ele>
        <time>2021-06-12T07:40:01.000Z</time>
      </trkpt>
      <trkpt lat="47.20219" lon="-1.67785">
        <ele>59</ele>
        <time>2021-06-12T07:40:03.000Z</time>
      </trkpt>
      <trkpt lat="47.20213" lon="-1.6777">
        <ele>59</ele>
        <time>2021-06-12T07:40:05.000Z</time>
      </trkpt>
      <trkpt lat="47.20206" lon="-1.67755">
        <ele>58</ele>
        <time>2021-06-12T07:40:08.000Z</time>
      </trkpt>
      <trkpt lat="47.20202" lon="-1.67739">
        <ele>58</ele>
        <time>2021-06-12T07:40:10.000Z</time>
      </trkpt>
      <trkpt lat="47.20196" lon="-1.67721">
        <ele>57</ele>
        <time>2021-06-12T07:40:12.000Z</time>
      </trkpt>
      <trkpt lat="47.2019" lon="-1.67702">
        <ele>56</ele>
        <time>2021-06-12T07:40:14.000Z</time>
      </trkpt>
      <trkpt lat="47.20182" lon="-1.67683">
        <ele>56</ele>
        <time>2021-06-12T07:40:16.000Z</time>
      </trkpt>
      <trkpt lat="47.20174" lon="-1.67665">
        <ele>56</ele>
        <time>2021-06-12T07:40:18.000Z</time>
      </trkpt>
      <trkpt lat="47.20167" lon="-1.67645">
        <ele>55</ele>
        <time>2021-06-12T07:40:20.000Z</time>
      </trkpt>
      <trkpt lat="47.2016" lon="-1.67626">
        <ele>55</ele>
        <time>2021-06-12T07:40:22.000Z</time>
      </trkpt>
      <trkpt lat="47.20153" lon="-1.67608">
        <ele>55</ele>
        <time>2021-06-12T07:40:24.000Z</time>
      </trkpt>
      <trkpt lat="47.20147" lon="-1.67589">
        <ele>54</ele>
        <time>2021-06-12T07:40:26.000Z</time>
      </trkpt>
      <trkpt lat="47.20141" lon="-1.67571">
        <ele>54</ele>
        <time>2021-06-12T07:40:28.000Z</time>
      </trkpt>
      <trkpt lat="47.20133" lon="-1.67553">
        <ele>54</ele>
        <time>2021-06-12T07:40:30.000Z</time>
      </trkpt>
      <trkpt lat="47.20126" lon="-1.67536">
        <ele>54</ele>
        <time>2021-06-12T07:40:32.000Z</time>
      </trkpt>
      <trkpt lat="47.20121" lon="-1.67518">
        <ele>54</ele>
        <time>2021-06-12T07:40:34.000Z</time>
      </trkpt>
      <trkpt lat="47.20115" lon="-1.67502">
        <ele>55</ele>
        <time>2021-06-12T07:40:36.000Z</time>
      </trkpt>
      <trkpt lat="47.20113" lon="-1.67489">
        <ele>55</ele>
        <time>2021-06-12T07:40:38.000Z</time>
      </trkpt>
      <trkpt lat="47.20128" lon="-1.67479">
        <ele>56</ele>
        <time>2021-06-12T07:40:40.000Z</time>
      </trkpt>
      <trkpt lat="47.20142" lon="-1.67471">
        <ele>56</ele>
        <time>2021-06-12T07:40:42.000Z</time>
      </trkpt>
      <trkpt lat="47.20156" lon="-1.67463">
        <ele>56</ele>
        <time>2021-06-12T07:40:44.000Z</time>
      </trkpt>
      <trkpt lat="47.20169" lon="-1.67457">
        <ele>55</ele>
        <time>2021-06-12T07:40:46.000Z</time>
      </trkpt>
      <trkpt lat="47.20182" lon="-1.6745">
        <ele>55</ele>
        <time>2021-06-12T07:40:48.000Z</time>
      </trkpt>
      <trkpt lat="47.20194" lon="-1.67444">
        <ele>55</ele>
        <time>2021-06-12T07:40:50.000Z</time>
      </trkpt>
      <trkpt lat="47.20207" lon="-1.67438">
        <ele>55</ele>
        <time>2021-06-12T07:40:52.000Z</time>
      </trkpt>
      <trkpt lat="47.20219" lon="-1.67431">
        <ele>55</ele>
        <time>2021-06-12T07:40:54.000Z</time>
      </trkpt>
      <trkpt lat="47.20232" lon="-1.67425">
        <ele>55</ele>
        <time>2021-06-12T07:40:56.000Z</time>
      </trkpt>
      <trkpt lat="47.20244" lon="-1.6742">
        <ele>55</ele>
        <time>2021-06-12T07:40:58.000Z</time>
      </trkpt>
      <trkpt lat="47.20256" lon="-1.67414">
        <ele>55</ele>
        <time>2021-06-12T07:41:00.000Z</time>
      </trkpt>
      <trkpt lat="47.20269" lon="-1.67408">
        <ele>56</ele>
        <time>2021-06-12T07:41:02.000Z</time>
      </trkpt>
      <trkpt lat="47.20281" lon="-1.67402">
        <ele>56</ele>
        <time>2021-06-12T07:41:04.000Z</time>
      </trkpt>
      <trkpt lat="47.20293" lon="-1.67396">
        <ele>56</ele>
        <time>2021-06-12T07:41:06.000Z</time>
      </trkpt>
      <trkpt lat="47.20306" lon="-1.6739">
        <ele>56</ele>
        <time>2021-06-12T07:41:08.000Z</time>
      </trkpt>
      <trkpt lat="47.20318" lon="-1.67385">
        <ele>56</ele>
        <time>2021-06-12T07:41:10.000Z</time>
      </trkpt>
      <trkpt lat="47.20331" lon="-1.67385">
        <ele>55</ele>
        <time>2021-06-12T07:41:12.000Z</time>
      </trkpt>
      <trkpt lat="47.20343" lon="-1.67391">
        <ele>56</ele>
        <time>2021-06-12T07:41:14.000Z</time>
      </trkpt>
      <trkpt lat="47.20354" lon="-1.67402">
        <ele>55</ele>
        <time>2021-06-12T07:41:16.000Z</time>
      </trkpt>
      <trkpt lat="47.20363" lon="-1.67416">
        <ele>56</ele>
        <time>2021-06-12T07:41:18.000Z</time>
      </trkpt>
      <trkpt lat="47.20368" lon="-1.67434">
        <ele>55</ele>
        <time>2021-06-12T07:41:20.000Z</time>
      </trkpt>
      <trkpt lat="47.20372" lon="-1.67453">
        <ele>55</ele>
        <time>2021-06-12T07:41:22.000Z</time>
      </trkpt>
      <trkpt lat="47.20375" lon="-1.67473">
        <ele>55</ele>
        <time>2021-06-12T07:41:24.000Z</time>
      </trkpt>
      <trkpt lat="47.20378" lon="-1.67492">
        <ele>55</ele>
        <time>2021-06-12T07:41:26.000Z</time>
      </trkpt>
      <trkpt lat="47.2038" lon="-1.67511">
        <ele>55</ele>
        <time>2021-06-12T07:41:28.000Z</time>
      </trkpt>
      <trkpt lat="47.20383" lon="-1.67529">
        <ele>54</ele>
        <time>2021-06-12T07:41:30.000Z</time>
      </trkpt>
      <trkpt lat="47.20389" lon="-1.67544">
        <ele>54</ele>
        <time>2021-06-12T07:41:32.000Z</time>
      </trkpt>
      <trkpt lat="47.20401" lon="-1.6755">
        <ele>54</ele>
        <time>2021-06-12T07:41:34.000Z</time>
      </trkpt>
      <trkpt lat="47.20413" lon="-1.67543">
        <ele>54</ele>
        <time>2021-06-12T07:41:36.000Z</time>
      </trkpt>
      <trkpt lat="47.20424" lon="-1.67534">
        <ele>54</ele>
        <time>2021-06-12T07:41:38.000Z</time>
      </trkpt>
      <trkpt lat="47.20437" lon="-1.67537">
        <ele>54</ele>
        <time>2021-06-12T07:41:40.000Z</time>
      </trkpt>
      <trkpt lat="47.20446" lon="-1.67552">
        <ele>54</ele>
        <time>2021-06-12T07:41:42.000Z</time>
      </trkpt>
      <trkpt lat="47.20451" lon="-1.67571">
        <ele>54</ele>
        <time>2021-06-12T07:41:44.000Z</time>
      </trkpt>
      <trkpt lat="47.20458" lon="-1.67587">
        <ele>54</ele>
        <time>2021-06-12T07:41:46.000Z</time>
      </trkpt>
      <trkpt lat="47.20468" lon="-1.67601">
        <ele>54</ele>
        <time>2021-06-12T07:41:48.000Z</time>
      </trkpt>
      <trkpt lat="47.20476" lon="-1.67616">
        <ele>54</ele>
        <time>2021-06-12T07:41:50.000Z</time>
      </trkpt>
      <trkpt lat="47.20483" lon="-1.67632">
        <ele>55</ele>
        <time>2021-06-12T07:41:52.000Z</time>
      </trkpt>
      <trkpt lat="47.2049" lon="-1.67649">
        <ele>55</ele>
        <time>2021-06-12T07:41:54.000Z</time>
      </trkpt>
      <trkpt lat="47.20497" lon="-1.67666">
        <ele>55</ele>
        <time>2021-06-12T07:41:56.000Z</time>
      </trkpt>
      <trkpt lat="47.20503" lon="-1.67683">
        <ele>55</ele>
        <time>2021-06-12T07:41:58.000Z</time>
      </trkpt>
      <trkpt lat="47.2051" lon="-1.67701">
        <ele>55</ele>
        <time>2021-06-12T07:42:00.000Z</time>
      </trkpt>
      <trkpt lat="47.20516" lon="-1.67718">
        <ele>55</ele>
        <time>2021-06-12T07:42:02.000Z</time>
      </trkpt>
      <trkpt lat="47.20522" lon="-1.67735">
        <ele>55</ele>
        <time>2021-06-12T07:42:04.000Z</time>
      </trkpt>
      <trkpt lat="47.20528" lon="-1.67752">
        <ele>55</ele>
        <time>2021-06-12T07:42:06.000Z</time>
      </trkpt>
      <trkpt lat="47.20534" lon="-1.67769">
        <ele>55</ele>
        <time>2021-06-12T07:42:08.000Z</time>
      </trkpt>
      <trkpt lat="47.2054" lon="-1.67788">
        <ele>55</ele>
        <time>2021-06-12T07:42:10.000Z</time>
      </trkpt>
      <trkpt lat="47.20546" lon="-1.67806">
        <ele>55</ele>
        <time>2021-06-12T07:42:12.000Z</time>
      </trkpt>
      <trkpt lat="47.20552" lon="-1.67824">
        <ele>55</ele>
        <time>2021-06-12T07:42:14.000Z</time>
      </trkpt>
      <trkpt lat="47.20558" lon="-1.67842">
        <ele>55</ele>
        <time>2021-06-12T07:42:16.000Z</time>
      </trkpt>
      <trkpt lat="47.20563" lon="-1.6786">
        <ele>55</ele>
        <time>2021-06-12T07:42:18.000Z</time>
      </trkpt>
      <trkpt lat="47.20569" lon="-1.67878">
        <ele>55</ele>
        <time>2021-06-12T07:42:20.000Z</time>
      </trkpt>
      <trkpt lat="47.20574" lon="-1.67896">
        <ele>55</ele>
        <time>2021-06-12T07:42:22.000Z</time>
      </trkpt>
      <trkpt lat="47.20579" lon="-1.67914">
        <ele>56</ele>
        <time>2021-06-12T07:42:24.000Z</time>
      </trkpt>
      <trkpt lat="47.20585" lon="-1.67932">
        <ele>55</ele>
        <time>2021-06-12T07:42:26.000Z</time>
      </trkpt>
      <trkpt lat="47.2059" lon="-1.6795">
        <ele>55</ele>
        <time>2021-06-12T07:42:28.000Z</time>
      </trkpt>
      <trkpt lat="47.20595" lon="-1.67969">
        <ele>54</ele>
        <time>2021-06-12T07:42:30.000Z</time>
      </trkpt>
      <trkpt lat="47.20601" lon="-1.67987">
        <ele>54</ele>
        <time>2021-06-12T07:42:32.000Z</time>
      </trkpt>
      <trkpt lat="47.20606" lon="-1.68005">
        <ele>54</ele>
        <time>2021-06-12T07:42:34.000Z</time>
      </trkpt>
      <trkpt lat="47.20611" lon="-1.68023">
        <ele>54</ele>
        <time>2021-06-12T07:42:36.000Z</time>
      </trkpt>
      <trkpt lat="47.20617" lon="-1.68041">
        <ele>54</ele>
        <time>2021-06-12T07:42:38.000Z</time>
      </trkpt>
      <trkpt lat="47.20622" lon="-1.68059">
        <ele>54</ele>
        <time>2021-06-12T07:42:40.000Z</time>
      </trkpt>
      <trkpt lat="47.20628" lon="-1.68077">
        <ele>55</ele>
        <time>2021-06-12T07:42:42.000Z</time>
      </trkpt>
      <trkpt lat="47.20633" lon="-1.68095">
        <ele>55</ele>
        <time>2021-06-12T07:42:44.000Z</time>
      </trkpt>
      <trkpt lat="47.20638" lon="-1.68113">
        <ele>55</ele>
        <time>2021-06-12T07:42:46.000Z</time>
      </trkpt>
      <trkpt lat="47.20643" lon="-1.68131">
        <ele>54</ele>
        <time>2021-06-12T07:42:48.000Z</time>
      </trkpt>
      <trkpt lat="47.20649" lon="-1.68149">
        <ele>54</ele>
        <time>2021-06-12T07:42:50.000Z</time>
      </trkpt>
      <trkpt lat="47.20654" lon="-1.68168">
        <ele>54</ele>
        <time>2021-06-12T07:42:52.000Z</time>
      </trkpt>
      <trkpt lat="47.20659" lon="-1.68185">
        <ele>54</ele>
        <time>2021-06-12T07:42:54.000Z</time>
      </trkpt>
      <trkpt lat="47.20664" lon="-1.68203">
        <ele>54</ele>
        <time>2021-06-12T07:42:56.000Z</time>
      </trkpt>
      <trkpt lat="47.20669" lon="-1.6822">
        <ele>54</ele>
        <time>2021-06-12T07:42:58.000Z</time>
      </trkpt>
      <trkpt lat="47.20675" lon="-1.68237">
        <ele>54</ele>
        <time>2021-06-12T07:43:00.000Z</time>
      </trkpt>
      <trkpt lat="47.2068" lon="-1.68255">
        <ele>54</ele>
        <time>2021-06-12T07:43:02.000Z</time>
      </trkpt>
      <trkpt lat="47.20685" lon="-1.68273">
        <ele>54</ele>
        <time>2021-06-12T07:43:04.000Z</time>
      </trkpt>
      <trkpt lat="47.2069" lon="-1.68291">
        <ele>53</ele>
        <time>2021-06-12T07:43:06.000Z</time>
      </trkpt>
      <trkpt lat="47.20696" lon="-1.68308">
        <ele>54</ele>
        <time>2021-06-12T07:43:08.000Z</time>
      </trkpt>
      <trkpt lat="47.207" lon="-1.68325">
        <ele>53</ele>
        <time>2021-06-12T07:43:10.000Z</time>
      </trkpt>
      <trkpt lat="47.20705" lon="-1.68343">
        <ele>54</ele>
        <time>2021-06-12T07:43:12.000Z</time>
      </trkpt>
      <trkpt lat="47.20712" lon="-1.68359">
        <ele>54</ele>
        <time>2021-06-12T07:43:14.000Z</time>
      </trkpt>
      <trkpt lat="47.20723" lon="-1.68371">
        <ele>53</ele>
        <time>2021-06-12T07:43:16.000Z</time>
      </trkpt>
      <trkpt lat="47.20735" lon="-1.68379">
        <ele>54</ele>
        <time>2021-06-12T07:43:18.000Z</time>
      </trkpt>
      <trkpt lat="47.20748" lon="-1.68383">
        <ele>54</ele>
        <time>2021-06-12T07:43:20.000Z</time>
      </trkpt>
      <trkpt lat="47.20761" lon="-1.68385">
        <ele>54</ele>
        <time>2021-06-12T07:43:22.000Z</time>
      </trkpt>
      <trkpt lat="47.20774" lon="-1.68387">
        <ele>54</ele>
        <time>2021-06-12T07:43:24.000Z</time>
      </trkpt>
      <trkpt lat="47.20787" lon="-1.68389">
        <ele>54</ele>
        <time>2021-06-12T07:43:26.000Z</time>
      </trkpt>
      <trkpt lat="47.208" lon="-1.68392">
        <ele>54</ele>
        <time>2021-06-12T07:43:28.000Z</time>
      </trkpt>
      <trkpt lat="47.20812" lon="-1.68392">
        <ele>54</ele>
        <time>2021-06-12T07:43:30.000Z</time>
      </trkpt>
      <trkpt lat="47.20825" lon="-1.68393">
        <ele>54</ele>
        <time>2021-06-12T07:43:32.000Z</time>
      </trkpt>
      <trkpt lat="47.20837" lon="-1.68393">
        <ele>54</ele>
        <time>2021-06-12T07:43:34.000Z</time>
      </trkpt>
      <trkpt lat="47.2085" lon="-1.68393">
        <ele>54</ele>
        <time>2021-06-12T07:43:36.000Z</time>
      </trkpt>
      <trkpt lat="47.20863" lon="-1.68393">
        <ele>55</ele>
        <time>2021-06-12T07:43:38.000Z</time>
      </trkpt>
      <trkpt lat="47.20876" lon="-1.68394">
        <ele>55</ele>
        <time>2021-06-12T07:43:40.000Z</time>
      </trkpt>
      <trkpt lat="47.20888" lon="-1.68395">
        <ele>55</ele>
        <time>2021-06-12T07:43:42.000Z</time>
      </trkpt>
      <trkpt lat="47.20901" lon="-1.68396">
        <ele>55</ele>
        <time>2021-06-12T07:43:44.000Z</time>
      </trkpt>
      <trkpt lat="47.20914" lon="-1.68396">
        <ele>55</ele>
        <time>2021-06-12T07:43:46.000Z</time>
      </trkpt>
      <trkpt lat="47.20927" lon="-1.68396">
        <ele>55</ele>
        <time>2021-06-12T07:43:48.000Z</time>
      </trkpt>
      <trkpt lat="47.2094" lon="-1.68395">
        <ele>55</ele>
        <time>2021-06-12T07:43:50.000Z</time>
      </trkpt>
      <trkpt lat="47.20953" lon="-1.68396">
        <ele>56</ele>
        <time>2021-06-12T07:43:52.000Z</time>
      </trkpt>
      <trkpt lat="47.20966" lon="-1.68397">
        <ele>56</ele>
        <time>2021-06-12T07:43:54.000Z</time>
      </trkpt>
      <trkpt lat="47.20979" lon="-1.68397">
        <ele>56</ele>
        <time>2021-06-12T07:43:56.000Z</time>
      </trkpt>
      <trkpt lat="47.20993" lon="-1.68399">
        <ele>55</ele>
        <time>2021-06-12T07:43:58.000Z</time>
      </trkpt>
      <trkpt lat="47.21006" lon="-1.684">
        <ele>55</ele>
        <time>2021-06-12T07:44:00.000Z</time>
      </trkpt>
      <trkpt lat="47.21019" lon="-1.684">
        <ele>55</ele>
        <time>2021-06-12T07:44:02.000Z</time>
      </trkpt>
      <trkpt lat="47.21032" lon="-1.68401">
        <ele>55</ele>
        <time>2021-06-12T07:44:04.000Z</time>
      </trkpt>
      <trkpt lat="47.21045" lon="-1.68402">
        <ele>55</ele>
        <time>2021-06-12T07:44:06.000Z</time>
      </trkpt>
      <trkpt lat="47.21058" lon="-1.68402">
        <ele>54</ele>
        <time>2021-06-12T07:44:08.000Z</time>
      </trkpt>
      <trkpt lat="47.21071" lon="-1.68403">
        <ele>55</ele>
        <time>2021-06-12T07:44:10.000Z</time>
      </trkpt>
      <trkpt lat="47.21084" lon="-1.68403">
        <ele>55</ele>
        <time>2021-06-12T07:44:12.000Z</time>
      </trkpt>
      <trkpt lat="47.21097" lon="-1.68404">
        <ele>54</ele>
        <time>2021-06-12T07:44:14.000Z</time>
      </trkpt>
      <trkpt lat="47.2111" lon="-1.68404">
        <ele>54</ele>
        <time>2021-06-12T07:44:16.000Z</time>
      </trkpt>
      <trkpt lat="47.21123" lon="-1.68405">
        <ele>54</ele>
        <time>2021-06-12T07:44:18.000Z</time>
      </trkpt>
      <trkpt lat="47.21134" lon="-1.68406">
        <ele>54</ele>
        <time>2021-06-12T07:44:20.000Z</time>
      </trkpt>
      <trkpt lat="47.21146" lon="-1.68406">
        <ele>54</ele>
        <time>2021-06-12T07:44:22.000Z</time>
      </trkpt>
      <trkpt lat="47.21158" lon="-1.68407">
        <ele>55</ele>
        <time>2021-06-12T07:44:24.000Z</time>
      </trkpt>
      <trkpt lat="47.21169" lon="-1.68407">
        <ele>55</ele>
        <time>2021-06-12T07:44:26.000Z</time>
      </trkpt>
      <trkpt lat="47.2118" lon="-1.68405">
        <ele>56</ele>
        <time>2021-06-12T07:44:28.000Z</time>
      </trkpt>
      <trkpt lat="47.21189" lon="-1.68398">
        <ele>56</ele>
        <time>2021-06-12T07:44:30.000Z</time>
      </trkpt>
      <trkpt lat="47.21193" lon="-1.68385">
        <ele>57</ele>
        <time>2021-06-12T07:44:32.000Z</time>
      </trkpt>
      <trkpt lat="47.21192" lon="-1.68365">
        <ele>57</ele>
        <time>2021-06-12T07:44:35.000Z</time>
      </trkpt>
      <trkpt lat="47.21191" lon="-1.68352">
        <ele>57</ele>
        <time>2021-06-12T07:44:37.000Z</time>
      </trkpt>
      <trkpt lat="47.2119" lon="-1.68339">
        <ele>58</ele>
        <time>2021-06-12T07:44:39.000Z</time>
      </trkpt>
      <trkpt lat="47.21189" lon="-1.68325">
        <ele>58</ele>
        <time>2021-06-12T07:44:41.000Z</time>
      </trkpt>
      <trkpt lat="47.21189" lon="-1.68306">
        <ele>59</ele>
        <time>2021-06-12T07:44:44.000Z</time>
      </trkpt>
      <trkpt lat="47.21193" lon="-1.68295">
        <ele>60</ele>
        <time>2021-06-12T07:44:46.000Z</time>
      </trkpt>
      <trkpt lat="47.21203" lon="-1.68283">
        <ele>61</ele>
        <time>2021-06-12T07:44:49.000Z</time>
      </trkpt>
      <trkpt lat="47.21212" lon="-1.68278">
        <ele>62</ele>
        <time>2021-06-12T07:44:51.000Z</time>
      </trkpt>
      <trkpt lat="47.21225" lon="-1.68275">
        <ele>62</ele>
        <time>2021-06-12T07:44:54.000Z</time>
      </trkpt>
      <trkpt lat="47.21238" lon="-1.68273">
        <ele>63</ele>
        <time>2021-06-12T07:44:57.000Z</time>
      </trkpt>
      <trkpt lat="47.21251" lon="-1.68269">
        <ele>65</ele>
        <time>2021-06-12T07:45:00.000Z</time>
      </trkpt>
      <trkpt lat="47.21262" lon="-1.68265">
        <ele>66</ele>
        <time>2021-06-12T07:45:03.000Z</time>
      </trkpt>
      <trkpt lat="47.21275" lon="-1.68258">
        <ele>67</ele>
        <time>2021-06-12T07:45:06.000Z</time>
      </trkpt>
      <trkpt lat="47.21284" lon="-1.68254">
        <ele>68</ele>
        <time>2021-06-12T07:45:08.000Z</time>
      </trkpt>
      <trkpt lat="47.21297" lon="-1.68249">
        <ele>69</ele>
        <time>2021-06-12T07:45:11.000Z</time>
      </trkpt>
      <trkpt lat="47.2131" lon="-1.68242">
        <ele>70</ele>
        <time>2021-06-12T07:45:14.000Z</time>
      </trkpt>
      <trkpt lat="47.21318" lon="-1.68239">
        <ele>70</ele>
        <time>2021-06-12T07:45:16.000Z</time>
      </trkpt>
      <trkpt lat="47.21331" lon="-1.68234">
        <ele>70</ele>
        <time>2021-06-12T07:45:19.000Z</time>
      </trkpt>
      <trkpt lat="47.21344" lon="-1.68231">
        <ele>72</ele>
        <time>2021-06-12T07:45:22.000Z</time>
      </trkpt>
      <trkpt lat="47.21353" lon="-1.68229">
        <ele>73</ele>
        <time>2021-06-12T07:45:24.000Z</time>
      </trkpt>
      <trkpt lat="47.21362" lon="-1.68226">
        <ele>73</ele>
        <time>2021-06-12T07:45:26.000Z</time>
      </trkpt>
      <trkpt lat="47.21371" lon="-1.68223">
        <ele>74</ele>
        <time>2021-06-12T07:45:28.000Z</time>
      </trkpt>
      <trkpt lat="47.2138" lon="-1.68221">
        <ele>75</ele>
        <time>2021-06-12T07:45:30.000Z</time>
      </trkpt>
      <trkpt lat="47.21393" lon="-1.68219">
        <ele>76</ele>
        <time>2021-06-12T07:45:33.000Z</time>
      </trkpt>
      <trkpt lat="47.21402" lon="-1.68218">
        <ele>77</ele>
        <time>2021-06-12T07:45:35.000Z</time>
      </trkpt>
      <trkpt lat="47.21415" lon="-1.68217">
        <ele>77</ele>
        <time>2021-06-12T07:45:38.000Z</time>
      </trkpt>
      <trkpt lat="47.21425" lon="-1.68215">
        <ele>77</ele>
        <time>2021-06-12T07:45:40.000Z</time>
      </trkpt>
      <trkpt lat="47.21435" lon="-1.68214">
        <ele>78</ele>
        <time>2021-06-12T07:45:42.000Z</time>
      </trkpt>
      <trkpt lat="47.21444" lon="-1.68213">
        <ele>78</ele>
        <time>2021-06-12T07:45:44.000Z</time>
      </trkpt>
      <trkpt lat="47.21457" lon="-1.68213">
        <ele>79</ele>
        <time>2021-06-12T07:45:47.000Z</time>
      </trkpt>
      <trkpt lat="47.21466" lon="-1.68212">
        <ele>79</ele>
        <time>2021-06-12T07:45:49.000Z</time>
      </trkpt>
      <trkpt lat="47.21479" lon="-1.68209">
        <ele>79</ele>
        <time>2021-06-12T07:45:52.000Z</time>
      </trkpt>
      <trkpt lat="47.21488" lon="-1.68204">
        <ele>80</ele>
        <time>2021-06-12T07:45:54.000Z</time>
      </trkpt>
      <trkpt lat="47.21497" lon="-1.68199">
        <ele>79</ele>
        <time>2021-06-12T07:45:56.000Z</time>
      </trkpt>
      <trkpt lat="47.2151" lon="-1.68192">
        <ele>79</ele>
        <time>2021-06-12T07:45:59.000Z</time>
      </trkpt>
      <trkpt lat="47.21521" lon="-1.68184">
        <ele>80</ele>
        <time>2021-06-12T07:46:02.000Z</time>
      </trkpt>
      <trkpt lat="47.2153" lon="-1.68176">
        <ele>79</ele>
        <time>2021-06-12T07:46:04.000Z</time>
      </trkpt>
      <trkpt lat="47.21538" lon="-1.68171">
        <ele>80</ele>
        <time>2021-06-12T07:46:06.000Z</time>
      </trkpt>
      <trkpt lat="47.21547" lon="-1.68172">
        <ele>81</ele>
        <time>2021-06-12T07:46:08.000Z</time>
      </trkpt>
      <trkpt lat="47.21557" lon="-1.68175">
        <ele>81</ele>
        <time>2021-06-12T07:46:10.000Z</time>
      </trkpt>
      <trkpt lat="47.21568" lon="-1.68175">
        <ele>81</ele>
        <time>2021-06-12T07:46:12.000Z</time>
      </trkpt>
      <trkpt lat="47.21579" lon="-1.68178">
        <ele>82</ele>
        <time>2021-06-12T07:46:14.000Z</time>
      </trkpt>
      <trkpt lat="47.21589" lon="-1.6818">
        <ele>81</ele>
        <time>2021-06-12T07:46:16.000Z</time>
      </trkpt>
      <trkpt lat="47.21599" lon="-1.68183">
        <ele>82</ele>
        <time>2021-06-12T07:46:18.000Z</time>
      </trkpt>
      <trkpt lat="47.21608" lon="-1.68185">
        <ele>81</ele>
        <time>2021-06-12T07:46:20.000Z</time>
      </trkpt>
      <trkpt lat="47.21618" lon="-1.68187">
        <ele>81</ele>
        <time>2021-06-12T07:46:22.000Z</time>
      </trkpt>
      <trkpt lat="47.21629" lon="-1.68189">
        <ele>82</ele>
        <time>2021-06-12T07:46:24.000Z</time>
      </trkpt>
      <trkpt lat="47.2164" lon="-1.6819">
        <ele>82</ele>
        <time>2021-06-12T07:46:26.000Z</time>
      </trkpt>
      <trkpt lat="47.21652" lon="-1.68193">
        <ele>82</ele>
        <time>2021-06-12T07:46:28.000Z</time>
      </trkpt>
      <trkpt lat="47.21663" lon="-1.68195">
        <ele>83</ele>
        <time>2021-06-12T07:46:30.000Z</time>
      </trkpt>
      <trkpt lat="47.21675" lon="-1.68198">
        <ele>83</ele>
        <time>2021-06-12T07:46:32.000Z</time>
      </trkpt>
      <trkpt lat="47.21687" lon="-1.68201">
        <ele>83</ele>
        <time>2021-06-12T07:46:34.000Z</time>
      </trkpt>
      <trkpt lat="47.21699" lon="-1.68204">
        <ele>83</ele>
        <time>2021-06-12T07:46:36.000Z</time>
      </trkpt>
      <trkpt lat="47.21712" lon="-1.68206">
        <ele>82</ele>
        <time>2021-06-12T07:46:38.000Z</time>
      </trkpt>
      <trkpt lat="47.21724" lon="-1.68209">
        <ele>82</ele>
        <time>2021-06-12T07:46:40.000Z</time>
      </trkpt>
      <trkpt lat="47.21736" lon="-1.68212">
        <ele>81</ele>
        <time>2021-06-12T07:46:42.000Z</time>
      </trkpt>
      <trkpt lat="47.21749" lon="-1.68215">
        <ele>81</ele>
        <time>2021-06-12T07:46:44.000Z</time>
      </trkpt>
      <trkpt lat="47.21761" lon="-1.68218">
        <ele>80</ele>
        <time>2021-06-12T07:46:46.000Z</time>
      </trkpt>
      <trkpt lat="47.21774" lon="-1.68221">
        <ele>79</ele>
        <time>2021-06-12T07:46:48.000Z</time>
      </trkpt>
      <trkpt lat="47.21785" lon="-1.68223">
        <ele>79</ele>
        <time>2021-06-12T07:46:50.000Z</time>
      </trkpt>
      <trkpt lat="47.21797" lon="-1.68224">
        <ele>79</ele>
        <time>2021-06-12T07:46:52.000Z</time>
      </trkpt>
      <trkpt lat="47.21809" lon="-1.68223">
        <ele>79</ele>
        <time>2021-06-12T07:46:54.000Z</time>
      </trkpt>
      <trkpt lat="47.21821" lon="-1.68226">
        <ele>79</ele>
        <time>2021-06-12T07:46:56.000Z</time>
      </trkpt>
      <trkpt lat="47.21834" lon="-1.68227">
        <ele>80</ele>
        <time>2021-06-12T07:46:58.000Z</time>
      </trkpt>
      <trkpt lat="47.21846" lon="-1.68229">
        <ele>80</ele>
        <time>2021-06-12T07:47:00.000Z</time>
      </trkpt>
      <trkpt lat="47.21859" lon="-1.68228">
        <ele>80</ele>
        <time>2021-06-12T07:47:02.000Z</time>
      </trkpt>
      <trkpt lat="47.21871" lon="-1.68226">
        <ele>79</ele>
        <time>2021-06-12T07:47:04.000Z</time>
      </trkpt>
      <trkpt lat="47.21884" lon="-1.68223">
        <ele>79</ele>
        <time>2021-06-12T07:47:06.000Z</time>
      </trkpt>
      <trkpt lat="47.21897" lon="-1.68217">
        <ele>79</ele>
        <time>2021-06-12T07:47:08.000Z</time>
      </trkpt>
      <trkpt lat="47.21909" lon="-1.68209">
        <ele>79</ele>
        <time>2021-06-12T07:47:10.000Z</time>
      </trkpt>
      <trkpt lat="47.21919" lon="-1.68201">
        <ele>79</ele>
        <time>2021-06-12T07:47:12.000Z</time>
      </trkpt>
      <trkpt lat="47.21931" lon="-1.68194">
        <ele>79</ele>
        <time>2021-06-12T07:47:14.000Z</time>
      </trkpt>
      <trkpt lat="47.21943" lon="-1.68185">
        <ele>78</ele>
        <time>2021-06-12T07:47:16.000Z</time>
      </trkpt>
      <trkpt lat="47.21955" lon="-1.68178">
        <ele>78</ele>
        <time>2021-06-12T07:47:18.000Z</time>
      </trkpt>
      <trkpt lat="47.21966" lon="-1.68171">
        <ele>78</ele>
        <time>2021-06-12T07:47:20.000Z</time>
      </trkpt>
      <trkpt lat="47.21978" lon="-1.68163">
        <ele>78</ele>
        <time>2021-06-12T07:47:22.000Z</time>
      </trkpt>
      <trkpt lat="47.21989" lon="-1.68156">
        <ele>79</ele>
        <time>2021-06-12T07:47:24.000Z</time>
      </trkpt>
      <trkpt lat="47.22" lon="-1.68148">
        <ele>79</ele>
        <time>2021-06-12T07:47:26.000Z</time>
      </trkpt>
      <trkpt lat="47.22012" lon="-1.68139">
        <ele>79</ele>
        <time>2021-06-12T07:47:28.000Z</time>
      </trkpt>
      <trkpt lat="47.22022" lon="-1.68129">
        <ele>79</ele>
        <time>2021-06-12T07:47:30.000Z</time>
      </trkpt>
      <trkpt lat="47.22032" lon="-1.68118">
        <ele>80</ele>
        <time>2021-06-12T07:47:32.000Z</time>
      </trkpt>
      <trkpt lat="47.22042" lon="-1.68106">
        <ele>80</ele>
        <time>2021-06-12T07:47:34.000Z</time>
      </trkpt>
      <trkpt lat="47.22051" lon="-1.68095">
        <ele>81</ele>
        <time>2021-06-12T07:47:36.000Z</time>
      </trkpt>
      <trkpt lat="47.2206" lon="-1.68082">
        <ele>81</ele>
        <time>2021-06-12T07:47:38.000Z</time>
      </trkpt>
      <trkpt lat="47.2207" lon="-1.6807">
        <ele>81</ele>
        <time>2021-06-12T07:47:40.000Z</time>
      </trkpt>
      <trkpt lat="47.22078" lon="-1.68058">
        <ele>81</ele>
        <time>2021-06-12T07:47:42.000Z</time>
      </trkpt>
      <trkpt lat="47.22087" lon="-1.68047">
        <ele>81</ele>
        <time>2021-06-12T07:47:44.000Z</time>
      </trkpt>
      <trkpt lat="47.22096" lon="-1.68035">
        <ele>81</ele>
        <time>2021-06-12T07:47:46.000Z</time>
      </trkpt>
      <trkpt lat="47.22106" lon="-1.68023">
        <ele>81</ele>
        <time>2021-06-12T07:47:48.000Z</time>
      </trkpt>
      <trkpt lat="47.22115" lon="-1.68011">
        <ele>81</ele>
        <time>2021-06-12T07:47:50.000Z</time>
      </trkpt>
      <trkpt lat="47.22125" lon="-1.68001">
        <ele>81</ele>
        <time>2021-06-12T07:47:52.000Z</time>
      </trkpt>
      <trkpt lat="47.22135" lon="-1.67991">
        <ele>81</ele>
        <time>2021-06-12T07:47:54.000Z</time>
      </trkpt>
      <trkpt lat="47.22144" lon="-1.67982">
        <ele>81</ele>
        <time>2021-06-12T07:47:56.000Z</time>
      </trkpt>
      <trkpt lat="47.22154" lon="-1.67975">
        <ele>82</ele>
        <time>2021-06-12T07:47:58.000Z</time>
      </trkpt>
      <trkpt lat="47.22164" lon="-1.67968">
        <ele>82</ele>
        <time>2021-06-12T07:48:00.000Z</time>
      </trkpt>
      <trkpt lat="47.22174" lon="-1.6796">
        <ele>81</ele>
        <time>2021-06-12T07:48:02.000Z</time>
      </trkpt>
      <trkpt lat="47.22185" lon="-1.67953">
        <ele>82</ele>
        <time>2021-06-12T07:48:04.000Z</time>
      </trkpt>
      <trkpt lat="47.22196" lon="-1.67946">
        <ele>82</ele>
        <time>2021-06-12T07:48:06.000Z</time>
      </trkpt>
      <trkpt lat="47.22207" lon="-1.67939">
        <ele>81</ele>
        <time>2021-06-12T07:48:08.000Z</time>
      </trkpt>
      <trkpt lat="47.22219" lon="-1.67931">
        <ele>81</ele>
        <time>2021-06-12T07:48:10.000Z</time>
      </trkpt>
      <trkpt lat="47.2223" lon="-1.67923">
        <ele>80</ele>
        <time>2021-06-12T07:48:12.000Z</time>
      </trkpt>
      <trkpt lat="47.22242" lon="-1.67916">
        <ele>80</ele>
        <time>2021-06-12T07:48:14.000Z</time>
      </trkpt>
      <trkpt lat="47.22253" lon="-1.67908">
        <ele>79</ele>
        <time>2021-06-12T07:48:16.000Z</time>
      </trkpt>
      <trkpt lat="47.22265" lon="-1.679">
        <ele>79</ele>
        <time>2021-06-12T07:48:18.000Z</time>
      </trkpt>
      <trkpt lat="47.22276" lon="-1.67892">
        <ele>79</ele>
        <time>2021-06-12T07:48:20.000Z</time>
      </trkpt>
      <trkpt lat="47.22288" lon="-1.67884">
        <ele>78</ele>
        <time>2021-06-12T07:48:22.000Z</time>
      </trkpt>
      <trkpt lat="47.223" lon="-1.67877">
        <ele>78</ele>
        <time>2021-06-12T07:48:24.000Z</time>
      </trkpt>
      <trkpt lat="47.22312" lon="-1.67868">
        <ele>78</ele>
        <time>2021-06-12T07:48:26.000Z</time>
      </trkpt>
      <trkpt lat="47.22323" lon="-1.67861">
        <ele>78</ele>
        <time>2021-06-12T07:48:28.000Z</time>
      </trkpt>
      <trkpt lat="47.22334" lon="-1.67853">
        <ele>78</ele>
        <time>2021-06-12T07:48:30.000Z</time>
      </trkpt>
      <trkpt lat="47.22346" lon="-1.67847">
        <ele>78</ele>
        <time>2021-06-12T07:48:32.000Z</time>
      </trkpt>
      <trkpt lat="47.22358" lon="-1.67842">
        <ele>79</ele>
        <time>2021-06-12T07:48:34.000Z</time>
      </trkpt>
      <trkpt lat="47.22369" lon="-1.67837">
        <ele>79</ele>
        <time>2021-06-12T07:48:36.000Z</time>
      </trkpt>
      <trkpt lat="47.22381" lon="-1.67833">
        <ele>80</ele>
        <time>2021-06-12T07:48:38.000Z</time>
      </trkpt>
      <trkpt lat="47.22393" lon="-1.67829">
        <ele>80</ele>
        <time>2021-06-12T07:48:40.000Z</time>
      </trkpt>
      <trkpt lat="47.22405" lon="-1.67826">
        <ele>80</ele>
        <time>2021-06-12T07:48:42.000Z</time>
      </trkpt>
      <trkpt lat="47.22417" lon="-1.67824">
        <ele>80</ele>
        <time>2021-06-12T07:48:44.000Z</time>
      </trkpt>
      <trkpt lat="47.2243" lon="-1.67822">
        <ele>81</ele>
        <time>2021-06-12T07:48:46.000Z</time>
      </trkpt>
      <trkpt lat="47.22442" lon="-1.67821">
        <ele>81</ele>
        <time>2021-06-12T07:48:48.000Z</time>
      </trkpt>
      <trkpt lat="47.22454" lon="-1.67821">
        <ele>82</ele>
        <time>2021-06-12T07:48:50.000Z</time>
      </trkpt>
      <trkpt lat="47.22466" lon="-1.67822">
        <ele>82</ele>
        <time>2021-06-12T07:48:52.000Z</time>
      </trkpt>
      <trkpt lat="47.22478" lon="-1.67824">
        <ele>83</ele>
        <time>2021-06-12T07:48:54.000Z</time>
      </trkpt>
      <trkpt lat="47.2249" lon="-1.67826">
        <ele>83</ele>
        <time>2021-06-12T07:48:56.000Z</time>
      </trkpt>
      <trkpt lat="47.22501" lon="-1.67829">
        <ele>83</ele>
        <time>2021-06-12T07:48:58.000Z</time>
      </trkpt>
      <trkpt lat="47.22513" lon="-1.67831">
        <ele>84</ele>
        <time>2021-06-12T07:49:00.000Z</time>
      </trkpt>
      <trkpt lat="47.22525" lon="-1.67832">
        <ele>84</ele>
        <time>2021-06-12T07:49:02.000Z</time>
      </trkpt>
      <trkpt lat="47.22536" lon="-1.67834">
        <ele>85</ele>
        <time>2021-06-12T07:49:04.000Z</time>
      </trkpt>
      <trkpt lat="47.22548" lon="-1.67835">
        <ele>85</ele>
        <time>2021-06-12T07:49:06.000Z</time>
      </trkpt>
      <trkpt lat="47.2256" lon="-1.67836">
        <ele>86</ele>
        <time>2021-06-12T07:49:08.000Z</time>
      </trkpt>
      <trkpt lat="47.2257" lon="-1.67836">
        <ele>86</ele>
        <time>2021-06-12T07:49:10.000Z</time>
      </trkpt>
      <trkpt lat="47.2258" lon="-1.67827">
        <ele>87</ele>
        <time>2021-06-12T07:49:12.000Z</time>
      </trkpt>
      <trkpt lat="47.22591" lon="-1.67825">
        <ele>87</ele>
        <time>2021-06-12T07:49:14.000Z</time>
      </trkpt>
      <trkpt lat="47.22601" lon="-1.67831">
        <ele>87</ele>
        <time>2021-06-12T07:49:16.000Z</time>
      </trkpt>
      <trkpt lat="47.22614" lon="-1.67835">
        <ele>86</ele>
        <time>2021-06-12T07:49:18.000Z</time>
      </trkpt>
      <trkpt lat="47.22626" lon="-1.67833">
        <ele>86</ele>
        <time>2021-06-12T07:49:20.000Z</time>
      </trkpt>
      <trkpt lat="47.22637" lon="-1.67831">
        <ele>87</ele>
        <time>2021-06-12T07:49:22.000Z</time>
      </trkpt>
      <trkpt lat="47.22648" lon="-1.67828">
        <ele>88</ele>
        <time>2021-06-12T07:49:24.000Z</time>
      </trkpt>
      <trkpt lat="47.22659" lon="-1.67826">
        <ele>88</ele>
        <time>2021-06-12T07:49:26.000Z</time>
      </trkpt>
      <trkpt lat="47.2267" lon="-1.67823">
        <ele>89</ele>
        <time>2021-06-12T07:49:28.000Z</time>
      </trkpt>
      <trkpt lat="47.22681" lon="-1.6782">
        <ele>90</ele>
        <time>2021-06-12T07:49:30.000Z</time>
      </trkpt>
      <trkpt lat="47.22692" lon="-1.67818">
        <ele>90</ele>
        <time>2021-06-12T07:49:32.000Z</time>
      </trkpt>
      <trkpt lat="47.22703" lon="-1.67817">
        <ele>90</ele>
        <time>2021-06-12T07:49:34.000Z</time>
      </trkpt>
      <trkpt lat="47.22714" lon="-1.67814">
        <ele>91</ele>
        <time>2021-06-12T07:49:36.000Z</time>
      </trkpt>
      <trkpt lat="47.22725" lon="-1.67812">
        <ele>91</ele>
        <time>2021-06-12T07:49:38.000Z</time>
      </trkpt>
      <trkpt lat="47.22736" lon="-1.6781">
        <ele>91</ele>
        <time>2021-06-12T07:49:40.000Z</time>
      </trkpt>
      <trkpt lat="47.22746" lon="-1.67807">
        <ele>92</ele>
        <time>2021-06-12T07:49:42.000Z</time>
      </trkpt>
      <trkpt lat="47.22757" lon="-1.67803">
        <ele>92</ele>
        <time>2021-06-12T07:49:44.000Z</time>
      </trkpt>
      <trkpt lat="47.22768" lon="-1.678">
        <ele>93</ele>
        <time>2021-06-12T07:49:46.000Z</time>
      </trkpt>
      <trkpt lat="47.22778" lon="-1.67796">
        <ele>93</ele>
        <time>2021-06-12T07:49:48.000Z</time>
      </trkpt>
      <trkpt lat="47.22788" lon="-1.67792">
        <ele>94</ele>
        <time>2021-06-12T07:49:50.000Z</time>
      </trkpt>
      <trkpt lat="47.22799" lon="-1.67789">
        <ele>94</ele>
        <time>2021-06-12T07:49:52.000Z</time>
      </trkpt>
      <trkpt lat="47.22809" lon="-1.67784">
        <ele>95</ele>
        <time>2021-06-12T07:49:54.000Z</time>
      </trkpt>
      <trkpt lat="47.2282" lon="-1.67779">
        <ele>96</ele>
        <time>2021-06-12T07:49:56.000Z</time>
      </trkpt>
      <trkpt lat="47.2283" lon="-1.67773">
        <ele>96</ele>
        <time>2021-06-12T07:49:58.000Z</time>
      </trkpt>
      <trkpt lat="47.2284" lon="-1.67769">
        <ele>96</ele>
        <time>2021-06-12T07:50:00.000Z</time>
      </trkpt>
      <trkpt lat="47.22849" lon="-1.67763">
        <ele>96</ele>
        <time>2021-06-12T07:50:02.000Z</time>
      </trkpt>
      <trkpt lat="47.22859" lon="-1.67758">
        <ele>97</ele>
        <time>2021-06-12T07:50:04.000Z</time>
      </trkpt>
      <trkpt lat="47.22869" lon="-1.67751">
        <ele>97</ele>
        <time>2021-06-12T07:50:06.000Z</time>
      </trkpt>
      <trkpt lat="47.22879" lon="-1.67744">
        <ele>98</ele>
        <time>2021-06-12T07:50:08.000Z</time>
      </trkpt>
      <trkpt lat="47.22888" lon="-1.67739">
        <ele>98</ele>
        <time>2021-06-12T07:50:10.000Z</time>
      </trkpt>
      <trkpt lat="47.22899" lon="-1.67733">
        <ele>98</ele>
        <time>2021-06-12T07:50:12.000Z</time>
      </trkpt>
      <trkpt lat="47.22909" lon="-1.67727">
        <ele>98</ele>
        <time>2021-06-12T07:50:14.000Z</time>
      </trkpt>
      <trkpt lat="47.22919" lon="-1.67721">
        <ele>99</ele>
        <time>2021-06-12T07:50:16.000Z</time>
      </trkpt>
      <trkpt lat="47.22929" lon="-1.67715">
        <ele>99</ele>
        <time>2021-06-12T07:50:18.000Z</time>
      </trkpt>
      <trkpt lat="47.22938" lon="-1.67708">
        <ele>99</ele>
        <time>2021-06-12T07:50:20.000Z</time>
      </trkpt>
      <trkpt lat="47.22948" lon="-1.67702">
        <ele>99</ele>
        <time>2021-06-12T07:50:22.000Z</time>
      </trkpt>
      <trkpt lat="47.22958" lon="-1.67694">
        <ele>99</ele>
        <time>2021-06-12T07:50:24.000Z</time>
      </trkpt>
      <trkpt lat="47.22968" lon="-1.67687">
        <ele>99</ele>
        <time>2021-06-12T07:50:26.000Z</time>
      </trkpt>
      <trkpt lat="47.22978" lon="-1.6768">
        <ele>99</ele>
        <time>2021-06-12T07:50:28.000Z</time>
      </trkpt>
      <trkpt lat="47.22987" lon="-1.67673">
        <ele>99</ele>
        <time>2021-06-12T07:50:30.000Z</time>
      </trkpt>
      <trkpt lat="47.22997" lon="-1.67666">
        <ele>99</ele>
        <time>2021-06-12T07:50:32.000Z</time>
      </trkpt>
      <trkpt lat="47.23007" lon="-1.67659">
        <ele>99</ele>
        <time>2021-06-12T07:50:34.000Z</time>
      </trkpt>
      <trkpt lat="47.23017" lon="-1.67652">
        <ele>99</ele>
        <time>2021-06-12T07:50:36.000Z</time>
      </trkpt>
      <trkpt lat="47.23027" lon="-1.67643">
        <ele>99</ele>
        <time>2021-06-12T07:50:38.000Z</time>
      </trkpt>
      <trkpt lat="47.23036" lon="-1.67632">
        <ele>98</ele>
        <time>2021-06-12T07:50:40.000Z</time>
      </trkpt>
      <trkpt lat="47.23044" lon="-1.6762">
        <ele>98</ele>
        <time>2021-06-12T07:50:42.000Z</time>
      </trkpt>
      <trkpt lat="47.23052" lon="-1.67607">
        <ele>98</ele>
        <time>2021-06-12T07:50:44.000Z</time>
      </trkpt>
      <trkpt lat="47.2306" lon="-1.67595">
        <ele>98</ele>
        <time>2021-06-12T07:50:46.000Z</time>
      </trkpt>
      <trkpt lat="47.23068" lon="-1.67583">
        <ele>98</ele>
        <time>2021-06-12T07:50:48.000Z</time>
      </trkpt>
      <trkpt lat="47.23076" lon="-1.6757">
        <ele>98</ele>
        <time>2021-06-12T07:50:50.000Z</time>
      </trkpt>
      <trkpt lat="47.23085" lon="-1.67559">
        <ele>99</ele>
        <time>2021-06-12T07:50:52.000Z</time>
      </trkpt>
      <trkpt lat="47.23093" lon="-1.67548">
        <ele>99</ele>
        <time>2021-06-12T07:50:54.000Z</time>
      </trkpt>
      <trkpt lat="47.23103" lon="-1.67538">
        <ele>99</ele>
        <time>2021-06-12T07:50:56.000Z</time>
      </trkpt>
      <trkpt lat="47.23112" lon="-1.67528">
        <ele>99</ele>
        <time>2021-06-12T07:50:58.000Z</time>
      </trkpt>
      <trkpt lat="47.23121" lon="-1.67519">
        <ele>99</ele>
        <time>2021-06-12T07:51:00.000Z</time>
      </trkpt>
      <trkpt lat="47.2313" lon="-1.67508">
        <ele>100</ele>
        <time>2021-06-12T07:51:02.000Z</time>
      </trkpt>
      <trkpt lat="47.23139" lon="-1.67498">
        <ele>101</ele>
        <time>2021-06-12T07:51:04.000Z</time>
      </trkpt>
      <trkpt lat="47.23147" lon="-1.67489">
        <ele>101</ele>
        <time>2021-06-12T07:51:06.000Z</time>
      </trkpt>
      <trkpt lat="47.23156" lon="-1.67478">
        <ele>102</ele>
        <time>2021-06-12T07:51:08.000Z</time>
      </trkpt>
      <trkpt lat="47.23165" lon="-1.67468">
        <ele>102</ele>
        <time>2021-06-12T07:51:10.000Z</time>
      </trkpt>
      <trkpt lat="47.23174" lon="-1.67457">
        <ele>102</ele>
        <time>2021-06-12T07:51:12.000Z</time>
      </trkpt>
      <trkpt lat="47.23183" lon="-1.67447">
        <ele>103</ele>
        <time>2021-06-12T07:51:14.000Z</time>
      </trkpt>
      <trkpt lat="47.23191" lon="-1.67437">
        <ele>103</ele>
        <time>2021-06-12T07:51:16.000Z</time>
      </trkpt>
      <trkpt lat="47.232" lon="-1.67427">
        <ele>103</ele>
        <time>2021-06-12T07:51:18.000Z</time>
      </trkpt>
      <trkpt lat="47.23209" lon="-1.67418">
        <ele>104</ele>
        <time>2021-06-12T07:51:20.000Z</time>
      </trkpt>
      <trkpt lat="47.23218" lon="-1.67409">
        <ele>104</ele>
        <time>2021-06-12T07:51:22.000Z</time>
      </trkpt>
      <trkpt lat="47.23228" lon="-1.67401">
        <ele>105</ele>
        <time>2021-06-12T07:51:24.000Z</time>
      </trkpt>
      <trkpt lat="47.23237" lon="-1.67393">
        <ele>106</ele>
        <time>2021-06-12T07:51:26.000Z</time>
      </trkpt>
      <trkpt lat="47.23247" lon="-1.67385">
        <ele>106</ele>
        <time>2021-06-12T07:51:28.000Z</time>
      </trkpt>
      <trkpt lat="47.23257" lon="-1.67377">
        <ele>107</ele>
        <time>2021-06-12T07:51:30.000Z</time>
      </trkpt>
      <trkpt lat="47.23267" lon="-1.6737">
        <ele>107</ele>
        <time>2021-06-12T07:51:32.000Z</time>
      </trkpt>
      <trkpt lat="47.23277" lon="-1.67364">
        <ele>108</ele>
        <time>2021-06-12T07:51:34.000Z</time>
      </trkpt>
      <trkpt lat="47.23287" lon="-1.67357">
        <ele>108</ele>
        <time>2021-06-12T07:51:36.000Z</time>
      </trkpt>
      <trkpt lat="47.23297" lon="-1.67349">
        <ele>109</ele>
        <time>2021-06-12T07:51:38.000Z</time>
      </trkpt>
      <trkpt lat="47.23308" lon="-1.67343">
        <ele>109</ele>
        <time>2021-06-12T07:51:40.000Z</time>
      </trkpt>
      <trkpt lat="47.23317" lon="-1.67336">
        <ele>110</ele>
        <time>2021-06-12T07:51:42.000Z</time>
      </trkpt>
      <trkpt lat="47.23327" lon="-1.67329">
        <ele>110</ele>
        <time>2021-06-12T07:51:44.000Z</time>
      </trkpt>
      <trkpt lat="47.23337" lon="-1.67323">
        <ele>110</ele>
        <time>2021-06-12T07:51:46.000Z</time>
      </trkpt>
      <trkpt lat="47.23347" lon="-1.67316">
        <ele>110</ele>
        <time>2021-06-12T07:51:48.000Z</time>
      </trkpt>
      <trkpt lat="47.23357" lon="-1.67309">
        <ele>110</ele>
        <time>2021-06-12T07:51:50.000Z</time>
      </trkpt>
      <trkpt lat="47.23367" lon="-1.67303">
        <ele>111</ele>
        <time>2021-06-12T07:51:52.000Z</time>
      </trkpt>
      <trkpt lat="47.23377" lon="-1.67296">
        <ele>111</ele>
        <time>2021-06-12T07:51:54.000Z</time>
      </trkpt>
      <trkpt lat="47.23387" lon="-1.67289">
        <ele>111</ele>
        <time>2021-06-12T07:51:56.000Z</time>
      </trkpt>
      <trkpt lat="47.23397" lon="-1.67283">
        <ele>111</ele>
        <time>2021-06-12T07:51:58.000Z</time>
      </trkpt>
      <trkpt lat="47.23408" lon="-1.67276">
        <ele>111</ele>
        <time>2021-06-12T07:52:00.000Z</time>
      </trkpt>
      <trkpt lat="47.23418" lon="-1.67269">
        <ele>111</ele>
        <time>2021-06-12T07:52:02.000Z</time>
      </trkpt>
      <trkpt lat="47.23428" lon="-1.67262">
        <ele>111</ele>
        <time>2021-06-12T07:52:04.000Z</time>
      </trkpt>
      <trkpt lat="47.23437" lon="-1.67255">
        <ele>111</ele>
        <time>2021-06-12T07:52:06.000Z</time>
      </trkpt>
      <trkpt lat="47.23447" lon="-1.67249">
        <ele>111</ele>
        <time>2021-06-12T07:52:08.000Z</time>
      </trkpt>
      <trkpt lat="47.23457" lon="-1.67242">
        <ele>111</ele>
        <time>2021-06-12T07:52:10.000Z</time>
      </trkpt>
      <trkpt lat="47.23468" lon="-1.67235">
        <ele>111</ele>
        <time>2021-06-12T07:52:12.000Z</time>
      </trkpt>
      <trkpt lat="47.23479" lon="-1.67228">
        <ele>111</ele>
        <time>2021-06-12T07:52:14.000Z</time>
      </trkpt>
      <trkpt lat="47.23489" lon="-1.6722">
        <ele>111</ele>
        <time>2021-06-12T07:52:16.000Z</time>
      </trkpt>
      <trkpt lat="47.23498" lon="-1.67212">
        <ele>112</ele>
        <time>2021-06-12T07:52:18.000Z</time>
      </trkpt>
      <trkpt lat="47.23507" lon="-1.67201">
        <ele>113</ele>
        <time>2021-06-12T07:52:20.000Z</time>
      </trkpt>
      <trkpt lat="47.23517" lon="-1.67196">
        <ele>113</ele>
        <time>2021-06-12T07:52:22.000Z</time>
      </trkpt>
      <trkpt lat="47.23529" lon="-1.67191">
        <ele>113</ele>
        <time>2021-06-12T07:52:24.000Z</time>
      </trkpt>
      <trkpt lat="47.23542" lon="-1.67188">
        <ele>112</ele>
        <time>2021-06-12T07:52:26.000Z</time>
      </trkpt>
      <trkpt lat="47.23554" lon="-1.67184">
        <ele>112</ele>
        <time>2021-06-12T07:52:28.000Z</time>
      </trkpt>
      <trkpt lat="47.23567" lon="-1.67182">
        <ele>111</ele>
        <time>2021-06-12T07:52:30.000Z</time>
      </trkpt>
      <trkpt lat="47.23578" lon="-1.67179">
        <ele>112</ele>
        <time>2021-06-12T07:52:32.000Z</time>
      </trkpt>
      <trkpt lat="47.2359" lon="-1.67177">
        <ele>112</ele>
        <time>2021-06-12T07:52:34.000Z</time>
      </trkpt>
      <trkpt lat="47.23602" lon="-1.67176">
        <ele>112</ele>
        <time>2021-06-12T07:52:36.000Z</time>
      </trkpt>
      <trkpt lat="47.23613" lon="-1.67174">
        <ele>112</ele>
        <time>2021-06-12T07:52:38.000Z</time>
      </trkpt>
      <trkpt lat="47.23625" lon="-1.6717">
        <ele>112</ele>
        <time>2021-06-12T07:52:40.000Z</time>
      </trkpt>
      <trkpt lat="47.23633" lon="-1.67159">
        <ele>111</ele>
        <time>2021-06-12T07:52:42.000Z</time>
      </trkpt>
      <trkpt lat="47.23644" lon="-1.67156">
        <ele>111</ele>
        <time>2021-06-12T07:52:44.000Z</time>
      </trkpt>
      <trkpt lat="47.23654" lon="-1.6716">
        <ele>111</ele>
        <time>2021-06-12T07:52:46.000Z</time>
      </trkpt>
      <trkpt lat="47.23664" lon="-1.67169">
        <ele>111</ele>
        <time>2021-06-12T07:52:48.000Z</time>
      </trkpt>
      <trkpt lat="47.23675" lon="-1.6717">
        <ele>111</ele>
        <time>2021-06-12T07:52:50.000Z</time>
      </trkpt>
      <trkpt lat="47.23687" lon="-1.67168">
        <ele>111</ele>
        <time>2021-06-12T07:52:52.000Z</time>
      </trkpt>
      <trkpt lat="47.237" lon="-1.67167">
        <ele>111</ele>
        <time>2021-06-12T07:52:54.000Z</time>
      </trkpt>
      <trkpt lat="47.23711" lon="-1.67164">
        <ele>111</ele>
        <time>2021-06-12T07:52:56.000Z</time>
      </trkpt>
      <trkpt lat="47.23723" lon="-1.67161">
        <ele>111</ele>
        <time>2021-06-12T07:52:58.000Z</time>
      </trkpt>
      <trkpt lat="47.23735" lon="-1.67157">
        <ele>111</ele>
        <time>2021-06-12T07:53:00.000Z</time>
      </trkpt>
      <trkpt lat="47.23746" lon="-1.67153">
        <ele>111</ele>
        <time>2021-06-12T07:53:02.000Z</time>
      </trkpt>
      <trkpt lat="47.23758" lon="-1.67148">
        <ele>111</ele>
        <time>2021-06-12T07:53:04.000Z</time>
      </trkpt>
      <trkpt lat="47.2377" lon="-1.67145">
        <ele>112</ele>
        <time>2021-06-12T07:53:06.000Z</time>
      </trkpt>
      <trkpt lat="47.23781" lon="-1.67141">
        <ele>111</ele>
        <time>2021-06-12T07:53:08.000Z</time>
      </trkpt>
      <trkpt lat="47.23793" lon="-1.67136">
        <ele>112</ele>
        <time>2021-06-12T07:53:10.000Z</time>
      </trkpt>
      <trkpt lat="47.23804" lon="-1.67133">
        <ele>111</ele>
        <time>2021-06-12T07:53:12.000Z</time>
      </trkpt>
      <trkpt lat="47.23816" lon="-1.67131">
        <ele>112</ele>
        <time>2021-06-12T07:53:14.000Z</time>
      </trkpt>
      <trkpt lat="47.23828" lon="-1.67129">
        <ele>112</ele>
        <time>2021-06-12T07:53:16.000Z</time>
      </trkpt>
      <trkpt lat="47.23839" lon="-1.6713">
        <ele>112</ele>
        <time>2021-06-12T07:53:18.000Z</time>
      </trkpt>
      <trkpt lat="47.23851" lon="-1.67131">
        <ele>112</ele>
        <time>2021-06-12T07:53:20.000Z</time>
      </trkpt>
      <trkpt lat="47.23861" lon="-1.67133">
        <ele>112</ele>
        <time>2021-06-12T07:53:22.000Z</time>
      </trkpt>
      <trkpt lat="47.23872" lon="-1.67137">
        <ele>113</ele>
        <time>2021-06-12T07:53:24.000Z</time>
      </trkpt>
      <trkpt lat="47.23883" lon="-1.67141">
        <ele>113</ele>
        <time>2021-06-12T07:53:26.000Z</time>
      </trkpt>
      <trkpt lat="47.23894" lon="-1.67147">
        <ele>113</ele>
        <time>2021-06-12T07:53:28.000Z</time>
      </trkpt>
      <trkpt lat="47.23905" lon="-1.67153">
        <ele>113</ele>
        <time>2021-06-12T07:53:30.000Z</time>
      </trkpt>
      <trkpt lat="47.23915" lon="-1.67159">
        <ele>114</ele>
        <time>2021-06-12T07:53:32.000Z</time>
      </trkpt>
      <trkpt lat="47.23926" lon="-1.67166">
        <ele>114</ele>
        <time>2021-06-12T07:53:34.000Z</time>
      </trkpt>
      <trkpt lat="47.23936" lon="-1.67175">
        <ele>114</ele>
        <time>2021-06-12T07:53:36.000Z</time>
      </trkpt>
      <trkpt lat="47.23944" lon="-1.67183">
        <ele>114</ele>
        <time>2021-06-12T07:53:38.000Z</time>
      </trkpt>
      <trkpt lat="47.23953" lon="-1.67192">
        <ele>114</ele>
        <time>2021-06-12T07:53:40.000Z</time>
      </trkpt>
      <trkpt lat="47.23961" lon="-1.67203">
        <ele>114</ele>
        <time>2021-06-12T07:53:42.000Z</time>
      </trkpt>
      <trkpt lat="47.23968" lon="-1.67216">
        <ele>114</ele>
        <time>2021-06-12T07:53:44.000Z</time>
      </trkpt>
      <trkpt lat="47.23976" lon="-1.67227">
        <ele>114</ele>
        <time>2021-06-12T07:53:46.000Z</time>
      </trkpt>
      <trkpt lat="47.23984" lon="-1.67238">
        <ele>114</ele>
        <time>2021-06-12T07:53:48.000Z</time>
      </trkpt>
      <trkpt lat="47.23993" lon="-1.67248">
        <ele>114</ele>
        <time>2021-06-12T07:53:50.000Z</time>
      </trkpt>
      <trkpt lat="47.24003" lon="-1.67258">
        <ele>113</ele>
        <time>2021-06-12T07:53:52.000Z</time>
      </trkpt>
      <trkpt lat="47.24013" lon="-1.67267">
        <ele>112</ele>
        <time>2021-06-12T07:53:54.000Z</time>
      </trkpt>
      <trkpt lat="47.24025" lon="-1.67274">
        <ele>112</ele>
        <time>2021-06-12T07:53:56.000Z</time>
      </trkpt>
      <trkpt lat="47.24039" lon="-1.6728">
        <ele>111</ele>
        <time>2021-06-12T07:53:58.000Z</time>
      </trkpt>
      <trkpt lat="47.24052" lon="-1.67283">
        <ele>110</ele>
        <time>2021-06-12T07:54:00.000Z</time>
      </trkpt>
      <trkpt lat="47.24068" lon="-1.67286">
        <ele>109</ele>
        <time>2021-06-12T07:54:02.000Z</time>
      </trkpt>
      <trkpt lat="47.24092" lon="-1.67288">
        <ele>107</ele>
        <time>2021-06-12T07:54:05.000Z</time>
      </trkpt>
      <trkpt lat="47.24108" lon="-1.67289">
        <ele>106</ele>
        <time>2021-06-12T07:54:07.000Z</time>
      </trkpt>
      <trkpt lat="47.24125" lon="-1.67291">
        <ele>107</ele>
        <time>2021-06-12T07:54:09.000Z</time>
      </trkpt>
      <trkpt lat="47.24141" lon="-1.67291">
        <ele>107</ele>
        <time>2021-06-12T07:54:11.000Z</time>
      </trkpt>
      <trkpt lat="47.24157" lon="-1.67289">
        <ele>107</ele>
        <time>2021-06-12T07:54:13.000Z</time>
      </trkpt>
      <trkpt lat="47.24172" lon="-1.67283">
        <ele>107</ele>
        <time>2021-06-12T07:54:15.000Z</time>
      </trkpt>
      <trkpt lat="47.24187" lon="-1.67279">
        <ele>106</ele>
        <time>2021-06-12T07:54:17.000Z</time>
      </trkpt>
      <trkpt lat="47.24202" lon="-1.67273">
        <ele>106</ele>
        <time>2021-06-12T07:54:19.000Z</time>
      </trkpt>
      <trkpt lat="47.24216" lon="-1.67266">
        <ele>105</ele>
        <time>2021-06-12T07:54:21.000Z</time>
      </trkpt>
      <trkpt lat="47.24226" lon="-1.67251">
        <ele>104</ele>
        <time>2021-06-12T07:54:23.000Z</time>
      </trkpt>
      <trkpt lat="47.24227" lon="-1.67231">
        <ele>103</ele>
        <time>2021-06-12T07:54:25.000Z</time>
      </trkpt>
      <trkpt lat="47.24226" lon="-1.67214">
        <ele>104</ele>
        <time>2021-06-12T07:54:27.000Z</time>
      </trkpt>
      <trkpt lat="47.24229" lon="-1.67201">
        <ele>104</ele>
        <time>2021-06-12T07:54:29.000Z</time>
      </trkpt>
      <trkpt lat="47.24237" lon="-1.67192">
        <ele>104</ele>
        <time>2021-06-12T07:54:33.000Z</time>
      </trkpt>
      <trkpt lat="47.24245" lon="-1.67176">
        <ele>105</ele>
        <time>2021-06-12T07:54:38.000Z</time>
      </trkpt>
      <trkpt lat="47.24245" lon="-1.6716">
        <ele>105</ele>
        <time>2021-06-12T07:54:40.000Z</time>
      </trkpt>
      <trkpt lat="47.24244" lon="-1.67143">
        <ele>105</ele>
        <time>2021-06-12T07:54:42.000Z</time>
      </trkpt>
      <trkpt lat="47.24243" lon="-1.67124">
        <ele>105</ele>
        <time>2021-06-12T07:54:44.000Z</time>
      </trkpt>
      <trkpt lat="47.24242" lon="-1.67106">
        <ele>105</ele>
        <time>2021-06-12T07:54:46.000Z</time>
      </trkpt>
      <trkpt lat="47.24242" lon="-1.67089">
        <ele>105</ele>
        <time>2021-06-12T07:54:48.000Z</time>
      </trkpt>
      <trkpt lat="47.24243" lon="-1.67064">
        <ele>105</ele>
        <time>2021-06-12T07:54:51.000Z</time>
      </trkpt>
      <trkpt lat="47.24244" lon="-1.67048">
        <ele>106</ele>
        <time>2021-06-12T07:54:53.000Z</time>
      </trkpt>
      <trkpt lat="47.24246" lon="-1.67024">
        <ele>106</ele>
        <time>2021-06-12T07:54:56.000Z</time>
      </trkpt>
      <trkpt lat="47.2425" lon="-1.67001">
        <ele>106</ele>
        <time>2021-06-12T07:54:59.000Z</time>
      </trkpt>
      <trkpt lat="47.24253" lon="-1.66985">
        <ele>107</ele>
        <time>2021-06-12T07:55:01.000Z</time>
      </trkpt>
      <trkpt lat="47.24256" lon="-1.66971">
        <ele>107</ele>
        <time>2021-06-12T07:55:03.000Z</time>
      </trkpt>
      <trkpt lat="47.24261" lon="-1.66948">
        <ele>107</ele>
        <time>2021-06-12T07:55:06.000Z</time>
      </trkpt>
      <trkpt lat="47.24264" lon="-1.66932">
        <ele>107</ele>
        <time>2021-06-12T07:55:08.000Z</time>
      </trkpt>
      <trkpt lat="47.24268" lon="-1.6691">
        <ele>106</ele>
        <time>2021-06-12T07:55:11.000Z</time>
      </trkpt>
      <trkpt lat="47.24271" lon="-1.66895">
        <ele>106</ele>
        <time>2021-06-12T07:55:13.000Z</time>
      </trkpt>
      <trkpt lat="47.24276" lon="-1.6687">
        <ele>107</ele>
        <time>2021-06-12T07:55:16.000Z</time>
      </trkpt>
      <trkpt lat="47.24282" lon="-1.66855">
        <ele>106</ele>
        <time>2021-06-12T07:55:18.000Z</time>
      </trkpt>
      <trkpt lat="47.24287" lon="-1.66837">
        <ele>106</ele>
        <time>2021-06-12T07:55:20.000Z</time>
      </trkpt>
      <trkpt lat="47.24292" lon="-1.66821">
        <ele>106</ele>
        <time>2021-06-12T07:55:22.000Z</time>
      </trkpt>
      <trkpt lat="47.2431" lon="-1.66813">
        <ele>106</ele>
        <time>2021-06-12T07:55:25.000Z</time>
      </trkpt>
      <trkpt lat="47.2432" lon="-1.66824">
        <ele>105</ele>
        <time>2021-06-12T07:55:27.000Z</time>
      </trkpt>
      <trkpt lat="47.24337" lon="-1.66843">
        <ele>103</ele>
        <time>2021-06-12T07:55:30.000Z</time>
      </trkpt>
      <trkpt lat="47.24349" lon="-1.66852">
        <ele>104</ele>
        <time>2021-06-12T07:55:32.000Z</time>
      </trkpt>
      <trkpt lat="47.2436" lon="-1.66862">
        <ele>103</ele>
        <time>2021-06-12T07:55:34.000Z</time>
      </trkpt>
      <trkpt lat="47.24371" lon="-1.66874">
        <ele>103</ele>
        <time>2021-06-12T07:55:36.000Z</time>
      </trkpt>
      <trkpt lat="47.24382" lon="-1.66887">
        <ele>103</ele>
        <time>2021-06-12T07:55:38.000Z</time>
      </trkpt>
      <trkpt lat="47.24394" lon="-1.66901">
        <ele>102</ele>
        <time>2021-06-12T07:55:40.000Z</time>
      </trkpt>
      <trkpt lat="47.24405" lon="-1.66915">
        <ele>102</ele>
        <time>2021-06-12T07:55:42.000Z</time>
      </trkpt>
      <trkpt lat="47.24417" lon="-1.66929">
        <ele>102</ele>
        <time>2021-06-12T07:55:44.000Z</time>
      </trkpt>
      <trkpt lat="47.24427" lon="-1.66945">
        <ele>101</ele>
        <time>2021-06-12T07:55:46.000Z</time>
      </trkpt>
      <trkpt lat="47.24435" lon="-1.66962">
        <ele>101</ele>
        <time>2021-06-12T07:55:48.000Z</time>
      </trkpt>
      <trkpt lat="47.24446" lon="-1.66973">
        <ele>101</ele>
        <time>2021-06-12T07:55:50.000Z</time>
      </trkpt>
      <trkpt lat="47.24456" lon="-1.66985">
        <ele>101</ele>
        <time>2021-06-12T07:55:52.000Z</time>
      </trkpt>
      <trkpt lat="47.24467" lon="-1.66997">
        <ele>100</ele>
        <time>2021-06-12T07:55:54.000Z</time>
      </trkpt>
      <trkpt lat="47.24479" lon="-1.67005">
        <ele>100</ele>
        <time>2021-06-12T07:55:56.000Z</time>
      </trkpt>
      <trkpt lat="47.24491" lon="-1.67012">
        <ele>100</ele>
        <time>2021-06-12T07:55:58.000Z</time>
      </trkpt>
      <trkpt lat="47.24504" lon="-1.67019">
        <ele>100</ele>
        <time>2021-06-12T07:56:00.000Z</time>
      </trkpt>
      <trkpt lat="47.24515" lon="-1.67025">
        <ele>101</ele>
        <time>2021-06-12T07:56:02.000Z</time>
      </trkpt>
      <trkpt lat="47.24527" lon="-1.6703">
        <ele>101</ele>
        <time>2021-06-12T07:56:04.000Z</time>
      </trkpt>
      <trkpt lat="47.2454" lon="-1.67032">
        <ele>101</ele>
        <time>2021-06-12T07:56:06.000Z</time>
      </trkpt>
      <trkpt lat="47.24553" lon="-1.67033">
        <ele>102</ele>
        <time>2021-06-12T07:56:08.000Z</time>
      </trkpt>
      <trkpt lat="47.24565" lon="-1.67033">
        <ele>102</ele>
        <time>2021-06-12T07:56:10.000Z</time>
      </trkpt>
      <trkpt lat="47.24578" lon="-1.67031">
        <ele>102</ele>
        <time>2021-06-12T07:56:12.000Z</time>
      </trkpt>
      <trkpt lat="47.2459" lon="-1.67028">
        <ele>102</ele>
        <time>2021-06-12T07:56:14.000Z</time>
      </trkpt>
      <trkpt lat="47.24603" lon="-1.67024">
        <ele>102</ele>
        <time>2021-06-12T07:56:16.000Z</time>
      </trkpt>
      <trkpt lat="47.24616" lon="-1.67019">
        <ele>102</ele>
        <time>2021-06-12T07:56:18.000Z</time>
      </trkpt>
      <trkpt lat="47.24628" lon="-1.67014">
        <ele>101</ele>
        <time>2021-06-12T07:56:20.000Z</time>
      </trkpt>
      <trkpt lat="47.2464" lon="-1.67008">
        <ele>101</ele>
        <time>2021-06-12T07:56:22.000Z</time>
      </trkpt>
      <trkpt lat="47.24652" lon="-1.67001">
        <ele>101</ele>
        <time>2021-06-12T07:56:24.000Z</time>
      </trkpt>
      <trkpt lat="47.24663" lon="-1.66993">
        <ele>101</ele>
        <time>2021-06-12T07:56:26.000Z</time>
      </trkpt>
      <trkpt lat="47.24673" lon="-1.66982">
        <ele>101</ele>
        <time>2021-06-12T07:56:28.000Z</time>
      </trkpt>
      <trkpt lat="47.24684" lon="-1.66968">
        <ele>101</ele>
        <time>2021-06-12T07:56:30.000Z</time>
      </trkpt>
      <trkpt lat="47.24694" lon="-1.66955">
        <ele>101</ele>
        <time>2021-06-12T07:56:32.000Z</time>
      </trkpt>
      <trkpt lat="47.24703" lon="-1.66941">
        <ele>101</ele>
        <time>2021-06-12T07:56:34.000Z</time>
      </trkpt>
      <trkpt lat="47.24719" lon="-1.66925">
        <ele>101</ele>
        <time>2021-06-12T07:56:37.000Z</time>
      </trkpt>
      <trkpt lat="47.24731" lon="-1.66917">
        <ele>101</ele>
        <time>2021-06-12T07:56:39.000Z</time>
      </trkpt>
      <trkpt lat="47.24743" lon="-1.66911">
        <ele>101</ele>
        <time>2021-06-12T07:56:41.000Z</time>
      </trkpt>
      <trkpt lat="47.24755" lon="-1.66904">
        <ele>101</ele>
        <time>2021-06-12T07:56:43.000Z</time>
      </trkpt>
      <trkpt lat="47.24766" lon="-1.66897">
        <ele>100</ele>
        <time>2021-06-12T07:56:45.000Z</time>
      </trkpt>
      <trkpt lat="47.24778" lon="-1.66889">
        <ele>100</ele>
        <time>2021-06-12T07:56:47.000Z</time>
      </trkpt>
      <trkpt lat="47.2479" lon="-1.66879">
        <ele>100</ele>
        <time>2021-06-12T07:56:49.000Z</time>
      </trkpt>
      <trkpt lat="47.24801" lon="-1.66869">
        <ele>100</ele>
        <time>2021-06-12T07:56:51.000Z</time>
      </trkpt>
      <trkpt lat="47.24816" lon="-1.66854">
        <ele>100</ele>
        <time>2021-06-12T07:56:54.000Z</time>
      </trkpt>
      <trkpt lat="47.24828" lon="-1.66847">
        <ele>100</ele>
        <time>2021-06-12T07:56:56.000Z</time>
      </trkpt>
      <trkpt lat="47.24841" lon="-1.66843">
        <ele>100</ele>
        <time>2021-06-12T07:56:58.000Z</time>
      </trkpt>
      <trkpt lat="47.24853" lon="-1.66838">
        <ele>100</ele>
        <time>2021-06-12T07:57:00.000Z</time>
      </trkpt>
      <trkpt lat="47.24866" lon="-1.66834">
        <ele>99</ele>
        <time>2021-06-12T07:57:02.000Z</time>
      </trkpt>
      <trkpt lat="47.24879" lon="-1.66831">
        <ele>99</ele>
        <time>2021-06-12T07:57:04.000Z</time>
      </trkpt>
      <trkpt lat="47.24892" lon="-1.66827">
        <ele>99</ele>
        <time>2021-06-12T07:57:06.000Z</time>
      </trkpt>
      <trkpt lat="47.24905" lon="-1.66822">
        <ele>99</ele>
        <time>2021-06-12T07:57:08.000Z</time>
      </trkpt>
      <trkpt lat="47.24918" lon="-1.66818">
        <ele>99</ele>
        <time>2021-06-12T07:57:10.000Z</time>
      </trkpt>
      <trkpt lat="47.24932" lon="-1.66815">
        <ele>99</ele>
        <time>2021-06-12T07:57:12.000Z</time>
      </trkpt>
      <trkpt lat="47.24945" lon="-1.6681">
        <ele>99</ele>
        <time>2021-06-12T07:57:14.000Z</time>
      </trkpt>
      <trkpt lat="47.24965" lon="-1.66804">
        <ele>100</ele>
        <time>2021-06-12T07:57:17.000Z</time>
      </trkpt>
      <trkpt lat="47.24978" lon="-1.668">
        <ele>99</ele>
        <time>2021-06-12T07:57:19.000Z</time>
      </trkpt>
      <trkpt lat="47.24991" lon="-1.66797">
        <ele>99</ele>
        <time>2021-06-12T07:57:21.000Z</time>
      </trkpt>
      <trkpt lat="47.25005" lon="-1.66793">
        <ele>99</ele>
        <time>2021-06-12T07:57:23.000Z</time>
      </trkpt>
      <trkpt lat="47.25018" lon="-1.66792">
        <ele>99</ele>
        <time>2021-06-12T07:57:25.000Z</time>
      </trkpt>
      <trkpt lat="47.25031" lon="-1.6679">
        <ele>98</ele>
        <time>2021-06-12T07:57:27.000Z</time>
      </trkpt>
      <trkpt lat="47.25044" lon="-1.6679">
        <ele>98</ele>
        <time>2021-06-12T07:57:29.000Z</time>
      </trkpt>
      <trkpt lat="47.25058" lon="-1.66791">
        <ele>98</ele>
        <time>2021-06-12T07:57:31.000Z</time>
      </trkpt>
      <trkpt lat="47.25072" lon="-1.66792">
        <ele>98</ele>
        <time>2021-06-12T07:57:33.000Z</time>
      </trkpt>
      <trkpt lat="47.25085" lon="-1.66795">
        <ele>97</ele>
        <time>2021-06-12T07:57:35.000Z</time>
      </trkpt>
      <trkpt lat="47.251" lon="-1.66798">
        <ele>97</ele>
        <time>2021-06-12T07:57:37.000Z</time>
      </trkpt>
      <trkpt lat="47.25115" lon="-1.66803">
        <ele>97</ele>
        <time>2021-06-12T07:57:39.000Z</time>
      </trkpt>
      <trkpt lat="47.25131" lon="-1.66808">
        <ele>95</ele>
        <time>2021-06-12T07:57:41.000Z</time>
      </trkpt>
      <trkpt lat="47.25148" lon="-1.66815">
        <ele>94</ele>
        <time>2021-06-12T07:57:43.000Z</time>
      </trkpt>
      <trkpt lat="47.25164" lon="-1.66821">
        <ele>94</ele>
        <time>2021-06-12T07:57:45.000Z</time>
      </trkpt>
      <trkpt lat="47.25181" lon="-1.66826">
        <ele>93</ele>
        <time>2021-06-12T07:57:47.000Z</time>
      </trkpt>
      <trkpt lat="47.25196" lon="-1.66829">
        <ele>93</ele>
        <time>2021-06-12T07:57:49.000Z</time>
      </trkpt>
      <trkpt lat="47.2521" lon="-1.66832">
        <ele>93</ele>
        <time>2021-06-12T07:57:51.000Z</time>
      </trkpt>
      <trkpt lat="47.25224" lon="-1.66835">
        <ele>93</ele>
        <time>2021-06-12T07:57:53.000Z</time>
      </trkpt>
      <trkpt lat="47.25236" lon="-1.66836">
        <ele>93</ele>
        <time>2021-06-12T07:57:55.000Z</time>
      </trkpt>
      <trkpt lat="47.25248" lon="-1.66838">
        <ele>94</ele>
        <time>2021-06-12T07:57:57.000Z</time>
      </trkpt>
      <trkpt lat="47.25259" lon="-1.6684">
        <ele>94</ele>
        <time>2021-06-12T07:57:59.000Z</time>
      </trkpt>
      <trkpt lat="47.2527" lon="-1.66841">
        <ele>95</ele>
        <time>2021-06-12T07:58:01.000Z</time>
      </trkpt>
      <trkpt lat="47.25282" lon="-1.66844">
        <ele>95</ele>
        <time>2021-06-12T07:58:03.000Z</time>
      </trkpt>
      <trkpt lat="47.25294" lon="-1.66845">
        <ele>96</ele>
        <time>2021-06-12T07:58:05.000Z</time>
      </trkpt>
      <trkpt lat="47.25306" lon="-1.66847">
        <ele>96</ele>
        <time>2021-06-12T07:58:07.000Z</time>
      </trkpt>
      <trkpt lat="47.25319" lon="-1.66849">
        <ele>97</ele>
        <time>2021-06-12T07:58:09.000Z</time>
      </trkpt>
      <trkpt lat="47.25331" lon="-1.6685">
        <ele>98</ele>
        <time>2021-06-12T07:58:11.000Z</time>
      </trkpt>
      <trkpt lat="47.25343" lon="-1.66853">
        <ele>98</ele>
        <time>2021-06-12T07:58:13.000Z</time>
      </trkpt>
      <trkpt lat="47.25355" lon="-1.66854">
        <ele>99</ele>
        <time>2021-06-12T07:58:15.000Z</time>
      </trkpt>
      <trkpt lat="47.25367" lon="-1.66856">
        <ele>99</ele>
        <time>2021-06-12T07:58:17.000Z</time>
      </trkpt>
      <trkpt lat="47.2538" lon="-1.66858">
        <ele>99</ele>
        <time>2021-06-12T07:58:19.000Z</time>
      </trkpt>
      <trkpt lat="47.25392" lon="-1.6686">
        <ele>99</ele>
        <time>2021-06-12T07:58:21.000Z</time>
      </trkpt>
      <trkpt lat="47.25404" lon="-1.66862">
        <ele>99</ele>
        <time>2021-06-12T07:58:23.000Z</time>
      </trkpt>
      <trkpt lat="47.25416" lon="-1.66863">
        <ele>100</ele>
        <time>2021-06-12T07:58:25.000Z</time>
      </trkpt>
      <trkpt lat="47.25428" lon="-1.66864">
        <ele>100</ele>
        <time>2021-06-12T07:58:27.000Z</time>
      </trkpt>
      <trkpt lat="47.2544" lon="-1.66866">
        <ele>101</ele>
        <time>2021-06-12T07:58:29.000Z</time>
      </trkpt>
      <trkpt lat="47.25452" lon="-1.66868">
        <ele>101</ele>
        <time>2021-06-12T07:58:31.000Z</time>
      </trkpt>
      <trkpt lat="47.25464" lon="-1.66871">
        <ele>101</ele>
        <time>2021-06-12T07:58:33.000Z</time>
      </trkpt>
      <trkpt lat="47.25476" lon="-1.66872">
        <ele>101</ele>
        <time>2021-06-12T07:58:35.000Z</time>
      </trkpt>
      <trkpt lat="47.25488" lon="-1.66874">
        <ele>102</ele>
        <time>2021-06-12T07:58:37.000Z</time>
      </trkpt>
      <trkpt lat="47.255" lon="-1.66875">
        <ele>102</ele>
        <time>2021-06-12T07:58:39.000Z</time>
      </trkpt>
      <trkpt lat="47.25511" lon="-1.66876">
        <ele>102</ele>
        <time>2021-06-12T07:58:41.000Z</time>
      </trkpt>
      <trkpt lat="47.25523" lon="-1.66874">
        <ele>103</ele>
        <time>2021-06-12T07:58:43.000Z</time>
      </trkpt>
      <trkpt lat="47.25534" lon="-1.66876">
        <ele>103</ele>
        <time>2021-06-12T07:58:45.000Z</time>
      </trkpt>
      <trkpt lat="47.25546" lon="-1.66881">
        <ele>104</ele>
        <time>2021-06-12T07:58:47.000Z</time>
      </trkpt>
      <trkpt lat="47.25557" lon="-1.66882">
        <ele>104</ele>
        <time>2021-06-12T07:58:49.000Z</time>
      </trkpt>
      <trkpt lat="47.2557" lon="-1.66882">
        <ele>105</ele>
        <time>2021-06-12T07:58:51.000Z</time>
      </trkpt>
      <trkpt lat="47.25582" lon="-1.66882">
        <ele>105</ele>
        <time>2021-06-12T07:58:53.000Z</time>
      </trkpt>
      <trkpt lat="47.25593" lon="-1.66883">
        <ele>104</ele>
        <time>2021-06-12T07:58:55.000Z</time>
      </trkpt>
      <trkpt lat="47.25605" lon="-1.66884">
        <ele>105</ele>
        <time>2021-06-12T07:58:57.000Z</time>
      </trkpt>
      <trkpt lat="47.25617" lon="-1.66886">
        <ele>105</ele>
        <time>2021-06-12T07:58:59.000Z</time>
      </trkpt>
      <trkpt lat="47.25629" lon="-1.66887">
        <ele>106</ele>
        <time>2021-06-12T07:59:01.000Z</time>
      </trkpt>
      <trkpt lat="47.25642" lon="-1.66889">
        <ele>106</ele>
        <time>2021-06-12T07:59:03.000Z</time>
      </trkpt>
      <trkpt lat="47.25653" lon="-1.6689">
        <ele>106</ele>
        <time>2021-06-12T07:59:05.000Z</time>
      </trkpt>
      <trkpt lat="47.25665" lon="-1.6689">
        <ele>106</ele>
        <time>2021-06-12T07:59:07.000Z</time>
      </trkpt>
      <trkpt lat="47.25677" lon="-1.66889">
        <ele>105</ele>
        <time>2021-06-12T07:59:09.000Z</time>
      </trkpt>
      <trkpt lat="47.25687" lon="-1.66884">
        <ele>105</ele>
        <time>2021-06-12T07:59:11.000Z</time>
      </trkpt>
      <trkpt lat="47.25699" lon="-1.66885">
        <ele>105</ele>
        <time>2021-06-12T07:59:13.000Z</time>
      </trkpt>
      <trkpt lat="47.25711" lon="-1.66891">
        <ele>105</ele>
        <time>2021-06-12T07:59:15.000Z</time>
      </trkpt>
      <trkpt lat="47.25723" lon="-1.66894">
        <ele>106</ele>
        <time>2021-06-12T07:59:17.000Z</time>
      </trkpt>
      <trkpt lat="47.25735" lon="-1.66896">
        <ele>106</ele>
        <time>2021-06-12T07:59:19.000Z</time>
      </trkpt>
      <trkpt lat="47.25747" lon="-1.66897">
        <ele>106</ele>
        <time>2021-06-12T07:59:21.000Z</time>
      </trkpt>
      <trkpt lat="47.25759" lon="-1.66898">
        <ele>106</ele>
        <time>2021-06-12T07:59:23.000Z</time>
      </trkpt>
      <trkpt lat="47.25771" lon="-1.66899">
        <ele>106</ele>
        <time>2021-06-12T07:59:25.000Z</time>
      </trkpt>
      <trkpt lat="47.25782" lon="-1.66901">
        <ele>106</ele>
        <time>2021-06-12T07:59:27.000Z</time>
      </trkpt>
      <trkpt lat="47.25792" lon="-1.66903">
        <ele>107</ele>
        <time>2021-06-12T07:59:29.000Z</time>
      </trkpt>
      <trkpt lat="47.25803" lon="-1.66906">
        <ele>107</ele>
        <time>2021-06-12T07:59:31.000Z</time>
      </trkpt>
      <trkpt lat="47.25814" lon="-1.66909">
        <ele>107</ele>
        <time>2021-06-12T07:59:33.000Z</time>
      </trkpt>
      <trkpt lat="47.25825" lon="-1.66911">
        <ele>108</ele>
        <time>2021-06-12T07:59:35.000Z</time>
      </trkpt>
      <trkpt lat="47.25837" lon="-1.66914">
        <ele>108</ele>
        <time>2021-06-12T07:59:37.000Z</time>
      </trkpt>
      <trkpt lat="47.25848" lon="-1.66917">
        <ele>108</ele>
        <time>2021-06-12T07:59:39.000Z</time>
      </trkpt>
      <trkpt lat="47.2586" lon="-1.6692">
        <ele>108</ele>
        <time>2021-06-12T07:59:41.000Z</time>
      </trkpt>
      <trkpt lat="47.25871" lon="-1.66923">
        <ele>109</ele>
        <time>2021-06-12T07:59:43.000Z</time>
      </trkpt>
      <trkpt lat="47.25883" lon="-1.66927">
        <ele>109</ele>
        <time>2021-06-12T07:59:45.000Z</time>
      </trkpt>
      <trkpt lat="47.25894" lon="-1.66931">
        <ele>109</ele>
        <time>2021-06-12T07:59:47.000Z</time>
      </trkpt>
      <trkpt lat="47.25906" lon="-1.66936">
        <ele>110</ele>
        <time>2021-06-12T07:59:49.000Z</time>
      </trkpt>
      <trkpt lat="47.25917" lon="-1.66941">
        <ele>110</ele>
        <time>2021-06-12T07:59:51.000Z</time>
      </trkpt>
      <trkpt lat="47.25929" lon="-1.66945">
        <ele>111</ele>
        <time>2021-06-12T07:59:53.000Z</time>
      </trkpt>
      <trkpt lat="47.25941" lon="-1.6695">
        <ele>111</ele>
        <time>2021-06-12T07:59:55.000Z</time>
      </trkpt>
      <trkpt lat="47.25953" lon="-1.66954">
        <ele>111</ele>
        <time>2021-06-12T07:59:57.000Z</time>
      </trkpt>
      <trkpt lat="47.25965" lon="-1.6696">
        <ele>112</ele>
        <time>2021-06-12T07:59:59.000Z</time>
      </trkpt>
      <trkpt lat="47.25976" lon="-1.66966">
        <ele>112</ele>
        <time>2021-06-12T08:00:01.000Z</time>
      </trkpt>
      <trkpt lat="47.25988" lon="-1.66972">
        <ele>112</ele>
        <time>2021-06-12T08:00:03.000Z</time>
      </trkpt>
      <trkpt lat="47.26" lon="-1.66977">
        <ele>112</ele>
        <time>2021-06-12T08:00:05.000Z</time>
      </trkpt>
      <trkpt lat="47.26012" lon="-1.66982">
        <ele>113</ele>
        <time>2021-06-12T08:00:07.000Z</time>
      </trkpt>
      <trkpt lat="47.26024" lon="-1.66986">
        <ele>113</ele>
        <time>2021-06-12T08:00:09.000Z</time>
      </trkpt>
      <trkpt lat="47.26035" lon="-1.66992">
        <ele>113</ele>
        <time>2021-06-12T08:00:11.000Z</time>
      </trkpt>
      <trkpt lat="47.26046" lon="-1.66997">
        <ele>114</ele>
        <time>2021-06-12T08:00:13.000Z</time>
      </trkpt>
      <trkpt lat="47.26058" lon="-1.67002">
        <ele>114</ele>
        <time>2021-06-12T08:00:15.000Z</time>
      </trkpt>
      <trkpt lat="47.26069" lon="-1.67007">
        <ele>114</ele>
        <time>2021-06-12T08:00:17.000Z</time>
      </trkpt>
      <trkpt lat="47.26081" lon="-1.67013">
        <ele>114</ele>
        <time>2021-06-12T08:00:19.000Z</time>
      </trkpt>
      <trkpt lat="47.26092" lon="-1.67017">
        <ele>115</ele>
        <time>2021-06-12T08:00:21.000Z</time>
      </trkpt>
      <trkpt lat="47.26104" lon="-1.67022">
        <ele>115</ele>
        <time>2021-06-12T08:00:23.000Z</time>
      </trkpt>
      <trkpt lat="47.26115" lon="-1.67027">
        <ele>116</ele>
        <time>2021-06-12T08:00:25.000Z</time>
      </trkpt>
      <trkpt lat="47.26126" lon="-1.67032">
        <ele>117</ele>
        <time>2021-06-12T08:00:27.000Z</time>
      </trkpt>
      <trkpt lat="47.26138" lon="-1.67038">
        <ele>117</ele>
        <time>2021-06-12T08:00:29.000Z</time>
      </trkpt>
      <trkpt lat="47.26149" lon="-1.67043">
        <ele>117</ele>
        <time>2021-06-12T08:00:31.000Z</time>
      </trkpt>
      <trkpt lat="47.2616" lon="-1.67048">
        <ele>117</ele>
        <time>2021-06-12T08:00:33.000Z</time>
      </trkpt>
      <trkpt lat="47.26171" lon="-1.67053">
        <ele>117</ele>
        <time>2021-06-12T08:00:35.000Z</time>
      </trkpt>
      <trkpt lat="47.2618" lon="-1.67059">
        <ele>118</ele>
        <time>2021-06-12T08:00:37.000Z</time>
      </trkpt>
      <trkpt lat="47.2619" lon="-1.67062">
        <ele>118</ele>
        <time>2021-06-12T08:00:39.000Z</time>
      </trkpt>
      <trkpt lat="47.262" lon="-1.67063">
        <ele>119</ele>
        <time>2021-06-12T08:00:41.000Z</time>
      </trkpt>
      <trkpt lat="47.26208" lon="-1.67073">
        <ele>118</ele>
        <time>2021-06-12T08:00:43.000Z</time>
      </trkpt>
      <trkpt lat="47.26211" lon="-1.67086">
        <ele>118</ele>
        <time>2021-06-12T08:00:45.000Z</time>
      </trkpt>
      <trkpt lat="47.26213" lon="-1.67102">
        <ele>118</ele>
        <time>2021-06-12T08:00:47.000Z</time>
      </trkpt>
      <trkpt lat="47.26217" lon="-1.67116">
        <ele>118</ele>
        <time>2021-06-12T08:00:49.000Z</time>
      </trkpt>
      <trkpt lat="47.26221" lon="-1.67131">
        <ele>119</ele>
        <time>2021-06-12T08:00:51.000Z</time>
      </trkpt>
      <trkpt lat="47.26224" lon="-1.67146">
        <ele>120</ele>
        <time>2021-06-12T08:00:53.000Z</time>
      </trkpt>
      <trkpt lat="47.26227" lon="-1.67162">
        <ele>120</ele>
        <time>2021-06-12T08:00:55.000Z</time>
      </trkpt>
      <trkpt lat="47.26229" lon="-1.67179">
        <ele>120</ele>
        <time>2021-06-12T08:00:57.000Z</time>
      </trkpt>
      <trkpt lat="47.26233" lon="-1.67196">
        <ele>120</ele>
        <time>2021-06-12T08:00:59.000Z</time>
      </trkpt>
      <trkpt lat="47.26236" lon="-1.67211">
        <ele>120</ele>
        <time>2021-06-12T08:01:01.000Z</time>
      </trkpt>
      <trkpt lat="47.26239" lon="-1.67227">
        <ele>120</ele>
        <time>2021-06-12T08:01:03.000Z</time>
      </trkpt>
      <trkpt lat="47.26244" lon="-1.67239">
        <ele>121</ele>
        <time>2021-06-12T08:01:05.000Z</time>
      </trkpt>
      <trkpt lat="47.26259" lon="-1.67238">
        <ele>123</ele>
        <time>2021-06-12T08:01:08.000Z</time>
      </trkpt>
      <trkpt lat="47.26272" lon="-1.67235">
        <ele>123</ele>
        <time>2021-06-12T08:01:10.000Z</time>
      </trkpt>
      <trkpt lat="47.26283" lon="-1.67234">
        <ele>123</ele>
        <time>2021-06-12T08:01:12.000Z</time>
      </trkpt>
      <trkpt lat="47.26294" lon="-1.6723">
        <ele>123</ele>
        <time>2021-06-12T08:01:14.000Z</time>
      </trkpt>
      <trkpt lat="47.26306" lon="-1.67225">
        <ele>123</ele>
        <time>2021-06-12T08:01:16.000Z</time>
      </trkpt>
      <trkpt lat="47.26319" lon="-1.67221">
        <ele>123</ele>
        <time>2021-06-12T08:01:18.000Z</time>
      </trkpt>
      <trkpt lat="47.26331" lon="-1.67218">
        <ele>122</ele>
        <time>2021-06-12T08:01:20.000Z</time>
      </trkpt>
      <trkpt lat="47.26342" lon="-1.67216">
        <ele>122</ele>
        <time>2021-06-12T08:01:22.000Z</time>
      </trkpt>
      <trkpt lat="47.26351" lon="-1.67227">
        <ele>121</ele>
        <time>2021-06-12T08:01:24.000Z</time>
      </trkpt>
      <trkpt lat="47.26356" lon="-1.67244">
        <ele>120</ele>
        <time>2021-06-12T08:01:26.000Z</time>
      </trkpt>
      <trkpt lat="47.2636" lon="-1.67262">
        <ele>120</ele>
        <time>2021-06-12T08:01:28.000Z</time>
      </trkpt>
      <trkpt lat="47.26364" lon="-1.67278">
        <ele>120</ele>
        <time>2021-06-12T08:01:30.000Z</time>
      </trkpt>
      <trkpt lat="47.26371" lon="-1.67289">
        <ele>120</ele>
        <time>2021-06-12T08:01:32.000Z</time>
      </trkpt>
      <trkpt lat="47.26383" lon="-1.67293">
        <ele>120</ele>
        <time>2021-06-12T08:01:34.000Z</time>
      </trkpt>
      <trkpt lat="47.26395" lon="-1.67296">
        <ele>120</ele>
        <time>2021-06-12T08:01:36.000Z</time>
      </trkpt>
      <trkpt lat="47.26406" lon="-1.673">
        <ele>120</ele>
        <time>2021-06-12T08:01:38.000Z</time>
      </trkpt>
      <trkpt lat="47.26417" lon="-1.67305">
        <ele>119</ele>
        <time>2021-06-12T08:01:40.000Z</time>
      </trkpt>
      <trkpt lat="47.26428" lon="-1.67311">
        <ele>119</ele>
        <time>2021-06-12T08:01:42.000Z</time>
      </trkpt>
      <trkpt lat="47.26439" lon="-1.67315">
        <ele>118</ele>
        <time>2021-06-12T08:01:44.000Z</time>
      </trkpt>
      <trkpt lat="47.2645" lon="-1.67309">
        <ele>117</ele>
        <time>2021-06-12T08:01:46.000Z</time>
      </trkpt>
      <trkpt lat="47.26456" lon="-1.67293">
        <ele>117</ele>
        <time>2021-06-12T08:01:48.000Z</time>
      </trkpt>
      <trkpt lat="47.26462" lon="-1.67278">
        <ele>117</ele>
        <time>2021-06-12T08:01:50.000Z</time>
      </trkpt>
      <trkpt lat="47.26469" lon="-1.67262">
        <ele>116</ele>
        <time>2021-06-12T08:01:52.000Z</time>
      </trkpt>
      <trkpt lat="47.26475" lon="-1.67247">
        <ele>116</ele>
        <time>2021-06-12T08:01:54.000Z</time>
      </trkpt>
      <trkpt lat="47.26482" lon="-1.6723">
        <ele>115</ele>
        <time>2021-06-12T08:01:56.000Z</time>
      </trkpt>
      <trkpt lat="47.26489" lon="-1.67214">
        <ele>114</ele>
        <time>2021-06-12T08:01:58.000Z</time>
      </trkpt>
      <trkpt lat="47.26497" lon="-1.67196">
        <ele>113</ele>
        <time>2021-06-12T08:02:00.000Z</time>
      </trkpt>
      <trkpt lat="47.26507" lon="-1.6718">
        <ele>113</ele>
        <time>2021-06-12T08:02:02.000Z</time>
      </trkpt>
      <trkpt lat="47.26518" lon="-1.67164">
        <ele>111</ele>
        <time>2021-06-12T08:02:04.000Z</time>
      </trkpt>
      <trkpt lat="47.26531" lon="-1.67149">
        <ele>111</ele>
        <time>2021-06-12T08:02:06.000Z</time>
      </trkpt>
      <trkpt lat="47.26544" lon="-1.67136">
        <ele>110</ele>
        <time>2021-06-12T08:02:08.000Z</time>
      </trkpt>
      <trkpt lat="47.26558" lon="-1.67125">
        <ele>109</ele>
        <time>2021-06-12T08:02:10.000Z</time>
      </trkpt>
      <trkpt lat="47.26572" lon="-1.67115">
        <ele>109</ele>
        <time>2021-06-12T08:02:12.000Z</time>
      </trkpt>
      <trkpt lat="47.26587" lon="-1.67104">
        <ele>108</ele>
        <time>2021-06-12T08:02:14.000Z</time>
      </trkpt>
      <trkpt lat="47.26603" lon="-1.67091">
        <ele>107</ele>
        <time>2021-06-12T08:02:16.000Z</time>
      </trkpt>
      <trkpt lat="47.2662" lon="-1.67082">
        <ele>106</ele>
        <time>2021-06-12T08:02:18.000Z</time>
      </trkpt>
      <trkpt lat="47.26636" lon="-1.67071">
        <ele>105</ele>
        <time>2021-06-12T08:02:20.000Z</time>
      </trkpt>
      <trkpt lat="47.26645" lon="-1.67065">
        <ele>104</ele>
        <time>2021-06-12T08:02:21.000Z</time>
      </trkpt>
      <trkpt lat="47.26653" lon="-1.67059">
        <ele>103</ele>
        <time>2021-06-12T08:02:22.000Z</time>
      </trkpt>
      <trkpt lat="47.26662" lon="-1.67054">
        <ele>103</ele>
        <time>2021-06-12T08:02:23.000Z</time>
      </trkpt>
      <trkpt lat="47.2667" lon="-1.67048">
        <ele>102</ele>
        <time>2021-06-12T08:02:24.000Z</time>
      </trkpt>
      <trkpt lat="47.26679" lon="-1.67043">
        <ele>101</ele>
        <time>2021-06-12T08:02:25.000Z</time>
      </trkpt>
      <trkpt lat="47.26687" lon="-1.67038">
        <ele>101</ele>
        <time>2021-06-12T08:02:26.000Z</time>
      </trkpt>
      <trkpt lat="47.26695" lon="-1.67032">
        <ele>100</ele>
        <time>2021-06-12T08:02:27.000Z</time>
      </trkpt>
      <trkpt lat="47.26704" lon="-1.67026">
        <ele>100</ele>
        <time>2021-06-12T08:02:28.000Z</time>
      </trkpt>
      <trkpt lat="47.2672" lon="-1.67016">
        <ele>99</ele>
        <time>2021-06-12T08:02:30.000Z</time>
      </trkpt>
      <trkpt lat="47.26737" lon="-1.67009">
        <ele>99</ele>
        <time>2021-06-12T08:02:32.000Z</time>
      </trkpt>
      <trkpt lat="47.26746" lon="-1.67007">
        <ele>99</ele>
        <time>2021-06-12T08:02:33.000Z</time>
      </trkpt>
      <trkpt lat="47.26756" lon="-1.67009">
        <ele>99</ele>
        <time>2021-06-12T08:02:34.000Z</time>
      </trkpt>
      <trkpt lat="47.26765" lon="-1.67012">
        <ele>98</ele>
        <time>2021-06-12T08:02:35.000Z</time>
      </trkpt>
      <trkpt lat="47.26782" lon="-1.67023">
        <ele>98</ele>
        <time>2021-06-12T08:02:37.000Z</time>
      </trkpt>
      <trkpt lat="47.26789" lon="-1.67031">
        <ele>97</ele>
        <time>2021-06-12T08:02:38.000Z</time>
      </trkpt>
      <trkpt lat="47.26797" lon="-1.6704">
        <ele>97</ele>
        <time>2021-06-12T08:02:39.000Z</time>
      </trkpt>
      <trkpt lat="47.26804" lon="-1.6705">
        <ele>96</ele>
        <time>2021-06-12T08:02:40.000Z</time>
      </trkpt>
      <trkpt lat="47.26811" lon="-1.6706">
        <ele>96</ele>
        <time>2021-06-12T08:02:41.000Z</time>
      </trkpt>
      <trkpt lat="47.26817" lon="-1.67071">
        <ele>94</ele>
        <time>2021-06-12T08:02:42.000Z</time>
      </trkpt>
      <trkpt lat="47.26822" lon="-1.67083">
        <ele>94</ele>
        <time>2021-06-12T08:02:43.000Z</time>
      </trkpt>
      <trkpt lat="47.26829" lon="-1.67093">
        <ele>93</ele>
        <time>2021-06-12T08:02:44.000Z</time>
      </trkpt>
      <trkpt lat="47.26837" lon="-1.67101">
        <ele>93</ele>
        <time>2021-06-12T08:02:45.000Z</time>
      </trkpt>
      <trkpt lat="47.26845" lon="-1.67109">
        <ele>92</ele>
        <time>2021-06-12T08:02:46.000Z</time>
      </trkpt>
      <trkpt lat="47.26852" lon="-1.67118">
        <ele>92</ele>
        <time>2021-06-12T08:02:47.000Z</time>
      </trkpt>
      <trkpt lat="47.26859" lon="-1.67128">
        <ele>92</ele>
        <time>2021-06-12T08:02:48.000Z</time>
      </trkpt>
      <trkpt lat="47.26866" lon="-1.67138">
        <ele>92</ele>
        <time>2021-06-12T08:02:49.000Z</time>
      </trkpt>
      <trkpt lat="47.26873" lon="-1.67146">
        <ele>92</ele>
        <time>2021-06-12T08:02:50.000Z</time>
      </trkpt>
      <trkpt lat="47.26888" lon="-1.67159">
        <ele>93</ele>
        <time>2021-06-12T08:02:52.000Z</time>
      </trkpt>
      <trkpt lat="47.26902" lon="-1.67162">
        <ele>93</ele>
        <time>2021-06-12T08:02:54.000Z</time>
      </trkpt>
      <trkpt lat="47.26915" lon="-1.6716">
        <ele>93</ele>
        <time>2021-06-12T08:02:56.000Z</time>
      </trkpt>
      <trkpt lat="47.26925" lon="-1.67155">
        <ele>93</ele>
        <time>2021-06-12T08:02:58.000Z</time>
      </trkpt>
      <trkpt lat="47.26935" lon="-1.6715">
        <ele>94</ele>
        <time>2021-06-12T08:03:00.000Z</time>
      </trkpt>
      <trkpt lat="47.26944" lon="-1.67144">
        <ele>96</ele>
        <time>2021-06-12T08:03:02.000Z</time>
      </trkpt>
      <trkpt lat="47.26954" lon="-1.67138">
        <ele>97</ele>
        <time>2021-06-12T08:03:04.000Z</time>
      </trkpt>
      <trkpt lat="47.26964" lon="-1.67132">
        <ele>97</ele>
        <time>2021-06-12T08:03:06.000Z</time>
      </trkpt>
      <trkpt lat="47.26974" lon="-1.67128">
        <ele>98</ele>
        <time>2021-06-12T08:03:08.000Z</time>
      </trkpt>
      <trkpt lat="47.26983" lon="-1.67123">
        <ele>99</ele>
        <time>2021-06-12T08:03:10.000Z</time>
      </trkpt>
      <trkpt lat="47.26993" lon="-1.67119">
        <ele>100</ele>
        <time>2021-06-12T08:03:12.000Z</time>
      </trkpt>
      <trkpt lat="47.27003" lon="-1.67116">
        <ele>100</ele>
        <time>2021-06-12T08:03:14.000Z</time>
      </trkpt>
      <trkpt lat="47.27012" lon="-1.67113">
        <ele>101</ele>
        <time>2021-06-12T08:03:16.000Z</time>
      </trkpt>
      <trkpt lat="47.27022" lon="-1.67112">
        <ele>101</ele>
        <time>2021-06-12T08:03:18.000Z</time>
      </trkpt>
      <trkpt lat="47.27031" lon="-1.67112">
        <ele>102</ele>
        <time>2021-06-12T08:03:20.000Z</time>
      </trkpt>
      <trkpt lat="47.27042" lon="-1.67112">
        <ele>103</ele>
        <time>2021-06-12T08:03:22.000Z</time>
      </trkpt>
      <trkpt lat="47.27053" lon="-1.67112">
        <ele>103</ele>
        <time>2021-06-12T08:03:24.000Z</time>
      </trkpt>
      <trkpt lat="47.27063" lon="-1.67113">
        <ele>103</ele>
        <time>2021-06-12T08:03:26.000Z</time>
      </trkpt>
      <trkpt lat="47.27075" lon="-1.67115">
        <ele>104</ele>
        <time>2021-06-12T08:03:28.000Z</time>
      </trkpt>
      <trkpt lat="47.27085" lon="-1.67118">
        <ele>104</ele>
        <time>2021-06-12T08:03:30.000Z</time>
      </trkpt>
      <trkpt lat="47.27095" lon="-1.67122">
        <ele>105</ele>
        <time>2021-06-12T08:03:32.000Z</time>
      </trkpt>
      <trkpt lat="47.27104" lon="-1.67125">
        <ele>105</ele>
        <time>2021-06-12T08:03:34.000Z</time>
      </trkpt>
      <trkpt lat="47.27114" lon="-1.67128">
        <ele>106</ele>
        <time>2021-06-12T08:03:36.000Z</time>
      </trkpt>
      <trkpt lat="47.27124" lon="-1.67131">
        <ele>107</ele>
        <time>2021-06-12T08:03:38.000Z</time>
      </trkpt>
      <trkpt lat="47.27133" lon="-1.67135">
        <ele>108</ele>
        <time>2021-06-12T08:03:40.000Z</time>
      </trkpt>
      <trkpt lat="47.27142" lon="-1.67139">
        <ele>108</ele>
        <time>2021-06-12T08:03:42.000Z</time>
      </trkpt>
      <trkpt lat="47.27152" lon="-1.67144">
        <ele>109</ele>
        <time>2021-06-12T08:03:44.000Z</time>
      </trkpt>
      <trkpt lat="47.27161" lon="-1.67148">
        <ele>110</ele>
        <time>2021-06-12T08:03:46.000Z</time>
      </trkpt>
      <trkpt lat="47.27171" lon="-1.67153">
        <ele>109</ele>
        <time>2021-06-12T08:03:48.000Z</time>
      </trkpt>
      <trkpt lat="47.2718" lon="-1.67158">
        <ele>110</ele>
        <time>2021-06-12T08:03:50.000Z</time>
      </trkpt>
      <trkpt lat="47.2719" lon="-1.67162">
        <ele>111</ele>
        <time>2021-06-12T08:03:52.000Z</time>
      </trkpt>
      <trkpt lat="47.27203" lon="-1.67168">
        <ele>111</ele>
        <time>2021-06-12T08:03:55.000Z</time>
      </trkpt>
      <trkpt lat="47.27212" lon="-1.67171">
        <ele>111</ele>
        <time>2021-06-12T08:03:57.000Z</time>
      </trkpt>
      <trkpt lat="47.27225" lon="-1.67176">
        <ele>112</ele>
        <time>2021-06-12T08:04:00.000Z</time>
      </trkpt>
      <trkpt lat="47.27235" lon="-1.6718">
        <ele>113</ele>
        <time>2021-06-12T08:04:02.000Z</time>
      </trkpt>
      <trkpt lat="47.27245" lon="-1.67184">
        <ele>114</ele>
        <time>2021-06-12T08:04:04.000Z</time>
      </trkpt>
      <trkpt lat="47.27256" lon="-1.67188">
        <ele>114</ele>
        <time>2021-06-12T08:04:06.000Z</time>
      </trkpt>
      <trkpt lat="47.27266" lon="-1.67193">
        <ele>114</ele>
        <time>2021-06-12T08:04:08.000Z</time>
      </trkpt>
      <trkpt lat="47.27276" lon="-1.67197">
        <ele>115</ele>
        <time>2021-06-12T08:04:10.000Z</time>
      </trkpt>
      <trkpt lat="47.27286" lon="-1.672">
        <ele>115</ele>
        <time>2021-06-12T08:04:12.000Z</time>
      </trkpt>
      <trkpt lat="47.27295" lon="-1.67204">
        <ele>114</ele>
        <time>2021-06-12T08:04:14.000Z</time>
      </trkpt>
      <trkpt lat="47.27305" lon="-1.67207">
        <ele>114</ele>
        <time>2021-06-12T08:04:16.000Z</time>
      </trkpt>
      <trkpt lat="47.27315" lon="-1.67209">
        <ele>114</ele>
        <time>2021-06-12T08:04:18.000Z</time>
      </trkpt>
      <trkpt lat="47.27325" lon="-1.67211">
        <ele>114</ele>
        <time>2021-06-12T08:04:20.000Z</time>
      </trkpt>
      <trkpt lat="47.27339" lon="-1.67211">
        <ele>115</ele>
        <time>2021-06-12T08:04:23.000Z</time>
      </trkpt>
      <trkpt lat="47.27349" lon="-1.67209">
        <ele>115</ele>
        <time>2021-06-12T08:04:25.000Z</time>
      </trkpt>
      <trkpt lat="47.2736" lon="-1.67205">
        <ele>115</ele>
        <time>2021-06-12T08:04:27.000Z</time>
      </trkpt>
      <trkpt lat="47.2737" lon="-1.67199">
        <ele>115</ele>
        <time>2021-06-12T08:04:29.000Z</time>
      </trkpt>
      <trkpt lat="47.2738" lon="-1.67193">
        <ele>115</ele>
        <time>2021-06-12T08:04:31.000Z</time>
      </trkpt>
      <trkpt lat="47.2739" lon="-1.67186">
        <ele>116</ele>
        <time>2021-06-12T08:04:33.000Z</time>
      </trkpt>
      <trkpt lat="47.27399" lon="-1.67178">
        <ele>116</ele>
        <time>2021-06-12T08:04:35.000Z</time>
      </trkpt>
      <trkpt lat="47.27409" lon="-1.6717">
        <ele>115</ele>
        <time>2021-06-12T08:04:37.000Z</time>
      </trkpt>
      <trkpt lat="47.27418" lon="-1.67162">
        <ele>115</ele>
        <time>2021-06-12T08:04:39.000Z</time>
      </trkpt>
      <trkpt lat="47.27428" lon="-1.67153">
        <ele>115</ele>
        <time>2021-06-12T08:04:41.000Z</time>
      </trkpt>
      <trkpt lat="47.27438" lon="-1.67144">
        <ele>114</ele>
        <time>2021-06-12T08:04:43.000Z</time>
      </trkpt>
      <trkpt lat="47.27447" lon="-1.67136">
        <ele>114</ele>
        <time>2021-06-12T08:04:45.000Z</time>
      </trkpt>
      <trkpt lat="47.27457" lon="-1.67128">
        <ele>114</ele>
        <time>2021-06-12T08:04:47.000Z</time>
      </trkpt>
      <trkpt lat="47.27467" lon="-1.67118">
        <ele>114</ele>
        <time>2021-06-12T08:04:49.000Z</time>
      </trkpt>
      <trkpt lat="47.27476" lon="-1.6711">
        <ele>114</ele>
        <time>2021-06-12T08:04:51.000Z</time>
      </trkpt>
      <trkpt lat="47.27485" lon="-1.67103">
        <ele>113</ele>
        <time>2021-06-12T08:04:53.000Z</time>
      </trkpt>
      <trkpt lat="47.27494" lon="-1.67096">
        <ele>113</ele>
        <time>2021-06-12T08:04:55.000Z</time>
      </trkpt>
      <trkpt lat="47.27504" lon="-1.67089">
        <ele>114</ele>
        <time>2021-06-12T08:04:57.000Z</time>
      </trkpt>
      <trkpt lat="47.27513" lon="-1.6708">
        <ele>113</ele>
        <time>2021-06-12T08:04:59.000Z</time>
      </trkpt>
      <trkpt lat="47.27522" lon="-1.67076">
        <ele>113</ele>
        <time>2021-06-12T08:05:01.000Z</time>
      </trkpt>
      <trkpt lat="47.27529" lon="-1.67086">
        <ele>114</ele>
        <time>2021-06-12T08:05:03.000Z</time>
      </trkpt>
      <trkpt lat="47.27533" lon="-1.67102">
        <ele>114</ele>
        <time>2021-06-12T08:05:05.000Z</time>
      </trkpt>
      <trkpt lat="47.27535" lon="-1.67118">
        <ele>114</ele>
        <time>2021-06-12T08:05:07.000Z</time>
      </trkpt>
      <trkpt lat="47.27539" lon="-1.67134">
        <ele>114</ele>
        <time>2021-06-12T08:05:09.000Z</time>
      </trkpt>
      <trkpt lat="47.27542" lon="-1.6715">
        <ele>115</ele>
        <time>2021-06-12T08:05:11.000Z</time>
      </trkpt>
      <trkpt lat="47.27545" lon="-1.67166">
        <ele>115</ele>
        <time>2021-06-12T08:05:13.000Z</time>
      </trkpt>
      <trkpt lat="47.27547" lon="-1.67181">
        <ele>115</ele>
        <time>2021-06-12T08:05:15.000Z</time>
      </trkpt>
      <trkpt lat="47.2755" lon="-1.67197">
        <ele>116</ele>
        <time>2021-06-12T08:05:17.000Z</time>
      </trkpt>
      <trkpt lat="47.27553" lon="-1.67213">
        <ele>116</ele>
        <time>2021-06-12T08:05:19.000Z</time>
      </trkpt>
      <trkpt lat="47.27556" lon="-1.67229">
        <ele>117</ele>
        <time>2021-06-12T08:05:21.000Z</time>
      </trkpt>
      <trkpt lat="47.27559" lon="-1.67245">
        <ele>118</ele>
        <time>2021-06-12T08:05:23.000Z</time>
      </trkpt>
      <trkpt lat="47.27563" lon="-1.6726">
        <ele>118</ele>
        <time>2021-06-12T08:05:25.000Z</time>
      </trkpt>
      <trkpt lat="47.27567" lon="-1.67276">
        <ele>118</ele>
        <time>2021-06-12T08:05:27.000Z</time>
      </trkpt>
      <trkpt lat="47.27573" lon="-1.6729">
        <ele>118</ele>
        <time>2021-06-12T08:05:29.000Z</time>
      </trkpt>
      <trkpt lat="47.27581" lon="-1.67303">
        <ele>119</ele>
        <time>2021-06-12T08:05:31.000Z</time>
      </trkpt>
      <trkpt lat="47.27589" lon="-1.67314">
        <ele>119</ele>
        <time>2021-06-12T08:05:33.000Z</time>
      </trkpt>
      <trkpt lat="47.27597" lon="-1.67325">
        <ele>119</ele>
        <time>2021-06-12T08:05:35.000Z</time>
      </trkpt>
      <trkpt lat="47.27605" lon="-1.67336">
        <ele>120</ele>
        <time>2021-06-12T08:05:37.000Z</time>
      </trkpt>
      <trkpt lat="47.27613" lon="-1.67347">
        <ele>120</ele>
        <time>2021-06-12T08:05:39.000Z</time>
      </trkpt>
      <trkpt lat="47.27621" lon="-1.6736">
        <ele>120</ele>
        <time>2021-06-12T08:05:41.000Z</time>
      </trkpt>
      <trkpt lat="47.27631" lon="-1.67372">
        <ele>120</ele>
        <time>2021-06-12T08:05:43.000Z</time>
      </trkpt>
      <trkpt lat="47.27641" lon="-1.67382">
        <ele>120</ele>
        <time>2021-06-12T08:05:45.000Z</time>
      </trkpt>
      <trkpt lat="47.27652" lon="-1.67391">
        <ele>120</ele>
        <time>2021-06-12T08:05:47.000Z</time>
      </trkpt>
      <trkpt lat="47.27664" lon="-1.67396">
        <ele>120</ele>
        <time>2021-06-12T08:05:49.000Z</time>
      </trkpt>
      <trkpt lat="47.27677" lon="-1.67402">
        <ele>120</ele>
        <time>2021-06-12T08:05:51.000Z</time>
      </trkpt>
      <trkpt lat="47.2769" lon="-1.67406">
        <ele>121</ele>
        <time>2021-06-12T08:05:53.000Z</time>
      </trkpt>
      <trkpt lat="47.27703" lon="-1.67408">
        <ele>122</ele>
        <time>2021-06-12T08:05:55.000Z</time>
      </trkpt>
      <trkpt lat="47.27716" lon="-1.67412">
        <ele>122</ele>
        <time>2021-06-12T08:05:57.000Z</time>
      </trkpt>
      <trkpt lat="47.2773" lon="-1.67416">
        <ele>123</ele>
        <time>2021-06-12T08:05:59.000Z</time>
      </trkpt>
      <trkpt lat="47.27744" lon="-1.67419">
        <ele>123</ele>
        <time>2021-06-12T08:06:01.000Z</time>
      </trkpt>
      <trkpt lat="47.27759" lon="-1.67422">
        <ele>122</ele>
        <time>2021-06-12T08:06:03.000Z</time>
      </trkpt>
      <trkpt lat="47.27772" lon="-1.67423">
        <ele>122</ele>
        <time>2021-06-12T08:06:05.000Z</time>
      </trkpt>
      <trkpt lat="47.27787" lon="-1.67425">
        <ele>122</ele>
        <time>2021-06-12T08:06:07.000Z</time>
      </trkpt>
      <trkpt lat="47.27801" lon="-1.67428">
        <ele>120</ele>
        <time>2021-06-12T08:06:09.000Z</time>
      </trkpt>
      <trkpt lat="47.27817" lon="-1.67429">
        <ele>118</ele>
        <time>2021-06-12T08:06:11.000Z</time>
      </trkpt>
      <trkpt lat="47.27832" lon="-1.67429">
        <ele>117</ele>
        <time>2021-06-12T08:06:13.000Z</time>
      </trkpt>
      <trkpt lat="47.27847" lon="-1.67428">
        <ele>116</ele>
        <time>2021-06-12T08:06:15.000Z</time>
      </trkpt>
      <trkpt lat="47.27863" lon="-1.67428">
        <ele>115</ele>
        <time>2021-06-12T08:06:17.000Z</time>
      </trkpt>
      <trkpt lat="47.27878" lon="-1.67428">
        <ele>114</ele>
        <time>2021-06-12T08:06:19.000Z</time>
      </trkpt>
      <trkpt lat="47.27895" lon="-1.67429">
        <ele>113</ele>
        <time>2021-06-12T08:06:21.000Z</time>
      </trkpt>
      <trkpt lat="47.2791" lon="-1.6743">
        <ele>113</ele>
        <time>2021-06-12T08:06:23.000Z</time>
      </trkpt>
      <trkpt lat="47.27926" lon="-1.67433">
        <ele>113</ele>
        <time>2021-06-12T08:06:25.000Z</time>
      </trkpt>
      <trkpt lat="47.27941" lon="-1.67438">
        <ele>113</ele>
        <time>2021-06-12T08:06:27.000Z</time>
      </trkpt>
      <trkpt lat="47.27956" lon="-1.67443">
        <ele>113</ele>
        <time>2021-06-12T08:06:29.000Z</time>
      </trkpt>
      <trkpt lat="47.27971" lon="-1.67449">
        <ele>112</ele>
        <time>2021-06-12T08:06:31.000Z</time>
      </trkpt>
      <trkpt lat="47.27985" lon="-1.67455">
        <ele>112</ele>
        <time>2021-06-12T08:06:33.000Z</time>
      </trkpt>
      <trkpt lat="47.27998" lon="-1.67462">
        <ele>112</ele>
        <time>2021-06-12T08:06:35.000Z</time>
      </trkpt>
      <trkpt lat="47.28011" lon="-1.67471">
        <ele>112</ele>
        <time>2021-06-12T08:06:37.000Z</time>
      </trkpt>
      <trkpt lat="47.28024" lon="-1.67479">
        <ele>112</ele>
        <time>2021-06-12T08:06:39.000Z</time>
      </trkpt>
      <trkpt lat="47.28037" lon="-1.67486">
        <ele>112</ele>
        <time>2021-06-12T08:06:41.000Z</time>
      </trkpt>
      <trkpt lat="47.28049" lon="-1.67493">
        <ele>112</ele>
        <time>2021-06-12T08:06:43.000Z</time>
      </trkpt>
      <trkpt lat="47.28061" lon="-1.67499">
        <ele>112</ele>
        <time>2021-06-12T08:06:45.000Z</time>
      </trkpt>
      <trkpt lat="47.28072" lon="-1.67507">
        <ele>113</ele>
        <time>2021-06-12T08:06:47.000Z</time>
      </trkpt>
      <trkpt lat="47.28084" lon="-1.67514">
        <ele>113</ele>
        <time>2021-06-12T08:06:49.000Z</time>
      </trkpt>
      <trkpt lat="47.28095" lon="-1.67522">
        <ele>113</ele>
        <time>2021-06-12T08:06:51.000Z</time>
      </trkpt>
      <trkpt lat="47.28108" lon="-1.67529">
        <ele>113</ele>
        <time>2021-06-12T08:06:53.000Z</time>
      </trkpt>
      <trkpt lat="47.2812" lon="-1.67535">
        <ele>113</ele>
        <time>2021-06-12T08:06:55.000Z</time>
      </trkpt>
      <trkpt lat="47.28132" lon="-1.67543">
        <ele>114</ele>
        <time>2021-06-12T08:06:57.000Z</time>
      </trkpt>
      <trkpt lat="47.28144" lon="-1.67549">
        <ele>114</ele>
        <time>2021-06-12T08:06:59.000Z</time>
      </trkpt>
      <trkpt lat="47.28155" lon="-1.67556">
        <ele>114</ele>
        <time>2021-06-12T08:07:01.000Z</time>
      </trkpt>
      <trkpt lat="47.28167" lon="-1.67562">
        <ele>114</ele>
        <time>2021-06-12T08:07:03.000Z</time>
      </trkpt>
      <trkpt lat="47.2818" lon="-1.6757">
        <ele>114</ele>
        <time>2021-06-12T08:07:05.000Z</time>
      </trkpt>
      <trkpt lat="47.28192" lon="-1.67577">
        <ele>114</ele>
        <time>2021-06-12T08:07:07.000Z</time>
      </trkpt>
      <trkpt lat="47.28203" lon="-1.67584">
        <ele>114</ele>
        <time>2021-06-12T08:07:09.000Z</time>
      </trkpt>
      <trkpt lat="47.28215" lon="-1.67591">
        <ele>114</ele>
        <time>2021-06-12T08:07:11.000Z</time>
      </trkpt>
      <trkpt lat="47.28226" lon="-1.67598">
        <ele>114</ele>
        <time>2021-06-12T08:07:13.000Z</time>
      </trkpt>
      <trkpt lat="47.28238" lon="-1.67605">
        <ele>114</ele>
        <time>2021-06-12T08:07:15.000Z</time>
      </trkpt>
      <trkpt lat="47.28251" lon="-1.67609">
        <ele>114</ele>
        <time>2021-06-12T08:07:17.000Z</time>
      </trkpt>
      <trkpt lat="47.28264" lon="-1.67613">
        <ele>114</ele>
        <time>2021-06-12T08:07:19.000Z</time>
      </trkpt>
      <trkpt lat="47.28277" lon="-1.67614">
        <ele>114</ele>
        <time>2021-06-12T08:07:21.000Z</time>
      </trkpt>
      <trkpt lat="47.28291" lon="-1.67614">
        <ele>114</ele>
        <time>2021-06-12T08:07:23.000Z</time>
      </trkpt>
      <trkpt lat="47.28305" lon="-1.67612">
        <ele>114</ele>
        <time>2021-06-12T08:07:25.000Z</time>
      </trkpt>
      <trkpt lat="47.28319" lon="-1.6761">
        <ele>114</ele>
        <time>2021-06-12T08:07:27.000Z</time>
      </trkpt>
      <trkpt lat="47.28332" lon="-1.67609">
        <ele>113</ele>
        <time>2021-06-12T08:07:29.000Z</time>
      </trkpt>
      <trkpt lat="47.28346" lon="-1.67607">
        <ele>113</ele>
        <time>2021-06-12T08:07:31.000Z</time>
      </trkpt>
      <trkpt lat="47.2836" lon="-1.67605">
        <ele>113</ele>
        <time>2021-06-12T08:07:33.000Z</time>
      </trkpt>
      <trkpt lat="47.28373" lon="-1.67603">
        <ele>113</ele>
        <time>2021-06-12T08:07:35.000Z</time>
      </trkpt>
      <trkpt lat="47.28387" lon="-1.676">
        <ele>113</ele>
        <time>2021-06-12T08:07:37.000Z</time>
      </trkpt>
      <trkpt lat="47.284" lon="-1.67598">
        <ele>113</ele>
        <time>2021-06-12T08:07:39.000Z</time>
      </trkpt>
      <trkpt lat="47.28414" lon="-1.67597">
        <ele>113</ele>
        <time>2021-06-12T08:07:41.000Z</time>
      </trkpt>
      <trkpt lat="47.28427" lon="-1.67596">
        <ele>112</ele>
        <time>2021-06-12T08:07:43.000Z</time>
      </trkpt>
      <trkpt lat="47.2844" lon="-1.67597">
        <ele>113</ele>
        <time>2021-06-12T08:07:45.000Z</time>
      </trkpt>
      <trkpt lat="47.28454" lon="-1.67599">
        <ele>113</ele>
        <time>2021-06-12T08:07:47.000Z</time>
      </trkpt>
      <trkpt lat="47.28467" lon="-1.67604">
        <ele>113</ele>
        <time>2021-06-12T08:07:49.000Z</time>
      </trkpt>
      <trkpt lat="47.2848" lon="-1.67609">
        <ele>113</ele>
        <time>2021-06-12T08:07:51.000Z</time>
      </trkpt>
      <trkpt lat="47.28493" lon="-1.67615">
        <ele>113</ele>
        <time>2021-06-12T08:07:53.000Z</time>
      </trkpt>
      <trkpt lat="47.28506" lon="-1.67618">
        <ele>114</ele>
        <time>2021-06-12T08:07:55.000Z</time>
      </trkpt>
      <trkpt lat="47.28518" lon="-1.67621">
        <ele>114</ele>
        <time>2021-06-12T08:07:57.000Z</time>
      </trkpt>
      <trkpt lat="47.28531" lon="-1.6762">
        <ele>114</ele>
        <time>2021-06-12T08:07:59.000Z</time>
      </trkpt>
      <trkpt lat="47.28544" lon="-1.67616">
        <ele>114</ele>
        <time>2021-06-12T08:08:01.000Z</time>
      </trkpt>
      <trkpt lat="47.28557" lon="-1.67609">
        <ele>113</ele>
        <time>2021-06-12T08:08:03.000Z</time>
      </trkpt>
      <trkpt lat="47.2857" lon="-1.67602">
        <ele>113</ele>
        <time>2021-06-12T08:08:05.000Z</time>
      </trkpt>
      <trkpt lat="47.28584" lon="-1.67595">
        <ele>111</ele>
        <time>2021-06-12T08:08:07.000Z</time>
      </trkpt>
      <trkpt lat="47.28597" lon="-1.67588">
        <ele>110</ele>
        <time>2021-06-12T08:08:09.000Z</time>
      </trkpt>
      <trkpt lat="47.28609" lon="-1.67582">
        <ele>110</ele>
        <time>2021-06-12T08:08:11.000Z</time>
      </trkpt>
      <trkpt lat="47.28623" lon="-1.67577">
        <ele>109</ele>
        <time>2021-06-12T08:08:13.000Z</time>
      </trkpt>
      <trkpt lat="47.28636" lon="-1.67574">
        <ele>110</ele>
        <time>2021-06-12T08:08:15.000Z</time>
      </trkpt>
      <trkpt lat="47.28651" lon="-1.67575">
        <ele>110</ele>
        <time>2021-06-12T08:08:17.000Z</time>
      </trkpt>
      <trkpt lat="47.28664" lon="-1.67579">
        <ele>110</ele>
        <time>2021-06-12T08:08:19.000Z</time>
      </trkpt>
      <trkpt lat="47.28678" lon="-1.67587">
        <ele>109</ele>
        <time>2021-06-12T08:08:21.000Z</time>
      </trkpt>
      <trkpt lat="47.28691" lon="-1.67595">
        <ele>109</ele>
        <time>2021-06-12T08:08:23.000Z</time>
      </trkpt>
      <trkpt lat="47.28704" lon="-1.67604">
        <ele>109</ele>
        <time>2021-06-12T08:08:25.000Z</time>
      </trkpt>
      <trkpt lat="47.28716" lon="-1.67612">
        <ele>108</ele>
        <time>2021-06-12T08:08:27.000Z</time>
      </trkpt>
      <trkpt lat="47.28728" lon="-1.6762">
        <ele>108</ele>
        <time>2021-06-12T08:08:29.000Z</time>
      </trkpt>
      <trkpt lat="47.28738" lon="-1.67627">
        <ele>108</ele>
        <time>2021-06-12T08:08:31.000Z</time>
      </trkpt>
      <trkpt lat="47.28748" lon="-1.67628">
        <ele>108</ele>
        <time>2021-06-12T08:08:33.000Z</time>
      </trkpt>
      <trkpt lat="47.28755" lon="-1.67618">
        <ele>108</ele>
        <time>2021-06-12T08:08:35.000Z</time>
      </trkpt>
      <trkpt lat="47.28759" lon="-1.67603">
        <ele>107</ele>
        <time>2021-06-12T08:08:37.000Z</time>
      </trkpt>
      <trkpt lat="47.28763" lon="-1.67586">
        <ele>108</ele>
        <time>2021-06-12T08:08:39.000Z</time>
      </trkpt>
      <trkpt lat="47.28768" lon="-1.67568">
        <ele>107</ele>
        <time>2021-06-12T08:08:41.000Z</time>
      </trkpt>
      <trkpt lat="47.28772" lon="-1.6755">
        <ele>107</ele>
        <time>2021-06-12T08:08:43.000Z</time>
      </trkpt>
      <trkpt lat="47.28776" lon="-1.67533">
        <ele>107</ele>
        <time>2021-06-12T08:08:45.000Z</time>
      </trkpt>
      <trkpt lat="47.2878" lon="-1.67516">
        <ele>108</ele>
        <time>2021-06-12T08:08:47.000Z</time>
      </trkpt>
      <trkpt lat="47.28785" lon="-1.67498">
        <ele>108</ele>
        <time>2021-06-12T08:08:49.000Z</time>
      </trkpt>
      <trkpt lat="47.2879" lon="-1.6748">
        <ele>108</ele>
        <time>2021-06-12T08:08:51.000Z</time>
      </trkpt>
      <trkpt lat="47.28795" lon="-1.67462">
        <ele>108</ele>
        <time>2021-06-12T08:08:53.000Z</time>
      </trkpt>
      <trkpt lat="47.28801" lon="-1.67444">
        <ele>108</ele>
        <time>2021-06-12T08:08:55.000Z</time>
      </trkpt>
      <trkpt lat="47.28807" lon="-1.67427">
        <ele>108</ele>
        <time>2021-06-12T08:08:57.000Z</time>
      </trkpt>
      <trkpt lat="47.28813" lon="-1.6741">
        <ele>108</ele>
        <time>2021-06-12T08:08:59.000Z</time>
      </trkpt>
      <trkpt lat="47.28819" lon="-1.67393">
        <ele>109</ele>
        <time>2021-06-12T08:09:01.000Z</time>
      </trkpt>
      <trkpt lat="47.28825" lon="-1.67376">
        <ele>109</ele>
        <time>2021-06-12T08:09:03.000Z</time>
      </trkpt>
      <trkpt lat="47.28832" lon="-1.67361">
        <ele>108</ele>
        <time>2021-06-12T08:09:05.000Z</time>
      </trkpt>
      <trkpt lat="47.28841" lon="-1.67348">
        <ele>109</ele>
        <time>2021-06-12T08:09:07.000Z</time>
      </trkpt>
      <trkpt lat="47.28851" lon="-1.6734">
        <ele>110</ele>
        <time>2021-06-12T08:09:09.000Z</time>
      </trkpt>
      <trkpt lat="47.28863" lon="-1.67336">
        <ele>110</ele>
        <time>2021-06-12T08:09:11.000Z</time>
      </trkpt>
      <trkpt lat="47.28875" lon="-1.67334">
        <ele>111</ele>
        <time>2021-06-12T08:09:13.000Z</time>
      </trkpt>
      <trkpt lat="47.28887" lon="-1.67333">
        <ele>111</ele>
        <time>2021-06-12T08:09:15.000Z</time>
      </trkpt>
      <trkpt lat="47.28898" lon="-1.67331">
        <ele>111</ele>
        <time>2021-06-12T08:09:17.000Z</time>
      </trkpt>
      <trkpt lat="47.2891" lon="-1.67331">
        <ele>112</ele>
        <time>2021-06-12T08:09:19.000Z</time>
      </trkpt>
      <trkpt lat="47.28921" lon="-1.67333">
        <ele>112</ele>
        <time>2021-06-12T08:09:21.000Z</time>
      </trkpt>
      <trkpt lat="47.28933" lon="-1.67336">
        <ele>113</ele>
        <time>2021-06-12T08:09:23.000Z</time>
      </trkpt>
      <trkpt lat="47.28944" lon="-1.6734">
        <ele>113</ele>
        <time>2021-06-12T08:09:25.000Z</time>
      </trkpt>
      <trkpt lat="47.28956" lon="-1.67346">
        <ele>113</ele>
        <time>2021-06-12T08:09:27.000Z</time>
      </trkpt>
      <trkpt lat="47.28967" lon="-1.67351">
        <ele>113</ele>
        <time>2021-06-12T08:09:29.000Z</time>
      </trkpt>
      <trkpt lat="47.28979" lon="-1.67355">
        <ele>113</ele>
        <time>2021-06-12T08:09:31.000Z</time>
      </trkpt>
      <trkpt lat="47.2899" lon="-1.67356">
        <ele>113</ele>
        <time>2021-06-12T08:09:33.000Z</time>
      </trkpt>
      <trkpt lat="47.29003" lon="-1.67354">
        <ele>114</ele>
        <time>2021-06-12T08:09:35.000Z</time>
      </trkpt>
      <trkpt lat="47.29015" lon="-1.67351">
        <ele>114</ele>
        <time>2021-06-12T08:09:37.000Z</time>
      </trkpt>
      <trkpt lat="47.29026" lon="-1.67346">
        <ele>114</ele>
        <time>2021-06-12T08:09:39.000Z</time>
      </trkpt>
      <trkpt lat="47.29038" lon="-1.67342">
        <ele>114</ele>
        <time>2021-06-12T08:09:41.000Z</time>
      </trkpt>
      <trkpt lat="47.2905" lon="-1.67338">
        <ele>114</ele>
        <time>2021-06-12T08:09:43.000Z</time>
      </trkpt>
      <trkpt lat="47.29062" lon="-1.67334">
        <ele>115</ele>
        <time>2021-06-12T08:09:45.000Z</time>
      </trkpt>
      <trkpt lat="47.29073" lon="-1.67328">
        <ele>115</ele>
        <time>2021-06-12T08:09:47.000Z</time>
      </trkpt>
      <trkpt lat="47.29085" lon="-1.67324">
        <ele>115</ele>
        <time>2021-06-12T08:09:49.000Z</time>
      </trkpt>
      <trkpt lat="47.29097" lon="-1.67319">
        <ele>115</ele>
        <time>2021-06-12T08:09:51.000Z</time>
      </trkpt>
      <trkpt lat="47.29108" lon="-1.67316">
        <ele>115</ele>
        <time>2021-06-12T08:09:53.000Z</time>
      </trkpt>
      <trkpt lat="47.29119" lon="-1.67313">
        <ele>116</ele>
        <time>2021-06-12T08:09:55.000Z</time>
      </trkpt>
      <trkpt lat="47.29131" lon="-1.67311">
        <ele>116</ele>
        <time>2021-06-12T08:09:57.000Z</time>
      </trkpt>
      <trkpt lat="47.29142" lon="-1.67311">
        <ele>117</ele>
        <time>2021-06-12T08:09:59.000Z</time>
      </trkpt>
      <trkpt lat="47.29153" lon="-1.67312">
        <ele>117</ele>
        <time>2021-06-12T08:10:01.000Z</time>
      </trkpt>
      <trkpt lat="47.29164" lon="-1.67315">
        <ele>118</ele>
        <time>2021-06-12T08:10:03.000Z</time>
      </trkpt>
      <trkpt lat="47.29175" lon="-1.67319">
        <ele>118</ele>
        <time>2021-06-12T08:10:05.000Z</time>
      </trkpt>
      <trkpt lat="47.29186" lon="-1.67322">
        <ele>119</ele>
        <time>2021-06-12T08:10:07.000Z</time>
      </trkpt>
      <trkpt lat="47.29197" lon="-1.67324">
        <ele>119</ele>
        <time>2021-06-12T08:10:09.000Z</time>
      </trkpt>
      <trkpt lat="47.29208" lon="-1.67326">
        <ele>120</ele>
        <time>2021-06-12T08:10:11.000Z</time>
      </trkpt>
      <trkpt lat="47.2922" lon="-1.67326">
        <ele>121</ele>
        <time>2021-06-12T08:10:13.000Z</time>
      </trkpt>
      <trkpt lat="47.29231" lon="-1.67325">
        <ele>121</ele>
        <time>2021-06-12T08:10:15.000Z</time>
      </trkpt>
      <trkpt lat="47.29244" lon="-1.67325">
        <ele>121</ele>
        <time>2021-06-12T08:10:17.000Z</time>
      </trkpt>
      <trkpt lat="47.29256" lon="-1.67322">
        <ele>122</ele>
        <time>2021-06-12T08:10:19.000Z</time>
      </trkpt>
      <trkpt lat="47.29268" lon="-1.67318">
        <ele>121</ele>
        <time>2021-06-12T08:10:21.000Z</time>
      </trkpt>
      <trkpt lat="47.29279" lon="-1.67309">
        <ele>120</ele>
        <time>2021-06-12T08:10:23.000Z</time>
      </trkpt>
      <trkpt lat="47.29288" lon="-1.67299">
        <ele>120</ele>
        <time>2021-06-12T08:10:25.000Z</time>
      </trkpt>
      <trkpt lat="47.29296" lon="-1.67286">
        <ele>120</ele>
        <time>2021-06-12T08:10:27.000Z</time>
      </trkpt>
      <trkpt lat="47.29303" lon="-1.67271">
        <ele>120</ele>
        <time>2021-06-12T08:10:29.000Z</time>
      </trkpt>
      <trkpt lat="47.2931" lon="-1.67257">
        <ele>120</ele>
        <time>2021-06-12T08:10:31.000Z</time>
      </trkpt>
      <trkpt lat="47.29317" lon="-1.67242">
        <ele>121</ele>
        <time>2021-06-12T08:10:33.000Z</time>
      </trkpt>
      <trkpt lat="47.29324" lon="-1.67227">
        <ele>121</ele>
        <time>2021-06-12T08:10:35.000Z</time>
      </trkpt>
      <trkpt lat="47.2933" lon="-1.67213">
        <ele>121</ele>
        <time>2021-06-12T08:10:37.000Z</time>
      </trkpt>
      <trkpt lat="47.29338" lon="-1.67198">
        <ele>121</ele>
        <time>2021-06-12T08:10:39.000Z</time>
      </trkpt>
      <trkpt lat="47.29345" lon="-1.67183">
        <ele>121</ele>
        <time>2021-06-12T08:10:41.000Z</time>
      </trkpt>
      <trkpt lat="47.29353" lon="-1.67168">
        <ele>120</ele>
        <time>2021-06-12T08:10:43.000Z</time>
      </trkpt>
      <trkpt lat="47.2936" lon="-1.67153">
        <ele>120</ele>
        <time>2021-06-12T08:10:45.000Z</time>
      </trkpt>
      <trkpt lat="47.29367" lon="-1.67139">
        <ele>120</ele>
        <time>2021-06-12T08:10:47.000Z</time>
      </trkpt>
      <trkpt lat="47.29375" lon="-1.67124">
        <ele>120</ele>
        <time>2021-06-12T08:10:49.000Z</time>
      </trkpt>
      <trkpt lat="47.29383" lon="-1.6711">
        <ele>120</ele>
        <time>2021-06-12T08:10:51.000Z</time>
      </trkpt>
      <trkpt lat="47.2939" lon="-1.67095">
        <ele>120</ele>
        <time>2021-06-12T08:10:53.000Z</time>
      </trkpt>
      <trkpt lat="47.29397" lon="-1.6708">
        <ele>120</ele>
        <time>2021-06-12T08:10:55.000Z</time>
      </trkpt>
      <trkpt lat="47.29404" lon="-1.67064">
        <ele>120</ele>
        <time>2021-06-12T08:10:57.000Z</time>
      </trkpt>
      <trkpt lat="47.29412" lon="-1.67049">
        <ele>120</ele>
        <time>2021-06-12T08:10:59.000Z</time>
      </trkpt>
      <trkpt lat="47.29419" lon="-1.67035">
        <ele>120</ele>
        <time>2021-06-12T08:11:01.000Z</time>
      </trkpt>
      <trkpt lat="47.29426" lon="-1.6702">
        <ele>120</ele>
        <time>2021-06-12T08:11:03.000Z</time>
      </trkpt>
      <trkpt lat="47.29434" lon="-1.67007">
        <ele>120</ele>
        <time>2021-06-12T08:11:05.000Z</time>
      </trkpt>
      <trkpt lat="47.29443" lon="-1.66993">
        <ele>120</ele>
        <time>2021-06-12T08:11:07.000Z</time>
      </trkpt>
      <trkpt lat="47.29453" lon="-1.66982">
        <ele>120</ele>
        <time>2021-06-12T08:11:09.000Z</time>
      </trkpt>
      <trkpt lat="47.29464" lon="-1.66972">
        <ele>120</ele>
        <time>2021-06-12T08:11:11.000Z</time>
      </trkpt>
      <trkpt lat="47.29476" lon="-1.66965">
        <ele>120</ele>
        <time>2021-06-12T08:11:13.000Z</time>
      </trkpt>
      <trkpt lat="47.29488" lon="-1.66958">
        <ele>120</ele>
        <time>2021-06-12T08:11:15.000Z</time>
      </trkpt>
      <trkpt lat="47.29499" lon="-1.66951">
        <ele>120</ele>
        <time>2021-06-12T08:11:17.000Z</time>
      </trkpt>
      <trkpt lat="47.2951" lon="-1.66944">
        <ele>121</ele>
        <time>2021-06-12T08:11:19.000Z</time>
      </trkpt>
      <trkpt lat="47.29522" lon="-1.66938">
        <ele>121</ele>
        <time>2021-06-12T08:11:21.000Z</time>
      </trkpt>
      <trkpt lat="47.29534" lon="-1.66931">
        <ele>121</ele>
        <time>2021-06-12T08:11:23.000Z</time>
      </trkpt>
      <trkpt lat="47.29546" lon="-1.66924">
        <ele>121</ele>
        <time>2021-06-12T08:11:25.000Z</time>
      </trkpt>
      <trkpt lat="47.29558" lon="-1.66917">
        <ele>120</ele>
        <time>2021-06-12T08:11:27.000Z</time>
      </trkpt>
      <trkpt lat="47.2957" lon="-1.66909">
        <ele>121</ele>
        <time>2021-06-12T08:11:29.000Z</time>
      </trkpt>
      <trkpt lat="47.29583" lon="-1.66902">
        <ele>121</ele>
        <time>2021-06-12T08:11:31.000Z</time>
      </trkpt>
      <trkpt lat="47.29596" lon="-1.66894">
        <ele>120</ele>
        <time>2021-06-12T08:11:33.000Z</time>
      </trkpt>
      <trkpt lat="47.29609" lon="-1.66888">
        <ele>119</ele>
        <time>2021-06-12T08:11:35.000Z</time>
      </trkpt>
      <trkpt lat="47.29622" lon="-1.66882">
        <ele>119</ele>
        <time>2021-06-12T08:11:37.000Z</time>
      </trkpt>
      <trkpt lat="47.29635" lon="-1.66875">
        <ele>118</ele>
        <time>2021-06-12T08:11:39.000Z</time>
      </trkpt>
      <trkpt lat="47.29648" lon="-1.66865">
        <ele>118</ele>
        <time>2021-06-12T08:11:41.000Z</time>
      </trkpt>
      <trkpt lat="47.29661" lon="-1.66854">
        <ele>117</ele>
        <time>2021-06-12T08:11:43.000Z</time>
      </trkpt>
      <trkpt lat="47.29671" lon="-1.6684">
        <ele>118</ele>
        <time>2021-06-12T08:11:45.000Z</time>
      </trkpt>
      <trkpt lat="47.2968" lon="-1.66826">
        <ele>119</ele>
        <time>2021-06-12T08:11:47.000Z</time>
      </trkpt>
      <trkpt lat="47.29688" lon="-1.6681">
        <ele>119</ele>
        <time>2021-06-12T08:11:49.000Z</time>
      </trkpt>
      <trkpt lat="47.29697" lon="-1.66794">
        <ele>119</ele>
        <time>2021-06-12T08:11:51.000Z</time>
      </trkpt>
      <trkpt lat="47.29706" lon="-1.66778">
        <ele>119</ele>
        <time>2021-06-12T08:11:53.000Z</time>
      </trkpt>
      <trkpt lat="47.29714" lon="-1.66763">
        <ele>119</ele>
        <time>2021-06-12T08:11:55.000Z</time>
      </trkpt>
      <trkpt lat="47.29723" lon="-1.66749">
        <ele>119</ele>
        <time>2021-06-12T08:11:57.000Z</time>
      </trkpt>
      <trkpt lat="47.29731" lon="-1.66734">
        <ele>119</ele>
        <time>2021-06-12T08:11:59.000Z</time>
      </trkpt>
      <trkpt lat="47.2974" lon="-1.6672">
        <ele>119</ele>
        <time>2021-06-12T08:12:01.000Z</time>
      </trkpt>
      <trkpt lat="47.29749" lon="-1.66707">
        <ele>119</ele>
        <time>2021-06-12T08:12:03.000Z</time>
      </trkpt>
      <trkpt lat="47.29759" lon="-1.66694">
        <ele>119</ele>
        <time>2021-06-12T08:12:05.000Z</time>
      </trkpt>
      <trkpt lat="47.29769" lon="-1.66682">
        <ele>119</ele>
        <time>2021-06-12T08:12:07.000Z</time>
      </trkpt>
      <trkpt lat="47.29779" lon="-1.6667">
        <ele>119</ele>
        <time>2021-06-12T08:12:09.000Z</time>
      </trkpt>
      <trkpt lat="47.2979" lon="-1.66659">
        <ele>120</ele>
        <time>2021-06-12T08:12:11.000Z</time>
      </trkpt>
      <trkpt lat="47.298" lon="-1.66648">
        <ele>120</ele>
        <time>2021-06-12T08:12:13.000Z</time>
      </trkpt>
      <trkpt lat="47.2981" lon="-1.66636">
        <ele>121</ele>
        <time>2021-06-12T08:12:15.000Z</time>
      </trkpt>
      <trkpt lat="47.2982" lon="-1.66626">
        <ele>121</ele>
        <time>2021-06-12T08:12:17.000Z</time>
      </trkpt>
      <trkpt lat="47.2983" lon="-1.66616">
        <ele>120</ele>
        <time>2021-06-12T08:12:19.000Z</time>
      </trkpt>
      <trkpt lat="47.2984" lon="-1.66605">
        <ele>121</ele>
        <time>2021-06-12T08:12:21.000Z</time>
      </trkpt>
      <trkpt lat="47.29851" lon="-1.66593">
        <ele>120</ele>
        <time>2021-06-12T08:12:23.000Z</time>
      </trkpt>
      <trkpt lat="47.29861" lon="-1.6658">
        <ele>120</ele>
        <time>2021-06-12T08:12:25.000Z</time>
      </trkpt>
      <trkpt lat="47.2987" lon="-1.66566">
        <ele>120</ele>
        <time>2021-06-12T08:12:27.000Z</time>
      </trkpt>
      <trkpt lat="47.29879" lon="-1.66553">
        <ele>120</ele>
        <time>2021-06-12T08:12:29.000Z</time>
      </trkpt>
      <trkpt lat="47.29887" lon="-1.66539">
        <ele>120</ele>
        <time>2021-06-12T08:12:31.000Z</time>
      </trkpt>
      <trkpt lat="47.29895" lon="-1.66526">
        <ele>120</ele>
        <time>2021-06-12T08:12:33.000Z</time>
      </trkpt>
      <trkpt lat="47.29903" lon="-1.66513">
        <ele>121</ele>
        <time>2021-06-12T08:12:35.000Z</time>
      </trkpt>
      <trkpt lat="47.29911" lon="-1.665">
        <ele>121</ele>
        <time>2021-06-12T08:12:37.000Z</time>
      </trkpt>
      <trkpt lat="47.29918" lon="-1.66488">
        <ele>121</ele>
        <time>2021-06-12T08:12:39.000Z</time>
      </trkpt>
      <trkpt lat="47.29925" lon="-1.66478">
        <ele>121</ele>
        <time>2021-06-12T08:12:41.000Z</time>
      </trkpt>
      <trkpt lat="47.29934" lon="-1.66463">
        <ele>121</ele>
        <time>2021-06-12T08:12:44.000Z</time>
      </trkpt>
      <trkpt lat="47.2994" lon="-1.66451">
        <ele>121</ele>
        <time>2021-06-12T08:12:47.000Z</time>
      </trkpt>
      <trkpt lat="47.2995" lon="-1.66437">
        <ele>121</ele>
        <time>2021-06-12T08:12:51.000Z</time>
      </trkpt>
      <trkpt lat="47.29958" lon="-1.66426">
        <ele>121</ele>
        <time>2021-06-12T08:12:53.000Z</time>
      </trkpt>
      <trkpt lat="47.29967" lon="-1.66413">
        <ele>120</ele>
        <time>2021-06-12T08:12:55.000Z</time>
      </trkpt>
      <trkpt lat="47.29975" lon="-1.664">
        <ele>120</ele>
        <time>2021-06-12T08:12:57.000Z</time>
      </trkpt>
      <trkpt lat="47.29985" lon="-1.66386">
        <ele>119</ele>
        <time>2021-06-12T08:12:59.000Z</time>
      </trkpt>
      <trkpt lat="47.29994" lon="-1.66371">
        <ele>118</ele>
        <time>2021-06-12T08:13:01.000Z</time>
      </trkpt>
      <trkpt lat="47.30003" lon="-1.66357">
        <ele>118</ele>
        <time>2021-06-12T08:13:03.000Z</time>
      </trkpt>
      <trkpt lat="47.30013" lon="-1.66342">
        <ele>117</ele>
        <time>2021-06-12T08:13:05.000Z</time>
      </trkpt>
      <trkpt lat="47.30022" lon="-1.66327">
        <ele>117</ele>
        <time>2021-06-12T08:13:07.000Z</time>
      </trkpt>
      <trkpt lat="47.30032" lon="-1.66312">
        <ele>117</ele>
        <time>2021-06-12T08:13:09.000Z</time>
      </trkpt>
      <trkpt lat="47.30041" lon="-1.66298">
        <ele>116</ele>
        <time>2021-06-12T08:13:11.000Z</time>
      </trkpt>
      <trkpt lat="47.30051" lon="-1.66283">
        <ele>116</ele>
        <time>2021-06-12T08:13:13.000Z</time>
      </trkpt>
      <trkpt lat="47.3006" lon="-1.66269">
        <ele>116</ele>
        <time>2021-06-12T08:13:15.000Z</time>
      </trkpt>
      <trkpt lat="47.30068" lon="-1.66254">
        <ele>116</ele>
        <time>2021-06-12T08:13:17.000Z</time>
      </trkpt>
      <trkpt lat="47.30078" lon="-1.6624">
        <ele>117</ele>
        <time>2021-06-12T08:13:19.000Z</time>
      </trkpt>
      <trkpt lat="47.30087" lon="-1.66226">
        <ele>117</ele>
        <time>2021-06-12T08:13:21.000Z</time>
      </trkpt>
      <trkpt lat="47.30096" lon="-1.66212">
        <ele>117</ele>
        <time>2021-06-12T08:13:23.000Z</time>
      </trkpt>
      <trkpt lat="47.30106" lon="-1.66199">
        <ele>117</ele>
        <time>2021-06-12T08:13:25.000Z</time>
      </trkpt>
      <trkpt lat="47.30116" lon="-1.66187">
        <ele>117</ele>
        <time>2021-06-12T08:13:27.000Z</time>
      </trkpt>
      <trkpt lat="47.30127" lon="-1.66175">
        <ele>117</ele>
        <time>2021-06-12T08:13:29.000Z</time>
      </trkpt>
      <trkpt lat="47.30138" lon="-1.66162">
        <ele>117</ele>
        <time>2021-06-12T08:13:31.000Z</time>
      </trkpt>
      <trkpt lat="47.30148" lon="-1.66152">
        <ele>118</ele>
        <time>2021-06-12T08:13:33.000Z</time>
      </trkpt>
      <trkpt lat="47.30158" lon="-1.66142">
        <ele>118</ele>
        <time>2021-06-12T08:13:35.000Z</time>
      </trkpt>
      <trkpt lat="47.30167" lon="-1.66132">
        <ele>119</ele>
        <time>2021-06-12T08:13:37.000Z</time>
      </trkpt>
      <trkpt lat="47.30177" lon="-1.6612">
        <ele>118</ele>
        <time>2021-06-12T08:13:39.000Z</time>
      </trkpt>
      <trkpt lat="47.30188" lon="-1.66109">
        <ele>119</ele>
        <time>2021-06-12T08:13:41.000Z</time>
      </trkpt>
      <trkpt lat="47.30199" lon="-1.66098">
        <ele>119</ele>
        <time>2021-06-12T08:13:43.000Z</time>
      </trkpt>
      <trkpt lat="47.30209" lon="-1.66086">
        <ele>120</ele>
        <time>2021-06-12T08:13:45.000Z</time>
      </trkpt>
      <trkpt lat="47.3022" lon="-1.66076">
        <ele>121</ele>
        <time>2021-06-12T08:13:47.000Z</time>
      </trkpt>
      <trkpt lat="47.3023" lon="-1.66065">
        <ele>121</ele>
        <time>2021-06-12T08:13:49.000Z</time>
      </trkpt>
      <trkpt lat="47.30241" lon="-1.66054">
        <ele>121</ele>
        <time>2021-06-12T08:13:51.000Z</time>
      </trkpt>
      <trkpt lat="47.30251" lon="-1.66043">
        <ele>120</ele>
        <time>2021-06-12T08:13:53.000Z</time>
      </trkpt>
      <trkpt lat="47.30263" lon="-1.66032">
        <ele>120</ele>
        <time>2021-06-12T08:13:55.000Z</time>
      </trkpt>
      <trkpt lat="47.30274" lon="-1.66021">
        <ele>119</ele>
        <time>2021-06-12T08:13:57.000Z</time>
      </trkpt>
      <trkpt lat="47.30284" lon="-1.6601">
        <ele>120</ele>
        <time>2021-06-12T08:13:59.000Z</time>
      </trkpt>
      <trkpt lat="47.30295" lon="-1.65999">
        <ele>119</ele>
        <time>2021-06-12T08:14:01.000Z</time>
      </trkpt>
      <trkpt lat="47.30306" lon="-1.65988">
        <ele>119</ele>
        <time>2021-06-12T08:14:03.000Z</time>
      </trkpt>
      <trkpt lat="47.30316" lon="-1.65978">
        <ele>119</ele>
        <time>2021-06-12T08:14:05.000Z</time>
      </trkpt>
      <trkpt lat="47.30327" lon="-1.65968">
        <ele>119</ele>
        <time>2021-06-12T08:14:07.000Z</time>
      </trkpt>
      <trkpt lat="47.30338" lon="-1.65956">
        <ele>119</ele>
        <time>2021-06-12T08:14:09.000Z</time>
      </trkpt>
      <trkpt lat="47.30348" lon="-1.65945">
        <ele>119</ele>
        <time>2021-06-12T08:14:11.000Z</time>
      </trkpt>
      <trkpt lat="47.30359" lon="-1.65934">
        <ele>119</ele>
        <time>2021-06-12T08:14:13.000Z</time>
      </trkpt>
      <trkpt lat="47.30369" lon="-1.65922">
        <ele>119</ele>
        <time>2021-06-12T08:14:15.000Z</time>
      </trkpt>
      <trkpt lat="47.3038" lon="-1.65911">
        <ele>119</ele>
        <time>2021-06-12T08:14:17.000Z</time>
      </trkpt>
      <trkpt lat="47.30391" lon="-1.65901">
        <ele>119</ele>
        <time>2021-06-12T08:14:19.000Z</time>
      </trkpt>
      <trkpt lat="47.30402" lon="-1.6589">
        <ele>119</ele>
        <time>2021-06-12T08:14:21.000Z</time>
      </trkpt>
      <trkpt lat="47.30412" lon="-1.65879">
        <ele>119</ele>
        <time>2021-06-12T08:14:23.000Z</time>
      </trkpt>
      <trkpt lat="47.30422" lon="-1.65868">
        <ele>119</ele>
        <time>2021-06-12T08:14:25.000Z</time>
      </trkpt>
      <trkpt lat="47.30433" lon="-1.65857">
        <ele>119</ele>
        <time>2021-06-12T08:14:27.000Z</time>
      </trkpt>
      <trkpt lat="47.30443" lon="-1.65846">
        <ele>120</ele>
        <time>2021-06-12T08:14:29.000Z</time>
      </trkpt>
      <trkpt lat="47.30453" lon="-1.65835">
        <ele>120</ele>
        <time>2021-06-12T08:14:31.000Z</time>
      </trkpt>
      <trkpt lat="47.30463" lon="-1.65825">
        <ele>120</ele>
        <time>2021-06-12T08:14:33.000Z</time>
      </trkpt>
      <trkpt lat="47.30475" lon="-1.65814">
        <ele>119</ele>
        <time>2021-06-12T08:14:35.000Z</time>
      </trkpt>
      <trkpt lat="47.30486" lon="-1.65802">
        <ele>119</ele>
        <time>2021-06-12T08:14:37.000Z</time>
      </trkpt>
      <trkpt lat="47.30496" lon="-1.65791">
        <ele>119</ele>
        <time>2021-06-12T08:14:39.000Z</time>
      </trkpt>
      <trkpt lat="47.30507" lon="-1.6578">
        <ele>119</ele>
        <time>2021-06-12T08:14:41.000Z</time>
      </trkpt>
      <trkpt lat="47.30518" lon="-1.65768">
        <ele>119</ele>
        <time>2021-06-12T08:14:43.000Z</time>
      </trkpt>
      <trkpt lat="47.30529" lon="-1.65757">
        <ele>119</ele>
        <time>2021-06-12T08:14:45.000Z</time>
      </trkpt>
      <trkpt lat="47.30539" lon="-1.65746">
        <ele>119</ele>
        <time>2021-06-12T08:14:47.000Z</time>
      </trkpt>
      <trkpt lat="47.30549" lon="-1.65735">
        <ele>119</ele>
        <time>2021-06-12T08:14:49.000Z</time>
      </trkpt>
      <trkpt lat="47.3056" lon="-1.65724">
        <ele>119</ele>
        <time>2021-06-12T08:14:51.000Z</time>
      </trkpt>
      <trkpt lat="47.3057" lon="-1.65713">
        <ele>119</ele>
        <time>2021-06-12T08:14:53.000Z</time>
      </trkpt>
      <trkpt lat="47.3058" lon="-1.65703">
        <ele>119</ele>
        <time>2021-06-12T08:14:55.000Z</time>
      </trkpt>
      <trkpt lat="47.30591" lon="-1.65691">
        <ele>119</ele>
        <time>2021-06-12T08:14:57.000Z</time>
      </trkpt>
      <trkpt lat="47.30602" lon="-1.65681">
        <ele>119</ele>
        <time>2021-06-12T08:14:59.000Z</time>
      </trkpt>
      <trkpt lat="47.30613" lon="-1.6567">
        <ele>119</ele>
        <time>2021-06-12T08:15:01.000Z</time>
      </trkpt>
      <trkpt lat="47.30624" lon="-1.6566">
        <ele>119</ele>
        <time>2021-06-12T08:15:03.000Z</time>
      </trkpt>
      <trkpt lat="47.30634" lon="-1.65649">
        <ele>119</ele>
        <time>2021-06-12T08:15:05.000Z</time>
      </trkpt>
      <trkpt lat="47.30645" lon="-1.65638">
        <ele>119</ele>
        <time>2021-06-12T08:15:07.000Z</time>
      </trkpt>
      <trkpt lat="47.30655" lon="-1.65626">
        <ele>119</ele>
        <time>2021-06-12T08:15:09.000Z</time>
      </trkpt>
      <trkpt lat="47.30666" lon="-1.65616">
        <ele>120</ele>
        <time>2021-06-12T08:15:11.000Z</time>
      </trkpt>
      <trkpt lat="47.30676" lon="-1.65605">
        <ele>120</ele>
        <time>2021-06-12T08:15:13.000Z</time>
      </trkpt>
      <trkpt lat="47.30686" lon="-1.65594">
        <ele>120</ele>
        <time>2021-06-12T08:15:15.000Z</time>
      </trkpt>
      <trkpt lat="47.30697" lon="-1.65582">
        <ele>120</ele>
        <time>2021-06-12T08:15:17.000Z</time>
      </trkpt>
      <trkpt lat="47.30706" lon="-1.65571">
        <ele>120</ele>
        <time>2021-06-12T08:15:19.000Z</time>
      </trkpt>
      <trkpt lat="47.30716" lon="-1.65559">
        <ele>120</ele>
        <time>2021-06-12T08:15:21.000Z</time>
      </trkpt>
      <trkpt lat="47.30725" lon="-1.65548">
        <ele>120</ele>
        <time>2021-06-12T08:15:23.000Z</time>
      </trkpt>
      <trkpt lat="47.30734" lon="-1.65536">
        <ele>120</ele>
        <time>2021-06-12T08:15:25.000Z</time>
      </trkpt>
      <trkpt lat="47.30741" lon="-1.65521">
        <ele>120</ele>
        <time>2021-06-12T08:15:27.000Z</time>
      </trkpt>
      <trkpt lat="47.30746" lon="-1.65505">
        <ele>120</ele>
        <time>2021-06-12T08:15:29.000Z</time>
      </trkpt>
      <trkpt lat="47.30754" lon="-1.65491">
        <ele>121</ele>
        <time>2021-06-12T08:15:31.000Z</time>
      </trkpt>
      <trkpt lat="47.30762" lon="-1.65476">
        <ele>121</ele>
        <time>2021-06-12T08:15:33.000Z</time>
      </trkpt>
      <trkpt lat="47.3077" lon="-1.65462">
        <ele>121</ele>
        <time>2021-06-12T08:15:35.000Z</time>
      </trkpt>
      <trkpt lat="47.30778" lon="-1.65448">
        <ele>121</ele>
        <time>2021-06-12T08:15:37.000Z</time>
      </trkpt>
      <trkpt lat="47.30785" lon="-1.65434">
        <ele>121</ele>
        <time>2021-06-12T08:15:39.000Z</time>
      </trkpt>
      <trkpt lat="47.30793" lon="-1.6542">
        <ele>121</ele>
        <time>2021-06-12T08:15:41.000Z</time>
      </trkpt>
      <trkpt lat="47.30801" lon="-1.65406">
        <ele>121</ele>
        <time>2021-06-12T08:15:43.000Z</time>
      </trkpt>
      <trkpt lat="47.3081" lon="-1.65392">
        <ele>120</ele>
        <time>2021-06-12T08:15:45.000Z</time>
      </trkpt>
      <trkpt lat="47.30818" lon="-1.65378">
        <ele>120</ele>
        <time>2021-06-12T08:15:47.000Z</time>
      </trkpt>
      <trkpt lat="47.30826" lon="-1.65364">
        <ele>120</ele>
        <time>2021-06-12T08:15:49.000Z</time>
      </trkpt>
      <trkpt lat="47.30834" lon="-1.6535">
        <ele>120</ele>
        <time>2021-06-12T08:15:51.000Z</time>
      </trkpt>
      <trkpt lat="47.30843" lon="-1.65335">
        <ele>120</ele>
        <time>2021-06-12T08:15:53.000Z</time>
      </trkpt>
      <trkpt lat="47.3085" lon="-1.6532">
        <ele>119</ele>
        <time>2021-06-12T08:15:55.000Z</time>
      </trkpt>
      <trkpt lat="47.30859" lon="-1.65306">
        <ele>119</ele>
        <time>2021-06-12T08:15:57.000Z</time>
      </trkpt>
      <trkpt lat="47.30867" lon="-1.6529">
        <ele>119</ele>
        <time>2021-06-12T08:15:59.000Z</time>
      </trkpt>
      <trkpt lat="47.30876" lon="-1.65274">
        <ele>119</ele>
        <time>2021-06-12T08:16:01.000Z</time>
      </trkpt>
      <trkpt lat="47.30885" lon="-1.65258">
        <ele>118</ele>
        <time>2021-06-12T08:16:03.000Z</time>
      </trkpt>
      <trkpt lat="47.30894" lon="-1.65243">
        <ele>118</ele>
        <time>2021-06-12T08:16:05.000Z</time>
      </trkpt>
      <trkpt lat="47.30903" lon="-1.65227">
        <ele>118</ele>
        <time>2021-06-12T08:16:07.000Z</time>
      </trkpt>
      <trkpt lat="47.30912" lon="-1.65212">
        <ele>117</ele>
        <time>2021-06-12T08:16:09.000Z</time>
      </trkpt>
      <trkpt lat="47.30921" lon="-1.65196">
        <ele>117</ele>
        <time>2021-06-12T08:16:11.000Z</time>
      </trkpt>
      <trkpt lat="47.3093" lon="-1.6518">
        <ele>117</ele>
        <time>2021-06-12T08:16:13.000Z</time>
      </trkpt>
      <trkpt lat="47.30939" lon="-1.65164">
        <ele>116</ele>
        <time>2021-06-12T08:16:15.000Z</time>
      </trkpt>
      <trkpt lat="47.30948" lon="-1.65147">
        <ele>116</ele>
        <time>2021-06-12T08:16:17.000Z</time>
      </trkpt>
      <trkpt lat="47.30957" lon="-1.65132">
        <ele>116</ele>
        <time>2021-06-12T08:16:19.000Z</time>
      </trkpt>
      <trkpt lat="47.30966" lon="-1.65116">
        <ele>116</ele>
        <time>2021-06-12T08:16:21.000Z</time>
      </trkpt>
      <trkpt lat="47.30974" lon="-1.65101">
        <ele>115</ele>
        <time>2021-06-12T08:16:23.000Z</time>
      </trkpt>
      <trkpt lat="47.30984" lon="-1.65088">
        <ele>115</ele>
        <time>2021-06-12T08:16:25.000Z</time>
      </trkpt>
      <trkpt lat="47.30995" lon="-1.65079">
        <ele>115</ele>
        <time>2021-06-12T08:16:27.000Z</time>
      </trkpt>
      <trkpt lat="47.31007" lon="-1.65071">
        <ele>116</ele>
        <time>2021-06-12T08:16:29.000Z</time>
      </trkpt>
      <trkpt lat="47.3102" lon="-1.65064">
        <ele>116</ele>
        <time>2021-06-12T08:16:31.000Z</time>
      </trkpt>
      <trkpt lat="47.31032" lon="-1.65058">
        <ele>115</ele>
        <time>2021-06-12T08:16:33.000Z</time>
      </trkpt>
      <trkpt lat="47.31045" lon="-1.65052">
        <ele>115</ele>
        <time>2021-06-12T08:16:35.000Z</time>
      </trkpt>
      <trkpt lat="47.31059" lon="-1.65046">
        <ele>115</ele>
        <time>2021-06-12T08:16:37.000Z</time>
      </trkpt>
      <trkpt lat="47.31072" lon="-1.6504">
        <ele>114</ele>
        <time>2021-06-12T08:16:39.000Z</time>
      </trkpt>
      <trkpt lat="47.31086" lon="-1.65036">
        <ele>114</ele>
        <time>2021-06-12T08:16:41.000Z</time>
      </trkpt>
      <trkpt lat="47.311" lon="-1.65032">
        <ele>114</ele>
        <time>2021-06-12T08:16:43.000Z</time>
      </trkpt>
      <trkpt lat="47.31113" lon="-1.65029">
        <ele>114</ele>
        <time>2021-06-12T08:16:45.000Z</time>
      </trkpt>
      <trkpt lat="47.31126" lon="-1.65029">
        <ele>115</ele>
        <time>2021-06-12T08:16:47.000Z</time>
      </trkpt>
      <trkpt lat="47.31138" lon="-1.65034">
        <ele>116</ele>
        <time>2021-06-12T08:16:49.000Z</time>
      </trkpt>
      <trkpt lat="47.3115" lon="-1.65042">
        <ele>117</ele>
        <time>2021-06-12T08:16:51.000Z</time>
      </trkpt>
      <trkpt lat="47.31163" lon="-1.65051">
        <ele>117</ele>
        <time>2021-06-12T08:16:53.000Z</time>
      </trkpt>
      <trkpt lat="47.31175" lon="-1.65056">
        <ele>117</ele>
        <time>2021-06-12T08:16:55.000Z</time>
      </trkpt>
      <trkpt lat="47.31188" lon="-1.65057">
        <ele>116</ele>
        <time>2021-06-12T08:16:57.000Z</time>
      </trkpt>
      <trkpt lat="47.31199" lon="-1.65054">
        <ele>116</ele>
        <time>2021-06-12T08:16:59.000Z</time>
      </trkpt>
      <trkpt lat="47.3121" lon="-1.65049">
        <ele>117</ele>
        <time>2021-06-12T08:17:01.000Z</time>
      </trkpt>
      <trkpt lat="47.3122" lon="-1.65043">
        <ele>118</ele>
        <time>2021-06-12T08:17:03.000Z</time>
      </trkpt>
      <trkpt lat="47.3123" lon="-1.65038">
        <ele>118</ele>
        <time>2021-06-12T08:17:05.000Z</time>
      </trkpt>
      <trkpt lat="47.3124" lon="-1.65031">
        <ele>119</ele>
        <time>2021-06-12T08:17:07.000Z</time>
      </trkpt>
      <trkpt lat="47.3125" lon="-1.65025">
        <ele>119</ele>
        <time>2021-06-12T08:17:09.000Z</time>
      </trkpt>
      <trkpt lat="47.3126" lon="-1.6502">
        <ele>120</ele>
        <time>2021-06-12T08:17:11.000Z</time>
      </trkpt>
      <trkpt lat="47.31269" lon="-1.65014">
        <ele>120</ele>
        <time>2021-06-12T08:17:13.000Z</time>
      </trkpt>
      <trkpt lat="47.3128" lon="-1.65008">
        <ele>120</ele>
        <time>2021-06-12T08:17:15.000Z</time>
      </trkpt>
      <trkpt lat="47.3129" lon="-1.65001">
        <ele>120</ele>
        <time>2021-06-12T08:17:17.000Z</time>
      </trkpt>
      <trkpt lat="47.31301" lon="-1.64995">
        <ele>120</ele>
        <time>2021-06-12T08:17:19.000Z</time>
      </trkpt>
      <trkpt lat="47.31311" lon="-1.64988">
        <ele>120</ele>
        <time>2021-06-12T08:17:21.000Z</time>
      </trkpt>
      <trkpt lat="47.31322" lon="-1.64982">
        <ele>120</ele>
        <time>2021-06-12T08:17:23.000Z</time>
      </trkpt>
      <trkpt lat="47.31333" lon="-1.64976">
        <ele>120</ele>
        <time>2021-06-12T08:17:25.000Z</time>
      </trkpt>
      <trkpt lat="47.31343" lon="-1.6497">
        <ele>120</ele>
        <time>2021-06-12T08:17:27.000Z</time>
      </trkpt>
      <trkpt lat="47.31353" lon="-1.64963">
        <ele>120</ele>
        <time>2021-06-12T08:17:29.000Z</time>
      </trkpt>
      <trkpt lat="47.31364" lon="-1.64956">
        <ele>120</ele>
        <time>2021-06-12T08:17:31.000Z</time>
      </trkpt>
      <trkpt lat="47.31374" lon="-1.6495">
        <ele>120</ele>
        <time>2021-06-12T08:17:33.000Z</time>
      </trkpt>
      <trkpt lat="47.31385" lon="-1.64943">
        <ele>120</ele>
        <time>2021-06-12T08:17:35.000Z</time>
      </trkpt>
      <trkpt lat="47.31396" lon="-1.64935">
        <ele>120</ele>
        <time>2021-06-12T08:17:37.000Z</time>
      </trkpt>
      <trkpt lat="47.31406" lon="-1.64928">
        <ele>120</ele>
        <time>2021-06-12T08:17:39.000Z</time>
      </trkpt>
      <trkpt lat="47.31418" lon="-1.64921">
        <ele>121</ele>
        <time>2021-06-12T08:17:41.000Z</time>
      </trkpt>
      <trkpt lat="47.31429" lon="-1.64915">
        <ele>121</ele>
        <time>2021-06-12T08:17:43.000Z</time>
      </trkpt>
      <trkpt lat="47.31441" lon="-1.64912">
        <ele>120</ele>
        <time>2021-06-12T08:17:45.000Z</time>
      </trkpt>
      <trkpt lat="47.31455" lon="-1.64912">
        <ele>119</ele>
        <time>2021-06-12T08:17:47.000Z</time>
      </trkpt>
      <trkpt lat="47.3147" lon="-1.64911">
        <ele>118</ele>
        <time>2021-06-12T08:17:49.000Z</time>
      </trkpt>
      <trkpt lat="47.31486" lon="-1.64911">
        <ele>118</ele>
        <time>2021-06-12T08:17:51.000Z</time>
      </trkpt>
      <trkpt lat="47.31499" lon="-1.6491">
        <ele>118</ele>
        <time>2021-06-12T08:17:53.000Z</time>
      </trkpt>
      <trkpt lat="47.31509" lon="-1.64908">
        <ele>117</ele>
        <time>2021-06-12T08:17:55.000Z</time>
      </trkpt>
      <trkpt lat="47.3152" lon="-1.64904">
        <ele>116</ele>
        <time>2021-06-12T08:17:57.000Z</time>
      </trkpt>
      <trkpt lat="47.31532" lon="-1.64899">
        <ele>116</ele>
        <time>2021-06-12T08:17:59.000Z</time>
      </trkpt>
      <trkpt lat="47.31545" lon="-1.64891">
        <ele>115</ele>
        <time>2021-06-12T08:18:01.000Z</time>
      </trkpt>
      <trkpt lat="47.31556" lon="-1.64881">
        <ele>115</ele>
        <time>2021-06-12T08:18:03.000Z</time>
      </trkpt>
      <trkpt lat="47.31569" lon="-1.64873">
        <ele>115</ele>
        <time>2021-06-12T08:18:05.000Z</time>
      </trkpt>
      <trkpt lat="47.3158" lon="-1.64864">
        <ele>114</ele>
        <time>2021-06-12T08:18:07.000Z</time>
      </trkpt>
      <trkpt lat="47.31592" lon="-1.64855">
        <ele>114</ele>
        <time>2021-06-12T08:18:09.000Z</time>
      </trkpt>
      <trkpt lat="47.31604" lon="-1.64847">
        <ele>113</ele>
        <time>2021-06-12T08:18:11.000Z</time>
      </trkpt>
      <trkpt lat="47.31616" lon="-1.64837">
        <ele>113</ele>
        <time>2021-06-12T08:18:13.000Z</time>
      </trkpt>
      <trkpt lat="47.31628" lon="-1.64825">
        <ele>113</ele>
        <time>2021-06-12T08:18:15.000Z</time>
      </trkpt>
      <trkpt lat="47.31639" lon="-1.64812">
        <ele>112</ele>
        <time>2021-06-12T08:18:17.000Z</time>
      </trkpt>
      <trkpt lat="47.3165" lon="-1.64799">
        <ele>111</ele>
        <time>2021-06-12T08:18:19.000Z</time>
      </trkpt>
      <trkpt lat="47.31662" lon="-1.64785">
        <ele>110</ele>
        <time>2021-06-12T08:18:21.000Z</time>
      </trkpt>
      <trkpt lat="47.31675" lon="-1.6477">
        <ele>109</ele>
        <time>2021-06-12T08:18:23.000Z</time>
      </trkpt>
      <trkpt lat="47.31689" lon="-1.64756">
        <ele>109</ele>
        <time>2021-06-12T08:18:25.000Z</time>
      </trkpt>
      <trkpt lat="47.31702" lon="-1.64744">
        <ele>108</ele>
        <time>2021-06-12T08:18:27.000Z</time>
      </trkpt>
      <trkpt lat="47.31714" lon="-1.64732">
        <ele>108</ele>
        <time>2021-06-12T08:18:29.000Z</time>
      </trkpt>
      <trkpt lat="47.31727" lon="-1.64721">
        <ele>107</ele>
        <time>2021-06-12T08:18:31.000Z</time>
      </trkpt>
      <trkpt lat="47.3174" lon="-1.6471">
        <ele>107</ele>
        <time>2021-06-12T08:18:33.000Z</time>
      </trkpt>
      <trkpt lat="47.31753" lon="-1.64699">
        <ele>107</ele>
        <time>2021-06-12T08:18:35.000Z</time>
      </trkpt>
      <trkpt lat="47.31766" lon="-1.6469">
        <ele>108</ele>
        <time>2021-06-12T08:18:37.000Z</time>
      </trkpt>
      <trkpt lat="47.31779" lon="-1.64684">
        <ele>108</ele>
        <time>2021-06-12T08:18:39.000Z</time>
      </trkpt>
      <trkpt lat="47.31793" lon="-1.64678">
        <ele>108</ele>
        <time>2021-06-12T08:18:41.000Z</time>
      </trkpt>
      <trkpt lat="47.31807" lon="-1.64673">
        <ele>108</ele>
        <time>2021-06-12T08:18:43.000Z</time>
      </trkpt>
      <trkpt lat="47.31821" lon="-1.64668">
        <ele>108</ele>
        <time>2021-06-12T08:18:45.000Z</time>
      </trkpt>
      <trkpt lat="47.31834" lon="-1.64663">
        <ele>108</ele>
        <time>2021-06-12T08:18:47.000Z</time>
      </trkpt>
      <trkpt lat="47.31848" lon="-1.64658">
        <ele>107</ele>
        <time>2021-06-12T08:18:49.000Z</time>
      </trkpt>
      <trkpt lat="47.31862" lon="-1.64653">
        <ele>107</ele>
        <time>2021-06-12T08:18:51.000Z</time>
      </trkpt>
      <trkpt lat="47.31876" lon="-1.64649">
        <ele>106</ele>
        <time>2021-06-12T08:18:53.000Z</time>
      </trkpt>
      <trkpt lat="47.31889" lon="-1.64645">
        <ele>105</ele>
        <time>2021-06-12T08:18:55.000Z</time>
      </trkpt>
      <trkpt lat="47.31903" lon="-1.6464">
        <ele>104</ele>
        <time>2021-06-12T08:18:57.000Z</time>
      </trkpt>
      <trkpt lat="47.31916" lon="-1.64635">
        <ele>103</ele>
        <time>2021-06-12T08:18:59.000Z</time>
      </trkpt>
      <trkpt lat="47.3193" lon="-1.6463">
        <ele>103</ele>
        <time>2021-06-12T08:19:01.000Z</time>
      </trkpt>
      <trkpt lat="47.31944" lon="-1.64624">
        <ele>103</ele>
        <time>2021-06-12T08:19:03.000Z</time>
      </trkpt>
      <trkpt lat="47.31958" lon="-1.64618">
        <ele>103</ele>
        <time>2021-06-12T08:19:05.000Z</time>
      </trkpt>
      <trkpt lat="47.31972" lon="-1.64613">
        <ele>103</ele>
        <time>2021-06-12T08:19:07.000Z</time>
      </trkpt>
      <trkpt lat="47.31987" lon="-1.64607">
        <ele>102</ele>
        <time>2021-06-12T08:19:09.000Z</time>
      </trkpt>
      <trkpt lat="47.32002" lon="-1.64602">
        <ele>101</ele>
        <time>2021-06-12T08:19:11.000Z</time>
      </trkpt>
      <trkpt lat="47.32017" lon="-1.64597">
        <ele>100</ele>
        <time>2021-06-12T08:19:13.000Z</time>
      </trkpt>
      <trkpt lat="47.32031" lon="-1.64591">
        <ele>100</ele>
        <time>2021-06-12T08:19:15.000Z</time>
      </trkpt>
      <trkpt lat="47.32046" lon="-1.64585">
        <ele>100</ele>
        <time>2021-06-12T08:19:17.000Z</time>
      </trkpt>
      <trkpt lat="47.32061" lon="-1.64579">
        <ele>99</ele>
        <time>2021-06-12T08:19:19.000Z</time>
      </trkpt>
      <trkpt lat="47.32076" lon="-1.64574">
        <ele>99</ele>
        <time>2021-06-12T08:19:21.000Z</time>
      </trkpt>
      <trkpt lat="47.32091" lon="-1.64569">
        <ele>98</ele>
        <time>2021-06-12T08:19:23.000Z</time>
      </trkpt>
      <trkpt lat="47.32107" lon="-1.64562">
        <ele>97</ele>
        <time>2021-06-12T08:19:25.000Z</time>
      </trkpt>
      <trkpt lat="47.32124" lon="-1.64556">
        <ele>95</ele>
        <time>2021-06-12T08:19:27.000Z</time>
      </trkpt>
      <trkpt lat="47.32133" lon="-1.64552">
        <ele>94</ele>
        <time>2021-06-12T08:19:28.000Z</time>
      </trkpt>
      <trkpt lat="47.3215" lon="-1.64542">
        <ele>93</ele>
        <time>2021-06-12T08:19:30.000Z</time>
      </trkpt>
      <trkpt lat="47.32158" lon="-1.64536">
        <ele>93</ele>
        <time>2021-06-12T08:19:31.000Z</time>
      </trkpt>
      <trkpt lat="47.32166" lon="-1.64527">
        <ele>92</ele>
        <time>2021-06-12T08:19:32.000Z</time>
      </trkpt>
      <trkpt lat="47.32174" lon="-1.64518">
        <ele>91</ele>
        <time>2021-06-12T08:19:33.000Z</time>
      </trkpt>
      <trkpt lat="47.32182" lon="-1.64507">
        <ele>91</ele>
        <time>2021-06-12T08:19:34.000Z</time>
      </trkpt>
      <trkpt lat="47.32189" lon="-1.64496">
        <ele>90</ele>
        <time>2021-06-12T08:19:35.000Z</time>
      </trkpt>
      <trkpt lat="47.32196" lon="-1.64483">
        <ele>89</ele>
        <time>2021-06-12T08:19:36.000Z</time>
      </trkpt>
      <trkpt lat="47.32202" lon="-1.64471">
        <ele>89</ele>
        <time>2021-06-12T08:19:37.000Z</time>
      </trkpt>
      <trkpt lat="47.32207" lon="-1.64459">
        <ele>88</ele>
        <time>2021-06-12T08:19:38.000Z</time>
      </trkpt>
      <trkpt lat="47.32213" lon="-1.64448">
        <ele>88</ele>
        <time>2021-06-12T08:19:39.000Z</time>
      </trkpt>
      <trkpt lat="47.32219" lon="-1.64436">
        <ele>88</ele>
        <time>2021-06-12T08:19:40.000Z</time>
      </trkpt>
      <trkpt lat="47.32224" lon="-1.64425">
        <ele>87</ele>
        <time>2021-06-12T08:19:41.000Z</time>
      </trkpt>
      <trkpt lat="47.32229" lon="-1.64412">
        <ele>86</ele>
        <time>2021-06-12T08:19:42.000Z</time>
      </trkpt>
      <trkpt lat="47.32234" lon="-1.64399">
        <ele>86</ele>
        <time>2021-06-12T08:19:43.000Z</time>
      </trkpt>
      <trkpt lat="47.32239" lon="-1.64386">
        <ele>85</ele>
        <time>2021-06-12T08:19:44.000Z</time>
      </trkpt>
      <trkpt lat="47.32242" lon="-1.64372">
        <ele>83</ele>
        <time>2021-06-12T08:19:45.000Z</time>
      </trkpt>
      <trkpt lat="47.32248" lon="-1.64348">
        <ele>82</ele>
        <time>2021-06-12T08:19:47.000Z</time>
      </trkpt>
      <trkpt lat="47.32253" lon="-1.64329">
        <ele>81</ele>
        <time>2021-06-12T08:19:49.000Z</time>
      </trkpt>
      <trkpt lat="47.32257" lon="-1.64314">
        <ele>80</ele>
        <time>2021-06-12T08:19:51.000Z</time>
      </trkpt>
      <trkpt lat="47.32263" lon="-1.64303">
        <ele>80</ele>
        <time>2021-06-12T08:19:53.000Z</time>
      </trkpt>
      <trkpt lat="47.32275" lon="-1.64307">
        <ele>79</ele>
        <time>2021-06-12T08:19:55.000Z</time>
      </trkpt>
      <trkpt lat="47.32288" lon="-1.64314">
        <ele>77</ele>
        <time>2021-06-12T08:19:57.000Z</time>
      </trkpt>
      <trkpt lat="47.32302" lon="-1.64322">
        <ele>76</ele>
        <time>2021-06-12T08:19:59.000Z</time>
      </trkpt>
      <trkpt lat="47.32315" lon="-1.64329">
        <ele>76</ele>
        <time>2021-06-12T08:20:01.000Z</time>
      </trkpt>
      <trkpt lat="47.32329" lon="-1.64335">
        <ele>75</ele>
        <time>2021-06-12T08:20:03.000Z</time>
      </trkpt>
      <trkpt lat="47.32343" lon="-1.64339">
        <ele>75</ele>
        <time>2021-06-12T08:20:05.000Z</time>
      </trkpt>
      <trkpt lat="47.32357" lon="-1.64342">
        <ele>74</ele>
        <time>2021-06-12T08:20:07.000Z</time>
      </trkpt>
      <trkpt lat="47.32371" lon="-1.64345">
        <ele>74</ele>
        <time>2021-06-12T08:20:09.000Z</time>
      </trkpt>
      <trkpt lat="47.32384" lon="-1.64347">
        <ele>74</ele>
        <time>2021-06-12T08:20:11.000Z</time>
      </trkpt>
      <trkpt lat="47.32397" lon="-1.6435">
        <ele>74</ele>
        <time>2021-06-12T08:20:13.000Z</time>
      </trkpt>
      <trkpt lat="47.3241" lon="-1.64353">
        <ele>74</ele>
        <time>2021-06-12T08:20:15.000Z</time>
      </trkpt>
      <trkpt lat="47.32424" lon="-1.64355">
        <ele>73</ele>
        <time>2021-06-12T08:20:17.000Z</time>
      </trkpt>
      <trkpt lat="47.32437" lon="-1.64358">
        <ele>73</ele>
        <time>2021-06-12T08:20:19.000Z</time>
      </trkpt>
      <trkpt lat="47.3245" lon="-1.64362">
        <ele>73</ele>
        <time>2021-06-12T08:20:21.000Z</time>
      </trkpt>
      <trkpt lat="47.32462" lon="-1.64367">
        <ele>73</ele>
        <time>2021-06-12T08:20:23.000Z</time>
      </trkpt>
      <trkpt lat="47.32473" lon="-1.64375">
        <ele>73</ele>
        <time>2021-06-12T08:20:25.000Z</time>
      </trkpt>
      <trkpt lat="47.32484" lon="-1.64383">
        <ele>73</ele>
        <time>2021-06-12T08:20:27.000Z</time>
      </trkpt>
      <trkpt lat="47.32495" lon="-1.64389">
        <ele>73</ele>
        <time>2021-06-12T08:20:29.000Z</time>
      </trkpt>
      <trkpt lat="47.32506" lon="-1.64394">
        <ele>74</ele>
        <time>2021-06-12T08:20:31.000Z</time>
      </trkpt>
      <trkpt lat="47.32517" lon="-1.64397">
        <ele>74</ele>
        <time>2021-06-12T08:20:33.000Z</time>
      </trkpt>
      <trkpt lat="47.32528" lon="-1.64399">
        <ele>74</ele>
        <time>2021-06-12T08:20:35.000Z</time>
      </trkpt>
      <trkpt lat="47.32538" lon="-1.64398">
        <ele>74</ele>
        <time>2021-06-12T08:20:37.000Z</time>
      </trkpt>
      <trkpt lat="47.32548" lon="-1.64395">
        <ele>74</ele>
        <time>2021-06-12T08:20:39.000Z</time>
      </trkpt>
      <trkpt lat="47.32558" lon="-1.64394">
        <ele>75</ele>
        <time>2021-06-12T08:20:41.000Z</time>
      </trkpt>
      <trkpt lat="47.32567" lon="-1.64392">
        <ele>75</ele>
        <time>2021-06-12T08:20:43.000Z</time>
      </trkpt>
      <trkpt lat="47.32577" lon="-1.64389">
        <ele>76</ele>
        <time>2021-06-12T08:20:45.000Z</time>
      </trkpt>
      <trkpt lat="47.32586" lon="-1.64386">
        <ele>76</ele>
        <time>2021-06-12T08:20:47.000Z</time>
      </trkpt>
      <trkpt lat="47.32595" lon="-1.64384">
        <ele>77</ele>
        <time>2021-06-12T08:20:49.000Z</time>
      </trkpt>
      <trkpt lat="47.32608" lon="-1.6438">
        <ele>78</ele>
        <time>2021-06-12T08:20:52.000Z</time>
      </trkpt>
      <trkpt lat="47.32618" lon="-1.64377">
        <ele>78</ele>
        <time>2021-06-12T08:20:54.000Z</time>
      </trkpt>
      <trkpt lat="47.32626" lon="-1.64374">
        <ele>79</ele>
        <time>2021-06-12T08:20:56.000Z</time>
      </trkpt>
      <trkpt lat="47.32636" lon="-1.64371">
        <ele>79</ele>
        <time>2021-06-12T08:20:58.000Z</time>
      </trkpt>
      <trkpt lat="47.32645" lon="-1.64368">
        <ele>79</ele>
        <time>2021-06-12T08:21:00.000Z</time>
      </trkpt>
      <trkpt lat="47.32654" lon="-1.64365">
        <ele>80</ele>
        <time>2021-06-12T08:21:02.000Z</time>
      </trkpt>
      <trkpt lat="47.32663" lon="-1.64363">
        <ele>80</ele>
        <time>2021-06-12T08:21:04.000Z</time>
      </trkpt>
      <trkpt lat="47.32672" lon="-1.6436">
        <ele>80</ele>
        <time>2021-06-12T08:21:06.000Z</time>
      </trkpt>
      <trkpt lat="47.32682" lon="-1.64357">
        <ele>81</ele>
        <time>2021-06-12T08:21:08.000Z</time>
      </trkpt>
      <trkpt lat="47.32691" lon="-1.64355">
        <ele>81</ele>
        <time>2021-06-12T08:21:10.000Z</time>
      </trkpt>
      <trkpt lat="47.327" lon="-1.64353">
        <ele>81</ele>
        <time>2021-06-12T08:21:12.000Z</time>
      </trkpt>
      <trkpt lat="47.32713" lon="-1.64348">
        <ele>82</ele>
        <time>2021-06-12T08:21:15.000Z</time>
      </trkpt>
      <trkpt lat="47.32722" lon="-1.64345">
        <ele>82</ele>
        <time>2021-06-12T08:21:17.000Z</time>
      </trkpt>
      <trkpt lat="47.32731" lon="-1.64343">
        <ele>83</ele>
        <time>2021-06-12T08:21:19.000Z</time>
      </trkpt>
      <trkpt lat="47.32744" lon="-1.6434">
        <ele>84</ele>
        <time>2021-06-12T08:21:22.000Z</time>
      </trkpt>
      <trkpt lat="47.32753" lon="-1.64338">
        <ele>85</ele>
        <time>2021-06-12T08:21:24.000Z</time>
      </trkpt>
      <trkpt lat="47.32762" lon="-1.64337">
        <ele>86</ele>
        <time>2021-06-12T08:21:26.000Z</time>
      </trkpt>
      <trkpt lat="47.32772" lon="-1.64335">
        <ele>86</ele>
        <time>2021-06-12T08:21:28.000Z</time>
      </trkpt>
      <trkpt lat="47.32781" lon="-1.64333">
        <ele>86</ele>
        <time>2021-06-12T08:21:30.000Z</time>
      </trkpt>
      <trkpt lat="47.32791" lon="-1.64331">
        <ele>87</ele>
        <time>2021-06-12T08:21:32.000Z</time>
      </trkpt>
      <trkpt lat="47.32801" lon="-1.6433">
        <ele>87</ele>
        <time>2021-06-12T08:21:34.000Z</time>
      </trkpt>
      <trkpt lat="47.3281" lon="-1.64328">
        <ele>87</ele>
        <time>2021-06-12T08:21:36.000Z</time>
      </trkpt>
      <trkpt lat="47.32819" lon="-1.64327">
        <ele>88</ele>
        <time>2021-06-12T08:21:38.000Z</time>
      </trkpt>
      <trkpt lat="47.32829" lon="-1.64325">
        <ele>89</ele>
        <time>2021-06-12T08:21:40.000Z</time>
      </trkpt>
      <trkpt lat="47.32838" lon="-1.64324">
        <ele>89</ele>
        <time>2021-06-12T08:21:42.000Z</time>
      </trkpt>
      <trkpt lat="47.32848" lon="-1.64323">
        <ele>89</ele>
        <time>2021-06-12T08:21:44.000Z</time>
      </trkpt>
      <trkpt lat="47.32857" lon="-1.64322">
        <ele>90</ele>
        <time>2021-06-12T08:21:46.000Z</time>
      </trkpt>
      <trkpt lat="47.32866" lon="-1.6432">
        <ele>90</ele>
        <time>2021-06-12T08:21:48.000Z</time>
      </trkpt>
      <trkpt lat="47.32876" lon="-1.64318">
        <ele>91</ele>
        <time>2021-06-12T08:21:50.000Z</time>
      </trkpt>
      <trkpt lat="47.32885" lon="-1.64317">
        <ele>92</ele>
        <time>2021-06-12T08:21:52.000Z</time>
      </trkpt>
      <trkpt lat="47.32895" lon="-1.64315">
        <ele>92</ele>
        <time>2021-06-12T08:21:54.000Z</time>
      </trkpt>
      <trkpt lat="47.32904" lon="-1.64313">
        <ele>92</ele>
        <time>2021-06-12T08:21:56.000Z</time>
      </trkpt>
      <trkpt lat="47.32917" lon="-1.6431">
        <ele>93</ele>
        <time>2021-06-12T08:21:59.000Z</time>
      </trkpt>
      <trkpt lat="47.32926" lon="-1.64309">
        <ele>93</ele>
        <time>2021-06-12T08:22:01.000Z</time>
      </trkpt>
      <trkpt lat="47.32935" lon="-1.64308">
        <ele>94</ele>
        <time>2021-06-12T08:22:03.000Z</time>
      </trkpt>
      <trkpt lat="47.32945" lon="-1.64307">
        <ele>94</ele>
        <time>2021-06-12T08:22:05.000Z</time>
      </trkpt>
      <trkpt lat="47.32955" lon="-1.64307">
        <ele>94</ele>
        <time>2021-06-12T08:22:07.000Z</time>
      </trkpt>
      <trkpt lat="47.32964" lon="-1.64308">
        <ele>95</ele>
        <time>2021-06-12T08:22:09.000Z</time>
      </trkpt>
      <trkpt lat="47.32974" lon="-1.64309">
        <ele>96</ele>
        <time>2021-06-12T08:22:11.000Z</time>
      </trkpt>
      <trkpt lat="47.32983" lon="-1.6431">
        <ele>96</ele>
        <time>2021-06-12T08:22:13.000Z</time>
      </trkpt>
      <trkpt lat="47.32992" lon="-1.64312">
        <ele>96</ele>
        <time>2021-06-12T08:22:15.000Z</time>
      </trkpt>
      <trkpt lat="47.33001" lon="-1.64314">
        <ele>97</ele>
        <time>2021-06-12T08:22:17.000Z</time>
      </trkpt>
      <trkpt lat="47.3301" lon="-1.64317">
        <ele>98</ele>
        <time>2021-06-12T08:22:19.000Z</time>
      </trkpt>
      <trkpt lat="47.33022" lon="-1.6432">
        <ele>99</ele>
        <time>2021-06-12T08:22:22.000Z</time>
      </trkpt>
      <trkpt lat="47.33035" lon="-1.64323">
        <ele>100</ele>
        <time>2021-06-12T08:22:25.000Z</time>
      </trkpt>
      <trkpt lat="47.33047" lon="-1.64328">
        <ele>101</ele>
        <time>2021-06-12T08:22:28.000Z</time>
      </trkpt>
      <trkpt lat="47.3306" lon="-1.64333">
        <ele>102</ele>
        <time>2021-06-12T08:22:31.000Z</time>
      </trkpt>
      <trkpt lat="47.33073" lon="-1.64338">
        <ele>103</ele>
        <time>2021-06-12T08:22:34.000Z</time>
      </trkpt>
      <trkpt lat="47.33082" lon="-1.64341">
        <ele>104</ele>
        <time>2021-06-12T08:22:36.000Z</time>
      </trkpt>
      <trkpt lat="47.33094" lon="-1.64345">
        <ele>104</ele>
        <time>2021-06-12T08:22:39.000Z</time>
      </trkpt>
      <trkpt lat="47.33103" lon="-1.64346">
        <ele>105</ele>
        <time>2021-06-12T08:22:42.000Z</time>
      </trkpt>
      <trkpt lat="47.33113" lon="-1.64345">
        <ele>105</ele>
        <time>2021-06-12T08:22:45.000Z</time>
      </trkpt>
      <trkpt lat="47.33125" lon="-1.64344">
        <ele>106</ele>
        <time>2021-06-12T08:22:48.000Z</time>
      </trkpt>
      <trkpt lat="47.33134" lon="-1.64342">
        <ele>106</ele>
        <time>2021-06-12T08:22:50.000Z</time>
      </trkpt>
      <trkpt lat="47.33144" lon="-1.64339">
        <ele>107</ele>
        <time>2021-06-12T08:22:52.000Z</time>
      </trkpt>
      <trkpt lat="47.33153" lon="-1.64337">
        <ele>107</ele>
        <time>2021-06-12T08:22:54.000Z</time>
      </trkpt>
      <trkpt lat="47.33162" lon="-1.64334">
        <ele>108</ele>
        <time>2021-06-12T08:22:56.000Z</time>
      </trkpt>
      <trkpt lat="47.33175" lon="-1.64331">
        <ele>108</ele>
        <time>2021-06-12T08:22:59.000Z</time>
      </trkpt>
      <trkpt lat="47.33185" lon="-1.64327">
        <ele>109</ele>
        <time>2021-06-12T08:23:01.000Z</time>
      </trkpt>
      <trkpt lat="47.33194" lon="-1.64325">
        <ele>109</ele>
        <time>2021-06-12T08:23:03.000Z</time>
      </trkpt>
      <trkpt lat="47.33206" lon="-1.64321">
        <ele>110</ele>
        <time>2021-06-12T08:23:06.000Z</time>
      </trkpt>
      <trkpt lat="47.33219" lon="-1.64317">
        <ele>111</ele>
        <time>2021-06-12T08:23:09.000Z</time>
      </trkpt>
      <trkpt lat="47.33228" lon="-1.64314">
        <ele>111</ele>
        <time>2021-06-12T08:23:11.000Z</time>
      </trkpt>
      <trkpt lat="47.33237" lon="-1.64311">
        <ele>111</ele>
        <time>2021-06-12T08:23:13.000Z</time>
      </trkpt>
      <trkpt lat="47.33246" lon="-1.64307">
        <ele>111</ele>
        <time>2021-06-12T08:23:15.000Z</time>
      </trkpt>
      <trkpt lat="47.33255" lon="-1.64302">
        <ele>112</ele>
        <time>2021-06-12T08:23:17.000Z</time>
      </trkpt>
      <trkpt lat="47.33263" lon="-1.64294">
        <ele>112</ele>
        <time>2021-06-12T08:23:19.000Z</time>
      </trkpt>
      <trkpt lat="47.33271" lon="-1.64286">
        <ele>112</ele>
        <time>2021-06-12T08:23:21.000Z</time>
      </trkpt>
      <trkpt lat="47.33278" lon="-1.64277">
        <ele>111</ele>
        <time>2021-06-12T08:23:23.000Z</time>
      </trkpt>
      <trkpt lat="47.33286" lon="-1.64268">
        <ele>111</ele>
        <time>2021-06-12T08:23:25.000Z</time>
      </trkpt>
      <trkpt lat="47.33294" lon="-1.64258">
        <ele>111</ele>
        <time>2021-06-12T08:23:27.000Z</time>
      </trkpt>
      <trkpt lat="47.33302" lon="-1.64249">
        <ele>112</ele>
        <time>2021-06-12T08:23:29.000Z</time>
      </trkpt>
      <trkpt lat="47.3331" lon="-1.6424">
        <ele>112</ele>
        <time>2021-06-12T08:23:31.000Z</time>
      </trkpt>
      <trkpt lat="47.33318" lon="-1.6423">
        <ele>112</ele>
        <time>2021-06-12T08:23:33.000Z</time>
      </trkpt>
      <trkpt lat="47.33327" lon="-1.6422">
        <ele>113</ele>
        <time>2021-06-12T08:23:35.000Z</time>
      </trkpt>
      <trkpt lat="47.33335" lon="-1.64211">
        <ele>113</ele>
        <time>2021-06-12T08:23:37.000Z</time>
      </trkpt>
      <trkpt lat="47.33343" lon="-1.64201">
        <ele>114</ele>
        <time>2021-06-12T08:23:39.000Z</time>
      </trkpt>
      <trkpt lat="47.33351" lon="-1.64189">
        <ele>114</ele>
        <time>2021-06-12T08:23:41.000Z</time>
      </trkpt>
      <trkpt lat="47.33361" lon="-1.64179">
        <ele>114</ele>
        <time>2021-06-12T08:23:43.000Z</time>
      </trkpt>
      <trkpt lat="47.3337" lon="-1.64168">
        <ele>114</ele>
        <time>2021-06-12T08:23:45.000Z</time>
      </trkpt>
      <trkpt lat="47.3338" lon="-1.64157">
        <ele>115</ele>
        <time>2021-06-12T08:23:47.000Z</time>
      </trkpt>
      <trkpt lat="47.33389" lon="-1.64146">
        <ele>115</ele>
        <time>2021-06-12T08:23:49.000Z</time>
      </trkpt>
      <trkpt lat="47.33399" lon="-1.64134">
        <ele>115</ele>
        <time>2021-06-12T08:23:51.000Z</time>
      </trkpt>
      <trkpt lat="47.33408" lon="-1.64123">
        <ele>115</ele>
        <time>2021-06-12T08:23:53.000Z</time>
      </trkpt>
      <trkpt lat="47.33418" lon="-1.64112">
        <ele>115</ele>
        <time>2021-06-12T08:23:55.000Z</time>
      </trkpt>
      <trkpt lat="47.33428" lon="-1.64101">
        <ele>114</ele>
        <time>2021-06-12T08:23:57.000Z</time>
      </trkpt>
      <trkpt lat="47.33438" lon="-1.6409">
        <ele>114</ele>
        <time>2021-06-12T08:23:59.000Z</time>
      </trkpt>
      <trkpt lat="47.33448" lon="-1.64079">
        <ele>114</ele>
        <time>2021-06-12T08:24:01.000Z</time>
      </trkpt>
      <trkpt lat="47.33457" lon="-1.64067">
        <ele>114</ele>
        <time>2021-06-12T08:24:03.000Z</time>
      </trkpt>
      <trkpt lat="47.33467" lon="-1.64056">
        <ele>114</ele>
        <time>2021-06-12T08:24:05.000Z</time>
      </trkpt>
      <trkpt lat="47.33477" lon="-1.64045">
        <ele>114</ele>
        <time>2021-06-12T08:24:07.000Z</time>
      </trkpt>
      <trkpt lat="47.33487" lon="-1.64033">
        <ele>114</ele>
        <time>2021-06-12T08:24:09.000Z</time>
      </trkpt>
      <trkpt lat="47.33497" lon="-1.64022">
        <ele>114</ele>
        <time>2021-06-12T08:24:11.000Z</time>
      </trkpt>
      <trkpt lat="47.33507" lon="-1.6401">
        <ele>114</ele>
        <time>2021-06-12T08:24:13.000Z</time>
      </trkpt>
      <trkpt lat="47.33517" lon="-1.63999">
        <ele>114</ele>
        <time>2021-06-12T08:24:15.000Z</time>
      </trkpt>
      <trkpt lat="47.33527" lon="-1.63987">
        <ele>114</ele>
        <time>2021-06-12T08:24:17.000Z</time>
      </trkpt>
      <trkpt lat="47.33536" lon="-1.63974">
        <ele>114</ele>
        <time>2021-06-12T08:24:19.000Z</time>
      </trkpt>
      <trkpt lat="47.33546" lon="-1.63963">
        <ele>115</ele>
        <time>2021-06-12T08:24:21.000Z</time>
      </trkpt>
      <trkpt lat="47.33556" lon="-1.63952">
        <ele>114</ele>
        <time>2021-06-12T08:24:23.000Z</time>
      </trkpt>
      <trkpt lat="47.33565" lon="-1.6394">
        <ele>115</ele>
        <time>2021-06-12T08:24:25.000Z</time>
      </trkpt>
      <trkpt lat="47.33575" lon="-1.63929">
        <ele>115</ele>
        <time>2021-06-12T08:24:27.000Z</time>
      </trkpt>
      <trkpt lat="47.33585" lon="-1.63918">
        <ele>115</ele>
        <time>2021-06-12T08:24:29.000Z</time>
      </trkpt>
      <trkpt lat="47.33595" lon="-1.63906">
        <ele>115</ele>
        <time>2021-06-12T08:24:31.000Z</time>
      </trkpt>
      <trkpt lat="47.33605" lon="-1.63895">
        <ele>114</ele>
        <time>2021-06-12T08:24:33.000Z</time>
      </trkpt>
      <trkpt lat="47.33615" lon="-1.63884">
        <ele>115</ele>
        <time>2021-06-12T08:24:35.000Z</time>
      </trkpt>
      <trkpt lat="47.33624" lon="-1.63873">
        <ele>115</ele>
        <time>2021-06-12T08:24:37.000Z</time>
      </trkpt>
      <trkpt lat="47.33634" lon="-1.63862">
        <ele>115</ele>
        <time>2021-06-12T08:24:39.000Z</time>
      </trkpt>
      <trkpt lat="47.33643" lon="-1.6385">
        <ele>115</ele>
        <time>2021-06-12T08:24:41.000Z</time>
      </trkpt>
      <trkpt lat="47.33653" lon="-1.63837">
        <ele>116</ele>
        <time>2021-06-12T08:24:43.000Z</time>
      </trkpt>
      <trkpt lat="47.33663" lon="-1.63825">
        <ele>115</ele>
        <time>2021-06-12T08:24:45.000Z</time>
      </trkpt>
      <trkpt lat="47.33673" lon="-1.63813">
        <ele>115</ele>
        <time>2021-06-12T08:24:47.000Z</time>
      </trkpt>
      <trkpt lat="47.33683" lon="-1.63801">
        <ele>115</ele>
        <time>2021-06-12T08:24:49.000Z</time>
      </trkpt>
      <trkpt lat="47.33692" lon="-1.6379">
        <ele>114</ele>
        <time>2021-06-12T08:24:51.000Z</time>
      </trkpt>
      <trkpt lat="47.33702" lon="-1.63778">
        <ele>114</ele>
        <time>2021-06-12T08:24:53.000Z</time>
      </trkpt>
      <trkpt lat="47.33711" lon="-1.63767">
        <ele>114</ele>
        <time>2021-06-12T08:24:55.000Z</time>
      </trkpt>
      <trkpt lat="47.33721" lon="-1.63755">
        <ele>115</ele>
        <time>2021-06-12T08:24:57.000Z</time>
      </trkpt>
      <trkpt lat="47.3373" lon="-1.63745">
        <ele>115</ele>
        <time>2021-06-12T08:24:59.000Z</time>
      </trkpt>
      <trkpt lat="47.33739" lon="-1.63733">
        <ele>116</ele>
        <time>2021-06-12T08:25:01.000Z</time>
      </trkpt>
      <trkpt lat="47.33748" lon="-1.63722">
        <ele>116</ele>
        <time>2021-06-12T08:25:03.000Z</time>
      </trkpt>
      <trkpt lat="47.33758" lon="-1.6371">
        <ele>116</ele>
        <time>2021-06-12T08:25:05.000Z</time>
      </trkpt>
      <trkpt lat="47.33768" lon="-1.63698">
        <ele>116</ele>
        <time>2021-06-12T08:25:07.000Z</time>
      </trkpt>
      <trkpt lat="47.33778" lon="-1.63686">
        <ele>116</ele>
        <time>2021-06-12T08:25:09.000Z</time>
      </trkpt>
      <trkpt lat="47.33788" lon="-1.63674">
        <ele>117</ele>
        <time>2021-06-12T08:25:11.000Z</time>
      </trkpt>
      <trkpt lat="47.33798" lon="-1.63663">
        <ele>117</ele>
        <time>2021-06-12T08:25:13.000Z</time>
      </trkpt>
      <trkpt lat="47.33808" lon="-1.63651">
        <ele>117</ele>
        <time>2021-06-12T08:25:15.000Z</time>
      </trkpt>
      <trkpt lat="47.33818" lon="-1.6364">
        <ele>117</ele>
        <time>2021-06-12T08:25:17.000Z</time>
      </trkpt>
      <trkpt lat="47.33828" lon="-1.63629">
        <ele>116</ele>
        <time>2021-06-12T08:25:19.000Z</time>
      </trkpt>
      <trkpt lat="47.33837" lon="-1.63619">
        <ele>116</ele>
        <time>2021-06-12T08:25:21.000Z</time>
      </trkpt>
      <trkpt lat="47.33846" lon="-1.63609">
        <ele>115</ele>
        <time>2021-06-12T08:25:23.000Z</time>
      </trkpt>
      <trkpt lat="47.33854" lon="-1.636">
        <ele>115</ele>
        <time>2021-06-12T08:25:25.000Z</time>
      </trkpt>
      <trkpt lat="47.33863" lon="-1.63592">
        <ele>115</ele>
        <time>2021-06-12T08:25:29.000Z</time>
      </trkpt>
      <trkpt lat="47.33872" lon="-1.6358">
        <ele>114</ele>
        <time>2021-06-12T08:25:32.000Z</time>
      </trkpt>
      <trkpt lat="47.33881" lon="-1.6357">
        <ele>114</ele>
        <time>2021-06-12T08:25:34.000Z</time>
      </trkpt>
      <trkpt lat="47.3389" lon="-1.63559">
        <ele>114</ele>
        <time>2021-06-12T08:25:36.000Z</time>
      </trkpt>
      <trkpt lat="47.33899" lon="-1.63549">
        <ele>114</ele>
        <time>2021-06-12T08:25:38.000Z</time>
      </trkpt>
      <trkpt lat="47.3391" lon="-1.63537">
        <ele>114</ele>
        <time>2021-06-12T08:25:40.000Z</time>
      </trkpt>
      <trkpt lat="47.3392" lon="-1.63526">
        <ele>114</ele>
        <time>2021-06-12T08:25:42.000Z</time>
      </trkpt>
      <trkpt lat="47.33931" lon="-1.63517">
        <ele>114</ele>
        <time>2021-06-12T08:25:44.000Z</time>
      </trkpt>
      <trkpt lat="47.33942" lon="-1.63509">
        <ele>114</ele>
        <time>2021-06-12T08:25:46.000Z</time>
      </trkpt>
      <trkpt lat="47.33954" lon="-1.63502">
        <ele>114</ele>
        <time>2021-06-12T08:25:48.000Z</time>
      </trkpt>
      <trkpt lat="47.33966" lon="-1.63495">
        <ele>114</ele>
        <time>2021-06-12T08:25:50.000Z</time>
      </trkpt>
      <trkpt lat="47.33977" lon="-1.63489">
        <ele>114</ele>
        <time>2021-06-12T08:25:52.000Z</time>
      </trkpt>
      <trkpt lat="47.33989" lon="-1.63482">
        <ele>115</ele>
        <time>2021-06-12T08:25:54.000Z</time>
      </trkpt>
      <trkpt lat="47.34001" lon="-1.63476">
        <ele>114</ele>
        <time>2021-06-12T08:25:56.000Z</time>
      </trkpt>
      <trkpt lat="47.34013" lon="-1.63469">
        <ele>114</ele>
        <time>2021-06-12T08:25:58.000Z</time>
      </trkpt>
      <trkpt lat="47.34025" lon="-1.63462">
        <ele>114</ele>
        <time>2021-06-12T08:26:00.000Z</time>
      </trkpt>
      <trkpt lat="47.34037" lon="-1.63455">
        <ele>114</ele>
        <time>2021-06-12T08:26:02.000Z</time>
      </trkpt>
      <trkpt lat="47.34048" lon="-1.63447">
        <ele>114</ele>
        <time>2021-06-12T08:26:04.000Z</time>
      </trkpt>
      <trkpt lat="47.3406" lon="-1.63441">
        <ele>113</ele>
        <time>2021-06-12T08:26:06.000Z</time>
      </trkpt>
      <trkpt lat="47.34072" lon="-1.63434">
        <ele>113</ele>
        <time>2021-06-12T08:26:08.000Z</time>
      </trkpt>
      <trkpt lat="47.34084" lon="-1.63427">
        <ele>114</ele>
        <time>2021-06-12T08:26:10.000Z</time>
      </trkpt>
      <trkpt lat="47.34095" lon="-1.63419">
        <ele>114</ele>
        <time>2021-06-12T08:26:12.000Z</time>
      </trkpt>
      <trkpt lat="47.34107" lon="-1.63412">
        <ele>114</ele>
        <time>2021-06-12T08:26:14.000Z</time>
      </trkpt>
      <trkpt lat="47.34119" lon="-1.63405">
        <ele>115</ele>
        <time>2021-06-12T08:26:16.000Z</time>
      </trkpt>
      <trkpt lat="47.3413" lon="-1.63398">
        <ele>115</ele>
        <time>2021-06-12T08:26:18.000Z</time>
      </trkpt>
      <trkpt lat="47.34141" lon="-1.6339">
        <ele>115</ele>
        <time>2021-06-12T08:26:20.000Z</time>
      </trkpt>
      <trkpt lat="47.34153" lon="-1.63381">
        <ele>115</ele>
        <time>2021-06-12T08:26:22.000Z</time>
      </trkpt>
      <trkpt lat="47.34165" lon="-1.63371">
        <ele>114</ele>
        <time>2021-06-12T08:26:24.000Z</time>
      </trkpt>
      <trkpt lat="47.34176" lon="-1.63361">
        <ele>114</ele>
        <time>2021-06-12T08:26:26.000Z</time>
      </trkpt>
      <trkpt lat="47.34187" lon="-1.6335">
        <ele>114</ele>
        <time>2021-06-12T08:26:28.000Z</time>
      </trkpt>
      <trkpt lat="47.34198" lon="-1.63339">
        <ele>113</ele>
        <time>2021-06-12T08:26:30.000Z</time>
      </trkpt>
      <trkpt lat="47.34208" lon="-1.63328">
        <ele>113</ele>
        <time>2021-06-12T08:26:32.000Z</time>
      </trkpt>
      <trkpt lat="47.34219" lon="-1.63317">
        <ele>113</ele>
        <time>2021-06-12T08:26:34.000Z</time>
      </trkpt>
      <trkpt lat="47.34228" lon="-1.63305">
        <ele>112</ele>
        <time>2021-06-12T08:26:36.000Z</time>
      </trkpt>
      <trkpt lat="47.34237" lon="-1.6329">
        <ele>112</ele>
        <time>2021-06-12T08:26:38.000Z</time>
      </trkpt>
      <trkpt lat="47.34244" lon="-1.63275">
        <ele>112</ele>
        <time>2021-06-12T08:26:40.000Z</time>
      </trkpt>
      <trkpt lat="47.34251" lon="-1.63259">
        <ele>112</ele>
        <time>2021-06-12T08:26:42.000Z</time>
      </trkpt>
      <trkpt lat="47.34257" lon="-1.63241">
        <ele>111</ele>
        <time>2021-06-12T08:26:44.000Z</time>
      </trkpt>
      <trkpt lat="47.34264" lon="-1.63225">
        <ele>111</ele>
        <time>2021-06-12T08:26:46.000Z</time>
      </trkpt>
      <trkpt lat="47.3427" lon="-1.63207">
        <ele>111</ele>
        <time>2021-06-12T08:26:48.000Z</time>
      </trkpt>
      <trkpt lat="47.34277" lon="-1.6319">
        <ele>111</ele>
        <time>2021-06-12T08:26:50.000Z</time>
      </trkpt>
      <trkpt lat="47.34286" lon="-1.63175">
        <ele>111</ele>
        <time>2021-06-12T08:26:52.000Z</time>
      </trkpt>
      <trkpt lat="47.34296" lon="-1.63161">
        <ele>111</ele>
        <time>2021-06-12T08:26:54.000Z</time>
      </trkpt>
      <trkpt lat="47.34306" lon="-1.63148">
        <ele>110</ele>
        <time>2021-06-12T08:26:56.000Z</time>
      </trkpt>
      <trkpt lat="47.34317" lon="-1.63136">
        <ele>109</ele>
        <time>2021-06-12T08:26:58.000Z</time>
      </trkpt>
      <trkpt lat="47.34328" lon="-1.63124">
        <ele>109</ele>
        <time>2021-06-12T08:27:00.000Z</time>
      </trkpt>
      <trkpt lat="47.34338" lon="-1.63112">
        <ele>108</ele>
        <time>2021-06-12T08:27:02.000Z</time>
      </trkpt>
      <trkpt lat="47.34349" lon="-1.63101">
        <ele>108</ele>
        <time>2021-06-12T08:27:04.000Z</time>
      </trkpt>
      <trkpt lat="47.3436" lon="-1.6309">
        <ele>108</ele>
        <time>2021-06-12T08:27:06.000Z</time>
      </trkpt>
      <trkpt lat="47.34371" lon="-1.63079">
        <ele>107</ele>
        <time>2021-06-12T08:27:08.000Z</time>
      </trkpt>
      <trkpt lat="47.34382" lon="-1.63067">
        <ele>107</ele>
        <time>2021-06-12T08:27:10.000Z</time>
      </trkpt>
      <trkpt lat="47.34393" lon="-1.63056">
        <ele>107</ele>
        <time>2021-06-12T08:27:12.000Z</time>
      </trkpt>
      <trkpt lat="47.34404" lon="-1.63045">
        <ele>107</ele>
        <time>2021-06-12T08:27:14.000Z</time>
      </trkpt>
      <trkpt lat="47.34414" lon="-1.63034">
        <ele>107</ele>
        <time>2021-06-12T08:27:16.000Z</time>
      </trkpt>
      <trkpt lat="47.34424" lon="-1.63023">
        <ele>107</ele>
        <time>2021-06-12T08:27:18.000Z</time>
      </trkpt>
      <trkpt lat="47.34434" lon="-1.63011">
        <ele>107</ele>
        <time>2021-06-12T08:27:20.000Z</time>
      </trkpt>
      <trkpt lat="47.34445" lon="-1.63">
        <ele>107</ele>
        <time>2021-06-12T08:27:22.000Z</time>
      </trkpt>
      <trkpt lat="47.34456" lon="-1.62989">
        <ele>107</ele>
        <time>2021-06-12T08:27:24.000Z</time>
      </trkpt>
      <trkpt lat="47.34466" lon="-1.62978">
        <ele>107</ele>
        <time>2021-06-12T08:27:26.000Z</time>
      </trkpt>
      <trkpt lat="47.34477" lon="-1.62968">
        <ele>107</ele>
        <time>2021-06-12T08:27:28.000Z</time>
      </trkpt>
      <trkpt lat="47.34488" lon="-1.62957">
        <ele>107</ele>
        <time>2021-06-12T08:27:30.000Z</time>
      </trkpt>
      <trkpt lat="47.34498" lon="-1.62945">
        <ele>107</ele>
        <time>2021-06-12T08:27:32.000Z</time>
      </trkpt>
      <trkpt lat="47.34509" lon="-1.62934">
        <ele>107</ele>
        <time>2021-06-12T08:27:34.000Z</time>
      </trkpt>
      <trkpt lat="47.34519" lon="-1.62924">
        <ele>108</ele>
        <time>2021-06-12T08:27:36.000Z</time>
      </trkpt>
      <trkpt lat="47.3453" lon="-1.62913">
        <ele>108</ele>
        <time>2021-06-12T08:27:38.000Z</time>
      </trkpt>
      <trkpt lat="47.3454" lon="-1.62902">
        <ele>107</ele>
        <time>2021-06-12T08:27:40.000Z</time>
      </trkpt>
      <trkpt lat="47.34551" lon="-1.62891">
        <ele>107</ele>
        <time>2021-06-12T08:27:42.000Z</time>
      </trkpt>
      <trkpt lat="47.34562" lon="-1.6288">
        <ele>107</ele>
        <time>2021-06-12T08:27:44.000Z</time>
      </trkpt>
      <trkpt lat="47.34572" lon="-1.62869">
        <ele>107</ele>
        <time>2021-06-12T08:27:46.000Z</time>
      </trkpt>
      <trkpt lat="47.34583" lon="-1.62858">
        <ele>107</ele>
        <time>2021-06-12T08:27:48.000Z</time>
      </trkpt>
      <trkpt lat="47.34594" lon="-1.62847">
        <ele>107</ele>
        <time>2021-06-12T08:27:50.000Z</time>
      </trkpt>
      <trkpt lat="47.34604" lon="-1.62835">
        <ele>107</ele>
        <time>2021-06-12T08:27:52.000Z</time>
      </trkpt>
      <trkpt lat="47.34614" lon="-1.62823">
        <ele>107</ele>
        <time>2021-06-12T08:27:54.000Z</time>
      </trkpt>
      <trkpt lat="47.34623" lon="-1.6281">
        <ele>107</ele>
        <time>2021-06-12T08:27:56.000Z</time>
      </trkpt>
      <trkpt lat="47.34633" lon="-1.62796">
        <ele>107</ele>
        <time>2021-06-12T08:27:58.000Z</time>
      </trkpt>
      <trkpt lat="47.34643" lon="-1.62784">
        <ele>107</ele>
        <time>2021-06-12T08:28:00.000Z</time>
      </trkpt>
      <trkpt lat="47.34652" lon="-1.6277">
        <ele>107</ele>
        <time>2021-06-12T08:28:02.000Z</time>
      </trkpt>
      <trkpt lat="47.3466" lon="-1.62756">
        <ele>107</ele>
        <time>2021-06-12T08:28:04.000Z</time>
      </trkpt>
      <trkpt lat="47.34669" lon="-1.62743">
        <ele>107</ele>
        <time>2021-06-12T08:28:06.000Z</time>
      </trkpt>
      <trkpt lat="47.34676" lon="-1.62726">
        <ele>107</ele>
        <time>2021-06-12T08:28:08.000Z</time>
      </trkpt>
      <trkpt lat="47.34683" lon="-1.62709">
        <ele>106</ele>
        <time>2021-06-12T08:28:10.000Z</time>
      </trkpt>
      <trkpt lat="47.3469" lon="-1.62693">
        <ele>106</ele>
        <time>2021-06-12T08:28:12.000Z</time>
      </trkpt>
      <trkpt lat="47.34696" lon="-1.62677">
        <ele>106</ele>
        <time>2021-06-12T08:28:14.000Z</time>
      </trkpt>
      <trkpt lat="47.34702" lon="-1.62662">
        <ele>106</ele>
        <time>2021-06-12T08:28:16.000Z</time>
      </trkpt>
      <trkpt lat="47.34708" lon="-1.62647">
        <ele>106</ele>
        <time>2021-06-12T08:28:18.000Z</time>
      </trkpt>
      <trkpt lat="47.34713" lon="-1.62634">
        <ele>106</ele>
        <time>2021-06-12T08:28:20.000Z</time>
      </trkpt>
      <trkpt lat="47.34719" lon="-1.6262">
        <ele>106</ele>
        <time>2021-06-12T08:28:22.000Z</time>
      </trkpt>
      <trkpt lat="47.34723" lon="-1.62608">
        <ele>105</ele>
        <time>2021-06-12T08:28:24.000Z</time>
      </trkpt>
      <trkpt lat="47.34727" lon="-1.62595">
        <ele>104</ele>
        <time>2021-06-12T08:28:28.000Z</time>
      </trkpt>
      <trkpt lat="47.34728" lon="-1.6258">
        <ele>105</ele>
        <time>2021-06-12T08:28:51.000Z</time>
      </trkpt>
      <trkpt lat="47.34736" lon="-1.62566">
        <ele>105</ele>
        <time>2021-06-12T08:28:54.000Z</time>
      </trkpt>
      <trkpt lat="47.34744" lon="-1.62554">
        <ele>105</ele>
        <time>2021-06-12T08:28:56.000Z</time>
      </trkpt>
      <trkpt lat="47.34751" lon="-1.62538">
        <ele>105</ele>
        <time>2021-06-12T08:28:58.000Z</time>
      </trkpt>
      <trkpt lat="47.34758" lon="-1.62522">
        <ele>105</ele>
        <time>2021-06-12T08:29:00.000Z</time>
      </trkpt>
      <trkpt lat="47.34765" lon="-1.62505">
        <ele>105</ele>
        <time>2021-06-12T08:29:02.000Z</time>
      </trkpt>
      <trkpt lat="47.34772" lon="-1.62489">
        <ele>105</ele>
        <time>2021-06-12T08:29:04.000Z</time>
      </trkpt>
      <trkpt lat="47.34779" lon="-1.62472">
        <ele>105</ele>
        <time>2021-06-12T08:29:06.000Z</time>
      </trkpt>
      <trkpt lat="47.34787" lon="-1.62456">
        <ele>105</ele>
        <time>2021-06-12T08:29:08.000Z</time>
      </trkpt>
      <trkpt lat="47.34796" lon="-1.62441">
        <ele>105</ele>
        <time>2021-06-12T08:29:10.000Z</time>
      </trkpt>
      <trkpt lat="47.34806" lon="-1.62427">
        <ele>105</ele>
        <time>2021-06-12T08:29:12.000Z</time>
      </trkpt>
      <trkpt lat="47.34815" lon="-1.62413">
        <ele>104</ele>
        <time>2021-06-12T08:29:14.000Z</time>
      </trkpt>
      <trkpt lat="47.34823" lon="-1.62398">
        <ele>104</ele>
        <time>2021-06-12T08:29:16.000Z</time>
      </trkpt>
      <trkpt lat="47.34833" lon="-1.62384">
        <ele>105</ele>
        <time>2021-06-12T08:29:18.000Z</time>
      </trkpt>
      <trkpt lat="47.34842" lon="-1.62369">
        <ele>105</ele>
        <time>2021-06-12T08:29:20.000Z</time>
      </trkpt>
      <trkpt lat="47.34851" lon="-1.62355">
        <ele>105</ele>
        <time>2021-06-12T08:29:22.000Z</time>
      </trkpt>
      <trkpt lat="47.34859" lon="-1.62341">
        <ele>106</ele>
        <time>2021-06-12T08:29:24.000Z</time>
      </trkpt>
      <trkpt lat="47.34868" lon="-1.62327">
        <ele>106</ele>
        <time>2021-06-12T08:29:26.000Z</time>
      </trkpt>
      <trkpt lat="47.34878" lon="-1.62313">
        <ele>106</ele>
        <time>2021-06-12T08:29:28.000Z</time>
      </trkpt>
      <trkpt lat="47.34888" lon="-1.62298">
        <ele>106</ele>
        <time>2021-06-12T08:29:30.000Z</time>
      </trkpt>
      <trkpt lat="47.34897" lon="-1.62282">
        <ele>106</ele>
        <time>2021-06-12T08:29:32.000Z</time>
      </trkpt>
      <trkpt lat="47.34906" lon="-1.62268">
        <ele>106</ele>
        <time>2021-06-12T08:29:34.000Z</time>
      </trkpt>
      <trkpt lat="47.34915" lon="-1.62254">
        <ele>105</ele>
        <time>2021-06-12T08:29:36.000Z</time>
      </trkpt>
      <trkpt lat="47.34925" lon="-1.62241">
        <ele>106</ele>
        <time>2021-06-12T08:29:38.000Z</time>
      </trkpt>
      <trkpt lat="47.34936" lon="-1.62231">
        <ele>106</ele>
        <time>2021-06-12T08:29:40.000Z</time>
      </trkpt>
      <trkpt lat="47.34949" lon="-1.62224">
        <ele>105</ele>
        <time>2021-06-12T08:29:42.000Z</time>
      </trkpt>
      <trkpt lat="47.34962" lon="-1.62218">
        <ele>105</ele>
        <time>2021-06-12T08:29:44.000Z</time>
      </trkpt>
      <trkpt lat="47.34974" lon="-1.62212">
        <ele>105</ele>
        <time>2021-06-12T08:29:46.000Z</time>
      </trkpt>
      <trkpt lat="47.34987" lon="-1.62206">
        <ele>105</ele>
        <time>2021-06-12T08:29:48.000Z</time>
      </trkpt>
      <trkpt lat="47.34999" lon="-1.62198">
        <ele>105</ele>
        <time>2021-06-12T08:29:50.000Z</time>
      </trkpt>
      <trkpt lat="47.35017" lon="-1.6218">
        <ele>104</ele>
        <time>2021-06-12T08:29:53.000Z</time>
      </trkpt>
      <trkpt lat="47.35027" lon="-1.62167">
        <ele>104</ele>
        <time>2021-06-12T08:29:55.000Z</time>
      </trkpt>
      <trkpt lat="47.35037" lon="-1.62152">
        <ele>104</ele>
        <time>2021-06-12T08:29:57.000Z</time>
      </trkpt>
      <trkpt lat="47.35047" lon="-1.62137">
        <ele>104</ele>
        <time>2021-06-12T08:29:59.000Z</time>
      </trkpt>
      <trkpt lat="47.35058" lon="-1.62124">
        <ele>103</ele>
        <time>2021-06-12T08:30:01.000Z</time>
      </trkpt>
      <trkpt lat="47.35069" lon="-1.6211">
        <ele>102</ele>
        <time>2021-06-12T08:30:03.000Z</time>
      </trkpt>
      <trkpt lat="47.3508" lon="-1.62096">
        <ele>101</ele>
        <time>2021-06-12T08:30:05.000Z</time>
      </trkpt>
      <trkpt lat="47.35091" lon="-1.62081">
        <ele>100</ele>
        <time>2021-06-12T08:30:07.000Z</time>
      </trkpt>
      <trkpt lat="47.35102" lon="-1.62067">
        <ele>100</ele>
        <time>2021-06-12T08:30:09.000Z</time>
      </trkpt>
      <trkpt lat="47.3512" lon="-1.62043">
        <ele>100</ele>
        <time>2021-06-12T08:30:12.000Z</time>
      </trkpt>
      <trkpt lat="47.35132" lon="-1.62028">
        <ele>99</ele>
        <time>2021-06-12T08:30:14.000Z</time>
      </trkpt>
      <trkpt lat="47.35143" lon="-1.62012">
        <ele>99</ele>
        <time>2021-06-12T08:30:16.000Z</time>
      </trkpt>
      <trkpt lat="47.3516" lon="-1.61989">
        <ele>99</ele>
        <time>2021-06-12T08:30:19.000Z</time>
      </trkpt>
      <trkpt lat="47.35172" lon="-1.61974">
        <ele>99</ele>
        <time>2021-06-12T08:30:21.000Z</time>
      </trkpt>
      <trkpt lat="47.35184" lon="-1.61959">
        <ele>99</ele>
        <time>2021-06-12T08:30:23.000Z</time>
      </trkpt>
      <trkpt lat="47.35195" lon="-1.61945">
        <ele>98</ele>
        <time>2021-06-12T08:30:25.000Z</time>
      </trkpt>
      <trkpt lat="47.35213" lon="-1.61923">
        <ele>97</ele>
        <time>2021-06-12T08:30:28.000Z</time>
      </trkpt>
      <trkpt lat="47.35231" lon="-1.61901">
        <ele>96</ele>
        <time>2021-06-12T08:30:31.000Z</time>
      </trkpt>
      <trkpt lat="47.35242" lon="-1.61887">
        <ele>96</ele>
        <time>2021-06-12T08:30:33.000Z</time>
      </trkpt>
      <trkpt lat="47.35254" lon="-1.61874">
        <ele>96</ele>
        <time>2021-06-12T08:30:35.000Z</time>
      </trkpt>
      <trkpt lat="47.35265" lon="-1.6186">
        <ele>96</ele>
        <time>2021-06-12T08:30:37.000Z</time>
      </trkpt>
      <trkpt lat="47.35277" lon="-1.61847">
        <ele>95</ele>
        <time>2021-06-12T08:30:39.000Z</time>
      </trkpt>
      <trkpt lat="47.35289" lon="-1.61834">
        <ele>95</ele>
        <time>2021-06-12T08:30:41.000Z</time>
      </trkpt>
      <trkpt lat="47.353" lon="-1.6182">
        <ele>95</ele>
        <time>2021-06-12T08:30:43.000Z</time>
      </trkpt>
      <trkpt lat="47.35312" lon="-1.61807">
        <ele>95</ele>
        <time>2021-06-12T08:30:45.000Z</time>
      </trkpt>
      <trkpt lat="47.35324" lon="-1.61794">
        <ele>94</ele>
        <time>2021-06-12T08:30:47.000Z</time>
      </trkpt>
      <trkpt lat="47.35336" lon="-1.6178">
        <ele>95</ele>
        <time>2021-06-12T08:30:49.000Z</time>
      </trkpt>
      <trkpt lat="47.35348" lon="-1.61768">
        <ele>95</ele>
        <time>2021-06-12T08:30:51.000Z</time>
      </trkpt>
      <trkpt lat="47.35359" lon="-1.61755">
        <ele>95</ele>
        <time>2021-06-12T08:30:53.000Z</time>
      </trkpt>
      <trkpt lat="47.35371" lon="-1.61742">
        <ele>95</ele>
        <time>2021-06-12T08:30:55.000Z</time>
      </trkpt>
      <trkpt lat="47.35384" lon="-1.61731">
        <ele>95</ele>
        <time>2021-06-12T08:30:57.000Z</time>
      </trkpt>
      <trkpt lat="47.35397" lon="-1.6172">
        <ele>94</ele>
        <time>2021-06-12T08:30:59.000Z</time>
      </trkpt>
      <trkpt lat="47.35409" lon="-1.61709">
        <ele>94</ele>
        <time>2021-06-12T08:31:01.000Z</time>
      </trkpt>
      <trkpt lat="47.35422" lon="-1.61699">
        <ele>94</ele>
        <time>2021-06-12T08:31:03.000Z</time>
      </trkpt>
      <trkpt lat="47.35434" lon="-1.61688">
        <ele>94</ele>
        <time>2021-06-12T08:31:05.000Z</time>
      </trkpt>
      <trkpt lat="47.35447" lon="-1.61677">
        <ele>94</ele>
        <time>2021-06-12T08:31:07.000Z</time>
      </trkpt>
      <trkpt lat="47.3546" lon="-1.61667">
        <ele>93</ele>
        <time>2021-06-12T08:31:09.000Z</time>
      </trkpt>
      <trkpt lat="47.35473" lon="-1.61656">
        <ele>92</ele>
        <time>2021-06-12T08:31:11.000Z</time>
      </trkpt>
      <trkpt lat="47.35485" lon="-1.61646">
        <ele>92</ele>
        <time>2021-06-12T08:31:13.000Z</time>
      </trkpt>
      <trkpt lat="47.35501" lon="-1.61633">
        <ele>92</ele>
        <time>2021-06-12T08:31:16.000Z</time>
      </trkpt>
      <trkpt lat="47.35512" lon="-1.61617">
        <ele>92</ele>
        <time>2021-06-12T08:31:19.000Z</time>
      </trkpt>
      <trkpt lat="47.35511" lon="-1.61598">
        <ele>92</ele>
        <time>2021-06-12T08:31:21.000Z</time>
      </trkpt>
      <trkpt lat="47.35507" lon="-1.61577">
        <ele>91</ele>
        <time>2021-06-12T08:31:23.000Z</time>
      </trkpt>
      <trkpt lat="47.35504" lon="-1.61556">
        <ele>91</ele>
        <time>2021-06-12T08:31:25.000Z</time>
      </trkpt>
      <trkpt lat="47.35501" lon="-1.61534">
        <ele>90</ele>
        <time>2021-06-12T08:31:27.000Z</time>
      </trkpt>
      <trkpt lat="47.35498" lon="-1.61512">
        <ele>90</ele>
        <time>2021-06-12T08:31:29.000Z</time>
      </trkpt>
      <trkpt lat="47.35495" lon="-1.6149">
        <ele>90</ele>
        <time>2021-06-12T08:31:31.000Z</time>
      </trkpt>
      <trkpt lat="47.35492" lon="-1.61467">
        <ele>89</ele>
        <time>2021-06-12T08:31:33.000Z</time>
      </trkpt>
      <trkpt lat="47.35487" lon="-1.61433">
        <ele>88</ele>
        <time>2021-06-12T08:31:36.000Z</time>
      </trkpt>
      <trkpt lat="47.35484" lon="-1.61409">
        <ele>88</ele>
        <time>2021-06-12T08:31:38.000Z</time>
      </trkpt>
      <trkpt lat="47.35479" lon="-1.61387">
        <ele>88</ele>
        <time>2021-06-12T08:31:40.000Z</time>
      </trkpt>
      <trkpt lat="47.35475" lon="-1.61364">
        <ele>88</ele>
        <time>2021-06-12T08:31:42.000Z</time>
      </trkpt>
      <trkpt lat="47.3547" lon="-1.61342">
        <ele>88</ele>
        <time>2021-06-12T08:31:44.000Z</time>
      </trkpt>
      <trkpt lat="47.35465" lon="-1.61319">
        <ele>87</ele>
        <time>2021-06-12T08:31:46.000Z</time>
      </trkpt>
      <trkpt lat="47.35459" lon="-1.61296">
        <ele>87</ele>
        <time>2021-06-12T08:31:48.000Z</time>
      </trkpt>
      <trkpt lat="47.35454" lon="-1.61273">
        <ele>87</ele>
        <time>2021-06-12T08:31:50.000Z</time>
      </trkpt>
      <trkpt lat="47.35449" lon="-1.6125">
        <ele>86</ele>
        <time>2021-06-12T08:31:52.000Z</time>
      </trkpt>
      <trkpt lat="47.35445" lon="-1.61227">
        <ele>85</ele>
        <time>2021-06-12T08:31:54.000Z</time>
      </trkpt>
      <trkpt lat="47.35442" lon="-1.61206">
        <ele>85</ele>
        <time>2021-06-12T08:31:56.000Z</time>
      </trkpt>
      <trkpt lat="47.35439" lon="-1.61184">
        <ele>85</ele>
        <time>2021-06-12T08:31:58.000Z</time>
      </trkpt>
      <trkpt lat="47.35438" lon="-1.61162">
        <ele>85</ele>
        <time>2021-06-12T08:32:00.000Z</time>
      </trkpt>
      <trkpt lat="47.35439" lon="-1.6114">
        <ele>85</ele>
        <time>2021-06-12T08:32:02.000Z</time>
      </trkpt>
      <trkpt lat="47.35439" lon="-1.61118">
        <ele>85</ele>
        <time>2021-06-12T08:32:04.000Z</time>
      </trkpt>
      <trkpt lat="47.35439" lon="-1.61095">
        <ele>85</ele>
        <time>2021-06-12T08:32:06.000Z</time>
      </trkpt>
      <trkpt lat="47.35439" lon="-1.61074">
        <ele>85</ele>
        <time>2021-06-12T08:32:08.000Z</time>
      </trkpt>
      <trkpt lat="47.3544" lon="-1.61052">
        <ele>85</ele>
        <time>2021-06-12T08:32:10.000Z</time>
      </trkpt>
      <trkpt lat="47.35441" lon="-1.61031">
        <ele>85</ele>
        <time>2021-06-12T08:32:12.000Z</time>
      </trkpt>
      <trkpt lat="47.35441" lon="-1.6101">
        <ele>85</ele>
        <time>2021-06-12T08:32:14.000Z</time>
      </trkpt>
      <trkpt lat="47.35441" lon="-1.60978">
        <ele>85</ele>
        <time>2021-06-12T08:32:17.000Z</time>
      </trkpt>
      <trkpt lat="47.35441" lon="-1.60956">
        <ele>85</ele>
        <time>2021-06-12T08:32:19.000Z</time>
      </trkpt>
      <trkpt lat="47.35441" lon="-1.60935">
        <ele>85</ele>
        <time>2021-06-12T08:32:21.000Z</time>
      </trkpt>
      <trkpt lat="47.35441" lon="-1.60914">
        <ele>85</ele>
        <time>2021-06-12T08:32:23.000Z</time>
      </trkpt>
      <trkpt lat="47.35439" lon="-1.60893">
        <ele>85</ele>
        <time>2021-06-12T08:32:25.000Z</time>
      </trkpt>
      <trkpt lat="47.35436" lon="-1.60872">
        <ele>85</ele>
        <time>2021-06-12T08:32:27.000Z</time>
      </trkpt>
      <trkpt lat="47.35432" lon="-1.60853">
        <ele>85</ele>
        <time>2021-06-12T08:32:29.000Z</time>
      </trkpt>
      <trkpt lat="47.35429" lon="-1.60833">
        <ele>86</ele>
        <time>2021-06-12T08:32:31.000Z</time>
      </trkpt>
      <trkpt lat="47.35425" lon="-1.60813">
        <ele>86</ele>
        <time>2021-06-12T08:32:33.000Z</time>
      </trkpt>
      <trkpt lat="47.35422" lon="-1.60795">
        <ele>87</ele>
        <time>2021-06-12T08:32:35.000Z</time>
      </trkpt>
      <trkpt lat="47.35418" lon="-1.60776">
        <ele>87</ele>
        <time>2021-06-12T08:32:37.000Z</time>
      </trkpt>
      <trkpt lat="47.35415" lon="-1.60758">
        <ele>88</ele>
        <time>2021-06-12T08:32:39.000Z</time>
      </trkpt>
      <trkpt lat="47.35412" lon="-1.60739">
        <ele>89</ele>
        <time>2021-06-12T08:32:41.000Z</time>
      </trkpt>
      <trkpt lat="47.3541" lon="-1.60718">
        <ele>89</ele>
        <time>2021-06-12T08:32:43.000Z</time>
      </trkpt>
      <trkpt lat="47.35409" lon="-1.60699">
        <ele>90</ele>
        <time>2021-06-12T08:32:45.000Z</time>
      </trkpt>
      <trkpt lat="47.3541" lon="-1.6068">
        <ele>90</ele>
        <time>2021-06-12T08:32:47.000Z</time>
      </trkpt>
      <trkpt lat="47.3541" lon="-1.60661">
        <ele>90</ele>
        <time>2021-06-12T08:32:49.000Z</time>
      </trkpt>
      <trkpt lat="47.3541" lon="-1.60642">
        <ele>91</ele>
        <time>2021-06-12T08:32:51.000Z</time>
      </trkpt>
      <trkpt lat="47.3541" lon="-1.60624">
        <ele>91</ele>
        <time>2021-06-12T08:32:53.000Z</time>
      </trkpt>
      <trkpt lat="47.35411" lon="-1.60606">
        <ele>91</ele>
        <time>2021-06-12T08:32:55.000Z</time>
      </trkpt>
      <trkpt lat="47.35411" lon="-1.60588">
        <ele>91</ele>
        <time>2021-06-12T08:32:57.000Z</time>
      </trkpt>
      <trkpt lat="47.35412" lon="-1.60571">
        <ele>91</ele>
        <time>2021-06-12T08:32:59.000Z</time>
      </trkpt>
      <trkpt lat="47.35412" lon="-1.60556">
        <ele>91</ele>
        <time>2021-06-12T08:33:01.000Z</time>
      </trkpt>
      <trkpt lat="47.35412" lon="-1.60541">
        <ele>91</ele>
        <time>2021-06-12T08:33:03.000Z</time>
      </trkpt>
      <trkpt lat="47.35412" lon="-1.60527">
        <ele>91</ele>
        <time>2021-06-12T08:33:05.000Z</time>
      </trkpt>
      <trkpt lat="47.35412" lon="-1.60506">
        <ele>91</ele>
        <time>2021-06-12T08:33:09.000Z</time>
      </trkpt>
      <trkpt lat="47.35413" lon="-1.60486">
        <ele>91</ele>
        <time>2021-06-12T08:33:12.000Z</time>
      </trkpt>
      <trkpt lat="47.35414" lon="-1.60468">
        <ele>91</ele>
        <time>2021-06-12T08:33:14.000Z</time>
      </trkpt>
      <trkpt lat="47.35414" lon="-1.60449">
        <ele>91</ele>
        <time>2021-06-12T08:33:16.000Z</time>
      </trkpt>
      <trkpt lat="47.35415" lon="-1.6043">
        <ele>91</ele>
        <time>2021-06-12T08:33:18.000Z</time>
      </trkpt>
      <trkpt lat="47.35415" lon="-1.60411">
        <ele>91</ele>
        <time>2021-06-12T08:33:20.000Z</time>
      </trkpt>
      <trkpt lat="47.35416" lon="-1.60393">
        <ele>91</ele>
        <time>2021-06-12T08:33:22.000Z</time>
      </trkpt>
      <trkpt lat="47.35417" lon="-1.60375">
        <ele>91</ele>
        <time>2021-06-12T08:33:24.000Z</time>
      </trkpt>
      <trkpt lat="47.35418" lon="-1.60356">
        <ele>91</ele>
        <time>2021-06-12T08:33:26.000Z</time>
      </trkpt>
      <trkpt lat="47.35419" lon="-1.60337">
        <ele>91</ele>
        <time>2021-06-12T08:33:28.000Z</time>
      </trkpt>
      <trkpt lat="47.3542" lon="-1.60319">
        <ele>91</ele>
        <time>2021-06-12T08:33:30.000Z</time>
      </trkpt>
      <trkpt lat="47.3542" lon="-1.603">
        <ele>91</ele>
        <time>2021-06-12T08:33:32.000Z</time>
      </trkpt>
      <trkpt lat="47.3542" lon="-1.60281">
        <ele>91</ele>
        <time>2021-06-12T08:33:34.000Z</time>
      </trkpt>
      <trkpt lat="47.35421" lon="-1.60254">
        <ele>91</ele>
        <time>2021-06-12T08:33:37.000Z</time>
      </trkpt>
      <trkpt lat="47.35422" lon="-1.60235">
        <ele>91</ele>
        <time>2021-06-12T08:33:39.000Z</time>
      </trkpt>
      <trkpt lat="47.35422" lon="-1.60216">
        <ele>91</ele>
        <time>2021-06-12T08:33:41.000Z</time>
      </trkpt>
      <trkpt lat="47.35422" lon="-1.60197">
        <ele>91</ele>
        <time>2021-06-12T08:33:43.000Z</time>
      </trkpt>
      <trkpt lat="47.35422" lon="-1.60178">
        <ele>91</ele>
        <time>2021-06-12T08:33:45.000Z</time>
      </trkpt>
      <trkpt lat="47.35421" lon="-1.60159">
        <ele>91</ele>
        <time>2021-06-12T08:33:47.000Z</time>
      </trkpt>
      <trkpt lat="47.35419" lon="-1.60139">
        <ele>91</ele>
        <time>2021-06-12T08:33:49.000Z</time>
      </trkpt>
      <trkpt lat="47.35417" lon="-1.60119">
        <ele>91</ele>
        <time>2021-06-12T08:33:51.000Z</time>
      </trkpt>
      <trkpt lat="47.35417" lon="-1.60099">
        <ele>91</ele>
        <time>2021-06-12T08:33:53.000Z</time>
      </trkpt>
      <trkpt lat="47.3542" lon="-1.6008">
        <ele>91</ele>
        <time>2021-06-12T08:33:55.000Z</time>
      </trkpt>
      <trkpt lat="47.35425" lon="-1.6006">
        <ele>91</ele>
        <time>2021-06-12T08:33:57.000Z</time>
      </trkpt>
      <trkpt lat="47.3543" lon="-1.60041">
        <ele>90</ele>
        <time>2021-06-12T08:33:59.000Z</time>
      </trkpt>
      <trkpt lat="47.35435" lon="-1.60022">
        <ele>90</ele>
        <time>2021-06-12T08:34:01.000Z</time>
      </trkpt>
      <trkpt lat="47.3544" lon="-1.60003">
        <ele>90</ele>
        <time>2021-06-12T08:34:03.000Z</time>
      </trkpt>
      <trkpt lat="47.35445" lon="-1.59984">
        <ele>90</ele>
        <time>2021-06-12T08:34:05.000Z</time>
      </trkpt>
      <trkpt lat="47.35448" lon="-1.59965">
        <ele>90</ele>
        <time>2021-06-12T08:34:07.000Z</time>
      </trkpt>
      <trkpt lat="47.35451" lon="-1.59947">
        <ele>89</ele>
        <time>2021-06-12T08:34:09.000Z</time>
      </trkpt>
      <trkpt lat="47.35454" lon="-1.59929">
        <ele>89</ele>
        <time>2021-06-12T08:34:11.000Z</time>
      </trkpt>
      <trkpt lat="47.35456" lon="-1.5991">
        <ele>90</ele>
        <time>2021-06-12T08:34:13.000Z</time>
      </trkpt>
      <trkpt lat="47.35458" lon="-1.59892">
        <ele>90</ele>
        <time>2021-06-12T08:34:15.000Z</time>
      </trkpt>
      <trkpt lat="47.35461" lon="-1.59874">
        <ele>90</ele>
        <time>2021-06-12T08:34:17.000Z</time>
      </trkpt>
      <trkpt lat="47.35462" lon="-1.59856">
        <ele>90</ele>
        <time>2021-06-12T08:34:19.000Z</time>
      </trkpt>
      <trkpt lat="47.35464" lon="-1.59838">
        <ele>91</ele>
        <time>2021-06-12T08:34:21.000Z</time>
      </trkpt>
      <trkpt lat="47.35466" lon="-1.59822">
        <ele>91</ele>
        <time>2021-06-12T08:34:23.000Z</time>
      </trkpt>
      <trkpt lat="47.35468" lon="-1.59807">
        <ele>92</ele>
        <time>2021-06-12T08:34:25.000Z</time>
      </trkpt>
      <trkpt lat="47.35464" lon="-1.59791">
        <ele>92</ele>
        <time>2021-06-12T08:34:28.000Z</time>
      </trkpt>
      <trkpt lat="47.35453" lon="-1.59788">
        <ele>92</ele>
        <time>2021-06-12T08:34:30.000Z</time>
      </trkpt>
      <trkpt lat="47.35441" lon="-1.59784">
        <ele>93</ele>
        <time>2021-06-12T08:34:32.000Z</time>
      </trkpt>
      <trkpt lat="47.35428" lon="-1.59781">
        <ele>92</ele>
        <time>2021-06-12T08:34:34.000Z</time>
      </trkpt>
      <trkpt lat="47.35414" lon="-1.59776">
        <ele>92</ele>
        <time>2021-06-12T08:34:36.000Z</time>
      </trkpt>
      <trkpt lat="47.354" lon="-1.59772">
        <ele>92</ele>
        <time>2021-06-12T08:34:38.000Z</time>
      </trkpt>
      <trkpt lat="47.35386" lon="-1.59767">
        <ele>92</ele>
        <time>2021-06-12T08:34:40.000Z</time>
      </trkpt>
      <trkpt lat="47.35372" lon="-1.59762">
        <ele>92</ele>
        <time>2021-06-12T08:34:42.000Z</time>
      </trkpt>
      <trkpt lat="47.35357" lon="-1.59755">
        <ele>91</ele>
        <time>2021-06-12T08:34:44.000Z</time>
      </trkpt>
      <trkpt lat="47.35343" lon="-1.59747">
        <ele>91</ele>
        <time>2021-06-12T08:34:46.000Z</time>
      </trkpt>
      <trkpt lat="47.35329" lon="-1.59736">
        <ele>90</ele>
        <time>2021-06-12T08:34:48.000Z</time>
      </trkpt>
      <trkpt lat="47.35315" lon="-1.59722">
        <ele>89</ele>
        <time>2021-06-12T08:34:50.000Z</time>
      </trkpt>
      <trkpt lat="47.35301" lon="-1.59706">
        <ele>89</ele>
        <time>2021-06-12T08:34:52.000Z</time>
      </trkpt>
      <trkpt lat="47.35288" lon="-1.5969">
        <ele>89</ele>
        <time>2021-06-12T08:34:54.000Z</time>
      </trkpt>
      <trkpt lat="47.35274" lon="-1.59672">
        <ele>88</ele>
        <time>2021-06-12T08:34:56.000Z</time>
      </trkpt>
      <trkpt lat="47.35267" lon="-1.59664">
        <ele>87</ele>
        <time>2021-06-12T08:34:57.000Z</time>
      </trkpt>
      <trkpt lat="47.35259" lon="-1.59655">
        <ele>87</ele>
        <time>2021-06-12T08:34:58.000Z</time>
      </trkpt>
      <trkpt lat="47.35245" lon="-1.59638">
        <ele>86</ele>
        <time>2021-06-12T08:35:00.000Z</time>
      </trkpt>
      <trkpt lat="47.35238" lon="-1.5963">
        <ele>86</ele>
        <time>2021-06-12T08:35:01.000Z</time>
      </trkpt>
      <trkpt lat="47.35231" lon="-1.59621">
        <ele>85</ele>
        <time>2021-06-12T08:35:02.000Z</time>
      </trkpt>
      <trkpt lat="47.35223" lon="-1.59612">
        <ele>85</ele>
        <time>2021-06-12T08:35:03.000Z</time>
      </trkpt>
      <trkpt lat="47.35216" lon="-1.59602">
        <ele>85</ele>
        <time>2021-06-12T08:35:04.000Z</time>
      </trkpt>
      <trkpt lat="47.35209" lon="-1.59593">
        <ele>85</ele>
        <time>2021-06-12T08:35:05.000Z</time>
      </trkpt>
      <trkpt lat="47.35202" lon="-1.59583">
        <ele>85</ele>
        <time>2021-06-12T08:35:06.000Z</time>
      </trkpt>
      <trkpt lat="47.35194" lon="-1.59574">
        <ele>84</ele>
        <time>2021-06-12T08:35:07.000Z</time>
      </trkpt>
      <trkpt lat="47.35186" lon="-1.59564">
        <ele>84</ele>
        <time>2021-06-12T08:35:08.000Z</time>
      </trkpt>
      <trkpt lat="47.35179" lon="-1.59554">
        <ele>83</ele>
        <time>2021-06-12T08:35:09.000Z</time>
      </trkpt>
      <trkpt lat="47.35172" lon="-1.59544">
        <ele>83</ele>
        <time>2021-06-12T08:35:10.000Z</time>
      </trkpt>
      <trkpt lat="47.35164" lon="-1.59534">
        <ele>82</ele>
        <time>2021-06-12T08:35:11.000Z</time>
      </trkpt>
      <trkpt lat="47.35156" lon="-1.59525">
        <ele>81</ele>
        <time>2021-06-12T08:35:12.000Z</time>
      </trkpt>
      <trkpt lat="47.35148" lon="-1.59515">
        <ele>80</ele>
        <time>2021-06-12T08:35:13.000Z</time>
      </trkpt>
      <trkpt lat="47.3514" lon="-1.59505">
        <ele>79</ele>
        <time>2021-06-12T08:35:14.000Z</time>
      </trkpt>
      <trkpt lat="47.35132" lon="-1.59496">
        <ele>79</ele>
        <time>2021-06-12T08:35:15.000Z</time>
      </trkpt>
      <trkpt lat="47.35124" lon="-1.59487">
        <ele>79</ele>
        <time>2021-06-12T08:35:16.000Z</time>
      </trkpt>
      <trkpt lat="47.35116" lon="-1.59477">
        <ele>78</ele>
        <time>2021-06-12T08:35:17.000Z</time>
      </trkpt>
      <trkpt lat="47.35108" lon="-1.59467">
        <ele>78</ele>
        <time>2021-06-12T08:35:18.000Z</time>
      </trkpt>
      <trkpt lat="47.35101" lon="-1.59458">
        <ele>77</ele>
        <time>2021-06-12T08:35:19.000Z</time>
      </trkpt>
      <trkpt lat="47.35093" lon="-1.59449">
        <ele>77</ele>
        <time>2021-06-12T08:35:20.000Z</time>
      </trkpt>
      <trkpt lat="47.35086" lon="-1.59439">
        <ele>77</ele>
        <time>2021-06-12T08:35:21.000Z</time>
      </trkpt>
      <trkpt lat="47.35078" lon="-1.59431">
        <ele>77</ele>
        <time>2021-06-12T08:35:22.000Z</time>
      </trkpt>
      <trkpt lat="47.35071" lon="-1.59423">
        <ele>77</ele>
        <time>2021-06-12T08:35:23.000Z</time>
      </trkpt>
      <trkpt lat="47.35059" lon="-1.59408">
        <ele>77</ele>
        <time>2021-06-12T08:35:25.000Z</time>
      </trkpt>
      <trkpt lat="47.35048" lon="-1.59395">
        <ele>78</ele>
        <time>2021-06-12T08:35:27.000Z</time>
      </trkpt>
      <trkpt lat="47.35038" lon="-1.59382">
        <ele>78</ele>
        <time>2021-06-12T08:35:29.000Z</time>
      </trkpt>
      <trkpt lat="47.35028" lon="-1.59371">
        <ele>79</ele>
        <time>2021-06-12T08:35:31.000Z</time>
      </trkpt>
      <trkpt lat="47.35019" lon="-1.59359">
        <ele>79</ele>
        <time>2021-06-12T08:35:33.000Z</time>
      </trkpt>
      <trkpt lat="47.35011" lon="-1.59349">
        <ele>79</ele>
        <time>2021-06-12T08:35:35.000Z</time>
      </trkpt>
      <trkpt lat="47.35002" lon="-1.59338">
        <ele>80</ele>
        <time>2021-06-12T08:35:37.000Z</time>
      </trkpt>
      <trkpt lat="47.34994" lon="-1.59327">
        <ele>80</ele>
        <time>2021-06-12T08:35:39.000Z</time>
      </trkpt>
      <trkpt lat="47.34986" lon="-1.59317">
        <ele>81</ele>
        <time>2021-06-12T08:35:41.000Z</time>
      </trkpt>
      <trkpt lat="47.34978" lon="-1.59308">
        <ele>81</ele>
        <time>2021-06-12T08:35:43.000Z</time>
      </trkpt>
      <trkpt lat="47.3497" lon="-1.59299">
        <ele>82</ele>
        <time>2021-06-12T08:35:45.000Z</time>
      </trkpt>
      <trkpt lat="47.34963" lon="-1.59291">
        <ele>83</ele>
        <time>2021-06-12T08:35:47.000Z</time>
      </trkpt>
      <trkpt lat="47.34955" lon="-1.59282">
        <ele>84</ele>
        <time>2021-06-12T08:35:49.000Z</time>
      </trkpt>
      <trkpt lat="47.34947" lon="-1.59274">
        <ele>85</ele>
        <time>2021-06-12T08:35:51.000Z</time>
      </trkpt>
      <trkpt lat="47.34939" lon="-1.59265">
        <ele>85</ele>
        <time>2021-06-12T08:35:53.000Z</time>
      </trkpt>
      <trkpt lat="47.34931" lon="-1.59257">
        <ele>85</ele>
        <time>2021-06-12T08:35:55.000Z</time>
      </trkpt>
      <trkpt lat="47.34925" lon="-1.59247">
        <ele>86</ele>
        <time>2021-06-12T08:35:57.000Z</time>
      </trkpt>
      <trkpt lat="47.34917" lon="-1.59237">
        <ele>86</ele>
        <time>2021-06-12T08:35:59.000Z</time>
      </trkpt>
      <trkpt lat="47.3491" lon="-1.59228">
        <ele>87</ele>
        <time>2021-06-12T08:36:01.000Z</time>
      </trkpt>
      <trkpt lat="47.34902" lon="-1.59219">
        <ele>87</ele>
        <time>2021-06-12T08:36:03.000Z</time>
      </trkpt>
      <trkpt lat="47.34894" lon="-1.5921">
        <ele>88</ele>
        <time>2021-06-12T08:36:05.000Z</time>
      </trkpt>
      <trkpt lat="47.34887" lon="-1.592">
        <ele>88</ele>
        <time>2021-06-12T08:36:07.000Z</time>
      </trkpt>
      <trkpt lat="47.3488" lon="-1.5919">
        <ele>88</ele>
        <time>2021-06-12T08:36:09.000Z</time>
      </trkpt>
      <trkpt lat="47.34873" lon="-1.59181">
        <ele>89</ele>
        <time>2021-06-12T08:36:11.000Z</time>
      </trkpt>
      <trkpt lat="47.34865" lon="-1.59171">
        <ele>88</ele>
        <time>2021-06-12T08:36:13.000Z</time>
      </trkpt>
      <trkpt lat="47.34858" lon="-1.59161">
        <ele>89</ele>
        <time>2021-06-12T08:36:15.000Z</time>
      </trkpt>
      <trkpt lat="47.3485" lon="-1.59151">
        <ele>89</ele>
        <time>2021-06-12T08:36:17.000Z</time>
      </trkpt>
      <trkpt lat="47.34842" lon="-1.59141">
        <ele>89</ele>
        <time>2021-06-12T08:36:19.000Z</time>
      </trkpt>
      <trkpt lat="47.34834" lon="-1.59132">
        <ele>89</ele>
        <time>2021-06-12T08:36:21.000Z</time>
      </trkpt>
      <trkpt lat="47.34825" lon="-1.59123">
        <ele>89</ele>
        <time>2021-06-12T08:36:23.000Z</time>
      </trkpt>
      <trkpt lat="47.34818" lon="-1.59114">
        <ele>89</ele>
        <time>2021-06-12T08:36:25.000Z</time>
      </trkpt>
      <trkpt lat="47.3481" lon="-1.59104">
        <ele>90</ele>
        <time>2021-06-12T08:36:27.000Z</time>
      </trkpt>
      <trkpt lat="47.34802" lon="-1.59095">
        <ele>90</ele>
        <time>2021-06-12T08:36:29.000Z</time>
      </trkpt>
      <trkpt lat="47.34795" lon="-1.59086">
        <ele>90</ele>
        <time>2021-06-12T08:36:31.000Z</time>
      </trkpt>
      <trkpt lat="47.34787" lon="-1.59077">
        <ele>91</ele>
        <time>2021-06-12T08:36:33.000Z</time>
      </trkpt>
      <trkpt lat="47.34779" lon="-1.59067">
        <ele>91</ele>
        <time>2021-06-12T08:36:35.000Z</time>
      </trkpt>
      <trkpt lat="47.34771" lon="-1.59058">
        <ele>92</ele>
        <time>2021-06-12T08:36:37.000Z</time>
      </trkpt>
      <trkpt lat="47.34763" lon="-1.59049">
        <ele>92</ele>
        <time>2021-06-12T08:36:39.000Z</time>
      </trkpt>
      <trkpt lat="47.34755" lon="-1.59039">
        <ele>92</ele>
        <time>2021-06-12T08:36:41.000Z</time>
      </trkpt>
      <trkpt lat="47.34748" lon="-1.59028">
        <ele>92</ele>
        <time>2021-06-12T08:36:43.000Z</time>
      </trkpt>
      <trkpt lat="47.3474" lon="-1.59018">
        <ele>92</ele>
        <time>2021-06-12T08:36:45.000Z</time>
      </trkpt>
      <trkpt lat="47.34732" lon="-1.59008">
        <ele>92</ele>
        <time>2021-06-12T08:36:47.000Z</time>
      </trkpt>
      <trkpt lat="47.34724" lon="-1.58998">
        <ele>92</ele>
        <time>2021-06-12T08:36:49.000Z</time>
      </trkpt>
      <trkpt lat="47.34715" lon="-1.58987">
        <ele>92</ele>
        <time>2021-06-12T08:36:51.000Z</time>
      </trkpt>
      <trkpt lat="47.34707" lon="-1.58977">
        <ele>92</ele>
        <time>2021-06-12T08:36:53.000Z</time>
      </trkpt>
      <trkpt lat="47.34698" lon="-1.58967">
        <ele>92</ele>
        <time>2021-06-12T08:36:55.000Z</time>
      </trkpt>
      <trkpt lat="47.3469" lon="-1.58956">
        <ele>92</ele>
        <time>2021-06-12T08:36:57.000Z</time>
      </trkpt>
      <trkpt lat="47.34681" lon="-1.58946">
        <ele>92</ele>
        <time>2021-06-12T08:36:59.000Z</time>
      </trkpt>
      <trkpt lat="47.34672" lon="-1.58936">
        <ele>92</ele>
        <time>2021-06-12T08:37:01.000Z</time>
      </trkpt>
      <trkpt lat="47.34664" lon="-1.58925">
        <ele>92</ele>
        <time>2021-06-12T08:37:03.000Z</time>
      </trkpt>
      <trkpt lat="47.34655" lon="-1.58915">
        <ele>92</ele>
        <time>2021-06-12T08:37:05.000Z</time>
      </trkpt>
      <trkpt lat="47.34646" lon="-1.58904">
        <ele>92</ele>
        <time>2021-06-12T08:37:07.000Z</time>
      </trkpt>
      <trkpt lat="47.34637" lon="-1.58892">
        <ele>92</ele>
        <time>2021-06-12T08:37:09.000Z</time>
      </trkpt>
      <trkpt lat="47.34627" lon="-1.58881">
        <ele>92</ele>
        <time>2021-06-12T08:37:11.000Z</time>
      </trkpt>
      <trkpt lat="47.34618" lon="-1.5887">
        <ele>92</ele>
        <time>2021-06-12T08:37:13.000Z</time>
      </trkpt>
      <trkpt lat="47.34609" lon="-1.58859">
        <ele>93</ele>
        <time>2021-06-12T08:37:15.000Z</time>
      </trkpt>
      <trkpt lat="47.346" lon="-1.58847">
        <ele>93</ele>
        <time>2021-06-12T08:37:17.000Z</time>
      </trkpt>
      <trkpt lat="47.3459" lon="-1.58836">
        <ele>93</ele>
        <time>2021-06-12T08:37:19.000Z</time>
      </trkpt>
      <trkpt lat="47.3458" lon="-1.58824">
        <ele>93</ele>
        <time>2021-06-12T08:37:21.000Z</time>
      </trkpt>
      <trkpt lat="47.3457" lon="-1.58812">
        <ele>93</ele>
        <time>2021-06-12T08:37:23.000Z</time>
      </trkpt>
      <trkpt lat="47.3456" lon="-1.58799">
        <ele>92</ele>
        <time>2021-06-12T08:37:25.000Z</time>
      </trkpt>
      <trkpt lat="47.34549" lon="-1.58785">
        <ele>92</ele>
        <time>2021-06-12T08:37:27.000Z</time>
      </trkpt>
      <trkpt lat="47.34539" lon="-1.58773">
        <ele>92</ele>
        <time>2021-06-12T08:37:29.000Z</time>
      </trkpt>
      <trkpt lat="47.34528" lon="-1.5876">
        <ele>92</ele>
        <time>2021-06-12T08:37:31.000Z</time>
      </trkpt>
      <trkpt lat="47.34518" lon="-1.58747">
        <ele>92</ele>
        <time>2021-06-12T08:37:33.000Z</time>
      </trkpt>
      <trkpt lat="47.34508" lon="-1.58734">
        <ele>92</ele>
        <time>2021-06-12T08:37:35.000Z</time>
      </trkpt>
      <trkpt lat="47.34498" lon="-1.58721">
        <ele>92</ele>
        <time>2021-06-12T08:37:37.000Z</time>
      </trkpt>
      <trkpt lat="47.34489" lon="-1.58708">
        <ele>93</ele>
        <time>2021-06-12T08:37:39.000Z</time>
      </trkpt>
      <trkpt lat="47.3448" lon="-1.58695">
        <ele>93</ele>
        <time>2021-06-12T08:37:41.000Z</time>
      </trkpt>
      <trkpt lat="47.34472" lon="-1.58682">
        <ele>93</ele>
        <time>2021-06-12T08:37:43.000Z</time>
      </trkpt>
      <trkpt lat="47.34463" lon="-1.58669">
        <ele>94</ele>
        <time>2021-06-12T08:37:45.000Z</time>
      </trkpt>
      <trkpt lat="47.34454" lon="-1.58656">
        <ele>94</ele>
        <time>2021-06-12T08:37:47.000Z</time>
      </trkpt>
      <trkpt lat="47.34445" lon="-1.58642">
        <ele>94</ele>
        <time>2021-06-12T08:37:49.000Z</time>
      </trkpt>
      <trkpt lat="47.34436" lon="-1.58628">
        <ele>95</ele>
        <time>2021-06-12T08:37:51.000Z</time>
      </trkpt>
      <trkpt lat="47.34426" lon="-1.58616">
        <ele>95</ele>
        <time>2021-06-12T08:37:53.000Z</time>
      </trkpt>
      <trkpt lat="47.34417" lon="-1.58603">
        <ele>95</ele>
        <time>2021-06-12T08:37:55.000Z</time>
      </trkpt>
      <trkpt lat="47.34408" lon="-1.58591">
        <ele>96</ele>
        <time>2021-06-12T08:37:57.000Z</time>
      </trkpt>
      <trkpt lat="47.34399" lon="-1.5858">
        <ele>96</ele>
        <time>2021-06-12T08:37:59.000Z</time>
      </trkpt>
      <trkpt lat="47.34391" lon="-1.58568">
        <ele>97</ele>
        <time>2021-06-12T08:38:01.000Z</time>
      </trkpt>
      <trkpt lat="47.34381" lon="-1.58557">
        <ele>98</ele>
        <time>2021-06-12T08:38:03.000Z</time>
      </trkpt>
      <trkpt lat="47.34372" lon="-1.58545">
        <ele>98</ele>
        <time>2021-06-12T08:38:05.000Z</time>
      </trkpt>
      <trkpt lat="47.34363" lon="-1.58533">
        <ele>99</ele>
        <time>2021-06-12T08:38:07.000Z</time>
      </trkpt>
      <trkpt lat="47.34353" lon="-1.58521">
        <ele>99</ele>
        <time>2021-06-12T08:38:09.000Z</time>
      </trkpt>
      <trkpt lat="47.34344" lon="-1.58509">
        <ele>98</ele>
        <time>2021-06-12T08:38:11.000Z</time>
      </trkpt>
      <trkpt lat="47.34335" lon="-1.58498">
        <ele>98</ele>
        <time>2021-06-12T08:38:13.000Z</time>
      </trkpt>
      <trkpt lat="47.34327" lon="-1.58485">
        <ele>98</ele>
        <time>2021-06-12T08:38:15.000Z</time>
      </trkpt>
      <trkpt lat="47.34318" lon="-1.58474">
        <ele>98</ele>
        <time>2021-06-12T08:38:17.000Z</time>
      </trkpt>
      <trkpt lat="47.3431" lon="-1.58461">
        <ele>98</ele>
        <time>2021-06-12T08:38:19.000Z</time>
      </trkpt>
      <trkpt lat="47.34301" lon="-1.58447">
        <ele>97</ele>
        <time>2021-06-12T08:38:21.000Z</time>
      </trkpt>
      <trkpt lat="47.34292" lon="-1.58433">
        <ele>97</ele>
        <time>2021-06-12T08:38:23.000Z</time>
      </trkpt>
      <trkpt lat="47.34282" lon="-1.5842">
        <ele>96</ele>
        <time>2021-06-12T08:38:25.000Z</time>
      </trkpt>
      <trkpt lat="47.34271" lon="-1.58406">
        <ele>96</ele>
        <time>2021-06-12T08:38:27.000Z</time>
      </trkpt>
      <trkpt lat="47.34262" lon="-1.58392">
        <ele>95</ele>
        <time>2021-06-12T08:38:29.000Z</time>
      </trkpt>
      <trkpt lat="47.34251" lon="-1.58378">
        <ele>95</ele>
        <time>2021-06-12T08:38:31.000Z</time>
      </trkpt>
      <trkpt lat="47.34241" lon="-1.58364">
        <ele>94</ele>
        <time>2021-06-12T08:38:33.000Z</time>
      </trkpt>
      <trkpt lat="47.3423" lon="-1.5835">
        <ele>94</ele>
        <time>2021-06-12T08:38:35.000Z</time>
      </trkpt>
      <trkpt lat="47.3422" lon="-1.58335">
        <ele>94</ele>
        <time>2021-06-12T08:38:37.000Z</time>
      </trkpt>
      <trkpt lat="47.3421" lon="-1.58321">
        <ele>94</ele>
        <time>2021-06-12T08:38:39.000Z</time>
      </trkpt>
      <trkpt lat="47.34199" lon="-1.58306">
        <ele>94</ele>
        <time>2021-06-12T08:38:41.000Z</time>
      </trkpt>
      <trkpt lat="47.34188" lon="-1.58291">
        <ele>93</ele>
        <time>2021-06-12T08:38:43.000Z</time>
      </trkpt>
      <trkpt lat="47.34177" lon="-1.58276">
        <ele>93</ele>
        <time>2021-06-12T08:38:45.000Z</time>
      </trkpt>
      <trkpt lat="47.34165" lon="-1.5826">
        <ele>93</ele>
        <time>2021-06-12T08:38:47.000Z</time>
      </trkpt>
      <trkpt lat="47.34154" lon="-1.58245">
        <ele>93</ele>
        <time>2021-06-12T08:38:49.000Z</time>
      </trkpt>
      <trkpt lat="47.34143" lon="-1.5823">
        <ele>92</ele>
        <time>2021-06-12T08:38:51.000Z</time>
      </trkpt>
      <trkpt lat="47.34132" lon="-1.58214">
        <ele>92</ele>
        <time>2021-06-12T08:38:53.000Z</time>
      </trkpt>
      <trkpt lat="47.34121" lon="-1.58199">
        <ele>92</ele>
        <time>2021-06-12T08:38:55.000Z</time>
      </trkpt>
      <trkpt lat="47.3411" lon="-1.58183">
        <ele>92</ele>
        <time>2021-06-12T08:38:57.000Z</time>
      </trkpt>
      <trkpt lat="47.34099" lon="-1.58167">
        <ele>93</ele>
        <time>2021-06-12T08:38:59.000Z</time>
      </trkpt>
      <trkpt lat="47.34088" lon="-1.58153">
        <ele>93</ele>
        <time>2021-06-12T08:39:01.000Z</time>
      </trkpt>
      <trkpt lat="47.34077" lon="-1.58139">
        <ele>94</ele>
        <time>2021-06-12T08:39:03.000Z</time>
      </trkpt>
      <trkpt lat="47.34066" lon="-1.58123">
        <ele>94</ele>
        <time>2021-06-12T08:39:05.000Z</time>
      </trkpt>
      <trkpt lat="47.34055" lon="-1.58107">
        <ele>93</ele>
        <time>2021-06-12T08:39:07.000Z</time>
      </trkpt>
      <trkpt lat="47.34044" lon="-1.58091">
        <ele>92</ele>
        <time>2021-06-12T08:39:09.000Z</time>
      </trkpt>
      <trkpt lat="47.34032" lon="-1.58076">
        <ele>92</ele>
        <time>2021-06-12T08:39:11.000Z</time>
      </trkpt>
      <trkpt lat="47.34022" lon="-1.58061">
        <ele>93</ele>
        <time>2021-06-12T08:39:13.000Z</time>
      </trkpt>
      <trkpt lat="47.34011" lon="-1.58045">
        <ele>93</ele>
        <time>2021-06-12T08:39:15.000Z</time>
      </trkpt>
      <trkpt lat="47.33998" lon="-1.58029">
        <ele>92</ele>
        <time>2021-06-12T08:39:17.000Z</time>
      </trkpt>
      <trkpt lat="47.33985" lon="-1.58014">
        <ele>90</ele>
        <time>2021-06-12T08:39:19.000Z</time>
      </trkpt>
      <trkpt lat="47.33974" lon="-1.57998">
        <ele>90</ele>
        <time>2021-06-12T08:39:21.000Z</time>
      </trkpt>
      <trkpt lat="47.33963" lon="-1.57984">
        <ele>90</ele>
        <time>2021-06-12T08:39:23.000Z</time>
      </trkpt>
      <trkpt lat="47.33952" lon="-1.57969">
        <ele>89</ele>
        <time>2021-06-12T08:39:25.000Z</time>
      </trkpt>
      <trkpt lat="47.33941" lon="-1.57954">
        <ele>89</ele>
        <time>2021-06-12T08:39:27.000Z</time>
      </trkpt>
      <trkpt lat="47.3393" lon="-1.5794">
        <ele>90</ele>
        <time>2021-06-12T08:39:29.000Z</time>
      </trkpt>
      <trkpt lat="47.3392" lon="-1.57926">
        <ele>90</ele>
        <time>2021-06-12T08:39:31.000Z</time>
      </trkpt>
      <trkpt lat="47.3391" lon="-1.57912">
        <ele>90</ele>
        <time>2021-06-12T08:39:33.000Z</time>
      </trkpt>
      <trkpt lat="47.339" lon="-1.57898">
        <ele>91</ele>
        <time>2021-06-12T08:39:35.000Z</time>
      </trkpt>
      <trkpt lat="47.33889" lon="-1.57885">
        <ele>91</ele>
        <time>2021-06-12T08:39:37.000Z</time>
      </trkpt>
      <trkpt lat="47.33878" lon="-1.57872">
        <ele>90</ele>
        <time>2021-06-12T08:39:39.000Z</time>
      </trkpt>
      <trkpt lat="47.33869" lon="-1.5786">
        <ele>91</ele>
        <time>2021-06-12T08:39:41.000Z</time>
      </trkpt>
      <trkpt lat="47.33859" lon="-1.57849">
        <ele>91</ele>
        <time>2021-06-12T08:39:43.000Z</time>
      </trkpt>
      <trkpt lat="47.33851" lon="-1.57842">
        <ele>91</ele>
        <time>2021-06-12T08:39:45.000Z</time>
      </trkpt>
      <trkpt lat="47.33843" lon="-1.57833">
        <ele>90</ele>
        <time>2021-06-12T08:39:49.000Z</time>
      </trkpt>
      <trkpt lat="47.33842" lon="-1.57815">
        <ele>90</ele>
        <time>2021-06-12T08:39:54.000Z</time>
      </trkpt>
      <trkpt lat="47.33843" lon="-1.578">
        <ele>90</ele>
        <time>2021-06-12T08:39:56.000Z</time>
      </trkpt>
      <trkpt lat="47.33847" lon="-1.57783">
        <ele>90</ele>
        <time>2021-06-12T08:39:58.000Z</time>
      </trkpt>
      <trkpt lat="47.33852" lon="-1.57768">
        <ele>90</ele>
        <time>2021-06-12T08:40:00.000Z</time>
      </trkpt>
      <trkpt lat="47.33857" lon="-1.57753">
        <ele>90</ele>
        <time>2021-06-12T08:40:02.000Z</time>
      </trkpt>
      <trkpt lat="47.33862" lon="-1.57736">
        <ele>90</ele>
        <time>2021-06-12T08:40:04.000Z</time>
      </trkpt>
      <trkpt lat="47.33867" lon="-1.57718">
        <ele>90</ele>
        <time>2021-06-12T08:40:06.000Z</time>
      </trkpt>
      <trkpt lat="47.33872" lon="-1.57701">
        <ele>91</ele>
        <time>2021-06-12T08:40:08.000Z</time>
      </trkpt>
      <trkpt lat="47.33876" lon="-1.57684">
        <ele>91</ele>
        <time>2021-06-12T08:40:10.000Z</time>
      </trkpt>
      <trkpt lat="47.33881" lon="-1.57666">
        <ele>91</ele>
        <time>2021-06-12T08:40:12.000Z</time>
      </trkpt>
      <trkpt lat="47.33886" lon="-1.57649">
        <ele>90</ele>
        <time>2021-06-12T08:40:14.000Z</time>
      </trkpt>
      <trkpt lat="47.33891" lon="-1.57631">
        <ele>91</ele>
        <time>2021-06-12T08:40:16.000Z</time>
      </trkpt>
      <trkpt lat="47.33896" lon="-1.57614">
        <ele>91</ele>
        <time>2021-06-12T08:40:18.000Z</time>
      </trkpt>
      <trkpt lat="47.33901" lon="-1.57597">
        <ele>91</ele>
        <time>2021-06-12T08:40:20.000Z</time>
      </trkpt>
      <trkpt lat="47.33906" lon="-1.57579">
        <ele>91</ele>
        <time>2021-06-12T08:40:22.000Z</time>
      </trkpt>
      <trkpt lat="47.3391" lon="-1.57562">
        <ele>91</ele>
        <time>2021-06-12T08:40:24.000Z</time>
      </trkpt>
      <trkpt lat="47.33916" lon="-1.57543">
        <ele>91</ele>
        <time>2021-06-12T08:40:26.000Z</time>
      </trkpt>
      <trkpt lat="47.33921" lon="-1.57525">
        <ele>90</ele>
        <time>2021-06-12T08:40:28.000Z</time>
      </trkpt>
      <trkpt lat="47.33927" lon="-1.57506">
        <ele>90</ele>
        <time>2021-06-12T08:40:30.000Z</time>
      </trkpt>
      <trkpt lat="47.33932" lon="-1.57486">
        <ele>89</ele>
        <time>2021-06-12T08:40:32.000Z</time>
      </trkpt>
      <trkpt lat="47.33938" lon="-1.57467">
        <ele>88</ele>
        <time>2021-06-12T08:40:34.000Z</time>
      </trkpt>
      <trkpt lat="47.33944" lon="-1.57446">
        <ele>87</ele>
        <time>2021-06-12T08:40:36.000Z</time>
      </trkpt>
      <trkpt lat="47.3395" lon="-1.57426">
        <ele>86</ele>
        <time>2021-06-12T08:40:38.000Z</time>
      </trkpt>
      <trkpt lat="47.33956" lon="-1.57405">
        <ele>86</ele>
        <time>2021-06-12T08:40:40.000Z</time>
      </trkpt>
      <trkpt lat="47.33962" lon="-1.57384">
        <ele>84</ele>
        <time>2021-06-12T08:40:42.000Z</time>
      </trkpt>
      <trkpt lat="47.33968" lon="-1.57364">
        <ele>84</ele>
        <time>2021-06-12T08:40:44.000Z</time>
      </trkpt>
      <trkpt lat="47.33973" lon="-1.57343">
        <ele>84</ele>
        <time>2021-06-12T08:40:46.000Z</time>
      </trkpt>
      <trkpt lat="47.33979" lon="-1.57322">
        <ele>83</ele>
        <time>2021-06-12T08:40:48.000Z</time>
      </trkpt>
      <trkpt lat="47.33983" lon="-1.573">
        <ele>82</ele>
        <time>2021-06-12T08:40:50.000Z</time>
      </trkpt>
      <trkpt lat="47.33985" lon="-1.57277">
        <ele>81</ele>
        <time>2021-06-12T08:40:52.000Z</time>
      </trkpt>
      <trkpt lat="47.33987" lon="-1.57255">
        <ele>81</ele>
        <time>2021-06-12T08:40:54.000Z</time>
      </trkpt>
      <trkpt lat="47.33989" lon="-1.57233">
        <ele>80</ele>
        <time>2021-06-12T08:40:56.000Z</time>
      </trkpt>
      <trkpt lat="47.33991" lon="-1.5721">
        <ele>80</ele>
        <time>2021-06-12T08:40:58.000Z</time>
      </trkpt>
      <trkpt lat="47.33993" lon="-1.57188">
        <ele>79</ele>
        <time>2021-06-12T08:41:00.000Z</time>
      </trkpt>
      <trkpt lat="47.33994" lon="-1.57166">
        <ele>80</ele>
        <time>2021-06-12T08:41:02.000Z</time>
      </trkpt>
      <trkpt lat="47.33995" lon="-1.57144">
        <ele>79</ele>
        <time>2021-06-12T08:41:04.000Z</time>
      </trkpt>
      <trkpt lat="47.33995" lon="-1.57124">
        <ele>79</ele>
        <time>2021-06-12T08:41:06.000Z</time>
      </trkpt>
      <trkpt lat="47.33995" lon="-1.57103">
        <ele>79</ele>
        <time>2021-06-12T08:41:08.000Z</time>
      </trkpt>
      <trkpt lat="47.33995" lon="-1.57082">
        <ele>79</ele>
        <time>2021-06-12T08:41:10.000Z</time>
      </trkpt>
      <trkpt lat="47.33994" lon="-1.57061">
        <ele>79</ele>
        <time>2021-06-12T08:41:12.000Z</time>
      </trkpt>
      <trkpt lat="47.33994" lon="-1.5704">
        <ele>78</ele>
        <time>2021-06-12T08:41:14.000Z</time>
      </trkpt>
      <trkpt lat="47.33994" lon="-1.57018">
        <ele>78</ele>
        <time>2021-06-12T08:41:16.000Z</time>
      </trkpt>
      <trkpt lat="47.33995" lon="-1.56996">
        <ele>78</ele>
        <time>2021-06-12T08:41:18.000Z</time>
      </trkpt>
      <trkpt lat="47.33996" lon="-1.56973">
        <ele>78</ele>
        <time>2021-06-12T08:41:20.000Z</time>
      </trkpt>
      <trkpt lat="47.33997" lon="-1.56949">
        <ele>77</ele>
        <time>2021-06-12T08:41:22.000Z</time>
      </trkpt>
      <trkpt lat="47.33998" lon="-1.56926">
        <ele>77</ele>
        <time>2021-06-12T08:41:24.000Z</time>
      </trkpt>
      <trkpt lat="47.34" lon="-1.56902">
        <ele>77</ele>
        <time>2021-06-12T08:41:26.000Z</time>
      </trkpt>
      <trkpt lat="47.34001" lon="-1.56877">
        <ele>76</ele>
        <time>2021-06-12T08:41:28.000Z</time>
      </trkpt>
      <trkpt lat="47.34002" lon="-1.56853">
        <ele>76</ele>
        <time>2021-06-12T08:41:30.000Z</time>
      </trkpt>
      <trkpt lat="47.34002" lon="-1.5683">
        <ele>76</ele>
        <time>2021-06-12T08:41:32.000Z</time>
      </trkpt>
      <trkpt lat="47.34003" lon="-1.56809">
        <ele>76</ele>
        <time>2021-06-12T08:41:34.000Z</time>
      </trkpt>
      <trkpt lat="47.34004" lon="-1.56789">
        <ele>76</ele>
        <time>2021-06-12T08:41:36.000Z</time>
      </trkpt>
      <trkpt lat="47.34006" lon="-1.56769">
        <ele>76</ele>
        <time>2021-06-12T08:41:38.000Z</time>
      </trkpt>
      <trkpt lat="47.34006" lon="-1.56749">
        <ele>76</ele>
        <time>2021-06-12T08:41:40.000Z</time>
      </trkpt>
      <trkpt lat="47.34007" lon="-1.56729">
        <ele>76</ele>
        <time>2021-06-12T08:41:42.000Z</time>
      </trkpt>
      <trkpt lat="47.34008" lon="-1.56709">
        <ele>76</ele>
        <time>2021-06-12T08:41:44.000Z</time>
      </trkpt>
      <trkpt lat="47.34009" lon="-1.56689">
        <ele>76</ele>
        <time>2021-06-12T08:41:46.000Z</time>
      </trkpt>
      <trkpt lat="47.3401" lon="-1.56668">
        <ele>76</ele>
        <time>2021-06-12T08:41:48.000Z</time>
      </trkpt>
      <trkpt lat="47.3401" lon="-1.56647">
        <ele>76</ele>
        <time>2021-06-12T08:41:50.000Z</time>
      </trkpt>
      <trkpt lat="47.34011" lon="-1.56625">
        <ele>75</ele>
        <time>2021-06-12T08:41:52.000Z</time>
      </trkpt>
      <trkpt lat="47.34012" lon="-1.56603">
        <ele>75</ele>
        <time>2021-06-12T08:41:54.000Z</time>
      </trkpt>
      <trkpt lat="47.34013" lon="-1.56581">
        <ele>74</ele>
        <time>2021-06-12T08:41:56.000Z</time>
      </trkpt>
      <trkpt lat="47.34014" lon="-1.56558">
        <ele>74</ele>
        <time>2021-06-12T08:41:58.000Z</time>
      </trkpt>
      <trkpt lat="47.34015" lon="-1.56535">
        <ele>73</ele>
        <time>2021-06-12T08:42:00.000Z</time>
      </trkpt>
      <trkpt lat="47.34016" lon="-1.56512">
        <ele>72</ele>
        <time>2021-06-12T08:42:02.000Z</time>
      </trkpt>
      <trkpt lat="47.34017" lon="-1.56489">
        <ele>71</ele>
        <time>2021-06-12T08:42:04.000Z</time>
      </trkpt>
      <trkpt lat="47.34018" lon="-1.56466">
        <ele>71</ele>
        <time>2021-06-12T08:42:06.000Z</time>
      </trkpt>
      <trkpt lat="47.34019" lon="-1.56443">
        <ele>71</ele>
        <time>2021-06-12T08:42:08.000Z</time>
      </trkpt>
      <trkpt lat="47.3402" lon="-1.56421">
        <ele>71</ele>
        <time>2021-06-12T08:42:10.000Z</time>
      </trkpt>
      <trkpt lat="47.34021" lon="-1.56399">
        <ele>71</ele>
        <time>2021-06-12T08:42:12.000Z</time>
      </trkpt>
      <trkpt lat="47.34022" lon="-1.56379">
        <ele>72</ele>
        <time>2021-06-12T08:42:14.000Z</time>
      </trkpt>
      <trkpt lat="47.3402" lon="-1.5636">
        <ele>72</ele>
        <time>2021-06-12T08:42:16.000Z</time>
      </trkpt>
      <trkpt lat="47.34018" lon="-1.56341">
        <ele>73</ele>
        <time>2021-06-12T08:42:18.000Z</time>
      </trkpt>
      <trkpt lat="47.34015" lon="-1.5632">
        <ele>74</ele>
        <time>2021-06-12T08:42:20.000Z</time>
      </trkpt>
      <trkpt lat="47.34012" lon="-1.563">
        <ele>74</ele>
        <time>2021-06-12T08:42:22.000Z</time>
      </trkpt>
      <trkpt lat="47.34009" lon="-1.56279">
        <ele>74</ele>
        <time>2021-06-12T08:42:24.000Z</time>
      </trkpt>
      <trkpt lat="47.34006" lon="-1.56257">
        <ele>74</ele>
        <time>2021-06-12T08:42:26.000Z</time>
      </trkpt>
      <trkpt lat="47.34003" lon="-1.56235">
        <ele>73</ele>
        <time>2021-06-12T08:42:28.000Z</time>
      </trkpt>
      <trkpt lat="47.34" lon="-1.56212">
        <ele>74</ele>
        <time>2021-06-12T08:42:30.000Z</time>
      </trkpt>
      <trkpt lat="47.33997" lon="-1.56188">
        <ele>74</ele>
        <time>2021-06-12T08:42:32.000Z</time>
      </trkpt>
      <trkpt lat="47.33994" lon="-1.56163">
        <ele>74</ele>
        <time>2021-06-12T08:42:34.000Z</time>
      </trkpt>
      <trkpt lat="47.3399" lon="-1.56137">
        <ele>73</ele>
        <time>2021-06-12T08:42:36.000Z</time>
      </trkpt>
      <trkpt lat="47.33988" lon="-1.56124">
        <ele>73</ele>
        <time>2021-06-12T08:42:37.000Z</time>
      </trkpt>
      <trkpt lat="47.33986" lon="-1.56111">
        <ele>73</ele>
        <time>2021-06-12T08:42:38.000Z</time>
      </trkpt>
      <trkpt lat="47.33983" lon="-1.56085">
        <ele>73</ele>
        <time>2021-06-12T08:42:40.000Z</time>
      </trkpt>
      <trkpt lat="47.33981" lon="-1.5606">
        <ele>72</ele>
        <time>2021-06-12T08:42:42.000Z</time>
      </trkpt>
      <trkpt lat="47.33983" lon="-1.56047">
        <ele>71</ele>
        <time>2021-06-12T08:42:43.000Z</time>
      </trkpt>
      <trkpt lat="47.33986" lon="-1.56034">
        <ele>70</ele>
        <time>2021-06-12T08:42:44.000Z</time>
      </trkpt>
      <trkpt lat="47.33991" lon="-1.56022">
        <ele>70</ele>
        <time>2021-06-12T08:42:45.000Z</time>
      </trkpt>
      <trkpt lat="47.33996" lon="-1.5601">
        <ele>70</ele>
        <time>2021-06-12T08:42:46.000Z</time>
      </trkpt>
      <trkpt lat="47.34003" lon="-1.56">
        <ele>69</ele>
        <time>2021-06-12T08:42:47.000Z</time>
      </trkpt>
      <trkpt lat="47.34009" lon="-1.5599">
        <ele>68</ele>
        <time>2021-06-12T08:42:48.000Z</time>
      </trkpt>
      <trkpt lat="47.34015" lon="-1.5598">
        <ele>68</ele>
        <time>2021-06-12T08:42:49.000Z</time>
      </trkpt>
      <trkpt lat="47.34023" lon="-1.55971">
        <ele>67</ele>
        <time>2021-06-12T08:42:50.000Z</time>
      </trkpt>
      <trkpt lat="47.3403" lon="-1.55963">
        <ele>67</ele>
        <time>2021-06-12T08:42:51.000Z</time>
      </trkpt>
      <trkpt lat="47.34037" lon="-1.55955">
        <ele>68</ele>
        <time>2021-06-12T08:42:52.000Z</time>
      </trkpt>
      <trkpt lat="47.34049" lon="-1.55938">
        <ele>67</ele>
        <time>2021-06-12T08:42:54.000Z</time>
      </trkpt>
      <trkpt lat="47.34061" lon="-1.55923">
        <ele>65</ele>
        <time>2021-06-12T08:42:56.000Z</time>
      </trkpt>
      <trkpt lat="47.34069" lon="-1.55906">
        <ele>64</ele>
        <time>2021-06-12T08:42:58.000Z</time>
      </trkpt>
      <trkpt lat="47.3407" lon="-1.55888">
        <ele>64</ele>
        <time>2021-06-12T08:43:00.000Z</time>
      </trkpt>
      <trkpt lat="47.34069" lon="-1.55872">
        <ele>64</ele>
        <time>2021-06-12T08:43:02.000Z</time>
      </trkpt>
      <trkpt lat="47.34065" lon="-1.55856">
        <ele>65</ele>
        <time>2021-06-12T08:43:04.000Z</time>
      </trkpt>
      <trkpt lat="47.34063" lon="-1.55841">
        <ele>65</ele>
        <time>2021-06-12T08:43:06.000Z</time>
      </trkpt>
      <trkpt lat="47.3406" lon="-1.55827">
        <ele>65</ele>
        <time>2021-06-12T08:43:08.000Z</time>
      </trkpt>
      <trkpt lat="47.34058" lon="-1.55814">
        <ele>65</ele>
        <time>2021-06-12T08:43:10.000Z</time>
      </trkpt>
      <trkpt lat="47.34056" lon="-1.55801">
        <ele>66</ele>
        <time>2021-06-12T08:43:12.000Z</time>
      </trkpt>
      <trkpt lat="47.34055" lon="-1.55786">
        <ele>67</ele>
        <time>2021-06-12T08:43:14.000Z</time>
      </trkpt>
      <trkpt lat="47.34054" lon="-1.5577">
        <ele>66</ele>
        <time>2021-06-12T08:43:16.000Z</time>
      </trkpt>
      <trkpt lat="47.34055" lon="-1.55755">
        <ele>67</ele>
        <time>2021-06-12T08:43:18.000Z</time>
      </trkpt>
      <trkpt lat="47.34057" lon="-1.5574">
        <ele>66</ele>
        <time>2021-06-12T08:43:20.000Z</time>
      </trkpt>
      <trkpt lat="47.3406" lon="-1.55725">
        <ele>67</ele>
        <time>2021-06-12T08:43:22.000Z</time>
      </trkpt>
      <trkpt lat="47.34064" lon="-1.55709">
        <ele>67</ele>
        <time>2021-06-12T08:43:24.000Z</time>
      </trkpt>
      <trkpt lat="47.34068" lon="-1.55693">
        <ele>67</ele>
        <time>2021-06-12T08:43:26.000Z</time>
      </trkpt>
      <trkpt lat="47.34071" lon="-1.55679">
        <ele>67</ele>
        <time>2021-06-12T08:43:28.000Z</time>
      </trkpt>
      <trkpt lat="47.34075" lon="-1.55663">
        <ele>67</ele>
        <time>2021-06-12T08:43:30.000Z</time>
      </trkpt>
      <trkpt lat="47.34078" lon="-1.55648">
        <ele>67</ele>
        <time>2021-06-12T08:43:32.000Z</time>
      </trkpt>
      <trkpt lat="47.34081" lon="-1.55632">
        <ele>67</ele>
        <time>2021-06-12T08:43:34.000Z</time>
      </trkpt>
      <trkpt lat="47.34084" lon="-1.55616">
        <ele>67</ele>
        <time>2021-06-12T08:43:36.000Z</time>
      </trkpt>
      <trkpt lat="47.34087" lon="-1.55601">
        <ele>68</ele>
        <time>2021-06-12T08:43:38.000Z</time>
      </trkpt>
      <trkpt lat="47.34091" lon="-1.55587">
        <ele>68</ele>
        <time>2021-06-12T08:43:40.000Z</time>
      </trkpt>
      <trkpt lat="47.34095" lon="-1.55572">
        <ele>69</ele>
        <time>2021-06-12T08:43:42.000Z</time>
      </trkpt>
      <trkpt lat="47.34101" lon="-1.55556">
        <ele>69</ele>
        <time>2021-06-12T08:43:44.000Z</time>
      </trkpt>
      <trkpt lat="47.34108" lon="-1.55539">
        <ele>69</ele>
        <time>2021-06-12T08:43:46.000Z</time>
      </trkpt>
      <trkpt lat="47.34114" lon="-1.55524">
        <ele>69</ele>
        <time>2021-06-12T08:43:48.000Z</time>
      </trkpt>
      <trkpt lat="47.34121" lon="-1.55508">
        <ele>69</ele>
        <time>2021-06-12T08:43:50.000Z</time>
      </trkpt>
      <trkpt lat="47.34129" lon="-1.55494">
        <ele>69</ele>
        <time>2021-06-12T08:43:52.000Z</time>
      </trkpt>
      <trkpt lat="47.34138" lon="-1.55479">
        <ele>69</ele>
        <time>2021-06-12T08:43:54.000Z</time>
      </trkpt>
      <trkpt lat="47.34146" lon="-1.55466">
        <ele>70</ele>
        <time>2021-06-12T08:43:56.000Z</time>
      </trkpt>
      <trkpt lat="47.34155" lon="-1.55452">
        <ele>70</ele>
        <time>2021-06-12T08:43:58.000Z</time>
      </trkpt>
      <trkpt lat="47.34164" lon="-1.55437">
        <ele>70</ele>
        <time>2021-06-12T08:44:00.000Z</time>
      </trkpt>
      <trkpt lat="47.34173" lon="-1.55424">
        <ele>69</ele>
        <time>2021-06-12T08:44:02.000Z</time>
      </trkpt>
      <trkpt lat="47.34183" lon="-1.55409">
        <ele>69</ele>
        <time>2021-06-12T08:44:04.000Z</time>
      </trkpt>
      <trkpt lat="47.34192" lon="-1.55395">
        <ele>69</ele>
        <time>2021-06-12T08:44:06.000Z</time>
      </trkpt>
      <trkpt lat="47.34201" lon="-1.55382">
        <ele>69</ele>
        <time>2021-06-12T08:44:08.000Z</time>
      </trkpt>
      <trkpt lat="47.3421" lon="-1.55369">
        <ele>68</ele>
        <time>2021-06-12T08:44:10.000Z</time>
      </trkpt>
      <trkpt lat="47.34219" lon="-1.55356">
        <ele>68</ele>
        <time>2021-06-12T08:44:12.000Z</time>
      </trkpt>
      <trkpt lat="47.34229" lon="-1.55342">
        <ele>67</ele>
        <time>2021-06-12T08:44:14.000Z</time>
      </trkpt>
      <trkpt lat="47.34238" lon="-1.55329">
        <ele>67</ele>
        <time>2021-06-12T08:44:16.000Z</time>
      </trkpt>
      <trkpt lat="47.34248" lon="-1.55314">
        <ele>67</ele>
        <time>2021-06-12T08:44:18.000Z</time>
      </trkpt>
      <trkpt lat="47.34257" lon="-1.55299">
        <ele>67</ele>
        <time>2021-06-12T08:44:20.000Z</time>
      </trkpt>
      <trkpt lat="47.34267" lon="-1.55285">
        <ele>67</ele>
        <time>2021-06-12T08:44:22.000Z</time>
      </trkpt>
      <trkpt lat="47.34277" lon="-1.5527">
        <ele>67</ele>
        <time>2021-06-12T08:44:24.000Z</time>
      </trkpt>
      <trkpt lat="47.34287" lon="-1.55254">
        <ele>66</ele>
        <time>2021-06-12T08:44:26.000Z</time>
      </trkpt>
      <trkpt lat="47.34296" lon="-1.55236">
        <ele>66</ele>
        <time>2021-06-12T08:44:28.000Z</time>
      </trkpt>
      <trkpt lat="47.34302" lon="-1.55217">
        <ele>66</ele>
        <time>2021-06-12T08:44:30.000Z</time>
      </trkpt>
      <trkpt lat="47.34307" lon="-1.55197">
        <ele>65</ele>
        <time>2021-06-12T08:44:32.000Z</time>
      </trkpt>
      <trkpt lat="47.34311" lon="-1.55175">
        <ele>64</ele>
        <time>2021-06-12T08:44:34.000Z</time>
      </trkpt>
      <trkpt lat="47.34313" lon="-1.55153">
        <ele>63</ele>
        <time>2021-06-12T08:44:36.000Z</time>
      </trkpt>
      <trkpt lat="47.34316" lon="-1.55131">
        <ele>62</ele>
        <time>2021-06-12T08:44:38.000Z</time>
      </trkpt>
      <trkpt lat="47.34318" lon="-1.55108">
        <ele>62</ele>
        <time>2021-06-12T08:44:40.000Z</time>
      </trkpt>
      <trkpt lat="47.3432" lon="-1.55086">
        <ele>62</ele>
        <time>2021-06-12T08:44:42.000Z</time>
      </trkpt>
      <trkpt lat="47.34322" lon="-1.55065">
        <ele>62</ele>
        <time>2021-06-12T08:44:44.000Z</time>
      </trkpt>
      <trkpt lat="47.34323" lon="-1.55046">
        <ele>61</ele>
        <time>2021-06-12T08:44:46.000Z</time>
      </trkpt>
      <trkpt lat="47.34325" lon="-1.55029">
        <ele>61</ele>
        <time>2021-06-12T08:44:48.000Z</time>
      </trkpt>
      <trkpt lat="47.34327" lon="-1.55014">
        <ele>62</ele>
        <time>2021-06-12T08:44:50.000Z</time>
      </trkpt>
      <trkpt lat="47.34328" lon="-1.54999">
        <ele>63</ele>
        <time>2021-06-12T08:44:52.000Z</time>
      </trkpt>
      <trkpt lat="47.3433" lon="-1.54985">
        <ele>63</ele>
        <time>2021-06-12T08:44:54.000Z</time>
      </trkpt>
      <trkpt lat="47.34332" lon="-1.5497">
        <ele>63</ele>
        <time>2021-06-12T08:44:56.000Z</time>
      </trkpt>
      <trkpt lat="47.34333" lon="-1.54955">
        <ele>64</ele>
        <time>2021-06-12T08:44:58.000Z</time>
      </trkpt>
      <trkpt lat="47.34334" lon="-1.54941">
        <ele>65</ele>
        <time>2021-06-12T08:45:00.000Z</time>
      </trkpt>
      <trkpt lat="47.34335" lon="-1.54927">
        <ele>66</ele>
        <time>2021-06-12T08:45:02.000Z</time>
      </trkpt>
      <trkpt lat="47.34336" lon="-1.54913">
        <ele>67</ele>
        <time>2021-06-12T08:45:04.000Z</time>
      </trkpt>
      <trkpt lat="47.34338" lon="-1.54899">
        <ele>67</ele>
        <time>2021-06-12T08:45:06.000Z</time>
      </trkpt>
      <trkpt lat="47.34339" lon="-1.54883">
        <ele>67</ele>
        <time>2021-06-12T08:45:08.000Z</time>
      </trkpt>
      <trkpt lat="47.3434" lon="-1.54868">
        <ele>67</ele>
        <time>2021-06-12T08:45:10.000Z</time>
      </trkpt>
      <trkpt lat="47.34342" lon="-1.54853">
        <ele>67</ele>
        <time>2021-06-12T08:45:12.000Z</time>
      </trkpt>
      <trkpt lat="47.34343" lon="-1.54839">
        <ele>68</ele>
        <time>2021-06-12T08:45:14.000Z</time>
      </trkpt>
      <trkpt lat="47.34345" lon="-1.54825">
        <ele>68</ele>
        <time>2021-06-12T08:45:16.000Z</time>
      </trkpt>
      <trkpt lat="47.34346" lon="-1.5481">
        <ele>68</ele>
        <time>2021-06-12T08:45:18.000Z</time>
      </trkpt>
      <trkpt lat="47.34347" lon="-1.54796">
        <ele>68</ele>
        <time>2021-06-12T08:45:20.000Z</time>
      </trkpt>
      <trkpt lat="47.34348" lon="-1.54782">
        <ele>69</ele>
        <time>2021-06-12T08:45:22.000Z</time>
      </trkpt>
      <trkpt lat="47.3435" lon="-1.54769">
        <ele>70</ele>
        <time>2021-06-12T08:45:24.000Z</time>
      </trkpt>
      <trkpt lat="47.34352" lon="-1.54755">
        <ele>71</ele>
        <time>2021-06-12T08:45:26.000Z</time>
      </trkpt>
      <trkpt lat="47.34356" lon="-1.54742">
        <ele>71</ele>
        <time>2021-06-12T08:45:28.000Z</time>
      </trkpt>
      <trkpt lat="47.34361" lon="-1.5473">
        <ele>72</ele>
        <time>2021-06-12T08:45:30.000Z</time>
      </trkpt>
      <trkpt lat="47.34367" lon="-1.54718">
        <ele>73</ele>
        <time>2021-06-12T08:45:32.000Z</time>
      </trkpt>
      <trkpt lat="47.34373" lon="-1.54708">
        <ele>74</ele>
        <time>2021-06-12T08:45:34.000Z</time>
      </trkpt>
      <trkpt lat="47.3438" lon="-1.54699">
        <ele>75</ele>
        <time>2021-06-12T08:45:36.000Z</time>
      </trkpt>
      <trkpt lat="47.34388" lon="-1.5469">
        <ele>76</ele>
        <time>2021-06-12T08:45:38.000Z</time>
      </trkpt>
      <trkpt lat="47.34396" lon="-1.54682">
        <ele>77</ele>
        <time>2021-06-12T08:45:40.000Z</time>
      </trkpt>
      <trkpt lat="47.34404" lon="-1.54674">
        <ele>76</ele>
        <time>2021-06-12T08:45:42.000Z</time>
      </trkpt>
      <trkpt lat="47.34412" lon="-1.54665">
        <ele>76</ele>
        <time>2021-06-12T08:45:44.000Z</time>
      </trkpt>
      <trkpt lat="47.3442" lon="-1.54654">
        <ele>76</ele>
        <time>2021-06-12T08:45:46.000Z</time>
      </trkpt>
      <trkpt lat="47.34425" lon="-1.54642">
        <ele>77</ele>
        <time>2021-06-12T08:45:48.000Z</time>
      </trkpt>
      <trkpt lat="47.34428" lon="-1.54628">
        <ele>77</ele>
        <time>2021-06-12T08:45:50.000Z</time>
      </trkpt>
      <trkpt lat="47.34429" lon="-1.54613">
        <ele>77</ele>
        <time>2021-06-12T08:45:52.000Z</time>
      </trkpt>
      <trkpt lat="47.34428" lon="-1.54598">
        <ele>77</ele>
        <time>2021-06-12T08:45:54.000Z</time>
      </trkpt>
      <trkpt lat="47.34426" lon="-1.54583">
        <ele>77</ele>
        <time>2021-06-12T08:45:56.000Z</time>
      </trkpt>
      <trkpt lat="47.34423" lon="-1.54567">
        <ele>78</ele>
        <time>2021-06-12T08:45:58.000Z</time>
      </trkpt>
      <trkpt lat="47.34421" lon="-1.54552">
        <ele>78</ele>
        <time>2021-06-12T08:46:00.000Z</time>
      </trkpt>
      <trkpt lat="47.34418" lon="-1.54538">
        <ele>79</ele>
        <time>2021-06-12T08:46:02.000Z</time>
      </trkpt>
      <trkpt lat="47.34415" lon="-1.54522">
        <ele>80</ele>
        <time>2021-06-12T08:46:04.000Z</time>
      </trkpt>
      <trkpt lat="47.34412" lon="-1.54507">
        <ele>80</ele>
        <time>2021-06-12T08:46:06.000Z</time>
      </trkpt>
      <trkpt lat="47.34409" lon="-1.54492">
        <ele>81</ele>
        <time>2021-06-12T08:46:08.000Z</time>
      </trkpt>
      <trkpt lat="47.34407" lon="-1.54477">
        <ele>81</ele>
        <time>2021-06-12T08:46:10.000Z</time>
      </trkpt>
      <trkpt lat="47.34403" lon="-1.54462">
        <ele>81</ele>
        <time>2021-06-12T08:46:12.000Z</time>
      </trkpt>
      <trkpt lat="47.344" lon="-1.54447">
        <ele>82</ele>
        <time>2021-06-12T08:46:14.000Z</time>
      </trkpt>
      <trkpt lat="47.34397" lon="-1.54433">
        <ele>82</ele>
        <time>2021-06-12T08:46:16.000Z</time>
      </trkpt>
      <trkpt lat="47.34394" lon="-1.54419">
        <ele>83</ele>
        <time>2021-06-12T08:46:18.000Z</time>
      </trkpt>
      <trkpt lat="47.34391" lon="-1.54405">
        <ele>83</ele>
        <time>2021-06-12T08:46:20.000Z</time>
      </trkpt>
      <trkpt lat="47.34387" lon="-1.54392">
        <ele>83</ele>
        <time>2021-06-12T08:46:22.000Z</time>
      </trkpt>
      <trkpt lat="47.34384" lon="-1.54378">
        <ele>84</ele>
        <time>2021-06-12T08:46:24.000Z</time>
      </trkpt>
      <trkpt lat="47.3438" lon="-1.54364">
        <ele>84</ele>
        <time>2021-06-12T08:46:26.000Z</time>
      </trkpt>
      <trkpt lat="47.34376" lon="-1.54351">
        <ele>84</ele>
        <time>2021-06-12T08:46:28.000Z</time>
      </trkpt>
      <trkpt lat="47.34372" lon="-1.54338">
        <ele>85</ele>
        <time>2021-06-12T08:46:30.000Z</time>
      </trkpt>
      <trkpt lat="47.34367" lon="-1.54325">
        <ele>85</ele>
        <time>2021-06-12T08:46:32.000Z</time>
      </trkpt>
      <trkpt lat="47.34363" lon="-1.54312">
        <ele>86</ele>
        <time>2021-06-12T08:46:34.000Z</time>
      </trkpt>
      <trkpt lat="47.34358" lon="-1.54299">
        <ele>86</ele>
        <time>2021-06-12T08:46:36.000Z</time>
      </trkpt>
      <trkpt lat="47.34353" lon="-1.54285">
        <ele>86</ele>
        <time>2021-06-12T08:46:38.000Z</time>
      </trkpt>
      <trkpt lat="47.34348" lon="-1.54271">
        <ele>86</ele>
        <time>2021-06-12T08:46:40.000Z</time>
      </trkpt>
      <trkpt lat="47.34341" lon="-1.54256">
        <ele>86</ele>
        <time>2021-06-12T08:46:42.000Z</time>
      </trkpt>
      <trkpt lat="47.34334" lon="-1.5424">
        <ele>86</ele>
        <time>2021-06-12T08:46:44.000Z</time>
      </trkpt>
      <trkpt lat="47.34328" lon="-1.54225">
        <ele>86</ele>
        <time>2021-06-12T08:46:46.000Z</time>
      </trkpt>
      <trkpt lat="47.34321" lon="-1.54209">
        <ele>86</ele>
        <time>2021-06-12T08:46:48.000Z</time>
      </trkpt>
      <trkpt lat="47.34313" lon="-1.54191">
        <ele>85</ele>
        <time>2021-06-12T08:46:50.000Z</time>
      </trkpt>
      <trkpt lat="47.34307" lon="-1.54173">
        <ele>85</ele>
        <time>2021-06-12T08:46:52.000Z</time>
      </trkpt>
      <trkpt lat="47.34301" lon="-1.54154">
        <ele>85</ele>
        <time>2021-06-12T08:46:54.000Z</time>
      </trkpt>
      <trkpt lat="47.34297" lon="-1.54134">
        <ele>84</ele>
        <time>2021-06-12T08:46:56.000Z</time>
      </trkpt>
      <trkpt lat="47.34294" lon="-1.54112">
        <ele>83</ele>
        <time>2021-06-12T08:46:58.000Z</time>
      </trkpt>
      <trkpt lat="47.3429" lon="-1.54091">
        <ele>82</ele>
        <time>2021-06-12T08:47:00.000Z</time>
      </trkpt>
      <trkpt lat="47.34287" lon="-1.5407">
        <ele>82</ele>
        <time>2021-06-12T08:47:02.000Z</time>
      </trkpt>
      <trkpt lat="47.34284" lon="-1.54049">
        <ele>82</ele>
        <time>2021-06-12T08:47:04.000Z</time>
      </trkpt>
      <trkpt lat="47.34279" lon="-1.54029">
        <ele>81</ele>
        <time>2021-06-12T08:47:06.000Z</time>
      </trkpt>
      <trkpt lat="47.34273" lon="-1.54007">
        <ele>81</ele>
        <time>2021-06-12T08:47:08.000Z</time>
      </trkpt>
      <trkpt lat="47.34266" lon="-1.53988">
        <ele>81</ele>
        <time>2021-06-12T08:47:10.000Z</time>
      </trkpt>
      <trkpt lat="47.34258" lon="-1.5397">
        <ele>81</ele>
        <time>2021-06-12T08:47:12.000Z</time>
      </trkpt>
      <trkpt lat="47.34252" lon="-1.53951">
        <ele>82</ele>
        <time>2021-06-12T08:47:14.000Z</time>
      </trkpt>
      <trkpt lat="47.34244" lon="-1.53933">
        <ele>81</ele>
        <time>2021-06-12T08:47:16.000Z</time>
      </trkpt>
      <trkpt lat="47.34235" lon="-1.53917">
        <ele>82</ele>
        <time>2021-06-12T08:47:18.000Z</time>
      </trkpt>
      <trkpt lat="47.34224" lon="-1.53901">
        <ele>81</ele>
        <time>2021-06-12T08:47:20.000Z</time>
      </trkpt>
      <trkpt lat="47.34214" lon="-1.53886">
        <ele>81</ele>
        <time>2021-06-12T08:47:22.000Z</time>
      </trkpt>
      <trkpt lat="47.34203" lon="-1.53873">
        <ele>81</ele>
        <time>2021-06-12T08:47:24.000Z</time>
      </trkpt>
      <trkpt lat="47.34193" lon="-1.5386">
        <ele>81</ele>
        <time>2021-06-12T08:47:26.000Z</time>
      </trkpt>
      <trkpt lat="47.34182" lon="-1.53848">
        <ele>82</ele>
        <time>2021-06-12T08:47:28.000Z</time>
      </trkpt>
      <trkpt lat="47.3417" lon="-1.53838">
        <ele>81</ele>
        <time>2021-06-12T08:47:30.000Z</time>
      </trkpt>
      <trkpt lat="47.34157" lon="-1.53825">
        <ele>82</ele>
        <time>2021-06-12T08:47:32.000Z</time>
      </trkpt>
      <trkpt lat="47.34144" lon="-1.53813">
        <ele>82</ele>
        <time>2021-06-12T08:47:34.000Z</time>
      </trkpt>
      <trkpt lat="47.34132" lon="-1.538">
        <ele>81</ele>
        <time>2021-06-12T08:47:36.000Z</time>
      </trkpt>
      <trkpt lat="47.34119" lon="-1.53787">
        <ele>82</ele>
        <time>2021-06-12T08:47:38.000Z</time>
      </trkpt>
      <trkpt lat="47.34106" lon="-1.53774">
        <ele>82</ele>
        <time>2021-06-12T08:47:40.000Z</time>
      </trkpt>
      <trkpt lat="47.34094" lon="-1.53762">
        <ele>82</ele>
        <time>2021-06-12T08:47:42.000Z</time>
      </trkpt>
      <trkpt lat="47.34082" lon="-1.53749">
        <ele>83</ele>
        <time>2021-06-12T08:47:44.000Z</time>
      </trkpt>
      <trkpt lat="47.3407" lon="-1.53737">
        <ele>82</ele>
        <time>2021-06-12T08:47:46.000Z</time>
      </trkpt>
      <trkpt lat="47.34057" lon="-1.53724">
        <ele>82</ele>
        <time>2021-06-12T08:47:48.000Z</time>
      </trkpt>
      <trkpt lat="47.34045" lon="-1.53711">
        <ele>82</ele>
        <time>2021-06-12T08:47:50.000Z</time>
      </trkpt>
      <trkpt lat="47.34033" lon="-1.53699">
        <ele>81</ele>
        <time>2021-06-12T08:47:52.000Z</time>
      </trkpt>
      <trkpt lat="47.34021" lon="-1.53686">
        <ele>81</ele>
        <time>2021-06-12T08:47:54.000Z</time>
      </trkpt>
      <trkpt lat="47.34009" lon="-1.53674">
        <ele>81</ele>
        <time>2021-06-12T08:47:56.000Z</time>
      </trkpt>
      <trkpt lat="47.33997" lon="-1.53661">
        <ele>80</ele>
        <time>2021-06-12T08:47:58.000Z</time>
      </trkpt>
      <trkpt lat="47.33984" lon="-1.53649">
        <ele>80</ele>
        <time>2021-06-12T08:48:00.000Z</time>
      </trkpt>
      <trkpt lat="47.33971" lon="-1.53636">
        <ele>80</ele>
        <time>2021-06-12T08:48:02.000Z</time>
      </trkpt>
      <trkpt lat="47.33958" lon="-1.53621">
        <ele>79</ele>
        <time>2021-06-12T08:48:04.000Z</time>
      </trkpt>
      <trkpt lat="47.33944" lon="-1.53608">
        <ele>79</ele>
        <time>2021-06-12T08:48:06.000Z</time>
      </trkpt>
      <trkpt lat="47.33931" lon="-1.53592">
        <ele>79</ele>
        <time>2021-06-12T08:48:08.000Z</time>
      </trkpt>
      <trkpt lat="47.3392" lon="-1.53571">
        <ele>78</ele>
        <time>2021-06-12T08:48:10.000Z</time>
      </trkpt>
      <trkpt lat="47.33916" lon="-1.53559">
        <ele>78</ele>
        <time>2021-06-12T08:48:11.000Z</time>
      </trkpt>
      <trkpt lat="47.33913" lon="-1.53546">
        <ele>77</ele>
        <time>2021-06-12T08:48:12.000Z</time>
      </trkpt>
      <trkpt lat="47.33912" lon="-1.53533">
        <ele>77</ele>
        <time>2021-06-12T08:48:13.000Z</time>
      </trkpt>
      <trkpt lat="47.33912" lon="-1.53519">
        <ele>76</ele>
        <time>2021-06-12T08:48:14.000Z</time>
      </trkpt>
      <trkpt lat="47.33914" lon="-1.53504">
        <ele>75</ele>
        <time>2021-06-12T08:48:15.000Z</time>
      </trkpt>
      <trkpt lat="47.33915" lon="-1.53489">
        <ele>75</ele>
        <time>2021-06-12T08:48:16.000Z</time>
      </trkpt>
      <trkpt lat="47.33915" lon="-1.53475">
        <ele>74</ele>
        <time>2021-06-12T08:48:17.000Z</time>
      </trkpt>
      <trkpt lat="47.33914" lon="-1.53461">
        <ele>73</ele>
        <time>2021-06-12T08:48:18.000Z</time>
      </trkpt>
      <trkpt lat="47.33912" lon="-1.53447">
        <ele>72</ele>
        <time>2021-06-12T08:48:19.000Z</time>
      </trkpt>
      <trkpt lat="47.33907" lon="-1.53435">
        <ele>72</ele>
        <time>2021-06-12T08:48:20.000Z</time>
      </trkpt>
      <trkpt lat="47.33903" lon="-1.53424">
        <ele>71</ele>
        <time>2021-06-12T08:48:21.000Z</time>
      </trkpt>
      <trkpt lat="47.33899" lon="-1.53412">
        <ele>71</ele>
        <time>2021-06-12T08:48:22.000Z</time>
      </trkpt>
      <trkpt lat="47.33897" lon="-1.53386">
        <ele>70</ele>
        <time>2021-06-12T08:48:24.000Z</time>
      </trkpt>
      <trkpt lat="47.33899" lon="-1.53372">
        <ele>70</ele>
        <time>2021-06-12T08:48:25.000Z</time>
      </trkpt>
      <trkpt lat="47.33903" lon="-1.53359">
        <ele>69</ele>
        <time>2021-06-12T08:48:26.000Z</time>
      </trkpt>
      <trkpt lat="47.33907" lon="-1.53347">
        <ele>68</ele>
        <time>2021-06-12T08:48:27.000Z</time>
      </trkpt>
      <trkpt lat="47.33912" lon="-1.53336">
        <ele>68</ele>
        <time>2021-06-12T08:48:28.000Z</time>
      </trkpt>
      <trkpt lat="47.33921" lon="-1.53313">
        <ele>68</ele>
        <time>2021-06-12T08:48:30.000Z</time>
      </trkpt>
      <trkpt lat="47.33926" lon="-1.53301">
        <ele>67</ele>
        <time>2021-06-12T08:48:31.000Z</time>
      </trkpt>
      <trkpt lat="47.33935" lon="-1.53279">
        <ele>67</ele>
        <time>2021-06-12T08:48:33.000Z</time>
      </trkpt>
      <trkpt lat="47.33943" lon="-1.53256">
        <ele>67</ele>
        <time>2021-06-12T08:48:35.000Z</time>
      </trkpt>
      <trkpt lat="47.33952" lon="-1.53235">
        <ele>65</ele>
        <time>2021-06-12T08:48:37.000Z</time>
      </trkpt>
      <trkpt lat="47.33959" lon="-1.53218">
        <ele>64</ele>
        <time>2021-06-12T08:48:39.000Z</time>
      </trkpt>
      <trkpt lat="47.33955" lon="-1.53204">
        <ele>62</ele>
        <time>2021-06-12T08:48:55.000Z</time>
      </trkpt>
      <trkpt lat="47.33952" lon="-1.53191">
        <ele>63</ele>
        <time>2021-06-12T08:48:57.000Z</time>
      </trkpt>
      <trkpt lat="47.33944" lon="-1.53176">
        <ele>63</ele>
        <time>2021-06-12T08:48:59.000Z</time>
      </trkpt>
      <trkpt lat="47.33936" lon="-1.53159">
        <ele>63</ele>
        <time>2021-06-12T08:49:01.000Z</time>
      </trkpt>
      <trkpt lat="47.33928" lon="-1.53141">
        <ele>62</ele>
        <time>2021-06-12T08:49:03.000Z</time>
      </trkpt>
      <trkpt lat="47.33919" lon="-1.53124">
        <ele>61</ele>
        <time>2021-06-12T08:49:05.000Z</time>
      </trkpt>
      <trkpt lat="47.3391" lon="-1.53105">
        <ele>60</ele>
        <time>2021-06-12T08:49:07.000Z</time>
      </trkpt>
      <trkpt lat="47.33902" lon="-1.53089">
        <ele>59</ele>
        <time>2021-06-12T08:49:09.000Z</time>
      </trkpt>
      <trkpt lat="47.33896" lon="-1.53077">
        <ele>59</ele>
        <time>2021-06-12T08:49:11.000Z</time>
      </trkpt>
      <trkpt lat="47.33896" lon="-1.53058">
        <ele>58</ele>
        <time>2021-06-12T08:49:14.000Z</time>
      </trkpt>
      <trkpt lat="47.33903" lon="-1.53041">
        <ele>58</ele>
        <time>2021-06-12T08:49:16.000Z</time>
      </trkpt>
      <trkpt lat="47.3391" lon="-1.53023">
        <ele>57</ele>
        <time>2021-06-12T08:49:18.000Z</time>
      </trkpt>
      <trkpt lat="47.33917" lon="-1.53005">
        <ele>57</ele>
        <time>2021-06-12T08:49:20.000Z</time>
      </trkpt>
      <trkpt lat="47.33923" lon="-1.52987">
        <ele>57</ele>
        <time>2021-06-12T08:49:22.000Z</time>
      </trkpt>
      <trkpt lat="47.3393" lon="-1.52969">
        <ele>57</ele>
        <time>2021-06-12T08:49:24.000Z</time>
      </trkpt>
      <trkpt lat="47.33937" lon="-1.52953">
        <ele>58</ele>
        <time>2021-06-12T08:49:26.000Z</time>
      </trkpt>
      <trkpt lat="47.33942" lon="-1.52937">
        <ele>58</ele>
        <time>2021-06-12T08:49:28.000Z</time>
      </trkpt>
      <trkpt lat="47.33948" lon="-1.5292">
        <ele>58</ele>
        <time>2021-06-12T08:49:30.000Z</time>
      </trkpt>
      <trkpt lat="47.33954" lon="-1.52904">
        <ele>59</ele>
        <time>2021-06-12T08:49:32.000Z</time>
      </trkpt>
      <trkpt lat="47.3396" lon="-1.52889">
        <ele>59</ele>
        <time>2021-06-12T08:49:34.000Z</time>
      </trkpt>
      <trkpt lat="47.33965" lon="-1.52875">
        <ele>59</ele>
        <time>2021-06-12T08:49:36.000Z</time>
      </trkpt>
      <trkpt lat="47.33971" lon="-1.5286">
        <ele>59</ele>
        <time>2021-06-12T08:49:39.000Z</time>
      </trkpt>
      <trkpt lat="47.3396" lon="-1.52851">
        <ele>58</ele>
        <time>2021-06-12T08:49:42.000Z</time>
      </trkpt>
      <trkpt lat="47.3395" lon="-1.52843">
        <ele>58</ele>
        <time>2021-06-12T08:49:44.000Z</time>
      </trkpt>
      <trkpt lat="47.3394" lon="-1.52834">
        <ele>58</ele>
        <time>2021-06-12T08:49:46.000Z</time>
      </trkpt>
      <trkpt lat="47.33928" lon="-1.52825">
        <ele>58</ele>
        <time>2021-06-12T08:49:48.000Z</time>
      </trkpt>
      <trkpt lat="47.33917" lon="-1.52814">
        <ele>58</ele>
        <time>2021-06-12T08:49:50.000Z</time>
      </trkpt>
      <trkpt lat="47.33911" lon="-1.52798">
        <ele>57</ele>
        <time>2021-06-12T08:49:52.000Z</time>
      </trkpt>
      <trkpt lat="47.33912" lon="-1.52782">
        <ele>57</ele>
        <time>2021-06-12T08:49:54.000Z</time>
      </trkpt>
      <trkpt lat="47.33915" lon="-1.52767">
        <ele>57</ele>
        <time>2021-06-12T08:49:56.000Z</time>
      </trkpt>
      <trkpt lat="47.33918" lon="-1.52751">
        <ele>57</ele>
        <time>2021-06-12T08:49:58.000Z</time>
      </trkpt>
      <trkpt lat="47.33921" lon="-1.52735">
        <ele>57</ele>
        <time>2021-06-12T08:50:00.000Z</time>
      </trkpt>
      <trkpt lat="47.33923" lon="-1.52718">
        <ele>58</ele>
        <time>2021-06-12T08:50:02.000Z</time>
      </trkpt>
      <trkpt lat="47.33925" lon="-1.52701">
        <ele>58</ele>
        <time>2021-06-12T08:50:04.000Z</time>
      </trkpt>
      <trkpt lat="47.33928" lon="-1.52681">
        <ele>57</ele>
        <time>2021-06-12T08:50:06.000Z</time>
      </trkpt>
      <trkpt lat="47.33931" lon="-1.52662">
        <ele>57</ele>
        <time>2021-06-12T08:50:08.000Z</time>
      </trkpt>
      <trkpt lat="47.33933" lon="-1.52644">
        <ele>57</ele>
        <time>2021-06-12T08:50:10.000Z</time>
      </trkpt>
      <trkpt lat="47.33937" lon="-1.52626">
        <ele>57</ele>
        <time>2021-06-12T08:50:12.000Z</time>
      </trkpt>
      <trkpt lat="47.33939" lon="-1.52609">
        <ele>57</ele>
        <time>2021-06-12T08:50:14.000Z</time>
      </trkpt>
      <trkpt lat="47.33932" lon="-1.52599">
        <ele>57</ele>
        <time>2021-06-12T08:50:16.000Z</time>
      </trkpt>
      <trkpt lat="47.33921" lon="-1.52594">
        <ele>56</ele>
        <time>2021-06-12T08:50:18.000Z</time>
      </trkpt>
      <trkpt lat="47.3391" lon="-1.52589">
        <ele>56</ele>
        <time>2021-06-12T08:50:20.000Z</time>
      </trkpt>
      <trkpt lat="47.33898" lon="-1.52585">
        <ele>56</ele>
        <time>2021-06-12T08:50:22.000Z</time>
      </trkpt>
      <trkpt lat="47.33886" lon="-1.5258">
        <ele>56</ele>
        <time>2021-06-12T08:50:24.000Z</time>
      </trkpt>
      <trkpt lat="47.33874" lon="-1.52576">
        <ele>57</ele>
        <time>2021-06-12T08:50:26.000Z</time>
      </trkpt>
      <trkpt lat="47.33862" lon="-1.52571">
        <ele>57</ele>
        <time>2021-06-12T08:50:28.000Z</time>
      </trkpt>
      <trkpt lat="47.33851" lon="-1.52566">
        <ele>58</ele>
        <time>2021-06-12T08:50:30.000Z</time>
      </trkpt>
      <trkpt lat="47.33839" lon="-1.52563">
        <ele>59</ele>
        <time>2021-06-12T08:50:32.000Z</time>
      </trkpt>
      <trkpt lat="47.33828" lon="-1.52558">
        <ele>59</ele>
        <time>2021-06-12T08:50:34.000Z</time>
      </trkpt>
      <trkpt lat="47.33816" lon="-1.52554">
        <ele>59</ele>
        <time>2021-06-12T08:50:36.000Z</time>
      </trkpt>
      <trkpt lat="47.33805" lon="-1.5255">
        <ele>60</ele>
        <time>2021-06-12T08:50:38.000Z</time>
      </trkpt>
      <trkpt lat="47.33794" lon="-1.52545">
        <ele>61</ele>
        <time>2021-06-12T08:50:40.000Z</time>
      </trkpt>
      <trkpt lat="47.33784" lon="-1.5254">
        <ele>61</ele>
        <time>2021-06-12T08:50:42.000Z</time>
      </trkpt>
      <trkpt lat="47.33772" lon="-1.52536">
        <ele>61</ele>
        <time>2021-06-12T08:50:44.000Z</time>
      </trkpt>
      <trkpt lat="47.3376" lon="-1.52531">
        <ele>61</ele>
        <time>2021-06-12T08:50:46.000Z</time>
      </trkpt>
      <trkpt lat="47.33747" lon="-1.52526">
        <ele>61</ele>
        <time>2021-06-12T08:50:48.000Z</time>
      </trkpt>
      <trkpt lat="47.33735" lon="-1.52521">
        <ele>61</ele>
        <time>2021-06-12T08:50:50.000Z</time>
      </trkpt>
      <trkpt lat="47.33722" lon="-1.52514">
        <ele>61</ele>
        <time>2021-06-12T08:50:52.000Z</time>
      </trkpt>
      <trkpt lat="47.33711" lon="-1.52502">
        <ele>60</ele>
        <time>2021-06-12T08:50:54.000Z</time>
      </trkpt>
      <trkpt lat="47.33702" lon="-1.5249">
        <ele>61</ele>
        <time>2021-06-12T08:50:56.000Z</time>
      </trkpt>
      <trkpt lat="47.33695" lon="-1.52477">
        <ele>61</ele>
        <time>2021-06-12T08:50:58.000Z</time>
      </trkpt>
      <trkpt lat="47.33699" lon="-1.52462">
        <ele>61</ele>
        <time>2021-06-12T08:51:00.000Z</time>
      </trkpt>
      <trkpt lat="47.33704" lon="-1.52447">
        <ele>61</ele>
        <time>2021-06-12T08:51:02.000Z</time>
      </trkpt>
      <trkpt lat="47.33707" lon="-1.52434">
        <ele>61</ele>
        <time>2021-06-12T08:51:04.000Z</time>
      </trkpt>
      <trkpt lat="47.33709" lon="-1.52416">
        <ele>61</ele>
        <time>2021-06-12T08:51:07.000Z</time>
      </trkpt>
      <trkpt lat="47.33712" lon="-1.52403">
        <ele>62</ele>
        <time>2021-06-12T08:51:09.000Z</time>
      </trkpt>
      <trkpt lat="47.33716" lon="-1.52388">
        <ele>62</ele>
        <time>2021-06-12T08:51:11.000Z</time>
      </trkpt>
      <trkpt lat="47.33718" lon="-1.52374">
        <ele>62</ele>
        <time>2021-06-12T08:51:13.000Z</time>
      </trkpt>
      <trkpt lat="47.3372" lon="-1.5236">
        <ele>62</ele>
        <time>2021-06-12T08:51:15.000Z</time>
      </trkpt>
      <trkpt lat="47.33723" lon="-1.52345">
        <ele>62</ele>
        <time>2021-06-12T08:51:17.000Z</time>
      </trkpt>
      <trkpt lat="47.33726" lon="-1.5233">
        <ele>62</ele>
        <time>2021-06-12T08:51:19.000Z</time>
      </trkpt>
      <trkpt lat="47.33729" lon="-1.52316">
        <ele>62</ele>
        <time>2021-06-12T08:51:21.000Z</time>
      </trkpt>
      <trkpt lat="47.33732" lon="-1.52301">
        <ele>62</ele>
        <time>2021-06-12T08:51:23.000Z</time>
      </trkpt>
      <trkpt lat="47.33735" lon="-1.52286">
        <ele>62</ele>
        <time>2021-06-12T08:51:25.000Z</time>
      </trkpt>
      <trkpt lat="47.33738" lon="-1.52271">
        <ele>63</ele>
        <time>2021-06-12T08:51:27.000Z</time>
      </trkpt>
      <trkpt lat="47.33741" lon="-1.52255">
        <ele>64</ele>
        <time>2021-06-12T08:51:29.000Z</time>
      </trkpt>
      <trkpt lat="47.33744" lon="-1.5224">
        <ele>63</ele>
        <time>2021-06-12T08:51:31.000Z</time>
      </trkpt>
      <trkpt lat="47.33747" lon="-1.52225">
        <ele>64</ele>
        <time>2021-06-12T08:51:33.000Z</time>
      </trkpt>
      <trkpt lat="47.33749" lon="-1.52209">
        <ele>64</ele>
        <time>2021-06-12T08:51:35.000Z</time>
      </trkpt>
      <trkpt lat="47.33751" lon="-1.52192">
        <ele>65</ele>
        <time>2021-06-12T08:51:37.000Z</time>
      </trkpt>
      <trkpt lat="47.33752" lon="-1.52176">
        <ele>64</ele>
        <time>2021-06-12T08:51:39.000Z</time>
      </trkpt>
      <trkpt lat="47.33753" lon="-1.52159">
        <ele>65</ele>
        <time>2021-06-12T08:51:41.000Z</time>
      </trkpt>
      <trkpt lat="47.33754" lon="-1.52143">
        <ele>65</ele>
        <time>2021-06-12T08:51:43.000Z</time>
      </trkpt>
      <trkpt lat="47.33755" lon="-1.52127">
        <ele>66</ele>
        <time>2021-06-12T08:51:45.000Z</time>
      </trkpt>
      <trkpt lat="47.33756" lon="-1.52112">
        <ele>67</ele>
        <time>2021-06-12T08:51:47.000Z</time>
      </trkpt>
      <trkpt lat="47.33758" lon="-1.52098">
        <ele>67</ele>
        <time>2021-06-12T08:51:49.000Z</time>
      </trkpt>
      <trkpt lat="47.3376" lon="-1.52083">
        <ele>68</ele>
        <time>2021-06-12T08:51:51.000Z</time>
      </trkpt>
      <trkpt lat="47.33761" lon="-1.52068">
        <ele>68</ele>
        <time>2021-06-12T08:51:53.000Z</time>
      </trkpt>
      <trkpt lat="47.33762" lon="-1.52054">
        <ele>68</ele>
        <time>2021-06-12T08:51:55.000Z</time>
      </trkpt>
      <trkpt lat="47.3376" lon="-1.52039">
        <ele>69</ele>
        <time>2021-06-12T08:51:57.000Z</time>
      </trkpt>
      <trkpt lat="47.3376" lon="-1.52024">
        <ele>69</ele>
        <time>2021-06-12T08:51:59.000Z</time>
      </trkpt>
      <trkpt lat="47.3376" lon="-1.52009">
        <ele>69</ele>
        <time>2021-06-12T08:52:01.000Z</time>
      </trkpt>
      <trkpt lat="47.33758" lon="-1.51994">
        <ele>70</ele>
        <time>2021-06-12T08:52:03.000Z</time>
      </trkpt>
      <trkpt lat="47.33755" lon="-1.51978">
        <ele>70</ele>
        <time>2021-06-12T08:52:05.000Z</time>
      </trkpt>
      <trkpt lat="47.33753" lon="-1.51963">
        <ele>71</ele>
        <time>2021-06-12T08:52:07.000Z</time>
      </trkpt>
      <trkpt lat="47.33751" lon="-1.51948">
        <ele>71</ele>
        <time>2021-06-12T08:52:09.000Z</time>
      </trkpt>
      <trkpt lat="47.33749" lon="-1.51933">
        <ele>72</ele>
        <time>2021-06-12T08:52:11.000Z</time>
      </trkpt>
      <trkpt lat="47.33749" lon="-1.51917">
        <ele>72</ele>
        <time>2021-06-12T08:52:13.000Z</time>
      </trkpt>
      <trkpt lat="47.33748" lon="-1.51902">
        <ele>72</ele>
        <time>2021-06-12T08:52:15.000Z</time>
      </trkpt>
      <trkpt lat="47.33747" lon="-1.51885">
        <ele>72</ele>
        <time>2021-06-12T08:52:17.000Z</time>
      </trkpt>
      <trkpt lat="47.33747" lon="-1.51869">
        <ele>72</ele>
        <time>2021-06-12T08:52:19.000Z</time>
      </trkpt>
      <trkpt lat="47.33746" lon="-1.51853">
        <ele>73</ele>
        <time>2021-06-12T08:52:21.000Z</time>
      </trkpt>
      <trkpt lat="47.33746" lon="-1.51838">
        <ele>74</ele>
        <time>2021-06-12T08:52:23.000Z</time>
      </trkpt>
      <trkpt lat="47.33745" lon="-1.51822">
        <ele>74</ele>
        <time>2021-06-12T08:52:25.000Z</time>
      </trkpt>
      <trkpt lat="47.33744" lon="-1.51806">
        <ele>74</ele>
        <time>2021-06-12T08:52:27.000Z</time>
      </trkpt>
      <trkpt lat="47.33743" lon="-1.51791">
        <ele>75</ele>
        <time>2021-06-12T08:52:29.000Z</time>
      </trkpt>
      <trkpt lat="47.33742" lon="-1.51776">
        <ele>75</ele>
        <time>2021-06-12T08:52:31.000Z</time>
      </trkpt>
      <trkpt lat="47.33742" lon="-1.51761">
        <ele>75</ele>
        <time>2021-06-12T08:52:33.000Z</time>
      </trkpt>
      <trkpt lat="47.33741" lon="-1.51745">
        <ele>75</ele>
        <time>2021-06-12T08:52:35.000Z</time>
      </trkpt>
      <trkpt lat="47.33741" lon="-1.51729">
        <ele>75</ele>
        <time>2021-06-12T08:52:37.000Z</time>
      </trkpt>
      <trkpt lat="47.33739" lon="-1.51712">
        <ele>75</ele>
        <time>2021-06-12T08:52:39.000Z</time>
      </trkpt>
      <trkpt lat="47.33738" lon="-1.51696">
        <ele>75</ele>
        <time>2021-06-12T08:52:41.000Z</time>
      </trkpt>
      <trkpt lat="47.33736" lon="-1.51679">
        <ele>75</ele>
        <time>2021-06-12T08:52:43.000Z</time>
      </trkpt>
      <trkpt lat="47.33733" lon="-1.51662">
        <ele>74</ele>
        <time>2021-06-12T08:52:45.000Z</time>
      </trkpt>
      <trkpt lat="47.33729" lon="-1.51644">
        <ele>73</ele>
        <time>2021-06-12T08:52:47.000Z</time>
      </trkpt>
      <trkpt lat="47.33725" lon="-1.51626">
        <ele>73</ele>
        <time>2021-06-12T08:52:49.000Z</time>
      </trkpt>
      <trkpt lat="47.33719" lon="-1.5161">
        <ele>73</ele>
        <time>2021-06-12T08:52:51.000Z</time>
      </trkpt>
      <trkpt lat="47.33715" lon="-1.51593">
        <ele>73</ele>
        <time>2021-06-12T08:52:53.000Z</time>
      </trkpt>
      <trkpt lat="47.33711" lon="-1.51576">
        <ele>73</ele>
        <time>2021-06-12T08:52:55.000Z</time>
      </trkpt>
      <trkpt lat="47.33707" lon="-1.51557">
        <ele>73</ele>
        <time>2021-06-12T08:52:57.000Z</time>
      </trkpt>
      <trkpt lat="47.33702" lon="-1.51538">
        <ele>72</ele>
        <time>2021-06-12T08:52:59.000Z</time>
      </trkpt>
      <trkpt lat="47.33698" lon="-1.51519">
        <ele>72</ele>
        <time>2021-06-12T08:53:01.000Z</time>
      </trkpt>
      <trkpt lat="47.33695" lon="-1.51499">
        <ele>72</ele>
        <time>2021-06-12T08:53:03.000Z</time>
      </trkpt>
      <trkpt lat="47.33694" lon="-1.51479">
        <ele>72</ele>
        <time>2021-06-12T08:53:05.000Z</time>
      </trkpt>
      <trkpt lat="47.33692" lon="-1.51459">
        <ele>72</ele>
        <time>2021-06-12T08:53:07.000Z</time>
      </trkpt>
      <trkpt lat="47.33691" lon="-1.51438">
        <ele>71</ele>
        <time>2021-06-12T08:53:09.000Z</time>
      </trkpt>
      <trkpt lat="47.33687" lon="-1.51417">
        <ele>70</ele>
        <time>2021-06-12T08:53:11.000Z</time>
      </trkpt>
      <trkpt lat="47.33683" lon="-1.51399">
        <ele>69</ele>
        <time>2021-06-12T08:53:13.000Z</time>
      </trkpt>
      <trkpt lat="47.33679" lon="-1.51379">
        <ele>69</ele>
        <time>2021-06-12T08:53:15.000Z</time>
      </trkpt>
      <trkpt lat="47.33675" lon="-1.51359">
        <ele>68</ele>
        <time>2021-06-12T08:53:17.000Z</time>
      </trkpt>
      <trkpt lat="47.33671" lon="-1.51339">
        <ele>68</ele>
        <time>2021-06-12T08:53:19.000Z</time>
      </trkpt>
      <trkpt lat="47.33666" lon="-1.51319">
        <ele>67</ele>
        <time>2021-06-12T08:53:21.000Z</time>
      </trkpt>
      <trkpt lat="47.33663" lon="-1.51298">
        <ele>67</ele>
        <time>2021-06-12T08:53:23.000Z</time>
      </trkpt>
      <trkpt lat="47.3366" lon="-1.51278">
        <ele>67</ele>
        <time>2021-06-12T08:53:25.000Z</time>
      </trkpt>
      <trkpt lat="47.33657" lon="-1.51257">
        <ele>66</ele>
        <time>2021-06-12T08:53:27.000Z</time>
      </trkpt>
      <trkpt lat="47.33655" lon="-1.51235">
        <ele>66</ele>
        <time>2021-06-12T08:53:29.000Z</time>
      </trkpt>
      <trkpt lat="47.33655" lon="-1.51213">
        <ele>66</ele>
        <time>2021-06-12T08:53:31.000Z</time>
      </trkpt>
      <trkpt lat="47.33654" lon="-1.51192">
        <ele>65</ele>
        <time>2021-06-12T08:53:33.000Z</time>
      </trkpt>
      <trkpt lat="47.33653" lon="-1.5117">
        <ele>64</ele>
        <time>2021-06-12T08:53:35.000Z</time>
      </trkpt>
      <trkpt lat="47.33653" lon="-1.51149">
        <ele>64</ele>
        <time>2021-06-12T08:53:37.000Z</time>
      </trkpt>
      <trkpt lat="47.33653" lon="-1.51128">
        <ele>64</ele>
        <time>2021-06-12T08:53:39.000Z</time>
      </trkpt>
      <trkpt lat="47.33652" lon="-1.51109">
        <ele>64</ele>
        <time>2021-06-12T08:53:41.000Z</time>
      </trkpt>
      <trkpt lat="47.33651" lon="-1.51094">
        <ele>64</ele>
        <time>2021-06-12T08:53:44.000Z</time>
      </trkpt>
      <trkpt lat="47.33653" lon="-1.51081">
        <ele>64</ele>
        <time>2021-06-12T08:53:46.000Z</time>
      </trkpt>
      <trkpt lat="47.33657" lon="-1.51065">
        <ele>65</ele>
        <time>2021-06-12T08:53:48.000Z</time>
      </trkpt>
      <trkpt lat="47.33663" lon="-1.51049">
        <ele>65</ele>
        <time>2021-06-12T08:53:50.000Z</time>
      </trkpt>
      <trkpt lat="47.33668" lon="-1.51031">
        <ele>66</ele>
        <time>2021-06-12T08:53:52.000Z</time>
      </trkpt>
      <trkpt lat="47.33672" lon="-1.51012">
        <ele>66</ele>
        <time>2021-06-12T08:53:54.000Z</time>
      </trkpt>
      <trkpt lat="47.33676" lon="-1.50992">
        <ele>67</ele>
        <time>2021-06-12T08:53:56.000Z</time>
      </trkpt>
      <trkpt lat="47.33679" lon="-1.50972">
        <ele>66</ele>
        <time>2021-06-12T08:53:58.000Z</time>
      </trkpt>
      <trkpt lat="47.33682" lon="-1.50952">
        <ele>65</ele>
        <time>2021-06-12T08:54:00.000Z</time>
      </trkpt>
      <trkpt lat="47.33686" lon="-1.50931">
        <ele>64</ele>
        <time>2021-06-12T08:54:02.000Z</time>
      </trkpt>
      <trkpt lat="47.3369" lon="-1.50911">
        <ele>64</ele>
        <time>2021-06-12T08:54:04.000Z</time>
      </trkpt>
      <trkpt lat="47.33695" lon="-1.50891">
        <ele>63</ele>
        <time>2021-06-12T08:54:06.000Z</time>
      </trkpt>
      <trkpt lat="47.33699" lon="-1.50871">
        <ele>63</ele>
        <time>2021-06-12T08:54:08.000Z</time>
      </trkpt>
      <trkpt lat="47.33703" lon="-1.5085">
        <ele>63</ele>
        <time>2021-06-12T08:54:10.000Z</time>
      </trkpt>
      <trkpt lat="47.33707" lon="-1.50828">
        <ele>62</ele>
        <time>2021-06-12T08:54:12.000Z</time>
      </trkpt>
      <trkpt lat="47.33711" lon="-1.50807">
        <ele>62</ele>
        <time>2021-06-12T08:54:14.000Z</time>
      </trkpt>
      <trkpt lat="47.33715" lon="-1.50786">
        <ele>62</ele>
        <time>2021-06-12T08:54:16.000Z</time>
      </trkpt>
      <trkpt lat="47.33719" lon="-1.50765">
        <ele>61</ele>
        <time>2021-06-12T08:54:18.000Z</time>
      </trkpt>
      <trkpt lat="47.33723" lon="-1.50745">
        <ele>60</ele>
        <time>2021-06-12T08:54:20.000Z</time>
      </trkpt>
      <trkpt lat="47.33727" lon="-1.50725">
        <ele>60</ele>
        <time>2021-06-12T08:54:22.000Z</time>
      </trkpt>
      <trkpt lat="47.33731" lon="-1.50704">
        <ele>59</ele>
        <time>2021-06-12T08:54:24.000Z</time>
      </trkpt>
      <trkpt lat="47.33735" lon="-1.50684">
        <ele>59</ele>
        <time>2021-06-12T08:54:26.000Z</time>
      </trkpt>
      <trkpt lat="47.33738" lon="-1.50663">
        <ele>59</ele>
        <time>2021-06-12T08:54:28.000Z</time>
      </trkpt>
      <trkpt lat="47.33743" lon="-1.50643">
        <ele>59</ele>
        <time>2021-06-12T08:54:30.000Z</time>
      </trkpt>
      <trkpt lat="47.33746" lon="-1.50623">
        <ele>59</ele>
        <time>2021-06-12T08:54:32.000Z</time>
      </trkpt>
      <trkpt lat="47.3375" lon="-1.50603">
        <ele>59</ele>
        <time>2021-06-12T08:54:34.000Z</time>
      </trkpt>
      <trkpt lat="47.33754" lon="-1.50583">
        <ele>59</ele>
        <time>2021-06-12T08:54:36.000Z</time>
      </trkpt>
      <trkpt lat="47.33758" lon="-1.50562">
        <ele>59</ele>
        <time>2021-06-12T08:54:38.000Z</time>
      </trkpt>
      <trkpt lat="47.33762" lon="-1.50542">
        <ele>59</ele>
        <time>2021-06-12T08:54:40.000Z</time>
      </trkpt>
      <trkpt lat="47.33766" lon="-1.50521">
        <ele>59</ele>
        <time>2021-06-12T08:54:42.000Z</time>
      </trkpt>
      <trkpt lat="47.3377" lon="-1.50501">
        <ele>58</ele>
        <time>2021-06-12T08:54:44.000Z</time>
      </trkpt>
      <trkpt lat="47.33775" lon="-1.50482">
        <ele>58</ele>
        <time>2021-06-12T08:54:46.000Z</time>
      </trkpt>
      <trkpt lat="47.33778" lon="-1.50462">
        <ele>58</ele>
        <time>2021-06-12T08:54:48.000Z</time>
      </trkpt>
      <trkpt lat="47.33781" lon="-1.50442">
        <ele>58</ele>
        <time>2021-06-12T08:54:50.000Z</time>
      </trkpt>
      <trkpt lat="47.33785" lon="-1.50423">
        <ele>58</ele>
        <time>2021-06-12T08:54:52.000Z</time>
      </trkpt>
      <trkpt lat="47.33789" lon="-1.50403">
        <ele>59</ele>
        <time>2021-06-12T08:54:54.000Z</time>
      </trkpt>
      <trkpt lat="47.33791" lon="-1.50383">
        <ele>59</ele>
        <time>2021-06-12T08:54:56.000Z</time>
      </trkpt>
      <trkpt lat="47.3379" lon="-1.50363">
        <ele>59</ele>
        <time>2021-06-12T08:54:58.000Z</time>
      </trkpt>
      <trkpt lat="47.33788" lon="-1.50343">
        <ele>59</ele>
        <time>2021-06-12T08:55:00.000Z</time>
      </trkpt>
      <trkpt lat="47.33786" lon="-1.50324">
        <ele>59</ele>
        <time>2021-06-12T08:55:02.000Z</time>
      </trkpt>
      <trkpt lat="47.33783" lon="-1.50306">
        <ele>59</ele>
        <time>2021-06-12T08:55:04.000Z</time>
      </trkpt>
      <trkpt lat="47.3378" lon="-1.50288">
        <ele>59</ele>
        <time>2021-06-12T08:55:06.000Z</time>
      </trkpt>
      <trkpt lat="47.33778" lon="-1.5027">
        <ele>60</ele>
        <time>2021-06-12T08:55:08.000Z</time>
      </trkpt>
      <trkpt lat="47.33775" lon="-1.50251">
        <ele>59</ele>
        <time>2021-06-12T08:55:10.000Z</time>
      </trkpt>
      <trkpt lat="47.33772" lon="-1.50232">
        <ele>60</ele>
        <time>2021-06-12T08:55:12.000Z</time>
      </trkpt>
      <trkpt lat="47.33769" lon="-1.50213">
        <ele>60</ele>
        <time>2021-06-12T08:55:14.000Z</time>
      </trkpt>
      <trkpt lat="47.33767" lon="-1.50195">
        <ele>61</ele>
        <time>2021-06-12T08:55:16.000Z</time>
      </trkpt>
      <trkpt lat="47.33764" lon="-1.50176">
        <ele>61</ele>
        <time>2021-06-12T08:55:18.000Z</time>
      </trkpt>
      <trkpt lat="47.3376" lon="-1.50157">
        <ele>61</ele>
        <time>2021-06-12T08:55:20.000Z</time>
      </trkpt>
      <trkpt lat="47.33758" lon="-1.50137">
        <ele>62</ele>
        <time>2021-06-12T08:55:22.000Z</time>
      </trkpt>
      <trkpt lat="47.33756" lon="-1.50118">
        <ele>63</ele>
        <time>2021-06-12T08:55:24.000Z</time>
      </trkpt>
      <trkpt lat="47.33755" lon="-1.50098">
        <ele>63</ele>
        <time>2021-06-12T08:55:26.000Z</time>
      </trkpt>
      <trkpt lat="47.33754" lon="-1.50078">
        <ele>63</ele>
        <time>2021-06-12T08:55:28.000Z</time>
      </trkpt>
      <trkpt lat="47.33753" lon="-1.50059">
        <ele>63</ele>
        <time>2021-06-12T08:55:30.000Z</time>
      </trkpt>
      <trkpt lat="47.33751" lon="-1.50041">
        <ele>64</ele>
        <time>2021-06-12T08:55:32.000Z</time>
      </trkpt>
      <trkpt lat="47.33748" lon="-1.50022">
        <ele>64</ele>
        <time>2021-06-12T08:55:34.000Z</time>
      </trkpt>
      <trkpt lat="47.33745" lon="-1.50006">
        <ele>64</ele>
        <time>2021-06-12T08:55:36.000Z</time>
      </trkpt>
      <trkpt lat="47.33741" lon="-1.49989">
        <ele>64</ele>
        <time>2021-06-12T08:55:38.000Z</time>
      </trkpt>
      <trkpt lat="47.33737" lon="-1.49973">
        <ele>63</ele>
        <time>2021-06-12T08:55:40.000Z</time>
      </trkpt>
      <trkpt lat="47.33732" lon="-1.49956">
        <ele>63</ele>
        <time>2021-06-12T08:55:42.000Z</time>
      </trkpt>
      <trkpt lat="47.33726" lon="-1.4994">
        <ele>62</ele>
        <time>2021-06-12T08:55:44.000Z</time>
      </trkpt>
      <trkpt lat="47.33718" lon="-1.49923">
        <ele>61</ele>
        <time>2021-06-12T08:55:46.000Z</time>
      </trkpt>
      <trkpt lat="47.33706" lon="-1.4991">
        <ele>60</ele>
        <time>2021-06-12T08:55:48.000Z</time>
      </trkpt>
      <trkpt lat="47.33693" lon="-1.49897">
        <ele>59</ele>
        <time>2021-06-12T08:55:50.000Z</time>
      </trkpt>
      <trkpt lat="47.33681" lon="-1.4988">
        <ele>58</ele>
        <time>2021-06-12T08:55:52.000Z</time>
      </trkpt>
      <trkpt lat="47.33671" lon="-1.4986">
        <ele>58</ele>
        <time>2021-06-12T08:55:54.000Z</time>
      </trkpt>
      <trkpt lat="47.33662" lon="-1.49838">
        <ele>58</ele>
        <time>2021-06-12T08:55:56.000Z</time>
      </trkpt>
      <trkpt lat="47.33656" lon="-1.49814">
        <ele>58</ele>
        <time>2021-06-12T08:55:58.000Z</time>
      </trkpt>
      <trkpt lat="47.33654" lon="-1.4979">
        <ele>57</ele>
        <time>2021-06-12T08:56:00.000Z</time>
      </trkpt>
      <trkpt lat="47.33653" lon="-1.49766">
        <ele>57</ele>
        <time>2021-06-12T08:56:02.000Z</time>
      </trkpt>
      <trkpt lat="47.33649" lon="-1.49743">
        <ele>57</ele>
        <time>2021-06-12T08:56:04.000Z</time>
      </trkpt>
      <trkpt lat="47.33647" lon="-1.49721">
        <ele>56</ele>
        <time>2021-06-12T08:56:06.000Z</time>
      </trkpt>
      <trkpt lat="47.33645" lon="-1.49699">
        <ele>57</ele>
        <time>2021-06-12T08:56:08.000Z</time>
      </trkpt>
      <trkpt lat="47.33642" lon="-1.49678">
        <ele>57</ele>
        <time>2021-06-12T08:56:10.000Z</time>
      </trkpt>
      <trkpt lat="47.3364" lon="-1.49658">
        <ele>56</ele>
        <time>2021-06-12T08:56:12.000Z</time>
      </trkpt>
      <trkpt lat="47.33639" lon="-1.49639">
        <ele>57</ele>
        <time>2021-06-12T08:56:14.000Z</time>
      </trkpt>
      <trkpt lat="47.3364" lon="-1.49619">
        <ele>57</ele>
        <time>2021-06-12T08:56:16.000Z</time>
      </trkpt>
      <trkpt lat="47.33642" lon="-1.49599">
        <ele>57</ele>
        <time>2021-06-12T08:56:18.000Z</time>
      </trkpt>
      <trkpt lat="47.33642" lon="-1.49578">
        <ele>57</ele>
        <time>2021-06-12T08:56:20.000Z</time>
      </trkpt>
      <trkpt lat="47.33641" lon="-1.49558">
        <ele>58</ele>
        <time>2021-06-12T08:56:22.000Z</time>
      </trkpt>
      <trkpt lat="47.33637" lon="-1.49539">
        <ele>58</ele>
        <time>2021-06-12T08:56:24.000Z</time>
      </trkpt>
      <trkpt lat="47.33633" lon="-1.49519">
        <ele>59</ele>
        <time>2021-06-12T08:56:26.000Z</time>
      </trkpt>
      <trkpt lat="47.33627" lon="-1.49501">
        <ele>59</ele>
        <time>2021-06-12T08:56:28.000Z</time>
      </trkpt>
      <trkpt lat="47.33621" lon="-1.49483">
        <ele>60</ele>
        <time>2021-06-12T08:56:30.000Z</time>
      </trkpt>
      <trkpt lat="47.33614" lon="-1.49465">
        <ele>59</ele>
        <time>2021-06-12T08:56:32.000Z</time>
      </trkpt>
      <trkpt lat="47.33608" lon="-1.49447">
        <ele>59</ele>
        <time>2021-06-12T08:56:34.000Z</time>
      </trkpt>
      <trkpt lat="47.33601" lon="-1.49429">
        <ele>58</ele>
        <time>2021-06-12T08:56:36.000Z</time>
      </trkpt>
      <trkpt lat="47.33593" lon="-1.49413">
        <ele>58</ele>
        <time>2021-06-12T08:56:38.000Z</time>
      </trkpt>
      <trkpt lat="47.33586" lon="-1.49397">
        <ele>58</ele>
        <time>2021-06-12T08:56:40.000Z</time>
      </trkpt>
      <trkpt lat="47.33579" lon="-1.4938">
        <ele>58</ele>
        <time>2021-06-12T08:56:42.000Z</time>
      </trkpt>
      <trkpt lat="47.33572" lon="-1.49365">
        <ele>58</ele>
        <time>2021-06-12T08:56:44.000Z</time>
      </trkpt>
      <trkpt lat="47.33566" lon="-1.49351">
        <ele>58</ele>
        <time>2021-06-12T08:56:46.000Z</time>
      </trkpt>
      <trkpt lat="47.33564" lon="-1.49334">
        <ele>58</ele>
        <time>2021-06-12T08:56:48.000Z</time>
      </trkpt>
      <trkpt lat="47.33571" lon="-1.49318">
        <ele>58</ele>
        <time>2021-06-12T08:56:50.000Z</time>
      </trkpt>
      <trkpt lat="47.3358" lon="-1.49304">
        <ele>59</ele>
        <time>2021-06-12T08:56:52.000Z</time>
      </trkpt>
      <trkpt lat="47.3359" lon="-1.4929">
        <ele>60</ele>
        <time>2021-06-12T08:56:54.000Z</time>
      </trkpt>
      <trkpt lat="47.33601" lon="-1.49277">
        <ele>60</ele>
        <time>2021-06-12T08:56:56.000Z</time>
      </trkpt>
      <trkpt lat="47.33612" lon="-1.49264">
        <ele>61</ele>
        <time>2021-06-12T08:56:58.000Z</time>
      </trkpt>
      <trkpt lat="47.33623" lon="-1.49252">
        <ele>61</ele>
        <time>2021-06-12T08:57:00.000Z</time>
      </trkpt>
      <trkpt lat="47.33633" lon="-1.49239">
        <ele>61</ele>
        <time>2021-06-12T08:57:02.000Z</time>
      </trkpt>
      <trkpt lat="47.33644" lon="-1.49226">
        <ele>60</ele>
        <time>2021-06-12T08:57:04.000Z</time>
      </trkpt>
      <trkpt lat="47.33654" lon="-1.49214">
        <ele>61</ele>
        <time>2021-06-12T08:57:06.000Z</time>
      </trkpt>
      <trkpt lat="47.33664" lon="-1.49202">
        <ele>61</ele>
        <time>2021-06-12T08:57:08.000Z</time>
      </trkpt>
      <trkpt lat="47.33673" lon="-1.49191">
        <ele>61</ele>
        <time>2021-06-12T08:57:10.000Z</time>
      </trkpt>
      <trkpt lat="47.33682" lon="-1.49178">
        <ele>61</ele>
        <time>2021-06-12T08:57:12.000Z</time>
      </trkpt>
      <trkpt lat="47.33691" lon="-1.49164">
        <ele>60</ele>
        <time>2021-06-12T08:57:14.000Z</time>
      </trkpt>
      <trkpt lat="47.33696" lon="-1.49148">
        <ele>59</ele>
        <time>2021-06-12T08:57:16.000Z</time>
      </trkpt>
      <trkpt lat="47.33699" lon="-1.49131">
        <ele>59</ele>
        <time>2021-06-12T08:57:18.000Z</time>
      </trkpt>
      <trkpt lat="47.33701" lon="-1.49114">
        <ele>58</ele>
        <time>2021-06-12T08:57:20.000Z</time>
      </trkpt>
      <trkpt lat="47.33704" lon="-1.49097">
        <ele>58</ele>
        <time>2021-06-12T08:57:22.000Z</time>
      </trkpt>
      <trkpt lat="47.33709" lon="-1.49082">
        <ele>59</ele>
        <time>2021-06-12T08:57:24.000Z</time>
      </trkpt>
      <trkpt lat="47.33716" lon="-1.49069">
        <ele>59</ele>
        <time>2021-06-12T08:57:26.000Z</time>
      </trkpt>
      <trkpt lat="47.33725" lon="-1.49058">
        <ele>60</ele>
        <time>2021-06-12T08:57:28.000Z</time>
      </trkpt>
      <trkpt lat="47.33733" lon="-1.49048">
        <ele>61</ele>
        <time>2021-06-12T08:57:30.000Z</time>
      </trkpt>
      <trkpt lat="47.33742" lon="-1.49037">
        <ele>62</ele>
        <time>2021-06-12T08:57:32.000Z</time>
      </trkpt>
      <trkpt lat="47.3375" lon="-1.49027">
        <ele>63</ele>
        <time>2021-06-12T08:57:34.000Z</time>
      </trkpt>
      <trkpt lat="47.33759" lon="-1.49018">
        <ele>63</ele>
        <time>2021-06-12T08:57:36.000Z</time>
      </trkpt>
      <trkpt lat="47.33768" lon="-1.49008">
        <ele>63</ele>
        <time>2021-06-12T08:57:38.000Z</time>
      </trkpt>
      <trkpt lat="47.33777" lon="-1.48998">
        <ele>64</ele>
        <time>2021-06-12T08:57:40.000Z</time>
      </trkpt>
      <trkpt lat="47.33785" lon="-1.48987">
        <ele>64</ele>
        <time>2021-06-12T08:57:42.000Z</time>
      </trkpt>
      <trkpt lat="47.33794" lon="-1.48976">
        <ele>64</ele>
        <time>2021-06-12T08:57:44.000Z</time>
      </trkpt>
      <trkpt lat="47.33802" lon="-1.48964">
        <ele>64</ele>
        <time>2021-06-12T08:57:46.000Z</time>
      </trkpt>
      <trkpt lat="47.33811" lon="-1.48952">
        <ele>63</ele>
        <time>2021-06-12T08:57:48.000Z</time>
      </trkpt>
      <trkpt lat="47.3382" lon="-1.48939">
        <ele>63</ele>
        <time>2021-06-12T08:57:50.000Z</time>
      </trkpt>
      <trkpt lat="47.33828" lon="-1.48925">
        <ele>63</ele>
        <time>2021-06-12T08:57:52.000Z</time>
      </trkpt>
      <trkpt lat="47.33836" lon="-1.48912">
        <ele>63</ele>
        <time>2021-06-12T08:57:54.000Z</time>
      </trkpt>
      <trkpt lat="47.33845" lon="-1.48898">
        <ele>62</ele>
        <time>2021-06-12T08:57:56.000Z</time>
      </trkpt>
      <trkpt lat="47.33854" lon="-1.48884">
        <ele>62</ele>
        <time>2021-06-12T08:57:58.000Z</time>
      </trkpt>
      <trkpt lat="47.33863" lon="-1.48871">
        <ele>62</ele>
        <time>2021-06-12T08:58:00.000Z</time>
      </trkpt>
      <trkpt lat="47.33872" lon="-1.48857">
        <ele>62</ele>
        <time>2021-06-12T08:58:02.000Z</time>
      </trkpt>
      <trkpt lat="47.33881" lon="-1.48842">
        <ele>62</ele>
        <time>2021-06-12T08:58:04.000Z</time>
      </trkpt>
      <trkpt lat="47.3389" lon="-1.48828">
        <ele>62</ele>
        <time>2021-06-12T08:58:06.000Z</time>
      </trkpt>
      <trkpt lat="47.339" lon="-1.48813">
        <ele>61</ele>
        <time>2021-06-12T08:58:08.000Z</time>
      </trkpt>
      <trkpt lat="47.33909" lon="-1.48798">
        <ele>61</ele>
        <time>2021-06-12T08:58:10.000Z</time>
      </trkpt>
      <trkpt lat="47.33919" lon="-1.48782">
        <ele>60</ele>
        <time>2021-06-12T08:58:12.000Z</time>
      </trkpt>
      <trkpt lat="47.33928" lon="-1.48766">
        <ele>60</ele>
        <time>2021-06-12T08:58:14.000Z</time>
      </trkpt>
      <trkpt lat="47.33938" lon="-1.4875">
        <ele>59</ele>
        <time>2021-06-12T08:58:16.000Z</time>
      </trkpt>
      <trkpt lat="47.33948" lon="-1.48735">
        <ele>59</ele>
        <time>2021-06-12T08:58:18.000Z</time>
      </trkpt>
      <trkpt lat="47.33959" lon="-1.48719">
        <ele>58</ele>
        <time>2021-06-12T08:58:20.000Z</time>
      </trkpt>
      <trkpt lat="47.33969" lon="-1.48703">
        <ele>58</ele>
        <time>2021-06-12T08:58:22.000Z</time>
      </trkpt>
      <trkpt lat="47.33978" lon="-1.48687">
        <ele>59</ele>
        <time>2021-06-12T08:58:24.000Z</time>
      </trkpt>
      <trkpt lat="47.33988" lon="-1.4867">
        <ele>59</ele>
        <time>2021-06-12T08:58:26.000Z</time>
      </trkpt>
      <trkpt lat="47.33998" lon="-1.48654">
        <ele>59</ele>
        <time>2021-06-12T08:58:28.000Z</time>
      </trkpt>
      <trkpt lat="47.34008" lon="-1.48637">
        <ele>58</ele>
        <time>2021-06-12T08:58:30.000Z</time>
      </trkpt>
      <trkpt lat="47.34018" lon="-1.4862">
        <ele>57</ele>
        <time>2021-06-12T08:58:32.000Z</time>
      </trkpt>
      <trkpt lat="47.34028" lon="-1.48604">
        <ele>57</ele>
        <time>2021-06-12T08:58:34.000Z</time>
      </trkpt>
      <trkpt lat="47.34037" lon="-1.48587">
        <ele>56</ele>
        <time>2021-06-12T08:58:36.000Z</time>
      </trkpt>
      <trkpt lat="47.34046" lon="-1.48571">
        <ele>56</ele>
        <time>2021-06-12T08:58:38.000Z</time>
      </trkpt>
      <trkpt lat="47.34054" lon="-1.48554">
        <ele>56</ele>
        <time>2021-06-12T08:58:40.000Z</time>
      </trkpt>
      <trkpt lat="47.34062" lon="-1.48537">
        <ele>56</ele>
        <time>2021-06-12T08:58:42.000Z</time>
      </trkpt>
      <trkpt lat="47.3407" lon="-1.4852">
        <ele>56</ele>
        <time>2021-06-12T08:58:44.000Z</time>
      </trkpt>
      <trkpt lat="47.34078" lon="-1.48503">
        <ele>56</ele>
        <time>2021-06-12T08:58:46.000Z</time>
      </trkpt>
      <trkpt lat="47.34086" lon="-1.48486">
        <ele>55</ele>
        <time>2021-06-12T08:58:48.000Z</time>
      </trkpt>
      <trkpt lat="47.34095" lon="-1.48469">
        <ele>55</ele>
        <time>2021-06-12T08:58:50.000Z</time>
      </trkpt>
      <trkpt lat="47.34102" lon="-1.48452">
        <ele>55</ele>
        <time>2021-06-12T08:58:52.000Z</time>
      </trkpt>
      <trkpt lat="47.34111" lon="-1.48435">
        <ele>55</ele>
        <time>2021-06-12T08:58:54.000Z</time>
      </trkpt>
      <trkpt lat="47.34118" lon="-1.48418">
        <ele>55</ele>
        <time>2021-06-12T08:58:56.000Z</time>
      </trkpt>
      <trkpt lat="47.34126" lon="-1.48401">
        <ele>55</ele>
        <time>2021-06-12T08:58:58.000Z</time>
      </trkpt>
      <trkpt lat="47.34134" lon="-1.48384">
        <ele>55</ele>
        <time>2021-06-12T08:59:00.000Z</time>
      </trkpt>
      <trkpt lat="47.34142" lon="-1.48368">
        <ele>55</ele>
        <time>2021-06-12T08:59:02.000Z</time>
      </trkpt>
      <trkpt lat="47.3415" lon="-1.48352">
        <ele>55</ele>
        <time>2021-06-12T08:59:04.000Z</time>
      </trkpt>
      <trkpt lat="47.34158" lon="-1.48336">
        <ele>56</ele>
        <time>2021-06-12T08:59:06.000Z</time>
      </trkpt>
      <trkpt lat="47.34165" lon="-1.48319">
        <ele>56</ele>
        <time>2021-06-12T08:59:08.000Z</time>
      </trkpt>
      <trkpt lat="47.34173" lon="-1.48303">
        <ele>56</ele>
        <time>2021-06-12T08:59:10.000Z</time>
      </trkpt>
      <trkpt lat="47.34181" lon="-1.48286">
        <ele>56</ele>
        <time>2021-06-12T08:59:12.000Z</time>
      </trkpt>
      <trkpt lat="47.34189" lon="-1.4827">
        <ele>56</ele>
        <time>2021-06-12T08:59:14.000Z</time>
      </trkpt>
      <trkpt lat="47.34198" lon="-1.48254">
        <ele>55</ele>
        <time>2021-06-12T08:59:16.000Z</time>
      </trkpt>
      <trkpt lat="47.34207" lon="-1.48239">
        <ele>55</ele>
        <time>2021-06-12T08:59:18.000Z</time>
      </trkpt>
      <trkpt lat="47.34216" lon="-1.48225">
        <ele>55</ele>
        <time>2021-06-12T08:59:20.000Z</time>
      </trkpt>
      <trkpt lat="47.34225" lon="-1.4821">
        <ele>55</ele>
        <time>2021-06-12T08:59:22.000Z</time>
      </trkpt>
      <trkpt lat="47.34234" lon="-1.48196">
        <ele>55</ele>
        <time>2021-06-12T08:59:24.000Z</time>
      </trkpt>
      <trkpt lat="47.34243" lon="-1.4818">
        <ele>55</ele>
        <time>2021-06-12T08:59:26.000Z</time>
      </trkpt>
      <trkpt lat="47.34252" lon="-1.48166">
        <ele>55</ele>
        <time>2021-06-12T08:59:28.000Z</time>
      </trkpt>
      <trkpt lat="47.34262" lon="-1.48151">
        <ele>54</ele>
        <time>2021-06-12T08:59:30.000Z</time>
      </trkpt>
      <trkpt lat="47.34271" lon="-1.48137">
        <ele>55</ele>
        <time>2021-06-12T08:59:32.000Z</time>
      </trkpt>
      <trkpt lat="47.3428" lon="-1.48122">
        <ele>55</ele>
        <time>2021-06-12T08:59:34.000Z</time>
      </trkpt>
      <trkpt lat="47.34289" lon="-1.48108">
        <ele>55</ele>
        <time>2021-06-12T08:59:36.000Z</time>
      </trkpt>
      <trkpt lat="47.34298" lon="-1.48093">
        <ele>55</ele>
        <time>2021-06-12T08:59:38.000Z</time>
      </trkpt>
      <trkpt lat="47.34307" lon="-1.48078">
        <ele>55</ele>
        <time>2021-06-12T08:59:40.000Z</time>
      </trkpt>
      <trkpt lat="47.34317" lon="-1.48063">
        <ele>55</ele>
        <time>2021-06-12T08:59:42.000Z</time>
      </trkpt>
      <trkpt lat="47.34326" lon="-1.48049">
        <ele>55</ele>
        <time>2021-06-12T08:59:44.000Z</time>
      </trkpt>
      <trkpt lat="47.34334" lon="-1.48034">
        <ele>55</ele>
        <time>2021-06-12T08:59:46.000Z</time>
      </trkpt>
      <trkpt lat="47.34343" lon="-1.48018">
        <ele>55</ele>
        <time>2021-06-12T08:59:48.000Z</time>
      </trkpt>
      <trkpt lat="47.34353" lon="-1.48004">
        <ele>56</ele>
        <time>2021-06-12T08:59:50.000Z</time>
      </trkpt>
      <trkpt lat="47.34362" lon="-1.47989">
        <ele>55</ele>
        <time>2021-06-12T08:59:52.000Z</time>
      </trkpt>
      <trkpt lat="47.34371" lon="-1.47975">
        <ele>55</ele>
        <time>2021-06-12T08:59:54.000Z</time>
      </trkpt>
      <trkpt lat="47.3438" lon="-1.4796">
        <ele>55</ele>
        <time>2021-06-12T08:59:56.000Z</time>
      </trkpt>
      <trkpt lat="47.34389" lon="-1.47946">
        <ele>56</ele>
        <time>2021-06-12T08:59:58.000Z</time>
      </trkpt>
      <trkpt lat="47.34398" lon="-1.47932">
        <ele>56</ele>
        <time>2021-06-12T09:00:00.000Z</time>
      </trkpt>
      <trkpt lat="47.34408" lon="-1.47919">
        <ele>56</ele>
        <time>2021-06-12T09:00:02.000Z</time>
      </trkpt>
      <trkpt lat="47.34418" lon="-1.47906">
        <ele>56</ele>
        <time>2021-06-12T09:00:04.000Z</time>
      </trkpt>
      <trkpt lat="47.34427" lon="-1.47894">
        <ele>56</ele>
        <time>2021-06-12T09:00:06.000Z</time>
      </trkpt>
      <trkpt lat="47.34436" lon="-1.47883">
        <ele>57</ele>
        <time>2021-06-12T09:00:08.000Z</time>
      </trkpt>
      <trkpt lat="47.34444" lon="-1.47872">
        <ele>57</ele>
        <time>2021-06-12T09:00:10.000Z</time>
      </trkpt>
      <trkpt lat="47.34454" lon="-1.4786">
        <ele>57</ele>
        <time>2021-06-12T09:00:12.000Z</time>
      </trkpt>
      <trkpt lat="47.34463" lon="-1.47849">
        <ele>57</ele>
        <time>2021-06-12T09:00:14.000Z</time>
      </trkpt>
      <trkpt lat="47.34472" lon="-1.47839">
        <ele>58</ele>
        <time>2021-06-12T09:00:16.000Z</time>
      </trkpt>
      <trkpt lat="47.34483" lon="-1.47828">
        <ele>58</ele>
        <time>2021-06-12T09:00:18.000Z</time>
      </trkpt>
      <trkpt lat="47.34493" lon="-1.47817">
        <ele>58</ele>
        <time>2021-06-12T09:00:20.000Z</time>
      </trkpt>
      <trkpt lat="47.34503" lon="-1.47805">
        <ele>58</ele>
        <time>2021-06-12T09:00:22.000Z</time>
      </trkpt>
      <trkpt lat="47.34513" lon="-1.47795">
        <ele>58</ele>
        <time>2021-06-12T09:00:24.000Z</time>
      </trkpt>
      <trkpt lat="47.34523" lon="-1.47784">
        <ele>58</ele>
        <time>2021-06-12T09:00:26.000Z</time>
      </trkpt>
      <trkpt lat="47.34533" lon="-1.47773">
        <ele>58</ele>
        <time>2021-06-12T09:00:28.000Z</time>
      </trkpt>
      <trkpt lat="47.34543" lon="-1.47761">
        <ele>58</ele>
        <time>2021-06-12T09:00:30.000Z</time>
      </trkpt>
      <trkpt lat="47.34553" lon="-1.47749">
        <ele>58</ele>
        <time>2021-06-12T09:00:32.000Z</time>
      </trkpt>
      <trkpt lat="47.34562" lon="-1.47738">
        <ele>59</ele>
        <time>2021-06-12T09:00:34.000Z</time>
      </trkpt>
      <trkpt lat="47.34573" lon="-1.47726">
        <ele>59</ele>
        <time>2021-06-12T09:00:36.000Z</time>
      </trkpt>
      <trkpt lat="47.34583" lon="-1.47714">
        <ele>59</ele>
        <time>2021-06-12T09:00:38.000Z</time>
      </trkpt>
      <trkpt lat="47.34593" lon="-1.47703">
        <ele>58</ele>
        <time>2021-06-12T09:00:40.000Z</time>
      </trkpt>
      <trkpt lat="47.34603" lon="-1.47691">
        <ele>58</ele>
        <time>2021-06-12T09:00:42.000Z</time>
      </trkpt>
      <trkpt lat="47.34613" lon="-1.4768">
        <ele>58</ele>
        <time>2021-06-12T09:00:44.000Z</time>
      </trkpt>
      <trkpt lat="47.34623" lon="-1.47669">
        <ele>58</ele>
        <time>2021-06-12T09:00:46.000Z</time>
      </trkpt>
      <trkpt lat="47.34633" lon="-1.47658">
        <ele>59</ele>
        <time>2021-06-12T09:00:48.000Z</time>
      </trkpt>
      <trkpt lat="47.34643" lon="-1.47647">
        <ele>59</ele>
        <time>2021-06-12T09:00:50.000Z</time>
      </trkpt>
      <trkpt lat="47.34653" lon="-1.47637">
        <ele>59</ele>
        <time>2021-06-12T09:00:52.000Z</time>
      </trkpt>
      <trkpt lat="47.34663" lon="-1.47626">
        <ele>59</ele>
        <time>2021-06-12T09:00:54.000Z</time>
      </trkpt>
      <trkpt lat="47.34673" lon="-1.47615">
        <ele>59</ele>
        <time>2021-06-12T09:00:56.000Z</time>
      </trkpt>
      <trkpt lat="47.34683" lon="-1.47603">
        <ele>59</ele>
        <time>2021-06-12T09:00:58.000Z</time>
      </trkpt>
      <trkpt lat="47.34692" lon="-1.47593">
        <ele>60</ele>
        <time>2021-06-12T09:01:00.000Z</time>
      </trkpt>
      <trkpt lat="47.34702" lon="-1.47582">
        <ele>60</ele>
        <time>2021-06-12T09:01:02.000Z</time>
      </trkpt>
      <trkpt lat="47.34713" lon="-1.47571">
        <ele>60</ele>
        <time>2021-06-12T09:01:04.000Z</time>
      </trkpt>
      <trkpt lat="47.34723" lon="-1.4756">
        <ele>60</ele>
        <time>2021-06-12T09:01:06.000Z</time>
      </trkpt>
      <trkpt lat="47.34732" lon="-1.47549">
        <ele>60</ele>
        <time>2021-06-12T09:01:08.000Z</time>
      </trkpt>
      <trkpt lat="47.34742" lon="-1.47537">
        <ele>59</ele>
        <time>2021-06-12T09:01:10.000Z</time>
      </trkpt>
      <trkpt lat="47.34751" lon="-1.47525">
        <ele>59</ele>
        <time>2021-06-12T09:01:12.000Z</time>
      </trkpt>
      <trkpt lat="47.34761" lon="-1.47512">
        <ele>59</ele>
        <time>2021-06-12T09:01:14.000Z</time>
      </trkpt>
      <trkpt lat="47.3477" lon="-1.47499">
        <ele>58</ele>
        <time>2021-06-12T09:01:16.000Z</time>
      </trkpt>
      <trkpt lat="47.34779" lon="-1.47485">
        <ele>58</ele>
        <time>2021-06-12T09:01:18.000Z</time>
      </trkpt>
      <trkpt lat="47.34786" lon="-1.47469">
        <ele>58</ele>
        <time>2021-06-12T09:01:20.000Z</time>
      </trkpt>
      <trkpt lat="47.34793" lon="-1.47453">
        <ele>57</ele>
        <time>2021-06-12T09:01:22.000Z</time>
      </trkpt>
      <trkpt lat="47.34799" lon="-1.47437">
        <ele>57</ele>
        <time>2021-06-12T09:01:24.000Z</time>
      </trkpt>
      <trkpt lat="47.34805" lon="-1.47421">
        <ele>58</ele>
        <time>2021-06-12T09:01:26.000Z</time>
      </trkpt>
      <trkpt lat="47.34811" lon="-1.47405">
        <ele>57</ele>
        <time>2021-06-12T09:01:28.000Z</time>
      </trkpt>
      <trkpt lat="47.34818" lon="-1.47389">
        <ele>57</ele>
        <time>2021-06-12T09:01:30.000Z</time>
      </trkpt>
      <trkpt lat="47.34826" lon="-1.47374">
        <ele>57</ele>
        <time>2021-06-12T09:01:32.000Z</time>
      </trkpt>
      <trkpt lat="47.34834" lon="-1.4736">
        <ele>57</ele>
        <time>2021-06-12T09:01:34.000Z</time>
      </trkpt>
      <trkpt lat="47.34842" lon="-1.47347">
        <ele>58</ele>
        <time>2021-06-12T09:01:36.000Z</time>
      </trkpt>
      <trkpt lat="47.34852" lon="-1.47335">
        <ele>58</ele>
        <time>2021-06-12T09:01:38.000Z</time>
      </trkpt>
      <trkpt lat="47.34862" lon="-1.47324">
        <ele>58</ele>
        <time>2021-06-12T09:01:40.000Z</time>
      </trkpt>
      <trkpt lat="47.34873" lon="-1.47314">
        <ele>59</ele>
        <time>2021-06-12T09:01:42.000Z</time>
      </trkpt>
      <trkpt lat="47.34884" lon="-1.47306">
        <ele>59</ele>
        <time>2021-06-12T09:01:44.000Z</time>
      </trkpt>
      <trkpt lat="47.34895" lon="-1.47298">
        <ele>59</ele>
        <time>2021-06-12T09:01:46.000Z</time>
      </trkpt>
      <trkpt lat="47.34904" lon="-1.4729">
        <ele>60</ele>
        <time>2021-06-12T09:01:48.000Z</time>
      </trkpt>
      <trkpt lat="47.34915" lon="-1.47283">
        <ele>60</ele>
        <time>2021-06-12T09:01:50.000Z</time>
      </trkpt>
      <trkpt lat="47.34925" lon="-1.47276">
        <ele>60</ele>
        <time>2021-06-12T09:01:52.000Z</time>
      </trkpt>
      <trkpt lat="47.34935" lon="-1.47269">
        <ele>60</ele>
        <time>2021-06-12T09:01:54.000Z</time>
      </trkpt>
      <trkpt lat="47.34945" lon="-1.47262">
        <ele>60</ele>
        <time>2021-06-12T09:01:56.000Z</time>
      </trkpt>
      <trkpt lat="47.34955" lon="-1.47257">
        <ele>60</ele>
        <time>2021-06-12T09:01:58.000Z</time>
      </trkpt>
      <trkpt lat="47.34966" lon="-1.47254">
        <ele>60</ele>
        <time>2021-06-12T09:02:00.000Z</time>
      </trkpt>
      <trkpt lat="47.34976" lon="-1.4725">
        <ele>60</ele>
        <time>2021-06-12T09:02:02.000Z</time>
      </trkpt>
      <trkpt lat="47.34986" lon="-1.47244">
        <ele>61</ele>
        <time>2021-06-12T09:02:04.000Z</time>
      </trkpt>
      <trkpt lat="47.34995" lon="-1.47235">
        <ele>61</ele>
        <time>2021-06-12T09:02:06.000Z</time>
      </trkpt>
      <trkpt lat="47.35004" lon="-1.47225">
        <ele>61</ele>
        <time>2021-06-12T09:02:08.000Z</time>
      </trkpt>
      <trkpt lat="47.35014" lon="-1.47217">
        <ele>61</ele>
        <time>2021-06-12T09:02:10.000Z</time>
      </trkpt>
      <trkpt lat="47.35024" lon="-1.47212">
        <ele>61</ele>
        <time>2021-06-12T09:02:12.000Z</time>
      </trkpt>
      <trkpt lat="47.35035" lon="-1.47212">
        <ele>61</ele>
        <time>2021-06-12T09:02:14.000Z</time>
      </trkpt>
      <trkpt lat="47.35046" lon="-1.47217">
        <ele>61</ele>
        <time>2021-06-12T09:02:16.000Z</time>
      </trkpt>
      <trkpt lat="47.35057" lon="-1.47223">
        <ele>61</ele>
        <time>2021-06-12T09:02:18.000Z</time>
      </trkpt>
      <trkpt lat="47.35069" lon="-1.47228">
        <ele>61</ele>
        <time>2021-06-12T09:02:20.000Z</time>
      </trkpt>
      <trkpt lat="47.35081" lon="-1.47232">
        <ele>61</ele>
        <time>2021-06-12T09:02:22.000Z</time>
      </trkpt>
      <trkpt lat="47.35093" lon="-1.47235">
        <ele>61</ele>
        <time>2021-06-12T09:02:24.000Z</time>
      </trkpt>
      <trkpt lat="47.35105" lon="-1.47237">
        <ele>61</ele>
        <time>2021-06-12T09:02:26.000Z</time>
      </trkpt>
      <trkpt lat="47.35118" lon="-1.47239">
        <ele>61</ele>
        <time>2021-06-12T09:02:28.000Z</time>
      </trkpt>
      <trkpt lat="47.3513" lon="-1.47241">
        <ele>61</ele>
        <time>2021-06-12T09:02:30.000Z</time>
      </trkpt>
      <trkpt lat="47.35141" lon="-1.47244">
        <ele>61</ele>
        <time>2021-06-12T09:02:32.000Z</time>
      </trkpt>
      <trkpt lat="47.35154" lon="-1.47244">
        <ele>60</ele>
        <time>2021-06-12T09:02:34.000Z</time>
      </trkpt>
      <trkpt lat="47.35166" lon="-1.47243">
        <ele>60</ele>
        <time>2021-06-12T09:02:36.000Z</time>
      </trkpt>
      <trkpt lat="47.35178" lon="-1.4724">
        <ele>60</ele>
        <time>2021-06-12T09:02:38.000Z</time>
      </trkpt>
      <trkpt lat="47.35189" lon="-1.47235">
        <ele>60</ele>
        <time>2021-06-12T09:02:40.000Z</time>
      </trkpt>
      <trkpt lat="47.35201" lon="-1.47233">
        <ele>60</ele>
        <time>2021-06-12T09:02:42.000Z</time>
      </trkpt>
      <trkpt lat="47.35213" lon="-1.47238">
        <ele>60</ele>
        <time>2021-06-12T09:02:44.000Z</time>
      </trkpt>
      <trkpt lat="47.35223" lon="-1.47249">
        <ele>60</ele>
        <time>2021-06-12T09:02:46.000Z</time>
      </trkpt>
      <trkpt lat="47.35231" lon="-1.47261">
        <ele>60</ele>
        <time>2021-06-12T09:02:48.000Z</time>
      </trkpt>
      <trkpt lat="47.35237" lon="-1.47274">
        <ele>59</ele>
        <time>2021-06-12T09:02:50.000Z</time>
      </trkpt>
      <trkpt lat="47.35244" lon="-1.47288">
        <ele>59</ele>
        <time>2021-06-12T09:02:52.000Z</time>
      </trkpt>
      <trkpt lat="47.35252" lon="-1.47299">
        <ele>58</ele>
        <time>2021-06-12T09:02:54.000Z</time>
      </trkpt>
      <trkpt lat="47.35264" lon="-1.47299">
        <ele>58</ele>
        <time>2021-06-12T09:02:56.000Z</time>
      </trkpt>
      <trkpt lat="47.35273" lon="-1.4729">
        <ele>59</ele>
        <time>2021-06-12T09:02:58.000Z</time>
      </trkpt>
      <trkpt lat="47.35283" lon="-1.47283">
        <ele>59</ele>
        <time>2021-06-12T09:03:00.000Z</time>
      </trkpt>
      <trkpt lat="47.35295" lon="-1.47279">
        <ele>59</ele>
        <time>2021-06-12T09:03:02.000Z</time>
      </trkpt>
      <trkpt lat="47.35308" lon="-1.47278">
        <ele>59</ele>
        <time>2021-06-12T09:03:04.000Z</time>
      </trkpt>
      <trkpt lat="47.3532" lon="-1.47278">
        <ele>60</ele>
        <time>2021-06-12T09:03:06.000Z</time>
      </trkpt>
      <trkpt lat="47.35331" lon="-1.47278">
        <ele>60</ele>
        <time>2021-06-12T09:03:08.000Z</time>
      </trkpt>
      <trkpt lat="47.35342" lon="-1.47278">
        <ele>61</ele>
        <time>2021-06-12T09:03:10.000Z</time>
      </trkpt>
      <trkpt lat="47.35352" lon="-1.47278">
        <ele>61</ele>
        <time>2021-06-12T09:03:12.000Z</time>
      </trkpt>
      <trkpt lat="47.35365" lon="-1.47275">
        <ele>62</ele>
        <time>2021-06-12T09:03:15.000Z</time>
      </trkpt>
      <trkpt lat="47.35377" lon="-1.47269">
        <ele>63</ele>
        <time>2021-06-12T09:03:18.000Z</time>
      </trkpt>
      <trkpt lat="47.35388" lon="-1.4726">
        <ele>64</ele>
        <time>2021-06-12T09:03:21.000Z</time>
      </trkpt>
      <trkpt lat="47.35398" lon="-1.4725">
        <ele>65</ele>
        <time>2021-06-12T09:03:24.000Z</time>
      </trkpt>
      <trkpt lat="47.3541" lon="-1.4724">
        <ele>66</ele>
        <time>2021-06-12T09:03:27.000Z</time>
      </trkpt>
      <trkpt lat="47.35418" lon="-1.47232">
        <ele>66</ele>
        <time>2021-06-12T09:03:29.000Z</time>
      </trkpt>
      <trkpt lat="47.35425" lon="-1.47225">
        <ele>67</ele>
        <time>2021-06-12T09:03:31.000Z</time>
      </trkpt>
      <trkpt lat="47.35433" lon="-1.47219">
        <ele>67</ele>
        <time>2021-06-12T09:03:33.000Z</time>
      </trkpt>
      <trkpt lat="47.35445" lon="-1.47209">
        <ele>68</ele>
        <time>2021-06-12T09:03:36.000Z</time>
      </trkpt>
      <trkpt lat="47.35456" lon="-1.47198">
        <ele>68</ele>
        <time>2021-06-12T09:03:39.000Z</time>
      </trkpt>
      <trkpt lat="47.35468" lon="-1.47189">
        <ele>69</ele>
        <time>2021-06-12T09:03:42.000Z</time>
      </trkpt>
      <trkpt lat="47.35479" lon="-1.47178">
        <ele>70</ele>
        <time>2021-06-12T09:03:45.000Z</time>
      </trkpt>
      <trkpt lat="47.35487" lon="-1.47171">
        <ele>71</ele>
        <time>2021-06-12T09:03:47.000Z</time>
      </trkpt>
      <trkpt lat="47.35498" lon="-1.4716">
        <ele>71</ele>
        <time>2021-06-12T09:03:50.000Z</time>
      </trkpt>
      <trkpt lat="47.3551" lon="-1.47151">
        <ele>71</ele>
        <time>2021-06-12T09:03:53.000Z</time>
      </trkpt>
      <trkpt lat="47.35518" lon="-1.47144">
        <ele>71</ele>
        <time>2021-06-12T09:03:55.000Z</time>
      </trkpt>
      <trkpt lat="47.35527" lon="-1.47136">
        <ele>71</ele>
        <time>2021-06-12T09:03:57.000Z</time>
      </trkpt>
      <trkpt lat="47.35535" lon="-1.47129">
        <ele>72</ele>
        <time>2021-06-12T09:03:59.000Z</time>
      </trkpt>
      <trkpt lat="47.35545" lon="-1.47121">
        <ele>72</ele>
        <time>2021-06-12T09:04:01.000Z</time>
      </trkpt>
      <trkpt lat="47.35555" lon="-1.47112">
        <ele>72</ele>
        <time>2021-06-12T09:04:03.000Z</time>
      </trkpt>
      <trkpt lat="47.35565" lon="-1.47104">
        <ele>72</ele>
        <time>2021-06-12T09:04:05.000Z</time>
      </trkpt>
      <trkpt lat="47.35574" lon="-1.47096">
        <ele>72</ele>
        <time>2021-06-12T09:04:07.000Z</time>
      </trkpt>
      <trkpt lat="47.35583" lon="-1.47088">
        <ele>72</ele>
        <time>2021-06-12T09:04:09.000Z</time>
      </trkpt>
      <trkpt lat="47.35591" lon="-1.47081">
        <ele>72</ele>
        <time>2021-06-12T09:04:11.000Z</time>
      </trkpt>
      <trkpt lat="47.35601" lon="-1.47074">
        <ele>72</ele>
        <time>2021-06-12T09:04:13.000Z</time>
      </trkpt>
      <trkpt lat="47.3561" lon="-1.47065">
        <ele>72</ele>
        <time>2021-06-12T09:04:15.000Z</time>
      </trkpt>
      <trkpt lat="47.35621" lon="-1.47056">
        <ele>71</ele>
        <time>2021-06-12T09:04:17.000Z</time>
      </trkpt>
      <trkpt lat="47.35634" lon="-1.47044">
        <ele>70</ele>
        <time>2021-06-12T09:04:19.000Z</time>
      </trkpt>
      <trkpt lat="47.35648" lon="-1.47032">
        <ele>69</ele>
        <time>2021-06-12T09:04:21.000Z</time>
      </trkpt>
      <trkpt lat="47.35663" lon="-1.47018">
        <ele>67</ele>
        <time>2021-06-12T09:04:23.000Z</time>
      </trkpt>
      <trkpt lat="47.35671" lon="-1.47011">
        <ele>67</ele>
        <time>2021-06-12T09:04:24.000Z</time>
      </trkpt>
      <trkpt lat="47.3568" lon="-1.47004">
        <ele>66</ele>
        <time>2021-06-12T09:04:25.000Z</time>
      </trkpt>
      <trkpt lat="47.35688" lon="-1.46997">
        <ele>65</ele>
        <time>2021-06-12T09:04:26.000Z</time>
      </trkpt>
      <trkpt lat="47.35697" lon="-1.46989">
        <ele>64</ele>
        <time>2021-06-12T09:04:27.000Z</time>
      </trkpt>
      <trkpt lat="47.35705" lon="-1.46981">
        <ele>63</ele>
        <time>2021-06-12T09:04:28.000Z</time>
      </trkpt>
      <trkpt lat="47.35714" lon="-1.46974">
        <ele>62</ele>
        <time>2021-06-12T09:04:29.000Z</time>
      </trkpt>
      <trkpt lat="47.35729" lon="-1.46962">
        <ele>61</ele>
        <time>2021-06-12T09:04:31.000Z</time>
      </trkpt>
      <trkpt lat="47.3574" lon="-1.4695">
        <ele>61</ele>
        <time>2021-06-12T09:04:33.000Z</time>
      </trkpt>
      <trkpt lat="47.35746" lon="-1.46936">
        <ele>60</ele>
        <time>2021-06-12T09:04:35.000Z</time>
      </trkpt>
      <trkpt lat="47.35745" lon="-1.46919">
        <ele>60</ele>
        <time>2021-06-12T09:04:37.000Z</time>
      </trkpt>
      <trkpt lat="47.35743" lon="-1.46899">
        <ele>60</ele>
        <time>2021-06-12T09:04:39.000Z</time>
      </trkpt>
      <trkpt lat="47.35741" lon="-1.46879">
        <ele>60</ele>
        <time>2021-06-12T09:04:41.000Z</time>
      </trkpt>
      <trkpt lat="47.35738" lon="-1.46859">
        <ele>59</ele>
        <time>2021-06-12T09:04:43.000Z</time>
      </trkpt>
      <trkpt lat="47.35736" lon="-1.4684">
        <ele>59</ele>
        <time>2021-06-12T09:04:45.000Z</time>
      </trkpt>
      <trkpt lat="47.35734" lon="-1.4682">
        <ele>58</ele>
        <time>2021-06-12T09:04:47.000Z</time>
      </trkpt>
      <trkpt lat="47.35735" lon="-1.46799">
        <ele>58</ele>
        <time>2021-06-12T09:04:49.000Z</time>
      </trkpt>
      <trkpt lat="47.35738" lon="-1.4678">
        <ele>58</ele>
        <time>2021-06-12T09:04:51.000Z</time>
      </trkpt>
      <trkpt lat="47.3574" lon="-1.4676">
        <ele>57</ele>
        <time>2021-06-12T09:04:53.000Z</time>
      </trkpt>
      <trkpt lat="47.35743" lon="-1.46741">
        <ele>58</ele>
        <time>2021-06-12T09:04:55.000Z</time>
      </trkpt>
      <trkpt lat="47.35746" lon="-1.46721">
        <ele>58</ele>
        <time>2021-06-12T09:04:57.000Z</time>
      </trkpt>
      <trkpt lat="47.35748" lon="-1.46702">
        <ele>58</ele>
        <time>2021-06-12T09:04:59.000Z</time>
      </trkpt>
      <trkpt lat="47.35751" lon="-1.46683">
        <ele>59</ele>
        <time>2021-06-12T09:05:01.000Z</time>
      </trkpt>
      <trkpt lat="47.35755" lon="-1.46663">
        <ele>58</ele>
        <time>2021-06-12T09:05:03.000Z</time>
      </trkpt>
      <trkpt lat="47.35762" lon="-1.46645">
        <ele>58</ele>
        <time>2021-06-12T09:05:05.000Z</time>
      </trkpt>
      <trkpt lat="47.35773" lon="-1.46632">
        <ele>58</ele>
        <time>2021-06-12T09:05:07.000Z</time>
      </trkpt>
      <trkpt lat="47.35785" lon="-1.46623">
        <ele>58</ele>
        <time>2021-06-12T09:05:09.000Z</time>
      </trkpt>
      <trkpt lat="47.35797" lon="-1.46613">
        <ele>56</ele>
        <time>2021-06-12T09:05:11.000Z</time>
      </trkpt>
      <trkpt lat="47.35809" lon="-1.46603">
        <ele>56</ele>
        <time>2021-06-12T09:05:13.000Z</time>
      </trkpt>
      <trkpt lat="47.35821" lon="-1.46593">
        <ele>56</ele>
        <time>2021-06-12T09:05:15.000Z</time>
      </trkpt>
      <trkpt lat="47.35833" lon="-1.46584">
        <ele>56</ele>
        <time>2021-06-12T09:05:17.000Z</time>
      </trkpt>
      <trkpt lat="47.35845" lon="-1.46575">
        <ele>56</ele>
        <time>2021-06-12T09:05:19.000Z</time>
      </trkpt>
      <trkpt lat="47.35856" lon="-1.46565">
        <ele>56</ele>
        <time>2021-06-12T09:05:21.000Z</time>
      </trkpt>
      <trkpt lat="47.35868" lon="-1.46556">
        <ele>56</ele>
        <time>2021-06-12T09:05:23.000Z</time>
      </trkpt>
      <trkpt lat="47.35883" lon="-1.46539">
        <ele>56</ele>
        <time>2021-06-12T09:05:26.000Z</time>
      </trkpt>
      <trkpt lat="47.35889" lon="-1.46522">
        <ele>55</ele>
        <time>2021-06-12T09:05:28.000Z</time>
      </trkpt>
      <trkpt lat="47.35892" lon="-1.46503">
        <ele>55</ele>
        <time>2021-06-12T09:05:30.000Z</time>
      </trkpt>
      <trkpt lat="47.35898" lon="-1.46477">
        <ele>56</ele>
        <time>2021-06-12T09:05:33.000Z</time>
      </trkpt>
      <trkpt lat="47.35902" lon="-1.46458">
        <ele>57</ele>
        <time>2021-06-12T09:05:35.000Z</time>
      </trkpt>
      <trkpt lat="47.35905" lon="-1.46439">
        <ele>57</ele>
        <time>2021-06-12T09:05:37.000Z</time>
      </trkpt>
      <trkpt lat="47.35908" lon="-1.46421">
        <ele>56</ele>
        <time>2021-06-12T09:05:39.000Z</time>
      </trkpt>
      <trkpt lat="47.3591" lon="-1.46402">
        <ele>55</ele>
        <time>2021-06-12T09:05:41.000Z</time>
      </trkpt>
      <trkpt lat="47.35909" lon="-1.46383">
        <ele>54</ele>
        <time>2021-06-12T09:05:43.000Z</time>
      </trkpt>
      <trkpt lat="47.35903" lon="-1.46368">
        <ele>54</ele>
        <time>2021-06-12T09:05:45.000Z</time>
      </trkpt>
      <trkpt lat="47.3589" lon="-1.46348">
        <ele>55</ele>
        <time>2021-06-12T09:05:48.000Z</time>
      </trkpt>
      <trkpt lat="47.35881" lon="-1.46334">
        <ele>55</ele>
        <time>2021-06-12T09:05:50.000Z</time>
      </trkpt>
      <trkpt lat="47.35872" lon="-1.46321">
        <ele>55</ele>
        <time>2021-06-12T09:05:52.000Z</time>
      </trkpt>
      <trkpt lat="47.35861" lon="-1.46309">
        <ele>55</ele>
        <time>2021-06-12T09:05:54.000Z</time>
      </trkpt>
      <trkpt lat="47.35852" lon="-1.46296">
        <ele>56</ele>
        <time>2021-06-12T09:05:56.000Z</time>
      </trkpt>
      <trkpt lat="47.35846" lon="-1.46281">
        <ele>57</ele>
        <time>2021-06-12T09:05:58.000Z</time>
      </trkpt>
      <trkpt lat="47.35841" lon="-1.46264">
        <ele>57</ele>
        <time>2021-06-12T09:06:00.000Z</time>
      </trkpt>
      <trkpt lat="47.35837" lon="-1.46246">
        <ele>57</ele>
        <time>2021-06-12T09:06:02.000Z</time>
      </trkpt>
      <trkpt lat="47.35838" lon="-1.46227">
        <ele>57</ele>
        <time>2021-06-12T09:06:04.000Z</time>
      </trkpt>
      <trkpt lat="47.35842" lon="-1.4621">
        <ele>57</ele>
        <time>2021-06-12T09:06:06.000Z</time>
      </trkpt>
      <trkpt lat="47.35848" lon="-1.46186">
        <ele>57</ele>
        <time>2021-06-12T09:06:09.000Z</time>
      </trkpt>
      <trkpt lat="47.35846" lon="-1.46167">
        <ele>58</ele>
        <time>2021-06-12T09:06:11.000Z</time>
      </trkpt>
      <trkpt lat="47.35842" lon="-1.4615">
        <ele>58</ele>
        <time>2021-06-12T09:06:13.000Z</time>
      </trkpt>
      <trkpt lat="47.35838" lon="-1.46133">
        <ele>59</ele>
        <time>2021-06-12T09:06:15.000Z</time>
      </trkpt>
      <trkpt lat="47.35832" lon="-1.46107">
        <ele>59</ele>
        <time>2021-06-12T09:06:18.000Z</time>
      </trkpt>
      <trkpt lat="47.35828" lon="-1.4609">
        <ele>59</ele>
        <time>2021-06-12T09:06:20.000Z</time>
      </trkpt>
      <trkpt lat="47.35824" lon="-1.46073">
        <ele>60</ele>
        <time>2021-06-12T09:06:22.000Z</time>
      </trkpt>
      <trkpt lat="47.35818" lon="-1.46057">
        <ele>60</ele>
        <time>2021-06-12T09:06:24.000Z</time>
      </trkpt>
      <trkpt lat="47.3581" lon="-1.46032">
        <ele>60</ele>
        <time>2021-06-12T09:06:27.000Z</time>
      </trkpt>
      <trkpt lat="47.35805" lon="-1.46016">
        <ele>60</ele>
        <time>2021-06-12T09:06:29.000Z</time>
      </trkpt>
      <trkpt lat="47.35804" lon="-1.45999">
        <ele>60</ele>
        <time>2021-06-12T09:06:31.000Z</time>
      </trkpt>
      <trkpt lat="47.35803" lon="-1.45981">
        <ele>60</ele>
        <time>2021-06-12T09:06:33.000Z</time>
      </trkpt>
      <trkpt lat="47.35802" lon="-1.45963">
        <ele>60</ele>
        <time>2021-06-12T09:06:35.000Z</time>
      </trkpt>
      <trkpt lat="47.35802" lon="-1.45945">
        <ele>60</ele>
        <time>2021-06-12T09:06:37.000Z</time>
      </trkpt>
      <trkpt lat="47.35802" lon="-1.4592">
        <ele>61</ele>
        <time>2021-06-12T09:06:40.000Z</time>
      </trkpt>
      <trkpt lat="47.35802" lon="-1.45904">
        <ele>61</ele>
        <time>2021-06-12T09:06:42.000Z</time>
      </trkpt>
      <trkpt lat="47.35802" lon="-1.45879">
        <ele>62</ele>
        <time>2021-06-12T09:06:45.000Z</time>
      </trkpt>
      <trkpt lat="47.35801" lon="-1.45862">
        <ele>63</ele>
        <time>2021-06-12T09:06:47.000Z</time>
      </trkpt>
      <trkpt lat="47.358" lon="-1.45845">
        <ele>63</ele>
        <time>2021-06-12T09:06:49.000Z</time>
      </trkpt>
      <trkpt lat="47.35799" lon="-1.45828">
        <ele>63</ele>
        <time>2021-06-12T09:06:51.000Z</time>
      </trkpt>
      <trkpt lat="47.35799" lon="-1.45811">
        <ele>63</ele>
        <time>2021-06-12T09:06:53.000Z</time>
      </trkpt>
      <trkpt lat="47.35799" lon="-1.45794">
        <ele>63</ele>
        <time>2021-06-12T09:06:55.000Z</time>
      </trkpt>
      <trkpt lat="47.35799" lon="-1.45778">
        <ele>63</ele>
        <time>2021-06-12T09:06:57.000Z</time>
      </trkpt>
      <trkpt lat="47.35798" lon="-1.45757">
        <ele>63</ele>
        <time>2021-06-12T09:07:00.000Z</time>
      </trkpt>
      <trkpt lat="47.35796" lon="-1.45739">
        <ele>64</ele>
        <time>2021-06-12T09:07:03.000Z</time>
      </trkpt>
      <trkpt lat="47.35791" lon="-1.45727">
        <ele>64</ele>
        <time>2021-06-12T09:07:17.000Z</time>
      </trkpt>
      <trkpt lat="47.35787" lon="-1.45712">
        <ele>64</ele>
        <time>2021-06-12T09:07:20.000Z</time>
      </trkpt>
      <trkpt lat="47.35785" lon="-1.45697">
        <ele>63</ele>
        <time>2021-06-12T09:07:22.000Z</time>
      </trkpt>
      <trkpt lat="47.35779" lon="-1.45673">
        <ele>64</ele>
        <time>2021-06-12T09:07:25.000Z</time>
      </trkpt>
      <trkpt lat="47.35775" lon="-1.45657">
        <ele>65</ele>
        <time>2021-06-12T09:07:27.000Z</time>
      </trkpt>
      <trkpt lat="47.35771" lon="-1.4564">
        <ele>65</ele>
        <time>2021-06-12T09:07:29.000Z</time>
      </trkpt>
      <trkpt lat="47.35768" lon="-1.45622">
        <ele>66</ele>
        <time>2021-06-12T09:07:31.000Z</time>
      </trkpt>
      <trkpt lat="47.35765" lon="-1.45604">
        <ele>65</ele>
        <time>2021-06-12T09:07:33.000Z</time>
      </trkpt>
      <trkpt lat="47.35764" lon="-1.45585">
        <ele>65</ele>
        <time>2021-06-12T09:07:35.000Z</time>
      </trkpt>
      <trkpt lat="47.35765" lon="-1.45567">
        <ele>65</ele>
        <time>2021-06-12T09:07:37.000Z</time>
      </trkpt>
      <trkpt lat="47.35767" lon="-1.45549">
        <ele>65</ele>
        <time>2021-06-12T09:07:39.000Z</time>
      </trkpt>
      <trkpt lat="47.35773" lon="-1.45523">
        <ele>65</ele>
        <time>2021-06-12T09:07:42.000Z</time>
      </trkpt>
      <trkpt lat="47.35779" lon="-1.45507">
        <ele>65</ele>
        <time>2021-06-12T09:07:44.000Z</time>
      </trkpt>
      <trkpt lat="47.35785" lon="-1.45492">
        <ele>65</ele>
        <time>2021-06-12T09:07:46.000Z</time>
      </trkpt>
      <trkpt lat="47.3579" lon="-1.45476">
        <ele>65</ele>
        <time>2021-06-12T09:07:48.000Z</time>
      </trkpt>
      <trkpt lat="47.35795" lon="-1.4546">
        <ele>65</ele>
        <time>2021-06-12T09:07:50.000Z</time>
      </trkpt>
      <trkpt lat="47.35799" lon="-1.45441">
        <ele>65</ele>
        <time>2021-06-12T09:07:52.000Z</time>
      </trkpt>
      <trkpt lat="47.35802" lon="-1.45423">
        <ele>65</ele>
        <time>2021-06-12T09:07:54.000Z</time>
      </trkpt>
      <trkpt lat="47.35803" lon="-1.45404">
        <ele>65</ele>
        <time>2021-06-12T09:07:56.000Z</time>
      </trkpt>
      <trkpt lat="47.35801" lon="-1.45377">
        <ele>65</ele>
        <time>2021-06-12T09:07:59.000Z</time>
      </trkpt>
      <trkpt lat="47.35798" lon="-1.45359">
        <ele>66</ele>
        <time>2021-06-12T09:08:01.000Z</time>
      </trkpt>
      <trkpt lat="47.35795" lon="-1.45341">
        <ele>66</ele>
        <time>2021-06-12T09:08:03.000Z</time>
      </trkpt>
      <trkpt lat="47.35792" lon="-1.45324">
        <ele>66</ele>
        <time>2021-06-12T09:08:05.000Z</time>
      </trkpt>
      <trkpt lat="47.35789" lon="-1.45306">
        <ele>67</ele>
        <time>2021-06-12T09:08:07.000Z</time>
      </trkpt>
      <trkpt lat="47.35786" lon="-1.45289">
        <ele>67</ele>
        <time>2021-06-12T09:08:09.000Z</time>
      </trkpt>
      <trkpt lat="47.35783" lon="-1.45271">
        <ele>67</ele>
        <time>2021-06-12T09:08:11.000Z</time>
      </trkpt>
      <trkpt lat="47.3578" lon="-1.45254">
        <ele>67</ele>
        <time>2021-06-12T09:08:13.000Z</time>
      </trkpt>
      <trkpt lat="47.35777" lon="-1.45237">
        <ele>67</ele>
        <time>2021-06-12T09:08:15.000Z</time>
      </trkpt>
      <trkpt lat="47.35774" lon="-1.45219">
        <ele>68</ele>
        <time>2021-06-12T09:08:17.000Z</time>
      </trkpt>
      <trkpt lat="47.35771" lon="-1.45201">
        <ele>68</ele>
        <time>2021-06-12T09:08:19.000Z</time>
      </trkpt>
      <trkpt lat="47.35769" lon="-1.45184">
        <ele>68</ele>
        <time>2021-06-12T09:08:21.000Z</time>
      </trkpt>
      <trkpt lat="47.35767" lon="-1.45165">
        <ele>68</ele>
        <time>2021-06-12T09:08:23.000Z</time>
      </trkpt>
      <trkpt lat="47.35767" lon="-1.45147">
        <ele>68</ele>
        <time>2021-06-12T09:08:25.000Z</time>
      </trkpt>
      <trkpt lat="47.35767" lon="-1.45129">
        <ele>69</ele>
        <time>2021-06-12T09:08:27.000Z</time>
      </trkpt>
      <trkpt lat="47.35769" lon="-1.45112">
        <ele>69</ele>
        <time>2021-06-12T09:08:29.000Z</time>
      </trkpt>
      <trkpt lat="47.35771" lon="-1.45095">
        <ele>69</ele>
        <time>2021-06-12T09:08:31.000Z</time>
      </trkpt>
      <trkpt lat="47.35773" lon="-1.45077">
        <ele>69</ele>
        <time>2021-06-12T09:08:33.000Z</time>
      </trkpt>
      <trkpt lat="47.35776" lon="-1.4506">
        <ele>70</ele>
        <time>2021-06-12T09:08:35.000Z</time>
      </trkpt>
      <trkpt lat="47.35778" lon="-1.45043">
        <ele>70</ele>
        <time>2021-06-12T09:08:37.000Z</time>
      </trkpt>
      <trkpt lat="47.3578" lon="-1.45025">
        <ele>70</ele>
        <time>2021-06-12T09:08:39.000Z</time>
      </trkpt>
      <trkpt lat="47.35781" lon="-1.45008">
        <ele>71</ele>
        <time>2021-06-12T09:08:41.000Z</time>
      </trkpt>
      <trkpt lat="47.35782" lon="-1.4499">
        <ele>71</ele>
        <time>2021-06-12T09:08:43.000Z</time>
      </trkpt>
      <trkpt lat="47.35783" lon="-1.44973">
        <ele>71</ele>
        <time>2021-06-12T09:08:45.000Z</time>
      </trkpt>
      <trkpt lat="47.35783" lon="-1.44955">
        <ele>71</ele>
        <time>2021-06-12T09:08:47.000Z</time>
      </trkpt>
      <trkpt lat="47.35784" lon="-1.44938">
        <ele>71</ele>
        <time>2021-06-12T09:08:49.000Z</time>
      </trkpt>
      <trkpt lat="47.35785" lon="-1.44912">
        <ele>72</ele>
        <time>2021-06-12T09:08:52.000Z</time>
      </trkpt>
      <trkpt lat="47.35785" lon="-1.44894">
        <ele>72</ele>
        <time>2021-06-12T09:08:54.000Z</time>
      </trkpt>
      <trkpt lat="47.35785" lon="-1.44877">
        <ele>72</ele>
        <time>2021-06-12T09:08:56.000Z</time>
      </trkpt>
      <trkpt lat="47.35785" lon="-1.4486">
        <ele>72</ele>
        <time>2021-06-12T09:08:58.000Z</time>
      </trkpt>
      <trkpt lat="47.35786" lon="-1.44843">
        <ele>73</ele>
        <time>2021-06-12T09:09:00.000Z</time>
      </trkpt>
      <trkpt lat="47.35786" lon="-1.44826">
        <ele>73</ele>
        <time>2021-06-12T09:09:02.000Z</time>
      </trkpt>
      <trkpt lat="47.35786" lon="-1.4481">
        <ele>74</ele>
        <time>2021-06-12T09:09:04.000Z</time>
      </trkpt>
      <trkpt lat="47.35787" lon="-1.44795">
        <ele>74</ele>
        <time>2021-06-12T09:09:06.000Z</time>
      </trkpt>
      <trkpt lat="47.35787" lon="-1.44781">
        <ele>74</ele>
        <time>2021-06-12T09:09:08.000Z</time>
      </trkpt>
      <trkpt lat="47.35787" lon="-1.44767">
        <ele>75</ele>
        <time>2021-06-12T09:09:10.000Z</time>
      </trkpt>
      <trkpt lat="47.35787" lon="-1.44752">
        <ele>75</ele>
        <time>2021-06-12T09:09:12.000Z</time>
      </trkpt>
      <trkpt lat="47.35788" lon="-1.44738">
        <ele>75</ele>
        <time>2021-06-12T09:09:14.000Z</time>
      </trkpt>
      <trkpt lat="47.35788" lon="-1.44723">
        <ele>76</ele>
        <time>2021-06-12T09:09:16.000Z</time>
      </trkpt>
      <trkpt lat="47.35789" lon="-1.44706">
        <ele>76</ele>
        <time>2021-06-12T09:09:18.000Z</time>
      </trkpt>
      <trkpt lat="47.35789" lon="-1.44691">
        <ele>76</ele>
        <time>2021-06-12T09:09:20.000Z</time>
      </trkpt>
      <trkpt lat="47.3579" lon="-1.44675">
        <ele>77</ele>
        <time>2021-06-12T09:09:22.000Z</time>
      </trkpt>
      <trkpt lat="47.3579" lon="-1.44659">
        <ele>78</ele>
        <time>2021-06-12T09:09:24.000Z</time>
      </trkpt>
      <trkpt lat="47.3579" lon="-1.44643">
        <ele>78</ele>
        <time>2021-06-12T09:09:26.000Z</time>
      </trkpt>
      <trkpt lat="47.3579" lon="-1.44627">
        <ele>79</ele>
        <time>2021-06-12T09:09:28.000Z</time>
      </trkpt>
      <trkpt lat="47.35792" lon="-1.44612">
        <ele>79</ele>
        <time>2021-06-12T09:09:30.000Z</time>
      </trkpt>
      <trkpt lat="47.35793" lon="-1.44597">
        <ele>79</ele>
        <time>2021-06-12T09:09:32.000Z</time>
      </trkpt>
      <trkpt lat="47.35794" lon="-1.44582">
        <ele>80</ele>
        <time>2021-06-12T09:09:34.000Z</time>
      </trkpt>
      <trkpt lat="47.35796" lon="-1.44568">
        <ele>80</ele>
        <time>2021-06-12T09:09:36.000Z</time>
      </trkpt>
      <trkpt lat="47.35797" lon="-1.44554">
        <ele>80</ele>
        <time>2021-06-12T09:09:38.000Z</time>
      </trkpt>
      <trkpt lat="47.35799" lon="-1.4454">
        <ele>81</ele>
        <time>2021-06-12T09:09:40.000Z</time>
      </trkpt>
      <trkpt lat="47.35801" lon="-1.44525">
        <ele>81</ele>
        <time>2021-06-12T09:09:42.000Z</time>
      </trkpt>
      <trkpt lat="47.35802" lon="-1.44511">
        <ele>81</ele>
        <time>2021-06-12T09:09:44.000Z</time>
      </trkpt>
      <trkpt lat="47.35803" lon="-1.44497">
        <ele>82</ele>
        <time>2021-06-12T09:09:46.000Z</time>
      </trkpt>
      <trkpt lat="47.35805" lon="-1.44483">
        <ele>82</ele>
        <time>2021-06-12T09:09:48.000Z</time>
      </trkpt>
      <trkpt lat="47.35805" lon="-1.44468">
        <ele>83</ele>
        <time>2021-06-12T09:09:50.000Z</time>
      </trkpt>
      <trkpt lat="47.35806" lon="-1.44453">
        <ele>83</ele>
        <time>2021-06-12T09:09:52.000Z</time>
      </trkpt>
      <trkpt lat="47.35807" lon="-1.44437">
        <ele>83</ele>
        <time>2021-06-12T09:09:54.000Z</time>
      </trkpt>
      <trkpt lat="47.35808" lon="-1.4442">
        <ele>84</ele>
        <time>2021-06-12T09:09:56.000Z</time>
      </trkpt>
      <trkpt lat="47.35808" lon="-1.44402">
        <ele>83</ele>
        <time>2021-06-12T09:09:58.000Z</time>
      </trkpt>
      <trkpt lat="47.35809" lon="-1.44386">
        <ele>83</ele>
        <time>2021-06-12T09:10:00.000Z</time>
      </trkpt>
      <trkpt lat="47.35809" lon="-1.44369">
        <ele>83</ele>
        <time>2021-06-12T09:10:02.000Z</time>
      </trkpt>
      <trkpt lat="47.35809" lon="-1.44352">
        <ele>83</ele>
        <time>2021-06-12T09:10:04.000Z</time>
      </trkpt>
      <trkpt lat="47.35809" lon="-1.44335">
        <ele>83</ele>
        <time>2021-06-12T09:10:06.000Z</time>
      </trkpt>
      <trkpt lat="47.3581" lon="-1.44318">
        <ele>82</ele>
        <time>2021-06-12T09:10:08.000Z</time>
      </trkpt>
      <trkpt lat="47.35811" lon="-1.44301">
        <ele>82</ele>
        <time>2021-06-12T09:10:10.000Z</time>
      </trkpt>
      <trkpt lat="47.35814" lon="-1.44286">
        <ele>83</ele>
        <time>2021-06-12T09:10:12.000Z</time>
      </trkpt>
      <trkpt lat="47.35818" lon="-1.44271">
        <ele>83</ele>
        <time>2021-06-12T09:10:14.000Z</time>
      </trkpt>
      <trkpt lat="47.35824" lon="-1.44257">
        <ele>83</ele>
        <time>2021-06-12T09:10:16.000Z</time>
      </trkpt>
      <trkpt lat="47.35831" lon="-1.44245">
        <ele>82</ele>
        <time>2021-06-12T09:10:18.000Z</time>
      </trkpt>
      <trkpt lat="47.3584" lon="-1.44233">
        <ele>83</ele>
        <time>2021-06-12T09:10:20.000Z</time>
      </trkpt>
      <trkpt lat="47.35848" lon="-1.44222">
        <ele>83</ele>
        <time>2021-06-12T09:10:22.000Z</time>
      </trkpt>
      <trkpt lat="47.35856" lon="-1.44211">
        <ele>83</ele>
        <time>2021-06-12T09:10:24.000Z</time>
      </trkpt>
      <trkpt lat="47.35864" lon="-1.442">
        <ele>82</ele>
        <time>2021-06-12T09:10:26.000Z</time>
      </trkpt>
      <trkpt lat="47.35871" lon="-1.4419">
        <ele>82</ele>
        <time>2021-06-12T09:10:28.000Z</time>
      </trkpt>
      <trkpt lat="47.35879" lon="-1.44179">
        <ele>82</ele>
        <time>2021-06-12T09:10:30.000Z</time>
      </trkpt>
      <trkpt lat="47.35888" lon="-1.44167">
        <ele>82</ele>
        <time>2021-06-12T09:10:32.000Z</time>
      </trkpt>
      <trkpt lat="47.35895" lon="-1.44156">
        <ele>82</ele>
        <time>2021-06-12T09:10:34.000Z</time>
      </trkpt>
      <trkpt lat="47.35903" lon="-1.44145">
        <ele>82</ele>
        <time>2021-06-12T09:10:36.000Z</time>
      </trkpt>
      <trkpt lat="47.35912" lon="-1.44134">
        <ele>82</ele>
        <time>2021-06-12T09:10:38.000Z</time>
      </trkpt>
      <trkpt lat="47.3592" lon="-1.44122">
        <ele>82</ele>
        <time>2021-06-12T09:10:40.000Z</time>
      </trkpt>
      <trkpt lat="47.35929" lon="-1.44112">
        <ele>83</ele>
        <time>2021-06-12T09:10:42.000Z</time>
      </trkpt>
      <trkpt lat="47.35937" lon="-1.44101">
        <ele>83</ele>
        <time>2021-06-12T09:10:44.000Z</time>
      </trkpt>
      <trkpt lat="47.35944" lon="-1.44089">
        <ele>83</ele>
        <time>2021-06-12T09:10:46.000Z</time>
      </trkpt>
      <trkpt lat="47.35952" lon="-1.44077">
        <ele>83</ele>
        <time>2021-06-12T09:10:48.000Z</time>
      </trkpt>
      <trkpt lat="47.35961" lon="-1.44066">
        <ele>83</ele>
        <time>2021-06-12T09:10:50.000Z</time>
      </trkpt>
      <trkpt lat="47.35969" lon="-1.44055">
        <ele>83</ele>
        <time>2021-06-12T09:10:52.000Z</time>
      </trkpt>
      <trkpt lat="47.35978" lon="-1.44045">
        <ele>84</ele>
        <time>2021-06-12T09:10:54.000Z</time>
      </trkpt>
      <trkpt lat="47.35987" lon="-1.44034">
        <ele>84</ele>
        <time>2021-06-12T09:10:56.000Z</time>
      </trkpt>
      <trkpt lat="47.35995" lon="-1.44025">
        <ele>84</ele>
        <time>2021-06-12T09:10:58.000Z</time>
      </trkpt>
      <trkpt lat="47.36004" lon="-1.44014">
        <ele>84</ele>
        <time>2021-06-12T09:11:00.000Z</time>
      </trkpt>
      <trkpt lat="47.36013" lon="-1.44003">
        <ele>84</ele>
        <time>2021-06-12T09:11:02.000Z</time>
      </trkpt>
      <trkpt lat="47.36022" lon="-1.43991">
        <ele>85</ele>
        <time>2021-06-12T09:11:04.000Z</time>
      </trkpt>
      <trkpt lat="47.3603" lon="-1.43978">
        <ele>85</ele>
        <time>2021-06-12T09:11:06.000Z</time>
      </trkpt>
      <trkpt lat="47.36039" lon="-1.43966">
        <ele>84</ele>
        <time>2021-06-12T09:11:08.000Z</time>
      </trkpt>
      <trkpt lat="47.36046" lon="-1.4395">
        <ele>84</ele>
        <time>2021-06-12T09:11:10.000Z</time>
      </trkpt>
      <trkpt lat="47.36052" lon="-1.43934">
        <ele>83</ele>
        <time>2021-06-12T09:11:12.000Z</time>
      </trkpt>
      <trkpt lat="47.36057" lon="-1.43917">
        <ele>83</ele>
        <time>2021-06-12T09:11:14.000Z</time>
      </trkpt>
      <trkpt lat="47.36061" lon="-1.43898">
        <ele>83</ele>
        <time>2021-06-12T09:11:16.000Z</time>
      </trkpt>
      <trkpt lat="47.36065" lon="-1.4388">
        <ele>82</ele>
        <time>2021-06-12T09:11:18.000Z</time>
      </trkpt>
      <trkpt lat="47.36068" lon="-1.43861">
        <ele>82</ele>
        <time>2021-06-12T09:11:20.000Z</time>
      </trkpt>
      <trkpt lat="47.3607" lon="-1.43839">
        <ele>81</ele>
        <time>2021-06-12T09:11:22.000Z</time>
      </trkpt>
      <trkpt lat="47.36073" lon="-1.43818">
        <ele>80</ele>
        <time>2021-06-12T09:11:24.000Z</time>
      </trkpt>
      <trkpt lat="47.36076" lon="-1.43794">
        <ele>79</ele>
        <time>2021-06-12T09:11:26.000Z</time>
      </trkpt>
      <trkpt lat="47.3608" lon="-1.43771">
        <ele>78</ele>
        <time>2021-06-12T09:11:28.000Z</time>
      </trkpt>
      <trkpt lat="47.36085" lon="-1.43747">
        <ele>77</ele>
        <time>2021-06-12T09:11:30.000Z</time>
      </trkpt>
      <trkpt lat="47.36094" lon="-1.43724">
        <ele>76</ele>
        <time>2021-06-12T09:11:32.000Z</time>
      </trkpt>
      <trkpt lat="47.36104" lon="-1.43702">
        <ele>75</ele>
        <time>2021-06-12T09:11:34.000Z</time>
      </trkpt>
      <trkpt lat="47.36115" lon="-1.43683">
        <ele>75</ele>
        <time>2021-06-12T09:11:36.000Z</time>
      </trkpt>
      <trkpt lat="47.36126" lon="-1.43665">
        <ele>75</ele>
        <time>2021-06-12T09:11:38.000Z</time>
      </trkpt>
      <trkpt lat="47.36136" lon="-1.43648">
        <ele>75</ele>
        <time>2021-06-12T09:11:40.000Z</time>
      </trkpt>
      <trkpt lat="47.36144" lon="-1.43631">
        <ele>75</ele>
        <time>2021-06-12T09:11:42.000Z</time>
      </trkpt>
      <trkpt lat="47.36151" lon="-1.43613">
        <ele>76</ele>
        <time>2021-06-12T09:11:44.000Z</time>
      </trkpt>
      <trkpt lat="47.36159" lon="-1.43597">
        <ele>76</ele>
        <time>2021-06-12T09:11:46.000Z</time>
      </trkpt>
      <trkpt lat="47.36166" lon="-1.43581">
        <ele>76</ele>
        <time>2021-06-12T09:11:48.000Z</time>
      </trkpt>
      <trkpt lat="47.36173" lon="-1.43564">
        <ele>76</ele>
        <time>2021-06-12T09:11:50.000Z</time>
      </trkpt>
      <trkpt lat="47.36181" lon="-1.43549">
        <ele>76</ele>
        <time>2021-06-12T09:11:52.000Z</time>
      </trkpt>
      <trkpt lat="47.36188" lon="-1.43535">
        <ele>76</ele>
        <time>2021-06-12T09:11:54.000Z</time>
      </trkpt>
      <trkpt lat="47.36196" lon="-1.43523">
        <ele>76</ele>
        <time>2021-06-12T09:11:56.000Z</time>
      </trkpt>
      <trkpt lat="47.36203" lon="-1.43511">
        <ele>76</ele>
        <time>2021-06-12T09:11:58.000Z</time>
      </trkpt>
      <trkpt lat="47.3621" lon="-1.435">
        <ele>77</ele>
        <time>2021-06-12T09:12:00.000Z</time>
      </trkpt>
      <trkpt lat="47.36217" lon="-1.4349">
        <ele>77</ele>
        <time>2021-06-12T09:12:02.000Z</time>
      </trkpt>
      <trkpt lat="47.36224" lon="-1.43481">
        <ele>77</ele>
        <time>2021-06-12T09:12:04.000Z</time>
      </trkpt>
      <trkpt lat="47.36234" lon="-1.4347">
        <ele>78</ele>
        <time>2021-06-12T09:12:07.000Z</time>
      </trkpt>
      <trkpt lat="47.36242" lon="-1.43462">
        <ele>78</ele>
        <time>2021-06-12T09:12:09.000Z</time>
      </trkpt>
      <trkpt lat="47.3625" lon="-1.43455">
        <ele>78</ele>
        <time>2021-06-12T09:12:11.000Z</time>
      </trkpt>
      <trkpt lat="47.36257" lon="-1.43448">
        <ele>78</ele>
        <time>2021-06-12T09:12:13.000Z</time>
      </trkpt>
      <trkpt lat="47.36268" lon="-1.43437">
        <ele>79</ele>
        <time>2021-06-12T09:12:16.000Z</time>
      </trkpt>
      <trkpt lat="47.36279" lon="-1.43427">
        <ele>80</ele>
        <time>2021-06-12T09:12:19.000Z</time>
      </trkpt>
      <trkpt lat="47.36289" lon="-1.43417">
        <ele>81</ele>
        <time>2021-06-12T09:12:22.000Z</time>
      </trkpt>
      <trkpt lat="47.363" lon="-1.43406">
        <ele>81</ele>
        <time>2021-06-12T09:12:25.000Z</time>
      </trkpt>
      <trkpt lat="47.3631" lon="-1.43396">
        <ele>81</ele>
        <time>2021-06-12T09:12:28.000Z</time>
      </trkpt>
      <trkpt lat="47.36321" lon="-1.43385">
        <ele>82</ele>
        <time>2021-06-12T09:12:31.000Z</time>
      </trkpt>
      <trkpt lat="47.36331" lon="-1.43375">
        <ele>83</ele>
        <time>2021-06-12T09:12:34.000Z</time>
      </trkpt>
      <trkpt lat="47.36341" lon="-1.43365">
        <ele>83</ele>
        <time>2021-06-12T09:12:37.000Z</time>
      </trkpt>
      <trkpt lat="47.36351" lon="-1.43355">
        <ele>84</ele>
        <time>2021-06-12T09:12:40.000Z</time>
      </trkpt>
      <trkpt lat="47.3636" lon="-1.43346">
        <ele>85</ele>
        <time>2021-06-12T09:12:43.000Z</time>
      </trkpt>
      <trkpt lat="47.36369" lon="-1.43335">
        <ele>86</ele>
        <time>2021-06-12T09:12:46.000Z</time>
      </trkpt>
      <trkpt lat="47.36379" lon="-1.43325">
        <ele>87</ele>
        <time>2021-06-12T09:12:49.000Z</time>
      </trkpt>
      <trkpt lat="47.36388" lon="-1.43315">
        <ele>87</ele>
        <time>2021-06-12T09:12:52.000Z</time>
      </trkpt>
      <trkpt lat="47.36399" lon="-1.43304">
        <ele>88</ele>
        <time>2021-06-12T09:12:55.000Z</time>
      </trkpt>
      <trkpt lat="47.36409" lon="-1.43294">
        <ele>88</ele>
        <time>2021-06-12T09:12:58.000Z</time>
      </trkpt>
      <trkpt lat="47.36419" lon="-1.43283">
        <ele>89</ele>
        <time>2021-06-12T09:13:01.000Z</time>
      </trkpt>
      <trkpt lat="47.36428" lon="-1.43272">
        <ele>90</ele>
        <time>2021-06-12T09:13:04.000Z</time>
      </trkpt>
      <trkpt lat="47.36436" lon="-1.4326">
        <ele>91</ele>
        <time>2021-06-12T09:13:07.000Z</time>
      </trkpt>
      <trkpt lat="47.36444" lon="-1.43247">
        <ele>92</ele>
        <time>2021-06-12T09:13:10.000Z</time>
      </trkpt>
      <trkpt lat="47.36452" lon="-1.43234">
        <ele>92</ele>
        <time>2021-06-12T09:13:13.000Z</time>
      </trkpt>
      <trkpt lat="47.36459" lon="-1.43218">
        <ele>93</ele>
        <time>2021-06-12T09:13:16.000Z</time>
      </trkpt>
      <trkpt lat="47.36467" lon="-1.43202">
        <ele>94</ele>
        <time>2021-06-12T09:13:19.000Z</time>
      </trkpt>
      <trkpt lat="47.36474" lon="-1.43187">
        <ele>94</ele>
        <time>2021-06-12T09:13:22.000Z</time>
      </trkpt>
      <trkpt lat="47.36479" lon="-1.43175">
        <ele>94</ele>
        <time>2021-06-12T09:13:24.000Z</time>
      </trkpt>
      <trkpt lat="47.36484" lon="-1.43164">
        <ele>94</ele>
        <time>2021-06-12T09:13:26.000Z</time>
      </trkpt>
      <trkpt lat="47.36492" lon="-1.43148">
        <ele>95</ele>
        <time>2021-06-12T09:13:29.000Z</time>
      </trkpt>
      <trkpt lat="47.36499" lon="-1.43132">
        <ele>95</ele>
        <time>2021-06-12T09:13:32.000Z</time>
      </trkpt>
      <trkpt lat="47.36504" lon="-1.43121">
        <ele>95</ele>
        <time>2021-06-12T09:13:34.000Z</time>
      </trkpt>
      <trkpt lat="47.36509" lon="-1.43103">
        <ele>95</ele>
        <time>2021-06-12T09:13:37.000Z</time>
      </trkpt>
      <trkpt lat="47.36512" lon="-1.4309">
        <ele>96</ele>
        <time>2021-06-12T09:13:39.000Z</time>
      </trkpt>
      <trkpt lat="47.36515" lon="-1.43077">
        <ele>96</ele>
        <time>2021-06-12T09:13:41.000Z</time>
      </trkpt>
      <trkpt lat="47.36517" lon="-1.43063">
        <ele>96</ele>
        <time>2021-06-12T09:13:43.000Z</time>
      </trkpt>
      <trkpt lat="47.36518" lon="-1.43049">
        <ele>97</ele>
        <time>2021-06-12T09:13:45.000Z</time>
      </trkpt>
      <trkpt lat="47.36519" lon="-1.43036">
        <ele>97</ele>
        <time>2021-06-12T09:13:47.000Z</time>
      </trkpt>
      <trkpt lat="47.36521" lon="-1.43021">
        <ele>97</ele>
        <time>2021-06-12T09:13:49.000Z</time>
      </trkpt>
      <trkpt lat="47.36523" lon="-1.43008">
        <ele>97</ele>
        <time>2021-06-12T09:13:51.000Z</time>
      </trkpt>
      <trkpt lat="47.36527" lon="-1.42996">
        <ele>97</ele>
        <time>2021-06-12T09:13:53.000Z</time>
      </trkpt>
      <trkpt lat="47.36537" lon="-1.42984">
        <ele>97</ele>
        <time>2021-06-12T09:13:56.000Z</time>
      </trkpt>
      <trkpt lat="47.3655" lon="-1.42981">
        <ele>98</ele>
        <time>2021-06-12T09:13:59.000Z</time>
      </trkpt>
      <trkpt lat="47.3656" lon="-1.42981">
        <ele>98</ele>
        <time>2021-06-12T09:14:01.000Z</time>
      </trkpt>
      <trkpt lat="47.36571" lon="-1.4298">
        <ele>97</ele>
        <time>2021-06-12T09:14:03.000Z</time>
      </trkpt>
      <trkpt lat="47.36582" lon="-1.4298">
        <ele>97</ele>
        <time>2021-06-12T09:14:05.000Z</time>
      </trkpt>
      <trkpt lat="47.36593" lon="-1.42979">
        <ele>97</ele>
        <time>2021-06-12T09:14:07.000Z</time>
      </trkpt>
      <trkpt lat="47.36605" lon="-1.42978">
        <ele>97</ele>
        <time>2021-06-12T09:14:09.000Z</time>
      </trkpt>
      <trkpt lat="47.36617" lon="-1.42977">
        <ele>97</ele>
        <time>2021-06-12T09:14:11.000Z</time>
      </trkpt>
      <trkpt lat="47.36629" lon="-1.42977">
        <ele>98</ele>
        <time>2021-06-12T09:14:13.000Z</time>
      </trkpt>
      <trkpt lat="47.3664" lon="-1.42976">
        <ele>98</ele>
        <time>2021-06-12T09:14:15.000Z</time>
      </trkpt>
      <trkpt lat="47.36652" lon="-1.42976">
        <ele>98</ele>
        <time>2021-06-12T09:14:17.000Z</time>
      </trkpt>
      <trkpt lat="47.36664" lon="-1.42976">
        <ele>98</ele>
        <time>2021-06-12T09:14:19.000Z</time>
      </trkpt>
      <trkpt lat="47.36675" lon="-1.42976">
        <ele>98</ele>
        <time>2021-06-12T09:14:21.000Z</time>
      </trkpt>
      <trkpt lat="47.36685" lon="-1.42977">
        <ele>98</ele>
        <time>2021-06-12T09:14:23.000Z</time>
      </trkpt>
      <trkpt lat="47.36695" lon="-1.42963">
        <ele>98</ele>
        <time>2021-06-12T09:14:26.000Z</time>
      </trkpt>
      <trkpt lat="47.36699" lon="-1.42948">
        <ele>97</ele>
        <time>2021-06-12T09:14:28.000Z</time>
      </trkpt>
      <trkpt lat="47.36703" lon="-1.42932">
        <ele>97</ele>
        <time>2021-06-12T09:14:30.000Z</time>
      </trkpt>
      <trkpt lat="47.36708" lon="-1.42914">
        <ele>97</ele>
        <time>2021-06-12T09:14:32.000Z</time>
      </trkpt>
      <trkpt lat="47.36713" lon="-1.42898">
        <ele>97</ele>
        <time>2021-06-12T09:14:34.000Z</time>
      </trkpt>
      <trkpt lat="47.36717" lon="-1.42881">
        <ele>98</ele>
        <time>2021-06-12T09:14:36.000Z</time>
      </trkpt>
      <trkpt lat="47.36722" lon="-1.42866">
        <ele>98</ele>
        <time>2021-06-12T09:14:38.000Z</time>
      </trkpt>
      <trkpt lat="47.36726" lon="-1.4285">
        <ele>98</ele>
        <time>2021-06-12T09:14:40.000Z</time>
      </trkpt>
      <trkpt lat="47.36729" lon="-1.42833">
        <ele>98</ele>
        <time>2021-06-12T09:14:42.000Z</time>
      </trkpt>
      <trkpt lat="47.36732" lon="-1.42816">
        <ele>99</ele>
        <time>2021-06-12T09:14:44.000Z</time>
      </trkpt>
      <trkpt lat="47.36735" lon="-1.42799">
        <ele>99</ele>
        <time>2021-06-12T09:14:46.000Z</time>
      </trkpt>
      <trkpt lat="47.36737" lon="-1.42781">
        <ele>100</ele>
        <time>2021-06-12T09:14:48.000Z</time>
      </trkpt>
      <trkpt lat="47.36739" lon="-1.42764">
        <ele>99</ele>
        <time>2021-06-12T09:14:50.000Z</time>
      </trkpt>
      <trkpt lat="47.3674" lon="-1.42746">
        <ele>99</ele>
        <time>2021-06-12T09:14:52.000Z</time>
      </trkpt>
      <trkpt lat="47.3674" lon="-1.42729">
        <ele>100</ele>
        <time>2021-06-12T09:14:54.000Z</time>
      </trkpt>
      <trkpt lat="47.36739" lon="-1.42711">
        <ele>100</ele>
        <time>2021-06-12T09:14:56.000Z</time>
      </trkpt>
      <trkpt lat="47.36739" lon="-1.42693">
        <ele>101</ele>
        <time>2021-06-12T09:14:58.000Z</time>
      </trkpt>
      <trkpt lat="47.36738" lon="-1.42675">
        <ele>101</ele>
        <time>2021-06-12T09:15:00.000Z</time>
      </trkpt>
      <trkpt lat="47.36736" lon="-1.42658">
        <ele>101</ele>
        <time>2021-06-12T09:15:02.000Z</time>
      </trkpt>
      <trkpt lat="47.36734" lon="-1.4264">
        <ele>101</ele>
        <time>2021-06-12T09:15:04.000Z</time>
      </trkpt>
      <trkpt lat="47.36731" lon="-1.42622">
        <ele>101</ele>
        <time>2021-06-12T09:15:06.000Z</time>
      </trkpt>
      <trkpt lat="47.36729" lon="-1.42604">
        <ele>101</ele>
        <time>2021-06-12T09:15:08.000Z</time>
      </trkpt>
      <trkpt lat="47.36726" lon="-1.42587">
        <ele>102</ele>
        <time>2021-06-12T09:15:10.000Z</time>
      </trkpt>
      <trkpt lat="47.36723" lon="-1.4257">
        <ele>102</ele>
        <time>2021-06-12T09:15:12.000Z</time>
      </trkpt>
      <trkpt lat="47.36721" lon="-1.42552">
        <ele>102</ele>
        <time>2021-06-12T09:15:14.000Z</time>
      </trkpt>
      <trkpt lat="47.36718" lon="-1.42535">
        <ele>102</ele>
        <time>2021-06-12T09:15:16.000Z</time>
      </trkpt>
      <trkpt lat="47.36715" lon="-1.42517">
        <ele>102</ele>
        <time>2021-06-12T09:15:18.000Z</time>
      </trkpt>
      <trkpt lat="47.36712" lon="-1.42499">
        <ele>102</ele>
        <time>2021-06-12T09:15:20.000Z</time>
      </trkpt>
      <trkpt lat="47.36709" lon="-1.42482">
        <ele>102</ele>
        <time>2021-06-12T09:15:22.000Z</time>
      </trkpt>
      <trkpt lat="47.36706" lon="-1.42463">
        <ele>102</ele>
        <time>2021-06-12T09:15:24.000Z</time>
      </trkpt>
      <trkpt lat="47.36704" lon="-1.42446">
        <ele>103</ele>
        <time>2021-06-12T09:15:26.000Z</time>
      </trkpt>
      <trkpt lat="47.36701" lon="-1.42428">
        <ele>103</ele>
        <time>2021-06-12T09:15:28.000Z</time>
      </trkpt>
      <trkpt lat="47.36698" lon="-1.4241">
        <ele>103</ele>
        <time>2021-06-12T09:15:30.000Z</time>
      </trkpt>
      <trkpt lat="47.36695" lon="-1.42391">
        <ele>103</ele>
        <time>2021-06-12T09:15:32.000Z</time>
      </trkpt>
      <trkpt lat="47.36692" lon="-1.42373">
        <ele>103</ele>
        <time>2021-06-12T09:15:34.000Z</time>
      </trkpt>
      <trkpt lat="47.36689" lon="-1.42355">
        <ele>103</ele>
        <time>2021-06-12T09:15:36.000Z</time>
      </trkpt>
      <trkpt lat="47.36686" lon="-1.42337">
        <ele>104</ele>
        <time>2021-06-12T09:15:38.000Z</time>
      </trkpt>
      <trkpt lat="47.36684" lon="-1.4232">
        <ele>104</ele>
        <time>2021-06-12T09:15:40.000Z</time>
      </trkpt>
      <trkpt lat="47.36681" lon="-1.42301">
        <ele>104</ele>
        <time>2021-06-12T09:15:42.000Z</time>
      </trkpt>
      <trkpt lat="47.36679" lon="-1.42284">
        <ele>104</ele>
        <time>2021-06-12T09:15:44.000Z</time>
      </trkpt>
      <trkpt lat="47.36677" lon="-1.42267">
        <ele>104</ele>
        <time>2021-06-12T09:15:46.000Z</time>
      </trkpt>
      <trkpt lat="47.36675" lon="-1.42249">
        <ele>104</ele>
        <time>2021-06-12T09:15:48.000Z</time>
      </trkpt>
      <trkpt lat="47.36674" lon="-1.42232">
        <ele>105</ele>
        <time>2021-06-12T09:15:50.000Z</time>
      </trkpt>
      <trkpt lat="47.36673" lon="-1.42214">
        <ele>105</ele>
        <time>2021-06-12T09:15:52.000Z</time>
      </trkpt>
      <trkpt lat="47.36671" lon="-1.42197">
        <ele>105</ele>
        <time>2021-06-12T09:15:54.000Z</time>
      </trkpt>
      <trkpt lat="47.36669" lon="-1.42179">
        <ele>105</ele>
        <time>2021-06-12T09:15:56.000Z</time>
      </trkpt>
      <trkpt lat="47.36668" lon="-1.42163">
        <ele>105</ele>
        <time>2021-06-12T09:15:58.000Z</time>
      </trkpt>
      <trkpt lat="47.36667" lon="-1.42146">
        <ele>105</ele>
        <time>2021-06-12T09:16:00.000Z</time>
      </trkpt>
      <trkpt lat="47.36665" lon="-1.42129">
        <ele>106</ele>
        <time>2021-06-12T09:16:02.000Z</time>
      </trkpt>
      <trkpt lat="47.36664" lon="-1.42112">
        <ele>106</ele>
        <time>2021-06-12T09:16:04.000Z</time>
      </trkpt>
      <trkpt lat="47.36662" lon="-1.42095">
        <ele>106</ele>
        <time>2021-06-12T09:16:06.000Z</time>
      </trkpt>
      <trkpt lat="47.36661" lon="-1.42078">
        <ele>106</ele>
        <time>2021-06-12T09:16:08.000Z</time>
      </trkpt>
      <trkpt lat="47.36659" lon="-1.42061">
        <ele>106</ele>
        <time>2021-06-12T09:16:10.000Z</time>
      </trkpt>
      <trkpt lat="47.36658" lon="-1.42044">
        <ele>106</ele>
        <time>2021-06-12T09:16:12.000Z</time>
      </trkpt>
      <trkpt lat="47.36656" lon="-1.42027">
        <ele>107</ele>
        <time>2021-06-12T09:16:14.000Z</time>
      </trkpt>
      <trkpt lat="47.36655" lon="-1.42011">
        <ele>107</ele>
        <time>2021-06-12T09:16:16.000Z</time>
      </trkpt>
      <trkpt lat="47.36654" lon="-1.41995">
        <ele>108</ele>
        <time>2021-06-12T09:16:18.000Z</time>
      </trkpt>
      <trkpt lat="47.36653" lon="-1.41978">
        <ele>108</ele>
        <time>2021-06-12T09:16:20.000Z</time>
      </trkpt>
      <trkpt lat="47.36651" lon="-1.41962">
        <ele>109</ele>
        <time>2021-06-12T09:16:22.000Z</time>
      </trkpt>
      <trkpt lat="47.3665" lon="-1.41945">
        <ele>109</ele>
        <time>2021-06-12T09:16:24.000Z</time>
      </trkpt>
      <trkpt lat="47.36649" lon="-1.41929">
        <ele>109</ele>
        <time>2021-06-12T09:16:26.000Z</time>
      </trkpt>
      <trkpt lat="47.36647" lon="-1.41912">
        <ele>109</ele>
        <time>2021-06-12T09:16:28.000Z</time>
      </trkpt>
      <trkpt lat="47.36645" lon="-1.41895">
        <ele>110</ele>
        <time>2021-06-12T09:16:30.000Z</time>
      </trkpt>
      <trkpt lat="47.36644" lon="-1.41879">
        <ele>110</ele>
        <time>2021-06-12T09:16:32.000Z</time>
      </trkpt>
      <trkpt lat="47.36642" lon="-1.41863">
        <ele>110</ele>
        <time>2021-06-12T09:16:34.000Z</time>
      </trkpt>
      <trkpt lat="47.36641" lon="-1.41846">
        <ele>111</ele>
        <time>2021-06-12T09:16:36.000Z</time>
      </trkpt>
      <trkpt lat="47.36639" lon="-1.41831">
        <ele>111</ele>
        <time>2021-06-12T09:16:38.000Z</time>
      </trkpt>
      <trkpt lat="47.36638" lon="-1.41815">
        <ele>112</ele>
        <time>2021-06-12T09:16:40.000Z</time>
      </trkpt>
      <trkpt lat="47.36636" lon="-1.41799">
        <ele>112</ele>
        <time>2021-06-12T09:16:42.000Z</time>
      </trkpt>
      <trkpt lat="47.36635" lon="-1.41783">
        <ele>112</ele>
        <time>2021-06-12T09:16:44.000Z</time>
      </trkpt>
      <trkpt lat="47.36633" lon="-1.41767">
        <ele>113</ele>
        <time>2021-06-12T09:16:46.000Z</time>
      </trkpt>
      <trkpt lat="47.36632" lon="-1.41751">
        <ele>113</ele>
        <time>2021-06-12T09:16:48.000Z</time>
      </trkpt>
      <trkpt lat="47.3663" lon="-1.41736">
        <ele>113</ele>
        <time>2021-06-12T09:16:50.000Z</time>
      </trkpt>
      <trkpt lat="47.36629" lon="-1.4172">
        <ele>113</ele>
        <time>2021-06-12T09:16:52.000Z</time>
      </trkpt>
      <trkpt lat="47.36628" lon="-1.41704">
        <ele>113</ele>
        <time>2021-06-12T09:16:54.000Z</time>
      </trkpt>
      <trkpt lat="47.36627" lon="-1.41687">
        <ele>113</ele>
        <time>2021-06-12T09:16:56.000Z</time>
      </trkpt>
      <trkpt lat="47.36627" lon="-1.41672">
        <ele>113</ele>
        <time>2021-06-12T09:16:58.000Z</time>
      </trkpt>
      <trkpt lat="47.36626" lon="-1.41655">
        <ele>113</ele>
        <time>2021-06-12T09:17:00.000Z</time>
      </trkpt>
      <trkpt lat="47.36626" lon="-1.41639">
        <ele>113</ele>
        <time>2021-06-12T09:17:02.000Z</time>
      </trkpt>
      <trkpt lat="47.36627" lon="-1.41623">
        <ele>113</ele>
        <time>2021-06-12T09:17:04.000Z</time>
      </trkpt>
      <trkpt lat="47.36628" lon="-1.41607">
        <ele>113</ele>
        <time>2021-06-12T09:17:06.000Z</time>
      </trkpt>
      <trkpt lat="47.36629" lon="-1.41591">
        <ele>113</ele>
        <time>2021-06-12T09:17:08.000Z</time>
      </trkpt>
      <trkpt lat="47.36631" lon="-1.41575">
        <ele>114</ele>
        <time>2021-06-12T09:17:10.000Z</time>
      </trkpt>
      <trkpt lat="47.36632" lon="-1.41559">
        <ele>114</ele>
        <time>2021-06-12T09:17:12.000Z</time>
      </trkpt>
      <trkpt lat="47.36632" lon="-1.41542">
        <ele>115</ele>
        <time>2021-06-12T09:17:14.000Z</time>
      </trkpt>
      <trkpt lat="47.36636" lon="-1.41528">
        <ele>114</ele>
        <time>2021-06-12T09:17:16.000Z</time>
      </trkpt>
      <trkpt lat="47.36641" lon="-1.41513">
        <ele>113</ele>
        <time>2021-06-12T09:17:18.000Z</time>
      </trkpt>
      <trkpt lat="47.36644" lon="-1.41496">
        <ele>113</ele>
        <time>2021-06-12T09:17:20.000Z</time>
      </trkpt>
      <trkpt lat="47.36648" lon="-1.41479">
        <ele>113</ele>
        <time>2021-06-12T09:17:22.000Z</time>
      </trkpt>
      <trkpt lat="47.36653" lon="-1.41462">
        <ele>114</ele>
        <time>2021-06-12T09:17:24.000Z</time>
      </trkpt>
      <trkpt lat="47.36658" lon="-1.41445">
        <ele>114</ele>
        <time>2021-06-12T09:17:26.000Z</time>
      </trkpt>
      <trkpt lat="47.36663" lon="-1.41427">
        <ele>114</ele>
        <time>2021-06-12T09:17:28.000Z</time>
      </trkpt>
      <trkpt lat="47.36669" lon="-1.4141">
        <ele>114</ele>
        <time>2021-06-12T09:17:30.000Z</time>
      </trkpt>
      <trkpt lat="47.36675" lon="-1.41393">
        <ele>115</ele>
        <time>2021-06-12T09:17:32.000Z</time>
      </trkpt>
      <trkpt lat="47.36682" lon="-1.41375">
        <ele>115</ele>
        <time>2021-06-12T09:17:34.000Z</time>
      </trkpt>
      <trkpt lat="47.36688" lon="-1.41357">
        <ele>115</ele>
        <time>2021-06-12T09:17:36.000Z</time>
      </trkpt>
      <trkpt lat="47.36694" lon="-1.4134">
        <ele>115</ele>
        <time>2021-06-12T09:17:38.000Z</time>
      </trkpt>
      <trkpt lat="47.36701" lon="-1.41322">
        <ele>116</ele>
        <time>2021-06-12T09:17:40.000Z</time>
      </trkpt>
      <trkpt lat="47.36707" lon="-1.41304">
        <ele>115</ele>
        <time>2021-06-12T09:17:42.000Z</time>
      </trkpt>
      <trkpt lat="47.36714" lon="-1.41287">
        <ele>114</ele>
        <time>2021-06-12T09:17:44.000Z</time>
      </trkpt>
      <trkpt lat="47.3672" lon="-1.41269">
        <ele>114</ele>
        <time>2021-06-12T09:17:46.000Z</time>
      </trkpt>
      <trkpt lat="47.36727" lon="-1.41251">
        <ele>114</ele>
        <time>2021-06-12T09:17:48.000Z</time>
      </trkpt>
      <trkpt lat="47.36734" lon="-1.41233">
        <ele>114</ele>
        <time>2021-06-12T09:17:50.000Z</time>
      </trkpt>
      <trkpt lat="47.36739" lon="-1.41214">
        <ele>113</ele>
        <time>2021-06-12T09:17:52.000Z</time>
      </trkpt>
      <trkpt lat="47.36742" lon="-1.41193">
        <ele>113</ele>
        <time>2021-06-12T09:17:54.000Z</time>
      </trkpt>
      <trkpt lat="47.36743" lon="-1.41172">
        <ele>111</ele>
        <time>2021-06-12T09:17:56.000Z</time>
      </trkpt>
      <trkpt lat="47.36741" lon="-1.41151">
        <ele>111</ele>
        <time>2021-06-12T09:17:58.000Z</time>
      </trkpt>
      <trkpt lat="47.36737" lon="-1.4113">
        <ele>110</ele>
        <time>2021-06-12T09:18:00.000Z</time>
      </trkpt>
      <trkpt lat="47.36732" lon="-1.41111">
        <ele>110</ele>
        <time>2021-06-12T09:18:02.000Z</time>
      </trkpt>
      <trkpt lat="47.36727" lon="-1.41091">
        <ele>109</ele>
        <time>2021-06-12T09:18:04.000Z</time>
      </trkpt>
      <trkpt lat="47.36722" lon="-1.41071">
        <ele>109</ele>
        <time>2021-06-12T09:18:06.000Z</time>
      </trkpt>
      <trkpt lat="47.36716" lon="-1.4105">
        <ele>108</ele>
        <time>2021-06-12T09:18:08.000Z</time>
      </trkpt>
      <trkpt lat="47.36711" lon="-1.4103">
        <ele>108</ele>
        <time>2021-06-12T09:18:10.000Z</time>
      </trkpt>
      <trkpt lat="47.36705" lon="-1.4101">
        <ele>108</ele>
        <time>2021-06-12T09:18:12.000Z</time>
      </trkpt>
      <trkpt lat="47.367" lon="-1.4099">
        <ele>108</ele>
        <time>2021-06-12T09:18:14.000Z</time>
      </trkpt>
      <trkpt lat="47.36696" lon="-1.40971">
        <ele>108</ele>
        <time>2021-06-12T09:18:16.000Z</time>
      </trkpt>
      <trkpt lat="47.36693" lon="-1.40952">
        <ele>109</ele>
        <time>2021-06-12T09:18:18.000Z</time>
      </trkpt>
      <trkpt lat="47.36691" lon="-1.40933">
        <ele>109</ele>
        <time>2021-06-12T09:18:20.000Z</time>
      </trkpt>
      <trkpt lat="47.3669" lon="-1.40914">
        <ele>110</ele>
        <time>2021-06-12T09:18:22.000Z</time>
      </trkpt>
      <trkpt lat="47.3669" lon="-1.40895">
        <ele>110</ele>
        <time>2021-06-12T09:18:24.000Z</time>
      </trkpt>
      <trkpt lat="47.3669" lon="-1.40876">
        <ele>110</ele>
        <time>2021-06-12T09:18:26.000Z</time>
      </trkpt>
      <trkpt lat="47.36691" lon="-1.40857">
        <ele>110</ele>
        <time>2021-06-12T09:18:28.000Z</time>
      </trkpt>
      <trkpt lat="47.36692" lon="-1.40837">
        <ele>110</ele>
        <time>2021-06-12T09:18:30.000Z</time>
      </trkpt>
      <trkpt lat="47.36692" lon="-1.40819">
        <ele>110</ele>
        <time>2021-06-12T09:18:32.000Z</time>
      </trkpt>
      <trkpt lat="47.36693" lon="-1.40802">
        <ele>110</ele>
        <time>2021-06-12T09:18:34.000Z</time>
      </trkpt>
      <trkpt lat="47.36693" lon="-1.40783">
        <ele>111</ele>
        <time>2021-06-12T09:18:36.000Z</time>
      </trkpt>
      <trkpt lat="47.36694" lon="-1.40765">
        <ele>110</ele>
        <time>2021-06-12T09:18:38.000Z</time>
      </trkpt>
      <trkpt lat="47.36695" lon="-1.40746">
        <ele>110</ele>
        <time>2021-06-12T09:18:40.000Z</time>
      </trkpt>
      <trkpt lat="47.36695" lon="-1.40728">
        <ele>110</ele>
        <time>2021-06-12T09:18:42.000Z</time>
      </trkpt>
      <trkpt lat="47.36696" lon="-1.4071">
        <ele>110</ele>
        <time>2021-06-12T09:18:44.000Z</time>
      </trkpt>
      <trkpt lat="47.36696" lon="-1.40692">
        <ele>110</ele>
        <time>2021-06-12T09:18:46.000Z</time>
      </trkpt>
      <trkpt lat="47.36697" lon="-1.40673">
        <ele>110</ele>
        <time>2021-06-12T09:18:48.000Z</time>
      </trkpt>
      <trkpt lat="47.36698" lon="-1.40656">
        <ele>110</ele>
        <time>2021-06-12T09:18:50.000Z</time>
      </trkpt>
      <trkpt lat="47.36699" lon="-1.40637">
        <ele>110</ele>
        <time>2021-06-12T09:18:52.000Z</time>
      </trkpt>
      <trkpt lat="47.36699" lon="-1.40619">
        <ele>110</ele>
        <time>2021-06-12T09:18:54.000Z</time>
      </trkpt>
      <trkpt lat="47.36699" lon="-1.40601">
        <ele>109</ele>
        <time>2021-06-12T09:18:56.000Z</time>
      </trkpt>
      <trkpt lat="47.367" lon="-1.40581">
        <ele>108</ele>
        <time>2021-06-12T09:18:58.000Z</time>
      </trkpt>
      <trkpt lat="47.367" lon="-1.40561">
        <ele>108</ele>
        <time>2021-06-12T09:19:00.000Z</time>
      </trkpt>
      <trkpt lat="47.367" lon="-1.40544">
        <ele>108</ele>
        <time>2021-06-12T09:19:02.000Z</time>
      </trkpt>
      <trkpt lat="47.36698" lon="-1.40531">
        <ele>107</ele>
        <time>2021-06-12T09:19:04.000Z</time>
      </trkpt>
      <trkpt lat="47.36704" lon="-1.40514">
        <ele>107</ele>
        <time>2021-06-12T09:19:07.000Z</time>
      </trkpt>
      <trkpt lat="47.36715" lon="-1.40514">
        <ele>106</ele>
        <time>2021-06-12T09:19:09.000Z</time>
      </trkpt>
      <trkpt lat="47.36724" lon="-1.40508">
        <ele>106</ele>
        <time>2021-06-12T09:19:11.000Z</time>
      </trkpt>
      <trkpt lat="47.36729" lon="-1.40491">
        <ele>105</ele>
        <time>2021-06-12T09:19:13.000Z</time>
      </trkpt>
      <trkpt lat="47.3673" lon="-1.4047">
        <ele>105</ele>
        <time>2021-06-12T09:19:15.000Z</time>
      </trkpt>
      <trkpt lat="47.36731" lon="-1.4045">
        <ele>105</ele>
        <time>2021-06-12T09:19:17.000Z</time>
      </trkpt>
      <trkpt lat="47.36732" lon="-1.4043">
        <ele>105</ele>
        <time>2021-06-12T09:19:19.000Z</time>
      </trkpt>
      <trkpt lat="47.36735" lon="-1.4041">
        <ele>104</ele>
        <time>2021-06-12T09:19:21.000Z</time>
      </trkpt>
      <trkpt lat="47.36738" lon="-1.40389">
        <ele>104</ele>
        <time>2021-06-12T09:19:23.000Z</time>
      </trkpt>
      <trkpt lat="47.36742" lon="-1.40369">
        <ele>104</ele>
        <time>2021-06-12T09:19:25.000Z</time>
      </trkpt>
      <trkpt lat="47.36745" lon="-1.40348">
        <ele>103</ele>
        <time>2021-06-12T09:19:27.000Z</time>
      </trkpt>
      <trkpt lat="47.36748" lon="-1.40328">
        <ele>103</ele>
        <time>2021-06-12T09:19:29.000Z</time>
      </trkpt>
      <trkpt lat="47.36751" lon="-1.40309">
        <ele>103</ele>
        <time>2021-06-12T09:19:31.000Z</time>
      </trkpt>
      <trkpt lat="47.36755" lon="-1.4029">
        <ele>103</ele>
        <time>2021-06-12T09:19:33.000Z</time>
      </trkpt>
      <trkpt lat="47.36757" lon="-1.40269">
        <ele>103</ele>
        <time>2021-06-12T09:19:35.000Z</time>
      </trkpt>
      <trkpt lat="47.3676" lon="-1.40248">
        <ele>103</ele>
        <time>2021-06-12T09:19:37.000Z</time>
      </trkpt>
      <trkpt lat="47.36762" lon="-1.40227">
        <ele>103</ele>
        <time>2021-06-12T09:19:39.000Z</time>
      </trkpt>
      <trkpt lat="47.36764" lon="-1.40206">
        <ele>103</ele>
        <time>2021-06-12T09:19:41.000Z</time>
      </trkpt>
      <trkpt lat="47.36764" lon="-1.40184">
        <ele>102</ele>
        <time>2021-06-12T09:19:43.000Z</time>
      </trkpt>
      <trkpt lat="47.36765" lon="-1.40162">
        <ele>102</ele>
        <time>2021-06-12T09:19:45.000Z</time>
      </trkpt>
      <trkpt lat="47.36765" lon="-1.40142">
        <ele>102</ele>
        <time>2021-06-12T09:19:47.000Z</time>
      </trkpt>
      <trkpt lat="47.36765" lon="-1.40121">
        <ele>102</ele>
        <time>2021-06-12T09:19:49.000Z</time>
      </trkpt>
      <trkpt lat="47.36765" lon="-1.40102">
        <ele>102</ele>
        <time>2021-06-12T09:19:51.000Z</time>
      </trkpt>
      <trkpt lat="47.36765" lon="-1.40084">
        <ele>103</ele>
        <time>2021-06-12T09:19:53.000Z</time>
      </trkpt>
      <trkpt lat="47.36765" lon="-1.40068">
        <ele>103</ele>
        <time>2021-06-12T09:19:55.000Z</time>
      </trkpt>
      <trkpt lat="47.36766" lon="-1.40052">
        <ele>104</ele>
        <time>2021-06-12T09:19:57.000Z</time>
      </trkpt>
      <trkpt lat="47.36766" lon="-1.40037">
        <ele>104</ele>
        <time>2021-06-12T09:19:59.000Z</time>
      </trkpt>
      <trkpt lat="47.36765" lon="-1.40021">
        <ele>104</ele>
        <time>2021-06-12T09:20:01.000Z</time>
      </trkpt>
      <trkpt lat="47.36765" lon="-1.40005">
        <ele>104</ele>
        <time>2021-06-12T09:20:03.000Z</time>
      </trkpt>
      <trkpt lat="47.36765" lon="-1.39988">
        <ele>104</ele>
        <time>2021-06-12T09:20:05.000Z</time>
      </trkpt>
      <trkpt lat="47.36765" lon="-1.39973">
        <ele>104</ele>
        <time>2021-06-12T09:20:07.000Z</time>
      </trkpt>
      <trkpt lat="47.36766" lon="-1.39958">
        <ele>105</ele>
        <time>2021-06-12T09:20:09.000Z</time>
      </trkpt>
      <trkpt lat="47.36766" lon="-1.39943">
        <ele>106</ele>
        <time>2021-06-12T09:20:11.000Z</time>
      </trkpt>
      <trkpt lat="47.36766" lon="-1.39928">
        <ele>106</ele>
        <time>2021-06-12T09:20:13.000Z</time>
      </trkpt>
      <trkpt lat="47.36766" lon="-1.39913">
        <ele>107</ele>
        <time>2021-06-12T09:20:15.000Z</time>
      </trkpt>
      <trkpt lat="47.36766" lon="-1.39897">
        <ele>107</ele>
        <time>2021-06-12T09:20:17.000Z</time>
      </trkpt>
      <trkpt lat="47.36765" lon="-1.39881">
        <ele>108</ele>
        <time>2021-06-12T09:20:19.000Z</time>
      </trkpt>
      <trkpt lat="47.36765" lon="-1.39866">
        <ele>108</ele>
        <time>2021-06-12T09:20:21.000Z</time>
      </trkpt>
      <trkpt lat="47.36766" lon="-1.39851">
        <ele>109</ele>
        <time>2021-06-12T09:20:23.000Z</time>
      </trkpt>
      <trkpt lat="47.36766" lon="-1.39834">
        <ele>109</ele>
        <time>2021-06-12T09:20:25.000Z</time>
      </trkpt>
      <trkpt lat="47.36766" lon="-1.39818">
        <ele>109</ele>
        <time>2021-06-12T09:20:27.000Z</time>
      </trkpt>
      <trkpt lat="47.36766" lon="-1.39802">
        <ele>109</ele>
        <time>2021-06-12T09:20:29.000Z</time>
      </trkpt>
      <trkpt lat="47.36766" lon="-1.39786">
        <ele>110</ele>
        <time>2021-06-12T09:20:31.000Z</time>
      </trkpt>
      <trkpt lat="47.36766" lon="-1.39771">
        <ele>110</ele>
        <time>2021-06-12T09:20:33.000Z</time>
      </trkpt>
      <trkpt lat="47.36766" lon="-1.39756">
        <ele>111</ele>
        <time>2021-06-12T09:20:35.000Z</time>
      </trkpt>
      <trkpt lat="47.36766" lon="-1.39741">
        <ele>112</ele>
        <time>2021-06-12T09:20:37.000Z</time>
      </trkpt>
      <trkpt lat="47.36766" lon="-1.39725">
        <ele>112</ele>
        <time>2021-06-12T09:20:39.000Z</time>
      </trkpt>
      <trkpt lat="47.36766" lon="-1.39709">
        <ele>112</ele>
        <time>2021-06-12T09:20:41.000Z</time>
      </trkpt>
      <trkpt lat="47.36766" lon="-1.39694">
        <ele>111</ele>
        <time>2021-06-12T09:20:43.000Z</time>
      </trkpt>
      <trkpt lat="47.36766" lon="-1.39678">
        <ele>112</ele>
        <time>2021-06-12T09:20:45.000Z</time>
      </trkpt>
      <trkpt lat="47.36767" lon="-1.39663">
        <ele>112</ele>
        <time>2021-06-12T09:20:47.000Z</time>
      </trkpt>
      <trkpt lat="47.36767" lon="-1.39648">
        <ele>112</ele>
        <time>2021-06-12T09:20:49.000Z</time>
      </trkpt>
      <trkpt lat="47.36767" lon="-1.39632">
        <ele>112</ele>
        <time>2021-06-12T09:20:51.000Z</time>
      </trkpt>
      <trkpt lat="47.36767" lon="-1.39616">
        <ele>112</ele>
        <time>2021-06-12T09:20:53.000Z</time>
      </trkpt>
      <trkpt lat="47.36767" lon="-1.396">
        <ele>113</ele>
        <time>2021-06-12T09:20:55.000Z</time>
      </trkpt>
      <trkpt lat="47.36767" lon="-1.39585">
        <ele>113</ele>
        <time>2021-06-12T09:20:57.000Z</time>
      </trkpt>
      <trkpt lat="47.36767" lon="-1.39569">
        <ele>112</ele>
        <time>2021-06-12T09:20:59.000Z</time>
      </trkpt>
      <trkpt lat="47.36767" lon="-1.39554">
        <ele>113</ele>
        <time>2021-06-12T09:21:01.000Z</time>
      </trkpt>
      <trkpt lat="47.36768" lon="-1.39537">
        <ele>113</ele>
        <time>2021-06-12T09:21:03.000Z</time>
      </trkpt>
      <trkpt lat="47.36767" lon="-1.3952">
        <ele>113</ele>
        <time>2021-06-12T09:21:05.000Z</time>
      </trkpt>
      <trkpt lat="47.36768" lon="-1.39503">
        <ele>114</ele>
        <time>2021-06-12T09:21:07.000Z</time>
      </trkpt>
      <trkpt lat="47.36768" lon="-1.39487">
        <ele>114</ele>
        <time>2021-06-12T09:21:09.000Z</time>
      </trkpt>
      <trkpt lat="47.36767" lon="-1.3947">
        <ele>114</ele>
        <time>2021-06-12T09:21:11.000Z</time>
      </trkpt>
      <trkpt lat="47.36767" lon="-1.39453">
        <ele>113</ele>
        <time>2021-06-12T09:21:13.000Z</time>
      </trkpt>
      <trkpt lat="47.36767" lon="-1.39435">
        <ele>114</ele>
        <time>2021-06-12T09:21:15.000Z</time>
      </trkpt>
      <trkpt lat="47.36767" lon="-1.39418">
        <ele>113</ele>
        <time>2021-06-12T09:21:17.000Z</time>
      </trkpt>
      <trkpt lat="47.36767" lon="-1.39401">
        <ele>113</ele>
        <time>2021-06-12T09:21:19.000Z</time>
      </trkpt>
      <trkpt lat="47.36767" lon="-1.39385">
        <ele>114</ele>
        <time>2021-06-12T09:21:21.000Z</time>
      </trkpt>
      <trkpt lat="47.36767" lon="-1.39368">
        <ele>114</ele>
        <time>2021-06-12T09:21:23.000Z</time>
      </trkpt>
      <trkpt lat="47.36766" lon="-1.39351">
        <ele>114</ele>
        <time>2021-06-12T09:21:25.000Z</time>
      </trkpt>
      <trkpt lat="47.36765" lon="-1.39335">
        <ele>114</ele>
        <time>2021-06-12T09:21:27.000Z</time>
      </trkpt>
      <trkpt lat="47.36762" lon="-1.39318">
        <ele>114</ele>
        <time>2021-06-12T09:21:29.000Z</time>
      </trkpt>
      <trkpt lat="47.36759" lon="-1.39301">
        <ele>114</ele>
        <time>2021-06-12T09:21:31.000Z</time>
      </trkpt>
      <trkpt lat="47.36756" lon="-1.39285">
        <ele>114</ele>
        <time>2021-06-12T09:21:33.000Z</time>
      </trkpt>
      <trkpt lat="47.36751" lon="-1.39269">
        <ele>115</ele>
        <time>2021-06-12T09:21:35.000Z</time>
      </trkpt>
      <trkpt lat="47.36745" lon="-1.39255">
        <ele>115</ele>
        <time>2021-06-12T09:21:37.000Z</time>
      </trkpt>
      <trkpt lat="47.36739" lon="-1.3924">
        <ele>115</ele>
        <time>2021-06-12T09:21:39.000Z</time>
      </trkpt>
      <trkpt lat="47.36733" lon="-1.39226">
        <ele>115</ele>
        <time>2021-06-12T09:21:41.000Z</time>
      </trkpt>
      <trkpt lat="47.36726" lon="-1.39213">
        <ele>115</ele>
        <time>2021-06-12T09:21:43.000Z</time>
      </trkpt>
      <trkpt lat="47.36719" lon="-1.39199">
        <ele>115</ele>
        <time>2021-06-12T09:21:45.000Z</time>
      </trkpt>
      <trkpt lat="47.36712" lon="-1.39185">
        <ele>115</ele>
        <time>2021-06-12T09:21:47.000Z</time>
      </trkpt>
      <trkpt lat="47.36705" lon="-1.39171">
        <ele>115</ele>
        <time>2021-06-12T09:21:49.000Z</time>
      </trkpt>
      <trkpt lat="47.36699" lon="-1.39157">
        <ele>115</ele>
        <time>2021-06-12T09:21:51.000Z</time>
      </trkpt>
      <trkpt lat="47.36692" lon="-1.39143">
        <ele>115</ele>
        <time>2021-06-12T09:21:53.000Z</time>
      </trkpt>
      <trkpt lat="47.36685" lon="-1.39129">
        <ele>115</ele>
        <time>2021-06-12T09:21:55.000Z</time>
      </trkpt>
      <trkpt lat="47.36678" lon="-1.39114">
        <ele>115</ele>
        <time>2021-06-12T09:21:57.000Z</time>
      </trkpt>
      <trkpt lat="47.36671" lon="-1.391">
        <ele>115</ele>
        <time>2021-06-12T09:21:59.000Z</time>
      </trkpt>
      <trkpt lat="47.36665" lon="-1.39086">
        <ele>115</ele>
        <time>2021-06-12T09:22:01.000Z</time>
      </trkpt>
      <trkpt lat="47.36658" lon="-1.39072">
        <ele>116</ele>
        <time>2021-06-12T09:22:03.000Z</time>
      </trkpt>
      <trkpt lat="47.36651" lon="-1.39057">
        <ele>116</ele>
        <time>2021-06-12T09:22:05.000Z</time>
      </trkpt>
      <trkpt lat="47.36644" lon="-1.39042">
        <ele>116</ele>
        <time>2021-06-12T09:22:07.000Z</time>
      </trkpt>
      <trkpt lat="47.36637" lon="-1.39028">
        <ele>116</ele>
        <time>2021-06-12T09:22:09.000Z</time>
      </trkpt>
      <trkpt lat="47.3663" lon="-1.39013">
        <ele>116</ele>
        <time>2021-06-12T09:22:11.000Z</time>
      </trkpt>
      <trkpt lat="47.36623" lon="-1.38998">
        <ele>116</ele>
        <time>2021-06-12T09:22:13.000Z</time>
      </trkpt>
      <trkpt lat="47.36616" lon="-1.38982">
        <ele>116</ele>
        <time>2021-06-12T09:22:15.000Z</time>
      </trkpt>
      <trkpt lat="47.36609" lon="-1.38969">
        <ele>116</ele>
        <time>2021-06-12T09:22:17.000Z</time>
      </trkpt>
      <trkpt lat="47.36603" lon="-1.38954">
        <ele>117</ele>
        <time>2021-06-12T09:22:19.000Z</time>
      </trkpt>
      <trkpt lat="47.36596" lon="-1.3894">
        <ele>117</ele>
        <time>2021-06-12T09:22:21.000Z</time>
      </trkpt>
      <trkpt lat="47.36589" lon="-1.38927">
        <ele>118</ele>
        <time>2021-06-12T09:22:23.000Z</time>
      </trkpt>
      <trkpt lat="47.36582" lon="-1.38913">
        <ele>118</ele>
        <time>2021-06-12T09:22:25.000Z</time>
      </trkpt>
      <trkpt lat="47.36575" lon="-1.38899">
        <ele>119</ele>
        <time>2021-06-12T09:22:27.000Z</time>
      </trkpt>
      <trkpt lat="47.36569" lon="-1.38885">
        <ele>118</ele>
        <time>2021-06-12T09:22:29.000Z</time>
      </trkpt>
      <trkpt lat="47.36563" lon="-1.38872">
        <ele>119</ele>
        <time>2021-06-12T09:22:31.000Z</time>
      </trkpt>
      <trkpt lat="47.36556" lon="-1.38858">
        <ele>119</ele>
        <time>2021-06-12T09:22:33.000Z</time>
      </trkpt>
      <trkpt lat="47.3655" lon="-1.38844">
        <ele>119</ele>
        <time>2021-06-12T09:22:35.000Z</time>
      </trkpt>
      <trkpt lat="47.36543" lon="-1.3883">
        <ele>119</ele>
        <time>2021-06-12T09:22:37.000Z</time>
      </trkpt>
      <trkpt lat="47.36536" lon="-1.38817">
        <ele>119</ele>
        <time>2021-06-12T09:22:39.000Z</time>
      </trkpt>
      <trkpt lat="47.36529" lon="-1.38802">
        <ele>119</ele>
        <time>2021-06-12T09:22:41.000Z</time>
      </trkpt>
      <trkpt lat="47.36522" lon="-1.38789">
        <ele>119</ele>
        <time>2021-06-12T09:22:43.000Z</time>
      </trkpt>
      <trkpt lat="47.36516" lon="-1.38775">
        <ele>119</ele>
        <time>2021-06-12T09:22:45.000Z</time>
      </trkpt>
      <trkpt lat="47.3651" lon="-1.3876">
        <ele>119</ele>
        <time>2021-06-12T09:22:47.000Z</time>
      </trkpt>
      <trkpt lat="47.36503" lon="-1.38745">
        <ele>119</ele>
        <time>2021-06-12T09:22:49.000Z</time>
      </trkpt>
      <trkpt lat="47.36496" lon="-1.38731">
        <ele>120</ele>
        <time>2021-06-12T09:22:51.000Z</time>
      </trkpt>
      <trkpt lat="47.36489" lon="-1.38717">
        <ele>120</ele>
        <time>2021-06-12T09:22:53.000Z</time>
      </trkpt>
      <trkpt lat="47.36482" lon="-1.38702">
        <ele>120</ele>
        <time>2021-06-12T09:22:55.000Z</time>
      </trkpt>
      <trkpt lat="47.36476" lon="-1.38687">
        <ele>120</ele>
        <time>2021-06-12T09:22:57.000Z</time>
      </trkpt>
      <trkpt lat="47.36468" lon="-1.38672">
        <ele>120</ele>
        <time>2021-06-12T09:22:59.000Z</time>
      </trkpt>
      <trkpt lat="47.36461" lon="-1.38657">
        <ele>120</ele>
        <time>2021-06-12T09:23:01.000Z</time>
      </trkpt>
      <trkpt lat="47.36454" lon="-1.38642">
        <ele>120</ele>
        <time>2021-06-12T09:23:03.000Z</time>
      </trkpt>
      <trkpt lat="47.36446" lon="-1.38626">
        <ele>120</ele>
        <time>2021-06-12T09:23:05.000Z</time>
      </trkpt>
      <trkpt lat="47.36439" lon="-1.3861">
        <ele>120</ele>
        <time>2021-06-12T09:23:07.000Z</time>
      </trkpt>
      <trkpt lat="47.36431" lon="-1.38594">
        <ele>119</ele>
        <time>2021-06-12T09:23:09.000Z</time>
      </trkpt>
      <trkpt lat="47.36423" lon="-1.38579">
        <ele>119</ele>
        <time>2021-06-12T09:23:11.000Z</time>
      </trkpt>
      <trkpt lat="47.36415" lon="-1.38564">
        <ele>119</ele>
        <time>2021-06-12T09:23:13.000Z</time>
      </trkpt>
      <trkpt lat="47.36406" lon="-1.3855">
        <ele>118</ele>
        <time>2021-06-12T09:23:15.000Z</time>
      </trkpt>
      <trkpt lat="47.36397" lon="-1.38536">
        <ele>119</ele>
        <time>2021-06-12T09:23:17.000Z</time>
      </trkpt>
      <trkpt lat="47.36388" lon="-1.38523">
        <ele>119</ele>
        <time>2021-06-12T09:23:19.000Z</time>
      </trkpt>
      <trkpt lat="47.3638" lon="-1.38509">
        <ele>119</ele>
        <time>2021-06-12T09:23:21.000Z</time>
      </trkpt>
      <trkpt lat="47.36371" lon="-1.38496">
        <ele>119</ele>
        <time>2021-06-12T09:23:23.000Z</time>
      </trkpt>
      <trkpt lat="47.36362" lon="-1.38483">
        <ele>119</ele>
        <time>2021-06-12T09:23:25.000Z</time>
      </trkpt>
      <trkpt lat="47.36352" lon="-1.38469">
        <ele>119</ele>
        <time>2021-06-12T09:23:27.000Z</time>
      </trkpt>
      <trkpt lat="47.36343" lon="-1.38455">
        <ele>119</ele>
        <time>2021-06-12T09:23:29.000Z</time>
      </trkpt>
      <trkpt lat="47.36334" lon="-1.38441">
        <ele>118</ele>
        <time>2021-06-12T09:23:31.000Z</time>
      </trkpt>
      <trkpt lat="47.36325" lon="-1.38426">
        <ele>118</ele>
        <time>2021-06-12T09:23:33.000Z</time>
      </trkpt>
      <trkpt lat="47.36315" lon="-1.38412">
        <ele>118</ele>
        <time>2021-06-12T09:23:35.000Z</time>
      </trkpt>
      <trkpt lat="47.36306" lon="-1.38397">
        <ele>118</ele>
        <time>2021-06-12T09:23:37.000Z</time>
      </trkpt>
      <trkpt lat="47.36296" lon="-1.38383">
        <ele>118</ele>
        <time>2021-06-12T09:23:39.000Z</time>
      </trkpt>
      <trkpt lat="47.36286" lon="-1.38368">
        <ele>118</ele>
        <time>2021-06-12T09:23:41.000Z</time>
      </trkpt>
      <trkpt lat="47.36277" lon="-1.38354">
        <ele>118</ele>
        <time>2021-06-12T09:23:43.000Z</time>
      </trkpt>
      <trkpt lat="47.36268" lon="-1.3834">
        <ele>118</ele>
        <time>2021-06-12T09:23:45.000Z</time>
      </trkpt>
      <trkpt lat="47.36258" lon="-1.38327">
        <ele>118</ele>
        <time>2021-06-12T09:23:47.000Z</time>
      </trkpt>
      <trkpt lat="47.36249" lon="-1.38313">
        <ele>118</ele>
        <time>2021-06-12T09:23:49.000Z</time>
      </trkpt>
      <trkpt lat="47.3624" lon="-1.38299">
        <ele>118</ele>
        <time>2021-06-12T09:23:51.000Z</time>
      </trkpt>
      <trkpt lat="47.3623" lon="-1.38285">
        <ele>118</ele>
        <time>2021-06-12T09:23:53.000Z</time>
      </trkpt>
      <trkpt lat="47.36221" lon="-1.38271">
        <ele>118</ele>
        <time>2021-06-12T09:23:55.000Z</time>
      </trkpt>
      <trkpt lat="47.36212" lon="-1.38257">
        <ele>118</ele>
        <time>2021-06-12T09:23:57.000Z</time>
      </trkpt>
      <trkpt lat="47.36203" lon="-1.38243">
        <ele>119</ele>
        <time>2021-06-12T09:23:59.000Z</time>
      </trkpt>
      <trkpt lat="47.36194" lon="-1.3823">
        <ele>119</ele>
        <time>2021-06-12T09:24:01.000Z</time>
      </trkpt>
      <trkpt lat="47.36185" lon="-1.38216">
        <ele>119</ele>
        <time>2021-06-12T09:24:03.000Z</time>
      </trkpt>
      <trkpt lat="47.36175" lon="-1.38202">
        <ele>119</ele>
        <time>2021-06-12T09:24:05.000Z</time>
      </trkpt>
      <trkpt lat="47.36166" lon="-1.38188">
        <ele>119</ele>
        <time>2021-06-12T09:24:07.000Z</time>
      </trkpt>
      <trkpt lat="47.36157" lon="-1.38175">
        <ele>119</ele>
        <time>2021-06-12T09:24:09.000Z</time>
      </trkpt>
      <trkpt lat="47.36148" lon="-1.38162">
        <ele>119</ele>
        <time>2021-06-12T09:24:11.000Z</time>
      </trkpt>
      <trkpt lat="47.36139" lon="-1.38148">
        <ele>120</ele>
        <time>2021-06-12T09:24:13.000Z</time>
      </trkpt>
      <trkpt lat="47.3613" lon="-1.38134">
        <ele>120</ele>
        <time>2021-06-12T09:24:15.000Z</time>
      </trkpt>
      <trkpt lat="47.36121" lon="-1.38121">
        <ele>120</ele>
        <time>2021-06-12T09:24:17.000Z</time>
      </trkpt>
      <trkpt lat="47.36112" lon="-1.38108">
        <ele>120</ele>
        <time>2021-06-12T09:24:19.000Z</time>
      </trkpt>
      <trkpt lat="47.36104" lon="-1.38095">
        <ele>120</ele>
        <time>2021-06-12T09:24:21.000Z</time>
      </trkpt>
      <trkpt lat="47.36095" lon="-1.38082">
        <ele>120</ele>
        <time>2021-06-12T09:24:23.000Z</time>
      </trkpt>
      <trkpt lat="47.36087" lon="-1.38069">
        <ele>121</ele>
        <time>2021-06-12T09:24:25.000Z</time>
      </trkpt>
      <trkpt lat="47.36078" lon="-1.38056">
        <ele>121</ele>
        <time>2021-06-12T09:24:27.000Z</time>
      </trkpt>
      <trkpt lat="47.36069" lon="-1.38043">
        <ele>121</ele>
        <time>2021-06-12T09:24:29.000Z</time>
      </trkpt>
      <trkpt lat="47.36061" lon="-1.3803">
        <ele>121</ele>
        <time>2021-06-12T09:24:31.000Z</time>
      </trkpt>
      <trkpt lat="47.36052" lon="-1.38018">
        <ele>121</ele>
        <time>2021-06-12T09:24:33.000Z</time>
      </trkpt>
      <trkpt lat="47.36044" lon="-1.38005">
        <ele>121</ele>
        <time>2021-06-12T09:24:35.000Z</time>
      </trkpt>
      <trkpt lat="47.36036" lon="-1.37993">
        <ele>122</ele>
        <time>2021-06-12T09:24:37.000Z</time>
      </trkpt>
      <trkpt lat="47.36027" lon="-1.3798">
        <ele>122</ele>
        <time>2021-06-12T09:24:39.000Z</time>
      </trkpt>
      <trkpt lat="47.36019" lon="-1.37967">
        <ele>123</ele>
        <time>2021-06-12T09:24:41.000Z</time>
      </trkpt>
      <trkpt lat="47.36011" lon="-1.37955">
        <ele>123</ele>
        <time>2021-06-12T09:24:43.000Z</time>
      </trkpt>
      <trkpt lat="47.36002" lon="-1.37943">
        <ele>123</ele>
        <time>2021-06-12T09:24:45.000Z</time>
      </trkpt>
      <trkpt lat="47.35993" lon="-1.3793">
        <ele>123</ele>
        <time>2021-06-12T09:24:47.000Z</time>
      </trkpt>
      <trkpt lat="47.35985" lon="-1.37917">
        <ele>123</ele>
        <time>2021-06-12T09:24:49.000Z</time>
      </trkpt>
      <trkpt lat="47.35977" lon="-1.37904">
        <ele>123</ele>
        <time>2021-06-12T09:24:51.000Z</time>
      </trkpt>
      <trkpt lat="47.35968" lon="-1.37891">
        <ele>123</ele>
        <time>2021-06-12T09:24:53.000Z</time>
      </trkpt>
      <trkpt lat="47.3596" lon="-1.37878">
        <ele>124</ele>
        <time>2021-06-12T09:24:55.000Z</time>
      </trkpt>
      <trkpt lat="47.35952" lon="-1.37866">
        <ele>124</ele>
        <time>2021-06-12T09:24:57.000Z</time>
      </trkpt>
      <trkpt lat="47.35944" lon="-1.37854">
        <ele>124</ele>
        <time>2021-06-12T09:24:59.000Z</time>
      </trkpt>
      <trkpt lat="47.35936" lon="-1.37842">
        <ele>125</ele>
        <time>2021-06-12T09:25:01.000Z</time>
      </trkpt>
      <trkpt lat="47.35928" lon="-1.37829">
        <ele>125</ele>
        <time>2021-06-12T09:25:03.000Z</time>
      </trkpt>
      <trkpt lat="47.35919" lon="-1.37817">
        <ele>125</ele>
        <time>2021-06-12T09:25:05.000Z</time>
      </trkpt>
      <trkpt lat="47.3591" lon="-1.37804">
        <ele>125</ele>
        <time>2021-06-12T09:25:07.000Z</time>
      </trkpt>
      <trkpt lat="47.35902" lon="-1.37791">
        <ele>126</ele>
        <time>2021-06-12T09:25:09.000Z</time>
      </trkpt>
      <trkpt lat="47.35894" lon="-1.37779">
        <ele>126</ele>
        <time>2021-06-12T09:25:11.000Z</time>
      </trkpt>
      <trkpt lat="47.35886" lon="-1.37766">
        <ele>126</ele>
        <time>2021-06-12T09:25:13.000Z</time>
      </trkpt>
      <trkpt lat="47.35877" lon="-1.37754">
        <ele>126</ele>
        <time>2021-06-12T09:25:15.000Z</time>
      </trkpt>
      <trkpt lat="47.35868" lon="-1.37741">
        <ele>126</ele>
        <time>2021-06-12T09:25:17.000Z</time>
      </trkpt>
      <trkpt lat="47.3586" lon="-1.37728">
        <ele>126</ele>
        <time>2021-06-12T09:25:19.000Z</time>
      </trkpt>
      <trkpt lat="47.35852" lon="-1.37716">
        <ele>127</ele>
        <time>2021-06-12T09:25:21.000Z</time>
      </trkpt>
      <trkpt lat="47.35843" lon="-1.37703">
        <ele>127</ele>
        <time>2021-06-12T09:25:23.000Z</time>
      </trkpt>
      <trkpt lat="47.35835" lon="-1.37691">
        <ele>127</ele>
        <time>2021-06-12T09:25:25.000Z</time>
      </trkpt>
      <trkpt lat="47.35827" lon="-1.37679">
        <ele>128</ele>
        <time>2021-06-12T09:25:27.000Z</time>
      </trkpt>
      <trkpt lat="47.35819" lon="-1.37667">
        <ele>128</ele>
        <time>2021-06-12T09:25:29.000Z</time>
      </trkpt>
      <trkpt lat="47.3581" lon="-1.37655">
        <ele>128</ele>
        <time>2021-06-12T09:25:31.000Z</time>
      </trkpt>
      <trkpt lat="47.35802" lon="-1.37642">
        <ele>128</ele>
        <time>2021-06-12T09:25:33.000Z</time>
      </trkpt>
      <trkpt lat="47.35794" lon="-1.3763">
        <ele>128</ele>
        <time>2021-06-12T09:25:35.000Z</time>
      </trkpt>
      <trkpt lat="47.35786" lon="-1.37619">
        <ele>128</ele>
        <time>2021-06-12T09:25:37.000Z</time>
      </trkpt>
      <trkpt lat="47.35777" lon="-1.37605">
        <ele>129</ele>
        <time>2021-06-12T09:25:39.000Z</time>
      </trkpt>
      <trkpt lat="47.35768" lon="-1.37592">
        <ele>129</ele>
        <time>2021-06-12T09:25:41.000Z</time>
      </trkpt>
      <trkpt lat="47.3576" lon="-1.37579">
        <ele>129</ele>
        <time>2021-06-12T09:25:43.000Z</time>
      </trkpt>
      <trkpt lat="47.35751" lon="-1.37566">
        <ele>129</ele>
        <time>2021-06-12T09:25:45.000Z</time>
      </trkpt>
      <trkpt lat="47.35743" lon="-1.37554">
        <ele>129</ele>
        <time>2021-06-12T09:25:47.000Z</time>
      </trkpt>
      <trkpt lat="47.35735" lon="-1.37542">
        <ele>130</ele>
        <time>2021-06-12T09:25:49.000Z</time>
      </trkpt>
      <trkpt lat="47.35727" lon="-1.37529">
        <ele>130</ele>
        <time>2021-06-12T09:25:51.000Z</time>
      </trkpt>
      <trkpt lat="47.35719" lon="-1.37516">
        <ele>130</ele>
        <time>2021-06-12T09:25:53.000Z</time>
      </trkpt>
      <trkpt lat="47.3571" lon="-1.37503">
        <ele>130</ele>
        <time>2021-06-12T09:25:55.000Z</time>
      </trkpt>
      <trkpt lat="47.35702" lon="-1.37491">
        <ele>130</ele>
        <time>2021-06-12T09:25:57.000Z</time>
      </trkpt>
      <trkpt lat="47.35694" lon="-1.37478">
        <ele>130</ele>
        <time>2021-06-12T09:25:59.000Z</time>
      </trkpt>
      <trkpt lat="47.35685" lon="-1.37465">
        <ele>130</ele>
        <time>2021-06-12T09:26:01.000Z</time>
      </trkpt>
      <trkpt lat="47.35677" lon="-1.37453">
        <ele>130</ele>
        <time>2021-06-12T09:26:03.000Z</time>
      </trkpt>
      <trkpt lat="47.35669" lon="-1.37441">
        <ele>130</ele>
        <time>2021-06-12T09:26:05.000Z</time>
      </trkpt>
      <trkpt lat="47.3566" lon="-1.37428">
        <ele>131</ele>
        <time>2021-06-12T09:26:07.000Z</time>
      </trkpt>
      <trkpt lat="47.35652" lon="-1.37416">
        <ele>131</ele>
        <time>2021-06-12T09:26:09.000Z</time>
      </trkpt>
      <trkpt lat="47.35643" lon="-1.37403">
        <ele>131</ele>
        <time>2021-06-12T09:26:11.000Z</time>
      </trkpt>
      <trkpt lat="47.35635" lon="-1.3739">
        <ele>130</ele>
        <time>2021-06-12T09:26:13.000Z</time>
      </trkpt>
      <trkpt lat="47.35626" lon="-1.37377">
        <ele>130</ele>
        <time>2021-06-12T09:26:15.000Z</time>
      </trkpt>
      <trkpt lat="47.35618" lon="-1.37364">
        <ele>129</ele>
        <time>2021-06-12T09:26:17.000Z</time>
      </trkpt>
      <trkpt lat="47.35609" lon="-1.37351">
        <ele>129</ele>
        <time>2021-06-12T09:26:19.000Z</time>
      </trkpt>
      <trkpt lat="47.35601" lon="-1.37337">
        <ele>129</ele>
        <time>2021-06-12T09:26:21.000Z</time>
      </trkpt>
      <trkpt lat="47.35592" lon="-1.37324">
        <ele>129</ele>
        <time>2021-06-12T09:26:23.000Z</time>
      </trkpt>
      <trkpt lat="47.35583" lon="-1.37311">
        <ele>128</ele>
        <time>2021-06-12T09:26:25.000Z</time>
      </trkpt>
      <trkpt lat="47.35574" lon="-1.37297">
        <ele>128</ele>
        <time>2021-06-12T09:26:27.000Z</time>
      </trkpt>
      <trkpt lat="47.35564" lon="-1.37283">
        <ele>128</ele>
        <time>2021-06-12T09:26:29.000Z</time>
      </trkpt>
      <trkpt lat="47.35555" lon="-1.37269">
        <ele>128</ele>
        <time>2021-06-12T09:26:31.000Z</time>
      </trkpt>
      <trkpt lat="47.35546" lon="-1.37255">
        <ele>128</ele>
        <time>2021-06-12T09:26:33.000Z</time>
      </trkpt>
      <trkpt lat="47.35536" lon="-1.37241">
        <ele>129</ele>
        <time>2021-06-12T09:26:35.000Z</time>
      </trkpt>
      <trkpt lat="47.35527" lon="-1.37228">
        <ele>129</ele>
        <time>2021-06-12T09:26:37.000Z</time>
      </trkpt>
      <trkpt lat="47.35517" lon="-1.37214">
        <ele>130</ele>
        <time>2021-06-12T09:26:39.000Z</time>
      </trkpt>
      <trkpt lat="47.35509" lon="-1.372">
        <ele>130</ele>
        <time>2021-06-12T09:26:41.000Z</time>
      </trkpt>
      <trkpt lat="47.355" lon="-1.37187">
        <ele>130</ele>
        <time>2021-06-12T09:26:43.000Z</time>
      </trkpt>
      <trkpt lat="47.35491" lon="-1.37175">
        <ele>130</ele>
        <time>2021-06-12T09:26:45.000Z</time>
      </trkpt>
      <trkpt lat="47.35483" lon="-1.37162">
        <ele>130</ele>
        <time>2021-06-12T09:26:47.000Z</time>
      </trkpt>
      <trkpt lat="47.35474" lon="-1.37149">
        <ele>130</ele>
        <time>2021-06-12T09:26:49.000Z</time>
      </trkpt>
      <trkpt lat="47.35466" lon="-1.37136">
        <ele>130</ele>
        <time>2021-06-12T09:26:51.000Z</time>
      </trkpt>
      <trkpt lat="47.35457" lon="-1.37123">
        <ele>130</ele>
        <time>2021-06-12T09:26:53.000Z</time>
      </trkpt>
      <trkpt lat="47.35448" lon="-1.37109">
        <ele>131</ele>
        <time>2021-06-12T09:26:55.000Z</time>
      </trkpt>
      <trkpt lat="47.3544" lon="-1.37097">
        <ele>131</ele>
        <time>2021-06-12T09:26:57.000Z</time>
      </trkpt>
      <trkpt lat="47.35431" lon="-1.37084">
        <ele>131</ele>
        <time>2021-06-12T09:26:59.000Z</time>
      </trkpt>
      <trkpt lat="47.35422" lon="-1.3707">
        <ele>132</ele>
        <time>2021-06-12T09:27:01.000Z</time>
      </trkpt>
      <trkpt lat="47.35413" lon="-1.37057">
        <ele>132</ele>
        <time>2021-06-12T09:27:03.000Z</time>
      </trkpt>
      <trkpt lat="47.35404" lon="-1.37044">
        <ele>132</ele>
        <time>2021-06-12T09:27:05.000Z</time>
      </trkpt>
      <trkpt lat="47.35395" lon="-1.37031">
        <ele>132</ele>
        <time>2021-06-12T09:27:07.000Z</time>
      </trkpt>
      <trkpt lat="47.35387" lon="-1.37018">
        <ele>132</ele>
        <time>2021-06-12T09:27:09.000Z</time>
      </trkpt>
      <trkpt lat="47.35378" lon="-1.37004">
        <ele>132</ele>
        <time>2021-06-12T09:27:11.000Z</time>
      </trkpt>
      <trkpt lat="47.3537" lon="-1.36991">
        <ele>132</ele>
        <time>2021-06-12T09:27:13.000Z</time>
      </trkpt>
      <trkpt lat="47.35361" lon="-1.36978">
        <ele>132</ele>
        <time>2021-06-12T09:27:15.000Z</time>
      </trkpt>
      <trkpt lat="47.35352" lon="-1.36964">
        <ele>131</ele>
        <time>2021-06-12T09:27:17.000Z</time>
      </trkpt>
      <trkpt lat="47.35344" lon="-1.3695">
        <ele>131</ele>
        <time>2021-06-12T09:27:19.000Z</time>
      </trkpt>
      <trkpt lat="47.35335" lon="-1.36936">
        <ele>131</ele>
        <time>2021-06-12T09:27:21.000Z</time>
      </trkpt>
      <trkpt lat="47.35326" lon="-1.36923">
        <ele>131</ele>
        <time>2021-06-12T09:27:23.000Z</time>
      </trkpt>
      <trkpt lat="47.35317" lon="-1.3691">
        <ele>132</ele>
        <time>2021-06-12T09:27:25.000Z</time>
      </trkpt>
      <trkpt lat="47.35308" lon="-1.36896">
        <ele>132</ele>
        <time>2021-06-12T09:27:27.000Z</time>
      </trkpt>
      <trkpt lat="47.35299" lon="-1.36883">
        <ele>132</ele>
        <time>2021-06-12T09:27:29.000Z</time>
      </trkpt>
      <trkpt lat="47.3529" lon="-1.36869">
        <ele>132</ele>
        <time>2021-06-12T09:27:31.000Z</time>
      </trkpt>
      <trkpt lat="47.35282" lon="-1.36856">
        <ele>132</ele>
        <time>2021-06-12T09:27:33.000Z</time>
      </trkpt>
      <trkpt lat="47.35273" lon="-1.36843">
        <ele>132</ele>
        <time>2021-06-12T09:27:35.000Z</time>
      </trkpt>
      <trkpt lat="47.35264" lon="-1.3683">
        <ele>132</ele>
        <time>2021-06-12T09:27:37.000Z</time>
      </trkpt>
      <trkpt lat="47.35255" lon="-1.36817">
        <ele>132</ele>
        <time>2021-06-12T09:27:39.000Z</time>
      </trkpt>
      <trkpt lat="47.35246" lon="-1.36803">
        <ele>132</ele>
        <time>2021-06-12T09:27:41.000Z</time>
      </trkpt>
      <trkpt lat="47.35237" lon="-1.36789">
        <ele>132</ele>
        <time>2021-06-12T09:27:43.000Z</time>
      </trkpt>
      <trkpt lat="47.35228" lon="-1.36775">
        <ele>132</ele>
        <time>2021-06-12T09:27:45.000Z</time>
      </trkpt>
      <trkpt lat="47.35219" lon="-1.36762">
        <ele>132</ele>
        <time>2021-06-12T09:27:47.000Z</time>
      </trkpt>
      <trkpt lat="47.3521" lon="-1.36749">
        <ele>132</ele>
        <time>2021-06-12T09:27:49.000Z</time>
      </trkpt>
      <trkpt lat="47.35201" lon="-1.36735">
        <ele>132</ele>
        <time>2021-06-12T09:27:51.000Z</time>
      </trkpt>
      <trkpt lat="47.35192" lon="-1.36722">
        <ele>132</ele>
        <time>2021-06-12T09:27:53.000Z</time>
      </trkpt>
      <trkpt lat="47.35184" lon="-1.36709">
        <ele>133</ele>
        <time>2021-06-12T09:27:55.000Z</time>
      </trkpt>
      <trkpt lat="47.35175" lon="-1.36696">
        <ele>133</ele>
        <time>2021-06-12T09:27:57.000Z</time>
      </trkpt>
      <trkpt lat="47.35166" lon="-1.36683">
        <ele>133</ele>
        <time>2021-06-12T09:27:59.000Z</time>
      </trkpt>
      <trkpt lat="47.35157" lon="-1.3667">
        <ele>134</ele>
        <time>2021-06-12T09:28:01.000Z</time>
      </trkpt>
      <trkpt lat="47.35148" lon="-1.36656">
        <ele>134</ele>
        <time>2021-06-12T09:28:03.000Z</time>
      </trkpt>
      <trkpt lat="47.35139" lon="-1.36643">
        <ele>134</ele>
        <time>2021-06-12T09:28:05.000Z</time>
      </trkpt>
      <trkpt lat="47.35131" lon="-1.3663">
        <ele>134</ele>
        <time>2021-06-12T09:28:07.000Z</time>
      </trkpt>
      <trkpt lat="47.35122" lon="-1.36617">
        <ele>135</ele>
        <time>2021-06-12T09:28:09.000Z</time>
      </trkpt>
      <trkpt lat="47.35113" lon="-1.36603">
        <ele>135</ele>
        <time>2021-06-12T09:28:11.000Z</time>
      </trkpt>
      <trkpt lat="47.35104" lon="-1.36589">
        <ele>135</ele>
        <time>2021-06-12T09:28:13.000Z</time>
      </trkpt>
      <trkpt lat="47.35096" lon="-1.36576">
        <ele>135</ele>
        <time>2021-06-12T09:28:15.000Z</time>
      </trkpt>
      <trkpt lat="47.35086" lon="-1.36563">
        <ele>135</ele>
        <time>2021-06-12T09:28:17.000Z</time>
      </trkpt>
      <trkpt lat="47.35078" lon="-1.36549">
        <ele>135</ele>
        <time>2021-06-12T09:28:19.000Z</time>
      </trkpt>
      <trkpt lat="47.35069" lon="-1.36534">
        <ele>135</ele>
        <time>2021-06-12T09:28:21.000Z</time>
      </trkpt>
      <trkpt lat="47.3506" lon="-1.3652">
        <ele>135</ele>
        <time>2021-06-12T09:28:23.000Z</time>
      </trkpt>
      <trkpt lat="47.35051" lon="-1.36507">
        <ele>135</ele>
        <time>2021-06-12T09:28:25.000Z</time>
      </trkpt>
      <trkpt lat="47.35042" lon="-1.36493">
        <ele>135</ele>
        <time>2021-06-12T09:28:27.000Z</time>
      </trkpt>
      <trkpt lat="47.35034" lon="-1.3648">
        <ele>135</ele>
        <time>2021-06-12T09:28:29.000Z</time>
      </trkpt>
      <trkpt lat="47.35025" lon="-1.36467">
        <ele>134</ele>
        <time>2021-06-12T09:28:31.000Z</time>
      </trkpt>
      <trkpt lat="47.35015" lon="-1.36454">
        <ele>134</ele>
        <time>2021-06-12T09:28:33.000Z</time>
      </trkpt>
      <trkpt lat="47.35006" lon="-1.36442">
        <ele>134</ele>
        <time>2021-06-12T09:28:35.000Z</time>
      </trkpt>
      <trkpt lat="47.34996" lon="-1.3643">
        <ele>134</ele>
        <time>2021-06-12T09:28:37.000Z</time>
      </trkpt>
      <trkpt lat="47.34987" lon="-1.36418">
        <ele>134</ele>
        <time>2021-06-12T09:28:39.000Z</time>
      </trkpt>
      <trkpt lat="47.34977" lon="-1.36406">
        <ele>134</ele>
        <time>2021-06-12T09:28:41.000Z</time>
      </trkpt>
      <trkpt lat="47.34967" lon="-1.36394">
        <ele>134</ele>
        <time>2021-06-12T09:28:43.000Z</time>
      </trkpt>
      <trkpt lat="47.34957" lon="-1.36382">
        <ele>134</ele>
        <time>2021-06-12T09:28:45.000Z</time>
      </trkpt>
      <trkpt lat="47.34948" lon="-1.3637">
        <ele>134</ele>
        <time>2021-06-12T09:28:47.000Z</time>
      </trkpt>
      <trkpt lat="47.34938" lon="-1.36358">
        <ele>134</ele>
        <time>2021-06-12T09:28:49.000Z</time>
      </trkpt>
      <trkpt lat="47.34928" lon="-1.36346">
        <ele>134</ele>
        <time>2021-06-12T09:28:51.000Z</time>
      </trkpt>
      <trkpt lat="47.34919" lon="-1.36333">
        <ele>134</ele>
        <time>2021-06-12T09:28:53.000Z</time>
      </trkpt>
      <trkpt lat="47.34909" lon="-1.3632">
        <ele>134</ele>
        <time>2021-06-12T09:28:55.000Z</time>
      </trkpt>
      <trkpt lat="47.34901" lon="-1.36307">
        <ele>134</ele>
        <time>2021-06-12T09:28:57.000Z</time>
      </trkpt>
      <trkpt lat="47.34892" lon="-1.36292">
        <ele>133</ele>
        <time>2021-06-12T09:28:59.000Z</time>
      </trkpt>
      <trkpt lat="47.34883" lon="-1.36279">
        <ele>134</ele>
        <time>2021-06-12T09:29:01.000Z</time>
      </trkpt>
      <trkpt lat="47.34875" lon="-1.36265">
        <ele>134</ele>
        <time>2021-06-12T09:29:03.000Z</time>
      </trkpt>
      <trkpt lat="47.34866" lon="-1.3625">
        <ele>134</ele>
        <time>2021-06-12T09:29:05.000Z</time>
      </trkpt>
      <trkpt lat="47.34857" lon="-1.36237">
        <ele>134</ele>
        <time>2021-06-12T09:29:07.000Z</time>
      </trkpt>
      <trkpt lat="47.34849" lon="-1.36223">
        <ele>134</ele>
        <time>2021-06-12T09:29:09.000Z</time>
      </trkpt>
      <trkpt lat="47.34841" lon="-1.3621">
        <ele>134</ele>
        <time>2021-06-12T09:29:11.000Z</time>
      </trkpt>
      <trkpt lat="47.34832" lon="-1.36196">
        <ele>134</ele>
        <time>2021-06-12T09:29:13.000Z</time>
      </trkpt>
      <trkpt lat="47.34824" lon="-1.36182">
        <ele>134</ele>
        <time>2021-06-12T09:29:15.000Z</time>
      </trkpt>
      <trkpt lat="47.34815" lon="-1.36169">
        <ele>134</ele>
        <time>2021-06-12T09:29:17.000Z</time>
      </trkpt>
      <trkpt lat="47.34807" lon="-1.36157">
        <ele>134</ele>
        <time>2021-06-12T09:29:19.000Z</time>
      </trkpt>
      <trkpt lat="47.34797" lon="-1.36145">
        <ele>135</ele>
        <time>2021-06-12T09:29:21.000Z</time>
      </trkpt>
      <trkpt lat="47.34788" lon="-1.36133">
        <ele>134</ele>
        <time>2021-06-12T09:29:23.000Z</time>
      </trkpt>
      <trkpt lat="47.34778" lon="-1.36121">
        <ele>134</ele>
        <time>2021-06-12T09:29:25.000Z</time>
      </trkpt>
      <trkpt lat="47.34768" lon="-1.36109">
        <ele>134</ele>
        <time>2021-06-12T09:29:27.000Z</time>
      </trkpt>
      <trkpt lat="47.34759" lon="-1.36097">
        <ele>134</ele>
        <time>2021-06-12T09:29:29.000Z</time>
      </trkpt>
      <trkpt lat="47.34748" lon="-1.36085">
        <ele>134</ele>
        <time>2021-06-12T09:29:31.000Z</time>
      </trkpt>
      <trkpt lat="47.34737" lon="-1.36072">
        <ele>134</ele>
        <time>2021-06-12T09:29:33.000Z</time>
      </trkpt>
      <trkpt lat="47.34726" lon="-1.36059">
        <ele>134</ele>
        <time>2021-06-12T09:29:35.000Z</time>
      </trkpt>
      <trkpt lat="47.34715" lon="-1.36045">
        <ele>134</ele>
        <time>2021-06-12T09:29:37.000Z</time>
      </trkpt>
      <trkpt lat="47.34703" lon="-1.36031">
        <ele>133</ele>
        <time>2021-06-12T09:29:39.000Z</time>
      </trkpt>
      <trkpt lat="47.34691" lon="-1.36017">
        <ele>133</ele>
        <time>2021-06-12T09:29:41.000Z</time>
      </trkpt>
      <trkpt lat="47.34678" lon="-1.36003">
        <ele>132</ele>
        <time>2021-06-12T09:29:43.000Z</time>
      </trkpt>
      <trkpt lat="47.34665" lon="-1.3599">
        <ele>131</ele>
        <time>2021-06-12T09:29:45.000Z</time>
      </trkpt>
      <trkpt lat="47.34652" lon="-1.35976">
        <ele>131</ele>
        <time>2021-06-12T09:29:47.000Z</time>
      </trkpt>
      <trkpt lat="47.34639" lon="-1.35961">
        <ele>131</ele>
        <time>2021-06-12T09:29:49.000Z</time>
      </trkpt>
      <trkpt lat="47.34626" lon="-1.35948">
        <ele>130</ele>
        <time>2021-06-12T09:29:51.000Z</time>
      </trkpt>
      <trkpt lat="47.34612" lon="-1.35933">
        <ele>130</ele>
        <time>2021-06-12T09:29:53.000Z</time>
      </trkpt>
      <trkpt lat="47.346" lon="-1.3592">
        <ele>130</ele>
        <time>2021-06-12T09:29:55.000Z</time>
      </trkpt>
      <trkpt lat="47.34587" lon="-1.35905">
        <ele>130</ele>
        <time>2021-06-12T09:29:57.000Z</time>
      </trkpt>
      <trkpt lat="47.34576" lon="-1.3589">
        <ele>130</ele>
        <time>2021-06-12T09:29:59.000Z</time>
      </trkpt>
      <trkpt lat="47.34565" lon="-1.35875">
        <ele>131</ele>
        <time>2021-06-12T09:30:01.000Z</time>
      </trkpt>
      <trkpt lat="47.34554" lon="-1.35859">
        <ele>131</ele>
        <time>2021-06-12T09:30:03.000Z</time>
      </trkpt>
      <trkpt lat="47.34544" lon="-1.35844">
        <ele>131</ele>
        <time>2021-06-12T09:30:05.000Z</time>
      </trkpt>
      <trkpt lat="47.34534" lon="-1.35827">
        <ele>131</ele>
        <time>2021-06-12T09:30:07.000Z</time>
      </trkpt>
      <trkpt lat="47.34525" lon="-1.35811">
        <ele>131</ele>
        <time>2021-06-12T09:30:09.000Z</time>
      </trkpt>
      <trkpt lat="47.34516" lon="-1.35794">
        <ele>132</ele>
        <time>2021-06-12T09:30:11.000Z</time>
      </trkpt>
      <trkpt lat="47.34507" lon="-1.35776">
        <ele>132</ele>
        <time>2021-06-12T09:30:13.000Z</time>
      </trkpt>
      <trkpt lat="47.34498" lon="-1.3576">
        <ele>132</ele>
        <time>2021-06-12T09:30:15.000Z</time>
      </trkpt>
      <trkpt lat="47.34488" lon="-1.35743">
        <ele>133</ele>
        <time>2021-06-12T09:30:17.000Z</time>
      </trkpt>
      <trkpt lat="47.34479" lon="-1.35728">
        <ele>133</ele>
        <time>2021-06-12T09:30:19.000Z</time>
      </trkpt>
      <trkpt lat="47.34471" lon="-1.35711">
        <ele>134</ele>
        <time>2021-06-12T09:30:21.000Z</time>
      </trkpt>
      <trkpt lat="47.34463" lon="-1.35695">
        <ele>134</ele>
        <time>2021-06-12T09:30:23.000Z</time>
      </trkpt>
      <trkpt lat="47.34454" lon="-1.3568">
        <ele>135</ele>
        <time>2021-06-12T09:30:25.000Z</time>
      </trkpt>
      <trkpt lat="47.34444" lon="-1.35666">
        <ele>134</ele>
        <time>2021-06-12T09:30:27.000Z</time>
      </trkpt>
      <trkpt lat="47.34434" lon="-1.35651">
        <ele>134</ele>
        <time>2021-06-12T09:30:29.000Z</time>
      </trkpt>
      <trkpt lat="47.34425" lon="-1.35636">
        <ele>134</ele>
        <time>2021-06-12T09:30:31.000Z</time>
      </trkpt>
      <trkpt lat="47.34414" lon="-1.3562">
        <ele>134</ele>
        <time>2021-06-12T09:30:33.000Z</time>
      </trkpt>
      <trkpt lat="47.34405" lon="-1.35603">
        <ele>134</ele>
        <time>2021-06-12T09:30:35.000Z</time>
      </trkpt>
      <trkpt lat="47.34396" lon="-1.35587">
        <ele>135</ele>
        <time>2021-06-12T09:30:37.000Z</time>
      </trkpt>
      <trkpt lat="47.34386" lon="-1.3557">
        <ele>135</ele>
        <time>2021-06-12T09:30:39.000Z</time>
      </trkpt>
      <trkpt lat="47.34377" lon="-1.35554">
        <ele>135</ele>
        <time>2021-06-12T09:30:41.000Z</time>
      </trkpt>
      <trkpt lat="47.34367" lon="-1.35537">
        <ele>134</ele>
        <time>2021-06-12T09:30:43.000Z</time>
      </trkpt>
      <trkpt lat="47.34358" lon="-1.35521">
        <ele>134</ele>
        <time>2021-06-12T09:30:45.000Z</time>
      </trkpt>
      <trkpt lat="47.34349" lon="-1.35505">
        <ele>135</ele>
        <time>2021-06-12T09:30:47.000Z</time>
      </trkpt>
      <trkpt lat="47.3434" lon="-1.35489">
        <ele>134</ele>
        <time>2021-06-12T09:30:49.000Z</time>
      </trkpt>
      <trkpt lat="47.34331" lon="-1.35473">
        <ele>134</ele>
        <time>2021-06-12T09:30:51.000Z</time>
      </trkpt>
      <trkpt lat="47.34322" lon="-1.35457">
        <ele>134</ele>
        <time>2021-06-12T09:30:53.000Z</time>
      </trkpt>
      <trkpt lat="47.34312" lon="-1.35441">
        <ele>134</ele>
        <time>2021-06-12T09:30:55.000Z</time>
      </trkpt>
      <trkpt lat="47.34303" lon="-1.35425">
        <ele>133</ele>
        <time>2021-06-12T09:30:57.000Z</time>
      </trkpt>
      <trkpt lat="47.34294" lon="-1.3541">
        <ele>134</ele>
        <time>2021-06-12T09:30:59.000Z</time>
      </trkpt>
      <trkpt lat="47.34286" lon="-1.35395">
        <ele>134</ele>
        <time>2021-06-12T09:31:01.000Z</time>
      </trkpt>
      <trkpt lat="47.34276" lon="-1.3538">
        <ele>134</ele>
        <time>2021-06-12T09:31:03.000Z</time>
      </trkpt>
      <trkpt lat="47.34267" lon="-1.35364">
        <ele>134</ele>
        <time>2021-06-12T09:31:05.000Z</time>
      </trkpt>
      <trkpt lat="47.34257" lon="-1.35349">
        <ele>134</ele>
        <time>2021-06-12T09:31:07.000Z</time>
      </trkpt>
      <trkpt lat="47.34249" lon="-1.35333">
        <ele>134</ele>
        <time>2021-06-12T09:31:09.000Z</time>
      </trkpt>
      <trkpt lat="47.3424" lon="-1.35318">
        <ele>134</ele>
        <time>2021-06-12T09:31:11.000Z</time>
      </trkpt>
      <trkpt lat="47.34231" lon="-1.35303">
        <ele>134</ele>
        <time>2021-06-12T09:31:13.000Z</time>
      </trkpt>
      <trkpt lat="47.34221" lon="-1.35287">
        <ele>134</ele>
        <time>2021-06-12T09:31:15.000Z</time>
      </trkpt>
      <trkpt lat="47.34212" lon="-1.35271">
        <ele>133</ele>
        <time>2021-06-12T09:31:17.000Z</time>
      </trkpt>
      <trkpt lat="47.34203" lon="-1.35256">
        <ele>133</ele>
        <time>2021-06-12T09:31:19.000Z</time>
      </trkpt>
      <trkpt lat="47.34194" lon="-1.35241">
        <ele>134</ele>
        <time>2021-06-12T09:31:21.000Z</time>
      </trkpt>
      <trkpt lat="47.34186" lon="-1.35226">
        <ele>133</ele>
        <time>2021-06-12T09:31:23.000Z</time>
      </trkpt>
      <trkpt lat="47.34177" lon="-1.35212">
        <ele>134</ele>
        <time>2021-06-12T09:31:25.000Z</time>
      </trkpt>
      <trkpt lat="47.34168" lon="-1.35197">
        <ele>134</ele>
        <time>2021-06-12T09:31:27.000Z</time>
      </trkpt>
      <trkpt lat="47.34158" lon="-1.35182">
        <ele>134</ele>
        <time>2021-06-12T09:31:29.000Z</time>
      </trkpt>
      <trkpt lat="47.34149" lon="-1.35167">
        <ele>134</ele>
        <time>2021-06-12T09:31:31.000Z</time>
      </trkpt>
      <trkpt lat="47.3414" lon="-1.35151">
        <ele>134</ele>
        <time>2021-06-12T09:31:33.000Z</time>
      </trkpt>
      <trkpt lat="47.34131" lon="-1.35135">
        <ele>134</ele>
        <time>2021-06-12T09:31:35.000Z</time>
      </trkpt>
      <trkpt lat="47.34122" lon="-1.3512">
        <ele>134</ele>
        <time>2021-06-12T09:31:37.000Z</time>
      </trkpt>
      <trkpt lat="47.34113" lon="-1.35105">
        <ele>134</ele>
        <time>2021-06-12T09:31:39.000Z</time>
      </trkpt>
      <trkpt lat="47.34103" lon="-1.3509">
        <ele>133</ele>
        <time>2021-06-12T09:31:41.000Z</time>
      </trkpt>
      <trkpt lat="47.34094" lon="-1.35075">
        <ele>133</ele>
        <time>2021-06-12T09:31:43.000Z</time>
      </trkpt>
      <trkpt lat="47.34085" lon="-1.3506">
        <ele>133</ele>
        <time>2021-06-12T09:31:45.000Z</time>
      </trkpt>
      <trkpt lat="47.34076" lon="-1.35045">
        <ele>134</ele>
        <time>2021-06-12T09:31:47.000Z</time>
      </trkpt>
      <trkpt lat="47.34068" lon="-1.3503">
        <ele>134</ele>
        <time>2021-06-12T09:31:49.000Z</time>
      </trkpt>
      <trkpt lat="47.34059" lon="-1.35016">
        <ele>134</ele>
        <time>2021-06-12T09:31:51.000Z</time>
      </trkpt>
      <trkpt lat="47.3405" lon="-1.35001">
        <ele>134</ele>
        <time>2021-06-12T09:31:53.000Z</time>
      </trkpt>
      <trkpt lat="47.34041" lon="-1.34988">
        <ele>134</ele>
        <time>2021-06-12T09:31:55.000Z</time>
      </trkpt>
      <trkpt lat="47.34031" lon="-1.34975">
        <ele>134</ele>
        <time>2021-06-12T09:31:57.000Z</time>
      </trkpt>
      <trkpt lat="47.34021" lon="-1.34967">
        <ele>134</ele>
        <time>2021-06-12T09:31:59.000Z</time>
      </trkpt>
      <trkpt lat="47.34012" lon="-1.34962">
        <ele>133</ele>
        <time>2021-06-12T09:32:01.000Z</time>
      </trkpt>
      <trkpt lat="47.34002" lon="-1.34956">
        <ele>133</ele>
        <time>2021-06-12T09:32:03.000Z</time>
      </trkpt>
      <trkpt lat="47.33992" lon="-1.34943">
        <ele>133</ele>
        <time>2021-06-12T09:32:05.000Z</time>
      </trkpt>
      <trkpt lat="47.33985" lon="-1.34924">
        <ele>132</ele>
        <time>2021-06-12T09:32:07.000Z</time>
      </trkpt>
      <trkpt lat="47.33975" lon="-1.34909">
        <ele>132</ele>
        <time>2021-06-12T09:32:09.000Z</time>
      </trkpt>
      <trkpt lat="47.33963" lon="-1.34897">
        <ele>132</ele>
        <time>2021-06-12T09:32:11.000Z</time>
      </trkpt>
      <trkpt lat="47.33951" lon="-1.34885">
        <ele>133</ele>
        <time>2021-06-12T09:32:13.000Z</time>
      </trkpt>
      <trkpt lat="47.33938" lon="-1.34874">
        <ele>132</ele>
        <time>2021-06-12T09:32:15.000Z</time>
      </trkpt>
      <trkpt lat="47.33926" lon="-1.34862">
        <ele>133</ele>
        <time>2021-06-12T09:32:17.000Z</time>
      </trkpt>
      <trkpt lat="47.33913" lon="-1.3485">
        <ele>132</ele>
        <time>2021-06-12T09:32:19.000Z</time>
      </trkpt>
      <trkpt lat="47.33902" lon="-1.34837">
        <ele>132</ele>
        <time>2021-06-12T09:32:21.000Z</time>
      </trkpt>
      <trkpt lat="47.3389" lon="-1.34823">
        <ele>131</ele>
        <time>2021-06-12T09:32:23.000Z</time>
      </trkpt>
      <trkpt lat="47.33879" lon="-1.34808">
        <ele>131</ele>
        <time>2021-06-12T09:32:25.000Z</time>
      </trkpt>
      <trkpt lat="47.33868" lon="-1.34793">
        <ele>131</ele>
        <time>2021-06-12T09:32:27.000Z</time>
      </trkpt>
      <trkpt lat="47.33857" lon="-1.34779">
        <ele>132</ele>
        <time>2021-06-12T09:32:29.000Z</time>
      </trkpt>
      <trkpt lat="47.33846" lon="-1.34764">
        <ele>131</ele>
        <time>2021-06-12T09:32:31.000Z</time>
      </trkpt>
      <trkpt lat="47.33836" lon="-1.3475">
        <ele>132</ele>
        <time>2021-06-12T09:32:33.000Z</time>
      </trkpt>
      <trkpt lat="47.33825" lon="-1.34734">
        <ele>131</ele>
        <time>2021-06-12T09:32:35.000Z</time>
      </trkpt>
      <trkpt lat="47.33815" lon="-1.3472">
        <ele>132</ele>
        <time>2021-06-12T09:32:37.000Z</time>
      </trkpt>
      <trkpt lat="47.33804" lon="-1.34706">
        <ele>132</ele>
        <time>2021-06-12T09:32:39.000Z</time>
      </trkpt>
      <trkpt lat="47.33793" lon="-1.34691">
        <ele>132</ele>
        <time>2021-06-12T09:32:41.000Z</time>
      </trkpt>
      <trkpt lat="47.33783" lon="-1.34678">
        <ele>132</ele>
        <time>2021-06-12T09:32:43.000Z</time>
      </trkpt>
      <trkpt lat="47.33773" lon="-1.34663">
        <ele>132</ele>
        <time>2021-06-12T09:32:45.000Z</time>
      </trkpt>
      <trkpt lat="47.33762" lon="-1.34649">
        <ele>132</ele>
        <time>2021-06-12T09:32:47.000Z</time>
      </trkpt>
      <trkpt lat="47.33752" lon="-1.34634">
        <ele>132</ele>
        <time>2021-06-12T09:32:49.000Z</time>
      </trkpt>
      <trkpt lat="47.33742" lon="-1.3462">
        <ele>132</ele>
        <time>2021-06-12T09:32:51.000Z</time>
      </trkpt>
      <trkpt lat="47.33732" lon="-1.34606">
        <ele>132</ele>
        <time>2021-06-12T09:32:53.000Z</time>
      </trkpt>
      <trkpt lat="47.33721" lon="-1.34592">
        <ele>132</ele>
        <time>2021-06-12T09:32:55.000Z</time>
      </trkpt>
      <trkpt lat="47.33711" lon="-1.34577">
        <ele>131</ele>
        <time>2021-06-12T09:32:57.000Z</time>
      </trkpt>
      <trkpt lat="47.33701" lon="-1.34563">
        <ele>131</ele>
        <time>2021-06-12T09:32:59.000Z</time>
      </trkpt>
      <trkpt lat="47.33692" lon="-1.34549">
        <ele>131</ele>
        <time>2021-06-12T09:33:01.000Z</time>
      </trkpt>
      <trkpt lat="47.33682" lon="-1.34534">
        <ele>131</ele>
        <time>2021-06-12T09:33:03.000Z</time>
      </trkpt>
      <trkpt lat="47.33672" lon="-1.34519">
        <ele>131</ele>
        <time>2021-06-12T09:33:05.000Z</time>
      </trkpt>
      <trkpt lat="47.33662" lon="-1.34504">
        <ele>131</ele>
        <time>2021-06-12T09:33:07.000Z</time>
      </trkpt>
      <trkpt lat="47.33652" lon="-1.3449">
        <ele>131</ele>
        <time>2021-06-12T09:33:09.000Z</time>
      </trkpt>
      <trkpt lat="47.33646" lon="-1.34474">
        <ele>131</ele>
        <time>2021-06-12T09:33:11.000Z</time>
      </trkpt>
      <trkpt lat="47.33652" lon="-1.34456">
        <ele>130</ele>
        <time>2021-06-12T09:33:13.000Z</time>
      </trkpt>
      <trkpt lat="47.33662" lon="-1.3444">
        <ele>130</ele>
        <time>2021-06-12T09:33:15.000Z</time>
      </trkpt>
      <trkpt lat="47.33671" lon="-1.34424">
        <ele>130</ele>
        <time>2021-06-12T09:33:17.000Z</time>
      </trkpt>
      <trkpt lat="47.33679" lon="-1.34407">
        <ele>131</ele>
        <time>2021-06-12T09:33:19.000Z</time>
      </trkpt>
      <trkpt lat="47.33688" lon="-1.34389">
        <ele>131</ele>
        <time>2021-06-12T09:33:21.000Z</time>
      </trkpt>
      <trkpt lat="47.33696" lon="-1.34372">
        <ele>131</ele>
        <time>2021-06-12T09:33:23.000Z</time>
      </trkpt>
      <trkpt lat="47.33705" lon="-1.34355">
        <ele>131</ele>
        <time>2021-06-12T09:33:25.000Z</time>
      </trkpt>
      <trkpt lat="47.33713" lon="-1.34339">
        <ele>131</ele>
        <time>2021-06-12T09:33:27.000Z</time>
      </trkpt>
      <trkpt lat="47.33721" lon="-1.34323">
        <ele>131</ele>
        <time>2021-06-12T09:33:29.000Z</time>
      </trkpt>
      <trkpt lat="47.33729" lon="-1.34307">
        <ele>131</ele>
        <time>2021-06-12T09:33:31.000Z</time>
      </trkpt>
      <trkpt lat="47.33737" lon="-1.34289">
        <ele>131</ele>
        <time>2021-06-12T09:33:33.000Z</time>
      </trkpt>
      <trkpt lat="47.33747" lon="-1.34272">
        <ele>131</ele>
        <time>2021-06-12T09:33:35.000Z</time>
      </trkpt>
      <trkpt lat="47.33756" lon="-1.34256">
        <ele>131</ele>
        <time>2021-06-12T09:33:37.000Z</time>
      </trkpt>
      <trkpt lat="47.33765" lon="-1.3424">
        <ele>130</ele>
        <time>2021-06-12T09:33:39.000Z</time>
      </trkpt>
      <trkpt lat="47.33774" lon="-1.34223">
        <ele>130</ele>
        <time>2021-06-12T09:33:41.000Z</time>
      </trkpt>
      <trkpt lat="47.33783" lon="-1.34207">
        <ele>130</ele>
        <time>2021-06-12T09:33:43.000Z</time>
      </trkpt>
      <trkpt lat="47.33791" lon="-1.34192">
        <ele>130</ele>
        <time>2021-06-12T09:33:45.000Z</time>
      </trkpt>
      <trkpt lat="47.33799" lon="-1.34178">
        <ele>129</ele>
        <time>2021-06-12T09:33:47.000Z</time>
      </trkpt>
      <trkpt lat="47.33804" lon="-1.3416">
        <ele>128</ele>
        <time>2021-06-12T09:33:49.000Z</time>
      </trkpt>
      <trkpt lat="47.338" lon="-1.34142">
        <ele>127</ele>
        <time>2021-06-12T09:33:51.000Z</time>
      </trkpt>
      <trkpt lat="47.33791" lon="-1.34126">
        <ele>127</ele>
        <time>2021-06-12T09:33:53.000Z</time>
      </trkpt>
      <trkpt lat="47.33781" lon="-1.3411">
        <ele>126</ele>
        <time>2021-06-12T09:33:55.000Z</time>
      </trkpt>
      <trkpt lat="47.33772" lon="-1.34092">
        <ele>126</ele>
        <time>2021-06-12T09:33:57.000Z</time>
      </trkpt>
      <trkpt lat="47.33762" lon="-1.34075">
        <ele>125</ele>
        <time>2021-06-12T09:33:59.000Z</time>
      </trkpt>
      <trkpt lat="47.33753" lon="-1.34058">
        <ele>125</ele>
        <time>2021-06-12T09:34:01.000Z</time>
      </trkpt>
      <trkpt lat="47.33743" lon="-1.34041">
        <ele>124</ele>
        <time>2021-06-12T09:34:03.000Z</time>
      </trkpt>
      <trkpt lat="47.33733" lon="-1.34022">
        <ele>124</ele>
        <time>2021-06-12T09:34:05.000Z</time>
      </trkpt>
      <trkpt lat="47.33724" lon="-1.34005">
        <ele>123</ele>
        <time>2021-06-12T09:34:07.000Z</time>
      </trkpt>
      <trkpt lat="47.33714" lon="-1.33987">
        <ele>123</ele>
        <time>2021-06-12T09:34:09.000Z</time>
      </trkpt>
      <trkpt lat="47.33705" lon="-1.33969">
        <ele>123</ele>
        <time>2021-06-12T09:34:11.000Z</time>
      </trkpt>
      <trkpt lat="47.33695" lon="-1.33952">
        <ele>122</ele>
        <time>2021-06-12T09:34:13.000Z</time>
      </trkpt>
      <trkpt lat="47.33686" lon="-1.33934">
        <ele>122</ele>
        <time>2021-06-12T09:34:15.000Z</time>
      </trkpt>
      <trkpt lat="47.33678" lon="-1.33916">
        <ele>122</ele>
        <time>2021-06-12T09:34:17.000Z</time>
      </trkpt>
      <trkpt lat="47.33671" lon="-1.33896">
        <ele>122</ele>
        <time>2021-06-12T09:34:19.000Z</time>
      </trkpt>
      <trkpt lat="47.33665" lon="-1.33877">
        <ele>122</ele>
        <time>2021-06-12T09:34:21.000Z</time>
      </trkpt>
      <trkpt lat="47.33659" lon="-1.33857">
        <ele>122</ele>
        <time>2021-06-12T09:34:23.000Z</time>
      </trkpt>
      <trkpt lat="47.33653" lon="-1.33838">
        <ele>122</ele>
        <time>2021-06-12T09:34:25.000Z</time>
      </trkpt>
      <trkpt lat="47.33647" lon="-1.33819">
        <ele>122</ele>
        <time>2021-06-12T09:34:27.000Z</time>
      </trkpt>
      <trkpt lat="47.33641" lon="-1.338">
        <ele>122</ele>
        <time>2021-06-12T09:34:29.000Z</time>
      </trkpt>
      <trkpt lat="47.33635" lon="-1.3378">
        <ele>122</ele>
        <time>2021-06-12T09:34:31.000Z</time>
      </trkpt>
      <trkpt lat="47.33629" lon="-1.33761">
        <ele>121</ele>
        <time>2021-06-12T09:34:33.000Z</time>
      </trkpt>
      <trkpt lat="47.33623" lon="-1.33742">
        <ele>122</ele>
        <time>2021-06-12T09:34:35.000Z</time>
      </trkpt>
      <trkpt lat="47.33618" lon="-1.33722">
        <ele>122</ele>
        <time>2021-06-12T09:34:37.000Z</time>
      </trkpt>
      <trkpt lat="47.33612" lon="-1.33703">
        <ele>122</ele>
        <time>2021-06-12T09:34:39.000Z</time>
      </trkpt>
      <trkpt lat="47.33606" lon="-1.33683">
        <ele>122</ele>
        <time>2021-06-12T09:34:41.000Z</time>
      </trkpt>
      <trkpt lat="47.336" lon="-1.33662">
        <ele>121</ele>
        <time>2021-06-12T09:34:43.000Z</time>
      </trkpt>
      <trkpt lat="47.33593" lon="-1.33643">
        <ele>121</ele>
        <time>2021-06-12T09:34:45.000Z</time>
      </trkpt>
      <trkpt lat="47.33585" lon="-1.33625">
        <ele>120</ele>
        <time>2021-06-12T09:34:47.000Z</time>
      </trkpt>
      <trkpt lat="47.33576" lon="-1.33608">
        <ele>120</ele>
        <time>2021-06-12T09:34:49.000Z</time>
      </trkpt>
      <trkpt lat="47.33566" lon="-1.33591">
        <ele>120</ele>
        <time>2021-06-12T09:34:51.000Z</time>
      </trkpt>
      <trkpt lat="47.33557" lon="-1.33575">
        <ele>120</ele>
        <time>2021-06-12T09:34:53.000Z</time>
      </trkpt>
      <trkpt lat="47.33548" lon="-1.33559">
        <ele>120</ele>
        <time>2021-06-12T09:34:55.000Z</time>
      </trkpt>
      <trkpt lat="47.33538" lon="-1.33542">
        <ele>120</ele>
        <time>2021-06-12T09:34:57.000Z</time>
      </trkpt>
      <trkpt lat="47.33529" lon="-1.33526">
        <ele>119</ele>
        <time>2021-06-12T09:34:59.000Z</time>
      </trkpt>
      <trkpt lat="47.3352" lon="-1.33509">
        <ele>119</ele>
        <time>2021-06-12T09:35:01.000Z</time>
      </trkpt>
      <trkpt lat="47.33511" lon="-1.33493">
        <ele>119</ele>
        <time>2021-06-12T09:35:03.000Z</time>
      </trkpt>
      <trkpt lat="47.33503" lon="-1.33476">
        <ele>119</ele>
        <time>2021-06-12T09:35:05.000Z</time>
      </trkpt>
      <trkpt lat="47.33495" lon="-1.33459">
        <ele>119</ele>
        <time>2021-06-12T09:35:07.000Z</time>
      </trkpt>
      <trkpt lat="47.33486" lon="-1.33442">
        <ele>119</ele>
        <time>2021-06-12T09:35:09.000Z</time>
      </trkpt>
      <trkpt lat="47.33477" lon="-1.33425">
        <ele>119</ele>
        <time>2021-06-12T09:35:11.000Z</time>
      </trkpt>
      <trkpt lat="47.33469" lon="-1.33408">
        <ele>119</ele>
        <time>2021-06-12T09:35:13.000Z</time>
      </trkpt>
      <trkpt lat="47.3346" lon="-1.33392">
        <ele>119</ele>
        <time>2021-06-12T09:35:15.000Z</time>
      </trkpt>
      <trkpt lat="47.33451" lon="-1.33375">
        <ele>119</ele>
        <time>2021-06-12T09:35:17.000Z</time>
      </trkpt>
      <trkpt lat="47.33441" lon="-1.33358">
        <ele>119</ele>
        <time>2021-06-12T09:35:19.000Z</time>
      </trkpt>
      <trkpt lat="47.33432" lon="-1.33343">
        <ele>119</ele>
        <time>2021-06-12T09:35:21.000Z</time>
      </trkpt>
      <trkpt lat="47.33422" lon="-1.33327">
        <ele>119</ele>
        <time>2021-06-12T09:35:23.000Z</time>
      </trkpt>
      <trkpt lat="47.33412" lon="-1.33311">
        <ele>119</ele>
        <time>2021-06-12T09:35:25.000Z</time>
      </trkpt>
      <trkpt lat="47.33403" lon="-1.33295">
        <ele>119</ele>
        <time>2021-06-12T09:35:27.000Z</time>
      </trkpt>
      <trkpt lat="47.33394" lon="-1.33279">
        <ele>119</ele>
        <time>2021-06-12T09:35:29.000Z</time>
      </trkpt>
      <trkpt lat="47.33383" lon="-1.33263">
        <ele>119</ele>
        <time>2021-06-12T09:35:31.000Z</time>
      </trkpt>
      <trkpt lat="47.33374" lon="-1.33247">
        <ele>119</ele>
        <time>2021-06-12T09:35:33.000Z</time>
      </trkpt>
      <trkpt lat="47.33363" lon="-1.33233">
        <ele>118</ele>
        <time>2021-06-12T09:35:35.000Z</time>
      </trkpt>
      <trkpt lat="47.33354" lon="-1.33217">
        <ele>118</ele>
        <time>2021-06-12T09:35:37.000Z</time>
      </trkpt>
      <trkpt lat="47.33344" lon="-1.33202">
        <ele>118</ele>
        <time>2021-06-12T09:35:39.000Z</time>
      </trkpt>
      <trkpt lat="47.33334" lon="-1.33186">
        <ele>118</ele>
        <time>2021-06-12T09:35:41.000Z</time>
      </trkpt>
      <trkpt lat="47.33325" lon="-1.3317">
        <ele>118</ele>
        <time>2021-06-12T09:35:43.000Z</time>
      </trkpt>
      <trkpt lat="47.33316" lon="-1.33153">
        <ele>118</ele>
        <time>2021-06-12T09:35:45.000Z</time>
      </trkpt>
      <trkpt lat="47.33309" lon="-1.33136">
        <ele>118</ele>
        <time>2021-06-12T09:35:47.000Z</time>
      </trkpt>
      <trkpt lat="47.33301" lon="-1.33118">
        <ele>119</ele>
        <time>2021-06-12T09:35:49.000Z</time>
      </trkpt>
      <trkpt lat="47.33294" lon="-1.331">
        <ele>119</ele>
        <time>2021-06-12T09:35:51.000Z</time>
      </trkpt>
      <trkpt lat="47.33287" lon="-1.33081">
        <ele>119</ele>
        <time>2021-06-12T09:35:53.000Z</time>
      </trkpt>
      <trkpt lat="47.33279" lon="-1.33063">
        <ele>118</ele>
        <time>2021-06-12T09:35:55.000Z</time>
      </trkpt>
      <trkpt lat="47.33271" lon="-1.33047">
        <ele>118</ele>
        <time>2021-06-12T09:35:57.000Z</time>
      </trkpt>
      <trkpt lat="47.33262" lon="-1.33032">
        <ele>118</ele>
        <time>2021-06-12T09:35:59.000Z</time>
      </trkpt>
      <trkpt lat="47.33252" lon="-1.33017">
        <ele>118</ele>
        <time>2021-06-12T09:36:01.000Z</time>
      </trkpt>
      <trkpt lat="47.33242" lon="-1.33001">
        <ele>117</ele>
        <time>2021-06-12T09:36:03.000Z</time>
      </trkpt>
      <trkpt lat="47.33232" lon="-1.32986">
        <ele>116</ele>
        <time>2021-06-12T09:36:05.000Z</time>
      </trkpt>
      <trkpt lat="47.33222" lon="-1.3297">
        <ele>116</ele>
        <time>2021-06-12T09:36:07.000Z</time>
      </trkpt>
      <trkpt lat="47.33213" lon="-1.32954">
        <ele>116</ele>
        <time>2021-06-12T09:36:09.000Z</time>
      </trkpt>
      <trkpt lat="47.33205" lon="-1.32937">
        <ele>115</ele>
        <time>2021-06-12T09:36:11.000Z</time>
      </trkpt>
      <trkpt lat="47.33198" lon="-1.32919">
        <ele>115</ele>
        <time>2021-06-12T09:36:13.000Z</time>
      </trkpt>
      <trkpt lat="47.33191" lon="-1.32899">
        <ele>114</ele>
        <time>2021-06-12T09:36:15.000Z</time>
      </trkpt>
      <trkpt lat="47.33184" lon="-1.32881">
        <ele>114</ele>
        <time>2021-06-12T09:36:17.000Z</time>
      </trkpt>
      <trkpt lat="47.33176" lon="-1.32864">
        <ele>114</ele>
        <time>2021-06-12T09:36:19.000Z</time>
      </trkpt>
      <trkpt lat="47.33166" lon="-1.32847">
        <ele>113</ele>
        <time>2021-06-12T09:36:21.000Z</time>
      </trkpt>
      <trkpt lat="47.33158" lon="-1.32832">
        <ele>113</ele>
        <time>2021-06-12T09:36:23.000Z</time>
      </trkpt>
      <trkpt lat="47.33148" lon="-1.32817">
        <ele>112</ele>
        <time>2021-06-12T09:36:25.000Z</time>
      </trkpt>
      <trkpt lat="47.33138" lon="-1.32802">
        <ele>111</ele>
        <time>2021-06-12T09:36:27.000Z</time>
      </trkpt>
      <trkpt lat="47.33126" lon="-1.32787">
        <ele>110</ele>
        <time>2021-06-12T09:36:29.000Z</time>
      </trkpt>
      <trkpt lat="47.33115" lon="-1.32774">
        <ele>110</ele>
        <time>2021-06-12T09:36:31.000Z</time>
      </trkpt>
      <trkpt lat="47.33103" lon="-1.3276">
        <ele>110</ele>
        <time>2021-06-12T09:36:33.000Z</time>
      </trkpt>
      <trkpt lat="47.33093" lon="-1.32748">
        <ele>109</ele>
        <time>2021-06-12T09:36:35.000Z</time>
      </trkpt>
      <trkpt lat="47.33083" lon="-1.32736">
        <ele>108</ele>
        <time>2021-06-12T09:36:37.000Z</time>
      </trkpt>
      <trkpt lat="47.33073" lon="-1.32724">
        <ele>107</ele>
        <time>2021-06-12T09:36:39.000Z</time>
      </trkpt>
      <trkpt lat="47.33062" lon="-1.3271">
        <ele>105</ele>
        <time>2021-06-12T09:36:41.000Z</time>
      </trkpt>
      <trkpt lat="47.33052" lon="-1.32697">
        <ele>104</ele>
        <time>2021-06-12T09:36:43.000Z</time>
      </trkpt>
      <trkpt lat="47.33041" lon="-1.32685">
        <ele>103</ele>
        <time>2021-06-12T09:36:45.000Z</time>
      </trkpt>
      <trkpt lat="47.3303" lon="-1.32673">
        <ele>102</ele>
        <time>2021-06-12T09:36:47.000Z</time>
      </trkpt>
      <trkpt lat="47.33019" lon="-1.3266">
        <ele>102</ele>
        <time>2021-06-12T09:36:49.000Z</time>
      </trkpt>
      <trkpt lat="47.33008" lon="-1.32646">
        <ele>101</ele>
        <time>2021-06-12T09:36:51.000Z</time>
      </trkpt>
      <trkpt lat="47.32995" lon="-1.32631">
        <ele>99</ele>
        <time>2021-06-12T09:36:53.000Z</time>
      </trkpt>
      <trkpt lat="47.32983" lon="-1.32618">
        <ele>98</ele>
        <time>2021-06-12T09:36:55.000Z</time>
      </trkpt>
      <trkpt lat="47.3297" lon="-1.32604">
        <ele>96</ele>
        <time>2021-06-12T09:36:57.000Z</time>
      </trkpt>
      <trkpt lat="47.3296" lon="-1.3259">
        <ele>94</ele>
        <time>2021-06-12T09:36:59.000Z</time>
      </trkpt>
      <trkpt lat="47.32953" lon="-1.32573">
        <ele>92</ele>
        <time>2021-06-12T09:37:01.000Z</time>
      </trkpt>
      <trkpt lat="47.32952" lon="-1.32552">
        <ele>89</ele>
        <time>2021-06-12T09:37:03.000Z</time>
      </trkpt>
      <trkpt lat="47.32959" lon="-1.32528">
        <ele>87</ele>
        <time>2021-06-12T09:37:05.000Z</time>
      </trkpt>
      <trkpt lat="47.32969" lon="-1.32508">
        <ele>86</ele>
        <time>2021-06-12T09:37:07.000Z</time>
      </trkpt>
      <trkpt lat="47.32981" lon="-1.32491">
        <ele>85</ele>
        <time>2021-06-12T09:37:09.000Z</time>
      </trkpt>
      <trkpt lat="47.32995" lon="-1.32477">
        <ele>84</ele>
        <time>2021-06-12T09:37:11.000Z</time>
      </trkpt>
      <trkpt lat="47.33007" lon="-1.32464">
        <ele>82</ele>
        <time>2021-06-12T09:37:13.000Z</time>
      </trkpt>
      <trkpt lat="47.33018" lon="-1.32448">
        <ele>80</ele>
        <time>2021-06-12T09:37:15.000Z</time>
      </trkpt>
      <trkpt lat="47.33027" lon="-1.32427">
        <ele>79</ele>
        <time>2021-06-12T09:37:17.000Z</time>
      </trkpt>
      <trkpt lat="47.33031" lon="-1.32414">
        <ele>79</ele>
        <time>2021-06-12T09:37:18.000Z</time>
      </trkpt>
      <trkpt lat="47.33035" lon="-1.32401">
        <ele>78</ele>
        <time>2021-06-12T09:37:19.000Z</time>
      </trkpt>
      <trkpt lat="47.33039" lon="-1.32386">
        <ele>77</ele>
        <time>2021-06-12T09:37:20.000Z</time>
      </trkpt>
      <trkpt lat="47.33042" lon="-1.32372">
        <ele>76</ele>
        <time>2021-06-12T09:37:21.000Z</time>
      </trkpt>
      <trkpt lat="47.33046" lon="-1.32359">
        <ele>75</ele>
        <time>2021-06-12T09:37:22.000Z</time>
      </trkpt>
      <trkpt lat="47.33049" lon="-1.32346">
        <ele>74</ele>
        <time>2021-06-12T09:37:23.000Z</time>
      </trkpt>
      <trkpt lat="47.33055" lon="-1.32323">
        <ele>70</ele>
        <time>2021-06-12T09:37:25.000Z</time>
      </trkpt>
      <trkpt lat="47.33059" lon="-1.32303">
        <ele>68</ele>
        <time>2021-06-12T09:37:27.000Z</time>
      </trkpt>
      <trkpt lat="47.33062" lon="-1.32286">
        <ele>67</ele>
        <time>2021-06-12T09:37:29.000Z</time>
      </trkpt>
      <trkpt lat="47.3306" lon="-1.32269">
        <ele>66</ele>
        <time>2021-06-12T09:37:31.000Z</time>
      </trkpt>
      <trkpt lat="47.33057" lon="-1.32252">
        <ele>65</ele>
        <time>2021-06-12T09:37:33.000Z</time>
      </trkpt>
      <trkpt lat="47.33054" lon="-1.32233">
        <ele>65</ele>
        <time>2021-06-12T09:37:35.000Z</time>
      </trkpt>
      <trkpt lat="47.33057" lon="-1.32213">
        <ele>64</ele>
        <time>2021-06-12T09:37:37.000Z</time>
      </trkpt>
      <trkpt lat="47.33064" lon="-1.322">
        <ele>63</ele>
        <time>2021-06-12T09:37:39.000Z</time>
      </trkpt>
      <trkpt lat="47.33064" lon="-1.32183">
        <ele>61</ele>
        <time>2021-06-12T09:37:42.000Z</time>
      </trkpt>
      <trkpt lat="47.33056" lon="-1.32171">
        <ele>61</ele>
        <time>2021-06-12T09:37:45.000Z</time>
      </trkpt>
      <trkpt lat="47.33057" lon="-1.32157">
        <ele>62</ele>
        <time>2021-06-12T09:37:48.000Z</time>
      </trkpt>
      <trkpt lat="47.33062" lon="-1.32146">
        <ele>61</ele>
        <time>2021-06-12T09:37:50.000Z</time>
      </trkpt>
      <trkpt lat="47.33069" lon="-1.32135">
        <ele>60</ele>
        <time>2021-06-12T09:37:52.000Z</time>
      </trkpt>
      <trkpt lat="47.33076" lon="-1.32126">
        <ele>59</ele>
        <time>2021-06-12T09:37:54.000Z</time>
      </trkpt>
      <trkpt lat="47.33082" lon="-1.32115">
        <ele>58</ele>
        <time>2021-06-12T09:37:56.000Z</time>
      </trkpt>
      <trkpt lat="47.33089" lon="-1.32104">
        <ele>58</ele>
        <time>2021-06-12T09:37:58.000Z</time>
      </trkpt>
      <trkpt lat="47.33094" lon="-1.32092">
        <ele>57</ele>
        <time>2021-06-12T09:38:00.000Z</time>
      </trkpt>
      <trkpt lat="47.33097" lon="-1.32077">
        <ele>57</ele>
        <time>2021-06-12T09:38:02.000Z</time>
      </trkpt>
      <trkpt lat="47.33099" lon="-1.32063">
        <ele>57</ele>
        <time>2021-06-12T09:38:04.000Z</time>
      </trkpt>
      <trkpt lat="47.33096" lon="-1.32049">
        <ele>57</ele>
        <time>2021-06-12T09:38:06.000Z</time>
      </trkpt>
      <trkpt lat="47.33103" lon="-1.32035">
        <ele>57</ele>
        <time>2021-06-12T09:38:09.000Z</time>
      </trkpt>
      <trkpt lat="47.3311" lon="-1.32026">
        <ele>58</ele>
        <time>2021-06-12T09:38:11.000Z</time>
      </trkpt>
      <trkpt lat="47.33115" lon="-1.32013">
        <ele>58</ele>
        <time>2021-06-12T09:38:13.000Z</time>
      </trkpt>
      <trkpt lat="47.33122" lon="-1.32001">
        <ele>58</ele>
        <time>2021-06-12T09:38:15.000Z</time>
      </trkpt>
      <trkpt lat="47.33131" lon="-1.31992">
        <ele>59</ele>
        <time>2021-06-12T09:38:17.000Z</time>
      </trkpt>
      <trkpt lat="47.3314" lon="-1.31985">
        <ele>59</ele>
        <time>2021-06-12T09:38:19.000Z</time>
      </trkpt>
      <trkpt lat="47.33149" lon="-1.31978">
        <ele>59</ele>
        <time>2021-06-12T09:38:21.000Z</time>
      </trkpt>
      <trkpt lat="47.33158" lon="-1.31971">
        <ele>59</ele>
        <time>2021-06-12T09:38:23.000Z</time>
      </trkpt>
      <trkpt lat="47.33165" lon="-1.31958">
        <ele>59</ele>
        <time>2021-06-12T09:38:25.000Z</time>
      </trkpt>
      <trkpt lat="47.33172" lon="-1.31943">
        <ele>59</ele>
        <time>2021-06-12T09:38:27.000Z</time>
      </trkpt>
      <trkpt lat="47.3318" lon="-1.31928">
        <ele>60</ele>
        <time>2021-06-12T09:38:29.000Z</time>
      </trkpt>
      <trkpt lat="47.33187" lon="-1.31913">
        <ele>59</ele>
        <time>2021-06-12T09:38:31.000Z</time>
      </trkpt>
      <trkpt lat="47.33195" lon="-1.31898">
        <ele>60</ele>
        <time>2021-06-12T09:38:33.000Z</time>
      </trkpt>
      <trkpt lat="47.33202" lon="-1.31884">
        <ele>60</ele>
        <time>2021-06-12T09:38:35.000Z</time>
      </trkpt>
      <trkpt lat="47.33209" lon="-1.3187">
        <ele>60</ele>
        <time>2021-06-12T09:38:37.000Z</time>
      </trkpt>
      <trkpt lat="47.33217" lon="-1.31853">
        <ele>60</ele>
        <time>2021-06-12T09:38:39.000Z</time>
      </trkpt>
      <trkpt lat="47.33225" lon="-1.31839">
        <ele>61</ele>
        <time>2021-06-12T09:38:41.000Z</time>
      </trkpt>
      <trkpt lat="47.33232" lon="-1.31823">
        <ele>61</ele>
        <time>2021-06-12T09:38:43.000Z</time>
      </trkpt>
      <trkpt lat="47.3324" lon="-1.31808">
        <ele>61</ele>
        <time>2021-06-12T09:38:45.000Z</time>
      </trkpt>
      <trkpt lat="47.33249" lon="-1.31794">
        <ele>61</ele>
        <time>2021-06-12T09:38:47.000Z</time>
      </trkpt>
      <trkpt lat="47.33257" lon="-1.31779">
        <ele>61</ele>
        <time>2021-06-12T09:38:49.000Z</time>
      </trkpt>
      <trkpt lat="47.33264" lon="-1.31764">
        <ele>60</ele>
        <time>2021-06-12T09:38:51.000Z</time>
      </trkpt>
      <trkpt lat="47.33272" lon="-1.31749">
        <ele>60</ele>
        <time>2021-06-12T09:38:53.000Z</time>
      </trkpt>
      <trkpt lat="47.3328" lon="-1.31734">
        <ele>60</ele>
        <time>2021-06-12T09:38:55.000Z</time>
      </trkpt>
      <trkpt lat="47.33289" lon="-1.31718">
        <ele>60</ele>
        <time>2021-06-12T09:38:57.000Z</time>
      </trkpt>
      <trkpt lat="47.33296" lon="-1.31702">
        <ele>60</ele>
        <time>2021-06-12T09:38:59.000Z</time>
      </trkpt>
      <trkpt lat="47.33303" lon="-1.31688">
        <ele>60</ele>
        <time>2021-06-12T09:39:01.000Z</time>
      </trkpt>
      <trkpt lat="47.33311" lon="-1.31674">
        <ele>59</ele>
        <time>2021-06-12T09:39:03.000Z</time>
      </trkpt>
      <trkpt lat="47.33319" lon="-1.31659">
        <ele>60</ele>
        <time>2021-06-12T09:39:05.000Z</time>
      </trkpt>
      <trkpt lat="47.33326" lon="-1.31644">
        <ele>60</ele>
        <time>2021-06-12T09:39:07.000Z</time>
      </trkpt>
      <trkpt lat="47.33335" lon="-1.31628">
        <ele>59</ele>
        <time>2021-06-12T09:39:09.000Z</time>
      </trkpt>
      <trkpt lat="47.33342" lon="-1.31612">
        <ele>59</ele>
        <time>2021-06-12T09:39:11.000Z</time>
      </trkpt>
      <trkpt lat="47.3335" lon="-1.31597">
        <ele>59</ele>
        <time>2021-06-12T09:39:13.000Z</time>
      </trkpt>
      <trkpt lat="47.33359" lon="-1.31581">
        <ele>59</ele>
        <time>2021-06-12T09:39:15.000Z</time>
      </trkpt>
      <trkpt lat="47.33367" lon="-1.31566">
        <ele>59</ele>
        <time>2021-06-12T09:39:17.000Z</time>
      </trkpt>
      <trkpt lat="47.33375" lon="-1.31552">
        <ele>59</ele>
        <time>2021-06-12T09:39:19.000Z</time>
      </trkpt>
      <trkpt lat="47.33382" lon="-1.31538">
        <ele>59</ele>
        <time>2021-06-12T09:39:21.000Z</time>
      </trkpt>
      <trkpt lat="47.33388" lon="-1.31523">
        <ele>59</ele>
        <time>2021-06-12T09:39:23.000Z</time>
      </trkpt>
      <trkpt lat="47.33396" lon="-1.31508">
        <ele>60</ele>
        <time>2021-06-12T09:39:25.000Z</time>
      </trkpt>
      <trkpt lat="47.33403" lon="-1.31494">
        <ele>60</ele>
        <time>2021-06-12T09:39:27.000Z</time>
      </trkpt>
      <trkpt lat="47.3341" lon="-1.31481">
        <ele>60</ele>
        <time>2021-06-12T09:39:29.000Z</time>
      </trkpt>
      <trkpt lat="47.33417" lon="-1.31468">
        <ele>60</ele>
        <time>2021-06-12T09:39:31.000Z</time>
      </trkpt>
      <trkpt lat="47.33424" lon="-1.31454">
        <ele>61</ele>
        <time>2021-06-12T09:39:33.000Z</time>
      </trkpt>
      <trkpt lat="47.33431" lon="-1.3144">
        <ele>61</ele>
        <time>2021-06-12T09:39:35.000Z</time>
      </trkpt>
      <trkpt lat="47.33439" lon="-1.31426">
        <ele>61</ele>
        <time>2021-06-12T09:39:37.000Z</time>
      </trkpt>
      <trkpt lat="47.33447" lon="-1.31409">
        <ele>61</ele>
        <time>2021-06-12T09:39:39.000Z</time>
      </trkpt>
      <trkpt lat="47.33455" lon="-1.31393">
        <ele>61</ele>
        <time>2021-06-12T09:39:41.000Z</time>
      </trkpt>
      <trkpt lat="47.33462" lon="-1.31378">
        <ele>60</ele>
        <time>2021-06-12T09:39:43.000Z</time>
      </trkpt>
      <trkpt lat="47.3347" lon="-1.31362">
        <ele>59</ele>
        <time>2021-06-12T09:39:45.000Z</time>
      </trkpt>
      <trkpt lat="47.33479" lon="-1.31346">
        <ele>59</ele>
        <time>2021-06-12T09:39:47.000Z</time>
      </trkpt>
      <trkpt lat="47.33487" lon="-1.31331">
        <ele>60</ele>
        <time>2021-06-12T09:39:49.000Z</time>
      </trkpt>
      <trkpt lat="47.33495" lon="-1.31317">
        <ele>59</ele>
        <time>2021-06-12T09:39:51.000Z</time>
      </trkpt>
      <trkpt lat="47.33502" lon="-1.31302">
        <ele>59</ele>
        <time>2021-06-12T09:39:53.000Z</time>
      </trkpt>
      <trkpt lat="47.33509" lon="-1.31289">
        <ele>59</ele>
        <time>2021-06-12T09:39:55.000Z</time>
      </trkpt>
      <trkpt lat="47.33514" lon="-1.31277">
        <ele>59</ele>
        <time>2021-06-12T09:39:57.000Z</time>
      </trkpt>
      <trkpt lat="47.33521" lon="-1.31265">
        <ele>59</ele>
        <time>2021-06-12T09:39:59.000Z</time>
      </trkpt>
      <trkpt lat="47.33529" lon="-1.3125">
        <ele>59</ele>
        <time>2021-06-12T09:40:01.000Z</time>
      </trkpt>
      <trkpt lat="47.33537" lon="-1.31236">
        <ele>58</ele>
        <time>2021-06-12T09:40:03.000Z</time>
      </trkpt>
      <trkpt lat="47.33545" lon="-1.31221">
        <ele>58</ele>
        <time>2021-06-12T09:40:05.000Z</time>
      </trkpt>
      <trkpt lat="47.33553" lon="-1.31207">
        <ele>58</ele>
        <time>2021-06-12T09:40:07.000Z</time>
      </trkpt>
      <trkpt lat="47.3356" lon="-1.31191">
        <ele>58</ele>
        <time>2021-06-12T09:40:09.000Z</time>
      </trkpt>
      <trkpt lat="47.33567" lon="-1.31175">
        <ele>58</ele>
        <time>2021-06-12T09:40:11.000Z</time>
      </trkpt>
      <trkpt lat="47.33575" lon="-1.31159">
        <ele>58</ele>
        <time>2021-06-12T09:40:13.000Z</time>
      </trkpt>
      <trkpt lat="47.33583" lon="-1.31146">
        <ele>59</ele>
        <time>2021-06-12T09:40:15.000Z</time>
      </trkpt>
      <trkpt lat="47.33591" lon="-1.31132">
        <ele>59</ele>
        <time>2021-06-12T09:40:17.000Z</time>
      </trkpt>
      <trkpt lat="47.33599" lon="-1.31117">
        <ele>60</ele>
        <time>2021-06-12T09:40:19.000Z</time>
      </trkpt>
      <trkpt lat="47.33607" lon="-1.31103">
        <ele>60</ele>
        <time>2021-06-12T09:40:21.000Z</time>
      </trkpt>
      <trkpt lat="47.33615" lon="-1.3109">
        <ele>61</ele>
        <time>2021-06-12T09:40:23.000Z</time>
      </trkpt>
      <trkpt lat="47.33624" lon="-1.31077">
        <ele>61</ele>
        <time>2021-06-12T09:40:25.000Z</time>
      </trkpt>
      <trkpt lat="47.33634" lon="-1.31065">
        <ele>61</ele>
        <time>2021-06-12T09:40:27.000Z</time>
      </trkpt>
      <trkpt lat="47.33643" lon="-1.31052">
        <ele>62</ele>
        <time>2021-06-12T09:40:29.000Z</time>
      </trkpt>
      <trkpt lat="47.33651" lon="-1.31038">
        <ele>62</ele>
        <time>2021-06-12T09:40:31.000Z</time>
      </trkpt>
      <trkpt lat="47.3366" lon="-1.31023">
        <ele>62</ele>
        <time>2021-06-12T09:40:33.000Z</time>
      </trkpt>
      <trkpt lat="47.33668" lon="-1.31009">
        <ele>62</ele>
        <time>2021-06-12T09:40:35.000Z</time>
      </trkpt>
      <trkpt lat="47.33676" lon="-1.30997">
        <ele>62</ele>
        <time>2021-06-12T09:40:37.000Z</time>
      </trkpt>
      <trkpt lat="47.33682" lon="-1.30986">
        <ele>62</ele>
        <time>2021-06-12T09:40:39.000Z</time>
      </trkpt>
      <trkpt lat="47.33691" lon="-1.30981">
        <ele>62</ele>
        <time>2021-06-12T09:40:41.000Z</time>
      </trkpt>
      <trkpt lat="47.337" lon="-1.30973">
        <ele>62</ele>
        <time>2021-06-12T09:40:43.000Z</time>
      </trkpt>
      <trkpt lat="47.33708" lon="-1.30963">
        <ele>62</ele>
        <time>2021-06-12T09:40:45.000Z</time>
      </trkpt>
      <trkpt lat="47.33716" lon="-1.30953">
        <ele>62</ele>
        <time>2021-06-12T09:40:47.000Z</time>
      </trkpt>
      <trkpt lat="47.33723" lon="-1.30942">
        <ele>62</ele>
        <time>2021-06-12T09:40:49.000Z</time>
      </trkpt>
      <trkpt lat="47.33733" lon="-1.3093">
        <ele>62</ele>
        <time>2021-06-12T09:40:52.000Z</time>
      </trkpt>
      <trkpt lat="47.33742" lon="-1.3092">
        <ele>62</ele>
        <time>2021-06-12T09:40:54.000Z</time>
      </trkpt>
      <trkpt lat="47.33752" lon="-1.30908">
        <ele>61</ele>
        <time>2021-06-12T09:40:56.000Z</time>
      </trkpt>
      <trkpt lat="47.33763" lon="-1.30897">
        <ele>62</ele>
        <time>2021-06-12T09:40:58.000Z</time>
      </trkpt>
      <trkpt lat="47.33772" lon="-1.30886">
        <ele>62</ele>
        <time>2021-06-12T09:41:00.000Z</time>
      </trkpt>
      <trkpt lat="47.33782" lon="-1.30875">
        <ele>62</ele>
        <time>2021-06-12T09:41:02.000Z</time>
      </trkpt>
      <trkpt lat="47.33792" lon="-1.30865">
        <ele>63</ele>
        <time>2021-06-12T09:41:04.000Z</time>
      </trkpt>
      <trkpt lat="47.33803" lon="-1.30854">
        <ele>62</ele>
        <time>2021-06-12T09:41:06.000Z</time>
      </trkpt>
      <trkpt lat="47.33813" lon="-1.30844">
        <ele>62</ele>
        <time>2021-06-12T09:41:08.000Z</time>
      </trkpt>
      <trkpt lat="47.33824" lon="-1.30834">
        <ele>62</ele>
        <time>2021-06-12T09:41:10.000Z</time>
      </trkpt>
      <trkpt lat="47.33835" lon="-1.30824">
        <ele>62</ele>
        <time>2021-06-12T09:41:12.000Z</time>
      </trkpt>
      <trkpt lat="47.33845" lon="-1.30814">
        <ele>62</ele>
        <time>2021-06-12T09:41:14.000Z</time>
      </trkpt>
      <trkpt lat="47.33856" lon="-1.30804">
        <ele>62</ele>
        <time>2021-06-12T09:41:16.000Z</time>
      </trkpt>
      <trkpt lat="47.33866" lon="-1.30794">
        <ele>62</ele>
        <time>2021-06-12T09:41:18.000Z</time>
      </trkpt>
      <trkpt lat="47.33876" lon="-1.30784">
        <ele>61</ele>
        <time>2021-06-12T09:41:20.000Z</time>
      </trkpt>
      <trkpt lat="47.33886" lon="-1.30772">
        <ele>61</ele>
        <time>2021-06-12T09:41:22.000Z</time>
      </trkpt>
      <trkpt lat="47.33895" lon="-1.30762">
        <ele>62</ele>
        <time>2021-06-12T09:41:24.000Z</time>
      </trkpt>
      <trkpt lat="47.33904" lon="-1.30752">
        <ele>62</ele>
        <time>2021-06-12T09:41:26.000Z</time>
      </trkpt>
      <trkpt lat="47.33913" lon="-1.30742">
        <ele>62</ele>
        <time>2021-06-12T09:41:28.000Z</time>
      </trkpt>
      <trkpt lat="47.33921" lon="-1.30732">
        <ele>62</ele>
        <time>2021-06-12T09:41:30.000Z</time>
      </trkpt>
      <trkpt lat="47.33929" lon="-1.3072">
        <ele>61</ele>
        <time>2021-06-12T09:41:32.000Z</time>
      </trkpt>
      <trkpt lat="47.33936" lon="-1.30708">
        <ele>62</ele>
        <time>2021-06-12T09:41:34.000Z</time>
      </trkpt>
      <trkpt lat="47.33943" lon="-1.30697">
        <ele>62</ele>
        <time>2021-06-12T09:41:36.000Z</time>
      </trkpt>
      <trkpt lat="47.33951" lon="-1.30683">
        <ele>63</ele>
        <time>2021-06-12T09:41:39.000Z</time>
      </trkpt>
      <trkpt lat="47.33959" lon="-1.30676">
        <ele>63</ele>
        <time>2021-06-12T09:41:42.000Z</time>
      </trkpt>
      <trkpt lat="47.33969" lon="-1.30682">
        <ele>63</ele>
        <time>2021-06-12T09:41:45.000Z</time>
      </trkpt>
      <trkpt lat="47.33979" lon="-1.30693">
        <ele>62</ele>
        <time>2021-06-12T09:41:48.000Z</time>
      </trkpt>
      <trkpt lat="47.33989" lon="-1.30686">
        <ele>61</ele>
        <time>2021-06-12T09:41:50.000Z</time>
      </trkpt>
      <trkpt lat="47.33998" lon="-1.30672">
        <ele>60</ele>
        <time>2021-06-12T09:41:52.000Z</time>
      </trkpt>
      <trkpt lat="47.34007" lon="-1.3066">
        <ele>60</ele>
        <time>2021-06-12T09:41:54.000Z</time>
      </trkpt>
      <trkpt lat="47.34015" lon="-1.30645">
        <ele>60</ele>
        <time>2021-06-12T09:41:56.000Z</time>
      </trkpt>
      <trkpt lat="47.34023" lon="-1.30632">
        <ele>60</ele>
        <time>2021-06-12T09:41:58.000Z</time>
      </trkpt>
      <trkpt lat="47.34031" lon="-1.30618">
        <ele>61</ele>
        <time>2021-06-12T09:42:00.000Z</time>
      </trkpt>
      <trkpt lat="47.34038" lon="-1.30603">
        <ele>61</ele>
        <time>2021-06-12T09:42:02.000Z</time>
      </trkpt>
      <trkpt lat="47.34047" lon="-1.30589">
        <ele>61</ele>
        <time>2021-06-12T09:42:04.000Z</time>
      </trkpt>
      <trkpt lat="47.34055" lon="-1.30575">
        <ele>60</ele>
        <time>2021-06-12T09:42:06.000Z</time>
      </trkpt>
      <trkpt lat="47.34062" lon="-1.30561">
        <ele>60</ele>
        <time>2021-06-12T09:42:08.000Z</time>
      </trkpt>
      <trkpt lat="47.3407" lon="-1.30546">
        <ele>60</ele>
        <time>2021-06-12T09:42:10.000Z</time>
      </trkpt>
      <trkpt lat="47.34078" lon="-1.30532">
        <ele>60</ele>
        <time>2021-06-12T09:42:12.000Z</time>
      </trkpt>
      <trkpt lat="47.34085" lon="-1.30518">
        <ele>60</ele>
        <time>2021-06-12T09:42:14.000Z</time>
      </trkpt>
      <trkpt lat="47.34092" lon="-1.30504">
        <ele>60</ele>
        <time>2021-06-12T09:42:16.000Z</time>
      </trkpt>
      <trkpt lat="47.34098" lon="-1.30491">
        <ele>60</ele>
        <time>2021-06-12T09:42:18.000Z</time>
      </trkpt>
      <trkpt lat="47.34104" lon="-1.30478">
        <ele>60</ele>
        <time>2021-06-12T09:42:20.000Z</time>
      </trkpt>
      <trkpt lat="47.34111" lon="-1.30464">
        <ele>60</ele>
        <time>2021-06-12T09:42:22.000Z</time>
      </trkpt>
      <trkpt lat="47.34116" lon="-1.3045">
        <ele>60</ele>
        <time>2021-06-12T09:42:24.000Z</time>
      </trkpt>
      <trkpt lat="47.34122" lon="-1.30435">
        <ele>60</ele>
        <time>2021-06-12T09:42:26.000Z</time>
      </trkpt>
      <trkpt lat="47.34129" lon="-1.3042">
        <ele>61</ele>
        <time>2021-06-12T09:42:28.000Z</time>
      </trkpt>
      <trkpt lat="47.34135" lon="-1.30405">
        <ele>61</ele>
        <time>2021-06-12T09:42:30.000Z</time>
      </trkpt>
      <trkpt lat="47.34141" lon="-1.30389">
        <ele>61</ele>
        <time>2021-06-12T09:42:32.000Z</time>
      </trkpt>
      <trkpt lat="47.34147" lon="-1.30374">
        <ele>61</ele>
        <time>2021-06-12T09:42:34.000Z</time>
      </trkpt>
      <trkpt lat="47.34153" lon="-1.30358">
        <ele>61</ele>
        <time>2021-06-12T09:42:36.000Z</time>
      </trkpt>
      <trkpt lat="47.34159" lon="-1.30343">
        <ele>61</ele>
        <time>2021-06-12T09:42:38.000Z</time>
      </trkpt>
      <trkpt lat="47.34165" lon="-1.30326">
        <ele>61</ele>
        <time>2021-06-12T09:42:40.000Z</time>
      </trkpt>
      <trkpt lat="47.34172" lon="-1.30309">
        <ele>61</ele>
        <time>2021-06-12T09:42:42.000Z</time>
      </trkpt>
      <trkpt lat="47.34179" lon="-1.3029">
        <ele>61</ele>
        <time>2021-06-12T09:42:44.000Z</time>
      </trkpt>
      <trkpt lat="47.34187" lon="-1.30272">
        <ele>60</ele>
        <time>2021-06-12T09:42:46.000Z</time>
      </trkpt>
      <trkpt lat="47.34194" lon="-1.30255">
        <ele>60</ele>
        <time>2021-06-12T09:42:48.000Z</time>
      </trkpt>
      <trkpt lat="47.34201" lon="-1.30237">
        <ele>60</ele>
        <time>2021-06-12T09:42:50.000Z</time>
      </trkpt>
      <trkpt lat="47.34208" lon="-1.3022">
        <ele>60</ele>
        <time>2021-06-12T09:42:52.000Z</time>
      </trkpt>
      <trkpt lat="47.34214" lon="-1.30202">
        <ele>59</ele>
        <time>2021-06-12T09:42:54.000Z</time>
      </trkpt>
      <trkpt lat="47.34219" lon="-1.30184">
        <ele>59</ele>
        <time>2021-06-12T09:42:56.000Z</time>
      </trkpt>
      <trkpt lat="47.34224" lon="-1.30165">
        <ele>59</ele>
        <time>2021-06-12T09:42:58.000Z</time>
      </trkpt>
      <trkpt lat="47.34229" lon="-1.30147">
        <ele>59</ele>
        <time>2021-06-12T09:43:00.000Z</time>
      </trkpt>
      <trkpt lat="47.34235" lon="-1.30129">
        <ele>59</ele>
        <time>2021-06-12T09:43:02.000Z</time>
      </trkpt>
      <trkpt lat="47.34239" lon="-1.30113">
        <ele>60</ele>
        <time>2021-06-12T09:43:04.000Z</time>
      </trkpt>
      <trkpt lat="47.34244" lon="-1.30096">
        <ele>60</ele>
        <time>2021-06-12T09:43:06.000Z</time>
      </trkpt>
      <trkpt lat="47.3425" lon="-1.30078">
        <ele>60</ele>
        <time>2021-06-12T09:43:08.000Z</time>
      </trkpt>
      <trkpt lat="47.34257" lon="-1.30051">
        <ele>60</ele>
        <time>2021-06-12T09:43:11.000Z</time>
      </trkpt>
      <trkpt lat="47.34261" lon="-1.30033">
        <ele>60</ele>
        <time>2021-06-12T09:43:13.000Z</time>
      </trkpt>
      <trkpt lat="47.34266" lon="-1.30016">
        <ele>60</ele>
        <time>2021-06-12T09:43:15.000Z</time>
      </trkpt>
      <trkpt lat="47.34271" lon="-1.30002">
        <ele>61</ele>
        <time>2021-06-12T09:43:17.000Z</time>
      </trkpt>
      <trkpt lat="47.34274" lon="-1.29985">
        <ele>61</ele>
        <time>2021-06-12T09:43:19.000Z</time>
      </trkpt>
      <trkpt lat="47.34277" lon="-1.29968">
        <ele>60</ele>
        <time>2021-06-12T09:43:21.000Z</time>
      </trkpt>
      <trkpt lat="47.34281" lon="-1.29951">
        <ele>59</ele>
        <time>2021-06-12T09:43:23.000Z</time>
      </trkpt>
      <trkpt lat="47.34286" lon="-1.29933">
        <ele>59</ele>
        <time>2021-06-12T09:43:25.000Z</time>
      </trkpt>
      <trkpt lat="47.34291" lon="-1.29917">
        <ele>58</ele>
        <time>2021-06-12T09:43:27.000Z</time>
      </trkpt>
      <trkpt lat="47.34297" lon="-1.299">
        <ele>57</ele>
        <time>2021-06-12T09:43:29.000Z</time>
      </trkpt>
      <trkpt lat="47.34302" lon="-1.29883">
        <ele>57</ele>
        <time>2021-06-12T09:43:31.000Z</time>
      </trkpt>
      <trkpt lat="47.34307" lon="-1.29866">
        <ele>57</ele>
        <time>2021-06-12T09:43:33.000Z</time>
      </trkpt>
      <trkpt lat="47.34313" lon="-1.29849">
        <ele>57</ele>
        <time>2021-06-12T09:43:35.000Z</time>
      </trkpt>
      <trkpt lat="47.34319" lon="-1.29833">
        <ele>57</ele>
        <time>2021-06-12T09:43:37.000Z</time>
      </trkpt>
      <trkpt lat="47.34326" lon="-1.29816">
        <ele>57</ele>
        <time>2021-06-12T09:43:39.000Z</time>
      </trkpt>
      <trkpt lat="47.34337" lon="-1.29792">
        <ele>57</ele>
        <time>2021-06-12T09:43:42.000Z</time>
      </trkpt>
      <trkpt lat="47.34344" lon="-1.29776">
        <ele>57</ele>
        <time>2021-06-12T09:43:44.000Z</time>
      </trkpt>
      <trkpt lat="47.34352" lon="-1.2976">
        <ele>57</ele>
        <time>2021-06-12T09:43:46.000Z</time>
      </trkpt>
      <trkpt lat="47.34359" lon="-1.29744">
        <ele>57</ele>
        <time>2021-06-12T09:43:48.000Z</time>
      </trkpt>
      <trkpt lat="47.34367" lon="-1.29728">
        <ele>57</ele>
        <time>2021-06-12T09:43:50.000Z</time>
      </trkpt>
      <trkpt lat="47.34375" lon="-1.29712">
        <ele>57</ele>
        <time>2021-06-12T09:43:52.000Z</time>
      </trkpt>
      <trkpt lat="47.34387" lon="-1.29691">
        <ele>57</ele>
        <time>2021-06-12T09:43:55.000Z</time>
      </trkpt>
      <trkpt lat="47.34399" lon="-1.29667">
        <ele>57</ele>
        <time>2021-06-12T09:43:58.000Z</time>
      </trkpt>
      <trkpt lat="47.34406" lon="-1.29651">
        <ele>57</ele>
        <time>2021-06-12T09:44:00.000Z</time>
      </trkpt>
      <trkpt lat="47.34412" lon="-1.29633">
        <ele>57</ele>
        <time>2021-06-12T09:44:02.000Z</time>
      </trkpt>
      <trkpt lat="47.34417" lon="-1.29614">
        <ele>57</ele>
        <time>2021-06-12T09:44:04.000Z</time>
      </trkpt>
      <trkpt lat="47.34421" lon="-1.29586">
        <ele>57</ele>
        <time>2021-06-12T09:44:07.000Z</time>
      </trkpt>
      <trkpt lat="47.34423" lon="-1.29567">
        <ele>57</ele>
        <time>2021-06-12T09:44:09.000Z</time>
      </trkpt>
      <trkpt lat="47.34425" lon="-1.29548">
        <ele>57</ele>
        <time>2021-06-12T09:44:11.000Z</time>
      </trkpt>
      <trkpt lat="47.34428" lon="-1.29529">
        <ele>57</ele>
        <time>2021-06-12T09:44:13.000Z</time>
      </trkpt>
      <trkpt lat="47.34431" lon="-1.2951">
        <ele>56</ele>
        <time>2021-06-12T09:44:15.000Z</time>
      </trkpt>
      <trkpt lat="47.34434" lon="-1.29491">
        <ele>56</ele>
        <time>2021-06-12T09:44:17.000Z</time>
      </trkpt>
      <trkpt lat="47.34437" lon="-1.29473">
        <ele>56</ele>
        <time>2021-06-12T09:44:19.000Z</time>
      </trkpt>
      <trkpt lat="47.34439" lon="-1.29453">
        <ele>56</ele>
        <time>2021-06-12T09:44:21.000Z</time>
      </trkpt>
      <trkpt lat="47.34441" lon="-1.29435">
        <ele>56</ele>
        <time>2021-06-12T09:44:23.000Z</time>
      </trkpt>
      <trkpt lat="47.34442" lon="-1.29416">
        <ele>56</ele>
        <time>2021-06-12T09:44:25.000Z</time>
      </trkpt>
      <trkpt lat="47.34443" lon="-1.29398">
        <ele>56</ele>
        <time>2021-06-12T09:44:27.000Z</time>
      </trkpt>
      <trkpt lat="47.34442" lon="-1.29379">
        <ele>56</ele>
        <time>2021-06-12T09:44:29.000Z</time>
      </trkpt>
      <trkpt lat="47.34442" lon="-1.29361">
        <ele>56</ele>
        <time>2021-06-12T09:44:31.000Z</time>
      </trkpt>
      <trkpt lat="47.34441" lon="-1.29333">
        <ele>57</ele>
        <time>2021-06-12T09:44:34.000Z</time>
      </trkpt>
      <trkpt lat="47.3444" lon="-1.29305">
        <ele>57</ele>
        <time>2021-06-12T09:44:37.000Z</time>
      </trkpt>
      <trkpt lat="47.3444" lon="-1.29287">
        <ele>57</ele>
        <time>2021-06-12T09:44:39.000Z</time>
      </trkpt>
      <trkpt lat="47.3444" lon="-1.2926">
        <ele>57</ele>
        <time>2021-06-12T09:44:42.000Z</time>
      </trkpt>
      <trkpt lat="47.3444" lon="-1.29233">
        <ele>57</ele>
        <time>2021-06-12T09:44:45.000Z</time>
      </trkpt>
      <trkpt lat="47.34441" lon="-1.29215">
        <ele>57</ele>
        <time>2021-06-12T09:44:47.000Z</time>
      </trkpt>
      <trkpt lat="47.3444" lon="-1.29197">
        <ele>58</ele>
        <time>2021-06-12T09:44:49.000Z</time>
      </trkpt>
      <trkpt lat="47.3444" lon="-1.2918">
        <ele>58</ele>
        <time>2021-06-12T09:44:51.000Z</time>
      </trkpt>
      <trkpt lat="47.34439" lon="-1.29156">
        <ele>59</ele>
        <time>2021-06-12T09:44:54.000Z</time>
      </trkpt>
      <trkpt lat="47.34438" lon="-1.29142">
        <ele>60</ele>
        <time>2021-06-12T09:44:56.000Z</time>
      </trkpt>
      <trkpt lat="47.34439" lon="-1.29126">
        <ele>60</ele>
        <time>2021-06-12T09:44:59.000Z</time>
      </trkpt>
      <trkpt lat="47.34448" lon="-1.29115">
        <ele>60</ele>
        <time>2021-06-12T09:45:02.000Z</time>
      </trkpt>
      <trkpt lat="47.34457" lon="-1.29106">
        <ele>61</ele>
        <time>2021-06-12T09:45:07.000Z</time>
      </trkpt>
      <trkpt lat="47.34463" lon="-1.29084">
        <ele>62</ele>
        <time>2021-06-12T09:45:11.000Z</time>
      </trkpt>
      <trkpt lat="47.34467" lon="-1.29069">
        <ele>62</ele>
        <time>2021-06-12T09:45:13.000Z</time>
      </trkpt>
      <trkpt lat="47.34471" lon="-1.29054">
        <ele>62</ele>
        <time>2021-06-12T09:45:15.000Z</time>
      </trkpt>
      <trkpt lat="47.34476" lon="-1.29038">
        <ele>62</ele>
        <time>2021-06-12T09:45:17.000Z</time>
      </trkpt>
      <trkpt lat="47.3448" lon="-1.29022">
        <ele>62</ele>
        <time>2021-06-12T09:45:19.000Z</time>
      </trkpt>
      <trkpt lat="47.34485" lon="-1.29007">
        <ele>63</ele>
        <time>2021-06-12T09:45:21.000Z</time>
      </trkpt>
      <trkpt lat="47.3449" lon="-1.28992">
        <ele>63</ele>
        <time>2021-06-12T09:45:23.000Z</time>
      </trkpt>
      <trkpt lat="47.34496" lon="-1.28979">
        <ele>63</ele>
        <time>2021-06-12T09:45:25.000Z</time>
      </trkpt>
      <trkpt lat="47.34503" lon="-1.28966">
        <ele>63</ele>
        <time>2021-06-12T09:45:27.000Z</time>
      </trkpt>
      <trkpt lat="47.34509" lon="-1.28953">
        <ele>64</ele>
        <time>2021-06-12T09:45:29.000Z</time>
      </trkpt>
      <trkpt lat="47.34516" lon="-1.28941">
        <ele>64</ele>
        <time>2021-06-12T09:45:31.000Z</time>
      </trkpt>
      <trkpt lat="47.34522" lon="-1.28928">
        <ele>64</ele>
        <time>2021-06-12T09:45:33.000Z</time>
      </trkpt>
      <trkpt lat="47.3453" lon="-1.28915">
        <ele>63</ele>
        <time>2021-06-12T09:45:35.000Z</time>
      </trkpt>
      <trkpt lat="47.34537" lon="-1.289">
        <ele>63</ele>
        <time>2021-06-12T09:45:37.000Z</time>
      </trkpt>
      <trkpt lat="47.34545" lon="-1.28886">
        <ele>63</ele>
        <time>2021-06-12T09:45:39.000Z</time>
      </trkpt>
      <trkpt lat="47.34554" lon="-1.28877">
        <ele>62</ele>
        <time>2021-06-12T09:45:41.000Z</time>
      </trkpt>
      <trkpt lat="47.34564" lon="-1.28882">
        <ele>63</ele>
        <time>2021-06-12T09:45:43.000Z</time>
      </trkpt>
      <trkpt lat="47.34574" lon="-1.28891">
        <ele>63</ele>
        <time>2021-06-12T09:45:46.000Z</time>
      </trkpt>
      <trkpt lat="47.34582" lon="-1.28882">
        <ele>62</ele>
        <time>2021-06-12T09:45:49.000Z</time>
      </trkpt>
      <trkpt lat="47.34586" lon="-1.2887">
        <ele>60</ele>
        <time>2021-06-12T09:45:51.000Z</time>
      </trkpt>
      <trkpt lat="47.34592" lon="-1.28857">
        <ele>60</ele>
        <time>2021-06-12T09:45:53.000Z</time>
      </trkpt>
      <trkpt lat="47.34598" lon="-1.28846">
        <ele>60</ele>
        <time>2021-06-12T09:45:55.000Z</time>
      </trkpt>
      <trkpt lat="47.34606" lon="-1.28831">
        <ele>60</ele>
        <time>2021-06-12T09:45:58.000Z</time>
      </trkpt>
      <trkpt lat="47.34613" lon="-1.28818">
        <ele>59</ele>
        <time>2021-06-12T09:46:01.000Z</time>
      </trkpt>
      <trkpt lat="47.34619" lon="-1.288">
        <ele>59</ele>
        <time>2021-06-12T09:46:05.000Z</time>
      </trkpt>
      <trkpt lat="47.34625" lon="-1.28787">
        <ele>60</ele>
        <time>2021-06-12T09:46:07.000Z</time>
      </trkpt>
      <trkpt lat="47.34631" lon="-1.28776">
        <ele>60</ele>
        <time>2021-06-12T09:46:09.000Z</time>
      </trkpt>
      <trkpt lat="47.34639" lon="-1.28762">
        <ele>60</ele>
        <time>2021-06-12T09:46:12.000Z</time>
      </trkpt>
      <trkpt lat="47.34632" lon="-1.28747">
        <ele>60</ele>
        <time>2021-06-12T09:46:15.000Z</time>
      </trkpt>
      <trkpt lat="47.34626" lon="-1.28737">
        <ele>60</ele>
        <time>2021-06-12T09:46:17.000Z</time>
      </trkpt>
      <trkpt lat="47.34621" lon="-1.28724">
        <ele>61</ele>
        <time>2021-06-12T09:46:19.000Z</time>
      </trkpt>
      <trkpt lat="47.34612" lon="-1.28713">
        <ele>62</ele>
        <time>2021-06-12T09:46:22.000Z</time>
      </trkpt>
      <trkpt lat="47.34604" lon="-1.28705">
        <ele>62</ele>
        <time>2021-06-12T09:46:25.000Z</time>
      </trkpt>
      <trkpt lat="47.34604" lon="-1.28691">
        <ele>63</ele>
        <time>2021-06-12T09:46:28.000Z</time>
      </trkpt>
      <trkpt lat="47.3461" lon="-1.28675">
        <ele>63</ele>
        <time>2021-06-12T09:46:31.000Z</time>
      </trkpt>
      <trkpt lat="47.34616" lon="-1.28659">
        <ele>62</ele>
        <time>2021-06-12T09:46:34.000Z</time>
      </trkpt>
      <trkpt lat="47.34623" lon="-1.28646">
        <ele>62</ele>
        <time>2021-06-12T09:46:38.000Z</time>
      </trkpt>
      <trkpt lat="47.34628" lon="-1.28634">
        <ele>63</ele>
        <time>2021-06-12T09:46:41.000Z</time>
      </trkpt>
      <trkpt lat="47.34636" lon="-1.28621">
        <ele>63</ele>
        <time>2021-06-12T09:46:44.000Z</time>
      </trkpt>
      <trkpt lat="47.34643" lon="-1.28606">
        <ele>64</ele>
        <time>2021-06-12T09:46:47.000Z</time>
      </trkpt>
      <trkpt lat="47.34641" lon="-1.2859">
        <ele>63</ele>
        <time>2021-06-12T09:46:50.000Z</time>
      </trkpt>
      <trkpt lat="47.34629" lon="-1.28579">
        <ele>63</ele>
        <time>2021-06-12T09:46:53.000Z</time>
      </trkpt>
      <trkpt lat="47.34618" lon="-1.28571">
        <ele>63</ele>
        <time>2021-06-12T09:46:55.000Z</time>
      </trkpt>
      <trkpt lat="47.34607" lon="-1.28561">
        <ele>64</ele>
        <time>2021-06-12T09:46:57.000Z</time>
      </trkpt>
      <trkpt lat="47.34596" lon="-1.28551">
        <ele>64</ele>
        <time>2021-06-12T09:46:59.000Z</time>
      </trkpt>
      <trkpt lat="47.34584" lon="-1.2854">
        <ele>63</ele>
        <time>2021-06-12T09:47:01.000Z</time>
      </trkpt>
      <trkpt lat="47.34573" lon="-1.28529">
        <ele>63</ele>
        <time>2021-06-12T09:47:03.000Z</time>
      </trkpt>
      <trkpt lat="47.34562" lon="-1.28517">
        <ele>63</ele>
        <time>2021-06-12T09:47:05.000Z</time>
      </trkpt>
      <trkpt lat="47.34553" lon="-1.28504">
        <ele>63</ele>
        <time>2021-06-12T09:47:07.000Z</time>
      </trkpt>
      <trkpt lat="47.34543" lon="-1.28489">
        <ele>63</ele>
        <time>2021-06-12T09:47:09.000Z</time>
      </trkpt>
      <trkpt lat="47.34535" lon="-1.28473">
        <ele>63</ele>
        <time>2021-06-12T09:47:11.000Z</time>
      </trkpt>
      <trkpt lat="47.34528" lon="-1.28455">
        <ele>62</ele>
        <time>2021-06-12T09:47:13.000Z</time>
      </trkpt>
      <trkpt lat="47.34522" lon="-1.28436">
        <ele>62</ele>
        <time>2021-06-12T09:47:15.000Z</time>
      </trkpt>
      <trkpt lat="47.34517" lon="-1.28417">
        <ele>63</ele>
        <time>2021-06-12T09:47:17.000Z</time>
      </trkpt>
      <trkpt lat="47.34513" lon="-1.28397">
        <ele>63</ele>
        <time>2021-06-12T09:47:19.000Z</time>
      </trkpt>
      <trkpt lat="47.34511" lon="-1.28375">
        <ele>63</ele>
        <time>2021-06-12T09:47:21.000Z</time>
      </trkpt>
      <trkpt lat="47.34509" lon="-1.28355">
        <ele>63</ele>
        <time>2021-06-12T09:47:23.000Z</time>
      </trkpt>
      <trkpt lat="47.34508" lon="-1.28335">
        <ele>62</ele>
        <time>2021-06-12T09:47:25.000Z</time>
      </trkpt>
      <trkpt lat="47.34508" lon="-1.28315">
        <ele>62</ele>
        <time>2021-06-12T09:47:27.000Z</time>
      </trkpt>
      <trkpt lat="47.3451" lon="-1.28295">
        <ele>62</ele>
        <time>2021-06-12T09:47:29.000Z</time>
      </trkpt>
      <trkpt lat="47.34512" lon="-1.28277">
        <ele>61</ele>
        <time>2021-06-12T09:47:31.000Z</time>
      </trkpt>
      <trkpt lat="47.34514" lon="-1.28257">
        <ele>61</ele>
        <time>2021-06-12T09:47:33.000Z</time>
      </trkpt>
      <trkpt lat="47.34516" lon="-1.28237">
        <ele>61</ele>
        <time>2021-06-12T09:47:35.000Z</time>
      </trkpt>
      <trkpt lat="47.34518" lon="-1.28218">
        <ele>61</ele>
        <time>2021-06-12T09:47:37.000Z</time>
      </trkpt>
      <trkpt lat="47.3452" lon="-1.28199">
        <ele>60</ele>
        <time>2021-06-12T09:47:39.000Z</time>
      </trkpt>
      <trkpt lat="47.34521" lon="-1.2818">
        <ele>61</ele>
        <time>2021-06-12T09:47:41.000Z</time>
      </trkpt>
      <trkpt lat="47.34521" lon="-1.28161">
        <ele>61</ele>
        <time>2021-06-12T09:47:43.000Z</time>
      </trkpt>
      <trkpt lat="47.34521" lon="-1.28143">
        <ele>61</ele>
        <time>2021-06-12T09:47:45.000Z</time>
      </trkpt>
      <trkpt lat="47.3452" lon="-1.28125">
        <ele>62</ele>
        <time>2021-06-12T09:47:47.000Z</time>
      </trkpt>
      <trkpt lat="47.34517" lon="-1.28107">
        <ele>63</ele>
        <time>2021-06-12T09:47:49.000Z</time>
      </trkpt>
      <trkpt lat="47.34512" lon="-1.2809">
        <ele>63</ele>
        <time>2021-06-12T09:47:51.000Z</time>
      </trkpt>
      <trkpt lat="47.34508" lon="-1.28074">
        <ele>64</ele>
        <time>2021-06-12T09:47:53.000Z</time>
      </trkpt>
      <trkpt lat="47.34503" lon="-1.28058">
        <ele>64</ele>
        <time>2021-06-12T09:47:55.000Z</time>
      </trkpt>
      <trkpt lat="47.34498" lon="-1.28042">
        <ele>64</ele>
        <time>2021-06-12T09:47:57.000Z</time>
      </trkpt>
      <trkpt lat="47.34491" lon="-1.28028">
        <ele>65</ele>
        <time>2021-06-12T09:47:59.000Z</time>
      </trkpt>
      <trkpt lat="47.34482" lon="-1.28014">
        <ele>65</ele>
        <time>2021-06-12T09:48:01.000Z</time>
      </trkpt>
      <trkpt lat="47.34474" lon="-1.28001">
        <ele>66</ele>
        <time>2021-06-12T09:48:03.000Z</time>
      </trkpt>
      <trkpt lat="47.34464" lon="-1.27989">
        <ele>67</ele>
        <time>2021-06-12T09:48:05.000Z</time>
      </trkpt>
      <trkpt lat="47.34454" lon="-1.2798">
        <ele>68</ele>
        <time>2021-06-12T09:48:07.000Z</time>
      </trkpt>
      <trkpt lat="47.34444" lon="-1.27971">
        <ele>68</ele>
        <time>2021-06-12T09:48:09.000Z</time>
      </trkpt>
      <trkpt lat="47.34432" lon="-1.27963">
        <ele>68</ele>
        <time>2021-06-12T09:48:11.000Z</time>
      </trkpt>
      <trkpt lat="47.3442" lon="-1.27956">
        <ele>68</ele>
        <time>2021-06-12T09:48:13.000Z</time>
      </trkpt>
      <trkpt lat="47.34407" lon="-1.2795">
        <ele>67</ele>
        <time>2021-06-12T09:48:15.000Z</time>
      </trkpt>
      <trkpt lat="47.34394" lon="-1.27944">
        <ele>67</ele>
        <time>2021-06-12T09:48:17.000Z</time>
      </trkpt>
      <trkpt lat="47.34381" lon="-1.27938">
        <ele>67</ele>
        <time>2021-06-12T09:48:19.000Z</time>
      </trkpt>
      <trkpt lat="47.34368" lon="-1.27934">
        <ele>67</ele>
        <time>2021-06-12T09:48:21.000Z</time>
      </trkpt>
      <trkpt lat="47.34355" lon="-1.2793">
        <ele>67</ele>
        <time>2021-06-12T09:48:23.000Z</time>
      </trkpt>
      <trkpt lat="47.34342" lon="-1.27925">
        <ele>67</ele>
        <time>2021-06-12T09:48:25.000Z</time>
      </trkpt>
      <trkpt lat="47.34328" lon="-1.27921">
        <ele>66</ele>
        <time>2021-06-12T09:48:27.000Z</time>
      </trkpt>
      <trkpt lat="47.34315" lon="-1.27917">
        <ele>66</ele>
        <time>2021-06-12T09:48:29.000Z</time>
      </trkpt>
      <trkpt lat="47.34301" lon="-1.27912">
        <ele>66</ele>
        <time>2021-06-12T09:48:31.000Z</time>
      </trkpt>
      <trkpt lat="47.34287" lon="-1.27908">
        <ele>66</ele>
        <time>2021-06-12T09:48:33.000Z</time>
      </trkpt>
      <trkpt lat="47.34273" lon="-1.27904">
        <ele>67</ele>
        <time>2021-06-12T09:48:35.000Z</time>
      </trkpt>
      <trkpt lat="47.34259" lon="-1.27899">
        <ele>67</ele>
        <time>2021-06-12T09:48:37.000Z</time>
      </trkpt>
      <trkpt lat="47.34245" lon="-1.27894">
        <ele>66</ele>
        <time>2021-06-12T09:48:39.000Z</time>
      </trkpt>
      <trkpt lat="47.3423" lon="-1.27889">
        <ele>67</ele>
        <time>2021-06-12T09:48:41.000Z</time>
      </trkpt>
      <trkpt lat="47.34216" lon="-1.27885">
        <ele>66</ele>
        <time>2021-06-12T09:48:43.000Z</time>
      </trkpt>
      <trkpt lat="47.34201" lon="-1.27881">
        <ele>66</ele>
        <time>2021-06-12T09:48:45.000Z</time>
      </trkpt>
      <trkpt lat="47.34185" lon="-1.27876">
        <ele>67</ele>
        <time>2021-06-12T09:48:47.000Z</time>
      </trkpt>
      <trkpt lat="47.3417" lon="-1.27871">
        <ele>66</ele>
        <time>2021-06-12T09:48:49.000Z</time>
      </trkpt>
      <trkpt lat="47.34155" lon="-1.27866">
        <ele>66</ele>
        <time>2021-06-12T09:48:51.000Z</time>
      </trkpt>
      <trkpt lat="47.34141" lon="-1.27862">
        <ele>66</ele>
        <time>2021-06-12T09:48:53.000Z</time>
      </trkpt>
      <trkpt lat="47.34125" lon="-1.27858">
        <ele>66</ele>
        <time>2021-06-12T09:48:55.000Z</time>
      </trkpt>
      <trkpt lat="47.3411" lon="-1.27853">
        <ele>66</ele>
        <time>2021-06-12T09:48:57.000Z</time>
      </trkpt>
      <trkpt lat="47.34095" lon="-1.27848">
        <ele>66</ele>
        <time>2021-06-12T09:48:59.000Z</time>
      </trkpt>
      <trkpt lat="47.3408" lon="-1.27843">
        <ele>66</ele>
        <time>2021-06-12T09:49:01.000Z</time>
      </trkpt>
      <trkpt lat="47.34065" lon="-1.27837">
        <ele>66</ele>
        <time>2021-06-12T09:49:03.000Z</time>
      </trkpt>
      <trkpt lat="47.3405" lon="-1.27833">
        <ele>66</ele>
        <time>2021-06-12T09:49:05.000Z</time>
      </trkpt>
      <trkpt lat="47.34035" lon="-1.27829">
        <ele>66</ele>
        <time>2021-06-12T09:49:07.000Z</time>
      </trkpt>
      <trkpt lat="47.3402" lon="-1.27824">
        <ele>66</ele>
        <time>2021-06-12T09:49:09.000Z</time>
      </trkpt>
      <trkpt lat="47.34005" lon="-1.27819">
        <ele>65</ele>
        <time>2021-06-12T09:49:11.000Z</time>
      </trkpt>
      <trkpt lat="47.3399" lon="-1.27815">
        <ele>65</ele>
        <time>2021-06-12T09:49:13.000Z</time>
      </trkpt>
      <trkpt lat="47.33975" lon="-1.2781">
        <ele>65</ele>
        <time>2021-06-12T09:49:15.000Z</time>
      </trkpt>
      <trkpt lat="47.33961" lon="-1.27805">
        <ele>65</ele>
        <time>2021-06-12T09:49:17.000Z</time>
      </trkpt>
      <trkpt lat="47.33946" lon="-1.278">
        <ele>65</ele>
        <time>2021-06-12T09:49:19.000Z</time>
      </trkpt>
      <trkpt lat="47.33932" lon="-1.27796">
        <ele>64</ele>
        <time>2021-06-12T09:49:21.000Z</time>
      </trkpt>
      <trkpt lat="47.33917" lon="-1.27792">
        <ele>64</ele>
        <time>2021-06-12T09:49:23.000Z</time>
      </trkpt>
      <trkpt lat="47.33902" lon="-1.27787">
        <ele>64</ele>
        <time>2021-06-12T09:49:25.000Z</time>
      </trkpt>
      <trkpt lat="47.33887" lon="-1.27782">
        <ele>64</ele>
        <time>2021-06-12T09:49:27.000Z</time>
      </trkpt>
      <trkpt lat="47.33872" lon="-1.27778">
        <ele>64</ele>
        <time>2021-06-12T09:49:29.000Z</time>
      </trkpt>
      <trkpt lat="47.33857" lon="-1.27773">
        <ele>64</ele>
        <time>2021-06-12T09:49:31.000Z</time>
      </trkpt>
      <trkpt lat="47.33842" lon="-1.27768">
        <ele>64</ele>
        <time>2021-06-12T09:49:33.000Z</time>
      </trkpt>
      <trkpt lat="47.33827" lon="-1.27764">
        <ele>64</ele>
        <time>2021-06-12T09:49:35.000Z</time>
      </trkpt>
      <trkpt lat="47.33812" lon="-1.27759">
        <ele>63</ele>
        <time>2021-06-12T09:49:37.000Z</time>
      </trkpt>
      <trkpt lat="47.33798" lon="-1.27754">
        <ele>63</ele>
        <time>2021-06-12T09:49:39.000Z</time>
      </trkpt>
      <trkpt lat="47.33784" lon="-1.2775">
        <ele>63</ele>
        <time>2021-06-12T09:49:41.000Z</time>
      </trkpt>
      <trkpt lat="47.3377" lon="-1.27745">
        <ele>62</ele>
        <time>2021-06-12T09:49:43.000Z</time>
      </trkpt>
      <trkpt lat="47.33757" lon="-1.27736">
        <ele>62</ele>
        <time>2021-06-12T09:49:45.000Z</time>
      </trkpt>
      <trkpt lat="47.33746" lon="-1.27731">
        <ele>61</ele>
        <time>2021-06-12T09:49:47.000Z</time>
      </trkpt>
      <trkpt lat="47.33739" lon="-1.2774">
        <ele>61</ele>
        <time>2021-06-12T09:49:49.000Z</time>
      </trkpt>
      <trkpt lat="47.33744" lon="-1.27751">
        <ele>61</ele>
        <time>2021-06-12T09:49:51.000Z</time>
      </trkpt>
      <trkpt lat="47.33757" lon="-1.27755">
        <ele>61</ele>
        <time>2021-06-12T09:49:53.000Z</time>
      </trkpt>
      <trkpt lat="47.33769" lon="-1.27757">
        <ele>60</ele>
        <time>2021-06-12T09:49:55.000Z</time>
      </trkpt>
      <trkpt lat="47.33782" lon="-1.27761">
        <ele>59</ele>
        <time>2021-06-12T09:49:57.000Z</time>
      </trkpt>
      <trkpt lat="47.33795" lon="-1.27768">
        <ele>59</ele>
        <time>2021-06-12T09:49:59.000Z</time>
      </trkpt>
      <trkpt lat="47.33809" lon="-1.27772">
        <ele>59</ele>
        <time>2021-06-12T09:50:01.000Z</time>
      </trkpt>
      <trkpt lat="47.33822" lon="-1.27777">
        <ele>58</ele>
        <time>2021-06-12T09:50:03.000Z</time>
      </trkpt>
      <trkpt lat="47.33834" lon="-1.2778">
        <ele>58</ele>
        <time>2021-06-12T09:50:05.000Z</time>
      </trkpt>
      <trkpt lat="47.33846" lon="-1.27783">
        <ele>58</ele>
        <time>2021-06-12T09:50:07.000Z</time>
      </trkpt>
      <trkpt lat="47.33857" lon="-1.27787">
        <ele>58</ele>
        <time>2021-06-12T09:50:09.000Z</time>
      </trkpt>
      <trkpt lat="47.33867" lon="-1.2779">
        <ele>58</ele>
        <time>2021-06-12T09:50:11.000Z</time>
      </trkpt>
      <trkpt lat="47.33876" lon="-1.27793">
        <ele>58</ele>
        <time>2021-06-12T09:50:13.000Z</time>
      </trkpt>
      <trkpt lat="47.33881" lon="-1.27811">
        <ele>59</ele>
        <time>2021-06-12T09:50:16.000Z</time>
      </trkpt>
      <trkpt lat="47.33878" lon="-1.2783">
        <ele>59</ele>
        <time>2021-06-12T09:50:18.000Z</time>
      </trkpt>
      <trkpt lat="47.33877" lon="-1.27849">
        <ele>60</ele>
        <time>2021-06-12T09:50:20.000Z</time>
      </trkpt>
      <trkpt lat="47.33876" lon="-1.27868">
        <ele>59</ele>
        <time>2021-06-12T09:50:22.000Z</time>
      </trkpt>
      <trkpt lat="47.33876" lon="-1.27887">
        <ele>59</ele>
        <time>2021-06-12T09:50:24.000Z</time>
      </trkpt>
      <trkpt lat="47.33876" lon="-1.27905">
        <ele>58</ele>
        <time>2021-06-12T09:50:26.000Z</time>
      </trkpt>
      <trkpt lat="47.33875" lon="-1.27924">
        <ele>58</ele>
        <time>2021-06-12T09:50:28.000Z</time>
      </trkpt>
      <trkpt lat="47.33874" lon="-1.27943">
        <ele>59</ele>
        <time>2021-06-12T09:50:30.000Z</time>
      </trkpt>
      <trkpt lat="47.33873" lon="-1.27961">
        <ele>58</ele>
        <time>2021-06-12T09:50:32.000Z</time>
      </trkpt>
      <trkpt lat="47.33873" lon="-1.2798">
        <ele>59</ele>
        <time>2021-06-12T09:50:34.000Z</time>
      </trkpt>
      <trkpt lat="47.33871" lon="-1.27997">
        <ele>59</ele>
        <time>2021-06-12T09:50:36.000Z</time>
      </trkpt>
      <trkpt lat="47.33871" lon="-1.28015">
        <ele>59</ele>
        <time>2021-06-12T09:50:38.000Z</time>
      </trkpt>
      <trkpt lat="47.3387" lon="-1.28032">
        <ele>59</ele>
        <time>2021-06-12T09:50:40.000Z</time>
      </trkpt>
      <trkpt lat="47.33868" lon="-1.28049">
        <ele>59</ele>
        <time>2021-06-12T09:50:42.000Z</time>
      </trkpt>
      <trkpt lat="47.33866" lon="-1.28065">
        <ele>59</ele>
        <time>2021-06-12T09:50:44.000Z</time>
      </trkpt>
      <trkpt lat="47.33864" lon="-1.28083">
        <ele>59</ele>
        <time>2021-06-12T09:50:46.000Z</time>
      </trkpt>
      <trkpt lat="47.33863" lon="-1.281">
        <ele>59</ele>
        <time>2021-06-12T09:50:48.000Z</time>
      </trkpt>
      <trkpt lat="47.33861" lon="-1.28117">
        <ele>60</ele>
        <time>2021-06-12T09:50:50.000Z</time>
      </trkpt>
      <trkpt lat="47.33858" lon="-1.28135">
        <ele>60</ele>
        <time>2021-06-12T09:50:52.000Z</time>
      </trkpt>
      <trkpt lat="47.33855" lon="-1.28153">
        <ele>60</ele>
        <time>2021-06-12T09:50:54.000Z</time>
      </trkpt>
      <trkpt lat="47.33854" lon="-1.28171">
        <ele>61</ele>
        <time>2021-06-12T09:50:56.000Z</time>
      </trkpt>
      <trkpt lat="47.33852" lon="-1.28189">
        <ele>62</ele>
        <time>2021-06-12T09:50:58.000Z</time>
      </trkpt>
      <trkpt lat="47.33848" lon="-1.28212">
        <ele>62</ele>
        <time>2021-06-12T09:51:00.000Z</time>
      </trkpt>
      <trkpt lat="47.33844" lon="-1.28234">
        <ele>61</ele>
        <time>2021-06-12T09:51:02.000Z</time>
      </trkpt>
      <trkpt lat="47.33841" lon="-1.28255">
        <ele>60</ele>
        <time>2021-06-12T09:51:04.000Z</time>
      </trkpt>
      <trkpt lat="47.33838" lon="-1.28275">
        <ele>60</ele>
        <time>2021-06-12T09:51:06.000Z</time>
      </trkpt>
      <trkpt lat="47.33833" lon="-1.28294">
        <ele>60</ele>
        <time>2021-06-12T09:51:08.000Z</time>
      </trkpt>
      <trkpt lat="47.3383" lon="-1.28313">
        <ele>60</ele>
        <time>2021-06-12T09:51:10.000Z</time>
      </trkpt>
      <trkpt lat="47.33828" lon="-1.28331">
        <ele>60</ele>
        <time>2021-06-12T09:51:12.000Z</time>
      </trkpt>
      <trkpt lat="47.33827" lon="-1.28349">
        <ele>61</ele>
        <time>2021-06-12T09:51:14.000Z</time>
      </trkpt>
      <trkpt lat="47.33824" lon="-1.28368">
        <ele>61</ele>
        <time>2021-06-12T09:51:16.000Z</time>
      </trkpt>
      <trkpt lat="47.33821" lon="-1.28387">
        <ele>60</ele>
        <time>2021-06-12T09:51:18.000Z</time>
      </trkpt>
      <trkpt lat="47.33819" lon="-1.28407">
        <ele>60</ele>
        <time>2021-06-12T09:51:20.000Z</time>
      </trkpt>
      <trkpt lat="47.33816" lon="-1.28426">
        <ele>61</ele>
        <time>2021-06-12T09:51:22.000Z</time>
      </trkpt>
      <trkpt lat="47.33814" lon="-1.28445">
        <ele>61</ele>
        <time>2021-06-12T09:51:24.000Z</time>
      </trkpt>
      <trkpt lat="47.33812" lon="-1.28464">
        <ele>61</ele>
        <time>2021-06-12T09:51:26.000Z</time>
      </trkpt>
      <trkpt lat="47.3381" lon="-1.28481">
        <ele>62</ele>
        <time>2021-06-12T09:51:28.000Z</time>
      </trkpt>
      <trkpt lat="47.33809" lon="-1.28498">
        <ele>62</ele>
        <time>2021-06-12T09:51:30.000Z</time>
      </trkpt>
      <trkpt lat="47.33806" lon="-1.28516">
        <ele>61</ele>
        <time>2021-06-12T09:51:32.000Z</time>
      </trkpt>
      <trkpt lat="47.33804" lon="-1.28533">
        <ele>61</ele>
        <time>2021-06-12T09:51:34.000Z</time>
      </trkpt>
      <trkpt lat="47.33808" lon="-1.28549">
        <ele>62</ele>
        <time>2021-06-12T09:51:36.000Z</time>
      </trkpt>
      <trkpt lat="47.33816" lon="-1.28563">
        <ele>64</ele>
        <time>2021-06-12T09:51:38.000Z</time>
      </trkpt>
      <trkpt lat="47.33816" lon="-1.28578">
        <ele>70</ele>
        <time>2021-06-12T09:51:42.000Z</time>
      </trkpt>
      <trkpt lat="47.33808" lon="-1.28596">
        <ele>72</ele>
        <time>2021-06-12T09:51:44.000Z</time>
      </trkpt>
      <trkpt lat="47.33801" lon="-1.28615">
        <ele>73</ele>
        <time>2021-06-12T09:51:46.000Z</time>
      </trkpt>
      <trkpt lat="47.33798" lon="-1.28635">
        <ele>73</ele>
        <time>2021-06-12T09:51:48.000Z</time>
      </trkpt>
      <trkpt lat="47.33797" lon="-1.28656">
        <ele>72</ele>
        <time>2021-06-12T09:51:50.000Z</time>
      </trkpt>
      <trkpt lat="47.33795" lon="-1.28674">
        <ele>73</ele>
        <time>2021-06-12T09:51:52.000Z</time>
      </trkpt>
      <trkpt lat="47.33791" lon="-1.28692">
        <ele>72</ele>
        <time>2021-06-12T09:51:54.000Z</time>
      </trkpt>
      <trkpt lat="47.33785" lon="-1.28709">
        <ele>71</ele>
        <time>2021-06-12T09:51:56.000Z</time>
      </trkpt>
      <trkpt lat="47.33783" lon="-1.28729">
        <ele>70</ele>
        <time>2021-06-12T09:51:58.000Z</time>
      </trkpt>
      <trkpt lat="47.33782" lon="-1.28747">
        <ele>70</ele>
        <time>2021-06-12T09:52:00.000Z</time>
      </trkpt>
      <trkpt lat="47.33781" lon="-1.28765">
        <ele>70</ele>
        <time>2021-06-12T09:52:02.000Z</time>
      </trkpt>
      <trkpt lat="47.33779" lon="-1.28783">
        <ele>71</ele>
        <time>2021-06-12T09:52:04.000Z</time>
      </trkpt>
      <trkpt lat="47.33777" lon="-1.28802">
        <ele>71</ele>
        <time>2021-06-12T09:52:06.000Z</time>
      </trkpt>
      <trkpt lat="47.33776" lon="-1.2882">
        <ele>70</ele>
        <time>2021-06-12T09:52:08.000Z</time>
      </trkpt>
      <trkpt lat="47.33776" lon="-1.2884">
        <ele>69</ele>
        <time>2021-06-12T09:52:10.000Z</time>
      </trkpt>
      <trkpt lat="47.33777" lon="-1.28859">
        <ele>70</ele>
        <time>2021-06-12T09:52:12.000Z</time>
      </trkpt>
      <trkpt lat="47.33778" lon="-1.28876">
        <ele>70</ele>
        <time>2021-06-12T09:52:14.000Z</time>
      </trkpt>
      <trkpt lat="47.33774" lon="-1.28894">
        <ele>70</ele>
        <time>2021-06-12T09:52:16.000Z</time>
      </trkpt>
      <trkpt lat="47.33769" lon="-1.28911">
        <ele>70</ele>
        <time>2021-06-12T09:52:18.000Z</time>
      </trkpt>
      <trkpt lat="47.33764" lon="-1.28929">
        <ele>69</ele>
        <time>2021-06-12T09:52:20.000Z</time>
      </trkpt>
      <trkpt lat="47.33763" lon="-1.28949">
        <ele>69</ele>
        <time>2021-06-12T09:52:22.000Z</time>
      </trkpt>
      <trkpt lat="47.33762" lon="-1.28968">
        <ele>68</ele>
        <time>2021-06-12T09:52:24.000Z</time>
      </trkpt>
      <trkpt lat="47.33761" lon="-1.28987">
        <ele>67</ele>
        <time>2021-06-12T09:52:26.000Z</time>
      </trkpt>
      <trkpt lat="47.3376" lon="-1.29006">
        <ele>68</ele>
        <time>2021-06-12T09:52:28.000Z</time>
      </trkpt>
      <trkpt lat="47.3376" lon="-1.29026">
        <ele>67</ele>
        <time>2021-06-12T09:52:30.000Z</time>
      </trkpt>
      <trkpt lat="47.33759" lon="-1.29045">
        <ele>67</ele>
        <time>2021-06-12T09:52:32.000Z</time>
      </trkpt>
      <trkpt lat="47.33758" lon="-1.29065">
        <ele>66</ele>
        <time>2021-06-12T09:52:34.000Z</time>
      </trkpt>
      <trkpt lat="47.33758" lon="-1.29084">
        <ele>65</ele>
        <time>2021-06-12T09:52:36.000Z</time>
      </trkpt>
      <trkpt lat="47.33756" lon="-1.29103">
        <ele>64</ele>
        <time>2021-06-12T09:52:38.000Z</time>
      </trkpt>
      <trkpt lat="47.33755" lon="-1.29122">
        <ele>64</ele>
        <time>2021-06-12T09:52:40.000Z</time>
      </trkpt>
      <trkpt lat="47.33755" lon="-1.29141">
        <ele>64</ele>
        <time>2021-06-12T09:52:42.000Z</time>
      </trkpt>
      <trkpt lat="47.33755" lon="-1.2916">
        <ele>64</ele>
        <time>2021-06-12T09:52:44.000Z</time>
      </trkpt>
      <trkpt lat="47.33751" lon="-1.29178">
        <ele>64</ele>
        <time>2021-06-12T09:52:46.000Z</time>
      </trkpt>
      <trkpt lat="47.33746" lon="-1.29197">
        <ele>63</ele>
        <time>2021-06-12T09:52:48.000Z</time>
      </trkpt>
      <trkpt lat="47.33741" lon="-1.29214">
        <ele>64</ele>
        <time>2021-06-12T09:52:50.000Z</time>
      </trkpt>
      <trkpt lat="47.33738" lon="-1.29231">
        <ele>63</ele>
        <time>2021-06-12T09:52:52.000Z</time>
      </trkpt>
      <trkpt lat="47.33736" lon="-1.2925">
        <ele>64</ele>
        <time>2021-06-12T09:52:54.000Z</time>
      </trkpt>
      <trkpt lat="47.3373" lon="-1.29267">
        <ele>63</ele>
        <time>2021-06-12T09:52:56.000Z</time>
      </trkpt>
      <trkpt lat="47.33724" lon="-1.29284">
        <ele>62</ele>
        <time>2021-06-12T09:52:58.000Z</time>
      </trkpt>
      <trkpt lat="47.3372" lon="-1.29302">
        <ele>63</ele>
        <time>2021-06-12T09:53:00.000Z</time>
      </trkpt>
      <trkpt lat="47.33715" lon="-1.29319">
        <ele>62</ele>
        <time>2021-06-12T09:53:02.000Z</time>
      </trkpt>
      <trkpt lat="47.3371" lon="-1.29338">
        <ele>61</ele>
        <time>2021-06-12T09:53:04.000Z</time>
      </trkpt>
      <trkpt lat="47.33705" lon="-1.29355">
        <ele>61</ele>
        <time>2021-06-12T09:53:06.000Z</time>
      </trkpt>
      <trkpt lat="47.337" lon="-1.29372">
        <ele>60</ele>
        <time>2021-06-12T09:53:08.000Z</time>
      </trkpt>
      <trkpt lat="47.33694" lon="-1.2939">
        <ele>60</ele>
        <time>2021-06-12T09:53:10.000Z</time>
      </trkpt>
      <trkpt lat="47.33688" lon="-1.29407">
        <ele>60</ele>
        <time>2021-06-12T09:53:12.000Z</time>
      </trkpt>
      <trkpt lat="47.33681" lon="-1.29423">
        <ele>60</ele>
        <time>2021-06-12T09:53:14.000Z</time>
      </trkpt>
      <trkpt lat="47.33674" lon="-1.29439">
        <ele>60</ele>
        <time>2021-06-12T09:53:16.000Z</time>
      </trkpt>
      <trkpt lat="47.33668" lon="-1.29454">
        <ele>61</ele>
        <time>2021-06-12T09:53:18.000Z</time>
      </trkpt>
      <trkpt lat="47.33663" lon="-1.29471">
        <ele>61</ele>
        <time>2021-06-12T09:53:20.000Z</time>
      </trkpt>
      <trkpt lat="47.33662" lon="-1.2949">
        <ele>61</ele>
        <time>2021-06-12T09:53:22.000Z</time>
      </trkpt>
      <trkpt lat="47.33659" lon="-1.29508">
        <ele>61</ele>
        <time>2021-06-12T09:53:24.000Z</time>
      </trkpt>
      <trkpt lat="47.33656" lon="-1.29524">
        <ele>62</ele>
        <time>2021-06-12T09:53:26.000Z</time>
      </trkpt>
      <trkpt lat="47.33653" lon="-1.2954">
        <ele>62</ele>
        <time>2021-06-12T09:53:28.000Z</time>
      </trkpt>
      <trkpt lat="47.33644" lon="-1.29549">
        <ele>63</ele>
        <time>2021-06-12T09:53:30.000Z</time>
      </trkpt>
      <trkpt lat="47.33631" lon="-1.29547">
        <ele>63</ele>
        <time>2021-06-12T09:53:32.000Z</time>
      </trkpt>
      <trkpt lat="47.33617" lon="-1.29542">
        <ele>62</ele>
        <time>2021-06-12T09:53:34.000Z</time>
      </trkpt>
      <trkpt lat="47.33605" lon="-1.29532">
        <ele>61</ele>
        <time>2021-06-12T09:53:36.000Z</time>
      </trkpt>
      <trkpt lat="47.33594" lon="-1.29522">
        <ele>60</ele>
        <time>2021-06-12T09:53:38.000Z</time>
      </trkpt>
      <trkpt lat="47.33582" lon="-1.29513">
        <ele>60</ele>
        <time>2021-06-12T09:53:40.000Z</time>
      </trkpt>
      <trkpt lat="47.3357" lon="-1.29503">
        <ele>59</ele>
        <time>2021-06-12T09:53:42.000Z</time>
      </trkpt>
      <trkpt lat="47.33558" lon="-1.29492">
        <ele>59</ele>
        <time>2021-06-12T09:53:44.000Z</time>
      </trkpt>
      <trkpt lat="47.33546" lon="-1.29483">
        <ele>58</ele>
        <time>2021-06-12T09:53:46.000Z</time>
      </trkpt>
      <trkpt lat="47.33535" lon="-1.29474">
        <ele>58</ele>
        <time>2021-06-12T09:53:48.000Z</time>
      </trkpt>
      <trkpt lat="47.33523" lon="-1.29464">
        <ele>58</ele>
        <time>2021-06-12T09:53:50.000Z</time>
      </trkpt>
      <trkpt lat="47.33512" lon="-1.29454">
        <ele>58</ele>
        <time>2021-06-12T09:53:52.000Z</time>
      </trkpt>
      <trkpt lat="47.335" lon="-1.29446">
        <ele>58</ele>
        <time>2021-06-12T09:53:54.000Z</time>
      </trkpt>
      <trkpt lat="47.33489" lon="-1.29437">
        <ele>58</ele>
        <time>2021-06-12T09:53:56.000Z</time>
      </trkpt>
      <trkpt lat="47.33478" lon="-1.29428">
        <ele>58</ele>
        <time>2021-06-12T09:53:58.000Z</time>
      </trkpt>
      <trkpt lat="47.33465" lon="-1.29418">
        <ele>58</ele>
        <time>2021-06-12T09:54:00.000Z</time>
      </trkpt>
      <trkpt lat="47.33454" lon="-1.29409">
        <ele>58</ele>
        <time>2021-06-12T09:54:02.000Z</time>
      </trkpt>
      <trkpt lat="47.33442" lon="-1.294">
        <ele>58</ele>
        <time>2021-06-12T09:54:04.000Z</time>
      </trkpt>
      <trkpt lat="47.33431" lon="-1.29391">
        <ele>58</ele>
        <time>2021-06-12T09:54:06.000Z</time>
      </trkpt>
      <trkpt lat="47.33421" lon="-1.29384">
        <ele>58</ele>
        <time>2021-06-12T09:54:08.000Z</time>
      </trkpt>
      <trkpt lat="47.33412" lon="-1.29378">
        <ele>58</ele>
        <time>2021-06-12T09:54:10.000Z</time>
      </trkpt>
      <trkpt lat="47.33409" lon="-1.29361">
        <ele>58</ele>
        <time>2021-06-12T09:54:13.000Z</time>
      </trkpt>
      <trkpt lat="47.33406" lon="-1.29345">
        <ele>59</ele>
        <time>2021-06-12T09:54:15.000Z</time>
      </trkpt>
      <trkpt lat="47.33399" lon="-1.2933">
        <ele>59</ele>
        <time>2021-06-12T09:54:17.000Z</time>
      </trkpt>
      <trkpt lat="47.33391" lon="-1.29316">
        <ele>59</ele>
        <time>2021-06-12T09:54:19.000Z</time>
      </trkpt>
      <trkpt lat="47.33385" lon="-1.293">
        <ele>59</ele>
        <time>2021-06-12T09:54:21.000Z</time>
      </trkpt>
      <trkpt lat="47.33377" lon="-1.29285">
        <ele>58</ele>
        <time>2021-06-12T09:54:23.000Z</time>
      </trkpt>
      <trkpt lat="47.33368" lon="-1.29271">
        <ele>58</ele>
        <time>2021-06-12T09:54:25.000Z</time>
      </trkpt>
      <trkpt lat="47.33359" lon="-1.29257">
        <ele>57</ele>
        <time>2021-06-12T09:54:27.000Z</time>
      </trkpt>
      <trkpt lat="47.33349" lon="-1.29244">
        <ele>57</ele>
        <time>2021-06-12T09:54:29.000Z</time>
      </trkpt>
      <trkpt lat="47.33338" lon="-1.29234">
        <ele>57</ele>
        <time>2021-06-12T09:54:31.000Z</time>
      </trkpt>
      <trkpt lat="47.33327" lon="-1.29226">
        <ele>57</ele>
        <time>2021-06-12T09:54:33.000Z</time>
      </trkpt>
      <trkpt lat="47.33316" lon="-1.29217">
        <ele>57</ele>
        <time>2021-06-12T09:54:35.000Z</time>
      </trkpt>
      <trkpt lat="47.33304" lon="-1.29208">
        <ele>57</ele>
        <time>2021-06-12T09:54:37.000Z</time>
      </trkpt>
      <trkpt lat="47.33292" lon="-1.29199">
        <ele>57</ele>
        <time>2021-06-12T09:54:39.000Z</time>
      </trkpt>
      <trkpt lat="47.33281" lon="-1.2919">
        <ele>57</ele>
        <time>2021-06-12T09:54:41.000Z</time>
      </trkpt>
      <trkpt lat="47.3327" lon="-1.29182">
        <ele>57</ele>
        <time>2021-06-12T09:54:43.000Z</time>
      </trkpt>
      <trkpt lat="47.33259" lon="-1.29174">
        <ele>58</ele>
        <time>2021-06-12T09:54:45.000Z</time>
      </trkpt>
      <trkpt lat="47.33247" lon="-1.29168">
        <ele>58</ele>
        <time>2021-06-12T09:54:47.000Z</time>
      </trkpt>
      <trkpt lat="47.33235" lon="-1.29164">
        <ele>59</ele>
        <time>2021-06-12T09:54:49.000Z</time>
      </trkpt>
      <trkpt lat="47.33225" lon="-1.29158">
        <ele>59</ele>
        <time>2021-06-12T09:54:51.000Z</time>
      </trkpt>
      <trkpt lat="47.33215" lon="-1.29151">
        <ele>59</ele>
        <time>2021-06-12T09:54:53.000Z</time>
      </trkpt>
      <trkpt lat="47.33205" lon="-1.29146">
        <ele>60</ele>
        <time>2021-06-12T09:54:55.000Z</time>
      </trkpt>
      <trkpt lat="47.33195" lon="-1.29149">
        <ele>60</ele>
        <time>2021-06-12T09:54:57.000Z</time>
      </trkpt>
      <trkpt lat="47.33185" lon="-1.29159">
        <ele>60</ele>
        <time>2021-06-12T09:54:59.000Z</time>
      </trkpt>
      <trkpt lat="47.33177" lon="-1.2917">
        <ele>61</ele>
        <time>2021-06-12T09:55:01.000Z</time>
      </trkpt>
      <trkpt lat="47.3317" lon="-1.29183">
        <ele>60</ele>
        <time>2021-06-12T09:55:03.000Z</time>
      </trkpt>
      <trkpt lat="47.3317" lon="-1.292">
        <ele>60</ele>
        <time>2021-06-12T09:55:05.000Z</time>
      </trkpt>
      <trkpt lat="47.33168" lon="-1.29217">
        <ele>60</ele>
        <time>2021-06-12T09:55:07.000Z</time>
      </trkpt>
      <trkpt lat="47.33163" lon="-1.29229">
        <ele>60</ele>
        <time>2021-06-12T09:55:09.000Z</time>
      </trkpt>
      <trkpt lat="47.33155" lon="-1.29239">
        <ele>60</ele>
        <time>2021-06-12T09:55:11.000Z</time>
      </trkpt>
      <trkpt lat="47.33148" lon="-1.29252">
        <ele>60</ele>
        <time>2021-06-12T09:55:13.000Z</time>
      </trkpt>
      <trkpt lat="47.33142" lon="-1.29264">
        <ele>62</ele>
        <time>2021-06-12T09:55:15.000Z</time>
      </trkpt>
      <trkpt lat="47.33136" lon="-1.29275">
        <ele>62</ele>
        <time>2021-06-12T09:55:17.000Z</time>
      </trkpt>
      <trkpt lat="47.33131" lon="-1.29288">
        <ele>62</ele>
        <time>2021-06-12T09:55:19.000Z</time>
      </trkpt>
      <trkpt lat="47.33128" lon="-1.29302">
        <ele>62</ele>
        <time>2021-06-12T09:55:21.000Z</time>
      </trkpt>
      <trkpt lat="47.33128" lon="-1.29319">
        <ele>62</ele>
        <time>2021-06-12T09:55:23.000Z</time>
      </trkpt>
      <trkpt lat="47.33134" lon="-1.29334">
        <ele>62</ele>
        <time>2021-06-12T09:55:25.000Z</time>
      </trkpt>
      <trkpt lat="47.33147" lon="-1.29345">
        <ele>62</ele>
        <time>2021-06-12T09:55:27.000Z</time>
      </trkpt>
      <trkpt lat="47.33151" lon="-1.29361">
        <ele>62</ele>
        <time>2021-06-12T09:55:29.000Z</time>
      </trkpt>
      <trkpt lat="47.33145" lon="-1.29378">
        <ele>61</ele>
        <time>2021-06-12T09:55:31.000Z</time>
      </trkpt>
      <trkpt lat="47.33137" lon="-1.29393">
        <ele>61</ele>
        <time>2021-06-12T09:55:33.000Z</time>
      </trkpt>
      <trkpt lat="47.33129" lon="-1.29408">
        <ele>61</ele>
        <time>2021-06-12T09:55:35.000Z</time>
      </trkpt>
      <trkpt lat="47.3312" lon="-1.29422">
        <ele>61</ele>
        <time>2021-06-12T09:55:37.000Z</time>
      </trkpt>
      <trkpt lat="47.33112" lon="-1.29436">
        <ele>60</ele>
        <time>2021-06-12T09:55:39.000Z</time>
      </trkpt>
      <trkpt lat="47.33102" lon="-1.2945">
        <ele>61</ele>
        <time>2021-06-12T09:55:41.000Z</time>
      </trkpt>
      <trkpt lat="47.33092" lon="-1.29464">
        <ele>60</ele>
        <time>2021-06-12T09:55:43.000Z</time>
      </trkpt>
      <trkpt lat="47.33083" lon="-1.29478">
        <ele>60</ele>
        <time>2021-06-12T09:55:45.000Z</time>
      </trkpt>
      <trkpt lat="47.33073" lon="-1.29492">
        <ele>60</ele>
        <time>2021-06-12T09:55:47.000Z</time>
      </trkpt>
      <trkpt lat="47.33064" lon="-1.29506">
        <ele>60</ele>
        <time>2021-06-12T09:55:49.000Z</time>
      </trkpt>
      <trkpt lat="47.33055" lon="-1.2952">
        <ele>60</ele>
        <time>2021-06-12T09:55:51.000Z</time>
      </trkpt>
      <trkpt lat="47.33047" lon="-1.29535">
        <ele>61</ele>
        <time>2021-06-12T09:55:53.000Z</time>
      </trkpt>
      <trkpt lat="47.33038" lon="-1.2955">
        <ele>61</ele>
        <time>2021-06-12T09:55:55.000Z</time>
      </trkpt>
      <trkpt lat="47.3303" lon="-1.29565">
        <ele>61</ele>
        <time>2021-06-12T09:55:57.000Z</time>
      </trkpt>
      <trkpt lat="47.33022" lon="-1.2958">
        <ele>61</ele>
        <time>2021-06-12T09:55:59.000Z</time>
      </trkpt>
      <trkpt lat="47.33015" lon="-1.29595">
        <ele>62</ele>
        <time>2021-06-12T09:56:01.000Z</time>
      </trkpt>
      <trkpt lat="47.33007" lon="-1.29611">
        <ele>63</ele>
        <time>2021-06-12T09:56:03.000Z</time>
      </trkpt>
      <trkpt lat="47.32999" lon="-1.29627">
        <ele>63</ele>
        <time>2021-06-12T09:56:05.000Z</time>
      </trkpt>
      <trkpt lat="47.32992" lon="-1.2964">
        <ele>64</ele>
        <time>2021-06-12T09:56:07.000Z</time>
      </trkpt>
      <trkpt lat="47.32983" lon="-1.29654">
        <ele>65</ele>
        <time>2021-06-12T09:56:09.000Z</time>
      </trkpt>
      <trkpt lat="47.32973" lon="-1.29669">
        <ele>63</ele>
        <time>2021-06-12T09:56:11.000Z</time>
      </trkpt>
      <trkpt lat="47.32963" lon="-1.29683">
        <ele>63</ele>
        <time>2021-06-12T09:56:13.000Z</time>
      </trkpt>
      <trkpt lat="47.32953" lon="-1.29699">
        <ele>63</ele>
        <time>2021-06-12T09:56:15.000Z</time>
      </trkpt>
      <trkpt lat="47.32944" lon="-1.29715">
        <ele>62</ele>
        <time>2021-06-12T09:56:17.000Z</time>
      </trkpt>
      <trkpt lat="47.32936" lon="-1.2973">
        <ele>62</ele>
        <time>2021-06-12T09:56:19.000Z</time>
      </trkpt>
      <trkpt lat="47.32928" lon="-1.29746">
        <ele>63</ele>
        <time>2021-06-12T09:56:21.000Z</time>
      </trkpt>
      <trkpt lat="47.32918" lon="-1.29761">
        <ele>62</ele>
        <time>2021-06-12T09:56:23.000Z</time>
      </trkpt>
      <trkpt lat="47.32909" lon="-1.29777">
        <ele>62</ele>
        <time>2021-06-12T09:56:25.000Z</time>
      </trkpt>
      <trkpt lat="47.329" lon="-1.29793">
        <ele>62</ele>
        <time>2021-06-12T09:56:27.000Z</time>
      </trkpt>
      <trkpt lat="47.32891" lon="-1.29809">
        <ele>62</ele>
        <time>2021-06-12T09:56:29.000Z</time>
      </trkpt>
      <trkpt lat="47.32882" lon="-1.29825">
        <ele>63</ele>
        <time>2021-06-12T09:56:31.000Z</time>
      </trkpt>
      <trkpt lat="47.32874" lon="-1.2984">
        <ele>63</ele>
        <time>2021-06-12T09:56:33.000Z</time>
      </trkpt>
      <trkpt lat="47.32864" lon="-1.29856">
        <ele>63</ele>
        <time>2021-06-12T09:56:35.000Z</time>
      </trkpt>
      <trkpt lat="47.32855" lon="-1.29871">
        <ele>63</ele>
        <time>2021-06-12T09:56:37.000Z</time>
      </trkpt>
      <trkpt lat="47.32847" lon="-1.29887">
        <ele>63</ele>
        <time>2021-06-12T09:56:39.000Z</time>
      </trkpt>
      <trkpt lat="47.32839" lon="-1.29901">
        <ele>64</ele>
        <time>2021-06-12T09:56:41.000Z</time>
      </trkpt>
      <trkpt lat="47.32831" lon="-1.29917">
        <ele>64</ele>
        <time>2021-06-12T09:56:43.000Z</time>
      </trkpt>
      <trkpt lat="47.32823" lon="-1.29934">
        <ele>64</ele>
        <time>2021-06-12T09:56:45.000Z</time>
      </trkpt>
      <trkpt lat="47.32814" lon="-1.2995">
        <ele>64</ele>
        <time>2021-06-12T09:56:47.000Z</time>
      </trkpt>
      <trkpt lat="47.32805" lon="-1.29967">
        <ele>63</ele>
        <time>2021-06-12T09:56:49.000Z</time>
      </trkpt>
      <trkpt lat="47.32797" lon="-1.29983">
        <ele>63</ele>
        <time>2021-06-12T09:56:51.000Z</time>
      </trkpt>
      <trkpt lat="47.32788" lon="-1.3">
        <ele>63</ele>
        <time>2021-06-12T09:56:53.000Z</time>
      </trkpt>
      <trkpt lat="47.32781" lon="-1.30016">
        <ele>64</ele>
        <time>2021-06-12T09:56:55.000Z</time>
      </trkpt>
      <trkpt lat="47.32773" lon="-1.30032">
        <ele>63</ele>
        <time>2021-06-12T09:56:57.000Z</time>
      </trkpt>
      <trkpt lat="47.32764" lon="-1.30048">
        <ele>63</ele>
        <time>2021-06-12T09:56:59.000Z</time>
      </trkpt>
      <trkpt lat="47.32757" lon="-1.30064">
        <ele>63</ele>
        <time>2021-06-12T09:57:01.000Z</time>
      </trkpt>
      <trkpt lat="47.32748" lon="-1.30081">
        <ele>62</ele>
        <time>2021-06-12T09:57:03.000Z</time>
      </trkpt>
      <trkpt lat="47.3274" lon="-1.30097">
        <ele>62</ele>
        <time>2021-06-12T09:57:05.000Z</time>
      </trkpt>
      <trkpt lat="47.32732" lon="-1.30112">
        <ele>62</ele>
        <time>2021-06-12T09:57:07.000Z</time>
      </trkpt>
      <trkpt lat="47.32722" lon="-1.30126">
        <ele>61</ele>
        <time>2021-06-12T09:57:09.000Z</time>
      </trkpt>
      <trkpt lat="47.32713" lon="-1.3014">
        <ele>60</ele>
        <time>2021-06-12T09:57:11.000Z</time>
      </trkpt>
      <trkpt lat="47.32703" lon="-1.30154">
        <ele>60</ele>
        <time>2021-06-12T09:57:13.000Z</time>
      </trkpt>
      <trkpt lat="47.32694" lon="-1.30169">
        <ele>61</ele>
        <time>2021-06-12T09:57:15.000Z</time>
      </trkpt>
      <trkpt lat="47.32684" lon="-1.30183">
        <ele>61</ele>
        <time>2021-06-12T09:57:17.000Z</time>
      </trkpt>
      <trkpt lat="47.32675" lon="-1.30198">
        <ele>61</ele>
        <time>2021-06-12T09:57:19.000Z</time>
      </trkpt>
      <trkpt lat="47.32667" lon="-1.30213">
        <ele>61</ele>
        <time>2021-06-12T09:57:21.000Z</time>
      </trkpt>
      <trkpt lat="47.32657" lon="-1.30228">
        <ele>61</ele>
        <time>2021-06-12T09:57:23.000Z</time>
      </trkpt>
      <trkpt lat="47.32648" lon="-1.30243">
        <ele>61</ele>
        <time>2021-06-12T09:57:25.000Z</time>
      </trkpt>
      <trkpt lat="47.32643" lon="-1.30259">
        <ele>61</ele>
        <time>2021-06-12T09:57:27.000Z</time>
      </trkpt>
      <trkpt lat="47.32648" lon="-1.30276">
        <ele>60</ele>
        <time>2021-06-12T09:57:29.000Z</time>
      </trkpt>
      <trkpt lat="47.32655" lon="-1.30292">
        <ele>60</ele>
        <time>2021-06-12T09:57:31.000Z</time>
      </trkpt>
      <trkpt lat="47.32663" lon="-1.30308">
        <ele>59</ele>
        <time>2021-06-12T09:57:33.000Z</time>
      </trkpt>
      <trkpt lat="47.3267" lon="-1.30325">
        <ele>58</ele>
        <time>2021-06-12T09:57:35.000Z</time>
      </trkpt>
      <trkpt lat="47.32677" lon="-1.30342">
        <ele>58</ele>
        <time>2021-06-12T09:57:37.000Z</time>
      </trkpt>
      <trkpt lat="47.32684" lon="-1.3036">
        <ele>57</ele>
        <time>2021-06-12T09:57:39.000Z</time>
      </trkpt>
      <trkpt lat="47.32688" lon="-1.3038">
        <ele>57</ele>
        <time>2021-06-12T09:57:41.000Z</time>
      </trkpt>
      <trkpt lat="47.32688" lon="-1.304">
        <ele>57</ele>
        <time>2021-06-12T09:57:43.000Z</time>
      </trkpt>
      <trkpt lat="47.32684" lon="-1.3042">
        <ele>57</ele>
        <time>2021-06-12T09:57:45.000Z</time>
      </trkpt>
      <trkpt lat="47.3268" lon="-1.3044">
        <ele>57</ele>
        <time>2021-06-12T09:57:47.000Z</time>
      </trkpt>
      <trkpt lat="47.32673" lon="-1.30456">
        <ele>58</ele>
        <time>2021-06-12T09:57:49.000Z</time>
      </trkpt>
      <trkpt lat="47.32665" lon="-1.30472">
        <ele>58</ele>
        <time>2021-06-12T09:57:51.000Z</time>
      </trkpt>
      <trkpt lat="47.32657" lon="-1.30489">
        <ele>59</ele>
        <time>2021-06-12T09:57:53.000Z</time>
      </trkpt>
      <trkpt lat="47.3265" lon="-1.30506">
        <ele>59</ele>
        <time>2021-06-12T09:57:55.000Z</time>
      </trkpt>
      <trkpt lat="47.32642" lon="-1.30521">
        <ele>60</ele>
        <time>2021-06-12T09:57:57.000Z</time>
      </trkpt>
      <trkpt lat="47.32635" lon="-1.30538">
        <ele>60</ele>
        <time>2021-06-12T09:57:59.000Z</time>
      </trkpt>
      <trkpt lat="47.32627" lon="-1.30555">
        <ele>60</ele>
        <time>2021-06-12T09:58:01.000Z</time>
      </trkpt>
      <trkpt lat="47.32619" lon="-1.30572">
        <ele>59</ele>
        <time>2021-06-12T09:58:03.000Z</time>
      </trkpt>
      <trkpt lat="47.32612" lon="-1.3059">
        <ele>60</ele>
        <time>2021-06-12T09:58:05.000Z</time>
      </trkpt>
      <trkpt lat="47.32605" lon="-1.30606">
        <ele>60</ele>
        <time>2021-06-12T09:58:07.000Z</time>
      </trkpt>
      <trkpt lat="47.32597" lon="-1.30623">
        <ele>60</ele>
        <time>2021-06-12T09:58:09.000Z</time>
      </trkpt>
      <trkpt lat="47.3259" lon="-1.30639">
        <ele>60</ele>
        <time>2021-06-12T09:58:11.000Z</time>
      </trkpt>
      <trkpt lat="47.32582" lon="-1.30656">
        <ele>60</ele>
        <time>2021-06-12T09:58:13.000Z</time>
      </trkpt>
      <trkpt lat="47.32575" lon="-1.30673">
        <ele>59</ele>
        <time>2021-06-12T09:58:15.000Z</time>
      </trkpt>
      <trkpt lat="47.32567" lon="-1.30689">
        <ele>59</ele>
        <time>2021-06-12T09:58:17.000Z</time>
      </trkpt>
      <trkpt lat="47.3256" lon="-1.30706">
        <ele>59</ele>
        <time>2021-06-12T09:58:19.000Z</time>
      </trkpt>
      <trkpt lat="47.32552" lon="-1.30723">
        <ele>59</ele>
        <time>2021-06-12T09:58:21.000Z</time>
      </trkpt>
      <trkpt lat="47.32545" lon="-1.3074">
        <ele>59</ele>
        <time>2021-06-12T09:58:23.000Z</time>
      </trkpt>
      <trkpt lat="47.32538" lon="-1.30757">
        <ele>59</ele>
        <time>2021-06-12T09:58:25.000Z</time>
      </trkpt>
      <trkpt lat="47.32531" lon="-1.30774">
        <ele>59</ele>
        <time>2021-06-12T09:58:27.000Z</time>
      </trkpt>
      <trkpt lat="47.32525" lon="-1.30792">
        <ele>60</ele>
        <time>2021-06-12T09:58:29.000Z</time>
      </trkpt>
      <trkpt lat="47.32518" lon="-1.3081">
        <ele>60</ele>
        <time>2021-06-12T09:58:31.000Z</time>
      </trkpt>
      <trkpt lat="47.32511" lon="-1.30827">
        <ele>59</ele>
        <time>2021-06-12T09:58:33.000Z</time>
      </trkpt>
      <trkpt lat="47.32505" lon="-1.30845">
        <ele>59</ele>
        <time>2021-06-12T09:58:35.000Z</time>
      </trkpt>
      <trkpt lat="47.32499" lon="-1.30863">
        <ele>59</ele>
        <time>2021-06-12T09:58:37.000Z</time>
      </trkpt>
      <trkpt lat="47.32493" lon="-1.3088">
        <ele>59</ele>
        <time>2021-06-12T09:58:39.000Z</time>
      </trkpt>
      <trkpt lat="47.32486" lon="-1.30898">
        <ele>59</ele>
        <time>2021-06-12T09:58:41.000Z</time>
      </trkpt>
      <trkpt lat="47.3248" lon="-1.30916">
        <ele>59</ele>
        <time>2021-06-12T09:58:43.000Z</time>
      </trkpt>
      <trkpt lat="47.32473" lon="-1.30934">
        <ele>60</ele>
        <time>2021-06-12T09:58:45.000Z</time>
      </trkpt>
      <trkpt lat="47.32467" lon="-1.30951">
        <ele>60</ele>
        <time>2021-06-12T09:58:47.000Z</time>
      </trkpt>
      <trkpt lat="47.3246" lon="-1.30969">
        <ele>60</ele>
        <time>2021-06-12T09:58:49.000Z</time>
      </trkpt>
      <trkpt lat="47.32455" lon="-1.30987">
        <ele>59</ele>
        <time>2021-06-12T09:58:51.000Z</time>
      </trkpt>
      <trkpt lat="47.32449" lon="-1.31006">
        <ele>59</ele>
        <time>2021-06-12T09:58:53.000Z</time>
      </trkpt>
      <trkpt lat="47.32445" lon="-1.31025">
        <ele>59</ele>
        <time>2021-06-12T09:58:55.000Z</time>
      </trkpt>
      <trkpt lat="47.3244" lon="-1.31044">
        <ele>59</ele>
        <time>2021-06-12T09:58:57.000Z</time>
      </trkpt>
      <trkpt lat="47.32436" lon="-1.31063">
        <ele>60</ele>
        <time>2021-06-12T09:58:59.000Z</time>
      </trkpt>
      <trkpt lat="47.3243" lon="-1.31082">
        <ele>60</ele>
        <time>2021-06-12T09:59:01.000Z</time>
      </trkpt>
      <trkpt lat="47.32424" lon="-1.311">
        <ele>61</ele>
        <time>2021-06-12T09:59:03.000Z</time>
      </trkpt>
      <trkpt lat="47.32418" lon="-1.31119">
        <ele>60</ele>
        <time>2021-06-12T09:59:05.000Z</time>
      </trkpt>
      <trkpt lat="47.32413" lon="-1.31139">
        <ele>60</ele>
        <time>2021-06-12T09:59:07.000Z</time>
      </trkpt>
      <trkpt lat="47.32407" lon="-1.31158">
        <ele>61</ele>
        <time>2021-06-12T09:59:09.000Z</time>
      </trkpt>
      <trkpt lat="47.32401" lon="-1.31177">
        <ele>60</ele>
        <time>2021-06-12T09:59:11.000Z</time>
      </trkpt>
      <trkpt lat="47.32395" lon="-1.31196">
        <ele>60</ele>
        <time>2021-06-12T09:59:13.000Z</time>
      </trkpt>
      <trkpt lat="47.32389" lon="-1.31213">
        <ele>61</ele>
        <time>2021-06-12T09:59:15.000Z</time>
      </trkpt>
      <trkpt lat="47.32382" lon="-1.31231">
        <ele>61</ele>
        <time>2021-06-12T09:59:17.000Z</time>
      </trkpt>
      <trkpt lat="47.32375" lon="-1.31248">
        <ele>61</ele>
        <time>2021-06-12T09:59:19.000Z</time>
      </trkpt>
      <trkpt lat="47.32368" lon="-1.31265">
        <ele>61</ele>
        <time>2021-06-12T09:59:21.000Z</time>
      </trkpt>
      <trkpt lat="47.32359" lon="-1.31279">
        <ele>61</ele>
        <time>2021-06-12T09:59:23.000Z</time>
      </trkpt>
      <trkpt lat="47.3235" lon="-1.31294">
        <ele>61</ele>
        <time>2021-06-12T09:59:25.000Z</time>
      </trkpt>
      <trkpt lat="47.32341" lon="-1.31309">
        <ele>62</ele>
        <time>2021-06-12T09:59:27.000Z</time>
      </trkpt>
      <trkpt lat="47.32332" lon="-1.31322">
        <ele>62</ele>
        <time>2021-06-12T09:59:29.000Z</time>
      </trkpt>
      <trkpt lat="47.32322" lon="-1.31337">
        <ele>62</ele>
        <time>2021-06-12T09:59:31.000Z</time>
      </trkpt>
      <trkpt lat="47.32313" lon="-1.31352">
        <ele>62</ele>
        <time>2021-06-12T09:59:33.000Z</time>
      </trkpt>
      <trkpt lat="47.32304" lon="-1.31365">
        <ele>62</ele>
        <time>2021-06-12T09:59:35.000Z</time>
      </trkpt>
      <trkpt lat="47.32294" lon="-1.31379">
        <ele>62</ele>
        <time>2021-06-12T09:59:37.000Z</time>
      </trkpt>
      <trkpt lat="47.32284" lon="-1.31394">
        <ele>62</ele>
        <time>2021-06-12T09:59:39.000Z</time>
      </trkpt>
      <trkpt lat="47.32275" lon="-1.31409">
        <ele>63</ele>
        <time>2021-06-12T09:59:41.000Z</time>
      </trkpt>
      <trkpt lat="47.32265" lon="-1.31423">
        <ele>63</ele>
        <time>2021-06-12T09:59:43.000Z</time>
      </trkpt>
      <trkpt lat="47.32256" lon="-1.31437">
        <ele>63</ele>
        <time>2021-06-12T09:59:45.000Z</time>
      </trkpt>
      <trkpt lat="47.32247" lon="-1.3145">
        <ele>63</ele>
        <time>2021-06-12T09:59:47.000Z</time>
      </trkpt>
      <trkpt lat="47.32237" lon="-1.31465">
        <ele>63</ele>
        <time>2021-06-12T09:59:49.000Z</time>
      </trkpt>
      <trkpt lat="47.32227" lon="-1.3148">
        <ele>62</ele>
        <time>2021-06-12T09:59:51.000Z</time>
      </trkpt>
      <trkpt lat="47.32216" lon="-1.31495">
        <ele>62</ele>
        <time>2021-06-12T09:59:53.000Z</time>
      </trkpt>
      <trkpt lat="47.32207" lon="-1.3151">
        <ele>63</ele>
        <time>2021-06-12T09:59:55.000Z</time>
      </trkpt>
      <trkpt lat="47.32199" lon="-1.31525">
        <ele>63</ele>
        <time>2021-06-12T09:59:57.000Z</time>
      </trkpt>
      <trkpt lat="47.3219" lon="-1.3154">
        <ele>63</ele>
        <time>2021-06-12T09:59:59.000Z</time>
      </trkpt>
      <trkpt lat="47.32181" lon="-1.31555">
        <ele>63</ele>
        <time>2021-06-12T10:00:01.000Z</time>
      </trkpt>
      <trkpt lat="47.32172" lon="-1.31571">
        <ele>62</ele>
        <time>2021-06-12T10:00:03.000Z</time>
      </trkpt>
      <trkpt lat="47.32163" lon="-1.31586">
        <ele>62</ele>
        <time>2021-06-12T10:00:05.000Z</time>
      </trkpt>
      <trkpt lat="47.32154" lon="-1.316">
        <ele>62</ele>
        <time>2021-06-12T10:00:07.000Z</time>
      </trkpt>
      <trkpt lat="47.32145" lon="-1.31615">
        <ele>63</ele>
        <time>2021-06-12T10:00:09.000Z</time>
      </trkpt>
      <trkpt lat="47.32136" lon="-1.3163">
        <ele>63</ele>
        <time>2021-06-12T10:00:11.000Z</time>
      </trkpt>
      <trkpt lat="47.32127" lon="-1.31645">
        <ele>64</ele>
        <time>2021-06-12T10:00:13.000Z</time>
      </trkpt>
      <trkpt lat="47.32118" lon="-1.3166">
        <ele>64</ele>
        <time>2021-06-12T10:00:15.000Z</time>
      </trkpt>
      <trkpt lat="47.32109" lon="-1.31674">
        <ele>64</ele>
        <time>2021-06-12T10:00:17.000Z</time>
      </trkpt>
      <trkpt lat="47.32099" lon="-1.31689">
        <ele>64</ele>
        <time>2021-06-12T10:00:19.000Z</time>
      </trkpt>
      <trkpt lat="47.3209" lon="-1.31704">
        <ele>64</ele>
        <time>2021-06-12T10:00:21.000Z</time>
      </trkpt>
      <trkpt lat="47.32082" lon="-1.31718">
        <ele>64</ele>
        <time>2021-06-12T10:00:23.000Z</time>
      </trkpt>
      <trkpt lat="47.32074" lon="-1.31734">
        <ele>64</ele>
        <time>2021-06-12T10:00:25.000Z</time>
      </trkpt>
      <trkpt lat="47.32067" lon="-1.31751">
        <ele>64</ele>
        <time>2021-06-12T10:00:27.000Z</time>
      </trkpt>
      <trkpt lat="47.32059" lon="-1.31767">
        <ele>63</ele>
        <time>2021-06-12T10:00:29.000Z</time>
      </trkpt>
      <trkpt lat="47.32052" lon="-1.31784">
        <ele>64</ele>
        <time>2021-06-12T10:00:31.000Z</time>
      </trkpt>
      <trkpt lat="47.32046" lon="-1.31802">
        <ele>64</ele>
        <time>2021-06-12T10:00:33.000Z</time>
      </trkpt>
      <trkpt lat="47.3204" lon="-1.31819">
        <ele>64</ele>
        <time>2021-06-12T10:00:35.000Z</time>
      </trkpt>
      <trkpt lat="47.32033" lon="-1.31837">
        <ele>64</ele>
        <time>2021-06-12T10:00:37.000Z</time>
      </trkpt>
      <trkpt lat="47.32027" lon="-1.31854">
        <ele>63</ele>
        <time>2021-06-12T10:00:39.000Z</time>
      </trkpt>
      <trkpt lat="47.32021" lon="-1.31871">
        <ele>64</ele>
        <time>2021-06-12T10:00:41.000Z</time>
      </trkpt>
      <trkpt lat="47.32015" lon="-1.31889">
        <ele>64</ele>
        <time>2021-06-12T10:00:43.000Z</time>
      </trkpt>
      <trkpt lat="47.32009" lon="-1.31906">
        <ele>65</ele>
        <time>2021-06-12T10:00:45.000Z</time>
      </trkpt>
      <trkpt lat="47.32003" lon="-1.31923">
        <ele>65</ele>
        <time>2021-06-12T10:00:47.000Z</time>
      </trkpt>
      <trkpt lat="47.31997" lon="-1.31942">
        <ele>64</ele>
        <time>2021-06-12T10:00:49.000Z</time>
      </trkpt>
      <trkpt lat="47.3199" lon="-1.31958">
        <ele>64</ele>
        <time>2021-06-12T10:00:51.000Z</time>
      </trkpt>
      <trkpt lat="47.31982" lon="-1.31973">
        <ele>63</ele>
        <time>2021-06-12T10:00:53.000Z</time>
      </trkpt>
      <trkpt lat="47.31974" lon="-1.31989">
        <ele>63</ele>
        <time>2021-06-12T10:00:55.000Z</time>
      </trkpt>
      <trkpt lat="47.31965" lon="-1.32002">
        <ele>63</ele>
        <time>2021-06-12T10:00:57.000Z</time>
      </trkpt>
      <trkpt lat="47.31953" lon="-1.32012">
        <ele>63</ele>
        <time>2021-06-12T10:00:59.000Z</time>
      </trkpt>
      <trkpt lat="47.3194" lon="-1.32015">
        <ele>62</ele>
        <time>2021-06-12T10:01:01.000Z</time>
      </trkpt>
      <trkpt lat="47.31926" lon="-1.32016">
        <ele>61</ele>
        <time>2021-06-12T10:01:03.000Z</time>
      </trkpt>
      <trkpt lat="47.31912" lon="-1.32014">
        <ele>61</ele>
        <time>2021-06-12T10:01:05.000Z</time>
      </trkpt>
      <trkpt lat="47.31898" lon="-1.32011">
        <ele>61</ele>
        <time>2021-06-12T10:01:07.000Z</time>
      </trkpt>
      <trkpt lat="47.31884" lon="-1.32003">
        <ele>61</ele>
        <time>2021-06-12T10:01:09.000Z</time>
      </trkpt>
      <trkpt lat="47.31871" lon="-1.31995">
        <ele>61</ele>
        <time>2021-06-12T10:01:11.000Z</time>
      </trkpt>
      <trkpt lat="47.31859" lon="-1.31986">
        <ele>62</ele>
        <time>2021-06-12T10:01:13.000Z</time>
      </trkpt>
      <trkpt lat="47.31847" lon="-1.31978">
        <ele>61</ele>
        <time>2021-06-12T10:01:15.000Z</time>
      </trkpt>
      <trkpt lat="47.31837" lon="-1.31971">
        <ele>61</ele>
        <time>2021-06-12T10:01:17.000Z</time>
      </trkpt>
      <trkpt lat="47.31826" lon="-1.31964">
        <ele>61</ele>
        <time>2021-06-12T10:01:19.000Z</time>
      </trkpt>
      <trkpt lat="47.31816" lon="-1.31957">
        <ele>61</ele>
        <time>2021-06-12T10:01:21.000Z</time>
      </trkpt>
      <trkpt lat="47.31805" lon="-1.31955">
        <ele>62</ele>
        <time>2021-06-12T10:01:23.000Z</time>
      </trkpt>
      <trkpt lat="47.31797" lon="-1.31966">
        <ele>61</ele>
        <time>2021-06-12T10:01:25.000Z</time>
      </trkpt>
      <trkpt lat="47.31792" lon="-1.31983">
        <ele>61</ele>
        <time>2021-06-12T10:01:27.000Z</time>
      </trkpt>
      <trkpt lat="47.31786" lon="-1.32">
        <ele>61</ele>
        <time>2021-06-12T10:01:29.000Z</time>
      </trkpt>
      <trkpt lat="47.31781" lon="-1.32018">
        <ele>61</ele>
        <time>2021-06-12T10:01:31.000Z</time>
      </trkpt>
      <trkpt lat="47.31774" lon="-1.32035">
        <ele>61</ele>
        <time>2021-06-12T10:01:33.000Z</time>
      </trkpt>
      <trkpt lat="47.31768" lon="-1.32052">
        <ele>61</ele>
        <time>2021-06-12T10:01:35.000Z</time>
      </trkpt>
      <trkpt lat="47.31761" lon="-1.32068">
        <ele>62</ele>
        <time>2021-06-12T10:01:37.000Z</time>
      </trkpt>
      <trkpt lat="47.31756" lon="-1.32083">
        <ele>62</ele>
        <time>2021-06-12T10:01:39.000Z</time>
      </trkpt>
      <trkpt lat="47.31751" lon="-1.32099">
        <ele>62</ele>
        <time>2021-06-12T10:01:41.000Z</time>
      </trkpt>
      <trkpt lat="47.31745" lon="-1.32115">
        <ele>62</ele>
        <time>2021-06-12T10:01:43.000Z</time>
      </trkpt>
      <trkpt lat="47.31739" lon="-1.32133">
        <ele>61</ele>
        <time>2021-06-12T10:01:45.000Z</time>
      </trkpt>
      <trkpt lat="47.31735" lon="-1.32153">
        <ele>60</ele>
        <time>2021-06-12T10:01:47.000Z</time>
      </trkpt>
      <trkpt lat="47.31731" lon="-1.32172">
        <ele>60</ele>
        <time>2021-06-12T10:01:49.000Z</time>
      </trkpt>
      <trkpt lat="47.31729" lon="-1.32191">
        <ele>60</ele>
        <time>2021-06-12T10:01:51.000Z</time>
      </trkpt>
      <trkpt lat="47.31727" lon="-1.32211">
        <ele>60</ele>
        <time>2021-06-12T10:01:53.000Z</time>
      </trkpt>
      <trkpt lat="47.31724" lon="-1.32231">
        <ele>60</ele>
        <time>2021-06-12T10:01:55.000Z</time>
      </trkpt>
      <trkpt lat="47.31721" lon="-1.32249">
        <ele>60</ele>
        <time>2021-06-12T10:01:57.000Z</time>
      </trkpt>
      <trkpt lat="47.31717" lon="-1.32268">
        <ele>60</ele>
        <time>2021-06-12T10:01:59.000Z</time>
      </trkpt>
      <trkpt lat="47.31713" lon="-1.32287">
        <ele>60</ele>
        <time>2021-06-12T10:02:01.000Z</time>
      </trkpt>
      <trkpt lat="47.31709" lon="-1.32305">
        <ele>61</ele>
        <time>2021-06-12T10:02:03.000Z</time>
      </trkpt>
      <trkpt lat="47.31705" lon="-1.32324">
        <ele>61</ele>
        <time>2021-06-12T10:02:05.000Z</time>
      </trkpt>
      <trkpt lat="47.31702" lon="-1.32344">
        <ele>61</ele>
        <time>2021-06-12T10:02:07.000Z</time>
      </trkpt>
      <trkpt lat="47.31698" lon="-1.32362">
        <ele>60</ele>
        <time>2021-06-12T10:02:09.000Z</time>
      </trkpt>
      <trkpt lat="47.31695" lon="-1.32381">
        <ele>60</ele>
        <time>2021-06-12T10:02:11.000Z</time>
      </trkpt>
      <trkpt lat="47.31692" lon="-1.32401">
        <ele>60</ele>
        <time>2021-06-12T10:02:13.000Z</time>
      </trkpt>
      <trkpt lat="47.31692" lon="-1.3242">
        <ele>60</ele>
        <time>2021-06-12T10:02:15.000Z</time>
      </trkpt>
      <trkpt lat="47.31691" lon="-1.32439">
        <ele>60</ele>
        <time>2021-06-12T10:02:17.000Z</time>
      </trkpt>
      <trkpt lat="47.31689" lon="-1.32458">
        <ele>60</ele>
        <time>2021-06-12T10:02:19.000Z</time>
      </trkpt>
      <trkpt lat="47.31687" lon="-1.32476">
        <ele>60</ele>
        <time>2021-06-12T10:02:21.000Z</time>
      </trkpt>
      <trkpt lat="47.31682" lon="-1.32494">
        <ele>61</ele>
        <time>2021-06-12T10:02:23.000Z</time>
      </trkpt>
      <trkpt lat="47.31675" lon="-1.32511">
        <ele>61</ele>
        <time>2021-06-12T10:02:25.000Z</time>
      </trkpt>
      <trkpt lat="47.31668" lon="-1.32528">
        <ele>61</ele>
        <time>2021-06-12T10:02:27.000Z</time>
      </trkpt>
      <trkpt lat="47.3166" lon="-1.32545">
        <ele>61</ele>
        <time>2021-06-12T10:02:29.000Z</time>
      </trkpt>
      <trkpt lat="47.31651" lon="-1.32562">
        <ele>61</ele>
        <time>2021-06-12T10:02:31.000Z</time>
      </trkpt>
      <trkpt lat="47.31643" lon="-1.32577">
        <ele>61</ele>
        <time>2021-06-12T10:02:33.000Z</time>
      </trkpt>
      <trkpt lat="47.31635" lon="-1.32592">
        <ele>60</ele>
        <time>2021-06-12T10:02:35.000Z</time>
      </trkpt>
      <trkpt lat="47.31627" lon="-1.32607">
        <ele>60</ele>
        <time>2021-06-12T10:02:37.000Z</time>
      </trkpt>
      <trkpt lat="47.31618" lon="-1.32622">
        <ele>60</ele>
        <time>2021-06-12T10:02:39.000Z</time>
      </trkpt>
      <trkpt lat="47.31608" lon="-1.32635">
        <ele>60</ele>
        <time>2021-06-12T10:02:41.000Z</time>
      </trkpt>
      <trkpt lat="47.31598" lon="-1.32647">
        <ele>60</ele>
        <time>2021-06-12T10:02:43.000Z</time>
      </trkpt>
      <trkpt lat="47.31588" lon="-1.3266">
        <ele>60</ele>
        <time>2021-06-12T10:02:45.000Z</time>
      </trkpt>
      <trkpt lat="47.31579" lon="-1.3267">
        <ele>61</ele>
        <time>2021-06-12T10:02:47.000Z</time>
      </trkpt>
      <trkpt lat="47.31569" lon="-1.32681">
        <ele>62</ele>
        <time>2021-06-12T10:02:49.000Z</time>
      </trkpt>
      <trkpt lat="47.3156" lon="-1.32695">
        <ele>62</ele>
        <time>2021-06-12T10:02:51.000Z</time>
      </trkpt>
      <trkpt lat="47.3155" lon="-1.32708">
        <ele>62</ele>
        <time>2021-06-12T10:02:53.000Z</time>
      </trkpt>
      <trkpt lat="47.31539" lon="-1.32722">
        <ele>62</ele>
        <time>2021-06-12T10:02:55.000Z</time>
      </trkpt>
      <trkpt lat="47.31528" lon="-1.32735">
        <ele>61</ele>
        <time>2021-06-12T10:02:57.000Z</time>
      </trkpt>
      <trkpt lat="47.31516" lon="-1.32747">
        <ele>60</ele>
        <time>2021-06-12T10:02:59.000Z</time>
      </trkpt>
      <trkpt lat="47.31506" lon="-1.3276">
        <ele>60</ele>
        <time>2021-06-12T10:03:01.000Z</time>
      </trkpt>
      <trkpt lat="47.31494" lon="-1.32773">
        <ele>59</ele>
        <time>2021-06-12T10:03:03.000Z</time>
      </trkpt>
      <trkpt lat="47.31483" lon="-1.32785">
        <ele>59</ele>
        <time>2021-06-12T10:03:05.000Z</time>
      </trkpt>
      <trkpt lat="47.3147" lon="-1.32796">
        <ele>59</ele>
        <time>2021-06-12T10:03:07.000Z</time>
      </trkpt>
      <trkpt lat="47.31457" lon="-1.32805">
        <ele>58</ele>
        <time>2021-06-12T10:03:09.000Z</time>
      </trkpt>
      <trkpt lat="47.31445" lon="-1.32815">
        <ele>58</ele>
        <time>2021-06-12T10:03:11.000Z</time>
      </trkpt>
      <trkpt lat="47.31433" lon="-1.32826">
        <ele>58</ele>
        <time>2021-06-12T10:03:13.000Z</time>
      </trkpt>
      <trkpt lat="47.31422" lon="-1.32835">
        <ele>58</ele>
        <time>2021-06-12T10:03:15.000Z</time>
      </trkpt>
      <trkpt lat="47.31411" lon="-1.32844">
        <ele>59</ele>
        <time>2021-06-12T10:03:17.000Z</time>
      </trkpt>
      <trkpt lat="47.31399" lon="-1.32854">
        <ele>58</ele>
        <time>2021-06-12T10:03:19.000Z</time>
      </trkpt>
      <trkpt lat="47.31387" lon="-1.32864">
        <ele>58</ele>
        <time>2021-06-12T10:03:21.000Z</time>
      </trkpt>
      <trkpt lat="47.31376" lon="-1.32873">
        <ele>58</ele>
        <time>2021-06-12T10:03:23.000Z</time>
      </trkpt>
      <trkpt lat="47.31363" lon="-1.32884">
        <ele>58</ele>
        <time>2021-06-12T10:03:25.000Z</time>
      </trkpt>
      <trkpt lat="47.31351" lon="-1.32894">
        <ele>58</ele>
        <time>2021-06-12T10:03:27.000Z</time>
      </trkpt>
      <trkpt lat="47.31339" lon="-1.32905">
        <ele>58</ele>
        <time>2021-06-12T10:03:29.000Z</time>
      </trkpt>
      <trkpt lat="47.31327" lon="-1.32915">
        <ele>59</ele>
        <time>2021-06-12T10:03:31.000Z</time>
      </trkpt>
      <trkpt lat="47.31314" lon="-1.32926">
        <ele>59</ele>
        <time>2021-06-12T10:03:33.000Z</time>
      </trkpt>
      <trkpt lat="47.31303" lon="-1.32936">
        <ele>59</ele>
        <time>2021-06-12T10:03:35.000Z</time>
      </trkpt>
      <trkpt lat="47.3129" lon="-1.32947">
        <ele>58</ele>
        <time>2021-06-12T10:03:37.000Z</time>
      </trkpt>
      <trkpt lat="47.31278" lon="-1.32957">
        <ele>58</ele>
        <time>2021-06-12T10:03:39.000Z</time>
      </trkpt>
      <trkpt lat="47.31266" lon="-1.32967">
        <ele>59</ele>
        <time>2021-06-12T10:03:41.000Z</time>
      </trkpt>
      <trkpt lat="47.31254" lon="-1.32977">
        <ele>59</ele>
        <time>2021-06-12T10:03:43.000Z</time>
      </trkpt>
      <trkpt lat="47.31243" lon="-1.32985">
        <ele>59</ele>
        <time>2021-06-12T10:03:45.000Z</time>
      </trkpt>
      <trkpt lat="47.3123" lon="-1.32991">
        <ele>59</ele>
        <time>2021-06-12T10:03:47.000Z</time>
      </trkpt>
      <trkpt lat="47.31217" lon="-1.32998">
        <ele>59</ele>
        <time>2021-06-12T10:03:49.000Z</time>
      </trkpt>
      <trkpt lat="47.31204" lon="-1.33003">
        <ele>59</ele>
        <time>2021-06-12T10:03:51.000Z</time>
      </trkpt>
      <trkpt lat="47.31191" lon="-1.33008">
        <ele>60</ele>
        <time>2021-06-12T10:03:53.000Z</time>
      </trkpt>
      <trkpt lat="47.31178" lon="-1.33013">
        <ele>59</ele>
        <time>2021-06-12T10:03:55.000Z</time>
      </trkpt>
      <trkpt lat="47.31165" lon="-1.33017">
        <ele>59</ele>
        <time>2021-06-12T10:03:57.000Z</time>
      </trkpt>
      <trkpt lat="47.31151" lon="-1.33022">
        <ele>59</ele>
        <time>2021-06-12T10:03:59.000Z</time>
      </trkpt>
      <trkpt lat="47.31137" lon="-1.33027">
        <ele>58</ele>
        <time>2021-06-12T10:04:01.000Z</time>
      </trkpt>
      <trkpt lat="47.31124" lon="-1.33032">
        <ele>58</ele>
        <time>2021-06-12T10:04:03.000Z</time>
      </trkpt>
      <trkpt lat="47.31111" lon="-1.33038">
        <ele>58</ele>
        <time>2021-06-12T10:04:05.000Z</time>
      </trkpt>
      <trkpt lat="47.31098" lon="-1.33044">
        <ele>58</ele>
        <time>2021-06-12T10:04:07.000Z</time>
      </trkpt>
      <trkpt lat="47.31084" lon="-1.33049">
        <ele>58</ele>
        <time>2021-06-12T10:04:09.000Z</time>
      </trkpt>
      <trkpt lat="47.3107" lon="-1.33055">
        <ele>58</ele>
        <time>2021-06-12T10:04:11.000Z</time>
      </trkpt>
      <trkpt lat="47.31057" lon="-1.33061">
        <ele>58</ele>
        <time>2021-06-12T10:04:13.000Z</time>
      </trkpt>
      <trkpt lat="47.31044" lon="-1.33066">
        <ele>58</ele>
        <time>2021-06-12T10:04:15.000Z</time>
      </trkpt>
      <trkpt lat="47.3103" lon="-1.33072">
        <ele>58</ele>
        <time>2021-06-12T10:04:17.000Z</time>
      </trkpt>
      <trkpt lat="47.31017" lon="-1.33077">
        <ele>58</ele>
        <time>2021-06-12T10:04:19.000Z</time>
      </trkpt>
      <trkpt lat="47.31003" lon="-1.33083">
        <ele>57</ele>
        <time>2021-06-12T10:04:21.000Z</time>
      </trkpt>
      <trkpt lat="47.3099" lon="-1.33089">
        <ele>57</ele>
        <time>2021-06-12T10:04:23.000Z</time>
      </trkpt>
      <trkpt lat="47.30976" lon="-1.33094">
        <ele>57</ele>
        <time>2021-06-12T10:04:25.000Z</time>
      </trkpt>
      <trkpt lat="47.30963" lon="-1.331">
        <ele>57</ele>
        <time>2021-06-12T10:04:27.000Z</time>
      </trkpt>
      <trkpt lat="47.3095" lon="-1.33106">
        <ele>57</ele>
        <time>2021-06-12T10:04:29.000Z</time>
      </trkpt>
      <trkpt lat="47.30937" lon="-1.33111">
        <ele>57</ele>
        <time>2021-06-12T10:04:31.000Z</time>
      </trkpt>
      <trkpt lat="47.30924" lon="-1.33117">
        <ele>57</ele>
        <time>2021-06-12T10:04:33.000Z</time>
      </trkpt>
      <trkpt lat="47.30911" lon="-1.33122">
        <ele>56</ele>
        <time>2021-06-12T10:04:35.000Z</time>
      </trkpt>
      <trkpt lat="47.30897" lon="-1.33128">
        <ele>57</ele>
        <time>2021-06-12T10:04:37.000Z</time>
      </trkpt>
      <trkpt lat="47.30884" lon="-1.33133">
        <ele>56</ele>
        <time>2021-06-12T10:04:39.000Z</time>
      </trkpt>
      <trkpt lat="47.30871" lon="-1.33138">
        <ele>56</ele>
        <time>2021-06-12T10:04:41.000Z</time>
      </trkpt>
      <trkpt lat="47.30859" lon="-1.33143">
        <ele>56</ele>
        <time>2021-06-12T10:04:43.000Z</time>
      </trkpt>
      <trkpt lat="47.30846" lon="-1.33149">
        <ele>56</ele>
        <time>2021-06-12T10:04:45.000Z</time>
      </trkpt>
      <trkpt lat="47.30833" lon="-1.33155">
        <ele>56</ele>
        <time>2021-06-12T10:04:47.000Z</time>
      </trkpt>
      <trkpt lat="47.3082" lon="-1.33161">
        <ele>56</ele>
        <time>2021-06-12T10:04:49.000Z</time>
      </trkpt>
      <trkpt lat="47.30807" lon="-1.33166">
        <ele>56</ele>
        <time>2021-06-12T10:04:51.000Z</time>
      </trkpt>
      <trkpt lat="47.30794" lon="-1.33172">
        <ele>56</ele>
        <time>2021-06-12T10:04:53.000Z</time>
      </trkpt>
      <trkpt lat="47.30781" lon="-1.33177">
        <ele>56</ele>
        <time>2021-06-12T10:04:55.000Z</time>
      </trkpt>
      <trkpt lat="47.30768" lon="-1.33182">
        <ele>56</ele>
        <time>2021-06-12T10:04:57.000Z</time>
      </trkpt>
      <trkpt lat="47.30755" lon="-1.33188">
        <ele>56</ele>
        <time>2021-06-12T10:04:59.000Z</time>
      </trkpt>
      <trkpt lat="47.30743" lon="-1.33193">
        <ele>56</ele>
        <time>2021-06-12T10:05:01.000Z</time>
      </trkpt>
      <trkpt lat="47.30729" lon="-1.33199">
        <ele>56</ele>
        <time>2021-06-12T10:05:03.000Z</time>
      </trkpt>
      <trkpt lat="47.30716" lon="-1.33205">
        <ele>56</ele>
        <time>2021-06-12T10:05:05.000Z</time>
      </trkpt>
      <trkpt lat="47.30703" lon="-1.33209">
        <ele>56</ele>
        <time>2021-06-12T10:05:07.000Z</time>
      </trkpt>
      <trkpt lat="47.3069" lon="-1.33214">
        <ele>56</ele>
        <time>2021-06-12T10:05:09.000Z</time>
      </trkpt>
      <trkpt lat="47.30677" lon="-1.33218">
        <ele>56</ele>
        <time>2021-06-12T10:05:11.000Z</time>
      </trkpt>
      <trkpt lat="47.30664" lon="-1.33222">
        <ele>56</ele>
        <time>2021-06-12T10:05:13.000Z</time>
      </trkpt>
      <trkpt lat="47.30651" lon="-1.33227">
        <ele>56</ele>
        <time>2021-06-12T10:05:15.000Z</time>
      </trkpt>
      <trkpt lat="47.30639" lon="-1.33231">
        <ele>57</ele>
        <time>2021-06-12T10:05:17.000Z</time>
      </trkpt>
      <trkpt lat="47.30628" lon="-1.33241">
        <ele>57</ele>
        <time>2021-06-12T10:05:19.000Z</time>
      </trkpt>
      <trkpt lat="47.30621" lon="-1.33255">
        <ele>57</ele>
        <time>2021-06-12T10:05:21.000Z</time>
      </trkpt>
      <trkpt lat="47.30615" lon="-1.33274">
        <ele>57</ele>
        <time>2021-06-12T10:05:23.000Z</time>
      </trkpt>
      <trkpt lat="47.30614" lon="-1.33294">
        <ele>57</ele>
        <time>2021-06-12T10:05:25.000Z</time>
      </trkpt>
      <trkpt lat="47.30617" lon="-1.33314">
        <ele>57</ele>
        <time>2021-06-12T10:05:27.000Z</time>
      </trkpt>
      <trkpt lat="47.30624" lon="-1.3333">
        <ele>57</ele>
        <time>2021-06-12T10:05:29.000Z</time>
      </trkpt>
      <trkpt lat="47.30631" lon="-1.33347">
        <ele>57</ele>
        <time>2021-06-12T10:05:31.000Z</time>
      </trkpt>
      <trkpt lat="47.30638" lon="-1.33364">
        <ele>57</ele>
        <time>2021-06-12T10:05:33.000Z</time>
      </trkpt>
      <trkpt lat="47.30644" lon="-1.33381">
        <ele>57</ele>
        <time>2021-06-12T10:05:35.000Z</time>
      </trkpt>
      <trkpt lat="47.30651" lon="-1.33398">
        <ele>57</ele>
        <time>2021-06-12T10:05:37.000Z</time>
      </trkpt>
      <trkpt lat="47.30657" lon="-1.33415">
        <ele>57</ele>
        <time>2021-06-12T10:05:39.000Z</time>
      </trkpt>
      <trkpt lat="47.30663" lon="-1.33432">
        <ele>57</ele>
        <time>2021-06-12T10:05:41.000Z</time>
      </trkpt>
      <trkpt lat="47.30669" lon="-1.3345">
        <ele>57</ele>
        <time>2021-06-12T10:05:43.000Z</time>
      </trkpt>
      <trkpt lat="47.30674" lon="-1.33467">
        <ele>57</ele>
        <time>2021-06-12T10:05:45.000Z</time>
      </trkpt>
      <trkpt lat="47.3068" lon="-1.33485">
        <ele>57</ele>
        <time>2021-06-12T10:05:47.000Z</time>
      </trkpt>
      <trkpt lat="47.30686" lon="-1.33503">
        <ele>56</ele>
        <time>2021-06-12T10:05:49.000Z</time>
      </trkpt>
      <trkpt lat="47.30692" lon="-1.3352">
        <ele>56</ele>
        <time>2021-06-12T10:05:51.000Z</time>
      </trkpt>
      <trkpt lat="47.30698" lon="-1.33537">
        <ele>56</ele>
        <time>2021-06-12T10:05:53.000Z</time>
      </trkpt>
      <trkpt lat="47.30704" lon="-1.33555">
        <ele>56</ele>
        <time>2021-06-12T10:05:55.000Z</time>
      </trkpt>
      <trkpt lat="47.30709" lon="-1.33572">
        <ele>56</ele>
        <time>2021-06-12T10:05:57.000Z</time>
      </trkpt>
      <trkpt lat="47.30715" lon="-1.33589">
        <ele>56</ele>
        <time>2021-06-12T10:05:59.000Z</time>
      </trkpt>
      <trkpt lat="47.30721" lon="-1.33606">
        <ele>55</ele>
        <time>2021-06-12T10:06:01.000Z</time>
      </trkpt>
      <trkpt lat="47.30726" lon="-1.33624">
        <ele>55</ele>
        <time>2021-06-12T10:06:03.000Z</time>
      </trkpt>
      <trkpt lat="47.30727" lon="-1.33642">
        <ele>55</ele>
        <time>2021-06-12T10:06:05.000Z</time>
      </trkpt>
      <trkpt lat="47.30723" lon="-1.3366">
        <ele>55</ele>
        <time>2021-06-12T10:06:07.000Z</time>
      </trkpt>
      <trkpt lat="47.30717" lon="-1.33678">
        <ele>56</ele>
        <time>2021-06-12T10:06:09.000Z</time>
      </trkpt>
      <trkpt lat="47.30711" lon="-1.33695">
        <ele>56</ele>
        <time>2021-06-12T10:06:11.000Z</time>
      </trkpt>
      <trkpt lat="47.30704" lon="-1.33711">
        <ele>57</ele>
        <time>2021-06-12T10:06:13.000Z</time>
      </trkpt>
      <trkpt lat="47.30695" lon="-1.33726">
        <ele>57</ele>
        <time>2021-06-12T10:06:15.000Z</time>
      </trkpt>
      <trkpt lat="47.30685" lon="-1.33738">
        <ele>57</ele>
        <time>2021-06-12T10:06:17.000Z</time>
      </trkpt>
      <trkpt lat="47.30674" lon="-1.33747">
        <ele>57</ele>
        <time>2021-06-12T10:06:19.000Z</time>
      </trkpt>
      <trkpt lat="47.30662" lon="-1.33754">
        <ele>57</ele>
        <time>2021-06-12T10:06:21.000Z</time>
      </trkpt>
      <trkpt lat="47.3065" lon="-1.3376">
        <ele>58</ele>
        <time>2021-06-12T10:06:23.000Z</time>
      </trkpt>
      <trkpt lat="47.30637" lon="-1.33765">
        <ele>58</ele>
        <time>2021-06-12T10:06:25.000Z</time>
      </trkpt>
      <trkpt lat="47.30624" lon="-1.33768">
        <ele>58</ele>
        <time>2021-06-12T10:06:27.000Z</time>
      </trkpt>
      <trkpt lat="47.30611" lon="-1.33771">
        <ele>58</ele>
        <time>2021-06-12T10:06:29.000Z</time>
      </trkpt>
      <trkpt lat="47.30597" lon="-1.33775">
        <ele>58</ele>
        <time>2021-06-12T10:06:31.000Z</time>
      </trkpt>
      <trkpt lat="47.30584" lon="-1.33779">
        <ele>58</ele>
        <time>2021-06-12T10:06:33.000Z</time>
      </trkpt>
      <trkpt lat="47.30571" lon="-1.33783">
        <ele>57</ele>
        <time>2021-06-12T10:06:35.000Z</time>
      </trkpt>
      <trkpt lat="47.30559" lon="-1.3379">
        <ele>58</ele>
        <time>2021-06-12T10:06:37.000Z</time>
      </trkpt>
      <trkpt lat="47.30546" lon="-1.33797">
        <ele>57</ele>
        <time>2021-06-12T10:06:39.000Z</time>
      </trkpt>
      <trkpt lat="47.30534" lon="-1.33805">
        <ele>57</ele>
        <time>2021-06-12T10:06:41.000Z</time>
      </trkpt>
      <trkpt lat="47.30522" lon="-1.33812">
        <ele>57</ele>
        <time>2021-06-12T10:06:43.000Z</time>
      </trkpt>
      <trkpt lat="47.3051" lon="-1.3382">
        <ele>57</ele>
        <time>2021-06-12T10:06:45.000Z</time>
      </trkpt>
      <trkpt lat="47.30497" lon="-1.33829">
        <ele>57</ele>
        <time>2021-06-12T10:06:47.000Z</time>
      </trkpt>
      <trkpt lat="47.30485" lon="-1.33839">
        <ele>57</ele>
        <time>2021-06-12T10:06:49.000Z</time>
      </trkpt>
      <trkpt lat="47.30473" lon="-1.33849">
        <ele>57</ele>
        <time>2021-06-12T10:06:51.000Z</time>
      </trkpt>
      <trkpt lat="47.30462" lon="-1.33861">
        <ele>57</ele>
        <time>2021-06-12T10:06:53.000Z</time>
      </trkpt>
      <trkpt lat="47.30451" lon="-1.33872">
        <ele>57</ele>
        <time>2021-06-12T10:06:55.000Z</time>
      </trkpt>
      <trkpt lat="47.30441" lon="-1.33882">
        <ele>58</ele>
        <time>2021-06-12T10:06:57.000Z</time>
      </trkpt>
      <trkpt lat="47.3043" lon="-1.33893">
        <ele>58</ele>
        <time>2021-06-12T10:06:59.000Z</time>
      </trkpt>
      <trkpt lat="47.3042" lon="-1.33906">
        <ele>58</ele>
        <time>2021-06-12T10:07:01.000Z</time>
      </trkpt>
      <trkpt lat="47.30411" lon="-1.33919">
        <ele>58</ele>
        <time>2021-06-12T10:07:03.000Z</time>
      </trkpt>
      <trkpt lat="47.30402" lon="-1.33932">
        <ele>58</ele>
        <time>2021-06-12T10:07:05.000Z</time>
      </trkpt>
      <trkpt lat="47.30394" lon="-1.33944">
        <ele>59</ele>
        <time>2021-06-12T10:07:07.000Z</time>
      </trkpt>
      <trkpt lat="47.30385" lon="-1.33956">
        <ele>58</ele>
        <time>2021-06-12T10:07:09.000Z</time>
      </trkpt>
      <trkpt lat="47.30374" lon="-1.33961">
        <ele>58</ele>
        <time>2021-06-12T10:07:11.000Z</time>
      </trkpt>
      <trkpt lat="47.30364" lon="-1.33966">
        <ele>58</ele>
        <time>2021-06-12T10:07:13.000Z</time>
      </trkpt>
      <trkpt lat="47.30357" lon="-1.33984">
        <ele>58</ele>
        <time>2021-06-12T10:07:15.000Z</time>
      </trkpt>
      <trkpt lat="47.30351" lon="-1.33998">
        <ele>59</ele>
        <time>2021-06-12T10:07:17.000Z</time>
      </trkpt>
      <trkpt lat="47.30344" lon="-1.34012">
        <ele>59</ele>
        <time>2021-06-12T10:07:19.000Z</time>
      </trkpt>
      <trkpt lat="47.30335" lon="-1.34025">
        <ele>59</ele>
        <time>2021-06-12T10:07:21.000Z</time>
      </trkpt>
      <trkpt lat="47.30327" lon="-1.34039">
        <ele>58</ele>
        <time>2021-06-12T10:07:23.000Z</time>
      </trkpt>
      <trkpt lat="47.30317" lon="-1.34052">
        <ele>58</ele>
        <time>2021-06-12T10:07:25.000Z</time>
      </trkpt>
      <trkpt lat="47.30305" lon="-1.34063">
        <ele>58</ele>
        <time>2021-06-12T10:07:27.000Z</time>
      </trkpt>
      <trkpt lat="47.30294" lon="-1.34074">
        <ele>57</ele>
        <time>2021-06-12T10:07:29.000Z</time>
      </trkpt>
      <trkpt lat="47.30284" lon="-1.34084">
        <ele>57</ele>
        <time>2021-06-12T10:07:31.000Z</time>
      </trkpt>
      <trkpt lat="47.30275" lon="-1.34095">
        <ele>57</ele>
        <time>2021-06-12T10:07:33.000Z</time>
      </trkpt>
      <trkpt lat="47.30267" lon="-1.34104">
        <ele>58</ele>
        <time>2021-06-12T10:07:35.000Z</time>
      </trkpt>
      <trkpt lat="47.30255" lon="-1.34096">
        <ele>60</ele>
        <time>2021-06-12T10:07:38.000Z</time>
      </trkpt>
      <trkpt lat="47.30248" lon="-1.34082">
        <ele>59</ele>
        <time>2021-06-12T10:07:40.000Z</time>
      </trkpt>
      <trkpt lat="47.30242" lon="-1.34065">
        <ele>58</ele>
        <time>2021-06-12T10:07:42.000Z</time>
      </trkpt>
      <trkpt lat="47.30237" lon="-1.34047">
        <ele>57</ele>
        <time>2021-06-12T10:07:44.000Z</time>
      </trkpt>
      <trkpt lat="47.30232" lon="-1.3403">
        <ele>57</ele>
        <time>2021-06-12T10:07:46.000Z</time>
      </trkpt>
      <trkpt lat="47.30227" lon="-1.34015">
        <ele>57</ele>
        <time>2021-06-12T10:07:48.000Z</time>
      </trkpt>
      <trkpt lat="47.30222" lon="-1.34001">
        <ele>57</ele>
        <time>2021-06-12T10:07:50.000Z</time>
      </trkpt>
      <trkpt lat="47.30213" lon="-1.3399">
        <ele>57</ele>
        <time>2021-06-12T10:07:53.000Z</time>
      </trkpt>
      <trkpt lat="47.30204" lon="-1.33999">
        <ele>58</ele>
        <time>2021-06-12T10:07:56.000Z</time>
      </trkpt>
      <trkpt lat="47.30195" lon="-1.3401">
        <ele>59</ele>
        <time>2021-06-12T10:07:58.000Z</time>
      </trkpt>
      <trkpt lat="47.30185" lon="-1.3402">
        <ele>60</ele>
        <time>2021-06-12T10:08:00.000Z</time>
      </trkpt>
      <trkpt lat="47.30175" lon="-1.34031">
        <ele>61</ele>
        <time>2021-06-12T10:08:02.000Z</time>
      </trkpt>
      <trkpt lat="47.30164" lon="-1.34042">
        <ele>61</ele>
        <time>2021-06-12T10:08:04.000Z</time>
      </trkpt>
      <trkpt lat="47.30154" lon="-1.34053">
        <ele>61</ele>
        <time>2021-06-12T10:08:06.000Z</time>
      </trkpt>
      <trkpt lat="47.30143" lon="-1.34063">
        <ele>61</ele>
        <time>2021-06-12T10:08:08.000Z</time>
      </trkpt>
      <trkpt lat="47.30132" lon="-1.34073">
        <ele>60</ele>
        <time>2021-06-12T10:08:10.000Z</time>
      </trkpt>
      <trkpt lat="47.30123" lon="-1.34089">
        <ele>59</ele>
        <time>2021-06-12T10:08:12.000Z</time>
      </trkpt>
      <trkpt lat="47.30116" lon="-1.34107">
        <ele>59</ele>
        <time>2021-06-12T10:08:14.000Z</time>
      </trkpt>
      <trkpt lat="47.30111" lon="-1.34126">
        <ele>59</ele>
        <time>2021-06-12T10:08:16.000Z</time>
      </trkpt>
      <trkpt lat="47.30107" lon="-1.34138">
        <ele>58</ele>
        <time>2021-06-12T10:08:18.000Z</time>
      </trkpt>
      <trkpt lat="47.30097" lon="-1.3414">
        <ele>58</ele>
        <time>2021-06-12T10:08:21.000Z</time>
      </trkpt>
      <trkpt lat="47.30089" lon="-1.3413">
        <ele>58</ele>
        <time>2021-06-12T10:08:23.000Z</time>
      </trkpt>
      <trkpt lat="47.3008" lon="-1.3412">
        <ele>58</ele>
        <time>2021-06-12T10:08:25.000Z</time>
      </trkpt>
      <trkpt lat="47.30071" lon="-1.34109">
        <ele>58</ele>
        <time>2021-06-12T10:08:27.000Z</time>
      </trkpt>
      <trkpt lat="47.30059" lon="-1.34103">
        <ele>57</ele>
        <time>2021-06-12T10:08:29.000Z</time>
      </trkpt>
      <trkpt lat="47.30046" lon="-1.34103">
        <ele>57</ele>
        <time>2021-06-12T10:08:31.000Z</time>
      </trkpt>
      <trkpt lat="47.30034" lon="-1.3411">
        <ele>57</ele>
        <time>2021-06-12T10:08:33.000Z</time>
      </trkpt>
      <trkpt lat="47.30024" lon="-1.34117">
        <ele>56</ele>
        <time>2021-06-12T10:08:35.000Z</time>
      </trkpt>
      <trkpt lat="47.30017" lon="-1.34131">
        <ele>56</ele>
        <time>2021-06-12T10:08:37.000Z</time>
      </trkpt>
      <trkpt lat="47.30016" lon="-1.34149">
        <ele>56</ele>
        <time>2021-06-12T10:08:39.000Z</time>
      </trkpt>
      <trkpt lat="47.30021" lon="-1.34167">
        <ele>55</ele>
        <time>2021-06-12T10:08:41.000Z</time>
      </trkpt>
      <trkpt lat="47.30024" lon="-1.34186">
        <ele>55</ele>
        <time>2021-06-12T10:08:43.000Z</time>
      </trkpt>
      <trkpt lat="47.30028" lon="-1.34205">
        <ele>55</ele>
        <time>2021-06-12T10:08:45.000Z</time>
      </trkpt>
      <trkpt lat="47.30032" lon="-1.34224">
        <ele>55</ele>
        <time>2021-06-12T10:08:47.000Z</time>
      </trkpt>
      <trkpt lat="47.30036" lon="-1.34242">
        <ele>55</ele>
        <time>2021-06-12T10:08:49.000Z</time>
      </trkpt>
      <trkpt lat="47.3004" lon="-1.3426">
        <ele>55</ele>
        <time>2021-06-12T10:08:51.000Z</time>
      </trkpt>
      <trkpt lat="47.30043" lon="-1.34278">
        <ele>55</ele>
        <time>2021-06-12T10:08:53.000Z</time>
      </trkpt>
      <trkpt lat="47.30047" lon="-1.34296">
        <ele>55</ele>
        <time>2021-06-12T10:08:55.000Z</time>
      </trkpt>
      <trkpt lat="47.30051" lon="-1.34314">
        <ele>55</ele>
        <time>2021-06-12T10:08:57.000Z</time>
      </trkpt>
      <trkpt lat="47.30054" lon="-1.34332">
        <ele>55</ele>
        <time>2021-06-12T10:08:59.000Z</time>
      </trkpt>
      <trkpt lat="47.30058" lon="-1.34351">
        <ele>55</ele>
        <time>2021-06-12T10:09:01.000Z</time>
      </trkpt>
      <trkpt lat="47.30062" lon="-1.34369">
        <ele>55</ele>
        <time>2021-06-12T10:09:03.000Z</time>
      </trkpt>
      <trkpt lat="47.30065" lon="-1.34389">
        <ele>55</ele>
        <time>2021-06-12T10:09:05.000Z</time>
      </trkpt>
      <trkpt lat="47.30068" lon="-1.34408">
        <ele>54</ele>
        <time>2021-06-12T10:09:07.000Z</time>
      </trkpt>
      <trkpt lat="47.30072" lon="-1.34426">
        <ele>54</ele>
        <time>2021-06-12T10:09:09.000Z</time>
      </trkpt>
      <trkpt lat="47.30075" lon="-1.34445">
        <ele>54</ele>
        <time>2021-06-12T10:09:11.000Z</time>
      </trkpt>
      <trkpt lat="47.30078" lon="-1.34462">
        <ele>55</ele>
        <time>2021-06-12T10:09:13.000Z</time>
      </trkpt>
      <trkpt lat="47.30081" lon="-1.3448">
        <ele>54</ele>
        <time>2021-06-12T10:09:15.000Z</time>
      </trkpt>
      <trkpt lat="47.30083" lon="-1.34496">
        <ele>55</ele>
        <time>2021-06-12T10:09:17.000Z</time>
      </trkpt>
      <trkpt lat="47.30089" lon="-1.3451">
        <ele>55</ele>
        <time>2021-06-12T10:09:19.000Z</time>
      </trkpt>
      <trkpt lat="47.30096" lon="-1.34523">
        <ele>54</ele>
        <time>2021-06-12T10:09:21.000Z</time>
      </trkpt>
      <trkpt lat="47.30103" lon="-1.34535">
        <ele>55</ele>
        <time>2021-06-12T10:09:23.000Z</time>
      </trkpt>
      <trkpt lat="47.30107" lon="-1.34548">
        <ele>55</ele>
        <time>2021-06-12T10:09:25.000Z</time>
      </trkpt>
      <trkpt lat="47.30106" lon="-1.34563">
        <ele>55</ele>
        <time>2021-06-12T10:09:27.000Z</time>
      </trkpt>
      <trkpt lat="47.30103" lon="-1.34577">
        <ele>56</ele>
        <time>2021-06-12T10:09:29.000Z</time>
      </trkpt>
      <trkpt lat="47.30099" lon="-1.34596">
        <ele>58</ele>
        <time>2021-06-12T10:09:32.000Z</time>
      </trkpt>
      <trkpt lat="47.30099" lon="-1.34612">
        <ele>58</ele>
        <time>2021-06-12T10:09:35.000Z</time>
      </trkpt>
      <trkpt lat="47.30101" lon="-1.34627">
        <ele>59</ele>
        <time>2021-06-12T10:09:37.000Z</time>
      </trkpt>
      <trkpt lat="47.30103" lon="-1.34643">
        <ele>59</ele>
        <time>2021-06-12T10:09:39.000Z</time>
      </trkpt>
      <trkpt lat="47.30105" lon="-1.34662">
        <ele>59</ele>
        <time>2021-06-12T10:09:41.000Z</time>
      </trkpt>
      <trkpt lat="47.30106" lon="-1.34681">
        <ele>59</ele>
        <time>2021-06-12T10:09:43.000Z</time>
      </trkpt>
      <trkpt lat="47.30107" lon="-1.347">
        <ele>59</ele>
        <time>2021-06-12T10:09:45.000Z</time>
      </trkpt>
      <trkpt lat="47.30108" lon="-1.34719">
        <ele>59</ele>
        <time>2021-06-12T10:09:47.000Z</time>
      </trkpt>
      <trkpt lat="47.30108" lon="-1.34738">
        <ele>59</ele>
        <time>2021-06-12T10:09:49.000Z</time>
      </trkpt>
      <trkpt lat="47.30107" lon="-1.34757">
        <ele>59</ele>
        <time>2021-06-12T10:09:51.000Z</time>
      </trkpt>
      <trkpt lat="47.30107" lon="-1.34777">
        <ele>59</ele>
        <time>2021-06-12T10:09:53.000Z</time>
      </trkpt>
      <trkpt lat="47.30106" lon="-1.34796">
        <ele>59</ele>
        <time>2021-06-12T10:09:55.000Z</time>
      </trkpt>
      <trkpt lat="47.30105" lon="-1.34816">
        <ele>59</ele>
        <time>2021-06-12T10:09:57.000Z</time>
      </trkpt>
      <trkpt lat="47.30103" lon="-1.34835">
        <ele>59</ele>
        <time>2021-06-12T10:09:59.000Z</time>
      </trkpt>
      <trkpt lat="47.30101" lon="-1.34854">
        <ele>59</ele>
        <time>2021-06-12T10:10:01.000Z</time>
      </trkpt>
      <trkpt lat="47.30099" lon="-1.34873">
        <ele>59</ele>
        <time>2021-06-12T10:10:03.000Z</time>
      </trkpt>
      <trkpt lat="47.30097" lon="-1.34892">
        <ele>59</ele>
        <time>2021-06-12T10:10:05.000Z</time>
      </trkpt>
      <trkpt lat="47.30093" lon="-1.34911">
        <ele>59</ele>
        <time>2021-06-12T10:10:07.000Z</time>
      </trkpt>
      <trkpt lat="47.30089" lon="-1.3493">
        <ele>59</ele>
        <time>2021-06-12T10:10:09.000Z</time>
      </trkpt>
      <trkpt lat="47.30085" lon="-1.34949">
        <ele>59</ele>
        <time>2021-06-12T10:10:11.000Z</time>
      </trkpt>
      <trkpt lat="47.3008" lon="-1.34967">
        <ele>59</ele>
        <time>2021-06-12T10:10:13.000Z</time>
      </trkpt>
      <trkpt lat="47.30074" lon="-1.34986">
        <ele>59</ele>
        <time>2021-06-12T10:10:15.000Z</time>
      </trkpt>
      <trkpt lat="47.30069" lon="-1.35005">
        <ele>58</ele>
        <time>2021-06-12T10:10:17.000Z</time>
      </trkpt>
      <trkpt lat="47.30063" lon="-1.35023">
        <ele>58</ele>
        <time>2021-06-12T10:10:19.000Z</time>
      </trkpt>
      <trkpt lat="47.30057" lon="-1.35041">
        <ele>58</ele>
        <time>2021-06-12T10:10:21.000Z</time>
      </trkpt>
      <trkpt lat="47.3005" lon="-1.35058">
        <ele>59</ele>
        <time>2021-06-12T10:10:23.000Z</time>
      </trkpt>
      <trkpt lat="47.30043" lon="-1.35075">
        <ele>59</ele>
        <time>2021-06-12T10:10:25.000Z</time>
      </trkpt>
      <trkpt lat="47.30036" lon="-1.35092">
        <ele>59</ele>
        <time>2021-06-12T10:10:27.000Z</time>
      </trkpt>
      <trkpt lat="47.30028" lon="-1.35109">
        <ele>59</ele>
        <time>2021-06-12T10:10:29.000Z</time>
      </trkpt>
      <trkpt lat="47.30021" lon="-1.35125">
        <ele>60</ele>
        <time>2021-06-12T10:10:31.000Z</time>
      </trkpt>
      <trkpt lat="47.30012" lon="-1.35141">
        <ele>59</ele>
        <time>2021-06-12T10:10:33.000Z</time>
      </trkpt>
      <trkpt lat="47.30004" lon="-1.35157">
        <ele>59</ele>
        <time>2021-06-12T10:10:35.000Z</time>
      </trkpt>
      <trkpt lat="47.29996" lon="-1.35173">
        <ele>59</ele>
        <time>2021-06-12T10:10:37.000Z</time>
      </trkpt>
      <trkpt lat="47.29988" lon="-1.35189">
        <ele>59</ele>
        <time>2021-06-12T10:10:39.000Z</time>
      </trkpt>
      <trkpt lat="47.29979" lon="-1.35205">
        <ele>59</ele>
        <time>2021-06-12T10:10:41.000Z</time>
      </trkpt>
      <trkpt lat="47.29971" lon="-1.35221">
        <ele>59</ele>
        <time>2021-06-12T10:10:43.000Z</time>
      </trkpt>
      <trkpt lat="47.29963" lon="-1.35237">
        <ele>59</ele>
        <time>2021-06-12T10:10:45.000Z</time>
      </trkpt>
      <trkpt lat="47.29954" lon="-1.35254">
        <ele>59</ele>
        <time>2021-06-12T10:10:47.000Z</time>
      </trkpt>
      <trkpt lat="47.29946" lon="-1.35269">
        <ele>59</ele>
        <time>2021-06-12T10:10:49.000Z</time>
      </trkpt>
      <trkpt lat="47.29938" lon="-1.35286">
        <ele>59</ele>
        <time>2021-06-12T10:10:51.000Z</time>
      </trkpt>
      <trkpt lat="47.2993" lon="-1.35302">
        <ele>59</ele>
        <time>2021-06-12T10:10:53.000Z</time>
      </trkpt>
      <trkpt lat="47.29921" lon="-1.35319">
        <ele>59</ele>
        <time>2021-06-12T10:10:55.000Z</time>
      </trkpt>
      <trkpt lat="47.29913" lon="-1.35335">
        <ele>59</ele>
        <time>2021-06-12T10:10:57.000Z</time>
      </trkpt>
      <trkpt lat="47.29904" lon="-1.35351">
        <ele>59</ele>
        <time>2021-06-12T10:10:59.000Z</time>
      </trkpt>
      <trkpt lat="47.29896" lon="-1.35367">
        <ele>59</ele>
        <time>2021-06-12T10:11:01.000Z</time>
      </trkpt>
      <trkpt lat="47.29887" lon="-1.35383">
        <ele>59</ele>
        <time>2021-06-12T10:11:03.000Z</time>
      </trkpt>
      <trkpt lat="47.29879" lon="-1.354">
        <ele>59</ele>
        <time>2021-06-12T10:11:05.000Z</time>
      </trkpt>
      <trkpt lat="47.2987" lon="-1.35416">
        <ele>59</ele>
        <time>2021-06-12T10:11:07.000Z</time>
      </trkpt>
      <trkpt lat="47.29861" lon="-1.35433">
        <ele>59</ele>
        <time>2021-06-12T10:11:09.000Z</time>
      </trkpt>
      <trkpt lat="47.29853" lon="-1.3545">
        <ele>59</ele>
        <time>2021-06-12T10:11:11.000Z</time>
      </trkpt>
      <trkpt lat="47.29845" lon="-1.35466">
        <ele>59</ele>
        <time>2021-06-12T10:11:13.000Z</time>
      </trkpt>
      <trkpt lat="47.29837" lon="-1.35483">
        <ele>59</ele>
        <time>2021-06-12T10:11:15.000Z</time>
      </trkpt>
      <trkpt lat="47.29828" lon="-1.35499">
        <ele>60</ele>
        <time>2021-06-12T10:11:17.000Z</time>
      </trkpt>
      <trkpt lat="47.2982" lon="-1.35514">
        <ele>60</ele>
        <time>2021-06-12T10:11:19.000Z</time>
      </trkpt>
      <trkpt lat="47.29811" lon="-1.3553">
        <ele>60</ele>
        <time>2021-06-12T10:11:21.000Z</time>
      </trkpt>
      <trkpt lat="47.29802" lon="-1.35546">
        <ele>60</ele>
        <time>2021-06-12T10:11:23.000Z</time>
      </trkpt>
      <trkpt lat="47.29795" lon="-1.35562">
        <ele>60</ele>
        <time>2021-06-12T10:11:25.000Z</time>
      </trkpt>
      <trkpt lat="47.29786" lon="-1.35578">
        <ele>59</ele>
        <time>2021-06-12T10:11:27.000Z</time>
      </trkpt>
      <trkpt lat="47.29779" lon="-1.35593">
        <ele>59</ele>
        <time>2021-06-12T10:11:29.000Z</time>
      </trkpt>
      <trkpt lat="47.29771" lon="-1.35609">
        <ele>59</ele>
        <time>2021-06-12T10:11:31.000Z</time>
      </trkpt>
      <trkpt lat="47.29763" lon="-1.35624">
        <ele>59</ele>
        <time>2021-06-12T10:11:33.000Z</time>
      </trkpt>
      <trkpt lat="47.29755" lon="-1.35639">
        <ele>59</ele>
        <time>2021-06-12T10:11:35.000Z</time>
      </trkpt>
      <trkpt lat="47.29747" lon="-1.35655">
        <ele>59</ele>
        <time>2021-06-12T10:11:37.000Z</time>
      </trkpt>
      <trkpt lat="47.29739" lon="-1.3567">
        <ele>59</ele>
        <time>2021-06-12T10:11:39.000Z</time>
      </trkpt>
      <trkpt lat="47.29731" lon="-1.35686">
        <ele>58</ele>
        <time>2021-06-12T10:11:41.000Z</time>
      </trkpt>
      <trkpt lat="47.29722" lon="-1.35701">
        <ele>59</ele>
        <time>2021-06-12T10:11:43.000Z</time>
      </trkpt>
      <trkpt lat="47.29714" lon="-1.35718">
        <ele>59</ele>
        <time>2021-06-12T10:11:45.000Z</time>
      </trkpt>
      <trkpt lat="47.29706" lon="-1.35734">
        <ele>59</ele>
        <time>2021-06-12T10:11:47.000Z</time>
      </trkpt>
      <trkpt lat="47.29698" lon="-1.3575">
        <ele>59</ele>
        <time>2021-06-12T10:11:49.000Z</time>
      </trkpt>
      <trkpt lat="47.2969" lon="-1.35766">
        <ele>59</ele>
        <time>2021-06-12T10:11:51.000Z</time>
      </trkpt>
      <trkpt lat="47.29682" lon="-1.35781">
        <ele>58</ele>
        <time>2021-06-12T10:11:53.000Z</time>
      </trkpt>
      <trkpt lat="47.29674" lon="-1.35797">
        <ele>59</ele>
        <time>2021-06-12T10:11:55.000Z</time>
      </trkpt>
      <trkpt lat="47.29665" lon="-1.35814">
        <ele>58</ele>
        <time>2021-06-12T10:11:57.000Z</time>
      </trkpt>
      <trkpt lat="47.29656" lon="-1.3583">
        <ele>59</ele>
        <time>2021-06-12T10:11:59.000Z</time>
      </trkpt>
      <trkpt lat="47.29648" lon="-1.35846">
        <ele>59</ele>
        <time>2021-06-12T10:12:01.000Z</time>
      </trkpt>
      <trkpt lat="47.29639" lon="-1.35862">
        <ele>59</ele>
        <time>2021-06-12T10:12:03.000Z</time>
      </trkpt>
      <trkpt lat="47.2963" lon="-1.35879">
        <ele>58</ele>
        <time>2021-06-12T10:12:05.000Z</time>
      </trkpt>
      <trkpt lat="47.29622" lon="-1.35895">
        <ele>58</ele>
        <time>2021-06-12T10:12:07.000Z</time>
      </trkpt>
      <trkpt lat="47.29614" lon="-1.35911">
        <ele>58</ele>
        <time>2021-06-12T10:12:09.000Z</time>
      </trkpt>
      <trkpt lat="47.29605" lon="-1.35928">
        <ele>58</ele>
        <time>2021-06-12T10:12:11.000Z</time>
      </trkpt>
      <trkpt lat="47.29597" lon="-1.35944">
        <ele>58</ele>
        <time>2021-06-12T10:12:13.000Z</time>
      </trkpt>
      <trkpt lat="47.29589" lon="-1.35961">
        <ele>58</ele>
        <time>2021-06-12T10:12:15.000Z</time>
      </trkpt>
      <trkpt lat="47.2958" lon="-1.35977">
        <ele>58</ele>
        <time>2021-06-12T10:12:17.000Z</time>
      </trkpt>
      <trkpt lat="47.29571" lon="-1.35994">
        <ele>58</ele>
        <time>2021-06-12T10:12:19.000Z</time>
      </trkpt>
      <trkpt lat="47.29563" lon="-1.36011">
        <ele>59</ele>
        <time>2021-06-12T10:12:21.000Z</time>
      </trkpt>
      <trkpt lat="47.29554" lon="-1.36027">
        <ele>59</ele>
        <time>2021-06-12T10:12:23.000Z</time>
      </trkpt>
      <trkpt lat="47.29546" lon="-1.36044">
        <ele>58</ele>
        <time>2021-06-12T10:12:25.000Z</time>
      </trkpt>
      <trkpt lat="47.29537" lon="-1.36061">
        <ele>59</ele>
        <time>2021-06-12T10:12:27.000Z</time>
      </trkpt>
      <trkpt lat="47.29528" lon="-1.36078">
        <ele>59</ele>
        <time>2021-06-12T10:12:29.000Z</time>
      </trkpt>
      <trkpt lat="47.29519" lon="-1.36096">
        <ele>59</ele>
        <time>2021-06-12T10:12:31.000Z</time>
      </trkpt>
      <trkpt lat="47.29511" lon="-1.36113">
        <ele>59</ele>
        <time>2021-06-12T10:12:33.000Z</time>
      </trkpt>
      <trkpt lat="47.29502" lon="-1.3613">
        <ele>59</ele>
        <time>2021-06-12T10:12:35.000Z</time>
      </trkpt>
      <trkpt lat="47.29493" lon="-1.36148">
        <ele>59</ele>
        <time>2021-06-12T10:12:37.000Z</time>
      </trkpt>
      <trkpt lat="47.29483" lon="-1.36166">
        <ele>59</ele>
        <time>2021-06-12T10:12:39.000Z</time>
      </trkpt>
      <trkpt lat="47.29474" lon="-1.36184">
        <ele>59</ele>
        <time>2021-06-12T10:12:41.000Z</time>
      </trkpt>
      <trkpt lat="47.29465" lon="-1.36201">
        <ele>59</ele>
        <time>2021-06-12T10:12:43.000Z</time>
      </trkpt>
      <trkpt lat="47.29456" lon="-1.36219">
        <ele>60</ele>
        <time>2021-06-12T10:12:45.000Z</time>
      </trkpt>
      <trkpt lat="47.29448" lon="-1.36236">
        <ele>60</ele>
        <time>2021-06-12T10:12:47.000Z</time>
      </trkpt>
      <trkpt lat="47.29438" lon="-1.36253">
        <ele>60</ele>
        <time>2021-06-12T10:12:49.000Z</time>
      </trkpt>
      <trkpt lat="47.29429" lon="-1.36271">
        <ele>60</ele>
        <time>2021-06-12T10:12:51.000Z</time>
      </trkpt>
      <trkpt lat="47.2942" lon="-1.36289">
        <ele>60</ele>
        <time>2021-06-12T10:12:53.000Z</time>
      </trkpt>
      <trkpt lat="47.29411" lon="-1.36307">
        <ele>60</ele>
        <time>2021-06-12T10:12:55.000Z</time>
      </trkpt>
      <trkpt lat="47.29401" lon="-1.36326">
        <ele>59</ele>
        <time>2021-06-12T10:12:57.000Z</time>
      </trkpt>
      <trkpt lat="47.29392" lon="-1.36345">
        <ele>59</ele>
        <time>2021-06-12T10:12:59.000Z</time>
      </trkpt>
      <trkpt lat="47.29382" lon="-1.36363">
        <ele>59</ele>
        <time>2021-06-12T10:13:01.000Z</time>
      </trkpt>
      <trkpt lat="47.29372" lon="-1.36381">
        <ele>59</ele>
        <time>2021-06-12T10:13:03.000Z</time>
      </trkpt>
      <trkpt lat="47.29363" lon="-1.36399">
        <ele>59</ele>
        <time>2021-06-12T10:13:05.000Z</time>
      </trkpt>
      <trkpt lat="47.29354" lon="-1.36417">
        <ele>58</ele>
        <time>2021-06-12T10:13:07.000Z</time>
      </trkpt>
      <trkpt lat="47.29344" lon="-1.36434">
        <ele>58</ele>
        <time>2021-06-12T10:13:09.000Z</time>
      </trkpt>
      <trkpt lat="47.29335" lon="-1.36452">
        <ele>58</ele>
        <time>2021-06-12T10:13:11.000Z</time>
      </trkpt>
      <trkpt lat="47.29326" lon="-1.3647">
        <ele>58</ele>
        <time>2021-06-12T10:13:13.000Z</time>
      </trkpt>
      <trkpt lat="47.29316" lon="-1.36488">
        <ele>58</ele>
        <time>2021-06-12T10:13:15.000Z</time>
      </trkpt>
      <trkpt lat="47.29307" lon="-1.36506">
        <ele>58</ele>
        <time>2021-06-12T10:13:17.000Z</time>
      </trkpt>
      <trkpt lat="47.29297" lon="-1.36524">
        <ele>58</ele>
        <time>2021-06-12T10:13:19.000Z</time>
      </trkpt>
      <trkpt lat="47.29288" lon="-1.36542">
        <ele>58</ele>
        <time>2021-06-12T10:13:21.000Z</time>
      </trkpt>
      <trkpt lat="47.29279" lon="-1.3656">
        <ele>59</ele>
        <time>2021-06-12T10:13:23.000Z</time>
      </trkpt>
      <trkpt lat="47.2927" lon="-1.36579">
        <ele>59</ele>
        <time>2021-06-12T10:13:25.000Z</time>
      </trkpt>
      <trkpt lat="47.2926" lon="-1.36597">
        <ele>59</ele>
        <time>2021-06-12T10:13:27.000Z</time>
      </trkpt>
      <trkpt lat="47.29251" lon="-1.36615">
        <ele>59</ele>
        <time>2021-06-12T10:13:29.000Z</time>
      </trkpt>
      <trkpt lat="47.29241" lon="-1.36633">
        <ele>59</ele>
        <time>2021-06-12T10:13:31.000Z</time>
      </trkpt>
      <trkpt lat="47.29231" lon="-1.36652">
        <ele>58</ele>
        <time>2021-06-12T10:13:33.000Z</time>
      </trkpt>
      <trkpt lat="47.29222" lon="-1.3667">
        <ele>58</ele>
        <time>2021-06-12T10:13:35.000Z</time>
      </trkpt>
      <trkpt lat="47.29213" lon="-1.36688">
        <ele>58</ele>
        <time>2021-06-12T10:13:37.000Z</time>
      </trkpt>
      <trkpt lat="47.29203" lon="-1.36707">
        <ele>58</ele>
        <time>2021-06-12T10:13:39.000Z</time>
      </trkpt>
      <trkpt lat="47.29195" lon="-1.36724">
        <ele>59</ele>
        <time>2021-06-12T10:13:41.000Z</time>
      </trkpt>
      <trkpt lat="47.29185" lon="-1.36742">
        <ele>59</ele>
        <time>2021-06-12T10:13:43.000Z</time>
      </trkpt>
      <trkpt lat="47.29176" lon="-1.3676">
        <ele>59</ele>
        <time>2021-06-12T10:13:45.000Z</time>
      </trkpt>
      <trkpt lat="47.29167" lon="-1.36777">
        <ele>59</ele>
        <time>2021-06-12T10:13:47.000Z</time>
      </trkpt>
      <trkpt lat="47.29158" lon="-1.36794">
        <ele>59</ele>
        <time>2021-06-12T10:13:49.000Z</time>
      </trkpt>
      <trkpt lat="47.29149" lon="-1.36812">
        <ele>58</ele>
        <time>2021-06-12T10:13:51.000Z</time>
      </trkpt>
      <trkpt lat="47.29141" lon="-1.36829">
        <ele>58</ele>
        <time>2021-06-12T10:13:53.000Z</time>
      </trkpt>
      <trkpt lat="47.29132" lon="-1.36846">
        <ele>58</ele>
        <time>2021-06-12T10:13:55.000Z</time>
      </trkpt>
      <trkpt lat="47.29124" lon="-1.36863">
        <ele>58</ele>
        <time>2021-06-12T10:13:57.000Z</time>
      </trkpt>
      <trkpt lat="47.29115" lon="-1.3688">
        <ele>58</ele>
        <time>2021-06-12T10:13:59.000Z</time>
      </trkpt>
      <trkpt lat="47.29106" lon="-1.36897">
        <ele>58</ele>
        <time>2021-06-12T10:14:01.000Z</time>
      </trkpt>
      <trkpt lat="47.29097" lon="-1.36914">
        <ele>58</ele>
        <time>2021-06-12T10:14:03.000Z</time>
      </trkpt>
      <trkpt lat="47.29088" lon="-1.36931">
        <ele>59</ele>
        <time>2021-06-12T10:14:05.000Z</time>
      </trkpt>
      <trkpt lat="47.29079" lon="-1.36948">
        <ele>59</ele>
        <time>2021-06-12T10:14:07.000Z</time>
      </trkpt>
      <trkpt lat="47.29071" lon="-1.36965">
        <ele>59</ele>
        <time>2021-06-12T10:14:09.000Z</time>
      </trkpt>
      <trkpt lat="47.29062" lon="-1.36981">
        <ele>59</ele>
        <time>2021-06-12T10:14:11.000Z</time>
      </trkpt>
      <trkpt lat="47.29053" lon="-1.36999">
        <ele>59</ele>
        <time>2021-06-12T10:14:13.000Z</time>
      </trkpt>
      <trkpt lat="47.29044" lon="-1.37016">
        <ele>58</ele>
        <time>2021-06-12T10:14:15.000Z</time>
      </trkpt>
      <trkpt lat="47.29035" lon="-1.37033">
        <ele>58</ele>
        <time>2021-06-12T10:14:17.000Z</time>
      </trkpt>
      <trkpt lat="47.29026" lon="-1.37051">
        <ele>58</ele>
        <time>2021-06-12T10:14:19.000Z</time>
      </trkpt>
      <trkpt lat="47.29017" lon="-1.37069">
        <ele>58</ele>
        <time>2021-06-12T10:14:21.000Z</time>
      </trkpt>
      <trkpt lat="47.29009" lon="-1.37086">
        <ele>58</ele>
        <time>2021-06-12T10:14:23.000Z</time>
      </trkpt>
      <trkpt lat="47.29" lon="-1.37103">
        <ele>58</ele>
        <time>2021-06-12T10:14:25.000Z</time>
      </trkpt>
      <trkpt lat="47.28992" lon="-1.3712">
        <ele>58</ele>
        <time>2021-06-12T10:14:27.000Z</time>
      </trkpt>
      <trkpt lat="47.28984" lon="-1.37138">
        <ele>58</ele>
        <time>2021-06-12T10:14:29.000Z</time>
      </trkpt>
      <trkpt lat="47.28977" lon="-1.37157">
        <ele>58</ele>
        <time>2021-06-12T10:14:31.000Z</time>
      </trkpt>
      <trkpt lat="47.28969" lon="-1.37175">
        <ele>58</ele>
        <time>2021-06-12T10:14:33.000Z</time>
      </trkpt>
      <trkpt lat="47.28962" lon="-1.37194">
        <ele>58</ele>
        <time>2021-06-12T10:14:35.000Z</time>
      </trkpt>
      <trkpt lat="47.28955" lon="-1.37212">
        <ele>58</ele>
        <time>2021-06-12T10:14:37.000Z</time>
      </trkpt>
      <trkpt lat="47.28948" lon="-1.37231">
        <ele>58</ele>
        <time>2021-06-12T10:14:39.000Z</time>
      </trkpt>
      <trkpt lat="47.28941" lon="-1.37249">
        <ele>58</ele>
        <time>2021-06-12T10:14:41.000Z</time>
      </trkpt>
      <trkpt lat="47.28936" lon="-1.37267">
        <ele>58</ele>
        <time>2021-06-12T10:14:43.000Z</time>
      </trkpt>
      <trkpt lat="47.2893" lon="-1.37285">
        <ele>58</ele>
        <time>2021-06-12T10:14:45.000Z</time>
      </trkpt>
      <trkpt lat="47.28924" lon="-1.37303">
        <ele>58</ele>
        <time>2021-06-12T10:14:47.000Z</time>
      </trkpt>
      <trkpt lat="47.28919" lon="-1.37321">
        <ele>58</ele>
        <time>2021-06-12T10:14:49.000Z</time>
      </trkpt>
      <trkpt lat="47.28913" lon="-1.37339">
        <ele>58</ele>
        <time>2021-06-12T10:14:51.000Z</time>
      </trkpt>
      <trkpt lat="47.28908" lon="-1.37356">
        <ele>58</ele>
        <time>2021-06-12T10:14:53.000Z</time>
      </trkpt>
      <trkpt lat="47.28902" lon="-1.37374">
        <ele>58</ele>
        <time>2021-06-12T10:14:55.000Z</time>
      </trkpt>
      <trkpt lat="47.28897" lon="-1.37391">
        <ele>58</ele>
        <time>2021-06-12T10:14:57.000Z</time>
      </trkpt>
      <trkpt lat="47.28892" lon="-1.37409">
        <ele>58</ele>
        <time>2021-06-12T10:14:59.000Z</time>
      </trkpt>
      <trkpt lat="47.28886" lon="-1.37426">
        <ele>58</ele>
        <time>2021-06-12T10:15:01.000Z</time>
      </trkpt>
      <trkpt lat="47.28881" lon="-1.37443">
        <ele>58</ele>
        <time>2021-06-12T10:15:03.000Z</time>
      </trkpt>
      <trkpt lat="47.28875" lon="-1.37462">
        <ele>58</ele>
        <time>2021-06-12T10:15:05.000Z</time>
      </trkpt>
      <trkpt lat="47.28869" lon="-1.3748">
        <ele>58</ele>
        <time>2021-06-12T10:15:07.000Z</time>
      </trkpt>
      <trkpt lat="47.28863" lon="-1.37497">
        <ele>58</ele>
        <time>2021-06-12T10:15:09.000Z</time>
      </trkpt>
      <trkpt lat="47.28857" lon="-1.37515">
        <ele>58</ele>
        <time>2021-06-12T10:15:11.000Z</time>
      </trkpt>
      <trkpt lat="47.28851" lon="-1.37533">
        <ele>59</ele>
        <time>2021-06-12T10:15:13.000Z</time>
      </trkpt>
      <trkpt lat="47.28845" lon="-1.37551">
        <ele>58</ele>
        <time>2021-06-12T10:15:15.000Z</time>
      </trkpt>
      <trkpt lat="47.28841" lon="-1.37568">
        <ele>59</ele>
        <time>2021-06-12T10:15:17.000Z</time>
      </trkpt>
      <trkpt lat="47.28837" lon="-1.37585">
        <ele>59</ele>
        <time>2021-06-12T10:15:19.000Z</time>
      </trkpt>
      <trkpt lat="47.28828" lon="-1.37596">
        <ele>59</ele>
        <time>2021-06-12T10:15:21.000Z</time>
      </trkpt>
      <trkpt lat="47.28816" lon="-1.37608">
        <ele>59</ele>
        <time>2021-06-12T10:15:23.000Z</time>
      </trkpt>
      <trkpt lat="47.28804" lon="-1.37621">
        <ele>59</ele>
        <time>2021-06-12T10:15:25.000Z</time>
      </trkpt>
      <trkpt lat="47.28793" lon="-1.37634">
        <ele>58</ele>
        <time>2021-06-12T10:15:27.000Z</time>
      </trkpt>
      <trkpt lat="47.28781" lon="-1.37647">
        <ele>58</ele>
        <time>2021-06-12T10:15:29.000Z</time>
      </trkpt>
      <trkpt lat="47.2877" lon="-1.37661">
        <ele>58</ele>
        <time>2021-06-12T10:15:31.000Z</time>
      </trkpt>
      <trkpt lat="47.28759" lon="-1.37674">
        <ele>58</ele>
        <time>2021-06-12T10:15:33.000Z</time>
      </trkpt>
      <trkpt lat="47.28747" lon="-1.37687">
        <ele>58</ele>
        <time>2021-06-12T10:15:35.000Z</time>
      </trkpt>
      <trkpt lat="47.28736" lon="-1.377">
        <ele>58</ele>
        <time>2021-06-12T10:15:37.000Z</time>
      </trkpt>
      <trkpt lat="47.28725" lon="-1.37714">
        <ele>58</ele>
        <time>2021-06-12T10:15:39.000Z</time>
      </trkpt>
      <trkpt lat="47.28713" lon="-1.37728">
        <ele>58</ele>
        <time>2021-06-12T10:15:41.000Z</time>
      </trkpt>
      <trkpt lat="47.28701" lon="-1.37741">
        <ele>58</ele>
        <time>2021-06-12T10:15:43.000Z</time>
      </trkpt>
      <trkpt lat="47.28688" lon="-1.37756">
        <ele>58</ele>
        <time>2021-06-12T10:15:45.000Z</time>
      </trkpt>
      <trkpt lat="47.28677" lon="-1.3777">
        <ele>58</ele>
        <time>2021-06-12T10:15:47.000Z</time>
      </trkpt>
      <trkpt lat="47.28665" lon="-1.37783">
        <ele>58</ele>
        <time>2021-06-12T10:15:49.000Z</time>
      </trkpt>
      <trkpt lat="47.28653" lon="-1.37797">
        <ele>58</ele>
        <time>2021-06-12T10:15:51.000Z</time>
      </trkpt>
      <trkpt lat="47.28641" lon="-1.3781">
        <ele>58</ele>
        <time>2021-06-12T10:15:53.000Z</time>
      </trkpt>
      <trkpt lat="47.2863" lon="-1.37824">
        <ele>58</ele>
        <time>2021-06-12T10:15:55.000Z</time>
      </trkpt>
      <trkpt lat="47.28618" lon="-1.37838">
        <ele>58</ele>
        <time>2021-06-12T10:15:57.000Z</time>
      </trkpt>
      <trkpt lat="47.28607" lon="-1.37851">
        <ele>58</ele>
        <time>2021-06-12T10:15:59.000Z</time>
      </trkpt>
      <trkpt lat="47.28595" lon="-1.37864">
        <ele>58</ele>
        <time>2021-06-12T10:16:01.000Z</time>
      </trkpt>
      <trkpt lat="47.28584" lon="-1.37878">
        <ele>59</ele>
        <time>2021-06-12T10:16:03.000Z</time>
      </trkpt>
      <trkpt lat="47.28572" lon="-1.37892">
        <ele>58</ele>
        <time>2021-06-12T10:16:05.000Z</time>
      </trkpt>
      <trkpt lat="47.2856" lon="-1.37906">
        <ele>58</ele>
        <time>2021-06-12T10:16:07.000Z</time>
      </trkpt>
      <trkpt lat="47.28548" lon="-1.3792">
        <ele>58</ele>
        <time>2021-06-12T10:16:09.000Z</time>
      </trkpt>
      <trkpt lat="47.28536" lon="-1.37934">
        <ele>57</ele>
        <time>2021-06-12T10:16:11.000Z</time>
      </trkpt>
      <trkpt lat="47.28524" lon="-1.37947">
        <ele>58</ele>
        <time>2021-06-12T10:16:13.000Z</time>
      </trkpt>
      <trkpt lat="47.28512" lon="-1.3796">
        <ele>57</ele>
        <time>2021-06-12T10:16:15.000Z</time>
      </trkpt>
      <trkpt lat="47.28501" lon="-1.37974">
        <ele>58</ele>
        <time>2021-06-12T10:16:17.000Z</time>
      </trkpt>
      <trkpt lat="47.2849" lon="-1.37987">
        <ele>58</ele>
        <time>2021-06-12T10:16:19.000Z</time>
      </trkpt>
      <trkpt lat="47.28478" lon="-1.38001">
        <ele>58</ele>
        <time>2021-06-12T10:16:21.000Z</time>
      </trkpt>
      <trkpt lat="47.28467" lon="-1.38014">
        <ele>58</ele>
        <time>2021-06-12T10:16:23.000Z</time>
      </trkpt>
      <trkpt lat="47.28456" lon="-1.38027">
        <ele>58</ele>
        <time>2021-06-12T10:16:25.000Z</time>
      </trkpt>
      <trkpt lat="47.28444" lon="-1.3804">
        <ele>58</ele>
        <time>2021-06-12T10:16:27.000Z</time>
      </trkpt>
      <trkpt lat="47.28433" lon="-1.38053">
        <ele>58</ele>
        <time>2021-06-12T10:16:29.000Z</time>
      </trkpt>
      <trkpt lat="47.28421" lon="-1.38067">
        <ele>59</ele>
        <time>2021-06-12T10:16:31.000Z</time>
      </trkpt>
      <trkpt lat="47.2841" lon="-1.3808">
        <ele>59</ele>
        <time>2021-06-12T10:16:33.000Z</time>
      </trkpt>
      <trkpt lat="47.28398" lon="-1.38094">
        <ele>59</ele>
        <time>2021-06-12T10:16:35.000Z</time>
      </trkpt>
      <trkpt lat="47.28387" lon="-1.38108">
        <ele>59</ele>
        <time>2021-06-12T10:16:37.000Z</time>
      </trkpt>
      <trkpt lat="47.28377" lon="-1.38124">
        <ele>59</ele>
        <time>2021-06-12T10:16:39.000Z</time>
      </trkpt>
      <trkpt lat="47.28368" lon="-1.38142">
        <ele>58</ele>
        <time>2021-06-12T10:16:41.000Z</time>
      </trkpt>
      <trkpt lat="47.28361" lon="-1.38161">
        <ele>58</ele>
        <time>2021-06-12T10:16:43.000Z</time>
      </trkpt>
      <trkpt lat="47.28354" lon="-1.3818">
        <ele>58</ele>
        <time>2021-06-12T10:16:45.000Z</time>
      </trkpt>
      <trkpt lat="47.28349" lon="-1.38201">
        <ele>58</ele>
        <time>2021-06-12T10:16:47.000Z</time>
      </trkpt>
      <trkpt lat="47.28342" lon="-1.3822">
        <ele>59</ele>
        <time>2021-06-12T10:16:49.000Z</time>
      </trkpt>
      <trkpt lat="47.28335" lon="-1.38238">
        <ele>59</ele>
        <time>2021-06-12T10:16:51.000Z</time>
      </trkpt>
      <trkpt lat="47.28326" lon="-1.38255">
        <ele>59</ele>
        <time>2021-06-12T10:16:53.000Z</time>
      </trkpt>
      <trkpt lat="47.28316" lon="-1.3827">
        <ele>58</ele>
        <time>2021-06-12T10:16:55.000Z</time>
      </trkpt>
      <trkpt lat="47.28306" lon="-1.38284">
        <ele>58</ele>
        <time>2021-06-12T10:16:57.000Z</time>
      </trkpt>
      <trkpt lat="47.28296" lon="-1.383">
        <ele>58</ele>
        <time>2021-06-12T10:16:59.000Z</time>
      </trkpt>
      <trkpt lat="47.28287" lon="-1.38316">
        <ele>58</ele>
        <time>2021-06-12T10:17:01.000Z</time>
      </trkpt>
      <trkpt lat="47.2828" lon="-1.38334">
        <ele>58</ele>
        <time>2021-06-12T10:17:03.000Z</time>
      </trkpt>
      <trkpt lat="47.28271" lon="-1.38351">
        <ele>58</ele>
        <time>2021-06-12T10:17:05.000Z</time>
      </trkpt>
      <trkpt lat="47.28263" lon="-1.38369">
        <ele>58</ele>
        <time>2021-06-12T10:17:07.000Z</time>
      </trkpt>
      <trkpt lat="47.28255" lon="-1.38386">
        <ele>58</ele>
        <time>2021-06-12T10:17:09.000Z</time>
      </trkpt>
      <trkpt lat="47.28247" lon="-1.38404">
        <ele>57</ele>
        <time>2021-06-12T10:17:11.000Z</time>
      </trkpt>
      <trkpt lat="47.28239" lon="-1.38422">
        <ele>57</ele>
        <time>2021-06-12T10:17:13.000Z</time>
      </trkpt>
      <trkpt lat="47.28231" lon="-1.3844">
        <ele>57</ele>
        <time>2021-06-12T10:17:15.000Z</time>
      </trkpt>
      <trkpt lat="47.28223" lon="-1.38458">
        <ele>57</ele>
        <time>2021-06-12T10:17:17.000Z</time>
      </trkpt>
      <trkpt lat="47.28215" lon="-1.38475">
        <ele>58</ele>
        <time>2021-06-12T10:17:19.000Z</time>
      </trkpt>
      <trkpt lat="47.28207" lon="-1.38493">
        <ele>58</ele>
        <time>2021-06-12T10:17:21.000Z</time>
      </trkpt>
      <trkpt lat="47.28199" lon="-1.38511">
        <ele>57</ele>
        <time>2021-06-12T10:17:23.000Z</time>
      </trkpt>
      <trkpt lat="47.28194" lon="-1.38529">
        <ele>57</ele>
        <time>2021-06-12T10:17:25.000Z</time>
      </trkpt>
      <trkpt lat="47.28191" lon="-1.3855">
        <ele>57</ele>
        <time>2021-06-12T10:17:27.000Z</time>
      </trkpt>
      <trkpt lat="47.28189" lon="-1.3857">
        <ele>58</ele>
        <time>2021-06-12T10:17:29.000Z</time>
      </trkpt>
      <trkpt lat="47.28186" lon="-1.38591">
        <ele>58</ele>
        <time>2021-06-12T10:17:31.000Z</time>
      </trkpt>
      <trkpt lat="47.28183" lon="-1.38611">
        <ele>57</ele>
        <time>2021-06-12T10:17:33.000Z</time>
      </trkpt>
      <trkpt lat="47.28179" lon="-1.38631">
        <ele>57</ele>
        <time>2021-06-12T10:17:35.000Z</time>
      </trkpt>
      <trkpt lat="47.28176" lon="-1.38651">
        <ele>58</ele>
        <time>2021-06-12T10:17:37.000Z</time>
      </trkpt>
      <trkpt lat="47.2817" lon="-1.38669">
        <ele>58</ele>
        <time>2021-06-12T10:17:39.000Z</time>
      </trkpt>
      <trkpt lat="47.28155" lon="-1.38692">
        <ele>58</ele>
        <time>2021-06-12T10:17:42.000Z</time>
      </trkpt>
      <trkpt lat="47.28144" lon="-1.38704">
        <ele>58</ele>
        <time>2021-06-12T10:17:44.000Z</time>
      </trkpt>
      <trkpt lat="47.28131" lon="-1.38716">
        <ele>58</ele>
        <time>2021-06-12T10:17:46.000Z</time>
      </trkpt>
      <trkpt lat="47.28119" lon="-1.38728">
        <ele>58</ele>
        <time>2021-06-12T10:17:48.000Z</time>
      </trkpt>
      <trkpt lat="47.28106" lon="-1.3874">
        <ele>58</ele>
        <time>2021-06-12T10:17:50.000Z</time>
      </trkpt>
      <trkpt lat="47.28094" lon="-1.38752">
        <ele>58</ele>
        <time>2021-06-12T10:17:52.000Z</time>
      </trkpt>
      <trkpt lat="47.28082" lon="-1.38764">
        <ele>58</ele>
        <time>2021-06-12T10:17:54.000Z</time>
      </trkpt>
      <trkpt lat="47.28069" lon="-1.38777">
        <ele>58</ele>
        <time>2021-06-12T10:17:56.000Z</time>
      </trkpt>
      <trkpt lat="47.2805" lon="-1.38795">
        <ele>58</ele>
        <time>2021-06-12T10:17:59.000Z</time>
      </trkpt>
      <trkpt lat="47.28038" lon="-1.38807">
        <ele>58</ele>
        <time>2021-06-12T10:18:01.000Z</time>
      </trkpt>
      <trkpt lat="47.28026" lon="-1.38819">
        <ele>58</ele>
        <time>2021-06-12T10:18:03.000Z</time>
      </trkpt>
      <trkpt lat="47.28014" lon="-1.38831">
        <ele>58</ele>
        <time>2021-06-12T10:18:05.000Z</time>
      </trkpt>
      <trkpt lat="47.28002" lon="-1.38843">
        <ele>58</ele>
        <time>2021-06-12T10:18:07.000Z</time>
      </trkpt>
      <trkpt lat="47.27985" lon="-1.38862">
        <ele>58</ele>
        <time>2021-06-12T10:18:10.000Z</time>
      </trkpt>
      <trkpt lat="47.27969" lon="-1.38884">
        <ele>58</ele>
        <time>2021-06-12T10:18:13.000Z</time>
      </trkpt>
      <trkpt lat="47.27954" lon="-1.38906">
        <ele>58</ele>
        <time>2021-06-12T10:18:16.000Z</time>
      </trkpt>
      <trkpt lat="47.27938" lon="-1.38929">
        <ele>57</ele>
        <time>2021-06-12T10:18:19.000Z</time>
      </trkpt>
      <trkpt lat="47.27928" lon="-1.38945">
        <ele>57</ele>
        <time>2021-06-12T10:18:21.000Z</time>
      </trkpt>
      <trkpt lat="47.27918" lon="-1.3896">
        <ele>57</ele>
        <time>2021-06-12T10:18:23.000Z</time>
      </trkpt>
      <trkpt lat="47.27908" lon="-1.38976">
        <ele>57</ele>
        <time>2021-06-12T10:18:25.000Z</time>
      </trkpt>
      <trkpt lat="47.27893" lon="-1.39001">
        <ele>57</ele>
        <time>2021-06-12T10:18:28.000Z</time>
      </trkpt>
      <trkpt lat="47.27879" lon="-1.39025">
        <ele>57</ele>
        <time>2021-06-12T10:18:31.000Z</time>
      </trkpt>
      <trkpt lat="47.27869" lon="-1.3904">
        <ele>57</ele>
        <time>2021-06-12T10:18:33.000Z</time>
      </trkpt>
      <trkpt lat="47.27859" lon="-1.39057">
        <ele>57</ele>
        <time>2021-06-12T10:18:35.000Z</time>
      </trkpt>
      <trkpt lat="47.27849" lon="-1.39073">
        <ele>57</ele>
        <time>2021-06-12T10:18:37.000Z</time>
      </trkpt>
      <trkpt lat="47.27839" lon="-1.39089">
        <ele>57</ele>
        <time>2021-06-12T10:18:39.000Z</time>
      </trkpt>
      <trkpt lat="47.2783" lon="-1.39104">
        <ele>57</ele>
        <time>2021-06-12T10:18:41.000Z</time>
      </trkpt>
      <trkpt lat="47.2782" lon="-1.3912">
        <ele>57</ele>
        <time>2021-06-12T10:18:43.000Z</time>
      </trkpt>
      <trkpt lat="47.27811" lon="-1.39136">
        <ele>57</ele>
        <time>2021-06-12T10:18:45.000Z</time>
      </trkpt>
      <trkpt lat="47.27801" lon="-1.39152">
        <ele>57</ele>
        <time>2021-06-12T10:18:47.000Z</time>
      </trkpt>
      <trkpt lat="47.27791" lon="-1.39169">
        <ele>57</ele>
        <time>2021-06-12T10:18:49.000Z</time>
      </trkpt>
      <trkpt lat="47.27781" lon="-1.39186">
        <ele>57</ele>
        <time>2021-06-12T10:18:51.000Z</time>
      </trkpt>
      <trkpt lat="47.27772" lon="-1.39204">
        <ele>57</ele>
        <time>2021-06-12T10:18:53.000Z</time>
      </trkpt>
      <trkpt lat="47.27763" lon="-1.39222">
        <ele>57</ele>
        <time>2021-06-12T10:18:55.000Z</time>
      </trkpt>
      <trkpt lat="47.27754" lon="-1.39241">
        <ele>57</ele>
        <time>2021-06-12T10:18:57.000Z</time>
      </trkpt>
      <trkpt lat="47.27746" lon="-1.39259">
        <ele>58</ele>
        <time>2021-06-12T10:18:59.000Z</time>
      </trkpt>
      <trkpt lat="47.27737" lon="-1.39277">
        <ele>58</ele>
        <time>2021-06-12T10:19:01.000Z</time>
      </trkpt>
      <trkpt lat="47.27729" lon="-1.39296">
        <ele>58</ele>
        <time>2021-06-12T10:19:03.000Z</time>
      </trkpt>
      <trkpt lat="47.2772" lon="-1.39315">
        <ele>58</ele>
        <time>2021-06-12T10:19:05.000Z</time>
      </trkpt>
      <trkpt lat="47.27711" lon="-1.39333">
        <ele>58</ele>
        <time>2021-06-12T10:19:07.000Z</time>
      </trkpt>
      <trkpt lat="47.27703" lon="-1.39351">
        <ele>58</ele>
        <time>2021-06-12T10:19:09.000Z</time>
      </trkpt>
      <trkpt lat="47.27695" lon="-1.39369">
        <ele>58</ele>
        <time>2021-06-12T10:19:11.000Z</time>
      </trkpt>
      <trkpt lat="47.27686" lon="-1.39387">
        <ele>58</ele>
        <time>2021-06-12T10:19:13.000Z</time>
      </trkpt>
      <trkpt lat="47.27678" lon="-1.39405">
        <ele>58</ele>
        <time>2021-06-12T10:19:15.000Z</time>
      </trkpt>
      <trkpt lat="47.27668" lon="-1.39423">
        <ele>58</ele>
        <time>2021-06-12T10:19:17.000Z</time>
      </trkpt>
      <trkpt lat="47.27654" lon="-1.39449">
        <ele>58</ele>
        <time>2021-06-12T10:19:20.000Z</time>
      </trkpt>
      <trkpt lat="47.27644" lon="-1.39465">
        <ele>58</ele>
        <time>2021-06-12T10:19:22.000Z</time>
      </trkpt>
      <trkpt lat="47.27633" lon="-1.39481">
        <ele>58</ele>
        <time>2021-06-12T10:19:24.000Z</time>
      </trkpt>
      <trkpt lat="47.27623" lon="-1.39497">
        <ele>58</ele>
        <time>2021-06-12T10:19:26.000Z</time>
      </trkpt>
      <trkpt lat="47.27612" lon="-1.39513">
        <ele>58</ele>
        <time>2021-06-12T10:19:28.000Z</time>
      </trkpt>
      <trkpt lat="47.27602" lon="-1.39529">
        <ele>58</ele>
        <time>2021-06-12T10:19:30.000Z</time>
      </trkpt>
      <trkpt lat="47.27591" lon="-1.39545">
        <ele>58</ele>
        <time>2021-06-12T10:19:32.000Z</time>
      </trkpt>
      <trkpt lat="47.27581" lon="-1.39562">
        <ele>58</ele>
        <time>2021-06-12T10:19:34.000Z</time>
      </trkpt>
      <trkpt lat="47.27571" lon="-1.39578">
        <ele>58</ele>
        <time>2021-06-12T10:19:36.000Z</time>
      </trkpt>
      <trkpt lat="47.27561" lon="-1.39593">
        <ele>58</ele>
        <time>2021-06-12T10:19:38.000Z</time>
      </trkpt>
      <trkpt lat="47.27551" lon="-1.39609">
        <ele>58</ele>
        <time>2021-06-12T10:19:40.000Z</time>
      </trkpt>
      <trkpt lat="47.27541" lon="-1.39626">
        <ele>58</ele>
        <time>2021-06-12T10:19:42.000Z</time>
      </trkpt>
      <trkpt lat="47.2753" lon="-1.39642">
        <ele>58</ele>
        <time>2021-06-12T10:19:44.000Z</time>
      </trkpt>
      <trkpt lat="47.2752" lon="-1.39658">
        <ele>58</ele>
        <time>2021-06-12T10:19:46.000Z</time>
      </trkpt>
      <trkpt lat="47.2751" lon="-1.39675">
        <ele>58</ele>
        <time>2021-06-12T10:19:48.000Z</time>
      </trkpt>
      <trkpt lat="47.27499" lon="-1.39691">
        <ele>58</ele>
        <time>2021-06-12T10:19:50.000Z</time>
      </trkpt>
      <trkpt lat="47.27489" lon="-1.39707">
        <ele>58</ele>
        <time>2021-06-12T10:19:52.000Z</time>
      </trkpt>
      <trkpt lat="47.27479" lon="-1.39724">
        <ele>58</ele>
        <time>2021-06-12T10:19:54.000Z</time>
      </trkpt>
      <trkpt lat="47.27468" lon="-1.3974">
        <ele>58</ele>
        <time>2021-06-12T10:19:56.000Z</time>
      </trkpt>
      <trkpt lat="47.27457" lon="-1.39757">
        <ele>58</ele>
        <time>2021-06-12T10:19:58.000Z</time>
      </trkpt>
      <trkpt lat="47.27447" lon="-1.39773">
        <ele>58</ele>
        <time>2021-06-12T10:20:00.000Z</time>
      </trkpt>
      <trkpt lat="47.27436" lon="-1.39789">
        <ele>58</ele>
        <time>2021-06-12T10:20:02.000Z</time>
      </trkpt>
      <trkpt lat="47.27426" lon="-1.39806">
        <ele>58</ele>
        <time>2021-06-12T10:20:04.000Z</time>
      </trkpt>
      <trkpt lat="47.27415" lon="-1.39822">
        <ele>58</ele>
        <time>2021-06-12T10:20:06.000Z</time>
      </trkpt>
      <trkpt lat="47.27405" lon="-1.39838">
        <ele>58</ele>
        <time>2021-06-12T10:20:08.000Z</time>
      </trkpt>
      <trkpt lat="47.27394" lon="-1.39855">
        <ele>58</ele>
        <time>2021-06-12T10:20:10.000Z</time>
      </trkpt>
      <trkpt lat="47.27384" lon="-1.39872">
        <ele>57</ele>
        <time>2021-06-12T10:20:12.000Z</time>
      </trkpt>
      <trkpt lat="47.27374" lon="-1.39888">
        <ele>57</ele>
        <time>2021-06-12T10:20:14.000Z</time>
      </trkpt>
      <trkpt lat="47.27364" lon="-1.39904">
        <ele>57</ele>
        <time>2021-06-12T10:20:16.000Z</time>
      </trkpt>
      <trkpt lat="47.27354" lon="-1.3992">
        <ele>57</ele>
        <time>2021-06-12T10:20:18.000Z</time>
      </trkpt>
      <trkpt lat="47.27344" lon="-1.39935">
        <ele>57</ele>
        <time>2021-06-12T10:20:20.000Z</time>
      </trkpt>
      <trkpt lat="47.27335" lon="-1.39951">
        <ele>57</ele>
        <time>2021-06-12T10:20:22.000Z</time>
      </trkpt>
      <trkpt lat="47.27325" lon="-1.39965">
        <ele>57</ele>
        <time>2021-06-12T10:20:24.000Z</time>
      </trkpt>
      <trkpt lat="47.27315" lon="-1.3998">
        <ele>57</ele>
        <time>2021-06-12T10:20:26.000Z</time>
      </trkpt>
      <trkpt lat="47.27305" lon="-1.39996">
        <ele>58</ele>
        <time>2021-06-12T10:20:28.000Z</time>
      </trkpt>
      <trkpt lat="47.27295" lon="-1.40011">
        <ele>57</ele>
        <time>2021-06-12T10:20:30.000Z</time>
      </trkpt>
      <trkpt lat="47.27285" lon="-1.40027">
        <ele>57</ele>
        <time>2021-06-12T10:20:32.000Z</time>
      </trkpt>
      <trkpt lat="47.27275" lon="-1.40043">
        <ele>58</ele>
        <time>2021-06-12T10:20:34.000Z</time>
      </trkpt>
      <trkpt lat="47.27266" lon="-1.40058">
        <ele>58</ele>
        <time>2021-06-12T10:20:36.000Z</time>
      </trkpt>
      <trkpt lat="47.27256" lon="-1.40073">
        <ele>57</ele>
        <time>2021-06-12T10:20:38.000Z</time>
      </trkpt>
      <trkpt lat="47.27246" lon="-1.40088">
        <ele>58</ele>
        <time>2021-06-12T10:20:40.000Z</time>
      </trkpt>
      <trkpt lat="47.27232" lon="-1.40111">
        <ele>58</ele>
        <time>2021-06-12T10:20:43.000Z</time>
      </trkpt>
      <trkpt lat="47.27222" lon="-1.40127">
        <ele>57</ele>
        <time>2021-06-12T10:20:45.000Z</time>
      </trkpt>
      <trkpt lat="47.27212" lon="-1.40142">
        <ele>57</ele>
        <time>2021-06-12T10:20:47.000Z</time>
      </trkpt>
      <trkpt lat="47.27203" lon="-1.40158">
        <ele>57</ele>
        <time>2021-06-12T10:20:49.000Z</time>
      </trkpt>
      <trkpt lat="47.27193" lon="-1.40172">
        <ele>57</ele>
        <time>2021-06-12T10:20:51.000Z</time>
      </trkpt>
      <trkpt lat="47.27183" lon="-1.40187">
        <ele>57</ele>
        <time>2021-06-12T10:20:53.000Z</time>
      </trkpt>
      <trkpt lat="47.27174" lon="-1.40203">
        <ele>58</ele>
        <time>2021-06-12T10:20:55.000Z</time>
      </trkpt>
      <trkpt lat="47.27164" lon="-1.40218">
        <ele>58</ele>
        <time>2021-06-12T10:20:57.000Z</time>
      </trkpt>
      <trkpt lat="47.27155" lon="-1.40233">
        <ele>58</ele>
        <time>2021-06-12T10:20:59.000Z</time>
      </trkpt>
      <trkpt lat="47.27145" lon="-1.40248">
        <ele>58</ele>
        <time>2021-06-12T10:21:01.000Z</time>
      </trkpt>
      <trkpt lat="47.27136" lon="-1.40264">
        <ele>58</ele>
        <time>2021-06-12T10:21:03.000Z</time>
      </trkpt>
      <trkpt lat="47.27126" lon="-1.40279">
        <ele>58</ele>
        <time>2021-06-12T10:21:05.000Z</time>
      </trkpt>
      <trkpt lat="47.27116" lon="-1.40295">
        <ele>58</ele>
        <time>2021-06-12T10:21:07.000Z</time>
      </trkpt>
      <trkpt lat="47.27106" lon="-1.4031">
        <ele>58</ele>
        <time>2021-06-12T10:21:09.000Z</time>
      </trkpt>
      <trkpt lat="47.27096" lon="-1.40326">
        <ele>58</ele>
        <time>2021-06-12T10:21:11.000Z</time>
      </trkpt>
      <trkpt lat="47.27087" lon="-1.40341">
        <ele>58</ele>
        <time>2021-06-12T10:21:13.000Z</time>
      </trkpt>
      <trkpt lat="47.27077" lon="-1.40357">
        <ele>59</ele>
        <time>2021-06-12T10:21:15.000Z</time>
      </trkpt>
      <trkpt lat="47.27066" lon="-1.40373">
        <ele>58</ele>
        <time>2021-06-12T10:21:17.000Z</time>
      </trkpt>
      <trkpt lat="47.27056" lon="-1.40389">
        <ele>58</ele>
        <time>2021-06-12T10:21:19.000Z</time>
      </trkpt>
      <trkpt lat="47.27046" lon="-1.40405">
        <ele>58</ele>
        <time>2021-06-12T10:21:21.000Z</time>
      </trkpt>
      <trkpt lat="47.27036" lon="-1.40421">
        <ele>58</ele>
        <time>2021-06-12T10:21:23.000Z</time>
      </trkpt>
      <trkpt lat="47.27026" lon="-1.40437">
        <ele>58</ele>
        <time>2021-06-12T10:21:25.000Z</time>
      </trkpt>
      <trkpt lat="47.27016" lon="-1.40452">
        <ele>58</ele>
        <time>2021-06-12T10:21:27.000Z</time>
      </trkpt>
      <trkpt lat="47.27005" lon="-1.40468">
        <ele>58</ele>
        <time>2021-06-12T10:21:29.000Z</time>
      </trkpt>
      <trkpt lat="47.26996" lon="-1.40484">
        <ele>58</ele>
        <time>2021-06-12T10:21:31.000Z</time>
      </trkpt>
      <trkpt lat="47.26986" lon="-1.40499">
        <ele>58</ele>
        <time>2021-06-12T10:21:33.000Z</time>
      </trkpt>
      <trkpt lat="47.26976" lon="-1.40514">
        <ele>58</ele>
        <time>2021-06-12T10:21:35.000Z</time>
      </trkpt>
      <trkpt lat="47.26967" lon="-1.40529">
        <ele>58</ele>
        <time>2021-06-12T10:21:37.000Z</time>
      </trkpt>
      <trkpt lat="47.26958" lon="-1.40546">
        <ele>58</ele>
        <time>2021-06-12T10:21:39.000Z</time>
      </trkpt>
      <trkpt lat="47.26951" lon="-1.40563">
        <ele>58</ele>
        <time>2021-06-12T10:21:41.000Z</time>
      </trkpt>
      <trkpt lat="47.26945" lon="-1.40581">
        <ele>58</ele>
        <time>2021-06-12T10:21:43.000Z</time>
      </trkpt>
      <trkpt lat="47.26939" lon="-1.40601">
        <ele>58</ele>
        <time>2021-06-12T10:21:45.000Z</time>
      </trkpt>
      <trkpt lat="47.26935" lon="-1.40621">
        <ele>58</ele>
        <time>2021-06-12T10:21:47.000Z</time>
      </trkpt>
      <trkpt lat="47.26931" lon="-1.40641">
        <ele>59</ele>
        <time>2021-06-12T10:21:49.000Z</time>
      </trkpt>
      <trkpt lat="47.26927" lon="-1.40661">
        <ele>59</ele>
        <time>2021-06-12T10:21:51.000Z</time>
      </trkpt>
      <trkpt lat="47.26924" lon="-1.40681">
        <ele>58</ele>
        <time>2021-06-12T10:21:53.000Z</time>
      </trkpt>
      <trkpt lat="47.26922" lon="-1.40702">
        <ele>58</ele>
        <time>2021-06-12T10:21:55.000Z</time>
      </trkpt>
      <trkpt lat="47.26922" lon="-1.40722">
        <ele>58</ele>
        <time>2021-06-12T10:21:57.000Z</time>
      </trkpt>
      <trkpt lat="47.26923" lon="-1.40742">
        <ele>58</ele>
        <time>2021-06-12T10:21:59.000Z</time>
      </trkpt>
      <trkpt lat="47.26924" lon="-1.40762">
        <ele>58</ele>
        <time>2021-06-12T10:22:01.000Z</time>
      </trkpt>
      <trkpt lat="47.26922" lon="-1.40782">
        <ele>58</ele>
        <time>2021-06-12T10:22:03.000Z</time>
      </trkpt>
      <trkpt lat="47.26916" lon="-1.40799">
        <ele>58</ele>
        <time>2021-06-12T10:22:05.000Z</time>
      </trkpt>
      <trkpt lat="47.26908" lon="-1.40814">
        <ele>58</ele>
        <time>2021-06-12T10:22:07.000Z</time>
      </trkpt>
      <trkpt lat="47.26899" lon="-1.40828">
        <ele>58</ele>
        <time>2021-06-12T10:22:09.000Z</time>
      </trkpt>
      <trkpt lat="47.2689" lon="-1.40843">
        <ele>58</ele>
        <time>2021-06-12T10:22:11.000Z</time>
      </trkpt>
      <trkpt lat="47.26881" lon="-1.40857">
        <ele>58</ele>
        <time>2021-06-12T10:22:13.000Z</time>
      </trkpt>
      <trkpt lat="47.26872" lon="-1.40872">
        <ele>58</ele>
        <time>2021-06-12T10:22:15.000Z</time>
      </trkpt>
      <trkpt lat="47.26863" lon="-1.40887">
        <ele>58</ele>
        <time>2021-06-12T10:22:17.000Z</time>
      </trkpt>
      <trkpt lat="47.26853" lon="-1.40902">
        <ele>58</ele>
        <time>2021-06-12T10:22:19.000Z</time>
      </trkpt>
      <trkpt lat="47.26844" lon="-1.40917">
        <ele>58</ele>
        <time>2021-06-12T10:22:21.000Z</time>
      </trkpt>
      <trkpt lat="47.26836" lon="-1.40932">
        <ele>58</ele>
        <time>2021-06-12T10:22:23.000Z</time>
      </trkpt>
      <trkpt lat="47.26828" lon="-1.40946">
        <ele>59</ele>
        <time>2021-06-12T10:22:25.000Z</time>
      </trkpt>
      <trkpt lat="47.2682" lon="-1.40962">
        <ele>59</ele>
        <time>2021-06-12T10:22:27.000Z</time>
      </trkpt>
      <trkpt lat="47.26812" lon="-1.40978">
        <ele>59</ele>
        <time>2021-06-12T10:22:29.000Z</time>
      </trkpt>
      <trkpt lat="47.26804" lon="-1.40995">
        <ele>59</ele>
        <time>2021-06-12T10:22:31.000Z</time>
      </trkpt>
      <trkpt lat="47.26797" lon="-1.41013">
        <ele>58</ele>
        <time>2021-06-12T10:22:33.000Z</time>
      </trkpt>
      <trkpt lat="47.2679" lon="-1.41031">
        <ele>58</ele>
        <time>2021-06-12T10:22:35.000Z</time>
      </trkpt>
      <trkpt lat="47.26784" lon="-1.41049">
        <ele>58</ele>
        <time>2021-06-12T10:22:37.000Z</time>
      </trkpt>
      <trkpt lat="47.26778" lon="-1.41068">
        <ele>59</ele>
        <time>2021-06-12T10:22:39.000Z</time>
      </trkpt>
      <trkpt lat="47.26771" lon="-1.41086">
        <ele>59</ele>
        <time>2021-06-12T10:22:41.000Z</time>
      </trkpt>
      <trkpt lat="47.26764" lon="-1.41104">
        <ele>59</ele>
        <time>2021-06-12T10:22:43.000Z</time>
      </trkpt>
      <trkpt lat="47.26757" lon="-1.41121">
        <ele>59</ele>
        <time>2021-06-12T10:22:45.000Z</time>
      </trkpt>
      <trkpt lat="47.26747" lon="-1.41135">
        <ele>59</ele>
        <time>2021-06-12T10:22:47.000Z</time>
      </trkpt>
      <trkpt lat="47.26735" lon="-1.41148">
        <ele>58</ele>
        <time>2021-06-12T10:22:49.000Z</time>
      </trkpt>
      <trkpt lat="47.26724" lon="-1.41162">
        <ele>58</ele>
        <time>2021-06-12T10:22:51.000Z</time>
      </trkpt>
      <trkpt lat="47.26713" lon="-1.41175">
        <ele>58</ele>
        <time>2021-06-12T10:22:53.000Z</time>
      </trkpt>
      <trkpt lat="47.26702" lon="-1.41186">
        <ele>58</ele>
        <time>2021-06-12T10:22:55.000Z</time>
      </trkpt>
      <trkpt lat="47.26691" lon="-1.41198">
        <ele>58</ele>
        <time>2021-06-12T10:22:57.000Z</time>
      </trkpt>
      <trkpt lat="47.26681" lon="-1.41211">
        <ele>58</ele>
        <time>2021-06-12T10:22:59.000Z</time>
      </trkpt>
      <trkpt lat="47.26671" lon="-1.41224">
        <ele>58</ele>
        <time>2021-06-12T10:23:01.000Z</time>
      </trkpt>
      <trkpt lat="47.26661" lon="-1.41238">
        <ele>58</ele>
        <time>2021-06-12T10:23:03.000Z</time>
      </trkpt>
      <trkpt lat="47.26651" lon="-1.41252">
        <ele>58</ele>
        <time>2021-06-12T10:23:05.000Z</time>
      </trkpt>
      <trkpt lat="47.26641" lon="-1.41267">
        <ele>58</ele>
        <time>2021-06-12T10:23:07.000Z</time>
      </trkpt>
      <trkpt lat="47.26632" lon="-1.41282">
        <ele>57</ele>
        <time>2021-06-12T10:23:09.000Z</time>
      </trkpt>
      <trkpt lat="47.26623" lon="-1.41298">
        <ele>58</ele>
        <time>2021-06-12T10:23:11.000Z</time>
      </trkpt>
      <trkpt lat="47.26614" lon="-1.41313">
        <ele>57</ele>
        <time>2021-06-12T10:23:13.000Z</time>
      </trkpt>
      <trkpt lat="47.26605" lon="-1.4133">
        <ele>57</ele>
        <time>2021-06-12T10:23:15.000Z</time>
      </trkpt>
      <trkpt lat="47.26597" lon="-1.41347">
        <ele>57</ele>
        <time>2021-06-12T10:23:17.000Z</time>
      </trkpt>
      <trkpt lat="47.2659" lon="-1.41365">
        <ele>57</ele>
        <time>2021-06-12T10:23:19.000Z</time>
      </trkpt>
      <trkpt lat="47.26583" lon="-1.41383">
        <ele>57</ele>
        <time>2021-06-12T10:23:21.000Z</time>
      </trkpt>
      <trkpt lat="47.26576" lon="-1.41401">
        <ele>57</ele>
        <time>2021-06-12T10:23:23.000Z</time>
      </trkpt>
      <trkpt lat="47.26569" lon="-1.41418">
        <ele>57</ele>
        <time>2021-06-12T10:23:25.000Z</time>
      </trkpt>
      <trkpt lat="47.2656" lon="-1.41435">
        <ele>57</ele>
        <time>2021-06-12T10:23:27.000Z</time>
      </trkpt>
      <trkpt lat="47.26551" lon="-1.4145">
        <ele>57</ele>
        <time>2021-06-12T10:23:29.000Z</time>
      </trkpt>
      <trkpt lat="47.26541" lon="-1.41466">
        <ele>57</ele>
        <time>2021-06-12T10:23:31.000Z</time>
      </trkpt>
      <trkpt lat="47.26533" lon="-1.4148">
        <ele>56</ele>
        <time>2021-06-12T10:23:33.000Z</time>
      </trkpt>
      <trkpt lat="47.26524" lon="-1.41495">
        <ele>57</ele>
        <time>2021-06-12T10:23:35.000Z</time>
      </trkpt>
      <trkpt lat="47.26515" lon="-1.41511">
        <ele>57</ele>
        <time>2021-06-12T10:23:37.000Z</time>
      </trkpt>
      <trkpt lat="47.26505" lon="-1.41526">
        <ele>57</ele>
        <time>2021-06-12T10:23:39.000Z</time>
      </trkpt>
      <trkpt lat="47.26496" lon="-1.41542">
        <ele>56</ele>
        <time>2021-06-12T10:23:41.000Z</time>
      </trkpt>
      <trkpt lat="47.26488" lon="-1.41557">
        <ele>56</ele>
        <time>2021-06-12T10:23:43.000Z</time>
      </trkpt>
      <trkpt lat="47.26478" lon="-1.41573">
        <ele>56</ele>
        <time>2021-06-12T10:23:45.000Z</time>
      </trkpt>
      <trkpt lat="47.26469" lon="-1.41588">
        <ele>56</ele>
        <time>2021-06-12T10:23:47.000Z</time>
      </trkpt>
      <trkpt lat="47.2646" lon="-1.41604">
        <ele>56</ele>
        <time>2021-06-12T10:23:49.000Z</time>
      </trkpt>
      <trkpt lat="47.26452" lon="-1.41619">
        <ele>57</ele>
        <time>2021-06-12T10:23:51.000Z</time>
      </trkpt>
      <trkpt lat="47.26443" lon="-1.41634">
        <ele>57</ele>
        <time>2021-06-12T10:23:53.000Z</time>
      </trkpt>
      <trkpt lat="47.26434" lon="-1.4165">
        <ele>57</ele>
        <time>2021-06-12T10:23:55.000Z</time>
      </trkpt>
      <trkpt lat="47.26426" lon="-1.41665">
        <ele>57</ele>
        <time>2021-06-12T10:23:57.000Z</time>
      </trkpt>
      <trkpt lat="47.26417" lon="-1.4168">
        <ele>57</ele>
        <time>2021-06-12T10:23:59.000Z</time>
      </trkpt>
      <trkpt lat="47.26408" lon="-1.41696">
        <ele>58</ele>
        <time>2021-06-12T10:24:01.000Z</time>
      </trkpt>
      <trkpt lat="47.26399" lon="-1.41711">
        <ele>58</ele>
        <time>2021-06-12T10:24:03.000Z</time>
      </trkpt>
      <trkpt lat="47.2639" lon="-1.41726">
        <ele>58</ele>
        <time>2021-06-12T10:24:05.000Z</time>
      </trkpt>
      <trkpt lat="47.26381" lon="-1.41741">
        <ele>58</ele>
        <time>2021-06-12T10:24:07.000Z</time>
      </trkpt>
      <trkpt lat="47.26372" lon="-1.41757">
        <ele>58</ele>
        <time>2021-06-12T10:24:09.000Z</time>
      </trkpt>
      <trkpt lat="47.26363" lon="-1.41772">
        <ele>57</ele>
        <time>2021-06-12T10:24:11.000Z</time>
      </trkpt>
      <trkpt lat="47.26354" lon="-1.41788">
        <ele>57</ele>
        <time>2021-06-12T10:24:13.000Z</time>
      </trkpt>
      <trkpt lat="47.26345" lon="-1.41804">
        <ele>58</ele>
        <time>2021-06-12T10:24:15.000Z</time>
      </trkpt>
      <trkpt lat="47.26336" lon="-1.4182">
        <ele>57</ele>
        <time>2021-06-12T10:24:17.000Z</time>
      </trkpt>
      <trkpt lat="47.26326" lon="-1.41836">
        <ele>58</ele>
        <time>2021-06-12T10:24:19.000Z</time>
      </trkpt>
      <trkpt lat="47.26317" lon="-1.41851">
        <ele>58</ele>
        <time>2021-06-12T10:24:21.000Z</time>
      </trkpt>
      <trkpt lat="47.26308" lon="-1.41868">
        <ele>58</ele>
        <time>2021-06-12T10:24:23.000Z</time>
      </trkpt>
      <trkpt lat="47.26299" lon="-1.41884">
        <ele>57</ele>
        <time>2021-06-12T10:24:25.000Z</time>
      </trkpt>
      <trkpt lat="47.2629" lon="-1.41899">
        <ele>57</ele>
        <time>2021-06-12T10:24:27.000Z</time>
      </trkpt>
      <trkpt lat="47.2628" lon="-1.41915">
        <ele>57</ele>
        <time>2021-06-12T10:24:29.000Z</time>
      </trkpt>
      <trkpt lat="47.26271" lon="-1.41932">
        <ele>57</ele>
        <time>2021-06-12T10:24:31.000Z</time>
      </trkpt>
      <trkpt lat="47.26261" lon="-1.41948">
        <ele>57</ele>
        <time>2021-06-12T10:24:33.000Z</time>
      </trkpt>
      <trkpt lat="47.26252" lon="-1.41964">
        <ele>57</ele>
        <time>2021-06-12T10:24:35.000Z</time>
      </trkpt>
      <trkpt lat="47.26242" lon="-1.4198">
        <ele>57</ele>
        <time>2021-06-12T10:24:37.000Z</time>
      </trkpt>
      <trkpt lat="47.26233" lon="-1.41996">
        <ele>57</ele>
        <time>2021-06-12T10:24:39.000Z</time>
      </trkpt>
      <trkpt lat="47.26224" lon="-1.42012">
        <ele>57</ele>
        <time>2021-06-12T10:24:41.000Z</time>
      </trkpt>
      <trkpt lat="47.26215" lon="-1.42029">
        <ele>58</ele>
        <time>2021-06-12T10:24:43.000Z</time>
      </trkpt>
      <trkpt lat="47.26205" lon="-1.42045">
        <ele>58</ele>
        <time>2021-06-12T10:24:45.000Z</time>
      </trkpt>
      <trkpt lat="47.26196" lon="-1.42061">
        <ele>58</ele>
        <time>2021-06-12T10:24:47.000Z</time>
      </trkpt>
      <trkpt lat="47.26186" lon="-1.42077">
        <ele>58</ele>
        <time>2021-06-12T10:24:49.000Z</time>
      </trkpt>
      <trkpt lat="47.26177" lon="-1.42093">
        <ele>58</ele>
        <time>2021-06-12T10:24:51.000Z</time>
      </trkpt>
      <trkpt lat="47.26167" lon="-1.4211">
        <ele>58</ele>
        <time>2021-06-12T10:24:53.000Z</time>
      </trkpt>
      <trkpt lat="47.26158" lon="-1.42126">
        <ele>58</ele>
        <time>2021-06-12T10:24:55.000Z</time>
      </trkpt>
      <trkpt lat="47.26148" lon="-1.42142">
        <ele>58</ele>
        <time>2021-06-12T10:24:57.000Z</time>
      </trkpt>
      <trkpt lat="47.26139" lon="-1.42159">
        <ele>58</ele>
        <time>2021-06-12T10:24:59.000Z</time>
      </trkpt>
      <trkpt lat="47.26128" lon="-1.42175">
        <ele>57</ele>
        <time>2021-06-12T10:25:01.000Z</time>
      </trkpt>
      <trkpt lat="47.26117" lon="-1.4219">
        <ele>57</ele>
        <time>2021-06-12T10:25:03.000Z</time>
      </trkpt>
      <trkpt lat="47.26106" lon="-1.42204">
        <ele>57</ele>
        <time>2021-06-12T10:25:05.000Z</time>
      </trkpt>
      <trkpt lat="47.26096" lon="-1.42218">
        <ele>57</ele>
        <time>2021-06-12T10:25:07.000Z</time>
      </trkpt>
      <trkpt lat="47.26085" lon="-1.42231">
        <ele>57</ele>
        <time>2021-06-12T10:25:09.000Z</time>
      </trkpt>
      <trkpt lat="47.26075" lon="-1.42245">
        <ele>58</ele>
        <time>2021-06-12T10:25:11.000Z</time>
      </trkpt>
      <trkpt lat="47.26063" lon="-1.42259">
        <ele>57</ele>
        <time>2021-06-12T10:25:13.000Z</time>
      </trkpt>
      <trkpt lat="47.26052" lon="-1.42273">
        <ele>57</ele>
        <time>2021-06-12T10:25:15.000Z</time>
      </trkpt>
      <trkpt lat="47.26041" lon="-1.42287">
        <ele>57</ele>
        <time>2021-06-12T10:25:17.000Z</time>
      </trkpt>
      <trkpt lat="47.2603" lon="-1.42301">
        <ele>57</ele>
        <time>2021-06-12T10:25:19.000Z</time>
      </trkpt>
      <trkpt lat="47.2602" lon="-1.42315">
        <ele>57</ele>
        <time>2021-06-12T10:25:21.000Z</time>
      </trkpt>
      <trkpt lat="47.26009" lon="-1.42328">
        <ele>57</ele>
        <time>2021-06-12T10:25:23.000Z</time>
      </trkpt>
      <trkpt lat="47.25998" lon="-1.42342">
        <ele>57</ele>
        <time>2021-06-12T10:25:25.000Z</time>
      </trkpt>
      <trkpt lat="47.25988" lon="-1.42357">
        <ele>57</ele>
        <time>2021-06-12T10:25:27.000Z</time>
      </trkpt>
      <trkpt lat="47.25977" lon="-1.4237">
        <ele>57</ele>
        <time>2021-06-12T10:25:29.000Z</time>
      </trkpt>
      <trkpt lat="47.25966" lon="-1.42385">
        <ele>57</ele>
        <time>2021-06-12T10:25:31.000Z</time>
      </trkpt>
      <trkpt lat="47.25956" lon="-1.42399">
        <ele>57</ele>
        <time>2021-06-12T10:25:33.000Z</time>
      </trkpt>
      <trkpt lat="47.25945" lon="-1.42413">
        <ele>57</ele>
        <time>2021-06-12T10:25:35.000Z</time>
      </trkpt>
      <trkpt lat="47.25934" lon="-1.42427">
        <ele>57</ele>
        <time>2021-06-12T10:25:37.000Z</time>
      </trkpt>
      <trkpt lat="47.25923" lon="-1.42441">
        <ele>57</ele>
        <time>2021-06-12T10:25:39.000Z</time>
      </trkpt>
      <trkpt lat="47.25912" lon="-1.42454">
        <ele>56</ele>
        <time>2021-06-12T10:25:41.000Z</time>
      </trkpt>
      <trkpt lat="47.25901" lon="-1.42467">
        <ele>56</ele>
        <time>2021-06-12T10:25:43.000Z</time>
      </trkpt>
      <trkpt lat="47.25889" lon="-1.42478">
        <ele>56</ele>
        <time>2021-06-12T10:25:45.000Z</time>
      </trkpt>
      <trkpt lat="47.25876" lon="-1.42489">
        <ele>56</ele>
        <time>2021-06-12T10:25:47.000Z</time>
      </trkpt>
      <trkpt lat="47.25864" lon="-1.425">
        <ele>57</ele>
        <time>2021-06-12T10:25:49.000Z</time>
      </trkpt>
      <trkpt lat="47.25851" lon="-1.4251">
        <ele>56</ele>
        <time>2021-06-12T10:25:51.000Z</time>
      </trkpt>
      <trkpt lat="47.25839" lon="-1.42519">
        <ele>57</ele>
        <time>2021-06-12T10:25:53.000Z</time>
      </trkpt>
      <trkpt lat="47.25826" lon="-1.42529">
        <ele>57</ele>
        <time>2021-06-12T10:25:55.000Z</time>
      </trkpt>
      <trkpt lat="47.25814" lon="-1.4254">
        <ele>56</ele>
        <time>2021-06-12T10:25:57.000Z</time>
      </trkpt>
      <trkpt lat="47.25802" lon="-1.42549">
        <ele>56</ele>
        <time>2021-06-12T10:25:59.000Z</time>
      </trkpt>
      <trkpt lat="47.2579" lon="-1.42559">
        <ele>56</ele>
        <time>2021-06-12T10:26:01.000Z</time>
      </trkpt>
      <trkpt lat="47.25778" lon="-1.42569">
        <ele>57</ele>
        <time>2021-06-12T10:26:03.000Z</time>
      </trkpt>
      <trkpt lat="47.25767" lon="-1.42579">
        <ele>57</ele>
        <time>2021-06-12T10:26:05.000Z</time>
      </trkpt>
      <trkpt lat="47.25756" lon="-1.42588">
        <ele>57</ele>
        <time>2021-06-12T10:26:07.000Z</time>
      </trkpt>
      <trkpt lat="47.25746" lon="-1.42598">
        <ele>57</ele>
        <time>2021-06-12T10:26:09.000Z</time>
      </trkpt>
      <trkpt lat="47.25738" lon="-1.42607">
        <ele>58</ele>
        <time>2021-06-12T10:26:11.000Z</time>
      </trkpt>
      <trkpt lat="47.25733" lon="-1.42618">
        <ele>58</ele>
        <time>2021-06-12T10:26:13.000Z</time>
      </trkpt>
      <trkpt lat="47.25735" lon="-1.42631">
        <ele>58</ele>
        <time>2021-06-12T10:26:15.000Z</time>
      </trkpt>
      <trkpt lat="47.25741" lon="-1.42646">
        <ele>59</ele>
        <time>2021-06-12T10:26:17.000Z</time>
      </trkpt>
      <trkpt lat="47.25748" lon="-1.4266">
        <ele>60</ele>
        <time>2021-06-12T10:26:19.000Z</time>
      </trkpt>
      <trkpt lat="47.25754" lon="-1.42676">
        <ele>61</ele>
        <time>2021-06-12T10:26:21.000Z</time>
      </trkpt>
      <trkpt lat="47.25761" lon="-1.42693">
        <ele>62</ele>
        <time>2021-06-12T10:26:23.000Z</time>
      </trkpt>
      <trkpt lat="47.25768" lon="-1.42711">
        <ele>63</ele>
        <time>2021-06-12T10:26:25.000Z</time>
      </trkpt>
      <trkpt lat="47.25776" lon="-1.42728">
        <ele>62</ele>
        <time>2021-06-12T10:26:27.000Z</time>
      </trkpt>
      <trkpt lat="47.25782" lon="-1.42746">
        <ele>63</ele>
        <time>2021-06-12T10:26:29.000Z</time>
      </trkpt>
      <trkpt lat="47.2579" lon="-1.42763">
        <ele>63</ele>
        <time>2021-06-12T10:26:31.000Z</time>
      </trkpt>
      <trkpt lat="47.25797" lon="-1.42781">
        <ele>64</ele>
        <time>2021-06-12T10:26:33.000Z</time>
      </trkpt>
      <trkpt lat="47.25804" lon="-1.42798">
        <ele>63</ele>
        <time>2021-06-12T10:26:35.000Z</time>
      </trkpt>
      <trkpt lat="47.25811" lon="-1.42816">
        <ele>64</ele>
        <time>2021-06-12T10:26:37.000Z</time>
      </trkpt>
      <trkpt lat="47.25818" lon="-1.42833">
        <ele>64</ele>
        <time>2021-06-12T10:26:39.000Z</time>
      </trkpt>
      <trkpt lat="47.25825" lon="-1.4285">
        <ele>65</ele>
        <time>2021-06-12T10:26:41.000Z</time>
      </trkpt>
      <trkpt lat="47.25832" lon="-1.42867">
        <ele>65</ele>
        <time>2021-06-12T10:26:43.000Z</time>
      </trkpt>
      <trkpt lat="47.25839" lon="-1.42885">
        <ele>65</ele>
        <time>2021-06-12T10:26:45.000Z</time>
      </trkpt>
      <trkpt lat="47.25846" lon="-1.42901">
        <ele>65</ele>
        <time>2021-06-12T10:26:47.000Z</time>
      </trkpt>
      <trkpt lat="47.25853" lon="-1.42918">
        <ele>64</ele>
        <time>2021-06-12T10:26:49.000Z</time>
      </trkpt>
      <trkpt lat="47.2586" lon="-1.42937">
        <ele>63</ele>
        <time>2021-06-12T10:26:51.000Z</time>
      </trkpt>
      <trkpt lat="47.25868" lon="-1.42956">
        <ele>62</ele>
        <time>2021-06-12T10:26:53.000Z</time>
      </trkpt>
      <trkpt lat="47.25876" lon="-1.42975">
        <ele>61</ele>
        <time>2021-06-12T10:26:55.000Z</time>
      </trkpt>
      <trkpt lat="47.25884" lon="-1.42994">
        <ele>60</ele>
        <time>2021-06-12T10:26:57.000Z</time>
      </trkpt>
      <trkpt lat="47.25892" lon="-1.43013">
        <ele>60</ele>
        <time>2021-06-12T10:26:59.000Z</time>
      </trkpt>
      <trkpt lat="47.259" lon="-1.43033">
        <ele>60</ele>
        <time>2021-06-12T10:27:01.000Z</time>
      </trkpt>
      <trkpt lat="47.25907" lon="-1.43052">
        <ele>60</ele>
        <time>2021-06-12T10:27:03.000Z</time>
      </trkpt>
      <trkpt lat="47.25914" lon="-1.4307">
        <ele>59</ele>
        <time>2021-06-12T10:27:05.000Z</time>
      </trkpt>
      <trkpt lat="47.25921" lon="-1.43088">
        <ele>59</ele>
        <time>2021-06-12T10:27:07.000Z</time>
      </trkpt>
      <trkpt lat="47.25929" lon="-1.43105">
        <ele>59</ele>
        <time>2021-06-12T10:27:09.000Z</time>
      </trkpt>
      <trkpt lat="47.25937" lon="-1.4312">
        <ele>59</ele>
        <time>2021-06-12T10:27:11.000Z</time>
      </trkpt>
      <trkpt lat="47.25946" lon="-1.43135">
        <ele>59</ele>
        <time>2021-06-12T10:27:13.000Z</time>
      </trkpt>
      <trkpt lat="47.25956" lon="-1.43149">
        <ele>59</ele>
        <time>2021-06-12T10:27:15.000Z</time>
      </trkpt>
      <trkpt lat="47.25965" lon="-1.43162">
        <ele>60</ele>
        <time>2021-06-12T10:27:17.000Z</time>
      </trkpt>
      <trkpt lat="47.25975" lon="-1.43176">
        <ele>60</ele>
        <time>2021-06-12T10:27:19.000Z</time>
      </trkpt>
      <trkpt lat="47.25984" lon="-1.43189">
        <ele>60</ele>
        <time>2021-06-12T10:27:21.000Z</time>
      </trkpt>
      <trkpt lat="47.25994" lon="-1.43203">
        <ele>61</ele>
        <time>2021-06-12T10:27:23.000Z</time>
      </trkpt>
      <trkpt lat="47.26003" lon="-1.43216">
        <ele>62</ele>
        <time>2021-06-12T10:27:25.000Z</time>
      </trkpt>
      <trkpt lat="47.26012" lon="-1.4323">
        <ele>63</ele>
        <time>2021-06-12T10:27:27.000Z</time>
      </trkpt>
      <trkpt lat="47.26022" lon="-1.43244">
        <ele>64</ele>
        <time>2021-06-12T10:27:29.000Z</time>
      </trkpt>
      <trkpt lat="47.26032" lon="-1.43258">
        <ele>64</ele>
        <time>2021-06-12T10:27:31.000Z</time>
      </trkpt>
      <trkpt lat="47.26041" lon="-1.43273">
        <ele>65</ele>
        <time>2021-06-12T10:27:33.000Z</time>
      </trkpt>
      <trkpt lat="47.2605" lon="-1.43285">
        <ele>65</ele>
        <time>2021-06-12T10:27:35.000Z</time>
      </trkpt>
      <trkpt lat="47.26059" lon="-1.43298">
        <ele>66</ele>
        <time>2021-06-12T10:27:37.000Z</time>
      </trkpt>
      <trkpt lat="47.26069" lon="-1.43312">
        <ele>66</ele>
        <time>2021-06-12T10:27:39.000Z</time>
      </trkpt>
      <trkpt lat="47.26078" lon="-1.43326">
        <ele>66</ele>
        <time>2021-06-12T10:27:41.000Z</time>
      </trkpt>
      <trkpt lat="47.26086" lon="-1.43339">
        <ele>66</ele>
        <time>2021-06-12T10:27:43.000Z</time>
      </trkpt>
      <trkpt lat="47.26096" lon="-1.43353">
        <ele>66</ele>
        <time>2021-06-12T10:27:45.000Z</time>
      </trkpt>
      <trkpt lat="47.26106" lon="-1.43366">
        <ele>66</ele>
        <time>2021-06-12T10:27:47.000Z</time>
      </trkpt>
      <trkpt lat="47.26115" lon="-1.43378">
        <ele>66</ele>
        <time>2021-06-12T10:27:49.000Z</time>
      </trkpt>
      <trkpt lat="47.26124" lon="-1.43391">
        <ele>67</ele>
        <time>2021-06-12T10:27:51.000Z</time>
      </trkpt>
      <trkpt lat="47.26134" lon="-1.43404">
        <ele>66</ele>
        <time>2021-06-12T10:27:53.000Z</time>
      </trkpt>
      <trkpt lat="47.26144" lon="-1.43418">
        <ele>66</ele>
        <time>2021-06-12T10:27:55.000Z</time>
      </trkpt>
      <trkpt lat="47.26153" lon="-1.4343">
        <ele>66</ele>
        <time>2021-06-12T10:27:57.000Z</time>
      </trkpt>
      <trkpt lat="47.26164" lon="-1.43445">
        <ele>66</ele>
        <time>2021-06-12T10:27:59.000Z</time>
      </trkpt>
      <trkpt lat="47.26173" lon="-1.4346">
        <ele>67</ele>
        <time>2021-06-12T10:28:01.000Z</time>
      </trkpt>
      <trkpt lat="47.26183" lon="-1.43475">
        <ele>67</ele>
        <time>2021-06-12T10:28:03.000Z</time>
      </trkpt>
      <trkpt lat="47.26194" lon="-1.43487">
        <ele>66</ele>
        <time>2021-06-12T10:28:05.000Z</time>
      </trkpt>
      <trkpt lat="47.26204" lon="-1.43503">
        <ele>66</ele>
        <time>2021-06-12T10:28:07.000Z</time>
      </trkpt>
      <trkpt lat="47.26214" lon="-1.43518">
        <ele>66</ele>
        <time>2021-06-12T10:28:09.000Z</time>
      </trkpt>
      <trkpt lat="47.26223" lon="-1.43531">
        <ele>65</ele>
        <time>2021-06-12T10:28:11.000Z</time>
      </trkpt>
      <trkpt lat="47.2623" lon="-1.43541">
        <ele>65</ele>
        <time>2021-06-12T10:28:13.000Z</time>
      </trkpt>
      <trkpt lat="47.26236" lon="-1.43551">
        <ele>64</ele>
        <time>2021-06-12T10:28:16.000Z</time>
      </trkpt>
      <trkpt lat="47.26232" lon="-1.43566">
        <ele>62</ele>
        <time>2021-06-12T10:28:19.000Z</time>
      </trkpt>
      <trkpt lat="47.26224" lon="-1.43579">
        <ele>60</ele>
        <time>2021-06-12T10:28:21.000Z</time>
      </trkpt>
      <trkpt lat="47.26214" lon="-1.43592">
        <ele>59</ele>
        <time>2021-06-12T10:28:23.000Z</time>
      </trkpt>
      <trkpt lat="47.26204" lon="-1.43606">
        <ele>57</ele>
        <time>2021-06-12T10:28:25.000Z</time>
      </trkpt>
      <trkpt lat="47.26193" lon="-1.43621">
        <ele>57</ele>
        <time>2021-06-12T10:28:27.000Z</time>
      </trkpt>
      <trkpt lat="47.26184" lon="-1.43635">
        <ele>57</ele>
        <time>2021-06-12T10:28:29.000Z</time>
      </trkpt>
      <trkpt lat="47.26173" lon="-1.4365">
        <ele>57</ele>
        <time>2021-06-12T10:28:31.000Z</time>
      </trkpt>
      <trkpt lat="47.26163" lon="-1.43665">
        <ele>57</ele>
        <time>2021-06-12T10:28:33.000Z</time>
      </trkpt>
      <trkpt lat="47.26153" lon="-1.4368">
        <ele>56</ele>
        <time>2021-06-12T10:28:35.000Z</time>
      </trkpt>
      <trkpt lat="47.26143" lon="-1.43696">
        <ele>56</ele>
        <time>2021-06-12T10:28:37.000Z</time>
      </trkpt>
      <trkpt lat="47.26133" lon="-1.43712">
        <ele>56</ele>
        <time>2021-06-12T10:28:39.000Z</time>
      </trkpt>
      <trkpt lat="47.26123" lon="-1.43728">
        <ele>57</ele>
        <time>2021-06-12T10:28:41.000Z</time>
      </trkpt>
      <trkpt lat="47.26113" lon="-1.43743">
        <ele>57</ele>
        <time>2021-06-12T10:28:43.000Z</time>
      </trkpt>
      <trkpt lat="47.26102" lon="-1.43756">
        <ele>57</ele>
        <time>2021-06-12T10:28:45.000Z</time>
      </trkpt>
      <trkpt lat="47.26092" lon="-1.43769">
        <ele>57</ele>
        <time>2021-06-12T10:28:47.000Z</time>
      </trkpt>
      <trkpt lat="47.26081" lon="-1.43783">
        <ele>57</ele>
        <time>2021-06-12T10:28:49.000Z</time>
      </trkpt>
      <trkpt lat="47.26069" lon="-1.43797">
        <ele>57</ele>
        <time>2021-06-12T10:28:51.000Z</time>
      </trkpt>
      <trkpt lat="47.2606" lon="-1.43812">
        <ele>57</ele>
        <time>2021-06-12T10:28:53.000Z</time>
      </trkpt>
      <trkpt lat="47.26052" lon="-1.43829">
        <ele>56</ele>
        <time>2021-06-12T10:28:55.000Z</time>
      </trkpt>
      <trkpt lat="47.26044" lon="-1.43846">
        <ele>57</ele>
        <time>2021-06-12T10:28:57.000Z</time>
      </trkpt>
      <trkpt lat="47.26035" lon="-1.43862">
        <ele>57</ele>
        <time>2021-06-12T10:28:59.000Z</time>
      </trkpt>
      <trkpt lat="47.26024" lon="-1.43873">
        <ele>57</ele>
        <time>2021-06-12T10:29:01.000Z</time>
      </trkpt>
      <trkpt lat="47.26014" lon="-1.43884">
        <ele>57</ele>
        <time>2021-06-12T10:29:03.000Z</time>
      </trkpt>
      <trkpt lat="47.26003" lon="-1.43897">
        <ele>58</ele>
        <time>2021-06-12T10:29:05.000Z</time>
      </trkpt>
      <trkpt lat="47.25992" lon="-1.43909">
        <ele>58</ele>
        <time>2021-06-12T10:29:07.000Z</time>
      </trkpt>
      <trkpt lat="47.2598" lon="-1.43923">
        <ele>58</ele>
        <time>2021-06-12T10:29:09.000Z</time>
      </trkpt>
      <trkpt lat="47.25969" lon="-1.43936">
        <ele>58</ele>
        <time>2021-06-12T10:29:11.000Z</time>
      </trkpt>
      <trkpt lat="47.25958" lon="-1.4395">
        <ele>58</ele>
        <time>2021-06-12T10:29:13.000Z</time>
      </trkpt>
      <trkpt lat="47.25947" lon="-1.43963">
        <ele>58</ele>
        <time>2021-06-12T10:29:15.000Z</time>
      </trkpt>
      <trkpt lat="47.25936" lon="-1.43976">
        <ele>59</ele>
        <time>2021-06-12T10:29:17.000Z</time>
      </trkpt>
      <trkpt lat="47.25924" lon="-1.43989">
        <ele>59</ele>
        <time>2021-06-12T10:29:19.000Z</time>
      </trkpt>
      <trkpt lat="47.25912" lon="-1.44001">
        <ele>59</ele>
        <time>2021-06-12T10:29:21.000Z</time>
      </trkpt>
      <trkpt lat="47.259" lon="-1.44014">
        <ele>59</ele>
        <time>2021-06-12T10:29:23.000Z</time>
      </trkpt>
      <trkpt lat="47.25889" lon="-1.44027">
        <ele>58</ele>
        <time>2021-06-12T10:29:25.000Z</time>
      </trkpt>
      <trkpt lat="47.25879" lon="-1.44043">
        <ele>58</ele>
        <time>2021-06-12T10:29:27.000Z</time>
      </trkpt>
      <trkpt lat="47.25872" lon="-1.4406">
        <ele>57</ele>
        <time>2021-06-12T10:29:29.000Z</time>
      </trkpt>
      <trkpt lat="47.25865" lon="-1.44078">
        <ele>57</ele>
        <time>2021-06-12T10:29:31.000Z</time>
      </trkpt>
      <trkpt lat="47.25856" lon="-1.44092">
        <ele>57</ele>
        <time>2021-06-12T10:29:33.000Z</time>
      </trkpt>
      <trkpt lat="47.25845" lon="-1.44104">
        <ele>57</ele>
        <time>2021-06-12T10:29:35.000Z</time>
      </trkpt>
      <trkpt lat="47.25835" lon="-1.44118">
        <ele>56</ele>
        <time>2021-06-12T10:29:37.000Z</time>
      </trkpt>
      <trkpt lat="47.25823" lon="-1.44131">
        <ele>56</ele>
        <time>2021-06-12T10:29:39.000Z</time>
      </trkpt>
      <trkpt lat="47.25812" lon="-1.44143">
        <ele>56</ele>
        <time>2021-06-12T10:29:41.000Z</time>
      </trkpt>
      <trkpt lat="47.25802" lon="-1.44156">
        <ele>56</ele>
        <time>2021-06-12T10:29:43.000Z</time>
      </trkpt>
      <trkpt lat="47.2579" lon="-1.44168">
        <ele>56</ele>
        <time>2021-06-12T10:29:45.000Z</time>
      </trkpt>
      <trkpt lat="47.2578" lon="-1.44181">
        <ele>56</ele>
        <time>2021-06-12T10:29:47.000Z</time>
      </trkpt>
      <trkpt lat="47.25769" lon="-1.44194">
        <ele>55</ele>
        <time>2021-06-12T10:29:49.000Z</time>
      </trkpt>
      <trkpt lat="47.25758" lon="-1.44207">
        <ele>55</ele>
        <time>2021-06-12T10:29:51.000Z</time>
      </trkpt>
      <trkpt lat="47.25748" lon="-1.44221">
        <ele>55</ele>
        <time>2021-06-12T10:29:53.000Z</time>
      </trkpt>
      <trkpt lat="47.25737" lon="-1.44233">
        <ele>55</ele>
        <time>2021-06-12T10:29:55.000Z</time>
      </trkpt>
      <trkpt lat="47.25728" lon="-1.44246">
        <ele>55</ele>
        <time>2021-06-12T10:29:57.000Z</time>
      </trkpt>
      <trkpt lat="47.25718" lon="-1.44259">
        <ele>55</ele>
        <time>2021-06-12T10:29:59.000Z</time>
      </trkpt>
      <trkpt lat="47.25708" lon="-1.4427">
        <ele>56</ele>
        <time>2021-06-12T10:30:01.000Z</time>
      </trkpt>
      <trkpt lat="47.25697" lon="-1.44282">
        <ele>55</ele>
        <time>2021-06-12T10:30:03.000Z</time>
      </trkpt>
      <trkpt lat="47.25687" lon="-1.44295">
        <ele>55</ele>
        <time>2021-06-12T10:30:05.000Z</time>
      </trkpt>
      <trkpt lat="47.25677" lon="-1.44307">
        <ele>55</ele>
        <time>2021-06-12T10:30:07.000Z</time>
      </trkpt>
      <trkpt lat="47.25667" lon="-1.44321">
        <ele>55</ele>
        <time>2021-06-12T10:30:09.000Z</time>
      </trkpt>
      <trkpt lat="47.25656" lon="-1.44333">
        <ele>55</ele>
        <time>2021-06-12T10:30:11.000Z</time>
      </trkpt>
      <trkpt lat="47.25646" lon="-1.44345">
        <ele>56</ele>
        <time>2021-06-12T10:30:13.000Z</time>
      </trkpt>
      <trkpt lat="47.25636" lon="-1.44357">
        <ele>56</ele>
        <time>2021-06-12T10:30:15.000Z</time>
      </trkpt>
      <trkpt lat="47.25625" lon="-1.44368">
        <ele>56</ele>
        <time>2021-06-12T10:30:17.000Z</time>
      </trkpt>
      <trkpt lat="47.25614" lon="-1.44379">
        <ele>56</ele>
        <time>2021-06-12T10:30:19.000Z</time>
      </trkpt>
      <trkpt lat="47.25604" lon="-1.44392">
        <ele>56</ele>
        <time>2021-06-12T10:30:21.000Z</time>
      </trkpt>
      <trkpt lat="47.25593" lon="-1.44403">
        <ele>56</ele>
        <time>2021-06-12T10:30:23.000Z</time>
      </trkpt>
      <trkpt lat="47.25583" lon="-1.44415">
        <ele>56</ele>
        <time>2021-06-12T10:30:25.000Z</time>
      </trkpt>
      <trkpt lat="47.25573" lon="-1.44427">
        <ele>56</ele>
        <time>2021-06-12T10:30:27.000Z</time>
      </trkpt>
      <trkpt lat="47.25563" lon="-1.44439">
        <ele>56</ele>
        <time>2021-06-12T10:30:29.000Z</time>
      </trkpt>
      <trkpt lat="47.25554" lon="-1.44453">
        <ele>57</ele>
        <time>2021-06-12T10:30:31.000Z</time>
      </trkpt>
      <trkpt lat="47.25544" lon="-1.44467">
        <ele>57</ele>
        <time>2021-06-12T10:30:33.000Z</time>
      </trkpt>
      <trkpt lat="47.25534" lon="-1.44481">
        <ele>58</ele>
        <time>2021-06-12T10:30:35.000Z</time>
      </trkpt>
      <trkpt lat="47.25525" lon="-1.44494">
        <ele>58</ele>
        <time>2021-06-12T10:30:37.000Z</time>
      </trkpt>
      <trkpt lat="47.25516" lon="-1.4451">
        <ele>57</ele>
        <time>2021-06-12T10:30:39.000Z</time>
      </trkpt>
      <trkpt lat="47.25506" lon="-1.44524">
        <ele>56</ele>
        <time>2021-06-12T10:30:41.000Z</time>
      </trkpt>
      <trkpt lat="47.25496" lon="-1.44538">
        <ele>55</ele>
        <time>2021-06-12T10:30:43.000Z</time>
      </trkpt>
      <trkpt lat="47.25486" lon="-1.44552">
        <ele>55</ele>
        <time>2021-06-12T10:30:45.000Z</time>
      </trkpt>
      <trkpt lat="47.25476" lon="-1.44567">
        <ele>54</ele>
        <time>2021-06-12T10:30:47.000Z</time>
      </trkpt>
      <trkpt lat="47.25467" lon="-1.44582">
        <ele>54</ele>
        <time>2021-06-12T10:30:49.000Z</time>
      </trkpt>
      <trkpt lat="47.25458" lon="-1.44596">
        <ele>55</ele>
        <time>2021-06-12T10:30:51.000Z</time>
      </trkpt>
      <trkpt lat="47.25448" lon="-1.44611">
        <ele>55</ele>
        <time>2021-06-12T10:30:53.000Z</time>
      </trkpt>
      <trkpt lat="47.25438" lon="-1.44625">
        <ele>54</ele>
        <time>2021-06-12T10:30:55.000Z</time>
      </trkpt>
      <trkpt lat="47.25428" lon="-1.44639">
        <ele>54</ele>
        <time>2021-06-12T10:30:57.000Z</time>
      </trkpt>
      <trkpt lat="47.25418" lon="-1.44652">
        <ele>54</ele>
        <time>2021-06-12T10:30:59.000Z</time>
      </trkpt>
      <trkpt lat="47.25407" lon="-1.44665">
        <ele>55</ele>
        <time>2021-06-12T10:31:01.000Z</time>
      </trkpt>
      <trkpt lat="47.25396" lon="-1.4468">
        <ele>55</ele>
        <time>2021-06-12T10:31:03.000Z</time>
      </trkpt>
      <trkpt lat="47.25386" lon="-1.44693">
        <ele>55</ele>
        <time>2021-06-12T10:31:05.000Z</time>
      </trkpt>
      <trkpt lat="47.25375" lon="-1.44706">
        <ele>54</ele>
        <time>2021-06-12T10:31:07.000Z</time>
      </trkpt>
      <trkpt lat="47.25364" lon="-1.44719">
        <ele>54</ele>
        <time>2021-06-12T10:31:09.000Z</time>
      </trkpt>
      <trkpt lat="47.25353" lon="-1.44731">
        <ele>54</ele>
        <time>2021-06-12T10:31:11.000Z</time>
      </trkpt>
      <trkpt lat="47.2534" lon="-1.44743">
        <ele>54</ele>
        <time>2021-06-12T10:31:13.000Z</time>
      </trkpt>
      <trkpt lat="47.25329" lon="-1.44754">
        <ele>54</ele>
        <time>2021-06-12T10:31:15.000Z</time>
      </trkpt>
      <trkpt lat="47.25318" lon="-1.44765">
        <ele>54</ele>
        <time>2021-06-12T10:31:17.000Z</time>
      </trkpt>
      <trkpt lat="47.25306" lon="-1.44778">
        <ele>54</ele>
        <time>2021-06-12T10:31:19.000Z</time>
      </trkpt>
      <trkpt lat="47.25295" lon="-1.4479">
        <ele>54</ele>
        <time>2021-06-12T10:31:21.000Z</time>
      </trkpt>
      <trkpt lat="47.25284" lon="-1.44802">
        <ele>54</ele>
        <time>2021-06-12T10:31:23.000Z</time>
      </trkpt>
      <trkpt lat="47.25273" lon="-1.44815">
        <ele>53</ele>
        <time>2021-06-12T10:31:25.000Z</time>
      </trkpt>
      <trkpt lat="47.25262" lon="-1.44828">
        <ele>54</ele>
        <time>2021-06-12T10:31:27.000Z</time>
      </trkpt>
      <trkpt lat="47.25251" lon="-1.44842">
        <ele>53</ele>
        <time>2021-06-12T10:31:29.000Z</time>
      </trkpt>
      <trkpt lat="47.2524" lon="-1.44853">
        <ele>54</ele>
        <time>2021-06-12T10:31:31.000Z</time>
      </trkpt>
      <trkpt lat="47.25229" lon="-1.44864">
        <ele>55</ele>
        <time>2021-06-12T10:31:33.000Z</time>
      </trkpt>
      <trkpt lat="47.25217" lon="-1.44875">
        <ele>55</ele>
        <time>2021-06-12T10:31:35.000Z</time>
      </trkpt>
      <trkpt lat="47.25206" lon="-1.44886">
        <ele>56</ele>
        <time>2021-06-12T10:31:37.000Z</time>
      </trkpt>
      <trkpt lat="47.25193" lon="-1.44896">
        <ele>56</ele>
        <time>2021-06-12T10:31:39.000Z</time>
      </trkpt>
      <trkpt lat="47.25179" lon="-1.44905">
        <ele>55</ele>
        <time>2021-06-12T10:31:41.000Z</time>
      </trkpt>
      <trkpt lat="47.25167" lon="-1.44916">
        <ele>54</ele>
        <time>2021-06-12T10:31:43.000Z</time>
      </trkpt>
      <trkpt lat="47.25155" lon="-1.44927">
        <ele>55</ele>
        <time>2021-06-12T10:31:45.000Z</time>
      </trkpt>
      <trkpt lat="47.25144" lon="-1.44938">
        <ele>56</ele>
        <time>2021-06-12T10:31:47.000Z</time>
      </trkpt>
      <trkpt lat="47.25132" lon="-1.44949">
        <ele>55</ele>
        <time>2021-06-12T10:31:49.000Z</time>
      </trkpt>
      <trkpt lat="47.25121" lon="-1.4496">
        <ele>55</ele>
        <time>2021-06-12T10:31:51.000Z</time>
      </trkpt>
      <trkpt lat="47.2511" lon="-1.44972">
        <ele>54</ele>
        <time>2021-06-12T10:31:53.000Z</time>
      </trkpt>
      <trkpt lat="47.25098" lon="-1.44981">
        <ele>54</ele>
        <time>2021-06-12T10:31:55.000Z</time>
      </trkpt>
      <trkpt lat="47.25087" lon="-1.44991">
        <ele>55</ele>
        <time>2021-06-12T10:31:57.000Z</time>
      </trkpt>
      <trkpt lat="47.25075" lon="-1.45001">
        <ele>55</ele>
        <time>2021-06-12T10:31:59.000Z</time>
      </trkpt>
      <trkpt lat="47.25064" lon="-1.45011">
        <ele>56</ele>
        <time>2021-06-12T10:32:01.000Z</time>
      </trkpt>
      <trkpt lat="47.25053" lon="-1.4502">
        <ele>56</ele>
        <time>2021-06-12T10:32:03.000Z</time>
      </trkpt>
      <trkpt lat="47.25041" lon="-1.45029">
        <ele>55</ele>
        <time>2021-06-12T10:32:05.000Z</time>
      </trkpt>
      <trkpt lat="47.25027" lon="-1.45038">
        <ele>55</ele>
        <time>2021-06-12T10:32:07.000Z</time>
      </trkpt>
      <trkpt lat="47.25014" lon="-1.45048">
        <ele>55</ele>
        <time>2021-06-12T10:32:09.000Z</time>
      </trkpt>
      <trkpt lat="47.25003" lon="-1.45059">
        <ele>56</ele>
        <time>2021-06-12T10:32:11.000Z</time>
      </trkpt>
      <trkpt lat="47.24991" lon="-1.45072">
        <ele>56</ele>
        <time>2021-06-12T10:32:13.000Z</time>
      </trkpt>
      <trkpt lat="47.2498" lon="-1.45085">
        <ele>56</ele>
        <time>2021-06-12T10:32:15.000Z</time>
      </trkpt>
      <trkpt lat="47.24971" lon="-1.45098">
        <ele>57</ele>
        <time>2021-06-12T10:32:17.000Z</time>
      </trkpt>
      <trkpt lat="47.2496" lon="-1.45109">
        <ele>57</ele>
        <time>2021-06-12T10:32:19.000Z</time>
      </trkpt>
      <trkpt lat="47.24948" lon="-1.45122">
        <ele>57</ele>
        <time>2021-06-12T10:32:21.000Z</time>
      </trkpt>
      <trkpt lat="47.24937" lon="-1.45134">
        <ele>56</ele>
        <time>2021-06-12T10:32:23.000Z</time>
      </trkpt>
      <trkpt lat="47.24925" lon="-1.45146">
        <ele>56</ele>
        <time>2021-06-12T10:32:25.000Z</time>
      </trkpt>
      <trkpt lat="47.24914" lon="-1.45158">
        <ele>56</ele>
        <time>2021-06-12T10:32:27.000Z</time>
      </trkpt>
      <trkpt lat="47.24903" lon="-1.4517">
        <ele>56</ele>
        <time>2021-06-12T10:32:29.000Z</time>
      </trkpt>
      <trkpt lat="47.24894" lon="-1.45184">
        <ele>56</ele>
        <time>2021-06-12T10:32:31.000Z</time>
      </trkpt>
      <trkpt lat="47.24885" lon="-1.45199">
        <ele>57</ele>
        <time>2021-06-12T10:32:33.000Z</time>
      </trkpt>
      <trkpt lat="47.24876" lon="-1.45212">
        <ele>57</ele>
        <time>2021-06-12T10:32:35.000Z</time>
      </trkpt>
      <trkpt lat="47.24866" lon="-1.45226">
        <ele>57</ele>
        <time>2021-06-12T10:32:37.000Z</time>
      </trkpt>
      <trkpt lat="47.24857" lon="-1.4524">
        <ele>58</ele>
        <time>2021-06-12T10:32:39.000Z</time>
      </trkpt>
      <trkpt lat="47.24848" lon="-1.45255">
        <ele>58</ele>
        <time>2021-06-12T10:32:41.000Z</time>
      </trkpt>
      <trkpt lat="47.2484" lon="-1.4527">
        <ele>59</ele>
        <time>2021-06-12T10:32:43.000Z</time>
      </trkpt>
      <trkpt lat="47.24831" lon="-1.45286">
        <ele>58</ele>
        <time>2021-06-12T10:32:45.000Z</time>
      </trkpt>
      <trkpt lat="47.24823" lon="-1.45302">
        <ele>59</ele>
        <time>2021-06-12T10:32:47.000Z</time>
      </trkpt>
      <trkpt lat="47.24815" lon="-1.45319">
        <ele>58</ele>
        <time>2021-06-12T10:32:49.000Z</time>
      </trkpt>
      <trkpt lat="47.24807" lon="-1.45335">
        <ele>58</ele>
        <time>2021-06-12T10:32:51.000Z</time>
      </trkpt>
      <trkpt lat="47.24798" lon="-1.45352">
        <ele>58</ele>
        <time>2021-06-12T10:32:53.000Z</time>
      </trkpt>
      <trkpt lat="47.2479" lon="-1.45369">
        <ele>57</ele>
        <time>2021-06-12T10:32:55.000Z</time>
      </trkpt>
      <trkpt lat="47.24782" lon="-1.45386">
        <ele>57</ele>
        <time>2021-06-12T10:32:57.000Z</time>
      </trkpt>
      <trkpt lat="47.24775" lon="-1.45403">
        <ele>56</ele>
        <time>2021-06-12T10:32:59.000Z</time>
      </trkpt>
      <trkpt lat="47.24769" lon="-1.45419">
        <ele>56</ele>
        <time>2021-06-12T10:33:01.000Z</time>
      </trkpt>
      <trkpt lat="47.24763" lon="-1.45435">
        <ele>56</ele>
        <time>2021-06-12T10:33:03.000Z</time>
      </trkpt>
      <trkpt lat="47.24756" lon="-1.45452">
        <ele>57</ele>
        <time>2021-06-12T10:33:05.000Z</time>
      </trkpt>
      <trkpt lat="47.2475" lon="-1.45469">
        <ele>57</ele>
        <time>2021-06-12T10:33:07.000Z</time>
      </trkpt>
      <trkpt lat="47.24743" lon="-1.45486">
        <ele>56</ele>
        <time>2021-06-12T10:33:09.000Z</time>
      </trkpt>
      <trkpt lat="47.24736" lon="-1.45504">
        <ele>55</ele>
        <time>2021-06-12T10:33:11.000Z</time>
      </trkpt>
      <trkpt lat="47.24728" lon="-1.45521">
        <ele>55</ele>
        <time>2021-06-12T10:33:13.000Z</time>
      </trkpt>
      <trkpt lat="47.24722" lon="-1.45539">
        <ele>55</ele>
        <time>2021-06-12T10:33:15.000Z</time>
      </trkpt>
      <trkpt lat="47.24716" lon="-1.45557">
        <ele>55</ele>
        <time>2021-06-12T10:33:17.000Z</time>
      </trkpt>
      <trkpt lat="47.2471" lon="-1.45575">
        <ele>55</ele>
        <time>2021-06-12T10:33:19.000Z</time>
      </trkpt>
      <trkpt lat="47.24704" lon="-1.45594">
        <ele>55</ele>
        <time>2021-06-12T10:33:21.000Z</time>
      </trkpt>
      <trkpt lat="47.24698" lon="-1.45612">
        <ele>55</ele>
        <time>2021-06-12T10:33:23.000Z</time>
      </trkpt>
      <trkpt lat="47.24691" lon="-1.4563">
        <ele>55</ele>
        <time>2021-06-12T10:33:25.000Z</time>
      </trkpt>
      <trkpt lat="47.24686" lon="-1.45649">
        <ele>55</ele>
        <time>2021-06-12T10:33:27.000Z</time>
      </trkpt>
      <trkpt lat="47.2468" lon="-1.45667">
        <ele>56</ele>
        <time>2021-06-12T10:33:29.000Z</time>
      </trkpt>
      <trkpt lat="47.24675" lon="-1.45684">
        <ele>56</ele>
        <time>2021-06-12T10:33:31.000Z</time>
      </trkpt>
      <trkpt lat="47.24671" lon="-1.45704">
        <ele>56</ele>
        <time>2021-06-12T10:33:33.000Z</time>
      </trkpt>
      <trkpt lat="47.24667" lon="-1.45724">
        <ele>57</ele>
        <time>2021-06-12T10:33:35.000Z</time>
      </trkpt>
      <trkpt lat="47.24663" lon="-1.45744">
        <ele>57</ele>
        <time>2021-06-12T10:33:37.000Z</time>
      </trkpt>
      <trkpt lat="47.24659" lon="-1.45763">
        <ele>56</ele>
        <time>2021-06-12T10:33:39.000Z</time>
      </trkpt>
      <trkpt lat="47.24655" lon="-1.45782">
        <ele>56</ele>
        <time>2021-06-12T10:33:41.000Z</time>
      </trkpt>
      <trkpt lat="47.2465" lon="-1.458">
        <ele>57</ele>
        <time>2021-06-12T10:33:43.000Z</time>
      </trkpt>
      <trkpt lat="47.24645" lon="-1.45818">
        <ele>57</ele>
        <time>2021-06-12T10:33:45.000Z</time>
      </trkpt>
      <trkpt lat="47.2464" lon="-1.45836">
        <ele>57</ele>
        <time>2021-06-12T10:33:47.000Z</time>
      </trkpt>
      <trkpt lat="47.24636" lon="-1.45856">
        <ele>59</ele>
        <time>2021-06-12T10:33:49.000Z</time>
      </trkpt>
      <trkpt lat="47.24631" lon="-1.45875">
        <ele>61</ele>
        <time>2021-06-12T10:33:51.000Z</time>
      </trkpt>
      <trkpt lat="47.24626" lon="-1.45895">
        <ele>62</ele>
        <time>2021-06-12T10:33:53.000Z</time>
      </trkpt>
      <trkpt lat="47.2462" lon="-1.45914">
        <ele>62</ele>
        <time>2021-06-12T10:33:55.000Z</time>
      </trkpt>
      <trkpt lat="47.24613" lon="-1.45932">
        <ele>62</ele>
        <time>2021-06-12T10:33:57.000Z</time>
      </trkpt>
      <trkpt lat="47.24605" lon="-1.4595">
        <ele>62</ele>
        <time>2021-06-12T10:33:59.000Z</time>
      </trkpt>
      <trkpt lat="47.24596" lon="-1.45966">
        <ele>62</ele>
        <time>2021-06-12T10:34:01.000Z</time>
      </trkpt>
      <trkpt lat="47.24587" lon="-1.45983">
        <ele>62</ele>
        <time>2021-06-12T10:34:03.000Z</time>
      </trkpt>
      <trkpt lat="47.24579" lon="-1.46001">
        <ele>63</ele>
        <time>2021-06-12T10:34:05.000Z</time>
      </trkpt>
      <trkpt lat="47.2457" lon="-1.46018">
        <ele>61</ele>
        <time>2021-06-12T10:34:07.000Z</time>
      </trkpt>
      <trkpt lat="47.24561" lon="-1.46034">
        <ele>61</ele>
        <time>2021-06-12T10:34:09.000Z</time>
      </trkpt>
      <trkpt lat="47.24552" lon="-1.46051">
        <ele>60</ele>
        <time>2021-06-12T10:34:11.000Z</time>
      </trkpt>
      <trkpt lat="47.24543" lon="-1.46068">
        <ele>59</ele>
        <time>2021-06-12T10:34:13.000Z</time>
      </trkpt>
      <trkpt lat="47.24534" lon="-1.46084">
        <ele>58</ele>
        <time>2021-06-12T10:34:15.000Z</time>
      </trkpt>
      <trkpt lat="47.24524" lon="-1.461">
        <ele>58</ele>
        <time>2021-06-12T10:34:17.000Z</time>
      </trkpt>
      <trkpt lat="47.24514" lon="-1.46113">
        <ele>56</ele>
        <time>2021-06-12T10:34:19.000Z</time>
      </trkpt>
      <trkpt lat="47.24503" lon="-1.46124">
        <ele>56</ele>
        <time>2021-06-12T10:34:21.000Z</time>
      </trkpt>
      <trkpt lat="47.24493" lon="-1.46136">
        <ele>56</ele>
        <time>2021-06-12T10:34:23.000Z</time>
      </trkpt>
      <trkpt lat="47.24482" lon="-1.4615">
        <ele>55</ele>
        <time>2021-06-12T10:34:25.000Z</time>
      </trkpt>
      <trkpt lat="47.24471" lon="-1.46162">
        <ele>56</ele>
        <time>2021-06-12T10:34:27.000Z</time>
      </trkpt>
      <trkpt lat="47.2446" lon="-1.46175">
        <ele>56</ele>
        <time>2021-06-12T10:34:29.000Z</time>
      </trkpt>
      <trkpt lat="47.2445" lon="-1.46188">
        <ele>56</ele>
        <time>2021-06-12T10:34:31.000Z</time>
      </trkpt>
      <trkpt lat="47.24439" lon="-1.46202">
        <ele>56</ele>
        <time>2021-06-12T10:34:33.000Z</time>
      </trkpt>
      <trkpt lat="47.24429" lon="-1.46216">
        <ele>56</ele>
        <time>2021-06-12T10:34:35.000Z</time>
      </trkpt>
      <trkpt lat="47.2442" lon="-1.4623">
        <ele>56</ele>
        <time>2021-06-12T10:34:37.000Z</time>
      </trkpt>
      <trkpt lat="47.24412" lon="-1.46243">
        <ele>57</ele>
        <time>2021-06-12T10:34:39.000Z</time>
      </trkpt>
      <trkpt lat="47.24403" lon="-1.46256">
        <ele>57</ele>
        <time>2021-06-12T10:34:41.000Z</time>
      </trkpt>
      <trkpt lat="47.24392" lon="-1.46269">
        <ele>57</ele>
        <time>2021-06-12T10:34:43.000Z</time>
      </trkpt>
      <trkpt lat="47.24383" lon="-1.46284">
        <ele>57</ele>
        <time>2021-06-12T10:34:45.000Z</time>
      </trkpt>
      <trkpt lat="47.24373" lon="-1.46298">
        <ele>57</ele>
        <time>2021-06-12T10:34:47.000Z</time>
      </trkpt>
      <trkpt lat="47.24363" lon="-1.46312">
        <ele>56</ele>
        <time>2021-06-12T10:34:49.000Z</time>
      </trkpt>
      <trkpt lat="47.24354" lon="-1.46325">
        <ele>56</ele>
        <time>2021-06-12T10:34:51.000Z</time>
      </trkpt>
      <trkpt lat="47.24347" lon="-1.4634">
        <ele>57</ele>
        <time>2021-06-12T10:34:53.000Z</time>
      </trkpt>
      <trkpt lat="47.24337" lon="-1.46355">
        <ele>57</ele>
        <time>2021-06-12T10:34:55.000Z</time>
      </trkpt>
      <trkpt lat="47.24327" lon="-1.46371">
        <ele>57</ele>
        <time>2021-06-12T10:34:57.000Z</time>
      </trkpt>
      <trkpt lat="47.24318" lon="-1.46387">
        <ele>57</ele>
        <time>2021-06-12T10:34:59.000Z</time>
      </trkpt>
      <trkpt lat="47.24309" lon="-1.46402">
        <ele>57</ele>
        <time>2021-06-12T10:35:01.000Z</time>
      </trkpt>
      <trkpt lat="47.243" lon="-1.46417">
        <ele>57</ele>
        <time>2021-06-12T10:35:03.000Z</time>
      </trkpt>
      <trkpt lat="47.24291" lon="-1.46433">
        <ele>57</ele>
        <time>2021-06-12T10:35:05.000Z</time>
      </trkpt>
      <trkpt lat="47.2428" lon="-1.46448">
        <ele>57</ele>
        <time>2021-06-12T10:35:07.000Z</time>
      </trkpt>
      <trkpt lat="47.2427" lon="-1.46462">
        <ele>56</ele>
        <time>2021-06-12T10:35:09.000Z</time>
      </trkpt>
      <trkpt lat="47.24259" lon="-1.46475">
        <ele>56</ele>
        <time>2021-06-12T10:35:11.000Z</time>
      </trkpt>
      <trkpt lat="47.24249" lon="-1.46487">
        <ele>56</ele>
        <time>2021-06-12T10:35:13.000Z</time>
      </trkpt>
      <trkpt lat="47.24239" lon="-1.46501">
        <ele>56</ele>
        <time>2021-06-12T10:35:15.000Z</time>
      </trkpt>
      <trkpt lat="47.24229" lon="-1.46514">
        <ele>56</ele>
        <time>2021-06-12T10:35:17.000Z</time>
      </trkpt>
      <trkpt lat="47.24218" lon="-1.46528">
        <ele>56</ele>
        <time>2021-06-12T10:35:19.000Z</time>
      </trkpt>
      <trkpt lat="47.24208" lon="-1.4654">
        <ele>56</ele>
        <time>2021-06-12T10:35:21.000Z</time>
      </trkpt>
      <trkpt lat="47.24198" lon="-1.46554">
        <ele>56</ele>
        <time>2021-06-12T10:35:23.000Z</time>
      </trkpt>
      <trkpt lat="47.24188" lon="-1.46567">
        <ele>56</ele>
        <time>2021-06-12T10:35:25.000Z</time>
      </trkpt>
      <trkpt lat="47.24177" lon="-1.4658">
        <ele>56</ele>
        <time>2021-06-12T10:35:27.000Z</time>
      </trkpt>
      <trkpt lat="47.24167" lon="-1.46594">
        <ele>55</ele>
        <time>2021-06-12T10:35:29.000Z</time>
      </trkpt>
      <trkpt lat="47.24156" lon="-1.46607">
        <ele>55</ele>
        <time>2021-06-12T10:35:31.000Z</time>
      </trkpt>
      <trkpt lat="47.24147" lon="-1.4662">
        <ele>55</ele>
        <time>2021-06-12T10:35:33.000Z</time>
      </trkpt>
      <trkpt lat="47.24138" lon="-1.46633">
        <ele>55</ele>
        <time>2021-06-12T10:35:35.000Z</time>
      </trkpt>
      <trkpt lat="47.24129" lon="-1.46647">
        <ele>55</ele>
        <time>2021-06-12T10:35:37.000Z</time>
      </trkpt>
      <trkpt lat="47.24119" lon="-1.46659">
        <ele>55</ele>
        <time>2021-06-12T10:35:39.000Z</time>
      </trkpt>
      <trkpt lat="47.24109" lon="-1.46673">
        <ele>56</ele>
        <time>2021-06-12T10:35:41.000Z</time>
      </trkpt>
      <trkpt lat="47.241" lon="-1.46687">
        <ele>55</ele>
        <time>2021-06-12T10:35:43.000Z</time>
      </trkpt>
      <trkpt lat="47.24091" lon="-1.467">
        <ele>56</ele>
        <time>2021-06-12T10:35:45.000Z</time>
      </trkpt>
      <trkpt lat="47.24084" lon="-1.46717">
        <ele>56</ele>
        <time>2021-06-12T10:35:47.000Z</time>
      </trkpt>
      <trkpt lat="47.24079" lon="-1.46733">
        <ele>56</ele>
        <time>2021-06-12T10:35:49.000Z</time>
      </trkpt>
      <trkpt lat="47.24066" lon="-1.46744">
        <ele>55</ele>
        <time>2021-06-12T10:35:51.000Z</time>
      </trkpt>
      <trkpt lat="47.24052" lon="-1.46754">
        <ele>55</ele>
        <time>2021-06-12T10:35:53.000Z</time>
      </trkpt>
      <trkpt lat="47.2404" lon="-1.46766">
        <ele>55</ele>
        <time>2021-06-12T10:35:55.000Z</time>
      </trkpt>
      <trkpt lat="47.24028" lon="-1.46779">
        <ele>55</ele>
        <time>2021-06-12T10:35:57.000Z</time>
      </trkpt>
      <trkpt lat="47.24016" lon="-1.46793">
        <ele>55</ele>
        <time>2021-06-12T10:35:59.000Z</time>
      </trkpt>
      <trkpt lat="47.24004" lon="-1.46806">
        <ele>55</ele>
        <time>2021-06-12T10:36:01.000Z</time>
      </trkpt>
      <trkpt lat="47.23993" lon="-1.46818">
        <ele>55</ele>
        <time>2021-06-12T10:36:03.000Z</time>
      </trkpt>
      <trkpt lat="47.23981" lon="-1.46831">
        <ele>56</ele>
        <time>2021-06-12T10:36:05.000Z</time>
      </trkpt>
      <trkpt lat="47.23969" lon="-1.46843">
        <ele>56</ele>
        <time>2021-06-12T10:36:07.000Z</time>
      </trkpt>
      <trkpt lat="47.23957" lon="-1.46855">
        <ele>56</ele>
        <time>2021-06-12T10:36:09.000Z</time>
      </trkpt>
      <trkpt lat="47.23945" lon="-1.46865">
        <ele>56</ele>
        <time>2021-06-12T10:36:11.000Z</time>
      </trkpt>
      <trkpt lat="47.23933" lon="-1.46873">
        <ele>56</ele>
        <time>2021-06-12T10:36:13.000Z</time>
      </trkpt>
      <trkpt lat="47.23921" lon="-1.46884">
        <ele>57</ele>
        <time>2021-06-12T10:36:15.000Z</time>
      </trkpt>
      <trkpt lat="47.2391" lon="-1.46897">
        <ele>57</ele>
        <time>2021-06-12T10:36:17.000Z</time>
      </trkpt>
      <trkpt lat="47.239" lon="-1.46911">
        <ele>57</ele>
        <time>2021-06-12T10:36:19.000Z</time>
      </trkpt>
      <trkpt lat="47.23891" lon="-1.46924">
        <ele>57</ele>
        <time>2021-06-12T10:36:21.000Z</time>
      </trkpt>
      <trkpt lat="47.23882" lon="-1.46938">
        <ele>57</ele>
        <time>2021-06-12T10:36:23.000Z</time>
      </trkpt>
      <trkpt lat="47.23872" lon="-1.46951">
        <ele>57</ele>
        <time>2021-06-12T10:36:25.000Z</time>
      </trkpt>
      <trkpt lat="47.23861" lon="-1.46963">
        <ele>57</ele>
        <time>2021-06-12T10:36:27.000Z</time>
      </trkpt>
      <trkpt lat="47.23851" lon="-1.46977">
        <ele>57</ele>
        <time>2021-06-12T10:36:29.000Z</time>
      </trkpt>
      <trkpt lat="47.23841" lon="-1.46992">
        <ele>57</ele>
        <time>2021-06-12T10:36:31.000Z</time>
      </trkpt>
      <trkpt lat="47.23831" lon="-1.47006">
        <ele>57</ele>
        <time>2021-06-12T10:36:33.000Z</time>
      </trkpt>
      <trkpt lat="47.23821" lon="-1.47021">
        <ele>56</ele>
        <time>2021-06-12T10:36:35.000Z</time>
      </trkpt>
      <trkpt lat="47.23811" lon="-1.47035">
        <ele>56</ele>
        <time>2021-06-12T10:36:37.000Z</time>
      </trkpt>
      <trkpt lat="47.23801" lon="-1.4705">
        <ele>56</ele>
        <time>2021-06-12T10:36:39.000Z</time>
      </trkpt>
      <trkpt lat="47.2379" lon="-1.47064">
        <ele>56</ele>
        <time>2021-06-12T10:36:41.000Z</time>
      </trkpt>
      <trkpt lat="47.23781" lon="-1.47078">
        <ele>56</ele>
        <time>2021-06-12T10:36:43.000Z</time>
      </trkpt>
      <trkpt lat="47.23771" lon="-1.47092">
        <ele>56</ele>
        <time>2021-06-12T10:36:45.000Z</time>
      </trkpt>
      <trkpt lat="47.2376" lon="-1.47107">
        <ele>56</ele>
        <time>2021-06-12T10:36:47.000Z</time>
      </trkpt>
      <trkpt lat="47.2375" lon="-1.47121">
        <ele>56</ele>
        <time>2021-06-12T10:36:49.000Z</time>
      </trkpt>
      <trkpt lat="47.23739" lon="-1.47134">
        <ele>56</ele>
        <time>2021-06-12T10:36:51.000Z</time>
      </trkpt>
      <trkpt lat="47.23728" lon="-1.47147">
        <ele>56</ele>
        <time>2021-06-12T10:36:53.000Z</time>
      </trkpt>
      <trkpt lat="47.23717" lon="-1.47161">
        <ele>56</ele>
        <time>2021-06-12T10:36:55.000Z</time>
      </trkpt>
      <trkpt lat="47.23708" lon="-1.47175">
        <ele>56</ele>
        <time>2021-06-12T10:36:57.000Z</time>
      </trkpt>
      <trkpt lat="47.23698" lon="-1.4719">
        <ele>56</ele>
        <time>2021-06-12T10:36:59.000Z</time>
      </trkpt>
      <trkpt lat="47.23688" lon="-1.47204">
        <ele>56</ele>
        <time>2021-06-12T10:37:01.000Z</time>
      </trkpt>
      <trkpt lat="47.23679" lon="-1.47219">
        <ele>56</ele>
        <time>2021-06-12T10:37:03.000Z</time>
      </trkpt>
      <trkpt lat="47.23668" lon="-1.47232">
        <ele>56</ele>
        <time>2021-06-12T10:37:05.000Z</time>
      </trkpt>
      <trkpt lat="47.23657" lon="-1.47244">
        <ele>56</ele>
        <time>2021-06-12T10:37:07.000Z</time>
      </trkpt>
      <trkpt lat="47.23646" lon="-1.47257">
        <ele>56</ele>
        <time>2021-06-12T10:37:09.000Z</time>
      </trkpt>
      <trkpt lat="47.23635" lon="-1.4727">
        <ele>56</ele>
        <time>2021-06-12T10:37:11.000Z</time>
      </trkpt>
      <trkpt lat="47.23623" lon="-1.47282">
        <ele>56</ele>
        <time>2021-06-12T10:37:13.000Z</time>
      </trkpt>
      <trkpt lat="47.23612" lon="-1.47294">
        <ele>56</ele>
        <time>2021-06-12T10:37:15.000Z</time>
      </trkpt>
      <trkpt lat="47.23601" lon="-1.47306">
        <ele>56</ele>
        <time>2021-06-12T10:37:17.000Z</time>
      </trkpt>
      <trkpt lat="47.23589" lon="-1.47318">
        <ele>56</ele>
        <time>2021-06-12T10:37:19.000Z</time>
      </trkpt>
      <trkpt lat="47.23576" lon="-1.47329">
        <ele>56</ele>
        <time>2021-06-12T10:37:21.000Z</time>
      </trkpt>
      <trkpt lat="47.23564" lon="-1.47339">
        <ele>56</ele>
        <time>2021-06-12T10:37:23.000Z</time>
      </trkpt>
      <trkpt lat="47.23552" lon="-1.47349">
        <ele>56</ele>
        <time>2021-06-12T10:37:25.000Z</time>
      </trkpt>
      <trkpt lat="47.2354" lon="-1.47359">
        <ele>55</ele>
        <time>2021-06-12T10:37:27.000Z</time>
      </trkpt>
      <trkpt lat="47.23528" lon="-1.4737">
        <ele>55</ele>
        <time>2021-06-12T10:37:29.000Z</time>
      </trkpt>
      <trkpt lat="47.23515" lon="-1.4738">
        <ele>55</ele>
        <time>2021-06-12T10:37:31.000Z</time>
      </trkpt>
      <trkpt lat="47.23503" lon="-1.4739">
        <ele>55</ele>
        <time>2021-06-12T10:37:33.000Z</time>
      </trkpt>
      <trkpt lat="47.2349" lon="-1.47398">
        <ele>55</ele>
        <time>2021-06-12T10:37:35.000Z</time>
      </trkpt>
      <trkpt lat="47.23477" lon="-1.47405">
        <ele>55</ele>
        <time>2021-06-12T10:37:37.000Z</time>
      </trkpt>
      <trkpt lat="47.23464" lon="-1.47411">
        <ele>55</ele>
        <time>2021-06-12T10:37:39.000Z</time>
      </trkpt>
      <trkpt lat="47.23451" lon="-1.47417">
        <ele>55</ele>
        <time>2021-06-12T10:37:41.000Z</time>
      </trkpt>
      <trkpt lat="47.2344" lon="-1.47421">
        <ele>55</ele>
        <time>2021-06-12T10:37:43.000Z</time>
      </trkpt>
      <trkpt lat="47.23429" lon="-1.47426">
        <ele>55</ele>
        <time>2021-06-12T10:37:45.000Z</time>
      </trkpt>
      <trkpt lat="47.23418" lon="-1.47435">
        <ele>55</ele>
        <time>2021-06-12T10:37:47.000Z</time>
      </trkpt>
      <trkpt lat="47.23407" lon="-1.47445">
        <ele>55</ele>
        <time>2021-06-12T10:37:49.000Z</time>
      </trkpt>
      <trkpt lat="47.23395" lon="-1.47451">
        <ele>55</ele>
        <time>2021-06-12T10:37:51.000Z</time>
      </trkpt>
      <trkpt lat="47.23382" lon="-1.47458">
        <ele>54</ele>
        <time>2021-06-12T10:37:53.000Z</time>
      </trkpt>
      <trkpt lat="47.23369" lon="-1.47465">
        <ele>55</ele>
        <time>2021-06-12T10:37:55.000Z</time>
      </trkpt>
      <trkpt lat="47.23356" lon="-1.4747">
        <ele>55</ele>
        <time>2021-06-12T10:37:57.000Z</time>
      </trkpt>
      <trkpt lat="47.23343" lon="-1.47476">
        <ele>55</ele>
        <time>2021-06-12T10:37:59.000Z</time>
      </trkpt>
      <trkpt lat="47.23332" lon="-1.47485">
        <ele>54</ele>
        <time>2021-06-12T10:38:01.000Z</time>
      </trkpt>
      <trkpt lat="47.2332" lon="-1.47498">
        <ele>55</ele>
        <time>2021-06-12T10:38:03.000Z</time>
      </trkpt>
      <trkpt lat="47.23307" lon="-1.47505">
        <ele>56</ele>
        <time>2021-06-12T10:38:05.000Z</time>
      </trkpt>
      <trkpt lat="47.23294" lon="-1.47511">
        <ele>55</ele>
        <time>2021-06-12T10:38:07.000Z</time>
      </trkpt>
      <trkpt lat="47.2328" lon="-1.47518">
        <ele>55</ele>
        <time>2021-06-12T10:38:09.000Z</time>
      </trkpt>
      <trkpt lat="47.23268" lon="-1.47527">
        <ele>55</ele>
        <time>2021-06-12T10:38:11.000Z</time>
      </trkpt>
      <trkpt lat="47.23258" lon="-1.47542">
        <ele>55</ele>
        <time>2021-06-12T10:38:13.000Z</time>
      </trkpt>
      <trkpt lat="47.23248" lon="-1.47558">
        <ele>55</ele>
        <time>2021-06-12T10:38:15.000Z</time>
      </trkpt>
      <trkpt lat="47.23239" lon="-1.47574">
        <ele>55</ele>
        <time>2021-06-12T10:38:17.000Z</time>
      </trkpt>
      <trkpt lat="47.2323" lon="-1.4759">
        <ele>55</ele>
        <time>2021-06-12T10:38:19.000Z</time>
      </trkpt>
      <trkpt lat="47.23223" lon="-1.47606">
        <ele>57</ele>
        <time>2021-06-12T10:38:21.000Z</time>
      </trkpt>
      <trkpt lat="47.23217" lon="-1.47624">
        <ele>57</ele>
        <time>2021-06-12T10:38:23.000Z</time>
      </trkpt>
      <trkpt lat="47.2321" lon="-1.47641">
        <ele>57</ele>
        <time>2021-06-12T10:38:25.000Z</time>
      </trkpt>
      <trkpt lat="47.23203" lon="-1.47658">
        <ele>57</ele>
        <time>2021-06-12T10:38:27.000Z</time>
      </trkpt>
      <trkpt lat="47.23196" lon="-1.47674">
        <ele>57</ele>
        <time>2021-06-12T10:38:29.000Z</time>
      </trkpt>
      <trkpt lat="47.23188" lon="-1.47691">
        <ele>57</ele>
        <time>2021-06-12T10:38:31.000Z</time>
      </trkpt>
      <trkpt lat="47.23181" lon="-1.47709">
        <ele>58</ele>
        <time>2021-06-12T10:38:33.000Z</time>
      </trkpt>
      <trkpt lat="47.23173" lon="-1.47727">
        <ele>57</ele>
        <time>2021-06-12T10:38:35.000Z</time>
      </trkpt>
      <trkpt lat="47.23165" lon="-1.47745">
        <ele>57</ele>
        <time>2021-06-12T10:38:37.000Z</time>
      </trkpt>
      <trkpt lat="47.23157" lon="-1.47763">
        <ele>57</ele>
        <time>2021-06-12T10:38:39.000Z</time>
      </trkpt>
      <trkpt lat="47.2315" lon="-1.47781">
        <ele>57</ele>
        <time>2021-06-12T10:38:41.000Z</time>
      </trkpt>
      <trkpt lat="47.23143" lon="-1.47798">
        <ele>57</ele>
        <time>2021-06-12T10:38:43.000Z</time>
      </trkpt>
      <trkpt lat="47.23138" lon="-1.47816">
        <ele>58</ele>
        <time>2021-06-12T10:38:45.000Z</time>
      </trkpt>
      <trkpt lat="47.2313" lon="-1.47834">
        <ele>57</ele>
        <time>2021-06-12T10:38:47.000Z</time>
      </trkpt>
      <trkpt lat="47.23121" lon="-1.47851">
        <ele>57</ele>
        <time>2021-06-12T10:38:49.000Z</time>
      </trkpt>
      <trkpt lat="47.23113" lon="-1.47866">
        <ele>56</ele>
        <time>2021-06-12T10:38:51.000Z</time>
      </trkpt>
      <trkpt lat="47.23104" lon="-1.4788">
        <ele>56</ele>
        <time>2021-06-12T10:38:53.000Z</time>
      </trkpt>
      <trkpt lat="47.23093" lon="-1.47894">
        <ele>54</ele>
        <time>2021-06-12T10:38:55.000Z</time>
      </trkpt>
      <trkpt lat="47.23084" lon="-1.47907">
        <ele>54</ele>
        <time>2021-06-12T10:38:57.000Z</time>
      </trkpt>
      <trkpt lat="47.23073" lon="-1.47921">
        <ele>54</ele>
        <time>2021-06-12T10:38:59.000Z</time>
      </trkpt>
      <trkpt lat="47.23064" lon="-1.47934">
        <ele>54</ele>
        <time>2021-06-12T10:39:01.000Z</time>
      </trkpt>
      <trkpt lat="47.23054" lon="-1.47947">
        <ele>54</ele>
        <time>2021-06-12T10:39:03.000Z</time>
      </trkpt>
      <trkpt lat="47.23044" lon="-1.47961">
        <ele>55</ele>
        <time>2021-06-12T10:39:05.000Z</time>
      </trkpt>
      <trkpt lat="47.23033" lon="-1.47974">
        <ele>54</ele>
        <time>2021-06-12T10:39:07.000Z</time>
      </trkpt>
      <trkpt lat="47.23023" lon="-1.47988">
        <ele>54</ele>
        <time>2021-06-12T10:39:09.000Z</time>
      </trkpt>
      <trkpt lat="47.23013" lon="-1.48002">
        <ele>54</ele>
        <time>2021-06-12T10:39:11.000Z</time>
      </trkpt>
      <trkpt lat="47.23004" lon="-1.48017">
        <ele>54</ele>
        <time>2021-06-12T10:39:13.000Z</time>
      </trkpt>
      <trkpt lat="47.22995" lon="-1.48032">
        <ele>54</ele>
        <time>2021-06-12T10:39:15.000Z</time>
      </trkpt>
      <trkpt lat="47.22986" lon="-1.48047">
        <ele>54</ele>
        <time>2021-06-12T10:39:17.000Z</time>
      </trkpt>
      <trkpt lat="47.22978" lon="-1.48062">
        <ele>54</ele>
        <time>2021-06-12T10:39:19.000Z</time>
      </trkpt>
      <trkpt lat="47.22969" lon="-1.48075">
        <ele>54</ele>
        <time>2021-06-12T10:39:21.000Z</time>
      </trkpt>
      <trkpt lat="47.22961" lon="-1.48087">
        <ele>54</ele>
        <time>2021-06-12T10:39:23.000Z</time>
      </trkpt>
      <trkpt lat="47.22954" lon="-1.481">
        <ele>54</ele>
        <time>2021-06-12T10:39:25.000Z</time>
      </trkpt>
      <trkpt lat="47.22947" lon="-1.48109">
        <ele>55</ele>
        <time>2021-06-12T10:39:27.000Z</time>
      </trkpt>
      <trkpt lat="47.22936" lon="-1.48111">
        <ele>55</ele>
        <time>2021-06-12T10:39:29.000Z</time>
      </trkpt>
      <trkpt lat="47.22924" lon="-1.48113">
        <ele>55</ele>
        <time>2021-06-12T10:39:31.000Z</time>
      </trkpt>
      <trkpt lat="47.2291" lon="-1.48118">
        <ele>55</ele>
        <time>2021-06-12T10:39:33.000Z</time>
      </trkpt>
      <trkpt lat="47.22899" lon="-1.48133">
        <ele>55</ele>
        <time>2021-06-12T10:39:35.000Z</time>
      </trkpt>
      <trkpt lat="47.22888" lon="-1.48148">
        <ele>55</ele>
        <time>2021-06-12T10:39:37.000Z</time>
      </trkpt>
      <trkpt lat="47.22877" lon="-1.48164">
        <ele>54</ele>
        <time>2021-06-12T10:39:39.000Z</time>
      </trkpt>
      <trkpt lat="47.22867" lon="-1.48179">
        <ele>55</ele>
        <time>2021-06-12T10:39:41.000Z</time>
      </trkpt>
      <trkpt lat="47.22858" lon="-1.48195">
        <ele>56</ele>
        <time>2021-06-12T10:39:43.000Z</time>
      </trkpt>
      <trkpt lat="47.22847" lon="-1.48211">
        <ele>56</ele>
        <time>2021-06-12T10:39:45.000Z</time>
      </trkpt>
      <trkpt lat="47.22837" lon="-1.48226">
        <ele>55</ele>
        <time>2021-06-12T10:39:47.000Z</time>
      </trkpt>
      <trkpt lat="47.22827" lon="-1.48241">
        <ele>55</ele>
        <time>2021-06-12T10:39:49.000Z</time>
      </trkpt>
      <trkpt lat="47.22817" lon="-1.48255">
        <ele>55</ele>
        <time>2021-06-12T10:39:51.000Z</time>
      </trkpt>
      <trkpt lat="47.22807" lon="-1.48271">
        <ele>56</ele>
        <time>2021-06-12T10:39:53.000Z</time>
      </trkpt>
      <trkpt lat="47.22798" lon="-1.48286">
        <ele>56</ele>
        <time>2021-06-12T10:39:55.000Z</time>
      </trkpt>
      <trkpt lat="47.22788" lon="-1.48302">
        <ele>56</ele>
        <time>2021-06-12T10:39:57.000Z</time>
      </trkpt>
      <trkpt lat="47.22778" lon="-1.48317">
        <ele>56</ele>
        <time>2021-06-12T10:39:59.000Z</time>
      </trkpt>
      <trkpt lat="47.22769" lon="-1.48332">
        <ele>57</ele>
        <time>2021-06-12T10:40:01.000Z</time>
      </trkpt>
      <trkpt lat="47.22759" lon="-1.48347">
        <ele>57</ele>
        <time>2021-06-12T10:40:03.000Z</time>
      </trkpt>
      <trkpt lat="47.22748" lon="-1.4836">
        <ele>57</ele>
        <time>2021-06-12T10:40:05.000Z</time>
      </trkpt>
      <trkpt lat="47.22738" lon="-1.48374">
        <ele>56</ele>
        <time>2021-06-12T10:40:07.000Z</time>
      </trkpt>
      <trkpt lat="47.22727" lon="-1.48388">
        <ele>56</ele>
        <time>2021-06-12T10:40:09.000Z</time>
      </trkpt>
      <trkpt lat="47.22717" lon="-1.48401">
        <ele>56</ele>
        <time>2021-06-12T10:40:11.000Z</time>
      </trkpt>
      <trkpt lat="47.22708" lon="-1.48418">
        <ele>56</ele>
        <time>2021-06-12T10:40:13.000Z</time>
      </trkpt>
      <trkpt lat="47.22701" lon="-1.48435">
        <ele>56</ele>
        <time>2021-06-12T10:40:15.000Z</time>
      </trkpt>
      <trkpt lat="47.22696" lon="-1.48454">
        <ele>56</ele>
        <time>2021-06-12T10:40:17.000Z</time>
      </trkpt>
      <trkpt lat="47.22689" lon="-1.48471">
        <ele>55</ele>
        <time>2021-06-12T10:40:19.000Z</time>
      </trkpt>
      <trkpt lat="47.22681" lon="-1.48488">
        <ele>55</ele>
        <time>2021-06-12T10:40:21.000Z</time>
      </trkpt>
      <trkpt lat="47.22674" lon="-1.48504">
        <ele>55</ele>
        <time>2021-06-12T10:40:23.000Z</time>
      </trkpt>
      <trkpt lat="47.22667" lon="-1.48522">
        <ele>55</ele>
        <time>2021-06-12T10:40:25.000Z</time>
      </trkpt>
      <trkpt lat="47.22662" lon="-1.48541">
        <ele>54</ele>
        <time>2021-06-12T10:40:27.000Z</time>
      </trkpt>
      <trkpt lat="47.22656" lon="-1.4856">
        <ele>54</ele>
        <time>2021-06-12T10:40:29.000Z</time>
      </trkpt>
      <trkpt lat="47.22649" lon="-1.48578">
        <ele>55</ele>
        <time>2021-06-12T10:40:31.000Z</time>
      </trkpt>
      <trkpt lat="47.22642" lon="-1.48595">
        <ele>55</ele>
        <time>2021-06-12T10:40:33.000Z</time>
      </trkpt>
      <trkpt lat="47.22637" lon="-1.48613">
        <ele>55</ele>
        <time>2021-06-12T10:40:35.000Z</time>
      </trkpt>
      <trkpt lat="47.22632" lon="-1.4863">
        <ele>56</ele>
        <time>2021-06-12T10:40:37.000Z</time>
      </trkpt>
      <trkpt lat="47.22626" lon="-1.48648">
        <ele>56</ele>
        <time>2021-06-12T10:40:39.000Z</time>
      </trkpt>
      <trkpt lat="47.22619" lon="-1.48665">
        <ele>56</ele>
        <time>2021-06-12T10:40:41.000Z</time>
      </trkpt>
      <trkpt lat="47.22612" lon="-1.48683">
        <ele>56</ele>
        <time>2021-06-12T10:40:43.000Z</time>
      </trkpt>
      <trkpt lat="47.22607" lon="-1.48703">
        <ele>56</ele>
        <time>2021-06-12T10:40:45.000Z</time>
      </trkpt>
      <trkpt lat="47.22601" lon="-1.48722">
        <ele>57</ele>
        <time>2021-06-12T10:40:47.000Z</time>
      </trkpt>
      <trkpt lat="47.22596" lon="-1.4874">
        <ele>58</ele>
        <time>2021-06-12T10:40:49.000Z</time>
      </trkpt>
      <trkpt lat="47.22592" lon="-1.4876">
        <ele>58</ele>
        <time>2021-06-12T10:40:51.000Z</time>
      </trkpt>
      <trkpt lat="47.22588" lon="-1.48777">
        <ele>58</ele>
        <time>2021-06-12T10:40:53.000Z</time>
      </trkpt>
      <trkpt lat="47.22583" lon="-1.48796">
        <ele>58</ele>
        <time>2021-06-12T10:40:55.000Z</time>
      </trkpt>
      <trkpt lat="47.22576" lon="-1.48815">
        <ele>58</ele>
        <time>2021-06-12T10:40:57.000Z</time>
      </trkpt>
      <trkpt lat="47.2257" lon="-1.48832">
        <ele>57</ele>
        <time>2021-06-12T10:40:59.000Z</time>
      </trkpt>
      <trkpt lat="47.22566" lon="-1.48849">
        <ele>58</ele>
        <time>2021-06-12T10:41:01.000Z</time>
      </trkpt>
      <trkpt lat="47.22563" lon="-1.48867">
        <ele>59</ele>
        <time>2021-06-12T10:41:03.000Z</time>
      </trkpt>
      <trkpt lat="47.22558" lon="-1.48884">
        <ele>59</ele>
        <time>2021-06-12T10:41:05.000Z</time>
      </trkpt>
      <trkpt lat="47.22552" lon="-1.48902">
        <ele>58</ele>
        <time>2021-06-12T10:41:07.000Z</time>
      </trkpt>
      <trkpt lat="47.22547" lon="-1.4892">
        <ele>58</ele>
        <time>2021-06-12T10:41:09.000Z</time>
      </trkpt>
      <trkpt lat="47.2254" lon="-1.48941">
        <ele>59</ele>
        <time>2021-06-12T10:41:11.000Z</time>
      </trkpt>
      <trkpt lat="47.22534" lon="-1.4896">
        <ele>59</ele>
        <time>2021-06-12T10:41:13.000Z</time>
      </trkpt>
      <trkpt lat="47.22526" lon="-1.48978">
        <ele>59</ele>
        <time>2021-06-12T10:41:15.000Z</time>
      </trkpt>
      <trkpt lat="47.22519" lon="-1.48996">
        <ele>58</ele>
        <time>2021-06-12T10:41:17.000Z</time>
      </trkpt>
      <trkpt lat="47.22513" lon="-1.49015">
        <ele>57</ele>
        <time>2021-06-12T10:41:19.000Z</time>
      </trkpt>
      <trkpt lat="47.22507" lon="-1.49033">
        <ele>57</ele>
        <time>2021-06-12T10:41:21.000Z</time>
      </trkpt>
      <trkpt lat="47.22502" lon="-1.49051">
        <ele>58</ele>
        <time>2021-06-12T10:41:23.000Z</time>
      </trkpt>
      <trkpt lat="47.22497" lon="-1.4907">
        <ele>59</ele>
        <time>2021-06-12T10:41:25.000Z</time>
      </trkpt>
      <trkpt lat="47.22492" lon="-1.49089">
        <ele>59</ele>
        <time>2021-06-12T10:41:27.000Z</time>
      </trkpt>
      <trkpt lat="47.22487" lon="-1.49109">
        <ele>59</ele>
        <time>2021-06-12T10:41:29.000Z</time>
      </trkpt>
      <trkpt lat="47.22481" lon="-1.49129">
        <ele>58</ele>
        <time>2021-06-12T10:41:31.000Z</time>
      </trkpt>
      <trkpt lat="47.22475" lon="-1.49149">
        <ele>58</ele>
        <time>2021-06-12T10:41:33.000Z</time>
      </trkpt>
      <trkpt lat="47.22469" lon="-1.49168">
        <ele>58</ele>
        <time>2021-06-12T10:41:35.000Z</time>
      </trkpt>
      <trkpt lat="47.22462" lon="-1.49185">
        <ele>58</ele>
        <time>2021-06-12T10:41:37.000Z</time>
      </trkpt>
      <trkpt lat="47.22455" lon="-1.49203">
        <ele>58</ele>
        <time>2021-06-12T10:41:39.000Z</time>
      </trkpt>
      <trkpt lat="47.22447" lon="-1.49222">
        <ele>58</ele>
        <time>2021-06-12T10:41:41.000Z</time>
      </trkpt>
      <trkpt lat="47.22441" lon="-1.49242">
        <ele>58</ele>
        <time>2021-06-12T10:41:43.000Z</time>
      </trkpt>
      <trkpt lat="47.22434" lon="-1.4926">
        <ele>57</ele>
        <time>2021-06-12T10:41:45.000Z</time>
      </trkpt>
      <trkpt lat="47.22426" lon="-1.49276">
        <ele>57</ele>
        <time>2021-06-12T10:41:47.000Z</time>
      </trkpt>
      <trkpt lat="47.22419" lon="-1.49293">
        <ele>57</ele>
        <time>2021-06-12T10:41:49.000Z</time>
      </trkpt>
      <trkpt lat="47.22412" lon="-1.49311">
        <ele>56</ele>
        <time>2021-06-12T10:41:51.000Z</time>
      </trkpt>
      <trkpt lat="47.22405" lon="-1.4933">
        <ele>56</ele>
        <time>2021-06-12T10:41:53.000Z</time>
      </trkpt>
      <trkpt lat="47.22399" lon="-1.49348">
        <ele>56</ele>
        <time>2021-06-12T10:41:55.000Z</time>
      </trkpt>
      <trkpt lat="47.22391" lon="-1.49364">
        <ele>56</ele>
        <time>2021-06-12T10:41:57.000Z</time>
      </trkpt>
      <trkpt lat="47.22384" lon="-1.4938">
        <ele>56</ele>
        <time>2021-06-12T10:41:59.000Z</time>
      </trkpt>
      <trkpt lat="47.22376" lon="-1.49397">
        <ele>57</ele>
        <time>2021-06-12T10:42:01.000Z</time>
      </trkpt>
      <trkpt lat="47.22368" lon="-1.49414">
        <ele>57</ele>
        <time>2021-06-12T10:42:03.000Z</time>
      </trkpt>
      <trkpt lat="47.22362" lon="-1.49431">
        <ele>57</ele>
        <time>2021-06-12T10:42:05.000Z</time>
      </trkpt>
      <trkpt lat="47.22355" lon="-1.49448">
        <ele>57</ele>
        <time>2021-06-12T10:42:07.000Z</time>
      </trkpt>
      <trkpt lat="47.2235" lon="-1.49466">
        <ele>57</ele>
        <time>2021-06-12T10:42:09.000Z</time>
      </trkpt>
      <trkpt lat="47.22345" lon="-1.49485">
        <ele>58</ele>
        <time>2021-06-12T10:42:11.000Z</time>
      </trkpt>
      <trkpt lat="47.22339" lon="-1.49504">
        <ele>59</ele>
        <time>2021-06-12T10:42:13.000Z</time>
      </trkpt>
      <trkpt lat="47.22333" lon="-1.49522">
        <ele>59</ele>
        <time>2021-06-12T10:42:15.000Z</time>
      </trkpt>
      <trkpt lat="47.22327" lon="-1.4954">
        <ele>59</ele>
        <time>2021-06-12T10:42:17.000Z</time>
      </trkpt>
      <trkpt lat="47.22321" lon="-1.49558">
        <ele>60</ele>
        <time>2021-06-12T10:42:19.000Z</time>
      </trkpt>
      <trkpt lat="47.22315" lon="-1.49576">
        <ele>60</ele>
        <time>2021-06-12T10:42:21.000Z</time>
      </trkpt>
      <trkpt lat="47.22309" lon="-1.49593">
        <ele>60</ele>
        <time>2021-06-12T10:42:23.000Z</time>
      </trkpt>
      <trkpt lat="47.22303" lon="-1.49611">
        <ele>59</ele>
        <time>2021-06-12T10:42:25.000Z</time>
      </trkpt>
      <trkpt lat="47.22297" lon="-1.49629">
        <ele>59</ele>
        <time>2021-06-12T10:42:27.000Z</time>
      </trkpt>
      <trkpt lat="47.22292" lon="-1.49647">
        <ele>59</ele>
        <time>2021-06-12T10:42:29.000Z</time>
      </trkpt>
      <trkpt lat="47.22287" lon="-1.49665">
        <ele>59</ele>
        <time>2021-06-12T10:42:31.000Z</time>
      </trkpt>
      <trkpt lat="47.22281" lon="-1.49683">
        <ele>59</ele>
        <time>2021-06-12T10:42:33.000Z</time>
      </trkpt>
      <trkpt lat="47.22275" lon="-1.497">
        <ele>60</ele>
        <time>2021-06-12T10:42:35.000Z</time>
      </trkpt>
      <trkpt lat="47.22268" lon="-1.49718">
        <ele>60</ele>
        <time>2021-06-12T10:42:37.000Z</time>
      </trkpt>
      <trkpt lat="47.22262" lon="-1.49736">
        <ele>59</ele>
        <time>2021-06-12T10:42:39.000Z</time>
      </trkpt>
      <trkpt lat="47.22258" lon="-1.49755">
        <ele>59</ele>
        <time>2021-06-12T10:42:41.000Z</time>
      </trkpt>
      <trkpt lat="47.22255" lon="-1.49775">
        <ele>59</ele>
        <time>2021-06-12T10:42:43.000Z</time>
      </trkpt>
      <trkpt lat="47.22253" lon="-1.49795">
        <ele>60</ele>
        <time>2021-06-12T10:42:45.000Z</time>
      </trkpt>
      <trkpt lat="47.2225" lon="-1.49814">
        <ele>60</ele>
        <time>2021-06-12T10:42:47.000Z</time>
      </trkpt>
      <trkpt lat="47.22246" lon="-1.49834">
        <ele>60</ele>
        <time>2021-06-12T10:42:49.000Z</time>
      </trkpt>
      <trkpt lat="47.22242" lon="-1.49853">
        <ele>60</ele>
        <time>2021-06-12T10:42:51.000Z</time>
      </trkpt>
      <trkpt lat="47.22239" lon="-1.49872">
        <ele>61</ele>
        <time>2021-06-12T10:42:53.000Z</time>
      </trkpt>
      <trkpt lat="47.22235" lon="-1.49893">
        <ele>61</ele>
        <time>2021-06-12T10:42:55.000Z</time>
      </trkpt>
      <trkpt lat="47.22232" lon="-1.49913">
        <ele>62</ele>
        <time>2021-06-12T10:42:57.000Z</time>
      </trkpt>
      <trkpt lat="47.22228" lon="-1.49932">
        <ele>62</ele>
        <time>2021-06-12T10:42:59.000Z</time>
      </trkpt>
      <trkpt lat="47.22223" lon="-1.49953">
        <ele>62</ele>
        <time>2021-06-12T10:43:01.000Z</time>
      </trkpt>
      <trkpt lat="47.22218" lon="-1.49972">
        <ele>61</ele>
        <time>2021-06-12T10:43:03.000Z</time>
      </trkpt>
      <trkpt lat="47.22213" lon="-1.4999">
        <ele>61</ele>
        <time>2021-06-12T10:43:05.000Z</time>
      </trkpt>
      <trkpt lat="47.22206" lon="-1.50008">
        <ele>62</ele>
        <time>2021-06-12T10:43:07.000Z</time>
      </trkpt>
      <trkpt lat="47.222" lon="-1.50028">
        <ele>62</ele>
        <time>2021-06-12T10:43:09.000Z</time>
      </trkpt>
      <trkpt lat="47.22195" lon="-1.50048">
        <ele>62</ele>
        <time>2021-06-12T10:43:11.000Z</time>
      </trkpt>
      <trkpt lat="47.2219" lon="-1.50067">
        <ele>63</ele>
        <time>2021-06-12T10:43:13.000Z</time>
      </trkpt>
      <trkpt lat="47.22186" lon="-1.50088">
        <ele>63</ele>
        <time>2021-06-12T10:43:15.000Z</time>
      </trkpt>
      <trkpt lat="47.22181" lon="-1.50107">
        <ele>62</ele>
        <time>2021-06-12T10:43:17.000Z</time>
      </trkpt>
      <trkpt lat="47.22174" lon="-1.50126">
        <ele>62</ele>
        <time>2021-06-12T10:43:19.000Z</time>
      </trkpt>
      <trkpt lat="47.22167" lon="-1.50143">
        <ele>61</ele>
        <time>2021-06-12T10:43:21.000Z</time>
      </trkpt>
      <trkpt lat="47.22161" lon="-1.50163">
        <ele>59</ele>
        <time>2021-06-12T10:43:23.000Z</time>
      </trkpt>
      <trkpt lat="47.22155" lon="-1.50181">
        <ele>59</ele>
        <time>2021-06-12T10:43:25.000Z</time>
      </trkpt>
      <trkpt lat="47.22151" lon="-1.50201">
        <ele>58</ele>
        <time>2021-06-12T10:43:27.000Z</time>
      </trkpt>
      <trkpt lat="47.22147" lon="-1.50219">
        <ele>58</ele>
        <time>2021-06-12T10:43:29.000Z</time>
      </trkpt>
      <trkpt lat="47.2214" lon="-1.50237">
        <ele>57</ele>
        <time>2021-06-12T10:43:31.000Z</time>
      </trkpt>
      <trkpt lat="47.22135" lon="-1.50255">
        <ele>57</ele>
        <time>2021-06-12T10:43:33.000Z</time>
      </trkpt>
      <trkpt lat="47.22129" lon="-1.50273">
        <ele>57</ele>
        <time>2021-06-12T10:43:35.000Z</time>
      </trkpt>
      <trkpt lat="47.22121" lon="-1.5029">
        <ele>57</ele>
        <time>2021-06-12T10:43:37.000Z</time>
      </trkpt>
      <trkpt lat="47.22112" lon="-1.50306">
        <ele>57</ele>
        <time>2021-06-12T10:43:39.000Z</time>
      </trkpt>
      <trkpt lat="47.22104" lon="-1.50322">
        <ele>57</ele>
        <time>2021-06-12T10:43:41.000Z</time>
      </trkpt>
      <trkpt lat="47.22096" lon="-1.50337">
        <ele>57</ele>
        <time>2021-06-12T10:43:43.000Z</time>
      </trkpt>
      <trkpt lat="47.22091" lon="-1.50355">
        <ele>57</ele>
        <time>2021-06-12T10:43:45.000Z</time>
      </trkpt>
      <trkpt lat="47.22086" lon="-1.50375">
        <ele>57</ele>
        <time>2021-06-12T10:43:47.000Z</time>
      </trkpt>
      <trkpt lat="47.22082" lon="-1.50395">
        <ele>56</ele>
        <time>2021-06-12T10:43:49.000Z</time>
      </trkpt>
      <trkpt lat="47.22076" lon="-1.50413">
        <ele>56</ele>
        <time>2021-06-12T10:43:51.000Z</time>
      </trkpt>
      <trkpt lat="47.22073" lon="-1.50431">
        <ele>56</ele>
        <time>2021-06-12T10:43:53.000Z</time>
      </trkpt>
      <trkpt lat="47.2207" lon="-1.50451">
        <ele>56</ele>
        <time>2021-06-12T10:43:55.000Z</time>
      </trkpt>
      <trkpt lat="47.22066" lon="-1.50471">
        <ele>56</ele>
        <time>2021-06-12T10:43:57.000Z</time>
      </trkpt>
      <trkpt lat="47.22065" lon="-1.50491">
        <ele>56</ele>
        <time>2021-06-12T10:43:59.000Z</time>
      </trkpt>
      <trkpt lat="47.22064" lon="-1.50511">
        <ele>55</ele>
        <time>2021-06-12T10:44:01.000Z</time>
      </trkpt>
      <trkpt lat="47.22064" lon="-1.5053">
        <ele>55</ele>
        <time>2021-06-12T10:44:03.000Z</time>
      </trkpt>
      <trkpt lat="47.22063" lon="-1.50551">
        <ele>55</ele>
        <time>2021-06-12T10:44:05.000Z</time>
      </trkpt>
      <trkpt lat="47.22062" lon="-1.50569">
        <ele>56</ele>
        <time>2021-06-12T10:44:07.000Z</time>
      </trkpt>
      <trkpt lat="47.22059" lon="-1.50586">
        <ele>56</ele>
        <time>2021-06-12T10:44:09.000Z</time>
      </trkpt>
      <trkpt lat="47.22058" lon="-1.50605">
        <ele>55</ele>
        <time>2021-06-12T10:44:11.000Z</time>
      </trkpt>
      <trkpt lat="47.22057" lon="-1.50623">
        <ele>55</ele>
        <time>2021-06-12T10:44:13.000Z</time>
      </trkpt>
      <trkpt lat="47.22056" lon="-1.50644">
        <ele>55</ele>
        <time>2021-06-12T10:44:15.000Z</time>
      </trkpt>
      <trkpt lat="47.22053" lon="-1.50667">
        <ele>55</ele>
        <time>2021-06-12T10:44:17.000Z</time>
      </trkpt>
      <trkpt lat="47.22051" lon="-1.50687">
        <ele>56</ele>
        <time>2021-06-12T10:44:19.000Z</time>
      </trkpt>
      <trkpt lat="47.22049" lon="-1.50706">
        <ele>57</ele>
        <time>2021-06-12T10:44:21.000Z</time>
      </trkpt>
      <trkpt lat="47.22049" lon="-1.50726">
        <ele>57</ele>
        <time>2021-06-12T10:44:23.000Z</time>
      </trkpt>
      <trkpt lat="47.22047" lon="-1.50745">
        <ele>57</ele>
        <time>2021-06-12T10:44:25.000Z</time>
      </trkpt>
      <trkpt lat="47.22044" lon="-1.50767">
        <ele>58</ele>
        <time>2021-06-12T10:44:27.000Z</time>
      </trkpt>
      <trkpt lat="47.2204" lon="-1.50787">
        <ele>59</ele>
        <time>2021-06-12T10:44:29.000Z</time>
      </trkpt>
      <trkpt lat="47.22034" lon="-1.50807">
        <ele>60</ele>
        <time>2021-06-12T10:44:31.000Z</time>
      </trkpt>
      <trkpt lat="47.22028" lon="-1.50823">
        <ele>60</ele>
        <time>2021-06-12T10:44:33.000Z</time>
      </trkpt>
      <trkpt lat="47.2202" lon="-1.5084">
        <ele>60</ele>
        <time>2021-06-12T10:44:35.000Z</time>
      </trkpt>
      <trkpt lat="47.22013" lon="-1.50859">
        <ele>59</ele>
        <time>2021-06-12T10:44:37.000Z</time>
      </trkpt>
      <trkpt lat="47.22005" lon="-1.50878">
        <ele>58</ele>
        <time>2021-06-12T10:44:39.000Z</time>
      </trkpt>
      <trkpt lat="47.21999" lon="-1.50896">
        <ele>58</ele>
        <time>2021-06-12T10:44:41.000Z</time>
      </trkpt>
      <trkpt lat="47.21993" lon="-1.50915">
        <ele>57</ele>
        <time>2021-06-12T10:44:43.000Z</time>
      </trkpt>
      <trkpt lat="47.21987" lon="-1.50933">
        <ele>57</ele>
        <time>2021-06-12T10:44:45.000Z</time>
      </trkpt>
      <trkpt lat="47.21982" lon="-1.50952">
        <ele>57</ele>
        <time>2021-06-12T10:44:47.000Z</time>
      </trkpt>
      <trkpt lat="47.21977" lon="-1.50971">
        <ele>57</ele>
        <time>2021-06-12T10:44:49.000Z</time>
      </trkpt>
      <trkpt lat="47.21971" lon="-1.50989">
        <ele>57</ele>
        <time>2021-06-12T10:44:51.000Z</time>
      </trkpt>
      <trkpt lat="47.21966" lon="-1.51008">
        <ele>57</ele>
        <time>2021-06-12T10:44:53.000Z</time>
      </trkpt>
      <trkpt lat="47.2196" lon="-1.51025">
        <ele>56</ele>
        <time>2021-06-12T10:44:55.000Z</time>
      </trkpt>
      <trkpt lat="47.21955" lon="-1.5104">
        <ele>56</ele>
        <time>2021-06-12T10:44:57.000Z</time>
      </trkpt>
      <trkpt lat="47.21951" lon="-1.51055">
        <ele>57</ele>
        <time>2021-06-12T10:44:59.000Z</time>
      </trkpt>
      <trkpt lat="47.21947" lon="-1.51066">
        <ele>57</ele>
        <time>2021-06-12T10:45:01.000Z</time>
      </trkpt>
      <trkpt lat="47.21938" lon="-1.51079">
        <ele>57</ele>
        <time>2021-06-12T10:45:03.000Z</time>
      </trkpt>
      <trkpt lat="47.21931" lon="-1.51095">
        <ele>57</ele>
        <time>2021-06-12T10:45:05.000Z</time>
      </trkpt>
      <trkpt lat="47.21925" lon="-1.51113">
        <ele>57</ele>
        <time>2021-06-12T10:45:07.000Z</time>
      </trkpt>
      <trkpt lat="47.21919" lon="-1.51131">
        <ele>56</ele>
        <time>2021-06-12T10:45:09.000Z</time>
      </trkpt>
      <trkpt lat="47.21913" lon="-1.51149">
        <ele>56</ele>
        <time>2021-06-12T10:45:11.000Z</time>
      </trkpt>
      <trkpt lat="47.21908" lon="-1.51167">
        <ele>56</ele>
        <time>2021-06-12T10:45:13.000Z</time>
      </trkpt>
      <trkpt lat="47.21902" lon="-1.51184">
        <ele>56</ele>
        <time>2021-06-12T10:45:15.000Z</time>
      </trkpt>
      <trkpt lat="47.21896" lon="-1.51202">
        <ele>56</ele>
        <time>2021-06-12T10:45:17.000Z</time>
      </trkpt>
      <trkpt lat="47.2189" lon="-1.5122">
        <ele>56</ele>
        <time>2021-06-12T10:45:19.000Z</time>
      </trkpt>
      <trkpt lat="47.21883" lon="-1.51238">
        <ele>56</ele>
        <time>2021-06-12T10:45:21.000Z</time>
      </trkpt>
      <trkpt lat="47.21877" lon="-1.51256">
        <ele>55</ele>
        <time>2021-06-12T10:45:23.000Z</time>
      </trkpt>
      <trkpt lat="47.21871" lon="-1.51274">
        <ele>55</ele>
        <time>2021-06-12T10:45:25.000Z</time>
      </trkpt>
      <trkpt lat="47.21866" lon="-1.51292">
        <ele>55</ele>
        <time>2021-06-12T10:45:27.000Z</time>
      </trkpt>
      <trkpt lat="47.21861" lon="-1.5131">
        <ele>56</ele>
        <time>2021-06-12T10:45:29.000Z</time>
      </trkpt>
      <trkpt lat="47.21856" lon="-1.51328">
        <ele>56</ele>
        <time>2021-06-12T10:45:31.000Z</time>
      </trkpt>
      <trkpt lat="47.2185" lon="-1.51346">
        <ele>56</ele>
        <time>2021-06-12T10:45:33.000Z</time>
      </trkpt>
      <trkpt lat="47.21845" lon="-1.51364">
        <ele>55</ele>
        <time>2021-06-12T10:45:35.000Z</time>
      </trkpt>
      <trkpt lat="47.21841" lon="-1.51382">
        <ele>55</ele>
        <time>2021-06-12T10:45:37.000Z</time>
      </trkpt>
      <trkpt lat="47.21836" lon="-1.51402">
        <ele>56</ele>
        <time>2021-06-12T10:45:39.000Z</time>
      </trkpt>
      <trkpt lat="47.21832" lon="-1.5142">
        <ele>56</ele>
        <time>2021-06-12T10:45:41.000Z</time>
      </trkpt>
      <trkpt lat="47.21828" lon="-1.51439">
        <ele>56</ele>
        <time>2021-06-12T10:45:43.000Z</time>
      </trkpt>
      <trkpt lat="47.21824" lon="-1.51457">
        <ele>56</ele>
        <time>2021-06-12T10:45:45.000Z</time>
      </trkpt>
      <trkpt lat="47.21821" lon="-1.51476">
        <ele>55</ele>
        <time>2021-06-12T10:45:47.000Z</time>
      </trkpt>
      <trkpt lat="47.21816" lon="-1.51495">
        <ele>55</ele>
        <time>2021-06-12T10:45:49.000Z</time>
      </trkpt>
      <trkpt lat="47.21809" lon="-1.51511">
        <ele>55</ele>
        <time>2021-06-12T10:45:51.000Z</time>
      </trkpt>
      <trkpt lat="47.21801" lon="-1.51527">
        <ele>55</ele>
        <time>2021-06-12T10:45:53.000Z</time>
      </trkpt>
      <trkpt lat="47.21794" lon="-1.51543">
        <ele>56</ele>
        <time>2021-06-12T10:45:55.000Z</time>
      </trkpt>
      <trkpt lat="47.21788" lon="-1.51559">
        <ele>56</ele>
        <time>2021-06-12T10:45:57.000Z</time>
      </trkpt>
      <trkpt lat="47.2178" lon="-1.51574">
        <ele>57</ele>
        <time>2021-06-12T10:45:59.000Z</time>
      </trkpt>
      <trkpt lat="47.21772" lon="-1.51588">
        <ele>57</ele>
        <time>2021-06-12T10:46:01.000Z</time>
      </trkpt>
      <trkpt lat="47.21762" lon="-1.516">
        <ele>57</ele>
        <time>2021-06-12T10:46:03.000Z</time>
      </trkpt>
      <trkpt lat="47.21754" lon="-1.51614">
        <ele>57</ele>
        <time>2021-06-12T10:46:05.000Z</time>
      </trkpt>
      <trkpt lat="47.21747" lon="-1.51629">
        <ele>57</ele>
        <time>2021-06-12T10:46:07.000Z</time>
      </trkpt>
      <trkpt lat="47.21739" lon="-1.51643">
        <ele>57</ele>
        <time>2021-06-12T10:46:09.000Z</time>
      </trkpt>
      <trkpt lat="47.21733" lon="-1.51658">
        <ele>56</ele>
        <time>2021-06-12T10:46:11.000Z</time>
      </trkpt>
      <trkpt lat="47.21726" lon="-1.51675">
        <ele>56</ele>
        <time>2021-06-12T10:46:13.000Z</time>
      </trkpt>
      <trkpt lat="47.21719" lon="-1.5169">
        <ele>56</ele>
        <time>2021-06-12T10:46:15.000Z</time>
      </trkpt>
      <trkpt lat="47.21712" lon="-1.51705">
        <ele>57</ele>
        <time>2021-06-12T10:46:17.000Z</time>
      </trkpt>
      <trkpt lat="47.21708" lon="-1.51721">
        <ele>57</ele>
        <time>2021-06-12T10:46:19.000Z</time>
      </trkpt>
      <trkpt lat="47.21701" lon="-1.51738">
        <ele>58</ele>
        <time>2021-06-12T10:46:21.000Z</time>
      </trkpt>
      <trkpt lat="47.21692" lon="-1.51754">
        <ele>58</ele>
        <time>2021-06-12T10:46:23.000Z</time>
      </trkpt>
      <trkpt lat="47.21685" lon="-1.5177">
        <ele>58</ele>
        <time>2021-06-12T10:46:25.000Z</time>
      </trkpt>
      <trkpt lat="47.21678" lon="-1.51784">
        <ele>58</ele>
        <time>2021-06-12T10:46:27.000Z</time>
      </trkpt>
      <trkpt lat="47.21672" lon="-1.51797">
        <ele>58</ele>
        <time>2021-06-12T10:46:29.000Z</time>
      </trkpt>
      <trkpt lat="47.21667" lon="-1.5181">
        <ele>58</ele>
        <time>2021-06-12T10:46:31.000Z</time>
      </trkpt>
      <trkpt lat="47.21662" lon="-1.51822">
        <ele>58</ele>
        <time>2021-06-12T10:46:33.000Z</time>
      </trkpt>
      <trkpt lat="47.21658" lon="-1.51834">
        <ele>58</ele>
        <time>2021-06-12T10:46:35.000Z</time>
      </trkpt>
      <trkpt lat="47.2165" lon="-1.5185">
        <ele>58</ele>
        <time>2021-06-12T10:46:38.000Z</time>
      </trkpt>
      <trkpt lat="47.21647" lon="-1.51864">
        <ele>58</ele>
        <time>2021-06-12T10:46:41.000Z</time>
      </trkpt>
      <trkpt lat="47.21643" lon="-1.51877">
        <ele>57</ele>
        <time>2021-06-12T10:48:26.000Z</time>
      </trkpt>
      <trkpt lat="47.2164" lon="-1.51894">
        <ele>58</ele>
        <time>2021-06-12T10:48:30.000Z</time>
      </trkpt>
      <trkpt lat="47.21633" lon="-1.51904">
        <ele>59</ele>
        <time>2021-06-12T10:48:33.000Z</time>
      </trkpt>
      <trkpt lat="47.21627" lon="-1.51923">
        <ele>60</ele>
        <time>2021-06-12T10:48:36.000Z</time>
      </trkpt>
      <trkpt lat="47.21623" lon="-1.51938">
        <ele>59</ele>
        <time>2021-06-12T10:48:38.000Z</time>
      </trkpt>
      <trkpt lat="47.21621" lon="-1.51954">
        <ele>59</ele>
        <time>2021-06-12T10:48:40.000Z</time>
      </trkpt>
      <trkpt lat="47.21617" lon="-1.5197">
        <ele>58</ele>
        <time>2021-06-12T10:48:42.000Z</time>
      </trkpt>
      <trkpt lat="47.2161" lon="-1.51983">
        <ele>59</ele>
        <time>2021-06-12T10:48:44.000Z</time>
      </trkpt>
      <trkpt lat="47.21605" lon="-1.51997">
        <ele>59</ele>
        <time>2021-06-12T10:48:46.000Z</time>
      </trkpt>
      <trkpt lat="47.216" lon="-1.52017">
        <ele>59</ele>
        <time>2021-06-12T10:48:48.000Z</time>
      </trkpt>
      <trkpt lat="47.21594" lon="-1.52036">
        <ele>58</ele>
        <time>2021-06-12T10:48:50.000Z</time>
      </trkpt>
      <trkpt lat="47.21586" lon="-1.52054">
        <ele>59</ele>
        <time>2021-06-12T10:48:52.000Z</time>
      </trkpt>
      <trkpt lat="47.2158" lon="-1.52072">
        <ele>58</ele>
        <time>2021-06-12T10:48:54.000Z</time>
      </trkpt>
      <trkpt lat="47.21574" lon="-1.5209">
        <ele>57</ele>
        <time>2021-06-12T10:48:56.000Z</time>
      </trkpt>
      <trkpt lat="47.21568" lon="-1.52109">
        <ele>57</ele>
        <time>2021-06-12T10:48:58.000Z</time>
      </trkpt>
      <trkpt lat="47.21562" lon="-1.52128">
        <ele>57</ele>
        <time>2021-06-12T10:49:00.000Z</time>
      </trkpt>
      <trkpt lat="47.21556" lon="-1.52147">
        <ele>57</ele>
        <time>2021-06-12T10:49:02.000Z</time>
      </trkpt>
      <trkpt lat="47.2155" lon="-1.52166">
        <ele>58</ele>
        <time>2021-06-12T10:49:04.000Z</time>
      </trkpt>
      <trkpt lat="47.21544" lon="-1.52185">
        <ele>58</ele>
        <time>2021-06-12T10:49:06.000Z</time>
      </trkpt>
      <trkpt lat="47.21538" lon="-1.52204">
        <ele>58</ele>
        <time>2021-06-12T10:49:08.000Z</time>
      </trkpt>
      <trkpt lat="47.21531" lon="-1.52222">
        <ele>58</ele>
        <time>2021-06-12T10:49:10.000Z</time>
      </trkpt>
      <trkpt lat="47.21525" lon="-1.5224">
        <ele>57</ele>
        <time>2021-06-12T10:49:12.000Z</time>
      </trkpt>
      <trkpt lat="47.21518" lon="-1.52258">
        <ele>57</ele>
        <time>2021-06-12T10:49:14.000Z</time>
      </trkpt>
      <trkpt lat="47.21512" lon="-1.52278">
        <ele>57</ele>
        <time>2021-06-12T10:49:16.000Z</time>
      </trkpt>
      <trkpt lat="47.21507" lon="-1.52297">
        <ele>57</ele>
        <time>2021-06-12T10:49:18.000Z</time>
      </trkpt>
      <trkpt lat="47.21501" lon="-1.52316">
        <ele>57</ele>
        <time>2021-06-12T10:49:20.000Z</time>
      </trkpt>
      <trkpt lat="47.21495" lon="-1.52335">
        <ele>57</ele>
        <time>2021-06-12T10:49:22.000Z</time>
      </trkpt>
      <trkpt lat="47.2149" lon="-1.52353">
        <ele>57</ele>
        <time>2021-06-12T10:49:24.000Z</time>
      </trkpt>
      <trkpt lat="47.21484" lon="-1.52372">
        <ele>58</ele>
        <time>2021-06-12T10:49:26.000Z</time>
      </trkpt>
      <trkpt lat="47.21478" lon="-1.52391">
        <ele>57</ele>
        <time>2021-06-12T10:49:28.000Z</time>
      </trkpt>
      <trkpt lat="47.21472" lon="-1.5241">
        <ele>57</ele>
        <time>2021-06-12T10:49:30.000Z</time>
      </trkpt>
      <trkpt lat="47.21466" lon="-1.52429">
        <ele>57</ele>
        <time>2021-06-12T10:49:32.000Z</time>
      </trkpt>
      <trkpt lat="47.2146" lon="-1.52446">
        <ele>56</ele>
        <time>2021-06-12T10:49:34.000Z</time>
      </trkpt>
      <trkpt lat="47.21454" lon="-1.52464">
        <ele>56</ele>
        <time>2021-06-12T10:49:36.000Z</time>
      </trkpt>
      <trkpt lat="47.21448" lon="-1.52483">
        <ele>57</ele>
        <time>2021-06-12T10:49:38.000Z</time>
      </trkpt>
      <trkpt lat="47.21442" lon="-1.52502">
        <ele>57</ele>
        <time>2021-06-12T10:49:40.000Z</time>
      </trkpt>
      <trkpt lat="47.21436" lon="-1.5252">
        <ele>57</ele>
        <time>2021-06-12T10:49:42.000Z</time>
      </trkpt>
      <trkpt lat="47.21429" lon="-1.52537">
        <ele>57</ele>
        <time>2021-06-12T10:49:44.000Z</time>
      </trkpt>
      <trkpt lat="47.21424" lon="-1.52556">
        <ele>58</ele>
        <time>2021-06-12T10:49:46.000Z</time>
      </trkpt>
      <trkpt lat="47.21418" lon="-1.52575">
        <ele>58</ele>
        <time>2021-06-12T10:49:48.000Z</time>
      </trkpt>
      <trkpt lat="47.21413" lon="-1.52593">
        <ele>58</ele>
        <time>2021-06-12T10:49:50.000Z</time>
      </trkpt>
      <trkpt lat="47.21407" lon="-1.52612">
        <ele>58</ele>
        <time>2021-06-12T10:49:52.000Z</time>
      </trkpt>
      <trkpt lat="47.21401" lon="-1.52629">
        <ele>58</ele>
        <time>2021-06-12T10:49:54.000Z</time>
      </trkpt>
      <trkpt lat="47.21396" lon="-1.52647">
        <ele>58</ele>
        <time>2021-06-12T10:49:56.000Z</time>
      </trkpt>
      <trkpt lat="47.21394" lon="-1.52664">
        <ele>58</ele>
        <time>2021-06-12T10:49:58.000Z</time>
      </trkpt>
      <trkpt lat="47.21391" lon="-1.52683">
        <ele>58</ele>
        <time>2021-06-12T10:50:00.000Z</time>
      </trkpt>
      <trkpt lat="47.21385" lon="-1.52701">
        <ele>59</ele>
        <time>2021-06-12T10:50:02.000Z</time>
      </trkpt>
      <trkpt lat="47.2138" lon="-1.52719">
        <ele>59</ele>
        <time>2021-06-12T10:50:04.000Z</time>
      </trkpt>
      <trkpt lat="47.21375" lon="-1.52739">
        <ele>59</ele>
        <time>2021-06-12T10:50:06.000Z</time>
      </trkpt>
      <trkpt lat="47.21372" lon="-1.52759">
        <ele>58</ele>
        <time>2021-06-12T10:50:08.000Z</time>
      </trkpt>
      <trkpt lat="47.21367" lon="-1.52779">
        <ele>58</ele>
        <time>2021-06-12T10:50:10.000Z</time>
      </trkpt>
      <trkpt lat="47.21365" lon="-1.52797">
        <ele>58</ele>
        <time>2021-06-12T10:50:12.000Z</time>
      </trkpt>
      <trkpt lat="47.21362" lon="-1.52814">
        <ele>58</ele>
        <time>2021-06-12T10:50:14.000Z</time>
      </trkpt>
      <trkpt lat="47.21358" lon="-1.52833">
        <ele>58</ele>
        <time>2021-06-12T10:50:16.000Z</time>
      </trkpt>
      <trkpt lat="47.21354" lon="-1.52852">
        <ele>58</ele>
        <time>2021-06-12T10:50:18.000Z</time>
      </trkpt>
      <trkpt lat="47.21349" lon="-1.52872">
        <ele>57</ele>
        <time>2021-06-12T10:50:20.000Z</time>
      </trkpt>
      <trkpt lat="47.21346" lon="-1.52892">
        <ele>57</ele>
        <time>2021-06-12T10:50:22.000Z</time>
      </trkpt>
      <trkpt lat="47.21342" lon="-1.52912">
        <ele>57</ele>
        <time>2021-06-12T10:50:24.000Z</time>
      </trkpt>
      <trkpt lat="47.21339" lon="-1.52932">
        <ele>57</ele>
        <time>2021-06-12T10:50:26.000Z</time>
      </trkpt>
      <trkpt lat="47.21336" lon="-1.52951">
        <ele>57</ele>
        <time>2021-06-12T10:50:28.000Z</time>
      </trkpt>
      <trkpt lat="47.21334" lon="-1.5297">
        <ele>57</ele>
        <time>2021-06-12T10:50:30.000Z</time>
      </trkpt>
      <trkpt lat="47.21333" lon="-1.52992">
        <ele>58</ele>
        <time>2021-06-12T10:50:32.000Z</time>
      </trkpt>
      <trkpt lat="47.21332" lon="-1.53013">
        <ele>57</ele>
        <time>2021-06-12T10:50:34.000Z</time>
      </trkpt>
      <trkpt lat="47.2133" lon="-1.53033">
        <ele>57</ele>
        <time>2021-06-12T10:50:36.000Z</time>
      </trkpt>
      <trkpt lat="47.21328" lon="-1.53053">
        <ele>57</ele>
        <time>2021-06-12T10:50:38.000Z</time>
      </trkpt>
      <trkpt lat="47.21327" lon="-1.53072">
        <ele>57</ele>
        <time>2021-06-12T10:50:40.000Z</time>
      </trkpt>
      <trkpt lat="47.21326" lon="-1.53091">
        <ele>57</ele>
        <time>2021-06-12T10:50:42.000Z</time>
      </trkpt>
      <trkpt lat="47.21325" lon="-1.53108">
        <ele>58</ele>
        <time>2021-06-12T10:50:44.000Z</time>
      </trkpt>
      <trkpt lat="47.21322" lon="-1.53127">
        <ele>58</ele>
        <time>2021-06-12T10:50:46.000Z</time>
      </trkpt>
      <trkpt lat="47.21319" lon="-1.53146">
        <ele>58</ele>
        <time>2021-06-12T10:50:48.000Z</time>
      </trkpt>
      <trkpt lat="47.21316" lon="-1.53166">
        <ele>58</ele>
        <time>2021-06-12T10:50:50.000Z</time>
      </trkpt>
      <trkpt lat="47.21313" lon="-1.53185">
        <ele>57</ele>
        <time>2021-06-12T10:50:52.000Z</time>
      </trkpt>
      <trkpt lat="47.21312" lon="-1.53205">
        <ele>57</ele>
        <time>2021-06-12T10:50:54.000Z</time>
      </trkpt>
      <trkpt lat="47.2131" lon="-1.53225">
        <ele>57</ele>
        <time>2021-06-12T10:50:56.000Z</time>
      </trkpt>
      <trkpt lat="47.2131" lon="-1.53244">
        <ele>57</ele>
        <time>2021-06-12T10:50:58.000Z</time>
      </trkpt>
      <trkpt lat="47.21309" lon="-1.53263">
        <ele>57</ele>
        <time>2021-06-12T10:51:00.000Z</time>
      </trkpt>
      <trkpt lat="47.21309" lon="-1.53282">
        <ele>57</ele>
        <time>2021-06-12T10:51:02.000Z</time>
      </trkpt>
      <trkpt lat="47.21308" lon="-1.53301">
        <ele>57</ele>
        <time>2021-06-12T10:51:04.000Z</time>
      </trkpt>
      <trkpt lat="47.21307" lon="-1.5332">
        <ele>57</ele>
        <time>2021-06-12T10:51:06.000Z</time>
      </trkpt>
      <trkpt lat="47.21304" lon="-1.53339">
        <ele>57</ele>
        <time>2021-06-12T10:51:08.000Z</time>
      </trkpt>
      <trkpt lat="47.21301" lon="-1.53358">
        <ele>57</ele>
        <time>2021-06-12T10:51:10.000Z</time>
      </trkpt>
      <trkpt lat="47.21297" lon="-1.53376">
        <ele>56</ele>
        <time>2021-06-12T10:51:12.000Z</time>
      </trkpt>
      <trkpt lat="47.21293" lon="-1.53395">
        <ele>56</ele>
        <time>2021-06-12T10:51:14.000Z</time>
      </trkpt>
      <trkpt lat="47.21292" lon="-1.53415">
        <ele>56</ele>
        <time>2021-06-12T10:51:16.000Z</time>
      </trkpt>
      <trkpt lat="47.21291" lon="-1.53436">
        <ele>56</ele>
        <time>2021-06-12T10:51:18.000Z</time>
      </trkpt>
      <trkpt lat="47.21292" lon="-1.53456">
        <ele>56</ele>
        <time>2021-06-12T10:51:20.000Z</time>
      </trkpt>
      <trkpt lat="47.21297" lon="-1.53473">
        <ele>56</ele>
        <time>2021-06-12T10:51:22.000Z</time>
      </trkpt>
      <trkpt lat="47.213" lon="-1.53493">
        <ele>56</ele>
        <time>2021-06-12T10:51:24.000Z</time>
      </trkpt>
      <trkpt lat="47.21301" lon="-1.53514">
        <ele>56</ele>
        <time>2021-06-12T10:51:26.000Z</time>
      </trkpt>
      <trkpt lat="47.21302" lon="-1.53535">
        <ele>57</ele>
        <time>2021-06-12T10:51:28.000Z</time>
      </trkpt>
      <trkpt lat="47.21303" lon="-1.53556">
        <ele>58</ele>
        <time>2021-06-12T10:51:30.000Z</time>
      </trkpt>
      <trkpt lat="47.21304" lon="-1.53576">
        <ele>58</ele>
        <time>2021-06-12T10:51:32.000Z</time>
      </trkpt>
      <trkpt lat="47.21304" lon="-1.53595">
        <ele>58</ele>
        <time>2021-06-12T10:51:34.000Z</time>
      </trkpt>
      <trkpt lat="47.21305" lon="-1.53612">
        <ele>58</ele>
        <time>2021-06-12T10:51:36.000Z</time>
      </trkpt>
      <trkpt lat="47.21301" lon="-1.53627">
        <ele>58</ele>
        <time>2021-06-12T10:51:38.000Z</time>
      </trkpt>
      <trkpt lat="47.21293" lon="-1.53642">
        <ele>58</ele>
        <time>2021-06-12T10:51:41.000Z</time>
      </trkpt>
      <trkpt lat="47.21292" lon="-1.53656">
        <ele>59</ele>
        <time>2021-06-12T10:51:43.000Z</time>
      </trkpt>
      <trkpt lat="47.21291" lon="-1.5367">
        <ele>59</ele>
        <time>2021-06-12T10:51:45.000Z</time>
      </trkpt>
      <trkpt lat="47.21297" lon="-1.53682">
        <ele>59</ele>
        <time>2021-06-12T10:51:47.000Z</time>
      </trkpt>
      <trkpt lat="47.21302" lon="-1.53699">
        <ele>59</ele>
        <time>2021-06-12T10:51:49.000Z</time>
      </trkpt>
      <trkpt lat="47.21307" lon="-1.53718">
        <ele>59</ele>
        <time>2021-06-12T10:51:51.000Z</time>
      </trkpt>
      <trkpt lat="47.21312" lon="-1.53738">
        <ele>58</ele>
        <time>2021-06-12T10:51:53.000Z</time>
      </trkpt>
      <trkpt lat="47.21316" lon="-1.53757">
        <ele>59</ele>
        <time>2021-06-12T10:51:55.000Z</time>
      </trkpt>
      <trkpt lat="47.21319" lon="-1.53777">
        <ele>59</ele>
        <time>2021-06-12T10:51:57.000Z</time>
      </trkpt>
      <trkpt lat="47.21322" lon="-1.53796">
        <ele>59</ele>
        <time>2021-06-12T10:51:59.000Z</time>
      </trkpt>
      <trkpt lat="47.21325" lon="-1.53814">
        <ele>59</ele>
        <time>2021-06-12T10:52:01.000Z</time>
      </trkpt>
      <trkpt lat="47.21328" lon="-1.53831">
        <ele>59</ele>
        <time>2021-06-12T10:52:03.000Z</time>
      </trkpt>
      <trkpt lat="47.2133" lon="-1.53849">
        <ele>59</ele>
        <time>2021-06-12T10:52:05.000Z</time>
      </trkpt>
      <trkpt lat="47.21334" lon="-1.53865">
        <ele>60</ele>
        <time>2021-06-12T10:52:07.000Z</time>
      </trkpt>
      <trkpt lat="47.21336" lon="-1.53882">
        <ele>61</ele>
        <time>2021-06-12T10:52:09.000Z</time>
      </trkpt>
      <trkpt lat="47.21339" lon="-1.53897">
        <ele>61</ele>
        <time>2021-06-12T10:52:11.000Z</time>
      </trkpt>
      <trkpt lat="47.2134" lon="-1.53915">
        <ele>61</ele>
        <time>2021-06-12T10:52:14.000Z</time>
      </trkpt>
      <trkpt lat="47.2135" lon="-1.53922">
        <ele>60</ele>
        <time>2021-06-12T10:52:20.000Z</time>
      </trkpt>
      <trkpt lat="47.21359" lon="-1.53929">
        <ele>59</ele>
        <time>2021-06-12T10:52:23.000Z</time>
      </trkpt>
      <trkpt lat="47.21369" lon="-1.53929">
        <ele>60</ele>
        <time>2021-06-12T10:52:25.000Z</time>
      </trkpt>
      <trkpt lat="47.21381" lon="-1.53936">
        <ele>59</ele>
        <time>2021-06-12T10:52:27.000Z</time>
      </trkpt>
      <trkpt lat="47.2139" lon="-1.53951">
        <ele>58</ele>
        <time>2021-06-12T10:52:29.000Z</time>
      </trkpt>
      <trkpt lat="47.21392" lon="-1.5397">
        <ele>58</ele>
        <time>2021-06-12T10:52:31.000Z</time>
      </trkpt>
      <trkpt lat="47.21388" lon="-1.53991">
        <ele>58</ele>
        <time>2021-06-12T10:52:33.000Z</time>
      </trkpt>
      <trkpt lat="47.21392" lon="-1.54008">
        <ele>58</ele>
        <time>2021-06-12T10:52:35.000Z</time>
      </trkpt>
      <trkpt lat="47.21398" lon="-1.5402">
        <ele>59</ele>
        <time>2021-06-12T10:52:37.000Z</time>
      </trkpt>
      <trkpt lat="47.21408" lon="-1.54033">
        <ele>58</ele>
        <time>2021-06-12T10:52:39.000Z</time>
      </trkpt>
      <trkpt lat="47.21417" lon="-1.54046">
        <ele>58</ele>
        <time>2021-06-12T10:52:41.000Z</time>
      </trkpt>
      <trkpt lat="47.21425" lon="-1.54061">
        <ele>58</ele>
        <time>2021-06-12T10:52:43.000Z</time>
      </trkpt>
      <trkpt lat="47.21434" lon="-1.54075">
        <ele>59</ele>
        <time>2021-06-12T10:52:45.000Z</time>
      </trkpt>
      <trkpt lat="47.21443" lon="-1.54089">
        <ele>59</ele>
        <time>2021-06-12T10:52:47.000Z</time>
      </trkpt>
      <trkpt lat="47.21452" lon="-1.54102">
        <ele>59</ele>
        <time>2021-06-12T10:52:49.000Z</time>
      </trkpt>
      <trkpt lat="47.21461" lon="-1.54116">
        <ele>59</ele>
        <time>2021-06-12T10:52:51.000Z</time>
      </trkpt>
      <trkpt lat="47.21469" lon="-1.54127">
        <ele>59</ele>
        <time>2021-06-12T10:52:53.000Z</time>
      </trkpt>
      <trkpt lat="47.21478" lon="-1.54137">
        <ele>59</ele>
        <time>2021-06-12T10:52:55.000Z</time>
      </trkpt>
      <trkpt lat="47.21484" lon="-1.54148">
        <ele>59</ele>
        <time>2021-06-12T10:52:57.000Z</time>
      </trkpt>
      <trkpt lat="47.21494" lon="-1.54161">
        <ele>59</ele>
        <time>2021-06-12T10:53:00.000Z</time>
      </trkpt>
      <trkpt lat="47.21502" lon="-1.5417">
        <ele>58</ele>
        <time>2021-06-12T10:53:02.000Z</time>
      </trkpt>
      <trkpt lat="47.21508" lon="-1.54186">
        <ele>58</ele>
        <time>2021-06-12T10:53:04.000Z</time>
      </trkpt>
      <trkpt lat="47.21517" lon="-1.54202">
        <ele>59</ele>
        <time>2021-06-12T10:53:06.000Z</time>
      </trkpt>
      <trkpt lat="47.21526" lon="-1.54216">
        <ele>59</ele>
        <time>2021-06-12T10:53:08.000Z</time>
      </trkpt>
      <trkpt lat="47.21535" lon="-1.5423">
        <ele>58</ele>
        <time>2021-06-12T10:53:10.000Z</time>
      </trkpt>
      <trkpt lat="47.21545" lon="-1.54241">
        <ele>58</ele>
        <time>2021-06-12T10:53:12.000Z</time>
      </trkpt>
      <trkpt lat="47.21556" lon="-1.54245">
        <ele>58</ele>
        <time>2021-06-12T10:53:14.000Z</time>
      </trkpt>
      <trkpt lat="47.2157" lon="-1.54247">
        <ele>58</ele>
        <time>2021-06-12T10:53:16.000Z</time>
      </trkpt>
      <trkpt lat="47.21578" lon="-1.54261">
        <ele>59</ele>
        <time>2021-06-12T10:53:18.000Z</time>
      </trkpt>
      <trkpt lat="47.21585" lon="-1.54286">
        <ele>59</ele>
        <time>2021-06-12T10:53:21.000Z</time>
      </trkpt>
      <trkpt lat="47.21589" lon="-1.543">
        <ele>59</ele>
        <time>2021-06-12T10:53:23.000Z</time>
      </trkpt>
      <trkpt lat="47.21593" lon="-1.54316">
        <ele>59</ele>
        <time>2021-06-12T10:53:25.000Z</time>
      </trkpt>
      <trkpt lat="47.21598" lon="-1.54332">
        <ele>60</ele>
        <time>2021-06-12T10:53:27.000Z</time>
      </trkpt>
      <trkpt lat="47.21606" lon="-1.54346">
        <ele>60</ele>
        <time>2021-06-12T10:53:29.000Z</time>
      </trkpt>
      <trkpt lat="47.21612" lon="-1.54362">
        <ele>60</ele>
        <time>2021-06-12T10:53:32.000Z</time>
      </trkpt>
      <trkpt lat="47.21615" lon="-1.54374">
        <ele>60</ele>
        <time>2021-06-12T10:53:38.000Z</time>
      </trkpt>
      <trkpt lat="47.2162" lon="-1.54399">
        <ele>62</ele>
        <time>2021-06-12T10:53:42.000Z</time>
      </trkpt>
      <trkpt lat="47.21616" lon="-1.54418">
        <ele>61</ele>
        <time>2021-06-12T10:53:44.000Z</time>
      </trkpt>
      <trkpt lat="47.21613" lon="-1.54436">
        <ele>61</ele>
        <time>2021-06-12T10:53:46.000Z</time>
      </trkpt>
      <trkpt lat="47.21612" lon="-1.54457">
        <ele>61</ele>
        <time>2021-06-12T10:53:48.000Z</time>
      </trkpt>
      <trkpt lat="47.2161" lon="-1.54477">
        <ele>61</ele>
        <time>2021-06-12T10:53:50.000Z</time>
      </trkpt>
      <trkpt lat="47.21607" lon="-1.54495">
        <ele>61</ele>
        <time>2021-06-12T10:53:52.000Z</time>
      </trkpt>
      <trkpt lat="47.21602" lon="-1.54513">
        <ele>61</ele>
        <time>2021-06-12T10:53:54.000Z</time>
      </trkpt>
      <trkpt lat="47.21593" lon="-1.54538">
        <ele>62</ele>
        <time>2021-06-12T10:53:57.000Z</time>
      </trkpt>
      <trkpt lat="47.21584" lon="-1.54561">
        <ele>62</ele>
        <time>2021-06-12T10:54:00.000Z</time>
      </trkpt>
      <trkpt lat="47.21579" lon="-1.54576">
        <ele>61</ele>
        <time>2021-06-12T10:54:02.000Z</time>
      </trkpt>
      <trkpt lat="47.21573" lon="-1.54591">
        <ele>61</ele>
        <time>2021-06-12T10:54:04.000Z</time>
      </trkpt>
      <trkpt lat="47.21563" lon="-1.54618">
        <ele>61</ele>
        <time>2021-06-12T10:54:07.000Z</time>
      </trkpt>
      <trkpt lat="47.21557" lon="-1.54636">
        <ele>60</ele>
        <time>2021-06-12T10:54:09.000Z</time>
      </trkpt>
      <trkpt lat="47.2155" lon="-1.54652">
        <ele>60</ele>
        <time>2021-06-12T10:54:11.000Z</time>
      </trkpt>
      <trkpt lat="47.21543" lon="-1.54666">
        <ele>60</ele>
        <time>2021-06-12T10:54:13.000Z</time>
      </trkpt>
      <trkpt lat="47.21536" lon="-1.54691">
        <ele>61</ele>
        <time>2021-06-12T10:54:16.000Z</time>
      </trkpt>
      <trkpt lat="47.21531" lon="-1.5471">
        <ele>60</ele>
        <time>2021-06-12T10:54:18.000Z</time>
      </trkpt>
      <trkpt lat="47.21524" lon="-1.54728">
        <ele>60</ele>
        <time>2021-06-12T10:54:20.000Z</time>
      </trkpt>
      <trkpt lat="47.21513" lon="-1.54756">
        <ele>59</ele>
        <time>2021-06-12T10:54:23.000Z</time>
      </trkpt>
      <trkpt lat="47.21506" lon="-1.54774">
        <ele>59</ele>
        <time>2021-06-12T10:54:25.000Z</time>
      </trkpt>
      <trkpt lat="47.21496" lon="-1.54801">
        <ele>59</ele>
        <time>2021-06-12T10:54:28.000Z</time>
      </trkpt>
      <trkpt lat="47.21484" lon="-1.54826">
        <ele>60</ele>
        <time>2021-06-12T10:54:31.000Z</time>
      </trkpt>
      <trkpt lat="47.21476" lon="-1.54843">
        <ele>60</ele>
        <time>2021-06-12T10:54:33.000Z</time>
      </trkpt>
      <trkpt lat="47.21469" lon="-1.54859">
        <ele>59</ele>
        <time>2021-06-12T10:54:35.000Z</time>
      </trkpt>
      <trkpt lat="47.21461" lon="-1.54876">
        <ele>59</ele>
        <time>2021-06-12T10:54:37.000Z</time>
      </trkpt>
      <trkpt lat="47.21452" lon="-1.54891">
        <ele>59</ele>
        <time>2021-06-12T10:54:39.000Z</time>
      </trkpt>
      <trkpt lat="47.21445" lon="-1.54907">
        <ele>59</ele>
        <time>2021-06-12T10:54:41.000Z</time>
      </trkpt>
      <trkpt lat="47.21437" lon="-1.54923">
        <ele>59</ele>
        <time>2021-06-12T10:54:43.000Z</time>
      </trkpt>
      <trkpt lat="47.2143" lon="-1.54939">
        <ele>59</ele>
        <time>2021-06-12T10:54:45.000Z</time>
      </trkpt>
      <trkpt lat="47.21422" lon="-1.54956">
        <ele>59</ele>
        <time>2021-06-12T10:54:47.000Z</time>
      </trkpt>
      <trkpt lat="47.21414" lon="-1.54972">
        <ele>59</ele>
        <time>2021-06-12T10:54:49.000Z</time>
      </trkpt>
      <trkpt lat="47.21407" lon="-1.54988">
        <ele>59</ele>
        <time>2021-06-12T10:54:51.000Z</time>
      </trkpt>
      <trkpt lat="47.214" lon="-1.55005">
        <ele>59</ele>
        <time>2021-06-12T10:54:53.000Z</time>
      </trkpt>
      <trkpt lat="47.21393" lon="-1.55021">
        <ele>59</ele>
        <time>2021-06-12T10:54:55.000Z</time>
      </trkpt>
      <trkpt lat="47.21385" lon="-1.55037">
        <ele>59</ele>
        <time>2021-06-12T10:54:57.000Z</time>
      </trkpt>
      <trkpt lat="47.21378" lon="-1.55054">
        <ele>59</ele>
        <time>2021-06-12T10:54:59.000Z</time>
      </trkpt>
      <trkpt lat="47.21371" lon="-1.55072">
        <ele>59</ele>
        <time>2021-06-12T10:55:01.000Z</time>
      </trkpt>
      <trkpt lat="47.21364" lon="-1.55089">
        <ele>59</ele>
        <time>2021-06-12T10:55:03.000Z</time>
      </trkpt>
      <trkpt lat="47.21357" lon="-1.55106">
        <ele>59</ele>
        <time>2021-06-12T10:55:05.000Z</time>
      </trkpt>
      <trkpt lat="47.2135" lon="-1.55123">
        <ele>59</ele>
        <time>2021-06-12T10:55:07.000Z</time>
      </trkpt>
      <trkpt lat="47.21343" lon="-1.55139">
        <ele>58</ele>
        <time>2021-06-12T10:55:09.000Z</time>
      </trkpt>
      <trkpt lat="47.21337" lon="-1.55156">
        <ele>58</ele>
        <time>2021-06-12T10:55:11.000Z</time>
      </trkpt>
      <trkpt lat="47.2133" lon="-1.55174">
        <ele>58</ele>
        <time>2021-06-12T10:55:13.000Z</time>
      </trkpt>
      <trkpt lat="47.21323" lon="-1.55191">
        <ele>57</ele>
        <time>2021-06-12T10:55:15.000Z</time>
      </trkpt>
      <trkpt lat="47.21317" lon="-1.55208">
        <ele>57</ele>
        <time>2021-06-12T10:55:17.000Z</time>
      </trkpt>
      <trkpt lat="47.2131" lon="-1.55225">
        <ele>57</ele>
        <time>2021-06-12T10:55:19.000Z</time>
      </trkpt>
      <trkpt lat="47.21303" lon="-1.55241">
        <ele>56</ele>
        <time>2021-06-12T10:55:21.000Z</time>
      </trkpt>
      <trkpt lat="47.21297" lon="-1.55257">
        <ele>57</ele>
        <time>2021-06-12T10:55:23.000Z</time>
      </trkpt>
      <trkpt lat="47.2129" lon="-1.55273">
        <ele>57</ele>
        <time>2021-06-12T10:55:25.000Z</time>
      </trkpt>
      <trkpt lat="47.21284" lon="-1.55288">
        <ele>57</ele>
        <time>2021-06-12T10:55:27.000Z</time>
      </trkpt>
      <trkpt lat="47.21275" lon="-1.55296">
        <ele>58</ele>
        <time>2021-06-12T10:55:29.000Z</time>
      </trkpt>
      <trkpt lat="47.21264" lon="-1.55297">
        <ele>58</ele>
        <time>2021-06-12T10:55:31.000Z</time>
      </trkpt>
      <trkpt lat="47.21254" lon="-1.55305">
        <ele>58</ele>
        <time>2021-06-12T10:55:33.000Z</time>
      </trkpt>
      <trkpt lat="47.21256" lon="-1.55322">
        <ele>58</ele>
        <time>2021-06-12T10:55:35.000Z</time>
      </trkpt>
      <trkpt lat="47.21261" lon="-1.55335">
        <ele>59</ele>
        <time>2021-06-12T10:55:37.000Z</time>
      </trkpt>
      <trkpt lat="47.21268" lon="-1.55345">
        <ele>59</ele>
        <time>2021-06-12T10:55:39.000Z</time>
      </trkpt>
      <trkpt lat="47.21277" lon="-1.55353">
        <ele>59</ele>
        <time>2021-06-12T10:55:41.000Z</time>
      </trkpt>
      <trkpt lat="47.21282" lon="-1.55368">
        <ele>58</ele>
        <time>2021-06-12T10:55:43.000Z</time>
      </trkpt>
      <trkpt lat="47.21274" lon="-1.55394">
        <ele>58</ele>
        <time>2021-06-12T10:55:46.000Z</time>
      </trkpt>
      <trkpt lat="47.21263" lon="-1.55412">
        <ele>57</ele>
        <time>2021-06-12T10:55:48.000Z</time>
      </trkpt>
      <trkpt lat="47.21253" lon="-1.5543">
        <ele>58</ele>
        <time>2021-06-12T10:55:50.000Z</time>
      </trkpt>
      <trkpt lat="47.21241" lon="-1.55448">
        <ele>57</ele>
        <time>2021-06-12T10:55:52.000Z</time>
      </trkpt>
      <trkpt lat="47.2123" lon="-1.55466">
        <ele>57</ele>
        <time>2021-06-12T10:55:54.000Z</time>
      </trkpt>
      <trkpt lat="47.21221" lon="-1.55487">
        <ele>57</ele>
        <time>2021-06-12T10:55:56.000Z</time>
      </trkpt>
      <trkpt lat="47.21215" lon="-1.55508">
        <ele>57</ele>
        <time>2021-06-12T10:55:58.000Z</time>
      </trkpt>
      <trkpt lat="47.21208" lon="-1.5553">
        <ele>57</ele>
        <time>2021-06-12T10:56:00.000Z</time>
      </trkpt>
      <trkpt lat="47.21202" lon="-1.5555">
        <ele>58</ele>
        <time>2021-06-12T10:56:02.000Z</time>
      </trkpt>
      <trkpt lat="47.21196" lon="-1.55569">
        <ele>58</ele>
        <time>2021-06-12T10:56:04.000Z</time>
      </trkpt>
      <trkpt lat="47.2119" lon="-1.55587">
        <ele>57</ele>
        <time>2021-06-12T10:56:06.000Z</time>
      </trkpt>
      <trkpt lat="47.21182" lon="-1.55613">
        <ele>57</ele>
        <time>2021-06-12T10:56:09.000Z</time>
      </trkpt>
      <trkpt lat="47.21177" lon="-1.55628">
        <ele>57</ele>
        <time>2021-06-12T10:56:11.000Z</time>
      </trkpt>
      <trkpt lat="47.21173" lon="-1.55642">
        <ele>57</ele>
        <time>2021-06-12T10:56:13.000Z</time>
      </trkpt>
      <trkpt lat="47.21169" lon="-1.55658">
        <ele>57</ele>
        <time>2021-06-12T10:56:16.000Z</time>
      </trkpt>
      <trkpt lat="47.21166" lon="-1.55672">
        <ele>57</ele>
        <time>2021-06-12T10:56:18.000Z</time>
      </trkpt>
      <trkpt lat="47.21156" lon="-1.55678">
        <ele>57</ele>
        <time>2021-06-12T10:56:20.000Z</time>
      </trkpt>
      <trkpt lat="47.21145" lon="-1.55673">
        <ele>57</ele>
        <time>2021-06-12T10:56:22.000Z</time>
      </trkpt>
      <trkpt lat="47.21137" lon="-1.55668">
        <ele>57</ele>
        <time>2021-06-12T10:56:24.000Z</time>
      </trkpt>
      <trkpt lat="47.21132" lon="-1.55681">
        <ele>57</ele>
        <time>2021-06-12T10:56:26.000Z</time>
      </trkpt>
      <trkpt lat="47.21129" lon="-1.557">
        <ele>57</ele>
        <time>2021-06-12T10:56:28.000Z</time>
      </trkpt>
      <trkpt lat="47.21124" lon="-1.5572">
        <ele>56</ele>
        <time>2021-06-12T10:56:30.000Z</time>
      </trkpt>
      <trkpt lat="47.21119" lon="-1.55739">
        <ele>56</ele>
        <time>2021-06-12T10:56:32.000Z</time>
      </trkpt>
      <trkpt lat="47.21114" lon="-1.55759">
        <ele>56</ele>
        <time>2021-06-12T10:56:34.000Z</time>
      </trkpt>
      <trkpt lat="47.21109" lon="-1.55779">
        <ele>57</ele>
        <time>2021-06-12T10:56:36.000Z</time>
      </trkpt>
      <trkpt lat="47.21101" lon="-1.55808">
        <ele>57</ele>
        <time>2021-06-12T10:56:39.000Z</time>
      </trkpt>
      <trkpt lat="47.21094" lon="-1.55826">
        <ele>57</ele>
        <time>2021-06-12T10:56:41.000Z</time>
      </trkpt>
      <trkpt lat="47.21089" lon="-1.55842">
        <ele>57</ele>
        <time>2021-06-12T10:56:43.000Z</time>
      </trkpt>
      <trkpt lat="47.21083" lon="-1.55858">
        <ele>58</ele>
        <time>2021-06-12T10:56:45.000Z</time>
      </trkpt>
      <trkpt lat="47.21077" lon="-1.55875">
        <ele>59</ele>
        <time>2021-06-12T10:56:47.000Z</time>
      </trkpt>
      <trkpt lat="47.2107" lon="-1.55893">
        <ele>60</ele>
        <time>2021-06-12T10:56:49.000Z</time>
      </trkpt>
      <trkpt lat="47.21063" lon="-1.55912">
        <ele>60</ele>
        <time>2021-06-12T10:56:51.000Z</time>
      </trkpt>
      <trkpt lat="47.21057" lon="-1.55929">
        <ele>60</ele>
        <time>2021-06-12T10:56:53.000Z</time>
      </trkpt>
      <trkpt lat="47.2105" lon="-1.55944">
        <ele>61</ele>
        <time>2021-06-12T10:56:55.000Z</time>
      </trkpt>
      <trkpt lat="47.21043" lon="-1.55958">
        <ele>61</ele>
        <time>2021-06-12T10:56:57.000Z</time>
      </trkpt>
      <trkpt lat="47.21037" lon="-1.55974">
        <ele>61</ele>
        <time>2021-06-12T10:56:59.000Z</time>
      </trkpt>
      <trkpt lat="47.21029" lon="-1.5599">
        <ele>61</ele>
        <time>2021-06-12T10:57:01.000Z</time>
      </trkpt>
      <trkpt lat="47.21022" lon="-1.56007">
        <ele>61</ele>
        <time>2021-06-12T10:57:03.000Z</time>
      </trkpt>
      <trkpt lat="47.21016" lon="-1.56024">
        <ele>60</ele>
        <time>2021-06-12T10:57:05.000Z</time>
      </trkpt>
      <trkpt lat="47.2101" lon="-1.56039">
        <ele>60</ele>
        <time>2021-06-12T10:57:07.000Z</time>
      </trkpt>
      <trkpt lat="47.21004" lon="-1.56053">
        <ele>60</ele>
        <time>2021-06-12T10:57:09.000Z</time>
      </trkpt>
      <trkpt lat="47.20998" lon="-1.56067">
        <ele>60</ele>
        <time>2021-06-12T10:57:11.000Z</time>
      </trkpt>
      <trkpt lat="47.20993" lon="-1.56079">
        <ele>59</ele>
        <time>2021-06-12T10:57:13.000Z</time>
      </trkpt>
      <trkpt lat="47.20989" lon="-1.56095">
        <ele>57</ele>
        <time>2021-06-12T10:57:16.000Z</time>
      </trkpt>
      <trkpt lat="47.20991" lon="-1.56109">
        <ele>58</ele>
        <time>2021-06-12T10:57:20.000Z</time>
      </trkpt>
      <trkpt lat="47.20988" lon="-1.56121">
        <ele>57</ele>
        <time>2021-06-12T10:57:23.000Z</time>
      </trkpt>
      <trkpt lat="47.2098" lon="-1.56134">
        <ele>57</ele>
        <time>2021-06-12T10:57:27.000Z</time>
      </trkpt>
      <trkpt lat="47.20983" lon="-1.56151">
        <ele>58</ele>
        <time>2021-06-12T10:57:30.000Z</time>
      </trkpt>
      <trkpt lat="47.20987" lon="-1.56163">
        <ele>58</ele>
        <time>2021-06-12T10:57:33.000Z</time>
      </trkpt>
      <trkpt lat="47.2098" lon="-1.56172">
        <ele>58</ele>
        <time>2021-06-12T10:57:36.000Z</time>
      </trkpt>
      <trkpt lat="47.20969" lon="-1.5617">
        <ele>58</ele>
        <time>2021-06-12T10:57:38.000Z</time>
      </trkpt>
      <trkpt lat="47.20958" lon="-1.56166">
        <ele>59</ele>
        <time>2021-06-12T10:57:40.000Z</time>
      </trkpt>
      <trkpt lat="47.20946" lon="-1.56164">
        <ele>60</ele>
        <time>2021-06-12T10:57:42.000Z</time>
      </trkpt>
      <trkpt lat="47.20934" lon="-1.56161">
        <ele>61</ele>
        <time>2021-06-12T10:57:44.000Z</time>
      </trkpt>
      <trkpt lat="47.20923" lon="-1.56157">
        <ele>61</ele>
        <time>2021-06-12T10:57:46.000Z</time>
      </trkpt>
      <trkpt lat="47.20911" lon="-1.56155">
        <ele>59</ele>
        <time>2021-06-12T10:57:48.000Z</time>
      </trkpt>
      <trkpt lat="47.20898" lon="-1.56153">
        <ele>60</ele>
        <time>2021-06-12T10:57:50.000Z</time>
      </trkpt>
      <trkpt lat="47.20887" lon="-1.56151">
        <ele>60</ele>
        <time>2021-06-12T10:57:52.000Z</time>
      </trkpt>
      <trkpt lat="47.20875" lon="-1.56148">
        <ele>59</ele>
        <time>2021-06-12T10:57:54.000Z</time>
      </trkpt>
      <trkpt lat="47.20861" lon="-1.56145">
        <ele>58</ele>
        <time>2021-06-12T10:57:56.000Z</time>
      </trkpt>
      <trkpt lat="47.20848" lon="-1.56141">
        <ele>57</ele>
        <time>2021-06-12T10:57:58.000Z</time>
      </trkpt>
      <trkpt lat="47.20838" lon="-1.56145">
        <ele>57</ele>
        <time>2021-06-12T10:58:00.000Z</time>
      </trkpt>
      <trkpt lat="47.20834" lon="-1.56163">
        <ele>57</ele>
        <time>2021-06-12T10:58:02.000Z</time>
      </trkpt>
      <trkpt lat="47.20834" lon="-1.56182">
        <ele>57</ele>
        <time>2021-06-12T10:58:04.000Z</time>
      </trkpt>
      <trkpt lat="47.20833" lon="-1.56202">
        <ele>57</ele>
        <time>2021-06-12T10:58:06.000Z</time>
      </trkpt>
      <trkpt lat="47.20832" lon="-1.56223">
        <ele>58</ele>
        <time>2021-06-12T10:58:08.000Z</time>
      </trkpt>
      <trkpt lat="47.20833" lon="-1.56244">
        <ele>58</ele>
        <time>2021-06-12T10:58:10.000Z</time>
      </trkpt>
      <trkpt lat="47.20833" lon="-1.56264">
        <ele>58</ele>
        <time>2021-06-12T10:58:12.000Z</time>
      </trkpt>
      <trkpt lat="47.20833" lon="-1.56285">
        <ele>58</ele>
        <time>2021-06-12T10:58:14.000Z</time>
      </trkpt>
      <trkpt lat="47.20832" lon="-1.56304">
        <ele>57</ele>
        <time>2021-06-12T10:58:16.000Z</time>
      </trkpt>
      <trkpt lat="47.20829" lon="-1.56323">
        <ele>58</ele>
        <time>2021-06-12T10:58:18.000Z</time>
      </trkpt>
      <trkpt lat="47.20824" lon="-1.56343">
        <ele>58</ele>
        <time>2021-06-12T10:58:20.000Z</time>
      </trkpt>
      <trkpt lat="47.20819" lon="-1.56363">
        <ele>58</ele>
        <time>2021-06-12T10:58:22.000Z</time>
      </trkpt>
      <trkpt lat="47.20814" lon="-1.56383">
        <ele>58</ele>
        <time>2021-06-12T10:58:24.000Z</time>
      </trkpt>
      <trkpt lat="47.20809" lon="-1.56403">
        <ele>58</ele>
        <time>2021-06-12T10:58:26.000Z</time>
      </trkpt>
      <trkpt lat="47.20804" lon="-1.56423">
        <ele>58</ele>
        <time>2021-06-12T10:58:28.000Z</time>
      </trkpt>
      <trkpt lat="47.20799" lon="-1.56443">
        <ele>58</ele>
        <time>2021-06-12T10:58:30.000Z</time>
      </trkpt>
      <trkpt lat="47.20794" lon="-1.56462">
        <ele>58</ele>
        <time>2021-06-12T10:58:32.000Z</time>
      </trkpt>
      <trkpt lat="47.2079" lon="-1.56481">
        <ele>58</ele>
        <time>2021-06-12T10:58:34.000Z</time>
      </trkpt>
      <trkpt lat="47.20785" lon="-1.56498">
        <ele>57</ele>
        <time>2021-06-12T10:58:36.000Z</time>
      </trkpt>
      <trkpt lat="47.20779" lon="-1.56514">
        <ele>57</ele>
        <time>2021-06-12T10:58:38.000Z</time>
      </trkpt>
      <trkpt lat="47.20768" lon="-1.56514">
        <ele>57</ele>
        <time>2021-06-12T10:58:40.000Z</time>
      </trkpt>
      <trkpt lat="47.2076" lon="-1.56504">
        <ele>58</ele>
        <time>2021-06-12T10:58:42.000Z</time>
      </trkpt>
      <trkpt lat="47.20751" lon="-1.56497">
        <ele>58</ele>
        <time>2021-06-12T10:58:44.000Z</time>
      </trkpt>
      <trkpt lat="47.20743" lon="-1.5649">
        <ele>60</ele>
        <time>2021-06-12T10:58:47.000Z</time>
      </trkpt>
      <trkpt lat="47.20741" lon="-1.56506">
        <ele>61</ele>
        <time>2021-06-12T10:58:53.000Z</time>
      </trkpt>
      <trkpt lat="47.20736" lon="-1.56523">
        <ele>61</ele>
        <time>2021-06-12T10:58:56.000Z</time>
      </trkpt>
      <trkpt lat="47.20727" lon="-1.56538">
        <ele>59</ele>
        <time>2021-06-12T10:58:58.000Z</time>
      </trkpt>
      <trkpt lat="47.20719" lon="-1.56554">
        <ele>58</ele>
        <time>2021-06-12T10:59:00.000Z</time>
      </trkpt>
      <trkpt lat="47.20713" lon="-1.56565">
        <ele>57</ele>
        <time>2021-06-12T10:59:02.000Z</time>
      </trkpt>
      <trkpt lat="47.20701" lon="-1.56577">
        <ele>58</ele>
        <time>2021-06-12T10:59:05.000Z</time>
      </trkpt>
      <trkpt lat="47.20688" lon="-1.56579">
        <ele>57</ele>
        <time>2021-06-12T10:59:07.000Z</time>
      </trkpt>
      <trkpt lat="47.20676" lon="-1.56585">
        <ele>56</ele>
        <time>2021-06-12T10:59:09.000Z</time>
      </trkpt>
      <trkpt lat="47.20665" lon="-1.56597">
        <ele>56</ele>
        <time>2021-06-12T10:59:11.000Z</time>
      </trkpt>
      <trkpt lat="47.20652" lon="-1.56606">
        <ele>56</ele>
        <time>2021-06-12T10:59:13.000Z</time>
      </trkpt>
      <trkpt lat="47.20639" lon="-1.56613">
        <ele>56</ele>
        <time>2021-06-12T10:59:15.000Z</time>
      </trkpt>
      <trkpt lat="47.20623" lon="-1.56614">
        <ele>56</ele>
        <time>2021-06-12T10:59:17.000Z</time>
      </trkpt>
      <trkpt lat="47.20608" lon="-1.56618">
        <ele>56</ele>
        <time>2021-06-12T10:59:19.000Z</time>
      </trkpt>
      <trkpt lat="47.20595" lon="-1.56629">
        <ele>56</ele>
        <time>2021-06-12T10:59:21.000Z</time>
      </trkpt>
      <trkpt lat="47.20583" lon="-1.56643">
        <ele>56</ele>
        <time>2021-06-12T10:59:23.000Z</time>
      </trkpt>
      <trkpt lat="47.20573" lon="-1.56659">
        <ele>56</ele>
        <time>2021-06-12T10:59:25.000Z</time>
      </trkpt>
      <trkpt lat="47.20563" lon="-1.56676">
        <ele>56</ele>
        <time>2021-06-12T10:59:27.000Z</time>
      </trkpt>
      <trkpt lat="47.20554" lon="-1.56693">
        <ele>56</ele>
        <time>2021-06-12T10:59:29.000Z</time>
      </trkpt>
      <trkpt lat="47.20543" lon="-1.56705">
        <ele>56</ele>
        <time>2021-06-12T10:59:31.000Z</time>
      </trkpt>
      <trkpt lat="47.2053" lon="-1.56713">
        <ele>56</ele>
        <time>2021-06-12T10:59:33.000Z</time>
      </trkpt>
      <trkpt lat="47.20517" lon="-1.56717">
        <ele>57</ele>
        <time>2021-06-12T10:59:35.000Z</time>
      </trkpt>
      <trkpt lat="47.20503" lon="-1.56717">
        <ele>57</ele>
        <time>2021-06-12T10:59:37.000Z</time>
      </trkpt>
      <trkpt lat="47.20489" lon="-1.56714">
        <ele>56</ele>
        <time>2021-06-12T10:59:39.000Z</time>
      </trkpt>
      <trkpt lat="47.20475" lon="-1.56711">
        <ele>57</ele>
        <time>2021-06-12T10:59:41.000Z</time>
      </trkpt>
      <trkpt lat="47.20461" lon="-1.56709">
        <ele>57</ele>
        <time>2021-06-12T10:59:43.000Z</time>
      </trkpt>
      <trkpt lat="47.20448" lon="-1.56708">
        <ele>56</ele>
        <time>2021-06-12T10:59:45.000Z</time>
      </trkpt>
      <trkpt lat="47.20435" lon="-1.56705">
        <ele>57</ele>
        <time>2021-06-12T10:59:47.000Z</time>
      </trkpt>
      <trkpt lat="47.20423" lon="-1.56701">
        <ele>58</ele>
        <time>2021-06-12T10:59:49.000Z</time>
      </trkpt>
      <trkpt lat="47.20411" lon="-1.56699">
        <ele>58</ele>
        <time>2021-06-12T10:59:51.000Z</time>
      </trkpt>
      <trkpt lat="47.204" lon="-1.56704">
        <ele>59</ele>
        <time>2021-06-12T10:59:53.000Z</time>
      </trkpt>
      <trkpt lat="47.20395" lon="-1.56722">
        <ele>59</ele>
        <time>2021-06-12T10:59:55.000Z</time>
      </trkpt>
      <trkpt lat="47.20395" lon="-1.56746">
        <ele>59</ele>
        <time>2021-06-12T10:59:57.000Z</time>
      </trkpt>
      <trkpt lat="47.20394" lon="-1.56768">
        <ele>60</ele>
        <time>2021-06-12T10:59:59.000Z</time>
      </trkpt>
      <trkpt lat="47.20392" lon="-1.56789">
        <ele>60</ele>
        <time>2021-06-12T11:00:01.000Z</time>
      </trkpt>
      <trkpt lat="47.20392" lon="-1.56809">
        <ele>61</ele>
        <time>2021-06-12T11:00:03.000Z</time>
      </trkpt>
      <trkpt lat="47.20391" lon="-1.56831">
        <ele>61</ele>
        <time>2021-06-12T11:00:05.000Z</time>
      </trkpt>
      <trkpt lat="47.2039" lon="-1.56853">
        <ele>61</ele>
        <time>2021-06-12T11:00:07.000Z</time>
      </trkpt>
      <trkpt lat="47.20388" lon="-1.56875">
        <ele>61</ele>
        <time>2021-06-12T11:00:09.000Z</time>
      </trkpt>
      <trkpt lat="47.20387" lon="-1.56897">
        <ele>61</ele>
        <time>2021-06-12T11:00:11.000Z</time>
      </trkpt>
      <trkpt lat="47.20386" lon="-1.56917">
        <ele>60</ele>
        <time>2021-06-12T11:00:13.000Z</time>
      </trkpt>
      <trkpt lat="47.20384" lon="-1.56938">
        <ele>61</ele>
        <time>2021-06-12T11:00:15.000Z</time>
      </trkpt>
      <trkpt lat="47.20381" lon="-1.56959">
        <ele>60</ele>
        <time>2021-06-12T11:00:17.000Z</time>
      </trkpt>
      <trkpt lat="47.20379" lon="-1.56979">
        <ele>59</ele>
        <time>2021-06-12T11:00:19.000Z</time>
      </trkpt>
      <trkpt lat="47.20375" lon="-1.56999">
        <ele>59</ele>
        <time>2021-06-12T11:00:21.000Z</time>
      </trkpt>
      <trkpt lat="47.20372" lon="-1.5702">
        <ele>58</ele>
        <time>2021-06-12T11:00:23.000Z</time>
      </trkpt>
      <trkpt lat="47.20368" lon="-1.5704">
        <ele>57</ele>
        <time>2021-06-12T11:00:25.000Z</time>
      </trkpt>
      <trkpt lat="47.20362" lon="-1.57058">
        <ele>57</ele>
        <time>2021-06-12T11:00:27.000Z</time>
      </trkpt>
      <trkpt lat="47.20354" lon="-1.57075">
        <ele>57</ele>
        <time>2021-06-12T11:00:29.000Z</time>
      </trkpt>
      <trkpt lat="47.20346" lon="-1.57091">
        <ele>57</ele>
        <time>2021-06-12T11:00:31.000Z</time>
      </trkpt>
      <trkpt lat="47.20337" lon="-1.57105">
        <ele>57</ele>
        <time>2021-06-12T11:00:33.000Z</time>
      </trkpt>
      <trkpt lat="47.20324" lon="-1.57115">
        <ele>57</ele>
        <time>2021-06-12T11:00:35.000Z</time>
      </trkpt>
      <trkpt lat="47.20311" lon="-1.57124">
        <ele>58</ele>
        <time>2021-06-12T11:00:37.000Z</time>
      </trkpt>
      <trkpt lat="47.20298" lon="-1.57133">
        <ele>60</ele>
        <time>2021-06-12T11:00:39.000Z</time>
      </trkpt>
      <trkpt lat="47.20284" lon="-1.57141">
        <ele>59</ele>
        <time>2021-06-12T11:00:41.000Z</time>
      </trkpt>
      <trkpt lat="47.20271" lon="-1.57148">
        <ele>59</ele>
        <time>2021-06-12T11:00:43.000Z</time>
      </trkpt>
      <trkpt lat="47.20258" lon="-1.57156">
        <ele>59</ele>
        <time>2021-06-12T11:00:45.000Z</time>
      </trkpt>
      <trkpt lat="47.20245" lon="-1.57165">
        <ele>58</ele>
        <time>2021-06-12T11:00:47.000Z</time>
      </trkpt>
      <trkpt lat="47.20232" lon="-1.57174">
        <ele>59</ele>
        <time>2021-06-12T11:00:49.000Z</time>
      </trkpt>
      <trkpt lat="47.20219" lon="-1.57182">
        <ele>58</ele>
        <time>2021-06-12T11:00:51.000Z</time>
      </trkpt>
      <trkpt lat="47.20206" lon="-1.57191">
        <ele>58</ele>
        <time>2021-06-12T11:00:53.000Z</time>
      </trkpt>
      <trkpt lat="47.20193" lon="-1.57201">
        <ele>58</ele>
        <time>2021-06-12T11:00:55.000Z</time>
      </trkpt>
      <trkpt lat="47.20179" lon="-1.57209">
        <ele>57</ele>
        <time>2021-06-12T11:00:57.000Z</time>
      </trkpt>
      <trkpt lat="47.20166" lon="-1.57218">
        <ele>57</ele>
        <time>2021-06-12T11:00:59.000Z</time>
      </trkpt>
      <trkpt lat="47.20153" lon="-1.57227">
        <ele>56</ele>
        <time>2021-06-12T11:01:01.000Z</time>
      </trkpt>
      <trkpt lat="47.2014" lon="-1.57236">
        <ele>56</ele>
        <time>2021-06-12T11:01:03.000Z</time>
      </trkpt>
      <trkpt lat="47.20127" lon="-1.57245">
        <ele>56</ele>
        <time>2021-06-12T11:01:05.000Z</time>
      </trkpt>
      <trkpt lat="47.20114" lon="-1.57254">
        <ele>57</ele>
        <time>2021-06-12T11:01:07.000Z</time>
      </trkpt>
      <trkpt lat="47.201" lon="-1.57263">
        <ele>57</ele>
        <time>2021-06-12T11:01:09.000Z</time>
      </trkpt>
      <trkpt lat="47.20087" lon="-1.57271">
        <ele>57</ele>
        <time>2021-06-12T11:01:11.000Z</time>
      </trkpt>
      <trkpt lat="47.20075" lon="-1.57282">
        <ele>57</ele>
        <time>2021-06-12T11:01:13.000Z</time>
      </trkpt>
      <trkpt lat="47.20063" lon="-1.57293">
        <ele>57</ele>
        <time>2021-06-12T11:01:15.000Z</time>
      </trkpt>
      <trkpt lat="47.20051" lon="-1.57304">
        <ele>57</ele>
        <time>2021-06-12T11:01:17.000Z</time>
      </trkpt>
      <trkpt lat="47.20037" lon="-1.57312">
        <ele>57</ele>
        <time>2021-06-12T11:01:19.000Z</time>
      </trkpt>
      <trkpt lat="47.20025" lon="-1.57321">
        <ele>57</ele>
        <time>2021-06-12T11:01:21.000Z</time>
      </trkpt>
      <trkpt lat="47.20013" lon="-1.5733">
        <ele>58</ele>
        <time>2021-06-12T11:01:23.000Z</time>
      </trkpt>
      <trkpt lat="47.20002" lon="-1.57338">
        <ele>58</ele>
        <time>2021-06-12T11:01:25.000Z</time>
      </trkpt>
      <trkpt lat="47.19988" lon="-1.57339">
        <ele>59</ele>
        <time>2021-06-12T11:01:27.000Z</time>
      </trkpt>
      <trkpt lat="47.1998" lon="-1.57323">
        <ele>59</ele>
        <time>2021-06-12T11:01:29.000Z</time>
      </trkpt>
      <trkpt lat="47.1998" lon="-1.57303">
        <ele>58</ele>
        <time>2021-06-12T11:01:31.000Z</time>
      </trkpt>
      <trkpt lat="47.19979" lon="-1.57283">
        <ele>59</ele>
        <time>2021-06-12T11:01:33.000Z</time>
      </trkpt>
      <trkpt lat="47.19979" lon="-1.57263">
        <ele>59</ele>
        <time>2021-06-12T11:01:35.000Z</time>
      </trkpt>
      <trkpt lat="47.19979" lon="-1.57243">
        <ele>59</ele>
        <time>2021-06-12T11:01:37.000Z</time>
      </trkpt>
      <trkpt lat="47.19979" lon="-1.57223">
        <ele>58</ele>
        <time>2021-06-12T11:01:39.000Z</time>
      </trkpt>
      <trkpt lat="47.19979" lon="-1.57203">
        <ele>58</ele>
        <time>2021-06-12T11:01:41.000Z</time>
      </trkpt>
      <trkpt lat="47.19979" lon="-1.57181">
        <ele>57</ele>
        <time>2021-06-12T11:01:43.000Z</time>
      </trkpt>
      <trkpt lat="47.19978" lon="-1.5716">
        <ele>57</ele>
        <time>2021-06-12T11:01:45.000Z</time>
      </trkpt>
      <trkpt lat="47.19976" lon="-1.5714">
        <ele>57</ele>
        <time>2021-06-12T11:01:47.000Z</time>
      </trkpt>
      <trkpt lat="47.19972" lon="-1.5712">
        <ele>57</ele>
        <time>2021-06-12T11:01:49.000Z</time>
      </trkpt>
      <trkpt lat="47.19967" lon="-1.57101">
        <ele>56</ele>
        <time>2021-06-12T11:01:51.000Z</time>
      </trkpt>
      <trkpt lat="47.19963" lon="-1.57082">
        <ele>57</ele>
        <time>2021-06-12T11:01:53.000Z</time>
      </trkpt>
      <trkpt lat="47.19959" lon="-1.57064">
        <ele>56</ele>
        <time>2021-06-12T11:01:55.000Z</time>
      </trkpt>
      <trkpt lat="47.19953" lon="-1.57046">
        <ele>56</ele>
        <time>2021-06-12T11:01:57.000Z</time>
      </trkpt>
      <trkpt lat="47.1995" lon="-1.57027">
        <ele>56</ele>
        <time>2021-06-12T11:01:59.000Z</time>
      </trkpt>
      <trkpt lat="47.1995" lon="-1.57007">
        <ele>56</ele>
        <time>2021-06-12T11:02:01.000Z</time>
      </trkpt>
      <trkpt lat="47.1995" lon="-1.56987">
        <ele>56</ele>
        <time>2021-06-12T11:02:03.000Z</time>
      </trkpt>
      <trkpt lat="47.1995" lon="-1.56967">
        <ele>56</ele>
        <time>2021-06-12T11:02:05.000Z</time>
      </trkpt>
      <trkpt lat="47.1995" lon="-1.56947">
        <ele>56</ele>
        <time>2021-06-12T11:02:07.000Z</time>
      </trkpt>
      <trkpt lat="47.19951" lon="-1.56928">
        <ele>56</ele>
        <time>2021-06-12T11:02:09.000Z</time>
      </trkpt>
      <trkpt lat="47.19951" lon="-1.56908">
        <ele>56</ele>
        <time>2021-06-12T11:02:11.000Z</time>
      </trkpt>
      <trkpt lat="47.1995" lon="-1.56889">
        <ele>56</ele>
        <time>2021-06-12T11:02:13.000Z</time>
      </trkpt>
      <trkpt lat="47.19951" lon="-1.56869">
        <ele>56</ele>
        <time>2021-06-12T11:02:15.000Z</time>
      </trkpt>
      <trkpt lat="47.1995" lon="-1.5685">
        <ele>56</ele>
        <time>2021-06-12T11:02:17.000Z</time>
      </trkpt>
      <trkpt lat="47.19951" lon="-1.56831">
        <ele>56</ele>
        <time>2021-06-12T11:02:19.000Z</time>
      </trkpt>
      <trkpt lat="47.19951" lon="-1.56812">
        <ele>56</ele>
        <time>2021-06-12T11:02:21.000Z</time>
      </trkpt>
      <trkpt lat="47.19951" lon="-1.56792">
        <ele>56</ele>
        <time>2021-06-12T11:02:23.000Z</time>
      </trkpt>
      <trkpt lat="47.19951" lon="-1.56772">
        <ele>56</ele>
        <time>2021-06-12T11:02:25.000Z</time>
      </trkpt>
      <trkpt lat="47.19951" lon="-1.56753">
        <ele>56</ele>
        <time>2021-06-12T11:02:27.000Z</time>
      </trkpt>
      <trkpt lat="47.19951" lon="-1.56734">
        <ele>56</ele>
        <time>2021-06-12T11:02:29.000Z</time>
      </trkpt>
      <trkpt lat="47.19951" lon="-1.56716">
        <ele>56</ele>
        <time>2021-06-12T11:02:31.000Z</time>
      </trkpt>
      <trkpt lat="47.19951" lon="-1.56698">
        <ele>56</ele>
        <time>2021-06-12T11:02:33.000Z</time>
      </trkpt>
      <trkpt lat="47.19951" lon="-1.5668">
        <ele>56</ele>
        <time>2021-06-12T11:02:35.000Z</time>
      </trkpt>
      <trkpt lat="47.19951" lon="-1.56662">
        <ele>56</ele>
        <time>2021-06-12T11:02:37.000Z</time>
      </trkpt>
      <trkpt lat="47.19951" lon="-1.56643">
        <ele>56</ele>
        <time>2021-06-12T11:02:39.000Z</time>
      </trkpt>
      <trkpt lat="47.19951" lon="-1.56624">
        <ele>56</ele>
        <time>2021-06-12T11:02:41.000Z</time>
      </trkpt>
      <trkpt lat="47.19951" lon="-1.56604">
        <ele>56</ele>
        <time>2021-06-12T11:02:43.000Z</time>
      </trkpt>
      <trkpt lat="47.19952" lon="-1.56586">
        <ele>56</ele>
        <time>2021-06-12T11:02:45.000Z</time>
      </trkpt>
      <trkpt lat="47.19951" lon="-1.56567">
        <ele>56</ele>
        <time>2021-06-12T11:02:47.000Z</time>
      </trkpt>
      <trkpt lat="47.19952" lon="-1.56548">
        <ele>56</ele>
        <time>2021-06-12T11:02:49.000Z</time>
      </trkpt>
      <trkpt lat="47.19952" lon="-1.56529">
        <ele>56</ele>
        <time>2021-06-12T11:02:51.000Z</time>
      </trkpt>
      <trkpt lat="47.19953" lon="-1.56509">
        <ele>56</ele>
        <time>2021-06-12T11:02:53.000Z</time>
      </trkpt>
      <trkpt lat="47.19953" lon="-1.5649">
        <ele>56</ele>
        <time>2021-06-12T11:02:55.000Z</time>
      </trkpt>
      <trkpt lat="47.19955" lon="-1.56472">
        <ele>56</ele>
        <time>2021-06-12T11:02:57.000Z</time>
      </trkpt>
      <trkpt lat="47.19958" lon="-1.56453">
        <ele>56</ele>
        <time>2021-06-12T11:02:59.000Z</time>
      </trkpt>
      <trkpt lat="47.19961" lon="-1.56435">
        <ele>56</ele>
        <time>2021-06-12T11:03:01.000Z</time>
      </trkpt>
      <trkpt lat="47.19965" lon="-1.56418">
        <ele>55</ele>
        <time>2021-06-12T11:03:03.000Z</time>
      </trkpt>
      <trkpt lat="47.19969" lon="-1.564">
        <ele>55</ele>
        <time>2021-06-12T11:03:05.000Z</time>
      </trkpt>
      <trkpt lat="47.19971" lon="-1.56381">
        <ele>55</ele>
        <time>2021-06-12T11:03:07.000Z</time>
      </trkpt>
      <trkpt lat="47.19971" lon="-1.56362">
        <ele>56</ele>
        <time>2021-06-12T11:03:09.000Z</time>
      </trkpt>
      <trkpt lat="47.19973" lon="-1.56344">
        <ele>56</ele>
        <time>2021-06-12T11:03:11.000Z</time>
      </trkpt>
      <trkpt lat="47.19974" lon="-1.56325">
        <ele>56</ele>
        <time>2021-06-12T11:03:13.000Z</time>
      </trkpt>
      <trkpt lat="47.19976" lon="-1.56307">
        <ele>56</ele>
        <time>2021-06-12T11:03:15.000Z</time>
      </trkpt>
      <trkpt lat="47.19977" lon="-1.56288">
        <ele>56</ele>
        <time>2021-06-12T11:03:17.000Z</time>
      </trkpt>
      <trkpt lat="47.19977" lon="-1.5627">
        <ele>56</ele>
        <time>2021-06-12T11:03:19.000Z</time>
      </trkpt>
      <trkpt lat="47.19977" lon="-1.56252">
        <ele>56</ele>
        <time>2021-06-12T11:03:21.000Z</time>
      </trkpt>
      <trkpt lat="47.19977" lon="-1.56234">
        <ele>56</ele>
        <time>2021-06-12T11:03:23.000Z</time>
      </trkpt>
      <trkpt lat="47.19977" lon="-1.56216">
        <ele>56</ele>
        <time>2021-06-12T11:03:25.000Z</time>
      </trkpt>
      <trkpt lat="47.19977" lon="-1.56199">
        <ele>56</ele>
        <time>2021-06-12T11:03:27.000Z</time>
      </trkpt>
      <trkpt lat="47.19976" lon="-1.56183">
        <ele>56</ele>
        <time>2021-06-12T11:03:29.000Z</time>
      </trkpt>
      <trkpt lat="47.19972" lon="-1.5617">
        <ele>57</ele>
        <time>2021-06-12T11:03:31.000Z</time>
      </trkpt>
      <trkpt lat="47.19963" lon="-1.56165">
        <ele>57</ele>
        <time>2021-06-12T11:03:33.000Z</time>
      </trkpt>
      <trkpt lat="47.19952" lon="-1.56168">
        <ele>58</ele>
        <time>2021-06-12T11:03:35.000Z</time>
      </trkpt>
      <trkpt lat="47.1994" lon="-1.5617">
        <ele>59</ele>
        <time>2021-06-12T11:03:37.000Z</time>
      </trkpt>
      <trkpt lat="47.19928" lon="-1.56173">
        <ele>59</ele>
        <time>2021-06-12T11:03:39.000Z</time>
      </trkpt>
      <trkpt lat="47.19916" lon="-1.56176">
        <ele>59</ele>
        <time>2021-06-12T11:03:41.000Z</time>
      </trkpt>
      <trkpt lat="47.19904" lon="-1.56178">
        <ele>60</ele>
        <time>2021-06-12T11:03:43.000Z</time>
      </trkpt>
      <trkpt lat="47.19892" lon="-1.5618">
        <ele>61</ele>
        <time>2021-06-12T11:03:45.000Z</time>
      </trkpt>
      <trkpt lat="47.1988" lon="-1.56182">
        <ele>61</ele>
        <time>2021-06-12T11:03:47.000Z</time>
      </trkpt>
      <trkpt lat="47.19868" lon="-1.56184">
        <ele>61</ele>
        <time>2021-06-12T11:03:49.000Z</time>
      </trkpt>
      <trkpt lat="47.19856" lon="-1.56187">
        <ele>61</ele>
        <time>2021-06-12T11:03:51.000Z</time>
      </trkpt>
      <trkpt lat="47.19843" lon="-1.56189">
        <ele>62</ele>
        <time>2021-06-12T11:03:53.000Z</time>
      </trkpt>
      <trkpt lat="47.19832" lon="-1.56191">
        <ele>62</ele>
        <time>2021-06-12T11:03:55.000Z</time>
      </trkpt>
      <trkpt lat="47.1982" lon="-1.56193">
        <ele>62</ele>
        <time>2021-06-12T11:03:57.000Z</time>
      </trkpt>
      <trkpt lat="47.19809" lon="-1.56195">
        <ele>62</ele>
        <time>2021-06-12T11:03:59.000Z</time>
      </trkpt>
      <trkpt lat="47.19797" lon="-1.56197">
        <ele>62</ele>
        <time>2021-06-12T11:04:01.000Z</time>
      </trkpt>
      <trkpt lat="47.19785" lon="-1.56199">
        <ele>62</ele>
        <time>2021-06-12T11:04:03.000Z</time>
      </trkpt>
      <trkpt lat="47.19773" lon="-1.56201">
        <ele>62</ele>
        <time>2021-06-12T11:04:05.000Z</time>
      </trkpt>
      <trkpt lat="47.19761" lon="-1.56204">
        <ele>61</ele>
        <time>2021-06-12T11:04:07.000Z</time>
      </trkpt>
      <trkpt lat="47.19748" lon="-1.56207">
        <ele>60</ele>
        <time>2021-06-12T11:04:09.000Z</time>
      </trkpt>
      <trkpt lat="47.19734" lon="-1.5621">
        <ele>59</ele>
        <time>2021-06-12T11:04:11.000Z</time>
      </trkpt>
      <trkpt lat="47.19719" lon="-1.56212">
        <ele>59</ele>
        <time>2021-06-12T11:04:13.000Z</time>
      </trkpt>
      <trkpt lat="47.19703" lon="-1.56215">
        <ele>58</ele>
        <time>2021-06-12T11:04:15.000Z</time>
      </trkpt>
      <trkpt lat="47.19686" lon="-1.56219">
        <ele>58</ele>
        <time>2021-06-12T11:04:17.000Z</time>
      </trkpt>
      <trkpt lat="47.19669" lon="-1.56224">
        <ele>57</ele>
        <time>2021-06-12T11:04:19.000Z</time>
      </trkpt>
      <trkpt lat="47.1966" lon="-1.56227">
        <ele>56</ele>
        <time>2021-06-12T11:04:20.000Z</time>
      </trkpt>
      <trkpt lat="47.19651" lon="-1.56229">
        <ele>55</ele>
        <time>2021-06-12T11:04:21.000Z</time>
      </trkpt>
      <trkpt lat="47.19636" lon="-1.56246">
        <ele>55</ele>
        <time>2021-06-12T11:04:23.000Z</time>
      </trkpt>
      <trkpt lat="47.19634" lon="-1.56258">
        <ele>54</ele>
        <time>2021-06-12T11:04:24.000Z</time>
      </trkpt>
      <trkpt lat="47.19633" lon="-1.56282">
        <ele>54</ele>
        <time>2021-06-12T11:04:26.000Z</time>
      </trkpt>
      <trkpt lat="47.19632" lon="-1.56304">
        <ele>55</ele>
        <time>2021-06-12T11:04:28.000Z</time>
      </trkpt>
      <trkpt lat="47.19631" lon="-1.56327">
        <ele>55</ele>
        <time>2021-06-12T11:04:30.000Z</time>
      </trkpt>
      <trkpt lat="47.1963" lon="-1.56348">
        <ele>54</ele>
        <time>2021-06-12T11:04:32.000Z</time>
      </trkpt>
      <trkpt lat="47.1963" lon="-1.5637">
        <ele>54</ele>
        <time>2021-06-12T11:04:34.000Z</time>
      </trkpt>
      <trkpt lat="47.19631" lon="-1.56391">
        <ele>54</ele>
        <time>2021-06-12T11:04:36.000Z</time>
      </trkpt>
      <trkpt lat="47.19631" lon="-1.56412">
        <ele>54</ele>
        <time>2021-06-12T11:04:38.000Z</time>
      </trkpt>
      <trkpt lat="47.19632" lon="-1.56432">
        <ele>54</ele>
        <time>2021-06-12T11:04:40.000Z</time>
      </trkpt>
      <trkpt lat="47.19633" lon="-1.56452">
        <ele>54</ele>
        <time>2021-06-12T11:04:42.000Z</time>
      </trkpt>
      <trkpt lat="47.19633" lon="-1.56472">
        <ele>54</ele>
        <time>2021-06-12T11:04:44.000Z</time>
      </trkpt>
      <trkpt lat="47.19634" lon="-1.56492">
        <ele>55</ele>
        <time>2021-06-12T11:04:46.000Z</time>
      </trkpt>
      <trkpt lat="47.19633" lon="-1.56512">
        <ele>55</ele>
        <time>2021-06-12T11:04:48.000Z</time>
      </trkpt>
      <trkpt lat="47.19633" lon="-1.56533">
        <ele>55</ele>
        <time>2021-06-12T11:04:50.000Z</time>
      </trkpt>
      <trkpt lat="47.19633" lon="-1.56553">
        <ele>55</ele>
        <time>2021-06-12T11:04:52.000Z</time>
      </trkpt>
      <trkpt lat="47.19632" lon="-1.56574">
        <ele>56</ele>
        <time>2021-06-12T11:04:54.000Z</time>
      </trkpt>
      <trkpt lat="47.19631" lon="-1.56595">
        <ele>55</ele>
        <time>2021-06-12T11:04:56.000Z</time>
      </trkpt>
      <trkpt lat="47.1963" lon="-1.56616">
        <ele>56</ele>
        <time>2021-06-12T11:04:58.000Z</time>
      </trkpt>
      <trkpt lat="47.19629" lon="-1.56636">
        <ele>56</ele>
        <time>2021-06-12T11:05:00.000Z</time>
      </trkpt>
      <trkpt lat="47.19629" lon="-1.56656">
        <ele>57</ele>
        <time>2021-06-12T11:05:02.000Z</time>
      </trkpt>
      <trkpt lat="47.19629" lon="-1.56677">
        <ele>57</ele>
        <time>2021-06-12T11:05:04.000Z</time>
      </trkpt>
      <trkpt lat="47.19628" lon="-1.56698">
        <ele>57</ele>
        <time>2021-06-12T11:05:06.000Z</time>
      </trkpt>
      <trkpt lat="47.19627" lon="-1.5672">
        <ele>57</ele>
        <time>2021-06-12T11:05:08.000Z</time>
      </trkpt>
      <trkpt lat="47.19625" lon="-1.56741">
        <ele>57</ele>
        <time>2021-06-12T11:05:10.000Z</time>
      </trkpt>
      <trkpt lat="47.19622" lon="-1.56763">
        <ele>56</ele>
        <time>2021-06-12T11:05:12.000Z</time>
      </trkpt>
      <trkpt lat="47.1962" lon="-1.56785">
        <ele>56</ele>
        <time>2021-06-12T11:05:14.000Z</time>
      </trkpt>
      <trkpt lat="47.19619" lon="-1.56806">
        <ele>56</ele>
        <time>2021-06-12T11:05:16.000Z</time>
      </trkpt>
      <trkpt lat="47.19618" lon="-1.56828">
        <ele>56</ele>
        <time>2021-06-12T11:05:18.000Z</time>
      </trkpt>
      <trkpt lat="47.19617" lon="-1.56849">
        <ele>56</ele>
        <time>2021-06-12T11:05:20.000Z</time>
      </trkpt>
      <trkpt lat="47.19616" lon="-1.5687">
        <ele>57</ele>
        <time>2021-06-12T11:05:22.000Z</time>
      </trkpt>
      <trkpt lat="47.19615" lon="-1.56891">
        <ele>57</ele>
        <time>2021-06-12T11:05:24.000Z</time>
      </trkpt>
      <trkpt lat="47.19613" lon="-1.56911">
        <ele>57</ele>
        <time>2021-06-12T11:05:26.000Z</time>
      </trkpt>
      <trkpt lat="47.19611" lon="-1.56932">
        <ele>57</ele>
        <time>2021-06-12T11:05:28.000Z</time>
      </trkpt>
      <trkpt lat="47.1961" lon="-1.56953">
        <ele>57</ele>
        <time>2021-06-12T11:05:30.000Z</time>
      </trkpt>
      <trkpt lat="47.19608" lon="-1.56975">
        <ele>56</ele>
        <time>2021-06-12T11:05:32.000Z</time>
      </trkpt>
      <trkpt lat="47.19606" lon="-1.56996">
        <ele>56</ele>
        <time>2021-06-12T11:05:34.000Z</time>
      </trkpt>
      <trkpt lat="47.19605" lon="-1.57017">
        <ele>57</ele>
        <time>2021-06-12T11:05:36.000Z</time>
      </trkpt>
      <trkpt lat="47.19603" lon="-1.57038">
        <ele>57</ele>
        <time>2021-06-12T11:05:38.000Z</time>
      </trkpt>
      <trkpt lat="47.19603" lon="-1.57059">
        <ele>57</ele>
        <time>2021-06-12T11:05:40.000Z</time>
      </trkpt>
      <trkpt lat="47.19602" lon="-1.57079">
        <ele>57</ele>
        <time>2021-06-12T11:05:42.000Z</time>
      </trkpt>
      <trkpt lat="47.196" lon="-1.571">
        <ele>57</ele>
        <time>2021-06-12T11:05:44.000Z</time>
      </trkpt>
      <trkpt lat="47.19599" lon="-1.5712">
        <ele>56</ele>
        <time>2021-06-12T11:05:46.000Z</time>
      </trkpt>
      <trkpt lat="47.19598" lon="-1.57139">
        <ele>56</ele>
        <time>2021-06-12T11:05:48.000Z</time>
      </trkpt>
      <trkpt lat="47.19597" lon="-1.57159">
        <ele>56</ele>
        <time>2021-06-12T11:05:50.000Z</time>
      </trkpt>
      <trkpt lat="47.19596" lon="-1.57179">
        <ele>56</ele>
        <time>2021-06-12T11:05:52.000Z</time>
      </trkpt>
      <trkpt lat="47.19595" lon="-1.572">
        <ele>56</ele>
        <time>2021-06-12T11:05:54.000Z</time>
      </trkpt>
      <trkpt lat="47.19594" lon="-1.5722">
        <ele>56</ele>
        <time>2021-06-12T11:05:56.000Z</time>
      </trkpt>
      <trkpt lat="47.19592" lon="-1.57241">
        <ele>56</ele>
        <time>2021-06-12T11:05:58.000Z</time>
      </trkpt>
      <trkpt lat="47.19591" lon="-1.5726">
        <ele>56</ele>
        <time>2021-06-12T11:06:00.000Z</time>
      </trkpt>
      <trkpt lat="47.19588" lon="-1.5728">
        <ele>56</ele>
        <time>2021-06-12T11:06:02.000Z</time>
      </trkpt>
      <trkpt lat="47.19588" lon="-1.573">
        <ele>56</ele>
        <time>2021-06-12T11:06:04.000Z</time>
      </trkpt>
      <trkpt lat="47.19586" lon="-1.5732">
        <ele>56</ele>
        <time>2021-06-12T11:06:06.000Z</time>
      </trkpt>
      <trkpt lat="47.19582" lon="-1.57338">
        <ele>57</ele>
        <time>2021-06-12T11:06:08.000Z</time>
      </trkpt>
      <trkpt lat="47.19577" lon="-1.57357">
        <ele>56</ele>
        <time>2021-06-12T11:06:10.000Z</time>
      </trkpt>
      <trkpt lat="47.19574" lon="-1.57377">
        <ele>56</ele>
        <time>2021-06-12T11:06:12.000Z</time>
      </trkpt>
      <trkpt lat="47.1957" lon="-1.57396">
        <ele>56</ele>
        <time>2021-06-12T11:06:14.000Z</time>
      </trkpt>
      <trkpt lat="47.19567" lon="-1.57417">
        <ele>57</ele>
        <time>2021-06-12T11:06:16.000Z</time>
      </trkpt>
      <trkpt lat="47.19563" lon="-1.57437">
        <ele>57</ele>
        <time>2021-06-12T11:06:18.000Z</time>
      </trkpt>
      <trkpt lat="47.1956" lon="-1.57456">
        <ele>58</ele>
        <time>2021-06-12T11:06:20.000Z</time>
      </trkpt>
      <trkpt lat="47.19556" lon="-1.57478">
        <ele>58</ele>
        <time>2021-06-12T11:06:22.000Z</time>
      </trkpt>
      <trkpt lat="47.19553" lon="-1.57499">
        <ele>57</ele>
        <time>2021-06-12T11:06:24.000Z</time>
      </trkpt>
      <trkpt lat="47.19548" lon="-1.5752">
        <ele>57</ele>
        <time>2021-06-12T11:06:26.000Z</time>
      </trkpt>
      <trkpt lat="47.19544" lon="-1.5754">
        <ele>57</ele>
        <time>2021-06-12T11:06:28.000Z</time>
      </trkpt>
      <trkpt lat="47.1954" lon="-1.5756">
        <ele>57</ele>
        <time>2021-06-12T11:06:30.000Z</time>
      </trkpt>
      <trkpt lat="47.19535" lon="-1.5758">
        <ele>58</ele>
        <time>2021-06-12T11:06:32.000Z</time>
      </trkpt>
      <trkpt lat="47.19531" lon="-1.576">
        <ele>57</ele>
        <time>2021-06-12T11:06:34.000Z</time>
      </trkpt>
      <trkpt lat="47.19527" lon="-1.57619">
        <ele>57</ele>
        <time>2021-06-12T11:06:36.000Z</time>
      </trkpt>
      <trkpt lat="47.19523" lon="-1.57637">
        <ele>57</ele>
        <time>2021-06-12T11:06:38.000Z</time>
      </trkpt>
      <trkpt lat="47.19519" lon="-1.57656">
        <ele>57</ele>
        <time>2021-06-12T11:06:40.000Z</time>
      </trkpt>
      <trkpt lat="47.19514" lon="-1.57676">
        <ele>56</ele>
        <time>2021-06-12T11:06:42.000Z</time>
      </trkpt>
      <trkpt lat="47.19511" lon="-1.57695">
        <ele>56</ele>
        <time>2021-06-12T11:06:44.000Z</time>
      </trkpt>
      <trkpt lat="47.19506" lon="-1.57715">
        <ele>56</ele>
        <time>2021-06-12T11:06:46.000Z</time>
      </trkpt>
      <trkpt lat="47.19502" lon="-1.57735">
        <ele>56</ele>
        <time>2021-06-12T11:06:48.000Z</time>
      </trkpt>
      <trkpt lat="47.19497" lon="-1.57754">
        <ele>56</ele>
        <time>2021-06-12T11:06:50.000Z</time>
      </trkpt>
      <trkpt lat="47.19493" lon="-1.57773">
        <ele>55</ele>
        <time>2021-06-12T11:06:52.000Z</time>
      </trkpt>
      <trkpt lat="47.19489" lon="-1.57793">
        <ele>55</ele>
        <time>2021-06-12T11:06:54.000Z</time>
      </trkpt>
      <trkpt lat="47.19486" lon="-1.57812">
        <ele>55</ele>
        <time>2021-06-12T11:06:56.000Z</time>
      </trkpt>
      <trkpt lat="47.19482" lon="-1.57831">
        <ele>55</ele>
        <time>2021-06-12T11:06:58.000Z</time>
      </trkpt>
      <trkpt lat="47.1948" lon="-1.57851">
        <ele>55</ele>
        <time>2021-06-12T11:07:00.000Z</time>
      </trkpt>
      <trkpt lat="47.19478" lon="-1.57872">
        <ele>55</ele>
        <time>2021-06-12T11:07:02.000Z</time>
      </trkpt>
      <trkpt lat="47.19474" lon="-1.57892">
        <ele>55</ele>
        <time>2021-06-12T11:07:04.000Z</time>
      </trkpt>
      <trkpt lat="47.19472" lon="-1.57913">
        <ele>55</ele>
        <time>2021-06-12T11:07:06.000Z</time>
      </trkpt>
      <trkpt lat="47.1947" lon="-1.57934">
        <ele>55</ele>
        <time>2021-06-12T11:07:08.000Z</time>
      </trkpt>
      <trkpt lat="47.19468" lon="-1.57954">
        <ele>55</ele>
        <time>2021-06-12T11:07:10.000Z</time>
      </trkpt>
      <trkpt lat="47.19466" lon="-1.57973">
        <ele>55</ele>
        <time>2021-06-12T11:07:12.000Z</time>
      </trkpt>
      <trkpt lat="47.19465" lon="-1.57992">
        <ele>55</ele>
        <time>2021-06-12T11:07:14.000Z</time>
      </trkpt>
      <trkpt lat="47.19463" lon="-1.58011">
        <ele>55</ele>
        <time>2021-06-12T11:07:16.000Z</time>
      </trkpt>
      <trkpt lat="47.19462" lon="-1.5803">
        <ele>55</ele>
        <time>2021-06-12T11:07:18.000Z</time>
      </trkpt>
      <trkpt lat="47.1946" lon="-1.58047">
        <ele>55</ele>
        <time>2021-06-12T11:07:20.000Z</time>
      </trkpt>
      <trkpt lat="47.19457" lon="-1.58063">
        <ele>55</ele>
        <time>2021-06-12T11:07:22.000Z</time>
      </trkpt>
      <trkpt lat="47.19455" lon="-1.58078">
        <ele>55</ele>
        <time>2021-06-12T11:07:24.000Z</time>
      </trkpt>
      <trkpt lat="47.19452" lon="-1.58093">
        <ele>55</ele>
        <time>2021-06-12T11:07:26.000Z</time>
      </trkpt>
      <trkpt lat="47.19442" lon="-1.58106">
        <ele>55</ele>
        <time>2021-06-12T11:07:28.000Z</time>
      </trkpt>
      <trkpt lat="47.19432" lon="-1.5812">
        <ele>55</ele>
        <time>2021-06-12T11:07:30.000Z</time>
      </trkpt>
      <trkpt lat="47.1942" lon="-1.58133">
        <ele>55</ele>
        <time>2021-06-12T11:07:32.000Z</time>
      </trkpt>
      <trkpt lat="47.19409" lon="-1.58147">
        <ele>55</ele>
        <time>2021-06-12T11:07:34.000Z</time>
      </trkpt>
      <trkpt lat="47.194" lon="-1.58163">
        <ele>55</ele>
        <time>2021-06-12T11:07:36.000Z</time>
      </trkpt>
      <trkpt lat="47.19392" lon="-1.5818">
        <ele>56</ele>
        <time>2021-06-12T11:07:38.000Z</time>
      </trkpt>
      <trkpt lat="47.19385" lon="-1.58198">
        <ele>56</ele>
        <time>2021-06-12T11:07:40.000Z</time>
      </trkpt>
      <trkpt lat="47.19377" lon="-1.58216">
        <ele>56</ele>
        <time>2021-06-12T11:07:42.000Z</time>
      </trkpt>
      <trkpt lat="47.1937" lon="-1.58234">
        <ele>56</ele>
        <time>2021-06-12T11:07:44.000Z</time>
      </trkpt>
      <trkpt lat="47.19363" lon="-1.58252">
        <ele>56</ele>
        <time>2021-06-12T11:07:46.000Z</time>
      </trkpt>
      <trkpt lat="47.19355" lon="-1.5827">
        <ele>55</ele>
        <time>2021-06-12T11:07:48.000Z</time>
      </trkpt>
      <trkpt lat="47.19345" lon="-1.58285">
        <ele>55</ele>
        <time>2021-06-12T11:07:50.000Z</time>
      </trkpt>
      <trkpt lat="47.19333" lon="-1.58297">
        <ele>55</ele>
        <time>2021-06-12T11:07:52.000Z</time>
      </trkpt>
      <trkpt lat="47.19321" lon="-1.58308">
        <ele>55</ele>
        <time>2021-06-12T11:07:54.000Z</time>
      </trkpt>
      <trkpt lat="47.19309" lon="-1.58319">
        <ele>56</ele>
        <time>2021-06-12T11:07:56.000Z</time>
      </trkpt>
      <trkpt lat="47.19297" lon="-1.58329">
        <ele>55</ele>
        <time>2021-06-12T11:07:58.000Z</time>
      </trkpt>
      <trkpt lat="47.19285" lon="-1.58341">
        <ele>55</ele>
        <time>2021-06-12T11:08:00.000Z</time>
      </trkpt>
      <trkpt lat="47.19273" lon="-1.58354">
        <ele>55</ele>
        <time>2021-06-12T11:08:02.000Z</time>
      </trkpt>
      <trkpt lat="47.1926" lon="-1.58367">
        <ele>55</ele>
        <time>2021-06-12T11:08:04.000Z</time>
      </trkpt>
      <trkpt lat="47.19247" lon="-1.58378">
        <ele>55</ele>
        <time>2021-06-12T11:08:06.000Z</time>
      </trkpt>
      <trkpt lat="47.19235" lon="-1.5839">
        <ele>55</ele>
        <time>2021-06-12T11:08:08.000Z</time>
      </trkpt>
      <trkpt lat="47.19222" lon="-1.58402">
        <ele>55</ele>
        <time>2021-06-12T11:08:10.000Z</time>
      </trkpt>
      <trkpt lat="47.19208" lon="-1.58412">
        <ele>55</ele>
        <time>2021-06-12T11:08:12.000Z</time>
      </trkpt>
      <trkpt lat="47.19196" lon="-1.58424">
        <ele>55</ele>
        <time>2021-06-12T11:08:14.000Z</time>
      </trkpt>
      <trkpt lat="47.19183" lon="-1.58436">
        <ele>55</ele>
        <time>2021-06-12T11:08:16.000Z</time>
      </trkpt>
      <trkpt lat="47.19171" lon="-1.58447">
        <ele>56</ele>
        <time>2021-06-12T11:08:18.000Z</time>
      </trkpt>
      <trkpt lat="47.19161" lon="-1.58458">
        <ele>55</ele>
        <time>2021-06-12T11:08:20.000Z</time>
      </trkpt>
      <trkpt lat="47.19151" lon="-1.58468">
        <ele>56</ele>
        <time>2021-06-12T11:08:22.000Z</time>
      </trkpt>
      <trkpt lat="47.19141" lon="-1.58478">
        <ele>56</ele>
        <time>2021-06-12T11:08:24.000Z</time>
      </trkpt>
      <trkpt lat="47.19129" lon="-1.58489">
        <ele>55</ele>
        <time>2021-06-12T11:08:26.000Z</time>
      </trkpt>
      <trkpt lat="47.19117" lon="-1.58501">
        <ele>55</ele>
        <time>2021-06-12T11:08:28.000Z</time>
      </trkpt>
      <trkpt lat="47.19105" lon="-1.58513">
        <ele>55</ele>
        <time>2021-06-12T11:08:30.000Z</time>
      </trkpt>
      <trkpt lat="47.19093" lon="-1.58524">
        <ele>56</ele>
        <time>2021-06-12T11:08:32.000Z</time>
      </trkpt>
      <trkpt lat="47.19082" lon="-1.58534">
        <ele>56</ele>
        <time>2021-06-12T11:08:34.000Z</time>
      </trkpt>
      <trkpt lat="47.1907" lon="-1.58545">
        <ele>56</ele>
        <time>2021-06-12T11:08:36.000Z</time>
      </trkpt>
      <trkpt lat="47.1906" lon="-1.58556">
        <ele>56</ele>
        <time>2021-06-12T11:08:38.000Z</time>
      </trkpt>
      <trkpt lat="47.19049" lon="-1.58568">
        <ele>56</ele>
        <time>2021-06-12T11:08:40.000Z</time>
      </trkpt>
      <trkpt lat="47.19038" lon="-1.58579">
        <ele>56</ele>
        <time>2021-06-12T11:08:42.000Z</time>
      </trkpt>
      <trkpt lat="47.19027" lon="-1.58591">
        <ele>56</ele>
        <time>2021-06-12T11:08:44.000Z</time>
      </trkpt>
      <trkpt lat="47.19016" lon="-1.58602">
        <ele>56</ele>
        <time>2021-06-12T11:08:46.000Z</time>
      </trkpt>
      <trkpt lat="47.19005" lon="-1.58614">
        <ele>56</ele>
        <time>2021-06-12T11:08:48.000Z</time>
      </trkpt>
      <trkpt lat="47.18994" lon="-1.58626">
        <ele>56</ele>
        <time>2021-06-12T11:08:50.000Z</time>
      </trkpt>
      <trkpt lat="47.18983" lon="-1.58636">
        <ele>56</ele>
        <time>2021-06-12T11:08:52.000Z</time>
      </trkpt>
      <trkpt lat="47.18972" lon="-1.58647">
        <ele>56</ele>
        <time>2021-06-12T11:08:54.000Z</time>
      </trkpt>
      <trkpt lat="47.1896" lon="-1.58658">
        <ele>56</ele>
        <time>2021-06-12T11:08:56.000Z</time>
      </trkpt>
      <trkpt lat="47.18949" lon="-1.58669">
        <ele>56</ele>
        <time>2021-06-12T11:08:58.000Z</time>
      </trkpt>
      <trkpt lat="47.18937" lon="-1.58679">
        <ele>56</ele>
        <time>2021-06-12T11:09:00.000Z</time>
      </trkpt>
      <trkpt lat="47.18926" lon="-1.5869">
        <ele>56</ele>
        <time>2021-06-12T11:09:02.000Z</time>
      </trkpt>
      <trkpt lat="47.18915" lon="-1.58701">
        <ele>56</ele>
        <time>2021-06-12T11:09:04.000Z</time>
      </trkpt>
      <trkpt lat="47.18903" lon="-1.5871">
        <ele>57</ele>
        <time>2021-06-12T11:09:06.000Z</time>
      </trkpt>
      <trkpt lat="47.18892" lon="-1.58718">
        <ele>56</ele>
        <time>2021-06-12T11:09:08.000Z</time>
      </trkpt>
      <trkpt lat="47.1888" lon="-1.58726">
        <ele>56</ele>
        <time>2021-06-12T11:09:10.000Z</time>
      </trkpt>
      <trkpt lat="47.18869" lon="-1.5873">
        <ele>56</ele>
        <time>2021-06-12T11:09:12.000Z</time>
      </trkpt>
      <trkpt lat="47.18858" lon="-1.58738">
        <ele>56</ele>
        <time>2021-06-12T11:09:14.000Z</time>
      </trkpt>
      <trkpt lat="47.18847" lon="-1.58742">
        <ele>56</ele>
        <time>2021-06-12T11:09:16.000Z</time>
      </trkpt>
      <trkpt lat="47.18836" lon="-1.5875">
        <ele>57</ele>
        <time>2021-06-12T11:09:18.000Z</time>
      </trkpt>
      <trkpt lat="47.18832" lon="-1.58766">
        <ele>56</ele>
        <time>2021-06-12T11:09:20.000Z</time>
      </trkpt>
      <trkpt lat="47.18827" lon="-1.58783">
        <ele>56</ele>
        <time>2021-06-12T11:09:22.000Z</time>
      </trkpt>
      <trkpt lat="47.1882" lon="-1.58798">
        <ele>57</ele>
        <time>2021-06-12T11:09:24.000Z</time>
      </trkpt>
      <trkpt lat="47.18807" lon="-1.58808">
        <ele>57</ele>
        <time>2021-06-12T11:09:26.000Z</time>
      </trkpt>
      <trkpt lat="47.18795" lon="-1.58815">
        <ele>57</ele>
        <time>2021-06-12T11:09:28.000Z</time>
      </trkpt>
      <trkpt lat="47.18787" lon="-1.58832">
        <ele>56</ele>
        <time>2021-06-12T11:09:30.000Z</time>
      </trkpt>
      <trkpt lat="47.18783" lon="-1.58853">
        <ele>56</ele>
        <time>2021-06-12T11:09:32.000Z</time>
      </trkpt>
      <trkpt lat="47.18779" lon="-1.58874">
        <ele>56</ele>
        <time>2021-06-12T11:09:34.000Z</time>
      </trkpt>
      <trkpt lat="47.18775" lon="-1.58894">
        <ele>56</ele>
        <time>2021-06-12T11:09:36.000Z</time>
      </trkpt>
      <trkpt lat="47.18773" lon="-1.58915">
        <ele>56</ele>
        <time>2021-06-12T11:09:38.000Z</time>
      </trkpt>
      <trkpt lat="47.1877" lon="-1.58936">
        <ele>56</ele>
        <time>2021-06-12T11:09:40.000Z</time>
      </trkpt>
      <trkpt lat="47.18768" lon="-1.58957">
        <ele>56</ele>
        <time>2021-06-12T11:09:42.000Z</time>
      </trkpt>
      <trkpt lat="47.18766" lon="-1.58978">
        <ele>56</ele>
        <time>2021-06-12T11:09:44.000Z</time>
      </trkpt>
      <trkpt lat="47.18763" lon="-1.58998">
        <ele>56</ele>
        <time>2021-06-12T11:09:46.000Z</time>
      </trkpt>
      <trkpt lat="47.18761" lon="-1.59019">
        <ele>56</ele>
        <time>2021-06-12T11:09:48.000Z</time>
      </trkpt>
      <trkpt lat="47.18759" lon="-1.5904">
        <ele>56</ele>
        <time>2021-06-12T11:09:50.000Z</time>
      </trkpt>
      <trkpt lat="47.18757" lon="-1.5906">
        <ele>56</ele>
        <time>2021-06-12T11:09:52.000Z</time>
      </trkpt>
      <trkpt lat="47.18755" lon="-1.5908">
        <ele>56</ele>
        <time>2021-06-12T11:09:54.000Z</time>
      </trkpt>
      <trkpt lat="47.18752" lon="-1.59101">
        <ele>56</ele>
        <time>2021-06-12T11:09:56.000Z</time>
      </trkpt>
      <trkpt lat="47.1875" lon="-1.59121">
        <ele>56</ele>
        <time>2021-06-12T11:09:58.000Z</time>
      </trkpt>
      <trkpt lat="47.18748" lon="-1.59142">
        <ele>56</ele>
        <time>2021-06-12T11:10:00.000Z</time>
      </trkpt>
      <trkpt lat="47.18746" lon="-1.59163">
        <ele>56</ele>
        <time>2021-06-12T11:10:02.000Z</time>
      </trkpt>
      <trkpt lat="47.18744" lon="-1.59182">
        <ele>56</ele>
        <time>2021-06-12T11:10:04.000Z</time>
      </trkpt>
      <trkpt lat="47.18742" lon="-1.59203">
        <ele>56</ele>
        <time>2021-06-12T11:10:06.000Z</time>
      </trkpt>
      <trkpt lat="47.1874" lon="-1.59223">
        <ele>57</ele>
        <time>2021-06-12T11:10:08.000Z</time>
      </trkpt>
      <trkpt lat="47.18737" lon="-1.59244">
        <ele>56</ele>
        <time>2021-06-12T11:10:10.000Z</time>
      </trkpt>
      <trkpt lat="47.18735" lon="-1.59264">
        <ele>56</ele>
        <time>2021-06-12T11:10:12.000Z</time>
      </trkpt>
      <trkpt lat="47.18732" lon="-1.59284">
        <ele>57</ele>
        <time>2021-06-12T11:10:14.000Z</time>
      </trkpt>
      <trkpt lat="47.1873" lon="-1.59305">
        <ele>57</ele>
        <time>2021-06-12T11:10:16.000Z</time>
      </trkpt>
      <trkpt lat="47.18728" lon="-1.59325">
        <ele>57</ele>
        <time>2021-06-12T11:10:18.000Z</time>
      </trkpt>
      <trkpt lat="47.18726" lon="-1.59346">
        <ele>56</ele>
        <time>2021-06-12T11:10:20.000Z</time>
      </trkpt>
      <trkpt lat="47.18724" lon="-1.59366">
        <ele>56</ele>
        <time>2021-06-12T11:10:22.000Z</time>
      </trkpt>
      <trkpt lat="47.18721" lon="-1.59387">
        <ele>56</ele>
        <time>2021-06-12T11:10:24.000Z</time>
      </trkpt>
      <trkpt lat="47.18719" lon="-1.59407">
        <ele>56</ele>
        <time>2021-06-12T11:10:26.000Z</time>
      </trkpt>
      <trkpt lat="47.18717" lon="-1.59428">
        <ele>56</ele>
        <time>2021-06-12T11:10:28.000Z</time>
      </trkpt>
      <trkpt lat="47.18715" lon="-1.59449">
        <ele>57</ele>
        <time>2021-06-12T11:10:30.000Z</time>
      </trkpt>
      <trkpt lat="47.18712" lon="-1.59469">
        <ele>57</ele>
        <time>2021-06-12T11:10:32.000Z</time>
      </trkpt>
      <trkpt lat="47.1871" lon="-1.5949">
        <ele>57</ele>
        <time>2021-06-12T11:10:34.000Z</time>
      </trkpt>
      <trkpt lat="47.18708" lon="-1.5951">
        <ele>57</ele>
        <time>2021-06-12T11:10:36.000Z</time>
      </trkpt>
      <trkpt lat="47.18706" lon="-1.59531">
        <ele>57</ele>
        <time>2021-06-12T11:10:38.000Z</time>
      </trkpt>
      <trkpt lat="47.18704" lon="-1.5955">
        <ele>57</ele>
        <time>2021-06-12T11:10:40.000Z</time>
      </trkpt>
      <trkpt lat="47.18702" lon="-1.5957">
        <ele>57</ele>
        <time>2021-06-12T11:10:42.000Z</time>
      </trkpt>
      <trkpt lat="47.187" lon="-1.59591">
        <ele>57</ele>
        <time>2021-06-12T11:10:44.000Z</time>
      </trkpt>
      <trkpt lat="47.18697" lon="-1.5961">
        <ele>57</ele>
        <time>2021-06-12T11:10:46.000Z</time>
      </trkpt>
      <trkpt lat="47.18695" lon="-1.59631">
        <ele>57</ele>
        <time>2021-06-12T11:10:48.000Z</time>
      </trkpt>
      <trkpt lat="47.18692" lon="-1.59651">
        <ele>57</ele>
        <time>2021-06-12T11:10:50.000Z</time>
      </trkpt>
      <trkpt lat="47.18689" lon="-1.59671">
        <ele>57</ele>
        <time>2021-06-12T11:10:52.000Z</time>
      </trkpt>
      <trkpt lat="47.18686" lon="-1.5969">
        <ele>57</ele>
        <time>2021-06-12T11:10:54.000Z</time>
      </trkpt>
      <trkpt lat="47.18683" lon="-1.5971">
        <ele>57</ele>
        <time>2021-06-12T11:10:56.000Z</time>
      </trkpt>
      <trkpt lat="47.18683" lon="-1.59732">
        <ele>57</ele>
        <time>2021-06-12T11:10:58.000Z</time>
      </trkpt>
      <trkpt lat="47.18683" lon="-1.59756">
        <ele>57</ele>
        <time>2021-06-12T11:11:00.000Z</time>
      </trkpt>
      <trkpt lat="47.18683" lon="-1.5978">
        <ele>57</ele>
        <time>2021-06-12T11:11:02.000Z</time>
      </trkpt>
      <trkpt lat="47.18685" lon="-1.59804">
        <ele>56</ele>
        <time>2021-06-12T11:11:04.000Z</time>
      </trkpt>
      <trkpt lat="47.1868" lon="-1.59827">
        <ele>57</ele>
        <time>2021-06-12T11:11:06.000Z</time>
      </trkpt>
      <trkpt lat="47.18668" lon="-1.59842">
        <ele>57</ele>
        <time>2021-06-12T11:11:08.000Z</time>
      </trkpt>
      <trkpt lat="47.18653" lon="-1.59847">
        <ele>57</ele>
        <time>2021-06-12T11:11:10.000Z</time>
      </trkpt>
      <trkpt lat="47.18639" lon="-1.59841">
        <ele>56</ele>
        <time>2021-06-12T11:11:12.000Z</time>
      </trkpt>
      <trkpt lat="47.18627" lon="-1.59831">
        <ele>55</ele>
        <time>2021-06-12T11:11:14.000Z</time>
      </trkpt>
      <trkpt lat="47.18615" lon="-1.5984">
        <ele>55</ele>
        <time>2021-06-12T11:11:16.000Z</time>
      </trkpt>
      <trkpt lat="47.18617" lon="-1.59854">
        <ele>56</ele>
        <time>2021-06-12T11:11:18.000Z</time>
      </trkpt>
      <trkpt lat="47.18621" lon="-1.5987">
        <ele>57</ele>
        <time>2021-06-12T11:11:20.000Z</time>
      </trkpt>
      <trkpt lat="47.18619" lon="-1.5989">
        <ele>57</ele>
        <time>2021-06-12T11:11:22.000Z</time>
      </trkpt>
      <trkpt lat="47.18614" lon="-1.59908">
        <ele>58</ele>
        <time>2021-06-12T11:11:24.000Z</time>
      </trkpt>
      <trkpt lat="47.18609" lon="-1.59926">
        <ele>57</ele>
        <time>2021-06-12T11:11:26.000Z</time>
      </trkpt>
      <trkpt lat="47.18604" lon="-1.59943">
        <ele>57</ele>
        <time>2021-06-12T11:11:28.000Z</time>
      </trkpt>
      <trkpt lat="47.18599" lon="-1.59962">
        <ele>57</ele>
        <time>2021-06-12T11:11:30.000Z</time>
      </trkpt>
      <trkpt lat="47.18593" lon="-1.5998">
        <ele>57</ele>
        <time>2021-06-12T11:11:32.000Z</time>
      </trkpt>
      <trkpt lat="47.18587" lon="-1.59999">
        <ele>57</ele>
        <time>2021-06-12T11:11:34.000Z</time>
      </trkpt>
      <trkpt lat="47.18581" lon="-1.60017">
        <ele>57</ele>
        <time>2021-06-12T11:11:36.000Z</time>
      </trkpt>
      <trkpt lat="47.18575" lon="-1.60036">
        <ele>57</ele>
        <time>2021-06-12T11:11:38.000Z</time>
      </trkpt>
      <trkpt lat="47.18569" lon="-1.60054">
        <ele>57</ele>
        <time>2021-06-12T11:11:40.000Z</time>
      </trkpt>
      <trkpt lat="47.18562" lon="-1.60072">
        <ele>57</ele>
        <time>2021-06-12T11:11:42.000Z</time>
      </trkpt>
      <trkpt lat="47.18555" lon="-1.6009">
        <ele>57</ele>
        <time>2021-06-12T11:11:44.000Z</time>
      </trkpt>
      <trkpt lat="47.18547" lon="-1.60107">
        <ele>57</ele>
        <time>2021-06-12T11:11:46.000Z</time>
      </trkpt>
      <trkpt lat="47.1854" lon="-1.60124">
        <ele>56</ele>
        <time>2021-06-12T11:11:48.000Z</time>
      </trkpt>
      <trkpt lat="47.18532" lon="-1.60141">
        <ele>56</ele>
        <time>2021-06-12T11:11:50.000Z</time>
      </trkpt>
      <trkpt lat="47.18524" lon="-1.60158">
        <ele>55</ele>
        <time>2021-06-12T11:11:52.000Z</time>
      </trkpt>
      <trkpt lat="47.18516" lon="-1.60174">
        <ele>56</ele>
        <time>2021-06-12T11:11:54.000Z</time>
      </trkpt>
      <trkpt lat="47.18508" lon="-1.6019">
        <ele>56</ele>
        <time>2021-06-12T11:11:56.000Z</time>
      </trkpt>
      <trkpt lat="47.185" lon="-1.60207">
        <ele>56</ele>
        <time>2021-06-12T11:11:58.000Z</time>
      </trkpt>
      <trkpt lat="47.18492" lon="-1.60223">
        <ele>56</ele>
        <time>2021-06-12T11:12:00.000Z</time>
      </trkpt>
      <trkpt lat="47.18484" lon="-1.60239">
        <ele>56</ele>
        <time>2021-06-12T11:12:02.000Z</time>
      </trkpt>
      <trkpt lat="47.18475" lon="-1.60255">
        <ele>56</ele>
        <time>2021-06-12T11:12:04.000Z</time>
      </trkpt>
      <trkpt lat="47.18467" lon="-1.6027">
        <ele>56</ele>
        <time>2021-06-12T11:12:06.000Z</time>
      </trkpt>
      <trkpt lat="47.18458" lon="-1.60286">
        <ele>56</ele>
        <time>2021-06-12T11:12:08.000Z</time>
      </trkpt>
      <trkpt lat="47.18449" lon="-1.60301">
        <ele>56</ele>
        <time>2021-06-12T11:12:10.000Z</time>
      </trkpt>
      <trkpt lat="47.1844" lon="-1.60315">
        <ele>56</ele>
        <time>2021-06-12T11:12:12.000Z</time>
      </trkpt>
      <trkpt lat="47.18431" lon="-1.6033">
        <ele>56</ele>
        <time>2021-06-12T11:12:14.000Z</time>
      </trkpt>
      <trkpt lat="47.18421" lon="-1.60345">
        <ele>56</ele>
        <time>2021-06-12T11:12:16.000Z</time>
      </trkpt>
      <trkpt lat="47.18411" lon="-1.60359">
        <ele>56</ele>
        <time>2021-06-12T11:12:18.000Z</time>
      </trkpt>
      <trkpt lat="47.18401" lon="-1.60373">
        <ele>56</ele>
        <time>2021-06-12T11:12:20.000Z</time>
      </trkpt>
      <trkpt lat="47.18391" lon="-1.60387">
        <ele>56</ele>
        <time>2021-06-12T11:12:22.000Z</time>
      </trkpt>
      <trkpt lat="47.18381" lon="-1.60401">
        <ele>56</ele>
        <time>2021-06-12T11:12:24.000Z</time>
      </trkpt>
      <trkpt lat="47.18369" lon="-1.60413">
        <ele>56</ele>
        <time>2021-06-12T11:12:26.000Z</time>
      </trkpt>
      <trkpt lat="47.18357" lon="-1.60427">
        <ele>56</ele>
        <time>2021-06-12T11:12:28.000Z</time>
      </trkpt>
      <trkpt lat="47.18347" lon="-1.60442">
        <ele>56</ele>
        <time>2021-06-12T11:12:30.000Z</time>
      </trkpt>
      <trkpt lat="47.18336" lon="-1.60456">
        <ele>56</ele>
        <time>2021-06-12T11:12:32.000Z</time>
      </trkpt>
      <trkpt lat="47.18324" lon="-1.6047">
        <ele>56</ele>
        <time>2021-06-12T11:12:34.000Z</time>
      </trkpt>
      <trkpt lat="47.18313" lon="-1.60483">
        <ele>56</ele>
        <time>2021-06-12T11:12:36.000Z</time>
      </trkpt>
      <trkpt lat="47.18301" lon="-1.60496">
        <ele>56</ele>
        <time>2021-06-12T11:12:38.000Z</time>
      </trkpt>
      <trkpt lat="47.18289" lon="-1.60509">
        <ele>55</ele>
        <time>2021-06-12T11:12:40.000Z</time>
      </trkpt>
      <trkpt lat="47.18277" lon="-1.60521">
        <ele>56</ele>
        <time>2021-06-12T11:12:42.000Z</time>
      </trkpt>
      <trkpt lat="47.18265" lon="-1.60533">
        <ele>56</ele>
        <time>2021-06-12T11:12:44.000Z</time>
      </trkpt>
      <trkpt lat="47.18253" lon="-1.60544">
        <ele>56</ele>
        <time>2021-06-12T11:12:46.000Z</time>
      </trkpt>
      <trkpt lat="47.1824" lon="-1.60553">
        <ele>56</ele>
        <time>2021-06-12T11:12:48.000Z</time>
      </trkpt>
      <trkpt lat="47.18227" lon="-1.60562">
        <ele>56</ele>
        <time>2021-06-12T11:12:50.000Z</time>
      </trkpt>
      <trkpt lat="47.18216" lon="-1.60569">
        <ele>57</ele>
        <time>2021-06-12T11:12:52.000Z</time>
      </trkpt>
      <trkpt lat="47.18204" lon="-1.60574">
        <ele>57</ele>
        <time>2021-06-12T11:12:54.000Z</time>
      </trkpt>
      <trkpt lat="47.18194" lon="-1.60578">
        <ele>58</ele>
        <time>2021-06-12T11:12:56.000Z</time>
      </trkpt>
      <trkpt lat="47.18188" lon="-1.60595">
        <ele>58</ele>
        <time>2021-06-12T11:12:59.000Z</time>
      </trkpt>
      <trkpt lat="47.1818" lon="-1.60604">
        <ele>58</ele>
        <time>2021-06-12T11:13:01.000Z</time>
      </trkpt>
      <trkpt lat="47.18166" lon="-1.60605">
        <ele>58</ele>
        <time>2021-06-12T11:13:03.000Z</time>
      </trkpt>
      <trkpt lat="47.18151" lon="-1.60606">
        <ele>57</ele>
        <time>2021-06-12T11:13:05.000Z</time>
      </trkpt>
      <trkpt lat="47.18137" lon="-1.60604">
        <ele>57</ele>
        <time>2021-06-12T11:13:07.000Z</time>
      </trkpt>
      <trkpt lat="47.18123" lon="-1.606">
        <ele>57</ele>
        <time>2021-06-12T11:13:09.000Z</time>
      </trkpt>
      <trkpt lat="47.1811" lon="-1.60595">
        <ele>56</ele>
        <time>2021-06-12T11:13:11.000Z</time>
      </trkpt>
      <trkpt lat="47.18096" lon="-1.60589">
        <ele>56</ele>
        <time>2021-06-12T11:13:13.000Z</time>
      </trkpt>
      <trkpt lat="47.18082" lon="-1.60582">
        <ele>55</ele>
        <time>2021-06-12T11:13:15.000Z</time>
      </trkpt>
      <trkpt lat="47.18069" lon="-1.60574">
        <ele>55</ele>
        <time>2021-06-12T11:13:17.000Z</time>
      </trkpt>
      <trkpt lat="47.18056" lon="-1.60567">
        <ele>55</ele>
        <time>2021-06-12T11:13:19.000Z</time>
      </trkpt>
      <trkpt lat="47.18042" lon="-1.6056">
        <ele>55</ele>
        <time>2021-06-12T11:13:21.000Z</time>
      </trkpt>
      <trkpt lat="47.18029" lon="-1.60555">
        <ele>56</ele>
        <time>2021-06-12T11:13:23.000Z</time>
      </trkpt>
      <trkpt lat="47.18015" lon="-1.60554">
        <ele>56</ele>
        <time>2021-06-12T11:13:25.000Z</time>
      </trkpt>
      <trkpt lat="47.18001" lon="-1.60556">
        <ele>56</ele>
        <time>2021-06-12T11:13:27.000Z</time>
      </trkpt>
      <trkpt lat="47.17988" lon="-1.6056">
        <ele>57</ele>
        <time>2021-06-12T11:13:29.000Z</time>
      </trkpt>
      <trkpt lat="47.17976" lon="-1.60566">
        <ele>57</ele>
        <time>2021-06-12T11:13:31.000Z</time>
      </trkpt>
      <trkpt lat="47.17964" lon="-1.60571">
        <ele>58</ele>
        <time>2021-06-12T11:13:33.000Z</time>
      </trkpt>
      <trkpt lat="47.17952" lon="-1.60577">
        <ele>58</ele>
        <time>2021-06-12T11:13:35.000Z</time>
      </trkpt>
      <trkpt lat="47.17941" lon="-1.60583">
        <ele>58</ele>
        <time>2021-06-12T11:13:37.000Z</time>
      </trkpt>
      <trkpt lat="47.17931" lon="-1.60587">
        <ele>59</ele>
        <time>2021-06-12T11:13:39.000Z</time>
      </trkpt>
      <trkpt lat="47.17921" lon="-1.60588">
        <ele>59</ele>
        <time>2021-06-12T11:13:43.000Z</time>
      </trkpt>
      <trkpt lat="47.1791" lon="-1.60591">
        <ele>59</ele>
        <time>2021-06-12T11:13:48.000Z</time>
      </trkpt>
      <trkpt lat="47.17903" lon="-1.60605">
        <ele>58</ele>
        <time>2021-06-12T11:13:50.000Z</time>
      </trkpt>
      <trkpt lat="47.17899" lon="-1.60622">
        <ele>57</ele>
        <time>2021-06-12T11:13:52.000Z</time>
      </trkpt>
      <trkpt lat="47.17893" lon="-1.60641">
        <ele>57</ele>
        <time>2021-06-12T11:13:54.000Z</time>
      </trkpt>
      <trkpt lat="47.17888" lon="-1.6066">
        <ele>57</ele>
        <time>2021-06-12T11:13:56.000Z</time>
      </trkpt>
      <trkpt lat="47.17881" lon="-1.60679">
        <ele>57</ele>
        <time>2021-06-12T11:13:58.000Z</time>
      </trkpt>
      <trkpt lat="47.17875" lon="-1.60699">
        <ele>56</ele>
        <time>2021-06-12T11:14:00.000Z</time>
      </trkpt>
      <trkpt lat="47.17871" lon="-1.60718">
        <ele>56</ele>
        <time>2021-06-12T11:14:02.000Z</time>
      </trkpt>
      <trkpt lat="47.17866" lon="-1.60738">
        <ele>56</ele>
        <time>2021-06-12T11:14:04.000Z</time>
      </trkpt>
      <trkpt lat="47.17862" lon="-1.60757">
        <ele>55</ele>
        <time>2021-06-12T11:14:06.000Z</time>
      </trkpt>
      <trkpt lat="47.17858" lon="-1.60776">
        <ele>56</ele>
        <time>2021-06-12T11:14:08.000Z</time>
      </trkpt>
      <trkpt lat="47.17853" lon="-1.60795">
        <ele>56</ele>
        <time>2021-06-12T11:14:10.000Z</time>
      </trkpt>
      <trkpt lat="47.17848" lon="-1.60813">
        <ele>56</ele>
        <time>2021-06-12T11:14:12.000Z</time>
      </trkpt>
      <trkpt lat="47.17844" lon="-1.60833">
        <ele>55</ele>
        <time>2021-06-12T11:14:14.000Z</time>
      </trkpt>
      <trkpt lat="47.17837" lon="-1.60851">
        <ele>56</ele>
        <time>2021-06-12T11:14:16.000Z</time>
      </trkpt>
      <trkpt lat="47.17827" lon="-1.60867">
        <ele>56</ele>
        <time>2021-06-12T11:14:18.000Z</time>
      </trkpt>
      <trkpt lat="47.17818" lon="-1.60882">
        <ele>56</ele>
        <time>2021-06-12T11:14:20.000Z</time>
      </trkpt>
      <trkpt lat="47.17806" lon="-1.60895">
        <ele>56</ele>
        <time>2021-06-12T11:14:22.000Z</time>
      </trkpt>
      <trkpt lat="47.17794" lon="-1.60904">
        <ele>56</ele>
        <time>2021-06-12T11:14:24.000Z</time>
      </trkpt>
      <trkpt lat="47.17782" lon="-1.60913">
        <ele>56</ele>
        <time>2021-06-12T11:14:26.000Z</time>
      </trkpt>
      <trkpt lat="47.1777" lon="-1.60923">
        <ele>56</ele>
        <time>2021-06-12T11:14:28.000Z</time>
      </trkpt>
      <trkpt lat="47.17758" lon="-1.60933">
        <ele>56</ele>
        <time>2021-06-12T11:14:30.000Z</time>
      </trkpt>
      <trkpt lat="47.17746" lon="-1.60942">
        <ele>55</ele>
        <time>2021-06-12T11:14:32.000Z</time>
      </trkpt>
      <trkpt lat="47.17734" lon="-1.60951">
        <ele>55</ele>
        <time>2021-06-12T11:14:34.000Z</time>
      </trkpt>
      <trkpt lat="47.17722" lon="-1.60959">
        <ele>55</ele>
        <time>2021-06-12T11:14:36.000Z</time>
      </trkpt>
      <trkpt lat="47.1771" lon="-1.60968">
        <ele>55</ele>
        <time>2021-06-12T11:14:38.000Z</time>
      </trkpt>
      <trkpt lat="47.17697" lon="-1.60974">
        <ele>56</ele>
        <time>2021-06-12T11:14:40.000Z</time>
      </trkpt>
      <trkpt lat="47.17682" lon="-1.60975">
        <ele>56</ele>
        <time>2021-06-12T11:14:42.000Z</time>
      </trkpt>
      <trkpt lat="47.17668" lon="-1.60973">
        <ele>55</ele>
        <time>2021-06-12T11:14:44.000Z</time>
      </trkpt>
      <trkpt lat="47.17654" lon="-1.60978">
        <ele>55</ele>
        <time>2021-06-12T11:14:46.000Z</time>
      </trkpt>
      <trkpt lat="47.17641" lon="-1.60988">
        <ele>55</ele>
        <time>2021-06-12T11:14:48.000Z</time>
      </trkpt>
      <trkpt lat="47.1763" lon="-1.60999">
        <ele>55</ele>
        <time>2021-06-12T11:14:50.000Z</time>
      </trkpt>
      <trkpt lat="47.17617" lon="-1.61009">
        <ele>55</ele>
        <time>2021-06-12T11:14:52.000Z</time>
      </trkpt>
      <trkpt lat="47.17605" lon="-1.61021">
        <ele>55</ele>
        <time>2021-06-12T11:14:54.000Z</time>
      </trkpt>
      <trkpt lat="47.17593" lon="-1.61032">
        <ele>55</ele>
        <time>2021-06-12T11:14:56.000Z</time>
      </trkpt>
      <trkpt lat="47.1758" lon="-1.61042">
        <ele>55</ele>
        <time>2021-06-12T11:14:58.000Z</time>
      </trkpt>
      <trkpt lat="47.17568" lon="-1.61053">
        <ele>55</ele>
        <time>2021-06-12T11:15:00.000Z</time>
      </trkpt>
      <trkpt lat="47.17555" lon="-1.61063">
        <ele>54</ele>
        <time>2021-06-12T11:15:02.000Z</time>
      </trkpt>
      <trkpt lat="47.17543" lon="-1.61073">
        <ele>55</ele>
        <time>2021-06-12T11:15:04.000Z</time>
      </trkpt>
      <trkpt lat="47.17531" lon="-1.61084">
        <ele>55</ele>
        <time>2021-06-12T11:15:06.000Z</time>
      </trkpt>
      <trkpt lat="47.17519" lon="-1.61095">
        <ele>55</ele>
        <time>2021-06-12T11:15:08.000Z</time>
      </trkpt>
      <trkpt lat="47.17506" lon="-1.61103">
        <ele>55</ele>
        <time>2021-06-12T11:15:10.000Z</time>
      </trkpt>
      <trkpt lat="47.17493" lon="-1.61106">
        <ele>55</ele>
        <time>2021-06-12T11:15:12.000Z</time>
      </trkpt>
      <trkpt lat="47.1748" lon="-1.61104">
        <ele>56</ele>
        <time>2021-06-12T11:15:14.000Z</time>
      </trkpt>
      <trkpt lat="47.17467" lon="-1.61097">
        <ele>56</ele>
        <time>2021-06-12T11:15:16.000Z</time>
      </trkpt>
      <trkpt lat="47.17457" lon="-1.61086">
        <ele>56</ele>
        <time>2021-06-12T11:15:18.000Z</time>
      </trkpt>
      <trkpt lat="47.17448" lon="-1.61074">
        <ele>57</ele>
        <time>2021-06-12T11:15:20.000Z</time>
      </trkpt>
      <trkpt lat="47.1744" lon="-1.6106">
        <ele>57</ele>
        <time>2021-06-12T11:15:22.000Z</time>
      </trkpt>
      <trkpt lat="47.17434" lon="-1.61045">
        <ele>58</ele>
        <time>2021-06-12T11:15:24.000Z</time>
      </trkpt>
      <trkpt lat="47.1743" lon="-1.61031">
        <ele>58</ele>
        <time>2021-06-12T11:15:26.000Z</time>
      </trkpt>
      <trkpt lat="47.17423" lon="-1.61019">
        <ele>58</ele>
        <time>2021-06-12T11:15:29.000Z</time>
      </trkpt>
      <trkpt lat="47.17421" lon="-1.61036">
        <ele>59</ele>
        <time>2021-06-12T11:15:32.000Z</time>
      </trkpt>
      <trkpt lat="47.17424" lon="-1.6105">
        <ele>59</ele>
        <time>2021-06-12T11:15:34.000Z</time>
      </trkpt>
      <trkpt lat="47.17429" lon="-1.61063">
        <ele>59</ele>
        <time>2021-06-12T11:15:36.000Z</time>
      </trkpt>
      <trkpt lat="47.17435" lon="-1.61077">
        <ele>60</ele>
        <time>2021-06-12T11:15:38.000Z</time>
      </trkpt>
      <trkpt lat="47.17441" lon="-1.61091">
        <ele>60</ele>
        <time>2021-06-12T11:15:40.000Z</time>
      </trkpt>
      <trkpt lat="47.17446" lon="-1.61105">
        <ele>61</ele>
        <time>2021-06-12T11:15:42.000Z</time>
      </trkpt>
      <trkpt lat="47.17452" lon="-1.6112">
        <ele>61</ele>
        <time>2021-06-12T11:15:44.000Z</time>
      </trkpt>
      <trkpt lat="47.17458" lon="-1.61135">
        <ele>62</ele>
        <time>2021-06-12T11:15:46.000Z</time>
      </trkpt>
      <trkpt lat="47.17464" lon="-1.61149">
        <ele>62</ele>
        <time>2021-06-12T11:15:48.000Z</time>
      </trkpt>
      <trkpt lat="47.1747" lon="-1.61164">
        <ele>62</ele>
        <time>2021-06-12T11:15:50.000Z</time>
      </trkpt>
      <trkpt lat="47.17476" lon="-1.61178">
        <ele>62</ele>
        <time>2021-06-12T11:15:52.000Z</time>
      </trkpt>
      <trkpt lat="47.17482" lon="-1.61193">
        <ele>62</ele>
        <time>2021-06-12T11:15:54.000Z</time>
      </trkpt>
      <trkpt lat="47.17488" lon="-1.61207">
        <ele>63</ele>
        <time>2021-06-12T11:15:56.000Z</time>
      </trkpt>
      <trkpt lat="47.17494" lon="-1.61222">
        <ele>63</ele>
        <time>2021-06-12T11:15:58.000Z</time>
      </trkpt>
      <trkpt lat="47.175" lon="-1.61236">
        <ele>64</ele>
        <time>2021-06-12T11:16:00.000Z</time>
      </trkpt>
      <trkpt lat="47.17506" lon="-1.61249">
        <ele>64</ele>
        <time>2021-06-12T11:16:02.000Z</time>
      </trkpt>
      <trkpt lat="47.17514" lon="-1.61262">
        <ele>65</ele>
        <time>2021-06-12T11:16:04.000Z</time>
      </trkpt>
      <trkpt lat="47.17522" lon="-1.61273">
        <ele>65</ele>
        <time>2021-06-12T11:16:06.000Z</time>
      </trkpt>
      <trkpt lat="47.1753" lon="-1.61283">
        <ele>64</ele>
        <time>2021-06-12T11:16:08.000Z</time>
      </trkpt>
      <trkpt lat="47.1754" lon="-1.61289">
        <ele>64</ele>
        <time>2021-06-12T11:16:10.000Z</time>
      </trkpt>
      <trkpt lat="47.1755" lon="-1.61295">
        <ele>64</ele>
        <time>2021-06-12T11:16:12.000Z</time>
      </trkpt>
      <trkpt lat="47.17558" lon="-1.61308">
        <ele>64</ele>
        <time>2021-06-12T11:16:14.000Z</time>
      </trkpt>
      <trkpt lat="47.1756" lon="-1.61325">
        <ele>64</ele>
        <time>2021-06-12T11:16:16.000Z</time>
      </trkpt>
      <trkpt lat="47.17557" lon="-1.61342">
        <ele>63</ele>
        <time>2021-06-12T11:16:18.000Z</time>
      </trkpt>
      <trkpt lat="47.17547" lon="-1.61353">
        <ele>63</ele>
        <time>2021-06-12T11:16:20.000Z</time>
      </trkpt>
      <trkpt lat="47.17537" lon="-1.61363">
        <ele>63</ele>
        <time>2021-06-12T11:16:22.000Z</time>
      </trkpt>
      <trkpt lat="47.1753" lon="-1.61378">
        <ele>64</ele>
        <time>2021-06-12T11:16:24.000Z</time>
      </trkpt>
      <trkpt lat="47.17525" lon="-1.61395">
        <ele>64</ele>
        <time>2021-06-12T11:16:26.000Z</time>
      </trkpt>
      <trkpt lat="47.17522" lon="-1.6141">
        <ele>64</ele>
        <time>2021-06-12T11:16:28.000Z</time>
      </trkpt>
      <trkpt lat="47.17519" lon="-1.61425">
        <ele>65</ele>
        <time>2021-06-12T11:16:30.000Z</time>
      </trkpt>
      <trkpt lat="47.17516" lon="-1.61439">
        <ele>66</ele>
        <time>2021-06-12T11:16:32.000Z</time>
      </trkpt>
      <trkpt lat="47.17512" lon="-1.61453">
        <ele>66</ele>
        <time>2021-06-12T11:16:34.000Z</time>
      </trkpt>
      <trkpt lat="47.17504" lon="-1.61462">
        <ele>66</ele>
        <time>2021-06-12T11:16:36.000Z</time>
      </trkpt>
      <trkpt lat="47.17493" lon="-1.61468">
        <ele>67</ele>
        <time>2021-06-12T11:16:38.000Z</time>
      </trkpt>
      <trkpt lat="47.17482" lon="-1.61472">
        <ele>67</ele>
        <time>2021-06-12T11:16:40.000Z</time>
      </trkpt>
      <trkpt lat="47.17471" lon="-1.61476">
        <ele>67</ele>
        <time>2021-06-12T11:16:42.000Z</time>
      </trkpt>
      <trkpt lat="47.1746" lon="-1.61481">
        <ele>68</ele>
        <time>2021-06-12T11:16:44.000Z</time>
      </trkpt>
      <trkpt lat="47.17449" lon="-1.61488">
        <ele>68</ele>
        <time>2021-06-12T11:16:46.000Z</time>
      </trkpt>
      <trkpt lat="47.17438" lon="-1.61493">
        <ele>68</ele>
        <time>2021-06-12T11:16:48.000Z</time>
      </trkpt>
      <trkpt lat="47.17428" lon="-1.61499">
        <ele>69</ele>
        <time>2021-06-12T11:16:50.000Z</time>
      </trkpt>
      <trkpt lat="47.17418" lon="-1.61506">
        <ele>70</ele>
        <time>2021-06-12T11:16:52.000Z</time>
      </trkpt>
      <trkpt lat="47.17408" lon="-1.61513">
        <ele>70</ele>
        <time>2021-06-12T11:16:54.000Z</time>
      </trkpt>
      <trkpt lat="47.17398" lon="-1.61521">
        <ele>71</ele>
        <time>2021-06-12T11:16:56.000Z</time>
      </trkpt>
      <trkpt lat="47.17389" lon="-1.61529">
        <ele>71</ele>
        <time>2021-06-12T11:16:58.000Z</time>
      </trkpt>
      <trkpt lat="47.1738" lon="-1.61537">
        <ele>72</ele>
        <time>2021-06-12T11:17:00.000Z</time>
      </trkpt>
      <trkpt lat="47.17371" lon="-1.61547">
        <ele>72</ele>
        <time>2021-06-12T11:17:02.000Z</time>
      </trkpt>
      <trkpt lat="47.17363" lon="-1.61557">
        <ele>73</ele>
        <time>2021-06-12T11:17:04.000Z</time>
      </trkpt>
      <trkpt lat="47.17355" lon="-1.61566">
        <ele>74</ele>
        <time>2021-06-12T11:17:06.000Z</time>
      </trkpt>
      <trkpt lat="47.17347" lon="-1.61575">
        <ele>74</ele>
        <time>2021-06-12T11:17:08.000Z</time>
      </trkpt>
      <trkpt lat="47.17338" lon="-1.61585">
        <ele>74</ele>
        <time>2021-06-12T11:17:10.000Z</time>
      </trkpt>
      <trkpt lat="47.17329" lon="-1.61596">
        <ele>74</ele>
        <time>2021-06-12T11:17:12.000Z</time>
      </trkpt>
      <trkpt lat="47.17321" lon="-1.61606">
        <ele>73</ele>
        <time>2021-06-12T11:17:14.000Z</time>
      </trkpt>
      <trkpt lat="47.17313" lon="-1.61618">
        <ele>73</ele>
        <time>2021-06-12T11:17:16.000Z</time>
      </trkpt>
      <trkpt lat="47.17304" lon="-1.6163">
        <ele>72</ele>
        <time>2021-06-12T11:17:18.000Z</time>
      </trkpt>
      <trkpt lat="47.17297" lon="-1.61643">
        <ele>73</ele>
        <time>2021-06-12T11:17:20.000Z</time>
      </trkpt>
      <trkpt lat="47.1729" lon="-1.61658">
        <ele>73</ele>
        <time>2021-06-12T11:17:22.000Z</time>
      </trkpt>
      <trkpt lat="47.17283" lon="-1.61672">
        <ele>73</ele>
        <time>2021-06-12T11:17:24.000Z</time>
      </trkpt>
      <trkpt lat="47.17275" lon="-1.61686">
        <ele>73</ele>
        <time>2021-06-12T11:17:26.000Z</time>
      </trkpt>
      <trkpt lat="47.17267" lon="-1.61702">
        <ele>73</ele>
        <time>2021-06-12T11:17:28.000Z</time>
      </trkpt>
      <trkpt lat="47.17259" lon="-1.61717">
        <ele>73</ele>
        <time>2021-06-12T11:17:30.000Z</time>
      </trkpt>
      <trkpt lat="47.17252" lon="-1.61732">
        <ele>72</ele>
        <time>2021-06-12T11:17:32.000Z</time>
      </trkpt>
      <trkpt lat="47.17247" lon="-1.6175">
        <ele>72</ele>
        <time>2021-06-12T11:17:34.000Z</time>
      </trkpt>
      <trkpt lat="47.17244" lon="-1.61768">
        <ele>72</ele>
        <time>2021-06-12T11:17:36.000Z</time>
      </trkpt>
      <trkpt lat="47.17236" lon="-1.61784">
        <ele>72</ele>
        <time>2021-06-12T11:17:38.000Z</time>
      </trkpt>
      <trkpt lat="47.17224" lon="-1.61793">
        <ele>72</ele>
        <time>2021-06-12T11:17:40.000Z</time>
      </trkpt>
      <trkpt lat="47.17213" lon="-1.61803">
        <ele>72</ele>
        <time>2021-06-12T11:17:42.000Z</time>
      </trkpt>
      <trkpt lat="47.17201" lon="-1.61813">
        <ele>72</ele>
        <time>2021-06-12T11:17:44.000Z</time>
      </trkpt>
      <trkpt lat="47.1719" lon="-1.61823">
        <ele>72</ele>
        <time>2021-06-12T11:17:46.000Z</time>
      </trkpt>
      <trkpt lat="47.17179" lon="-1.61833">
        <ele>72</ele>
        <time>2021-06-12T11:17:48.000Z</time>
      </trkpt>
      <trkpt lat="47.17168" lon="-1.61843">
        <ele>72</ele>
        <time>2021-06-12T11:17:50.000Z</time>
      </trkpt>
      <trkpt lat="47.17157" lon="-1.61854">
        <ele>72</ele>
        <time>2021-06-12T11:17:52.000Z</time>
      </trkpt>
      <trkpt lat="47.17146" lon="-1.61865">
        <ele>72</ele>
        <time>2021-06-12T11:17:54.000Z</time>
      </trkpt>
      <trkpt lat="47.17134" lon="-1.61876">
        <ele>71</ele>
        <time>2021-06-12T11:17:56.000Z</time>
      </trkpt>
      <trkpt lat="47.17123" lon="-1.61887">
        <ele>71</ele>
        <time>2021-06-12T11:17:58.000Z</time>
      </trkpt>
      <trkpt lat="47.17111" lon="-1.61899">
        <ele>71</ele>
        <time>2021-06-12T11:18:00.000Z</time>
      </trkpt>
      <trkpt lat="47.17099" lon="-1.6191">
        <ele>70</ele>
        <time>2021-06-12T11:18:02.000Z</time>
      </trkpt>
      <trkpt lat="47.17088" lon="-1.6192">
        <ele>71</ele>
        <time>2021-06-12T11:18:04.000Z</time>
      </trkpt>
      <trkpt lat="47.17078" lon="-1.6193">
        <ele>71</ele>
        <time>2021-06-12T11:18:06.000Z</time>
      </trkpt>
      <trkpt lat="47.17069" lon="-1.61941">
        <ele>71</ele>
        <time>2021-06-12T11:18:08.000Z</time>
      </trkpt>
      <trkpt lat="47.17059" lon="-1.61953">
        <ele>71</ele>
        <time>2021-06-12T11:18:10.000Z</time>
      </trkpt>
      <trkpt lat="47.17049" lon="-1.61966">
        <ele>71</ele>
        <time>2021-06-12T11:18:12.000Z</time>
      </trkpt>
      <trkpt lat="47.17039" lon="-1.6198">
        <ele>71</ele>
        <time>2021-06-12T11:18:14.000Z</time>
      </trkpt>
      <trkpt lat="47.1703" lon="-1.61994">
        <ele>71</ele>
        <time>2021-06-12T11:18:16.000Z</time>
      </trkpt>
      <trkpt lat="47.17021" lon="-1.62008">
        <ele>71</ele>
        <time>2021-06-12T11:18:18.000Z</time>
      </trkpt>
      <trkpt lat="47.17011" lon="-1.62021">
        <ele>71</ele>
        <time>2021-06-12T11:18:20.000Z</time>
      </trkpt>
      <trkpt lat="47.17002" lon="-1.62036">
        <ele>71</ele>
        <time>2021-06-12T11:18:22.000Z</time>
      </trkpt>
      <trkpt lat="47.16994" lon="-1.62051">
        <ele>70</ele>
        <time>2021-06-12T11:18:24.000Z</time>
      </trkpt>
      <trkpt lat="47.16986" lon="-1.62066">
        <ele>71</ele>
        <time>2021-06-12T11:18:26.000Z</time>
      </trkpt>
      <trkpt lat="47.16978" lon="-1.62081">
        <ele>71</ele>
        <time>2021-06-12T11:18:28.000Z</time>
      </trkpt>
      <trkpt lat="47.1697" lon="-1.62096">
        <ele>71</ele>
        <time>2021-06-12T11:18:30.000Z</time>
      </trkpt>
      <trkpt lat="47.16962" lon="-1.62111">
        <ele>71</ele>
        <time>2021-06-12T11:18:32.000Z</time>
      </trkpt>
      <trkpt lat="47.16953" lon="-1.62127">
        <ele>71</ele>
        <time>2021-06-12T11:18:34.000Z</time>
      </trkpt>
      <trkpt lat="47.16945" lon="-1.62142">
        <ele>71</ele>
        <time>2021-06-12T11:18:36.000Z</time>
      </trkpt>
      <trkpt lat="47.16937" lon="-1.62158">
        <ele>71</ele>
        <time>2021-06-12T11:18:38.000Z</time>
      </trkpt>
      <trkpt lat="47.1693" lon="-1.62174">
        <ele>71</ele>
        <time>2021-06-12T11:18:40.000Z</time>
      </trkpt>
      <trkpt lat="47.16922" lon="-1.62191">
        <ele>72</ele>
        <time>2021-06-12T11:18:42.000Z</time>
      </trkpt>
      <trkpt lat="47.16912" lon="-1.62207">
        <ele>72</ele>
        <time>2021-06-12T11:18:44.000Z</time>
      </trkpt>
      <trkpt lat="47.16902" lon="-1.62221">
        <ele>72</ele>
        <time>2021-06-12T11:18:46.000Z</time>
      </trkpt>
      <trkpt lat="47.16891" lon="-1.62235">
        <ele>73</ele>
        <time>2021-06-12T11:18:48.000Z</time>
      </trkpt>
      <trkpt lat="47.1688" lon="-1.62249">
        <ele>73</ele>
        <time>2021-06-12T11:18:50.000Z</time>
      </trkpt>
      <trkpt lat="47.16868" lon="-1.62264">
        <ele>73</ele>
        <time>2021-06-12T11:18:52.000Z</time>
      </trkpt>
      <trkpt lat="47.16856" lon="-1.62277">
        <ele>74</ele>
        <time>2021-06-12T11:18:54.000Z</time>
      </trkpt>
      <trkpt lat="47.16844" lon="-1.6229">
        <ele>74</ele>
        <time>2021-06-12T11:18:56.000Z</time>
      </trkpt>
      <trkpt lat="47.16833" lon="-1.62304">
        <ele>74</ele>
        <time>2021-06-12T11:18:58.000Z</time>
      </trkpt>
      <trkpt lat="47.16822" lon="-1.62315">
        <ele>74</ele>
        <time>2021-06-12T11:19:00.000Z</time>
      </trkpt>
      <trkpt lat="47.16809" lon="-1.62324">
        <ele>74</ele>
        <time>2021-06-12T11:19:02.000Z</time>
      </trkpt>
      <trkpt lat="47.16796" lon="-1.62331">
        <ele>74</ele>
        <time>2021-06-12T11:19:04.000Z</time>
      </trkpt>
      <trkpt lat="47.16783" lon="-1.62338">
        <ele>74</ele>
        <time>2021-06-12T11:19:06.000Z</time>
      </trkpt>
      <trkpt lat="47.16771" lon="-1.62345">
        <ele>74</ele>
        <time>2021-06-12T11:19:08.000Z</time>
      </trkpt>
      <trkpt lat="47.16759" lon="-1.62354">
        <ele>73</ele>
        <time>2021-06-12T11:19:10.000Z</time>
      </trkpt>
      <trkpt lat="47.16747" lon="-1.62365">
        <ele>73</ele>
        <time>2021-06-12T11:19:12.000Z</time>
      </trkpt>
      <trkpt lat="47.16737" lon="-1.62378">
        <ele>73</ele>
        <time>2021-06-12T11:19:14.000Z</time>
      </trkpt>
      <trkpt lat="47.16731" lon="-1.62394">
        <ele>73</ele>
        <time>2021-06-12T11:19:16.000Z</time>
      </trkpt>
      <trkpt lat="47.16728" lon="-1.62411">
        <ele>72</ele>
        <time>2021-06-12T11:19:18.000Z</time>
      </trkpt>
      <trkpt lat="47.16726" lon="-1.62428">
        <ele>72</ele>
        <time>2021-06-12T11:19:20.000Z</time>
      </trkpt>
      <trkpt lat="47.16724" lon="-1.62446">
        <ele>71</ele>
        <time>2021-06-12T11:19:22.000Z</time>
      </trkpt>
      <trkpt lat="47.16719" lon="-1.62463">
        <ele>72</ele>
        <time>2021-06-12T11:19:24.000Z</time>
      </trkpt>
      <trkpt lat="47.16715" lon="-1.62479">
        <ele>72</ele>
        <time>2021-06-12T11:19:26.000Z</time>
      </trkpt>
      <trkpt lat="47.16717" lon="-1.62494">
        <ele>72</ele>
        <time>2021-06-12T11:19:28.000Z</time>
      </trkpt>
      <trkpt lat="47.16727" lon="-1.625">
        <ele>71</ele>
        <time>2021-06-12T11:19:30.000Z</time>
      </trkpt>
      <trkpt lat="47.16738" lon="-1.62504">
        <ele>72</ele>
        <time>2021-06-12T11:19:32.000Z</time>
      </trkpt>
      <trkpt lat="47.16749" lon="-1.62509">
        <ele>72</ele>
        <time>2021-06-12T11:19:34.000Z</time>
      </trkpt>
      <trkpt lat="47.1676" lon="-1.62514">
        <ele>72</ele>
        <time>2021-06-12T11:19:36.000Z</time>
      </trkpt>
      <trkpt lat="47.16771" lon="-1.62521">
        <ele>71</ele>
        <time>2021-06-12T11:19:38.000Z</time>
      </trkpt>
      <trkpt lat="47.16781" lon="-1.62528">
        <ele>72</ele>
        <time>2021-06-12T11:19:40.000Z</time>
      </trkpt>
      <trkpt lat="47.16791" lon="-1.62534">
        <ele>72</ele>
        <time>2021-06-12T11:19:42.000Z</time>
      </trkpt>
      <trkpt lat="47.16801" lon="-1.62542">
        <ele>72</ele>
        <time>2021-06-12T11:19:44.000Z</time>
      </trkpt>
      <trkpt lat="47.16811" lon="-1.62549">
        <ele>71</ele>
        <time>2021-06-12T11:19:46.000Z</time>
      </trkpt>
      <trkpt lat="47.16821" lon="-1.62559">
        <ele>72</ele>
        <time>2021-06-12T11:19:48.000Z</time>
      </trkpt>
      <trkpt lat="47.16829" lon="-1.6257">
        <ele>72</ele>
        <time>2021-06-12T11:19:50.000Z</time>
      </trkpt>
      <trkpt lat="47.1683" lon="-1.62586">
        <ele>72</ele>
        <time>2021-06-12T11:19:52.000Z</time>
      </trkpt>
      <trkpt lat="47.16823" lon="-1.62599">
        <ele>73</ele>
        <time>2021-06-12T11:19:54.000Z</time>
      </trkpt>
      <trkpt lat="47.16815" lon="-1.62612">
        <ele>74</ele>
        <time>2021-06-12T11:19:56.000Z</time>
      </trkpt>
      <trkpt lat="47.16806" lon="-1.62624">
        <ele>74</ele>
        <time>2021-06-12T11:19:58.000Z</time>
      </trkpt>
      <trkpt lat="47.16798" lon="-1.62637">
        <ele>74</ele>
        <time>2021-06-12T11:20:00.000Z</time>
      </trkpt>
      <trkpt lat="47.16791" lon="-1.62648">
        <ele>74</ele>
        <time>2021-06-12T11:20:02.000Z</time>
      </trkpt>
      <trkpt lat="47.16784" lon="-1.62663">
        <ele>74</ele>
        <time>2021-06-12T11:20:05.000Z</time>
      </trkpt>
      <trkpt lat="47.16776" lon="-1.62656">
        <ele>78</ele>
        <time>2021-06-12T11:20:47.000Z</time>
      </trkpt>
    </trkseg>
  </trk>
</gpx>